<?xml version="1.0" encoding="UTF-8" standalone="no" ?>
<gpx xmlns="http://www.topografix.com/GPX/1/1" xmlns:xsi="http://www.w3.org/2001/XMLSchema-instance" xsi:schemaLocation="http://www.topografix.com/GPX/1/1 http://www.topografix.com/GPX/1/1/gpx.xsd" version="1.1" creator="VisuGPX - https://www.visugpx.com">
  <metadata>
    <name>Edirne-Zagreb</name>
  </metadata>
  <trk>
    <name><![CDATA[Tour d'Europe: étape 714]]></name>
    <extensions>
      <line xmlns="http://www.topografix.com/GPX/gpx_style/0/2">
        <color>0000FF</color>
        <width>4</width>
      </line>
    </extensions>
    <trkseg>
      <trkpt lat="43.10744" lon="17.70346">
        <ele>62.559761</ele>
        <time>2022-06-12T08:33:09.102Z</time>
      </trkpt>
      <trkpt lat="43.10848" lon="17.70374">
        <ele>62.275687</ele>
        <time>2022-06-12T08:33:49.094Z</time>
      </trkpt>
      <trkpt lat="43.11056" lon="17.70431">
        <ele>58.263783</ele>
        <time>2022-06-12T08:34:49.109Z</time>
      </trkpt>
      <trkpt lat="43.11271" lon="17.70607">
        <ele>54.943633</ele>
        <time>2022-06-12T08:35:50.101Z</time>
      </trkpt>
      <trkpt lat="43.1143" lon="17.70676">
        <ele>60.75014</ele>
        <time>2022-06-12T08:37:08.099Z</time>
      </trkpt>
      <trkpt lat="43.11622" lon="17.70716">
        <ele>51.14322</ele>
        <time>2022-06-12T08:38:08.112Z</time>
      </trkpt>
      <trkpt lat="43.11796" lon="17.70554">
        <ele>55.499464</ele>
        <time>2022-06-12T08:39:40.103Z</time>
      </trkpt>
      <trkpt lat="43.12013" lon="17.70614">
        <ele>53.547855</ele>
        <time>2022-06-12T08:40:45.078Z</time>
      </trkpt>
      <trkpt lat="43.12223" lon="17.70694">
        <ele>52.231369</ele>
        <time>2022-06-12T08:41:47.079Z</time>
      </trkpt>
      <trkpt lat="43.12348" lon="17.70921">
        <ele>53.916195</ele>
        <time>2022-06-12T08:42:47.074Z</time>
      </trkpt>
      <trkpt lat="43.12435" lon="17.71184">
        <ele>55.663261</ele>
        <time>2022-06-12T08:43:48.071Z</time>
      </trkpt>
      <trkpt lat="43.12524" lon="17.71452">
        <ele>56.676102</ele>
        <time>2022-06-12T08:44:50.112Z</time>
      </trkpt>
      <trkpt lat="43.12621" lon="17.71738">
        <ele>61.028429</ele>
        <time>2022-06-12T08:45:54.070Z</time>
      </trkpt>
      <trkpt lat="43.12709" lon="17.72009">
        <ele>61.530252</ele>
        <time>2022-06-12T08:46:54.072Z</time>
      </trkpt>
      <trkpt lat="43.12769" lon="17.72153">
        <ele>62.767861</ele>
        <time>2022-06-12T08:48:43.075Z</time>
      </trkpt>
      <trkpt lat="43.12894" lon="17.72289">
        <ele>54.370592</ele>
        <time>2022-06-12T08:49:39.072Z</time>
      </trkpt>
      <trkpt lat="43.13119" lon="17.72374">
        <ele>53.781477</ele>
        <time>2022-06-12T08:50:42.096Z</time>
      </trkpt>
      <trkpt lat="43.13342" lon="17.72426">
        <ele>59.271537</ele>
        <time>2022-06-12T08:51:44.069Z</time>
      </trkpt>
      <trkpt lat="43.13556" lon="17.72478">
        <ele>60.587853</ele>
        <time>2022-06-12T08:52:57.121Z</time>
      </trkpt>
      <trkpt lat="43.13775" lon="17.7256">
        <ele>61.788917</ele>
        <time>2022-06-12T08:53:56.093Z</time>
      </trkpt>
      <trkpt lat="43.13985" lon="17.72723">
        <ele>60.809537</ele>
        <time>2022-06-12T09:16:15.085Z</time>
      </trkpt>
      <trkpt lat="43.14189" lon="17.72798">
        <ele>62.49313</ele>
        <time>2022-06-12T09:17:17.103Z</time>
      </trkpt>
      <trkpt lat="43.14389" lon="17.7275">
        <ele>59.189906</ele>
        <time>2022-06-12T09:18:18.093Z</time>
      </trkpt>
      <trkpt lat="43.14576" lon="17.72862">
        <ele>61.064917</ele>
        <time>2022-06-12T09:19:28.090Z</time>
      </trkpt>
      <trkpt lat="43.14744" lon="17.73062">
        <ele>65.22953</ele>
        <time>2022-06-12T09:20:31.145Z</time>
      </trkpt>
      <trkpt lat="43.14901" lon="17.73257">
        <ele>66.842458</ele>
        <time>2022-06-12T09:21:31.134Z</time>
      </trkpt>
      <trkpt lat="43.15027" lon="17.73483">
        <ele>64.771018</ele>
        <time>2022-06-12T09:22:44.093Z</time>
      </trkpt>
      <trkpt lat="43.15154" lon="17.73705">
        <ele>62.526946</ele>
        <time>2022-06-12T09:23:54.104Z</time>
      </trkpt>
      <trkpt lat="43.15311" lon="17.73904">
        <ele>63.882622</ele>
        <time>2022-06-12T09:25:01.086Z</time>
      </trkpt>
      <trkpt lat="43.15463" lon="17.74101">
        <ele>63.134189</ele>
        <time>2022-06-12T09:26:02.093Z</time>
      </trkpt>
      <trkpt lat="43.15624" lon="17.74283">
        <ele>64.952703</ele>
        <time>2022-06-12T09:27:04.092Z</time>
      </trkpt>
      <trkpt lat="43.15755" lon="17.7452">
        <ele>68.128117</ele>
        <time>2022-06-12T09:28:06.101Z</time>
      </trkpt>
      <trkpt lat="43.15866" lon="17.74738">
        <ele>71.166085</ele>
        <time>2022-06-12T09:29:28.112Z</time>
      </trkpt>
      <trkpt lat="43.15919" lon="17.7503">
        <ele>68.884832</ele>
        <time>2022-06-12T09:30:45.122Z</time>
      </trkpt>
      <trkpt lat="43.15913" lon="17.75295">
        <ele>65.873011</ele>
        <time>2022-06-12T09:32:05.111Z</time>
      </trkpt>
      <trkpt lat="43.15983" lon="17.75597">
        <ele>64.758062</ele>
        <time>2022-06-12T09:33:05.105Z</time>
      </trkpt>
      <trkpt lat="43.16147" lon="17.75794">
        <ele>62.543921</ele>
        <time>2022-06-12T09:34:04.100Z</time>
      </trkpt>
      <trkpt lat="43.16367" lon="17.7584">
        <ele>64.438451</ele>
        <time>2022-06-12T09:34:59.145Z</time>
      </trkpt>
      <trkpt lat="43.16588" lon="17.75857">
        <ele>64.914346</ele>
        <time>2022-06-12T09:35:59.103Z</time>
      </trkpt>
      <trkpt lat="43.16793" lon="17.75984">
        <ele>63.905538</ele>
        <time>2022-06-12T09:36:52.108Z</time>
      </trkpt>
      <trkpt lat="43.16943" lon="17.76226">
        <ele>69.30525</ele>
        <time>2022-06-12T09:37:48.104Z</time>
      </trkpt>
      <trkpt lat="43.17066" lon="17.76494">
        <ele>68.479293</ele>
        <time>2022-06-12T09:38:42.100Z</time>
      </trkpt>
      <trkpt lat="43.17103" lon="17.76786">
        <ele>66.692935</ele>
        <time>2022-06-12T09:39:44.109Z</time>
      </trkpt>
      <trkpt lat="43.17101" lon="17.77091">
        <ele>65.47117</ele>
        <time>2022-06-12T09:40:44.107Z</time>
      </trkpt>
      <trkpt lat="43.17094" lon="17.77375">
        <ele>64.969991</ele>
        <time>2022-06-12T09:41:48.121Z</time>
      </trkpt>
      <trkpt lat="43.17088" lon="17.77698">
        <ele>64.795387</ele>
        <time>2022-06-12T09:42:51.092Z</time>
      </trkpt>
      <trkpt lat="43.17118" lon="17.77989">
        <ele>62.390925</ele>
        <time>2022-06-12T09:43:51.099Z</time>
      </trkpt>
      <trkpt lat="43.17269" lon="17.7818">
        <ele>59.88721</ele>
        <time>2022-06-12T09:44:52.115Z</time>
      </trkpt>
      <trkpt lat="43.17461" lon="17.78243">
        <ele>62.113052</ele>
        <time>2022-06-12T09:45:55.111Z</time>
      </trkpt>
      <trkpt lat="43.17631" lon="17.78161">
        <ele>62.080171</ele>
        <time>2022-06-12T09:47:00.101Z</time>
      </trkpt>
      <trkpt lat="43.17829" lon="17.78069">
        <ele>62.935367</ele>
        <time>2022-06-12T09:48:05.099Z</time>
      </trkpt>
      <trkpt lat="43.18016" lon="17.77997">
        <ele>63.556326</ele>
        <time>2022-06-12T09:49:06.094Z</time>
      </trkpt>
      <trkpt lat="43.18214" lon="17.77912">
        <ele>64.256578</ele>
        <time>2022-06-12T09:50:06.097Z</time>
      </trkpt>
      <trkpt lat="43.184" lon="17.77797">
        <ele>62.286184</ele>
        <time>2022-06-12T09:51:06.105Z</time>
      </trkpt>
      <trkpt lat="43.18601" lon="17.77642">
        <ele>58.730119</ele>
        <time>2022-06-12T09:52:09.098Z</time>
      </trkpt>
      <trkpt lat="43.18797" lon="17.77514">
        <ele>62.977138</ele>
        <time>2022-06-12T09:53:08.108Z</time>
      </trkpt>
      <trkpt lat="43.19007" lon="17.77415">
        <ele>66.06079</ele>
        <time>2022-06-12T09:54:12.099Z</time>
      </trkpt>
      <trkpt lat="43.19223" lon="17.77375">
        <ele>67.157967</ele>
        <time>2022-06-12T09:55:11.086Z</time>
      </trkpt>
      <trkpt lat="43.19424" lon="17.77508">
        <ele>69.721724</ele>
        <time>2022-06-12T09:56:14.111Z</time>
      </trkpt>
      <trkpt lat="43.19596" lon="17.77699">
        <ele>66.400497</ele>
        <time>2022-06-12T09:57:13.103Z</time>
      </trkpt>
      <trkpt lat="43.19761" lon="17.77882">
        <ele>68.44786</ele>
        <time>2022-06-12T09:58:13.140Z</time>
      </trkpt>
      <trkpt lat="43.19907" lon="17.78109">
        <ele>70.122377</ele>
        <time>2022-06-12T09:59:15.147Z</time>
      </trkpt>
      <trkpt lat="43.20066" lon="17.78225">
        <ele>68.730275</ele>
        <time>2022-06-12T10:00:20.091Z</time>
      </trkpt>
      <trkpt lat="43.20241" lon="17.78375">
        <ele>68.597991</ele>
        <time>2022-06-12T10:01:24.104Z</time>
      </trkpt>
      <trkpt lat="43.20296" lon="17.78598">
        <ele>70.383324</ele>
        <time>2022-06-12T10:02:24.101Z</time>
      </trkpt>
      <trkpt lat="43.20459" lon="17.78765">
        <ele>70.773163</ele>
        <time>2022-06-12T10:03:30.115Z</time>
      </trkpt>
      <trkpt lat="43.20648" lon="17.78767">
        <ele>69.919269</ele>
        <time>2022-06-12T10:04:38.097Z</time>
      </trkpt>
      <trkpt lat="43.20838" lon="17.78886">
        <ele>70.087391</ele>
        <time>2022-06-12T10:05:48.104Z</time>
      </trkpt>
      <trkpt lat="43.21035" lon="17.78948">
        <ele>69.560227</ele>
        <time>2022-06-12T10:06:53.096Z</time>
      </trkpt>
      <trkpt lat="43.21188" lon="17.79127">
        <ele>73.596047</ele>
        <time>2022-06-12T10:07:59.095Z</time>
      </trkpt>
      <trkpt lat="43.21305" lon="17.79355">
        <ele>76.515848</ele>
        <time>2022-06-12T10:08:59.134Z</time>
      </trkpt>
      <trkpt lat="43.21469" lon="17.79577">
        <ele>71.254736</ele>
        <time>2022-06-12T10:09:59.099Z</time>
      </trkpt>
      <trkpt lat="43.21517" lon="17.79837">
        <ele>72.174368</ele>
        <time>2022-06-12T10:11:29.104Z</time>
      </trkpt>
      <trkpt lat="43.21551" lon="17.80117">
        <ele>80.003308</ele>
        <time>2022-06-12T10:12:52.098Z</time>
      </trkpt>
      <trkpt lat="43.21554" lon="17.80402">
        <ele>81.604102</ele>
        <time>2022-06-12T10:14:21.099Z</time>
      </trkpt>
      <trkpt lat="43.21584" lon="17.80679">
        <ele>79.888415</ele>
        <time>2022-06-12T10:15:46.103Z</time>
      </trkpt>
      <trkpt lat="43.2161" lon="17.80955">
        <ele>79.351438</ele>
        <time>2022-06-12T10:17:16.109Z</time>
      </trkpt>
      <trkpt lat="43.21653" lon="17.81226">
        <ele>78.200845</ele>
        <time>2022-06-12T10:18:42.105Z</time>
      </trkpt>
      <trkpt lat="43.21683" lon="17.81504">
        <ele>79.421128</ele>
        <time>2022-06-12T10:20:07.099Z</time>
      </trkpt>
      <trkpt lat="43.21723" lon="17.81809">
        <ele>78.950144</ele>
        <time>2022-06-12T10:21:42.104Z</time>
      </trkpt>
      <trkpt lat="43.21792" lon="17.8207">
        <ele>76.643344</ele>
        <time>2022-06-12T10:23:07.104Z</time>
      </trkpt>
      <trkpt lat="43.21919" lon="17.82301">
        <ele>76.918258</ele>
        <time>2022-06-12T10:24:21.105Z</time>
      </trkpt>
      <trkpt lat="43.22113" lon="17.82389">
        <ele>76.4111</ele>
        <time>2022-06-12T10:25:21.102Z</time>
      </trkpt>
      <trkpt lat="43.22319" lon="17.82399">
        <ele>77.260541</ele>
        <time>2022-06-12T10:26:27.110Z</time>
      </trkpt>
      <trkpt lat="43.22543" lon="17.8238">
        <ele>78.505258</ele>
        <time>2022-06-12T10:27:26.102Z</time>
      </trkpt>
      <trkpt lat="43.22765" lon="17.82329">
        <ele>76.664059</ele>
        <time>2022-06-12T10:28:25.115Z</time>
      </trkpt>
      <trkpt lat="43.22961" lon="17.82406">
        <ele>78.614795</ele>
        <time>2022-06-12T10:29:25.116Z</time>
      </trkpt>
      <trkpt lat="43.23026" lon="17.82659">
        <ele>79.433917</ele>
        <time>2022-06-12T10:30:25.103Z</time>
      </trkpt>
      <trkpt lat="43.23065" lon="17.82974">
        <ele>78.045332</ele>
        <time>2022-06-12T10:31:28.097Z</time>
      </trkpt>
      <trkpt lat="43.23197" lon="17.83201">
        <ele>75.560342</ele>
        <time>2022-06-12T10:39:34.097Z</time>
      </trkpt>
      <trkpt lat="43.2339" lon="17.83291">
        <ele>73.93172</ele>
        <time>2022-06-12T10:40:39.090Z</time>
      </trkpt>
      <trkpt lat="43.23589" lon="17.83265">
        <ele>76.194069</ele>
        <time>2022-06-12T10:41:45.114Z</time>
      </trkpt>
      <trkpt lat="43.23796" lon="17.83255">
        <ele>74.372092</ele>
        <time>2022-06-12T10:50:54.111Z</time>
      </trkpt>
      <trkpt lat="43.24002" lon="17.83262">
        <ele>75.970147</ele>
        <time>2022-06-12T10:52:20.104Z</time>
      </trkpt>
      <trkpt lat="43.24208" lon="17.83223">
        <ele>76.465878</ele>
        <time>2022-06-12T10:53:23.097Z</time>
      </trkpt>
      <trkpt lat="43.244" lon="17.83086">
        <ele>82.021624</ele>
        <time>2022-06-12T10:54:23.115Z</time>
      </trkpt>
      <trkpt lat="43.2461" lon="17.8298">
        <ele>80.323465</ele>
        <time>2022-06-12T10:55:27.103Z</time>
      </trkpt>
      <trkpt lat="43.24799" lon="17.82836">
        <ele>77.369241</ele>
        <time>2022-06-12T10:56:27.100Z</time>
      </trkpt>
      <trkpt lat="43.24979" lon="17.82661">
        <ele>79.067858</ele>
        <time>2022-06-12T10:57:24.109Z</time>
      </trkpt>
      <trkpt lat="43.25154" lon="17.82517">
        <ele>80.502603</ele>
        <time>2022-06-12T10:58:29.099Z</time>
      </trkpt>
      <trkpt lat="43.25352" lon="17.82382">
        <ele>86.351514</ele>
        <time>2022-06-12T10:59:32.120Z</time>
      </trkpt>
      <trkpt lat="43.2555" lon="17.82333">
        <ele>83.708707</ele>
        <time>2022-06-12T11:00:33.111Z</time>
      </trkpt>
      <trkpt lat="43.25763" lon="17.82359">
        <ele>80.738456</ele>
        <time>2022-06-12T11:01:29.105Z</time>
      </trkpt>
      <trkpt lat="43.25979" lon="17.82389">
        <ele>81.293156</ele>
        <time>2022-06-12T11:02:29.108Z</time>
      </trkpt>
      <trkpt lat="43.26184" lon="17.82441">
        <ele>80.798629</ele>
        <time>2022-06-12T11:03:29.104Z</time>
      </trkpt>
      <trkpt lat="43.26395" lon="17.82464">
        <ele>81.698536</ele>
        <time>2022-06-12T11:04:32.084Z</time>
      </trkpt>
      <trkpt lat="43.26527" lon="17.82331">
        <ele>82.727584</ele>
        <time>2022-06-12T11:05:38.089Z</time>
      </trkpt>
      <trkpt lat="43.26731" lon="17.8232">
        <ele>83.908903</ele>
        <time>2022-06-12T11:06:47.095Z</time>
      </trkpt>
      <trkpt lat="43.26926" lon="17.82311">
        <ele>83.952566</ele>
        <time>2022-06-12T11:07:48.099Z</time>
      </trkpt>
      <trkpt lat="43.27126" lon="17.82328">
        <ele>83.986004</ele>
        <time>2022-06-12T11:08:53.103Z</time>
      </trkpt>
      <trkpt lat="43.27218" lon="17.8258">
        <ele>84.461964</ele>
        <time>2022-06-12T11:09:56.127Z</time>
      </trkpt>
      <trkpt lat="43.27336" lon="17.82817">
        <ele>84.78591</ele>
        <time>2022-06-12T11:10:57.106Z</time>
      </trkpt>
      <trkpt lat="43.27522" lon="17.82949">
        <ele>87.081815</ele>
        <time>2022-06-12T11:11:57.096Z</time>
      </trkpt>
      <trkpt lat="43.27725" lon="17.83039">
        <ele>87.912367</ele>
        <time>2022-06-12T11:13:06.094Z</time>
      </trkpt>
      <trkpt lat="43.27929" lon="17.8311">
        <ele>87.789636</ele>
        <time>2022-06-12T11:14:06.097Z</time>
      </trkpt>
      <trkpt lat="43.28146" lon="17.83143">
        <ele>87.038221</ele>
        <time>2022-06-12T11:15:06.139Z</time>
      </trkpt>
      <trkpt lat="43.28315" lon="17.82997">
        <ele>85.89285</ele>
        <time>2022-06-12T11:16:08.112Z</time>
      </trkpt>
      <trkpt lat="43.28441" lon="17.82775">
        <ele>88.00936</ele>
        <time>2022-06-12T11:17:11.100Z</time>
      </trkpt>
      <trkpt lat="43.2855" lon="17.82552">
        <ele>89.502561</ele>
        <time>2022-06-12T11:18:11.080Z</time>
      </trkpt>
      <trkpt lat="43.28641" lon="17.82311">
        <ele>90.861809</ele>
        <time>2022-06-12T11:19:14.091Z</time>
      </trkpt>
      <trkpt lat="43.28833" lon="17.82324">
        <ele>91.531743</ele>
        <time>2022-06-12T11:20:17.102Z</time>
      </trkpt>
      <trkpt lat="43.29029" lon="17.82335">
        <ele>93.389935</ele>
        <time>2022-06-12T11:21:20.108Z</time>
      </trkpt>
      <trkpt lat="43.29241" lon="17.82315">
        <ele>90.998501</ele>
        <time>2022-06-12T11:22:29.107Z</time>
      </trkpt>
      <trkpt lat="43.29434" lon="17.82286">
        <ele>92.2211</ele>
        <time>2022-06-12T11:23:32.125Z</time>
      </trkpt>
      <trkpt lat="43.29632" lon="17.8223">
        <ele>93.923766</ele>
        <time>2022-06-12T11:24:36.078Z</time>
      </trkpt>
      <trkpt lat="43.2978" lon="17.82157">
        <ele>92.836145</ele>
        <time>2022-06-12T11:52:11.094Z</time>
      </trkpt>
      <trkpt lat="43.29961" lon="17.82152">
        <ele>89.413946</ele>
        <time>2022-06-12T12:27:51.097Z</time>
      </trkpt>
      <trkpt lat="43.30152" lon="17.82121">
        <ele>88.468973</ele>
        <time>2022-06-12T12:34:19.070Z</time>
      </trkpt>
      <trkpt lat="43.3034" lon="17.8217">
        <ele>86.447647</ele>
        <time>2022-06-12T12:36:57.096Z</time>
      </trkpt>
      <trkpt lat="43.3053" lon="17.82222">
        <ele>93.098153</ele>
        <time>2022-06-12T12:40:04.096Z</time>
      </trkpt>
      <trkpt lat="43.30727" lon="17.82277">
        <ele>90.425156</ele>
        <time>2022-06-12T12:42:52.090Z</time>
      </trkpt>
      <trkpt lat="43.30917" lon="17.82305">
        <ele>98.349552</ele>
        <time>2022-06-12T12:45:32.099Z</time>
      </trkpt>
      <trkpt lat="43.31108" lon="17.82288">
        <ele>100.806753</ele>
        <time>2022-06-12T12:48:17.091Z</time>
      </trkpt>
      <trkpt lat="43.313" lon="17.82265">
        <ele>98.868797</ele>
        <time>2022-06-12T12:51:06.080Z</time>
      </trkpt>
      <trkpt lat="43.31491" lon="17.82182">
        <ele>99.137804</ele>
        <time>2022-06-12T12:53:52.093Z</time>
      </trkpt>
      <trkpt lat="43.31677" lon="17.82129">
        <ele>98.056122</ele>
        <time>2022-06-12T12:56:30.087Z</time>
      </trkpt>
      <trkpt lat="43.31878" lon="17.82093">
        <ele>98.573156</ele>
        <time>2022-06-12T12:59:44.063Z</time>
      </trkpt>
      <trkpt lat="43.32066" lon="17.82061">
        <ele>98.856124</ele>
        <time>2022-06-12T13:02:35.096Z</time>
      </trkpt>
      <trkpt lat="43.32279" lon="17.82024">
        <ele>100.289064</ele>
        <time>2022-06-12T13:06:18.093Z</time>
      </trkpt>
      <trkpt lat="43.32459" lon="17.81942">
        <ele>95.330711</ele>
        <time>2022-06-12T13:08:54.122Z</time>
      </trkpt>
      <trkpt lat="43.32599" lon="17.81761">
        <ele>97.11002</ele>
        <time>2022-06-12T13:11:23.090Z</time>
      </trkpt>
      <trkpt lat="43.3275" lon="17.81608">
        <ele>97.06429</ele>
        <time>2022-06-12T13:14:00.068Z</time>
      </trkpt>
      <trkpt lat="43.32968" lon="17.81546">
        <ele>99.993622</ele>
        <time>2022-06-12T13:18:37.089Z</time>
      </trkpt>
      <trkpt lat="43.33168" lon="17.81508">
        <ele>106.152012</ele>
        <time>2022-06-12T13:21:28.116Z</time>
      </trkpt>
      <trkpt lat="43.3334" lon="17.81404">
        <ele>120.148631</ele>
        <time>2022-06-12T13:24:21.089Z</time>
      </trkpt>
      <trkpt lat="43.3351" lon="17.8131">
        <ele>115.732017</ele>
        <time>2022-06-12T13:26:58.138Z</time>
      </trkpt>
      <trkpt lat="43.33642" lon="17.81123">
        <ele>110.127501</ele>
        <time>2022-06-12T13:29:50.093Z</time>
      </trkpt>
      <trkpt lat="43.33734" lon="17.80914">
        <ele>109.129425</ele>
        <time>2022-06-12T13:32:37.074Z</time>
      </trkpt>
      <trkpt lat="43.33835" lon="17.80768">
        <ele>114.890329</ele>
        <time>2022-06-12T13:35:25.065Z</time>
      </trkpt>
      <trkpt lat="43.33798" lon="17.80729">
        <ele>115.553643</ele>
        <time>2022-06-12T13:59:56.777Z</time>
      </trkpt>
    </trkseg>
  </trk>
  <trk>
    <name><![CDATA[Tour d'Europe: étape 713]]></name>
    <extensions>
      <line xmlns="http://www.topografix.com/GPX/gpx_style/0/2">
        <color>00FF00</color>
        <width>4</width>
      </line>
    </extensions>
    <trkseg>
      <trkpt lat="42.84719" lon="17.97979">
        <ele>313.263002</ele>
        <time>2022-06-11T08:03:25.832Z</time>
      </trkpt>
      <trkpt lat="42.84833" lon="17.97985">
        <ele>313.1769</ele>
        <time>2022-06-11T08:15:14.010Z</time>
      </trkpt>
      <trkpt lat="42.85024" lon="17.98124">
        <ele>312.217154</ele>
        <time>2022-06-11T08:16:35.021Z</time>
      </trkpt>
      <trkpt lat="42.85216" lon="17.98216">
        <ele>314.15179</ele>
        <time>2022-06-11T08:17:58.022Z</time>
      </trkpt>
      <trkpt lat="42.8542" lon="17.98232">
        <ele>318.232989</ele>
        <time>2022-06-11T08:19:33.029Z</time>
      </trkpt>
      <trkpt lat="42.85602" lon="17.981">
        <ele>320.517492</ele>
        <time>2022-06-11T08:21:09.025Z</time>
      </trkpt>
      <trkpt lat="42.85786" lon="17.98026">
        <ele>325.75459</ele>
        <time>2022-06-11T08:22:42.022Z</time>
      </trkpt>
      <trkpt lat="42.85928" lon="17.97866">
        <ele>323.458735</ele>
        <time>2022-06-11T08:24:19.043Z</time>
      </trkpt>
      <trkpt lat="42.85897" lon="17.97603">
        <ele>325.923336</ele>
        <time>2022-06-11T08:25:56.062Z</time>
      </trkpt>
      <trkpt lat="42.86" lon="17.97371">
        <ele>329.217684</ele>
        <time>2022-06-11T08:27:28.011Z</time>
      </trkpt>
      <trkpt lat="42.86052" lon="17.97098">
        <ele>333.092076</ele>
        <time>2022-06-11T08:29:05.055Z</time>
      </trkpt>
      <trkpt lat="42.86235" lon="17.97018">
        <ele>336.280232</ele>
        <time>2022-06-11T08:30:38.031Z</time>
      </trkpt>
      <trkpt lat="42.86458" lon="17.97032">
        <ele>338.201482</ele>
        <time>2022-06-11T08:32:01.016Z</time>
      </trkpt>
      <trkpt lat="42.86661" lon="17.97037">
        <ele>340.941394</ele>
        <time>2022-06-11T08:33:19.032Z</time>
      </trkpt>
      <trkpt lat="42.87163" lon="17.97305">
        <ele>365.37272</ele>
        <time>2022-06-11T08:40:39.023Z</time>
      </trkpt>
      <trkpt lat="42.87375" lon="17.97293">
        <ele>352.156259</ele>
        <time>2022-06-11T08:44:41.022Z</time>
      </trkpt>
      <trkpt lat="42.8757" lon="17.97272">
        <ele>351.906389</ele>
        <time>2022-06-11T08:46:21.066Z</time>
      </trkpt>
      <trkpt lat="42.87765" lon="17.97238">
        <ele>356.80369</ele>
        <time>2022-06-11T08:48:06.030Z</time>
      </trkpt>
      <trkpt lat="42.87924" lon="17.97065">
        <ele>358.557341</ele>
        <time>2022-06-11T08:49:46.024Z</time>
      </trkpt>
      <trkpt lat="42.88106" lon="17.96953">
        <ele>358.680691</ele>
        <time>2022-06-11T08:51:26.028Z</time>
      </trkpt>
      <trkpt lat="42.88243" lon="17.97141">
        <ele>359.217666</ele>
        <time>2022-06-11T08:53:11.027Z</time>
      </trkpt>
      <trkpt lat="42.88401" lon="17.97265">
        <ele>362.640349</ele>
        <time>2022-06-11T08:54:57.060Z</time>
      </trkpt>
      <trkpt lat="42.88601" lon="17.97181">
        <ele>365.454209</ele>
        <time>2022-06-11T08:56:10.027Z</time>
      </trkpt>
      <trkpt lat="42.88792" lon="17.9711">
        <ele>365.942693</ele>
        <time>2022-06-11T08:57:13.032Z</time>
      </trkpt>
      <trkpt lat="42.88991" lon="17.97157">
        <ele>365.956439</ele>
        <time>2022-06-11T08:58:28.018Z</time>
      </trkpt>
      <trkpt lat="42.892" lon="17.97122">
        <ele>363.326515</ele>
        <time>2022-06-11T08:59:31.010Z</time>
      </trkpt>
      <trkpt lat="42.89408" lon="17.97197">
        <ele>360.544507</ele>
        <time>2022-06-11T09:00:31.008Z</time>
      </trkpt>
      <trkpt lat="42.89579" lon="17.97415">
        <ele>362.177107</ele>
        <time>2022-06-11T09:01:34.021Z</time>
      </trkpt>
      <trkpt lat="42.89661" lon="17.97683">
        <ele>365.607085</ele>
        <time>2022-06-11T09:02:35.014Z</time>
      </trkpt>
      <trkpt lat="42.89824" lon="17.97843">
        <ele>365.816556</ele>
        <time>2022-06-11T09:03:35.021Z</time>
      </trkpt>
      <trkpt lat="42.90029" lon="17.97812">
        <ele>364.886826</ele>
        <time>2022-06-11T09:04:40.024Z</time>
      </trkpt>
      <trkpt lat="42.90227" lon="17.97747">
        <ele>364.569231</ele>
        <time>2022-06-11T09:05:45.022Z</time>
      </trkpt>
      <trkpt lat="42.90454" lon="17.97738">
        <ele>360.846278</ele>
        <time>2022-06-11T09:06:48.021Z</time>
      </trkpt>
      <trkpt lat="42.9066" lon="17.97758">
        <ele>357.859743</ele>
        <time>2022-06-11T09:07:48.015Z</time>
      </trkpt>
      <trkpt lat="42.90855" lon="17.97665">
        <ele>353.450433</ele>
        <time>2022-06-11T09:08:49.029Z</time>
      </trkpt>
      <trkpt lat="42.91032" lon="17.97498">
        <ele>358.104714</ele>
        <time>2022-06-11T09:09:52.016Z</time>
      </trkpt>
      <trkpt lat="42.91191" lon="17.97324">
        <ele>361.07511</ele>
        <time>2022-06-11T09:10:54.028Z</time>
      </trkpt>
      <trkpt lat="42.91425" lon="17.97292">
        <ele>356.746753</ele>
        <time>2022-06-11T09:11:57.021Z</time>
      </trkpt>
      <trkpt lat="42.91608" lon="17.97167">
        <ele>358.630282</ele>
        <time>2022-06-11T09:12:57.021Z</time>
      </trkpt>
      <trkpt lat="42.91812" lon="17.97097">
        <ele>358.189644</ele>
        <time>2022-06-11T09:13:57.024Z</time>
      </trkpt>
      <trkpt lat="42.91997" lon="17.96914">
        <ele>358.141501</ele>
        <time>2022-06-11T09:15:00.019Z</time>
      </trkpt>
      <trkpt lat="42.92129" lon="17.96667">
        <ele>354.660101</ele>
        <time>2022-06-11T09:16:00.029Z</time>
      </trkpt>
      <trkpt lat="42.92239" lon="17.964">
        <ele>351.528803</ele>
        <time>2022-06-11T09:17:03.017Z</time>
      </trkpt>
      <trkpt lat="42.92322" lon="17.96098">
        <ele>350.717875</ele>
        <time>2022-06-11T09:18:00.014Z</time>
      </trkpt>
      <trkpt lat="42.92454" lon="17.95844">
        <ele>353.7988</ele>
        <time>2022-06-11T09:18:51.023Z</time>
      </trkpt>
      <trkpt lat="42.92555" lon="17.95567">
        <ele>349.70356</ele>
        <time>2022-06-11T09:19:47.017Z</time>
      </trkpt>
      <trkpt lat="42.92674" lon="17.95289">
        <ele>348.813656</ele>
        <time>2022-06-11T09:20:44.012Z</time>
      </trkpt>
      <trkpt lat="42.92739" lon="17.94985">
        <ele>345.204739</ele>
        <time>2022-06-11T09:21:37.030Z</time>
      </trkpt>
      <trkpt lat="42.92753" lon="17.94699">
        <ele>347.314377</ele>
        <time>2022-06-11T09:22:25.018Z</time>
      </trkpt>
      <trkpt lat="42.92728" lon="17.94413">
        <ele>343.933955</ele>
        <time>2022-06-11T09:23:15.036Z</time>
      </trkpt>
      <trkpt lat="42.92706" lon="17.94052">
        <ele>339.248306</ele>
        <time>2022-06-11T09:24:17.016Z</time>
      </trkpt>
      <trkpt lat="42.92684" lon="17.93753">
        <ele>339.192175</ele>
        <time>2022-06-11T09:25:07.044Z</time>
      </trkpt>
      <trkpt lat="42.92627" lon="17.93498">
        <ele>337.767885</ele>
        <time>2022-06-11T09:25:49.016Z</time>
      </trkpt>
      <trkpt lat="42.92538" lon="17.93268">
        <ele>334.9266</ele>
        <time>2022-06-11T09:26:30.073Z</time>
      </trkpt>
      <trkpt lat="42.92381" lon="17.93077">
        <ele>334.524835</ele>
        <time>2022-06-11T09:27:17.022Z</time>
      </trkpt>
      <trkpt lat="42.9216" lon="17.92962">
        <ele>337.267011</ele>
        <time>2022-06-11T09:28:18.022Z</time>
      </trkpt>
      <trkpt lat="42.91963" lon="17.92854">
        <ele>337.045648</ele>
        <time>2022-06-11T09:29:16.022Z</time>
      </trkpt>
      <trkpt lat="42.91758" lon="17.92919">
        <ele>337.247102</ele>
        <time>2022-06-11T09:30:04.019Z</time>
      </trkpt>
      <trkpt lat="42.91532" lon="17.93038">
        <ele>335.641523</ele>
        <time>2022-06-11T09:31:01.029Z</time>
      </trkpt>
      <trkpt lat="42.913" lon="17.9303">
        <ele>335.176232</ele>
        <time>2022-06-11T09:31:54.024Z</time>
      </trkpt>
      <trkpt lat="42.91087" lon="17.92899">
        <ele>333.772645</ele>
        <time>2022-06-11T09:32:49.026Z</time>
      </trkpt>
      <trkpt lat="42.90882" lon="17.92744">
        <ele>334.974367</ele>
        <time>2022-06-11T09:33:43.015Z</time>
      </trkpt>
      <trkpt lat="42.90674" lon="17.92671">
        <ele>336.519892</ele>
        <time>2022-06-11T09:34:25.022Z</time>
      </trkpt>
      <trkpt lat="42.90456" lon="17.92776">
        <ele>334.173545</ele>
        <time>2022-06-11T09:35:05.031Z</time>
      </trkpt>
      <trkpt lat="42.9024" lon="17.92857">
        <ele>333.782733</ele>
        <time>2022-06-11T09:35:45.010Z</time>
      </trkpt>
      <trkpt lat="42.90063" lon="17.92689">
        <ele>332.299488</ele>
        <time>2022-06-11T09:36:28.028Z</time>
      </trkpt>
      <trkpt lat="42.90093" lon="17.92426">
        <ele>334.543435</ele>
        <time>2022-06-11T09:37:12.003Z</time>
      </trkpt>
      <trkpt lat="42.90143" lon="17.92146">
        <ele>334.828818</ele>
        <time>2022-06-11T09:37:57.010Z</time>
      </trkpt>
      <trkpt lat="42.90032" lon="17.91927">
        <ele>332.509201</ele>
        <time>2022-06-11T09:38:40.028Z</time>
      </trkpt>
      <trkpt lat="42.89906" lon="17.91714">
        <ele>333.175173</ele>
        <time>2022-06-11T09:39:24.068Z</time>
      </trkpt>
      <trkpt lat="42.89895" lon="17.91428">
        <ele>334.414181</ele>
        <time>2022-06-11T09:40:08.055Z</time>
      </trkpt>
      <trkpt lat="42.89951" lon="17.91191">
        <ele>335.720814</ele>
        <time>2022-06-11T09:40:51.026Z</time>
      </trkpt>
      <trkpt lat="42.90161" lon="17.91074">
        <ele>332.975275</ele>
        <time>2022-06-11T09:41:41.014Z</time>
      </trkpt>
      <trkpt lat="42.90387" lon="17.90994">
        <ele>331.191679</ele>
        <time>2022-06-11T09:42:38.054Z</time>
      </trkpt>
      <trkpt lat="42.90561" lon="17.9077">
        <ele>329.630548</ele>
        <time>2022-06-11T09:43:33.030Z</time>
      </trkpt>
      <trkpt lat="42.90683" lon="17.90516">
        <ele>329.170818</ele>
        <time>2022-06-11T09:44:22.012Z</time>
      </trkpt>
      <trkpt lat="42.90811" lon="17.90328">
        <ele>328.337627</ele>
        <time>2022-06-11T09:45:04.068Z</time>
      </trkpt>
      <trkpt lat="42.91027" lon="17.90453">
        <ele>327.888826</ele>
        <time>2022-06-11T09:46:05.037Z</time>
      </trkpt>
      <trkpt lat="42.91233" lon="17.90397">
        <ele>327.024573</ele>
        <time>2022-06-11T09:47:05.024Z</time>
      </trkpt>
      <trkpt lat="42.91384" lon="17.90176">
        <ele>328.430804</ele>
        <time>2022-06-11T09:48:05.031Z</time>
      </trkpt>
      <trkpt lat="42.91465" lon="17.89866">
        <ele>326.061412</ele>
        <time>2022-06-11T09:49:08.022Z</time>
      </trkpt>
      <trkpt lat="42.91517" lon="17.89558">
        <ele>325.508096</ele>
        <time>2022-06-11T09:50:08.026Z</time>
      </trkpt>
      <trkpt lat="42.91611" lon="17.89241">
        <ele>325.49089</ele>
        <time>2022-06-11T09:51:11.038Z</time>
      </trkpt>
      <trkpt lat="42.91674" lon="17.88914">
        <ele>324.660503</ele>
        <time>2022-06-11T09:52:09.014Z</time>
      </trkpt>
      <trkpt lat="42.91769" lon="17.88623">
        <ele>325.854801</ele>
        <time>2022-06-11T10:22:00.025Z</time>
      </trkpt>
      <trkpt lat="42.91798" lon="17.88319">
        <ele>323.376589</ele>
        <time>2022-06-11T10:25:24.018Z</time>
      </trkpt>
      <trkpt lat="42.91865" lon="17.87999">
        <ele>322.440832</ele>
        <time>2022-06-11T10:26:24.012Z</time>
      </trkpt>
      <trkpt lat="42.91968" lon="17.87683">
        <ele>322.168673</ele>
        <time>2022-06-11T10:27:27.033Z</time>
      </trkpt>
      <trkpt lat="42.92111" lon="17.87423">
        <ele>319.202316</ele>
        <time>2022-06-11T10:28:27.020Z</time>
      </trkpt>
      <trkpt lat="42.92221" lon="17.87137">
        <ele>322.45862</ele>
        <time>2022-06-11T10:29:27.086Z</time>
      </trkpt>
      <trkpt lat="42.9234" lon="17.86825">
        <ele>324.168967</ele>
        <time>2022-06-11T10:30:30.043Z</time>
      </trkpt>
      <trkpt lat="42.92445" lon="17.86523">
        <ele>323.096446</ele>
        <time>2022-06-11T10:31:28.044Z</time>
      </trkpt>
      <trkpt lat="42.92338" lon="17.86259">
        <ele>324.311589</ele>
        <time>2022-06-11T10:32:29.020Z</time>
      </trkpt>
      <trkpt lat="42.92192" lon="17.86009">
        <ele>324.665584</ele>
        <time>2022-06-11T10:33:29.023Z</time>
      </trkpt>
      <trkpt lat="42.92159" lon="17.85682">
        <ele>322.276013</ele>
        <time>2022-06-11T10:34:29.025Z</time>
      </trkpt>
      <trkpt lat="42.92107" lon="17.85369">
        <ele>321.044109</ele>
        <time>2022-06-11T10:35:23.020Z</time>
      </trkpt>
      <trkpt lat="42.92126" lon="17.85031">
        <ele>322.627284</ele>
        <time>2022-06-11T10:36:22.025Z</time>
      </trkpt>
      <trkpt lat="42.91997" lon="17.84746">
        <ele>325.10991</ele>
        <time>2022-06-11T10:37:24.020Z</time>
      </trkpt>
      <trkpt lat="42.91908" lon="17.84459">
        <ele>326.043134</ele>
        <time>2022-06-11T10:38:16.027Z</time>
      </trkpt>
      <trkpt lat="42.91865" lon="17.84157">
        <ele>323.257633</ele>
        <time>2022-06-11T10:39:10.019Z</time>
      </trkpt>
      <trkpt lat="42.91959" lon="17.83837">
        <ele>320.733835</ele>
        <time>2022-06-11T10:40:12.022Z</time>
      </trkpt>
      <trkpt lat="42.92074" lon="17.83555">
        <ele>320.684205</ele>
        <time>2022-06-11T10:41:12.062Z</time>
      </trkpt>
      <trkpt lat="42.92221" lon="17.83263">
        <ele>319.735403</ele>
        <time>2022-06-11T10:42:15.021Z</time>
      </trkpt>
      <trkpt lat="42.9242" lon="17.83089">
        <ele>317.91048</ele>
        <time>2022-06-11T10:43:15.017Z</time>
      </trkpt>
      <trkpt lat="42.9262" lon="17.82936">
        <ele>319.420468</ele>
        <time>2022-06-11T10:44:15.024Z</time>
      </trkpt>
      <trkpt lat="42.92826" lon="17.82772">
        <ele>319.682875</ele>
        <time>2022-06-11T10:45:18.007Z</time>
      </trkpt>
      <trkpt lat="42.93023" lon="17.82581">
        <ele>318.494425</ele>
        <time>2022-06-11T10:46:16.026Z</time>
      </trkpt>
      <trkpt lat="42.93175" lon="17.82338">
        <ele>316.535626</ele>
        <time>2022-06-11T10:47:09.057Z</time>
      </trkpt>
      <trkpt lat="42.93329" lon="17.82119">
        <ele>314.930396</ele>
        <time>2022-06-11T10:47:59.016Z</time>
      </trkpt>
      <trkpt lat="42.93423" lon="17.81984">
        <ele>314.034704</ele>
        <time>2022-06-11T10:51:32.024Z</time>
      </trkpt>
      <trkpt lat="42.93538" lon="17.82172">
        <ele>295.799364</ele>
        <time>2022-06-11T10:52:14.009Z</time>
      </trkpt>
      <trkpt lat="42.93743" lon="17.82226">
        <ele>285.846764</ele>
        <time>2022-06-11T10:53:07.021Z</time>
      </trkpt>
      <trkpt lat="42.93958" lon="17.82238">
        <ele>296.653125</ele>
        <time>2022-06-11T10:54:54.069Z</time>
      </trkpt>
      <trkpt lat="42.9417" lon="17.8224">
        <ele>295.694902</ele>
        <time>2022-06-11T10:55:57.020Z</time>
      </trkpt>
      <trkpt lat="42.94363" lon="17.82181">
        <ele>291.347673</ele>
        <time>2022-06-11T10:57:29.014Z</time>
      </trkpt>
      <trkpt lat="42.94544" lon="17.82042">
        <ele>290.625842</ele>
        <time>2022-06-11T10:59:09.016Z</time>
      </trkpt>
      <trkpt lat="42.94711" lon="17.81917">
        <ele>298.199999</ele>
        <time>2022-06-11T11:00:38.028Z</time>
      </trkpt>
      <trkpt lat="42.94879" lon="17.81749">
        <ele>315.131177</ele>
        <time>2022-06-11T11:02:04.023Z</time>
      </trkpt>
      <trkpt lat="42.95054" lon="17.81646">
        <ele>329.889784</ele>
        <time>2022-06-11T11:03:28.017Z</time>
      </trkpt>
      <trkpt lat="42.95239" lon="17.81543">
        <ele>329.751098</ele>
        <time>2022-06-11T11:04:51.019Z</time>
      </trkpt>
      <trkpt lat="42.95379" lon="17.81356">
        <ele>331.744398</ele>
        <time>2022-06-11T11:06:29.019Z</time>
      </trkpt>
      <trkpt lat="42.95507" lon="17.81147">
        <ele>332.716476</ele>
        <time>2022-06-11T11:08:09.015Z</time>
      </trkpt>
      <trkpt lat="42.956" lon="17.80877">
        <ele>342.953435</ele>
        <time>2022-06-11T11:09:30.018Z</time>
      </trkpt>
      <trkpt lat="42.95655" lon="17.80602">
        <ele>343.450769</ele>
        <time>2022-06-11T11:10:17.023Z</time>
      </trkpt>
      <trkpt lat="42.9565" lon="17.80339">
        <ele>346.469472</ele>
        <time>2022-06-11T11:11:39.049Z</time>
      </trkpt>
      <trkpt lat="42.95654" lon="17.80318">
        <ele>349.247495</ele>
        <time>2022-06-11T11:22:51.031Z</time>
      </trkpt>
      <trkpt lat="42.95662" lon="17.80521">
        <ele>333.322781</ele>
        <time>2022-06-11T11:24:10.024Z</time>
      </trkpt>
      <trkpt lat="42.95727" lon="17.80258">
        <ele>336.264287</ele>
        <time>2022-06-11T11:34:33.997Z</time>
      </trkpt>
      <trkpt lat="42.95748" lon="17.80046">
        <ele>337.110388</ele>
        <time>2022-06-11T11:35:47.031Z</time>
      </trkpt>
      <trkpt lat="42.95922" lon="17.79886">
        <ele>332.937296</ele>
        <time>2022-06-11T11:36:57.020Z</time>
      </trkpt>
      <trkpt lat="42.96118" lon="17.79752">
        <ele>323.477659</ele>
        <time>2022-06-11T11:38:06.025Z</time>
      </trkpt>
      <trkpt lat="42.9631" lon="17.79628">
        <ele>320.150202</ele>
        <time>2022-06-11T11:39:19.007Z</time>
      </trkpt>
      <trkpt lat="42.96511" lon="17.79557">
        <ele>330.579138</ele>
        <time>2022-06-11T11:40:51.023Z</time>
      </trkpt>
      <trkpt lat="42.96646" lon="17.79618">
        <ele>343.1809</ele>
        <time>2022-06-11T11:42:30.002Z</time>
      </trkpt>
      <trkpt lat="42.96742" lon="17.79434">
        <ele>350.597145</ele>
        <time>2022-06-11T11:47:30.993Z</time>
      </trkpt>
      <trkpt lat="42.96989" lon="17.79304">
        <ele>352.284366</ele>
        <time>2022-06-11T11:48:22.002Z</time>
      </trkpt>
      <trkpt lat="42.97173" lon="17.79339">
        <ele>357.859859</ele>
        <time>2022-06-11T11:49:30.045Z</time>
      </trkpt>
      <trkpt lat="42.97368" lon="17.79382">
        <ele>368.329046</ele>
        <time>2022-06-11T11:51:14.024Z</time>
      </trkpt>
      <trkpt lat="42.97566" lon="17.79327">
        <ele>379.080711</ele>
        <time>2022-06-11T11:53:21.011Z</time>
      </trkpt>
      <trkpt lat="42.97741" lon="17.79461">
        <ele>380.992341</ele>
        <time>2022-06-11T11:54:51.990Z</time>
      </trkpt>
      <trkpt lat="42.97946" lon="17.79485">
        <ele>388.263842</ele>
        <time>2022-06-11T11:56:16.056Z</time>
      </trkpt>
      <trkpt lat="42.98141" lon="17.7942">
        <ele>396.639368</ele>
        <time>2022-06-11T11:58:11.029Z</time>
      </trkpt>
      <trkpt lat="42.9832" lon="17.79517">
        <ele>412.978702</ele>
        <time>2022-06-11T12:03:20.023Z</time>
      </trkpt>
      <trkpt lat="42.98405" lon="17.79728">
        <ele>436.023581</ele>
        <time>2022-06-11T12:06:44.020Z</time>
      </trkpt>
      <trkpt lat="42.98322" lon="17.79957">
        <ele>452.422663</ele>
        <time>2022-06-11T12:09:35.022Z</time>
      </trkpt>
      <trkpt lat="42.98263" lon="17.80224">
        <ele>460.249095</ele>
        <time>2022-06-11T12:11:48.998Z</time>
      </trkpt>
      <trkpt lat="42.98325" lon="17.80477">
        <ele>451.580831</ele>
        <time>2022-06-11T12:13:01.008Z</time>
      </trkpt>
      <trkpt lat="42.9851" lon="17.80773">
        <ele>434.001091</ele>
        <time>2022-06-11T12:13:34.999Z</time>
      </trkpt>
      <trkpt lat="42.98654" lon="17.81041">
        <ele>429.391861</ele>
        <time>2022-06-11T12:25:24.011Z</time>
      </trkpt>
      <trkpt lat="42.9859" lon="17.81301">
        <ele>428.097597</ele>
        <time>2022-06-11T12:26:23.018Z</time>
      </trkpt>
      <trkpt lat="42.98718" lon="17.81544">
        <ele>426.660909</ele>
        <time>2022-06-11T12:27:11.053Z</time>
      </trkpt>
      <trkpt lat="42.98775" lon="17.81808">
        <ele>427.789304</ele>
        <time>2022-06-11T12:27:55.004Z</time>
      </trkpt>
      <trkpt lat="42.98842" lon="17.82132">
        <ele>431.5682</ele>
        <time>2022-06-11T12:28:54.034Z</time>
      </trkpt>
      <trkpt lat="42.9893" lon="17.82421">
        <ele>431.094365</ele>
        <time>2022-06-11T12:29:56.020Z</time>
      </trkpt>
      <trkpt lat="42.9906" lon="17.82185">
        <ele>424.847938</ele>
        <time>2022-06-11T12:30:43.013Z</time>
      </trkpt>
      <trkpt lat="42.99208" lon="17.81864">
        <ele>418.794051</ele>
        <time>2022-06-11T12:31:27.028Z</time>
      </trkpt>
      <trkpt lat="42.9929" lon="17.81542">
        <ele>407.341182</ele>
        <time>2022-06-11T12:32:09.026Z</time>
      </trkpt>
      <trkpt lat="42.99406" lon="17.81195">
        <ele>387.656034</ele>
        <time>2022-06-11T12:32:45.058Z</time>
      </trkpt>
      <trkpt lat="42.99576" lon="17.80987">
        <ele>375.608686</ele>
        <time>2022-06-11T12:33:29.053Z</time>
      </trkpt>
      <trkpt lat="42.99758" lon="17.80874">
        <ele>375.419952</ele>
        <time>2022-06-11T12:34:28.010Z</time>
      </trkpt>
      <trkpt lat="42.99929" lon="17.80673">
        <ele>373.303334</ele>
        <time>2022-06-11T12:35:19.037Z</time>
      </trkpt>
      <trkpt lat="43.0009" lon="17.80497">
        <ele>364.933012</ele>
        <time>2022-06-11T12:35:59.065Z</time>
      </trkpt>
      <trkpt lat="43.00269" lon="17.80338">
        <ele>347.499242</ele>
        <time>2022-06-11T12:36:44.026Z</time>
      </trkpt>
      <trkpt lat="43.00387" lon="17.80188">
        <ele>322.404273</ele>
        <time>2022-06-11T12:37:28.035Z</time>
      </trkpt>
      <trkpt lat="43.0053" lon="17.80417">
        <ele>304.938189</ele>
        <time>2022-06-11T12:38:08.022Z</time>
      </trkpt>
      <trkpt lat="43.00559" lon="17.80649">
        <ele>292.534429</ele>
        <time>2022-06-11T12:48:30.032Z</time>
      </trkpt>
      <trkpt lat="43.00528" lon="17.80678">
        <ele>282.288581</ele>
        <time>2022-06-11T12:49:29.032Z</time>
      </trkpt>
      <trkpt lat="43.00497" lon="17.80704">
        <ele>272.482504</ele>
        <time>2022-06-11T12:50:18.014Z</time>
      </trkpt>
      <trkpt lat="43.00737" lon="17.80694">
        <ele>254.428317</ele>
        <time>2022-06-11T12:51:03.023Z</time>
      </trkpt>
      <trkpt lat="43.00835" lon="17.80515">
        <ele>242.324296</ele>
        <time>2022-06-11T12:51:53.021Z</time>
      </trkpt>
      <trkpt lat="43.00887" lon="17.80315">
        <ele>232.301544</ele>
        <time>2022-06-11T12:52:38.017Z</time>
      </trkpt>
      <trkpt lat="43.00934" lon="17.80038">
        <ele>225.961187</ele>
        <time>2022-06-11T12:54:19.032Z</time>
      </trkpt>
      <trkpt lat="43.00748" lon="17.79919">
        <ele>209.665897</ele>
        <time>2022-06-11T12:55:00.040Z</time>
      </trkpt>
      <trkpt lat="43.00851" lon="17.79761">
        <ele>196.800225</ele>
        <time>2022-06-11T12:55:49.029Z</time>
      </trkpt>
      <trkpt lat="43.0109" lon="17.79754">
        <ele>191.673402</ele>
        <time>2022-06-11T12:56:29.025Z</time>
      </trkpt>
      <trkpt lat="43.01103" lon="17.79512">
        <ele>180.742641</ele>
        <time>2022-06-11T12:57:20.016Z</time>
      </trkpt>
      <trkpt lat="43.01047" lon="17.7932">
        <ele>168.384535</ele>
        <time>2022-06-11T12:58:08.054Z</time>
      </trkpt>
      <trkpt lat="43.01025" lon="17.79071">
        <ele>159.117524</ele>
        <time>2022-06-11T12:58:53.014Z</time>
      </trkpt>
      <trkpt lat="43.01223" lon="17.79035">
        <ele>147.131933</ele>
        <time>2022-06-11T12:59:36.015Z</time>
      </trkpt>
      <trkpt lat="43.01248" lon="17.7881">
        <ele>133.740086</ele>
        <time>2022-06-11T13:00:16.020Z</time>
      </trkpt>
      <trkpt lat="43.0138" lon="17.78586">
        <ele>117.729868</ele>
        <time>2022-06-11T13:01:00.048Z</time>
      </trkpt>
      <trkpt lat="43.01563" lon="17.78467">
        <ele>101.177184</ele>
        <time>2022-06-11T13:01:45.023Z</time>
      </trkpt>
      <trkpt lat="43.01676" lon="17.78307">
        <ele>80.696798</ele>
        <time>2022-06-11T13:02:32.023Z</time>
      </trkpt>
      <trkpt lat="43.01705" lon="17.78105">
        <ele>62.450505</ele>
        <time>2022-06-11T13:03:28.017Z</time>
      </trkpt>
      <trkpt lat="43.01528" lon="17.77869">
        <ele>57.945993</ele>
        <time>2022-06-11T13:04:08.016Z</time>
      </trkpt>
      <trkpt lat="43.01618" lon="17.77648">
        <ele>60.344647</ele>
        <time>2022-06-11T13:05:03.026Z</time>
      </trkpt>
      <trkpt lat="43.01751" lon="17.77441">
        <ele>64.5359</ele>
        <time>2022-06-11T13:06:04.035Z</time>
      </trkpt>
      <trkpt lat="43.019" lon="17.77218">
        <ele>66.100387</ele>
        <time>2022-06-11T13:07:06.023Z</time>
      </trkpt>
      <trkpt lat="43.01899" lon="17.76946">
        <ele>64.126668</ele>
        <time>2022-06-11T13:08:13.020Z</time>
      </trkpt>
      <trkpt lat="43.02031" lon="17.7673">
        <ele>69.45057</ele>
        <time>2022-06-11T13:09:29.031Z</time>
      </trkpt>
      <trkpt lat="43.02121" lon="17.76436">
        <ele>66.448233</ele>
        <time>2022-06-11T13:10:32.025Z</time>
      </trkpt>
      <trkpt lat="43.02227" lon="17.76174">
        <ele>62.904585</ele>
        <time>2022-06-11T13:11:28.028Z</time>
      </trkpt>
      <trkpt lat="43.02287" lon="17.75889">
        <ele>58.167204</ele>
        <time>2022-06-11T13:12:16.027Z</time>
      </trkpt>
      <trkpt lat="43.02478" lon="17.75673">
        <ele>57.656963</ele>
        <time>2022-06-11T13:13:18.054Z</time>
      </trkpt>
      <trkpt lat="43.02628" lon="17.75463">
        <ele>59.510164</ele>
        <time>2022-06-11T13:14:24.029Z</time>
      </trkpt>
      <trkpt lat="43.02766" lon="17.75252">
        <ele>64.991712</ele>
        <time>2022-06-11T13:15:27.027Z</time>
      </trkpt>
      <trkpt lat="43.02835" lon="17.74993">
        <ele>68.979832</ele>
        <time>2022-06-11T13:16:28.021Z</time>
      </trkpt>
      <trkpt lat="43.0286" lon="17.74711">
        <ele>74.19628</ele>
        <time>2022-06-11T13:17:40.018Z</time>
      </trkpt>
      <trkpt lat="43.02976" lon="17.7442">
        <ele>78.470887</ele>
        <time>2022-06-11T13:18:46.026Z</time>
      </trkpt>
      <trkpt lat="43.03083" lon="17.74182">
        <ele>77.06101</ele>
        <time>2022-06-11T13:19:29.052Z</time>
      </trkpt>
      <trkpt lat="43.03157" lon="17.73946">
        <ele>70.890702</ele>
        <time>2022-06-11T13:20:11.028Z</time>
      </trkpt>
      <trkpt lat="43.03293" lon="17.73751">
        <ele>68.824619</ele>
        <time>2022-06-11T13:20:51.028Z</time>
      </trkpt>
      <trkpt lat="43.03374" lon="17.73501">
        <ele>68.780817</ele>
        <time>2022-06-11T13:21:32.020Z</time>
      </trkpt>
      <trkpt lat="43.03397" lon="17.73214">
        <ele>63.019468</ele>
        <time>2022-06-11T13:22:23.026Z</time>
      </trkpt>
      <trkpt lat="43.03426" lon="17.72893">
        <ele>58.884715</ele>
        <time>2022-06-11T13:23:22.032Z</time>
      </trkpt>
      <trkpt lat="43.03475" lon="17.72598">
        <ele>67.079794</ele>
        <time>2022-06-11T13:24:49.019Z</time>
      </trkpt>
      <trkpt lat="43.03594" lon="17.72355">
        <ele>72.103397</ele>
        <time>2022-06-11T13:25:53.031Z</time>
      </trkpt>
      <trkpt lat="43.03707" lon="17.72097">
        <ele>70.813654</ele>
        <time>2022-06-11T13:26:53.024Z</time>
      </trkpt>
      <trkpt lat="43.03792" lon="17.71822">
        <ele>68.660706</ele>
        <time>2022-06-11T13:27:57.034Z</time>
      </trkpt>
      <trkpt lat="43.03854" lon="17.71591">
        <ele>79.891275</ele>
        <time>2022-06-11T13:29:52.033Z</time>
      </trkpt>
      <trkpt lat="43.0391" lon="17.71335">
        <ele>84.692798</ele>
        <time>2022-06-11T13:32:12.051Z</time>
      </trkpt>
      <trkpt lat="43.04097" lon="17.71184">
        <ele>76.889073</ele>
        <time>2022-06-11T13:33:05.023Z</time>
      </trkpt>
      <trkpt lat="43.04255" lon="17.70966">
        <ele>68.088571</ele>
        <time>2022-06-11T13:33:45.028Z</time>
      </trkpt>
      <trkpt lat="43.04455" lon="17.70718">
        <ele>54.599615</ele>
        <time>2022-06-11T13:34:27.040Z</time>
      </trkpt>
      <trkpt lat="43.04637" lon="17.70491">
        <ele>50.669132</ele>
        <time>2022-06-11T13:35:12.018Z</time>
      </trkpt>
      <trkpt lat="43.04787" lon="17.70281">
        <ele>58.334165</ele>
        <time>2022-06-11T13:36:21.150Z</time>
      </trkpt>
      <trkpt lat="43.04921" lon="17.70141">
        <ele>63.818403</ele>
        <time>2022-06-11T13:38:20.024Z</time>
      </trkpt>
      <trkpt lat="43.05118" lon="17.70232">
        <ele>63.623067</ele>
        <time>2022-06-11T13:39:37.031Z</time>
      </trkpt>
      <trkpt lat="43.05275" lon="17.70467">
        <ele>60.835962</ele>
        <time>2022-06-11T13:40:19.014Z</time>
      </trkpt>
      <trkpt lat="43.05432" lon="17.70592">
        <ele>56.16338</ele>
        <time>2022-06-11T13:41:19.037Z</time>
      </trkpt>
      <trkpt lat="43.05631" lon="17.70457">
        <ele>52.529281</ele>
        <time>2022-06-11T13:42:41.021Z</time>
      </trkpt>
      <trkpt lat="43.05818" lon="17.70326">
        <ele>49.890866</ele>
        <time>2022-06-11T13:43:50.053Z</time>
      </trkpt>
      <trkpt lat="43.05987" lon="17.70116">
        <ele>49.303751</ele>
        <time>2022-06-11T13:44:50.025Z</time>
      </trkpt>
      <trkpt lat="43.06117" lon="17.69851">
        <ele>55.594816</ele>
        <time>2022-06-11T13:46:14.014Z</time>
      </trkpt>
      <trkpt lat="43.06283" lon="17.69627">
        <ele>55.785359</ele>
        <time>2022-06-11T13:47:13.028Z</time>
      </trkpt>
      <trkpt lat="43.06406" lon="17.6938">
        <ele>50.156612</ele>
        <time>2022-06-11T13:48:00.031Z</time>
      </trkpt>
      <trkpt lat="43.06569" lon="17.69151">
        <ele>48.327379</ele>
        <time>2022-06-11T13:52:19.033Z</time>
      </trkpt>
      <trkpt lat="43.06791" lon="17.69157">
        <ele>49.85314</ele>
        <time>2022-06-11T13:53:12.031Z</time>
      </trkpt>
      <trkpt lat="43.07035" lon="17.69095">
        <ele>52.476338</ele>
        <time>2022-06-11T13:54:15.032Z</time>
      </trkpt>
      <trkpt lat="43.07252" lon="17.69154">
        <ele>47.503125</ele>
        <time>2022-06-11T13:55:15.019Z</time>
      </trkpt>
      <trkpt lat="43.07458" lon="17.69323">
        <ele>48.813151</ele>
        <time>2022-06-11T13:56:18.023Z</time>
      </trkpt>
      <trkpt lat="43.07676" lon="17.69396">
        <ele>49.368845</ele>
        <time>2022-06-11T13:57:18.019Z</time>
      </trkpt>
      <trkpt lat="43.07893" lon="17.69458">
        <ele>48.602614</ele>
        <time>2022-06-11T13:58:18.034Z</time>
      </trkpt>
      <trkpt lat="43.08117" lon="17.69422">
        <ele>48.946901</ele>
        <time>2022-06-11T13:59:21.031Z</time>
      </trkpt>
      <trkpt lat="43.08321" lon="17.69448">
        <ele>49.092053</ele>
        <time>2022-06-11T14:00:21.036Z</time>
      </trkpt>
      <trkpt lat="43.08538" lon="17.69528">
        <ele>50.439991</ele>
        <time>2022-06-11T14:01:24.025Z</time>
      </trkpt>
      <trkpt lat="43.08733" lon="17.6962">
        <ele>50.353527</ele>
        <time>2022-06-11T14:02:24.024Z</time>
      </trkpt>
      <trkpt lat="43.08909" lon="17.6972">
        <ele>50.8527</ele>
        <time>2022-06-11T14:03:24.035Z</time>
      </trkpt>
      <trkpt lat="43.09111" lon="17.69782">
        <ele>54.772499</ele>
        <time>2022-06-11T14:04:30.017Z</time>
      </trkpt>
      <trkpt lat="43.09298" lon="17.69738">
        <ele>56.568158</ele>
        <time>2022-06-11T14:05:36.025Z</time>
      </trkpt>
      <trkpt lat="43.09485" lon="17.6987">
        <ele>53.732869</ele>
        <time>2022-06-11T14:06:41.019Z</time>
      </trkpt>
      <trkpt lat="43.09708" lon="17.69883">
        <ele>54.75773</ele>
        <time>2022-06-11T14:07:39.033Z</time>
      </trkpt>
      <trkpt lat="43.09943" lon="17.6989">
        <ele>52.255305</ele>
        <time>2022-06-11T14:08:42.029Z</time>
      </trkpt>
      <trkpt lat="43.10154" lon="17.69798">
        <ele>57.790313</ele>
        <time>2022-06-11T14:09:53.024Z</time>
      </trkpt>
      <trkpt lat="43.10373" lon="17.69781">
        <ele>53.416777</ele>
        <time>2022-06-11T14:10:53.016Z</time>
      </trkpt>
      <trkpt lat="43.10544" lon="17.69903">
        <ele>50.787214</ele>
        <time>2022-06-11T14:12:07.013Z</time>
      </trkpt>
      <trkpt lat="43.10717" lon="17.70025">
        <ele>52.255729</ele>
        <time>2022-06-11T14:13:34.002Z</time>
      </trkpt>
      <trkpt lat="43.10899" lon="17.70127">
        <ele>57.738728</ele>
        <time>2022-06-11T14:14:43.994Z</time>
      </trkpt>
      <trkpt lat="43.10812" lon="17.70298">
        <ele>64.458916</ele>
        <time>2022-06-11T14:15:49.995Z</time>
      </trkpt>
      <trkpt lat="43.10723" lon="17.703">
        <ele>64.458916</ele>
        <time>2022-06-11T14:20:37.852Z</time>
      </trkpt>
    </trkseg>
  </trk>
  <trk>
    <name><![CDATA[Tour d'Europe: étape 713]]></name>
    <extensions>
      <line xmlns="http://www.topografix.com/GPX/gpx_style/0/2">
        <color>FF0000</color>
        <width>4</width>
      </line>
    </extensions>
    <trkseg>
      <trkpt lat="42.64141" lon="18.10949">
        <ele>52.612819</ele>
        <time>2022-06-10T07:51:07.575Z</time>
      </trkpt>
      <trkpt lat="42.64101" lon="18.11025">
        <ele>54.107061</ele>
        <time>2022-06-10T07:57:26.713Z</time>
      </trkpt>
      <trkpt lat="42.64198" lon="18.11222">
        <ele>58.507837</ele>
        <time>2022-06-10T08:00:09.694Z</time>
      </trkpt>
      <trkpt lat="42.64249" lon="18.11279">
        <ele>51.819346</ele>
        <time>2022-06-10T08:17:05.685Z</time>
      </trkpt>
      <trkpt lat="42.64333" lon="18.1124">
        <ele>60.954674</ele>
        <time>2022-06-10T08:18:01.707Z</time>
      </trkpt>
      <trkpt lat="42.64286" lon="18.11688">
        <ele>85.105678</ele>
        <time>2022-06-10T08:18:40.696Z</time>
      </trkpt>
      <trkpt lat="42.63305" lon="18.1594">
        <ele>176.366174</ele>
        <time>2022-06-10T08:23:58.699Z</time>
      </trkpt>
      <trkpt lat="42.6426" lon="18.16228">
        <ele>251.936858</ele>
        <time>2022-06-10T08:25:54.705Z</time>
      </trkpt>
      <trkpt lat="42.64363" lon="18.15871">
        <ele>272.646905</ele>
        <time>2022-06-10T08:26:14.828Z</time>
      </trkpt>
      <trkpt lat="42.64665" lon="18.15927">
        <ele>310.635297</ele>
        <time>2022-06-10T08:45:28.715Z</time>
      </trkpt>
      <trkpt lat="42.64862" lon="18.15926">
        <ele>317.668116</ele>
        <time>2022-06-10T08:47:04.693Z</time>
      </trkpt>
      <trkpt lat="42.65071" lon="18.15934">
        <ele>327.000242</ele>
        <time>2022-06-10T08:48:51.699Z</time>
      </trkpt>
      <trkpt lat="42.65292" lon="18.15919">
        <ele>332.431239</ele>
        <time>2022-06-10T08:53:21.701Z</time>
      </trkpt>
      <trkpt lat="42.65494" lon="18.15913">
        <ele>343.413972</ele>
        <time>2022-06-10T08:55:34.698Z</time>
      </trkpt>
      <trkpt lat="42.6564" lon="18.16075">
        <ele>352.147372</ele>
        <time>2022-06-10T08:57:45.710Z</time>
      </trkpt>
      <trkpt lat="42.65707" lon="18.16298">
        <ele>368.898147</ele>
        <time>2022-06-10T08:59:58.706Z</time>
      </trkpt>
      <trkpt lat="42.65915" lon="18.16309">
        <ele>384.181969</ele>
        <time>2022-06-10T09:10:12.710Z</time>
      </trkpt>
      <trkpt lat="42.65934" lon="18.1659">
        <ele>394.643475</ele>
        <time>2022-06-10T09:12:53.742Z</time>
      </trkpt>
      <trkpt lat="42.65933" lon="18.1687">
        <ele>399.553544</ele>
        <time>2022-06-10T09:14:11.708Z</time>
      </trkpt>
      <trkpt lat="42.65902" lon="18.17126">
        <ele>401.179767</ele>
        <time>2022-06-10T09:15:12.710Z</time>
      </trkpt>
      <trkpt lat="42.65782" lon="18.17352">
        <ele>405.021941</ele>
        <time>2022-06-10T09:16:28.717Z</time>
      </trkpt>
      <trkpt lat="42.65871" lon="18.17549">
        <ele>413.477897</ele>
        <time>2022-06-10T09:17:48.700Z</time>
      </trkpt>
      <trkpt lat="42.66077" lon="18.17613">
        <ele>414.399125</ele>
        <time>2022-06-10T09:19:12.714Z</time>
      </trkpt>
      <trkpt lat="42.66173" lon="18.1784">
        <ele>418.640808</ele>
        <time>2022-06-10T09:20:32.714Z</time>
      </trkpt>
      <trkpt lat="42.66049" lon="18.17953">
        <ele>427.164461</ele>
        <time>2022-06-10T09:22:11.713Z</time>
      </trkpt>
      <trkpt lat="42.66156" lon="18.17735">
        <ele>424.442822</ele>
        <time>2022-06-10T09:31:48.729Z</time>
      </trkpt>
      <trkpt lat="42.6589" lon="18.17549">
        <ele>407.041187</ele>
        <time>2022-06-10T09:32:28.691Z</time>
      </trkpt>
      <trkpt lat="42.65835" lon="18.17209">
        <ele>399.759634</ele>
        <time>2022-06-10T09:33:10.707Z</time>
      </trkpt>
      <trkpt lat="42.65936" lon="18.16911">
        <ele>396.094368</ele>
        <time>2022-06-10T09:33:50.710Z</time>
      </trkpt>
      <trkpt lat="42.65943" lon="18.16597">
        <ele>392.073054</ele>
        <time>2022-06-10T09:34:41.688Z</time>
      </trkpt>
      <trkpt lat="42.65961" lon="18.16363">
        <ele>391.172853</ele>
        <time>2022-06-10T09:36:52.698Z</time>
      </trkpt>
      <trkpt lat="42.66164" lon="18.16499">
        <ele>386.635756</ele>
        <time>2022-06-10T09:38:49.679Z</time>
      </trkpt>
      <trkpt lat="42.66372" lon="18.16505">
        <ele>376.392141</ele>
        <time>2022-06-10T09:39:31.705Z</time>
      </trkpt>
      <trkpt lat="42.6658" lon="18.1654">
        <ele>372.955281</ele>
        <time>2022-06-10T09:40:29.720Z</time>
      </trkpt>
      <trkpt lat="42.66775" lon="18.16417">
        <ele>376.566267</ele>
        <time>2022-06-10T09:41:41.717Z</time>
      </trkpt>
      <trkpt lat="42.6694" lon="18.16287">
        <ele>380.01606</ele>
        <time>2022-06-10T09:42:47.699Z</time>
      </trkpt>
      <trkpt lat="42.67124" lon="18.1625">
        <ele>389.838335</ele>
        <time>2022-06-10T09:44:31.704Z</time>
      </trkpt>
      <trkpt lat="42.67258" lon="18.16086">
        <ele>399.81428</ele>
        <time>2022-06-10T09:46:40.709Z</time>
      </trkpt>
      <trkpt lat="42.67397" lon="18.1582">
        <ele>393.93383</ele>
        <time>2022-06-10T09:47:30.700Z</time>
      </trkpt>
      <trkpt lat="42.67551" lon="18.15595">
        <ele>391.733977</ele>
        <time>2022-06-10T09:48:23.711Z</time>
      </trkpt>
      <trkpt lat="42.67721" lon="18.15333">
        <ele>395.375895</ele>
        <time>2022-06-10T09:49:26.709Z</time>
      </trkpt>
      <trkpt lat="42.67888" lon="18.15101">
        <ele>393.249517</ele>
        <time>2022-06-10T09:50:26.695Z</time>
      </trkpt>
      <trkpt lat="42.68112" lon="18.15146">
        <ele>394.249853</ele>
        <time>2022-06-10T09:51:27.733Z</time>
      </trkpt>
      <trkpt lat="42.68314" lon="18.15031">
        <ele>391.225996</ele>
        <time>2022-06-10T09:52:21.704Z</time>
      </trkpt>
      <trkpt lat="42.68347" lon="18.14762">
        <ele>389.205357</ele>
        <time>2022-06-10T09:53:01.699Z</time>
      </trkpt>
      <trkpt lat="42.68509" lon="18.14537">
        <ele>386.004164</ele>
        <time>2022-06-10T09:56:51.682Z</time>
      </trkpt>
      <trkpt lat="42.68706" lon="18.14553">
        <ele>381.10263</ele>
        <time>2022-06-10T09:57:35.691Z</time>
      </trkpt>
      <trkpt lat="42.68904" lon="18.14536">
        <ele>378.479645</ele>
        <time>2022-06-10T09:58:21.700Z</time>
      </trkpt>
      <trkpt lat="42.69075" lon="18.14627">
        <ele>374.058947</ele>
        <time>2022-06-10T09:59:05.732Z</time>
      </trkpt>
      <trkpt lat="42.69116" lon="18.14907">
        <ele>370.776276</ele>
        <time>2022-06-10T09:59:48.704Z</time>
      </trkpt>
      <trkpt lat="42.69272" lon="18.14818">
        <ele>363.938989</ele>
        <time>2022-06-10T10:00:30.707Z</time>
      </trkpt>
      <trkpt lat="42.69505" lon="18.14679">
        <ele>350.222344</ele>
        <time>2022-06-10T10:01:10.713Z</time>
      </trkpt>
      <trkpt lat="42.69642" lon="18.14933">
        <ele>343.639475</ele>
        <time>2022-06-10T10:01:55.727Z</time>
      </trkpt>
      <trkpt lat="42.69764" lon="18.15174">
        <ele>335.224865</ele>
        <time>2022-06-10T10:02:40.730Z</time>
      </trkpt>
      <trkpt lat="42.69977" lon="18.15278">
        <ele>333.798356</ele>
        <time>2022-06-10T10:03:43.704Z</time>
      </trkpt>
      <trkpt lat="42.70125" lon="18.15467">
        <ele>333.211015</ele>
        <time>2022-06-10T10:04:34.760Z</time>
      </trkpt>
      <trkpt lat="42.70263" lon="18.15672">
        <ele>330.941241</ele>
        <time>2022-06-10T10:05:16.709Z</time>
      </trkpt>
      <trkpt lat="42.70286" lon="18.1595">
        <ele>329.530293</ele>
        <time>2022-06-10T10:06:01.724Z</time>
      </trkpt>
      <trkpt lat="42.70274" lon="18.16239">
        <ele>328.821559</ele>
        <time>2022-06-10T10:06:43.723Z</time>
      </trkpt>
      <trkpt lat="42.70356" lon="18.16498">
        <ele>326.600429</ele>
        <time>2022-06-10T10:07:28.708Z</time>
      </trkpt>
      <trkpt lat="42.70503" lon="18.16766">
        <ele>325.252401</ele>
        <time>2022-06-10T10:08:24.710Z</time>
      </trkpt>
      <trkpt lat="42.70659" lon="18.17022">
        <ele>323.667491</ele>
        <time>2022-06-10T10:09:21.710Z</time>
      </trkpt>
      <trkpt lat="42.70819" lon="18.17284">
        <ele>323.621345</ele>
        <time>2022-06-10T10:10:21.711Z</time>
      </trkpt>
      <trkpt lat="42.70947" lon="18.17537">
        <ele>322.031099</ele>
        <time>2022-06-10T10:11:11.736Z</time>
      </trkpt>
      <trkpt lat="42.7108" lon="18.17783">
        <ele>317.806991</ele>
        <time>2022-06-10T10:12:01.704Z</time>
      </trkpt>
      <trkpt lat="42.71237" lon="18.18006">
        <ele>317.471853</ele>
        <time>2022-06-10T10:12:51.714Z</time>
      </trkpt>
      <trkpt lat="42.71401" lon="18.18243">
        <ele>316.512101</ele>
        <time>2022-06-10T10:13:46.714Z</time>
      </trkpt>
      <trkpt lat="42.71604" lon="18.18436">
        <ele>316.336435</ele>
        <time>2022-06-10T10:14:49.715Z</time>
      </trkpt>
      <trkpt lat="42.71789" lon="18.18651">
        <ele>316.203507</ele>
        <time>2022-06-10T10:15:48.702Z</time>
      </trkpt>
      <trkpt lat="42.71943" lon="18.18915">
        <ele>316.876096</ele>
        <time>2022-06-10T10:16:48.703Z</time>
      </trkpt>
      <trkpt lat="42.72136" lon="18.19134">
        <ele>313.633944</ele>
        <time>2022-06-10T10:17:49.704Z</time>
      </trkpt>
      <trkpt lat="42.72342" lon="18.19293">
        <ele>313.269744</ele>
        <time>2022-06-10T10:18:49.717Z</time>
      </trkpt>
      <trkpt lat="42.72529" lon="18.19439">
        <ele>311.607111</ele>
        <time>2022-06-10T10:19:52.718Z</time>
      </trkpt>
      <trkpt lat="42.72715" lon="18.19529">
        <ele>314.684653</ele>
        <time>2022-06-10T10:20:53.716Z</time>
      </trkpt>
      <trkpt lat="42.72907" lon="18.19472">
        <ele>319.456134</ele>
        <time>2022-06-10T10:22:07.696Z</time>
      </trkpt>
      <trkpt lat="42.73109" lon="18.19493">
        <ele>318.460565</ele>
        <time>2022-06-10T10:26:50.714Z</time>
      </trkpt>
      <trkpt lat="42.73064" lon="18.19273">
        <ele>319.848597</ele>
        <time>2022-06-10T10:28:02.701Z</time>
      </trkpt>
      <trkpt lat="42.73286" lon="18.19161">
        <ele>316.162396</ele>
        <time>2022-06-10T10:29:02.708Z</time>
      </trkpt>
      <trkpt lat="42.73516" lon="18.1904">
        <ele>314.615001</ele>
        <time>2022-06-10T10:30:00.704Z</time>
      </trkpt>
      <trkpt lat="42.73765" lon="18.18909">
        <ele>311.726727</ele>
        <time>2022-06-10T10:31:03.722Z</time>
      </trkpt>
      <trkpt lat="42.73976" lon="18.18734">
        <ele>311.267563</ele>
        <time>2022-06-10T10:32:03.702Z</time>
      </trkpt>
      <trkpt lat="42.74179" lon="18.18536">
        <ele>312.465794</ele>
        <time>2022-06-10T10:33:03.743Z</time>
      </trkpt>
      <trkpt lat="42.74374" lon="18.18346">
        <ele>316.338456</ele>
        <time>2022-06-10T10:34:02.705Z</time>
      </trkpt>
      <trkpt lat="42.74576" lon="18.18146">
        <ele>318.056676</ele>
        <time>2022-06-10T10:35:05.695Z</time>
      </trkpt>
      <trkpt lat="42.74772" lon="18.17954">
        <ele>316.001618</ele>
        <time>2022-06-10T10:36:05.705Z</time>
      </trkpt>
      <trkpt lat="42.74985" lon="18.17743">
        <ele>313.085281</ele>
        <time>2022-06-10T10:37:08.710Z</time>
      </trkpt>
      <trkpt lat="42.75185" lon="18.17548">
        <ele>309.835851</ele>
        <time>2022-06-10T10:38:06.717Z</time>
      </trkpt>
      <trkpt lat="42.75395" lon="18.17342">
        <ele>312.249636</ele>
        <time>2022-06-10T10:39:08.701Z</time>
      </trkpt>
      <trkpt lat="42.75599" lon="18.17145">
        <ele>313.412498</ele>
        <time>2022-06-10T10:40:08.707Z</time>
      </trkpt>
      <trkpt lat="42.75809" lon="18.16982">
        <ele>316.346191</ele>
        <time>2022-06-10T10:41:08.725Z</time>
      </trkpt>
      <trkpt lat="42.75936" lon="18.1671">
        <ele>316.3702</ele>
        <time>2022-06-10T10:42:11.737Z</time>
      </trkpt>
      <trkpt lat="42.75981" lon="18.16374">
        <ele>312.775666</ele>
        <time>2022-06-10T10:43:11.759Z</time>
      </trkpt>
      <trkpt lat="42.76012" lon="18.16014">
        <ele>309.787467</ele>
        <time>2022-06-10T10:44:14.730Z</time>
      </trkpt>
      <trkpt lat="42.75977" lon="18.1571">
        <ele>310.765454</ele>
        <time>2022-06-10T10:45:14.713Z</time>
      </trkpt>
      <trkpt lat="42.75974" lon="18.15373">
        <ele>312.160783</ele>
        <time>2022-06-10T10:46:12.702Z</time>
      </trkpt>
      <trkpt lat="42.7599" lon="18.15042">
        <ele>311.665293</ele>
        <time>2022-06-10T10:47:10.706Z</time>
      </trkpt>
      <trkpt lat="42.75858" lon="18.14772">
        <ele>317.080412</ele>
        <time>2022-06-10T10:48:08.715Z</time>
      </trkpt>
      <trkpt lat="42.75886" lon="18.14466">
        <ele>311.499447</ele>
        <time>2022-06-10T10:49:05.705Z</time>
      </trkpt>
      <trkpt lat="42.76005" lon="18.14172">
        <ele>304.235052</ele>
        <time>2022-06-10T10:53:40.704Z</time>
      </trkpt>
      <trkpt lat="42.76124" lon="18.13892">
        <ele>308.233283</ele>
        <time>2022-06-10T10:54:40.719Z</time>
      </trkpt>
      <trkpt lat="42.763" lon="18.13681">
        <ele>318.545592</ele>
        <time>2022-06-10T10:55:38.740Z</time>
      </trkpt>
      <trkpt lat="42.76301" lon="18.1333">
        <ele>312.173037</ele>
        <time>2022-06-10T10:56:40.706Z</time>
      </trkpt>
      <trkpt lat="42.76418" lon="18.13055">
        <ele>307.606825</ele>
        <time>2022-06-10T10:57:37.749Z</time>
      </trkpt>
      <trkpt lat="42.76615" lon="18.12827">
        <ele>311.325163</ele>
        <time>2022-06-10T10:58:40.711Z</time>
      </trkpt>
      <trkpt lat="42.76765" lon="18.12573">
        <ele>308.961155</ele>
        <time>2022-06-10T10:59:37.716Z</time>
      </trkpt>
      <trkpt lat="42.76856" lon="18.12258">
        <ele>307.135059</ele>
        <time>2022-06-10T11:00:39.725Z</time>
      </trkpt>
      <trkpt lat="42.77003" lon="18.11994">
        <ele>309.713804</ele>
        <time>2022-06-10T11:01:38.712Z</time>
      </trkpt>
      <trkpt lat="42.77167" lon="18.11773">
        <ele>306.736086</ele>
        <time>2022-06-10T11:02:34.713Z</time>
      </trkpt>
      <trkpt lat="42.7741" lon="18.1172">
        <ele>303.97435</ele>
        <time>2022-06-10T11:03:37.694Z</time>
      </trkpt>
      <trkpt lat="42.77606" lon="18.11525">
        <ele>303.511336</ele>
        <time>2022-06-10T11:04:38.709Z</time>
      </trkpt>
      <trkpt lat="42.77635" lon="18.11186">
        <ele>310.224249</ele>
        <time>2022-06-10T11:05:41.710Z</time>
      </trkpt>
      <trkpt lat="42.7771" lon="18.10895">
        <ele>305.717309</ele>
        <time>2022-06-10T11:06:41.714Z</time>
      </trkpt>
      <trkpt lat="42.77847" lon="18.10634">
        <ele>308.104218</ele>
        <time>2022-06-10T11:07:44.721Z</time>
      </trkpt>
      <trkpt lat="42.77754" lon="18.10344">
        <ele>313.733997</ele>
        <time>2022-06-10T11:08:42.708Z</time>
      </trkpt>
      <trkpt lat="42.77858" lon="18.10023">
        <ele>309.436619</ele>
        <time>2022-06-10T11:09:44.701Z</time>
      </trkpt>
      <trkpt lat="42.7791" lon="18.09695">
        <ele>308.411621</ele>
        <time>2022-06-10T11:10:40.741Z</time>
      </trkpt>
      <trkpt lat="42.7802" lon="18.09416">
        <ele>303.158254</ele>
        <time>2022-06-10T11:11:38.727Z</time>
      </trkpt>
      <trkpt lat="42.7826" lon="18.09349">
        <ele>299.374428</ele>
        <time>2022-06-10T11:12:37.715Z</time>
      </trkpt>
      <trkpt lat="42.78441" lon="18.09129">
        <ele>301.458326</ele>
        <time>2022-06-10T11:13:37.720Z</time>
      </trkpt>
      <trkpt lat="42.78694" lon="18.09094">
        <ele>298.870183</ele>
        <time>2022-06-10T11:14:39.721Z</time>
      </trkpt>
      <trkpt lat="42.78863" lon="18.08925">
        <ele>302.669919</ele>
        <time>2022-06-10T11:15:39.724Z</time>
      </trkpt>
      <trkpt lat="42.78914" lon="18.08605">
        <ele>306.570849</ele>
        <time>2022-06-10T11:16:42.710Z</time>
      </trkpt>
      <trkpt lat="42.79105" lon="18.08465">
        <ele>302.124029</ele>
        <time>2022-06-10T11:17:42.719Z</time>
      </trkpt>
      <trkpt lat="42.7931" lon="18.08466">
        <ele>305.694867</ele>
        <time>2022-06-10T11:18:45.726Z</time>
      </trkpt>
      <trkpt lat="42.79488" lon="18.08323">
        <ele>308.680528</ele>
        <time>2022-06-10T11:19:47.703Z</time>
      </trkpt>
      <trkpt lat="42.79595" lon="18.08104">
        <ele>314.39365</ele>
        <time>2022-06-10T11:20:47.736Z</time>
      </trkpt>
      <trkpt lat="42.79706" lon="18.07846">
        <ele>309.809512</ele>
        <time>2022-06-10T11:21:50.720Z</time>
      </trkpt>
      <trkpt lat="42.79887" lon="18.07689">
        <ele>302.695664</ele>
        <time>2022-06-10T11:22:46.747Z</time>
      </trkpt>
      <trkpt lat="42.8007" lon="18.07495">
        <ele>298.977352</ele>
        <time>2022-06-10T11:23:38.723Z</time>
      </trkpt>
      <trkpt lat="42.80296" lon="18.07373">
        <ele>299.519764</ele>
        <time>2022-06-10T11:24:36.705Z</time>
      </trkpt>
      <trkpt lat="42.80544" lon="18.07356">
        <ele>305.985243</ele>
        <time>2022-06-10T11:25:37.714Z</time>
      </trkpt>
      <trkpt lat="42.8078" lon="18.07329">
        <ele>305.196722</ele>
        <time>2022-06-10T11:26:37.711Z</time>
      </trkpt>
      <trkpt lat="42.81011" lon="18.07467">
        <ele>310.460808</ele>
        <time>2022-06-10T11:27:40.709Z</time>
      </trkpt>
      <trkpt lat="42.81249" lon="18.07492">
        <ele>308.346578</ele>
        <time>2022-06-10T11:28:40.719Z</time>
      </trkpt>
      <trkpt lat="42.8147" lon="18.07583">
        <ele>308.302241</ele>
        <time>2022-06-10T11:29:33.686Z</time>
      </trkpt>
      <trkpt lat="42.81703" lon="18.07577">
        <ele>299.906646</ele>
        <time>2022-06-10T11:30:33.679Z</time>
      </trkpt>
      <trkpt lat="42.81931" lon="18.07423">
        <ele>295.693507</ele>
        <time>2022-06-10T11:31:33.704Z</time>
      </trkpt>
      <trkpt lat="42.82123" lon="18.0725">
        <ele>298.75578</ele>
        <time>2022-06-10T11:32:36.717Z</time>
      </trkpt>
      <trkpt lat="42.8233" lon="18.07111">
        <ele>299.89953</ele>
        <time>2022-06-10T11:33:34.716Z</time>
      </trkpt>
      <trkpt lat="42.82551" lon="18.06991">
        <ele>297.214308</ele>
        <time>2022-06-10T11:34:37.757Z</time>
      </trkpt>
      <trkpt lat="42.82692" lon="18.06786">
        <ele>303.637974</ele>
        <time>2022-06-10T11:35:37.718Z</time>
      </trkpt>
      <trkpt lat="42.8277" lon="18.06467">
        <ele>306.091599</ele>
        <time>2022-06-10T11:36:40.702Z</time>
      </trkpt>
      <trkpt lat="42.82806" lon="18.06164">
        <ele>308.029646</ele>
        <time>2022-06-10T11:37:40.726Z</time>
      </trkpt>
      <trkpt lat="42.82827" lon="18.05877">
        <ele>309.558458</ele>
        <time>2022-06-10T11:38:40.710Z</time>
      </trkpt>
      <trkpt lat="42.82868" lon="18.05596">
        <ele>310.969726</ele>
        <time>2022-06-10T11:39:46.734Z</time>
      </trkpt>
      <trkpt lat="42.8279" lon="18.05357">
        <ele>314.110693</ele>
        <time>2022-06-10T11:40:49.733Z</time>
      </trkpt>
      <trkpt lat="42.82775" lon="18.05081">
        <ele>315.590333</ele>
        <time>2022-06-10T11:41:52.732Z</time>
      </trkpt>
      <trkpt lat="42.82841" lon="18.04806">
        <ele>314.954054</ele>
        <time>2022-06-10T11:42:53.714Z</time>
      </trkpt>
      <trkpt lat="42.8295" lon="18.04521">
        <ele>312.190403</ele>
        <time>2022-06-10T11:43:56.731Z</time>
      </trkpt>
      <trkpt lat="42.83073" lon="18.04257">
        <ele>308.609684</ele>
        <time>2022-06-10T11:44:55.734Z</time>
      </trkpt>
      <trkpt lat="42.83219" lon="18.03953">
        <ele>313.367703</ele>
        <time>2022-06-10T11:45:58.703Z</time>
      </trkpt>
      <trkpt lat="42.83379" lon="18.03714">
        <ele>312.57094</ele>
        <time>2022-06-10T11:46:57.747Z</time>
      </trkpt>
      <trkpt lat="42.83458" lon="18.03406">
        <ele>315.112837</ele>
        <time>2022-06-10T11:47:56.707Z</time>
      </trkpt>
      <trkpt lat="42.83551" lon="18.03086">
        <ele>313.073261</ele>
        <time>2022-06-10T11:48:59.708Z</time>
      </trkpt>
      <trkpt lat="42.83724" lon="18.02867">
        <ele>312.580926</ele>
        <time>2022-06-10T11:49:56.711Z</time>
      </trkpt>
      <trkpt lat="42.83917" lon="18.02712">
        <ele>316.564865</ele>
        <time>2022-06-10T11:50:50.722Z</time>
      </trkpt>
      <trkpt lat="42.84134" lon="18.02604">
        <ele>313.092105</ele>
        <time>2022-06-10T11:51:50.746Z</time>
      </trkpt>
      <trkpt lat="42.84313" lon="18.0244">
        <ele>307.598188</ele>
        <time>2022-06-10T11:52:38.699Z</time>
      </trkpt>
      <trkpt lat="42.84467" lon="18.02267">
        <ele>305.846985</ele>
        <time>2022-06-10T11:53:23.709Z</time>
      </trkpt>
      <trkpt lat="42.84669" lon="18.02091">
        <ele>307.649592</ele>
        <time>2022-06-10T11:54:20.724Z</time>
      </trkpt>
      <trkpt lat="42.84835" lon="18.01846">
        <ele>306.427043</ele>
        <time>2022-06-10T11:55:19.707Z</time>
      </trkpt>
      <trkpt lat="42.85001" lon="18.01595">
        <ele>308.967483</ele>
        <time>2022-06-10T11:56:18.719Z</time>
      </trkpt>
      <trkpt lat="42.85151" lon="18.01316">
        <ele>304.532555</ele>
        <time>2022-06-10T11:57:16.717Z</time>
      </trkpt>
      <trkpt lat="42.85268" lon="18.01054">
        <ele>306.441496</ele>
        <time>2022-06-10T11:58:10.709Z</time>
      </trkpt>
      <trkpt lat="42.85342" lon="18.00745">
        <ele>308.61491</ele>
        <time>2022-06-10T11:59:13.712Z</time>
      </trkpt>
      <trkpt lat="42.85281" lon="18.0042">
        <ele>309.094484</ele>
        <time>2022-06-10T12:00:13.755Z</time>
      </trkpt>
      <trkpt lat="42.85233" lon="18.00086">
        <ele>307.664175</ele>
        <time>2022-06-10T12:01:12.708Z</time>
      </trkpt>
      <trkpt lat="42.85096" lon="17.99829">
        <ele>308.659687</ele>
        <time>2022-06-10T12:02:12.727Z</time>
      </trkpt>
      <trkpt lat="42.84982" lon="17.99584">
        <ele>310.383932</ele>
        <time>2022-06-10T12:03:17.707Z</time>
      </trkpt>
      <trkpt lat="42.84846" lon="17.99338">
        <ele>311.308217</ele>
        <time>2022-06-10T12:04:17.724Z</time>
      </trkpt>
      <trkpt lat="42.84752" lon="17.99066">
        <ele>309.924921</ele>
        <time>2022-06-10T12:05:14.717Z</time>
      </trkpt>
      <trkpt lat="42.8463" lon="17.98772">
        <ele>310.20166</ele>
        <time>2022-06-10T12:06:13.705Z</time>
      </trkpt>
      <trkpt lat="42.84608" lon="17.98428">
        <ele>308.948027</ele>
        <time>2022-06-10T12:07:12.687Z</time>
      </trkpt>
      <trkpt lat="42.84674" lon="17.98125">
        <ele>310.525567</ele>
        <time>2022-06-10T12:08:05.693Z</time>
      </trkpt>
      <trkpt lat="42.84727" lon="17.97996">
        <ele>310.588221</ele>
        <time>2022-06-10T12:09:36.983Z</time>
      </trkpt>
    </trkseg>
  </trk>
  <trk>
    <name><![CDATA[Tour d'Europe: étape 703]]></name>
    <extensions>
      <line xmlns="http://www.topografix.com/GPX/gpx_style/0/2">
        <color>00FFFF</color>
        <width>4</width>
      </line>
    </extensions>
    <trkseg>
      <trkpt lat="42.45168" lon="18.54455">
        <ele>82.810271</ele>
        <time>2022-06-01T08:17:21.867Z</time>
      </trkpt>
      <trkpt lat="42.45138" lon="18.54408">
        <ele>81.404762</ele>
        <time>2022-06-01T08:21:02.615Z</time>
      </trkpt>
      <trkpt lat="42.45095" lon="18.54713">
        <ele>74.57374</ele>
        <time>2022-06-01T08:21:57.600Z</time>
      </trkpt>
      <trkpt lat="42.45035" lon="18.54758">
        <ele>60.951216</ele>
        <time>2022-06-01T08:23:20.586Z</time>
      </trkpt>
      <trkpt lat="42.44956" lon="18.54556">
        <ele>43.153124</ele>
        <time>2022-06-01T08:24:30.586Z</time>
      </trkpt>
      <trkpt lat="42.45039" lon="18.54264">
        <ele>42.054272</ele>
        <time>2022-06-01T08:25:33.588Z</time>
      </trkpt>
      <trkpt lat="42.44988" lon="18.53969">
        <ele>45.967628</ele>
        <time>2022-06-01T08:26:39.617Z</time>
      </trkpt>
      <trkpt lat="42.44946" lon="18.53676">
        <ele>43.83254</ele>
        <time>2022-06-01T08:27:39.582Z</time>
      </trkpt>
      <trkpt lat="42.45071" lon="18.53425">
        <ele>48.908478</ele>
        <time>2022-06-01T08:28:35.589Z</time>
      </trkpt>
      <trkpt lat="42.45178" lon="18.53149">
        <ele>49.169422</ele>
        <time>2022-06-01T08:29:30.585Z</time>
      </trkpt>
      <trkpt lat="42.45311" lon="18.529">
        <ele>39.629475</ele>
        <time>2022-06-01T08:30:34.577Z</time>
      </trkpt>
      <trkpt lat="42.45415" lon="18.5262">
        <ele>40.857176</ele>
        <time>2022-06-01T08:31:37.577Z</time>
      </trkpt>
      <trkpt lat="42.45611" lon="18.52469">
        <ele>47.119701</ele>
        <time>2022-06-01T08:32:37.588Z</time>
      </trkpt>
      <trkpt lat="42.45724" lon="18.52205">
        <ele>44.98028</ele>
        <time>2022-06-01T08:33:42.583Z</time>
      </trkpt>
      <trkpt lat="42.45849" lon="18.51929">
        <ele>38.546883</ele>
        <time>2022-06-01T08:34:45.594Z</time>
      </trkpt>
      <trkpt lat="42.45919" lon="18.51655">
        <ele>44.165543</ele>
        <time>2022-06-01T08:35:41.576Z</time>
      </trkpt>
      <trkpt lat="42.45817" lon="18.51365">
        <ele>46.025703</ele>
        <time>2022-06-01T08:36:44.590Z</time>
      </trkpt>
      <trkpt lat="42.45681" lon="18.5112">
        <ele>50.321058</ele>
        <time>2022-06-01T08:37:48.579Z</time>
      </trkpt>
      <trkpt lat="42.45529" lon="18.50884">
        <ele>43.81845</ele>
        <time>2022-06-01T08:38:47.579Z</time>
      </trkpt>
      <trkpt lat="42.45412" lon="18.50632">
        <ele>39.156875</ele>
        <time>2022-06-01T08:39:47.582Z</time>
      </trkpt>
      <trkpt lat="42.45535" lon="18.50393">
        <ele>40.76575</ele>
        <time>2022-06-01T08:40:58.578Z</time>
      </trkpt>
      <trkpt lat="42.45545" lon="18.50097">
        <ele>44.878906</ele>
        <time>2022-06-01T08:41:55.576Z</time>
      </trkpt>
      <trkpt lat="42.45518" lon="18.49781">
        <ele>42.724609</ele>
        <time>2022-06-01T08:42:49.571Z</time>
      </trkpt>
      <trkpt lat="42.45655" lon="18.49542">
        <ele>41.939822</ele>
        <time>2022-06-01T08:43:40.579Z</time>
      </trkpt>
      <trkpt lat="42.45717" lon="18.49218">
        <ele>46.584786</ele>
        <time>2022-06-01T08:44:38.570Z</time>
      </trkpt>
      <trkpt lat="42.45921" lon="18.49003">
        <ele>48.497152</ele>
        <time>2022-06-01T08:45:41.602Z</time>
      </trkpt>
      <trkpt lat="42.46085" lon="18.48781">
        <ele>51.360301</ele>
        <time>2022-06-01T08:46:42.590Z</time>
      </trkpt>
      <trkpt lat="42.46241" lon="18.48596">
        <ele>55.89591</ele>
        <time>2022-06-01T08:47:48.589Z</time>
      </trkpt>
      <trkpt lat="42.46432" lon="18.48493">
        <ele>56.946676</ele>
        <time>2022-06-01T08:48:52.592Z</time>
      </trkpt>
      <trkpt lat="42.46611" lon="18.48359">
        <ele>58.256791</ele>
        <time>2022-06-01T08:49:57.590Z</time>
      </trkpt>
      <trkpt lat="42.46798" lon="18.48237">
        <ele>62.497493</ele>
        <time>2022-06-01T08:51:04.624Z</time>
      </trkpt>
      <trkpt lat="42.46995" lon="18.48087">
        <ele>59.991603</ele>
        <time>2022-06-01T08:52:07.591Z</time>
      </trkpt>
      <trkpt lat="42.47164" lon="18.47885">
        <ele>55.841595</ele>
        <time>2022-06-01T08:53:07.594Z</time>
      </trkpt>
      <trkpt lat="42.47281" lon="18.47647">
        <ele>62.281014</ele>
        <time>2022-06-01T08:54:14.588Z</time>
      </trkpt>
      <trkpt lat="42.47386" lon="18.47388">
        <ele>63.875468</ele>
        <time>2022-06-01T08:55:30.590Z</time>
      </trkpt>
      <trkpt lat="42.47483" lon="18.47149">
        <ele>66.458657</ele>
        <time>2022-06-01T08:56:32.611Z</time>
      </trkpt>
      <trkpt lat="42.47566" lon="18.46868">
        <ele>71.58318</ele>
        <time>2022-06-01T08:57:35.615Z</time>
      </trkpt>
      <trkpt lat="42.4761" lon="18.46584">
        <ele>76.770254</ele>
        <time>2022-06-01T08:58:49.578Z</time>
      </trkpt>
      <trkpt lat="42.47723" lon="18.46326">
        <ele>81.082666</ele>
        <time>2022-06-01T09:00:12.575Z</time>
      </trkpt>
      <trkpt lat="42.47862" lon="18.46102">
        <ele>87.871102</ele>
        <time>2022-06-01T09:01:39.592Z</time>
      </trkpt>
      <trkpt lat="42.47956" lon="18.45851">
        <ele>92.753023</ele>
        <time>2022-06-01T09:03:01.576Z</time>
      </trkpt>
      <trkpt lat="42.48119" lon="18.45657">
        <ele>99.135</ele>
        <time>2022-06-01T09:04:18.553Z</time>
      </trkpt>
      <trkpt lat="42.48158" lon="18.45347">
        <ele>104.268675</ele>
        <time>2022-06-01T09:10:05.589Z</time>
      </trkpt>
      <trkpt lat="42.4818" lon="18.45092">
        <ele>122.687537</ele>
        <time>2022-06-01T09:12:24.601Z</time>
      </trkpt>
      <trkpt lat="42.48218" lon="18.44832">
        <ele>137.940518</ele>
        <time>2022-06-01T09:15:02.587Z</time>
      </trkpt>
      <trkpt lat="42.48348" lon="18.44628">
        <ele>157.246555</ele>
        <time>2022-06-01T09:17:44.566Z</time>
      </trkpt>
      <trkpt lat="42.4842" lon="18.4439">
        <ele>175.507496</ele>
        <time>2022-06-01T09:20:21.559Z</time>
      </trkpt>
      <trkpt lat="42.48497" lon="18.44137">
        <ele>191.334134</ele>
        <time>2022-06-01T09:23:03.571Z</time>
      </trkpt>
      <trkpt lat="42.48581" lon="18.43894">
        <ele>203.381493</ele>
        <time>2022-06-01T09:25:44.555Z</time>
      </trkpt>
      <trkpt lat="42.48736" lon="18.43758">
        <ele>213.171904</ele>
        <time>2022-06-01T09:28:17.583Z</time>
      </trkpt>
      <trkpt lat="42.48864" lon="18.43553">
        <ele>231.005853</ele>
        <time>2022-06-01T09:30:48.571Z</time>
      </trkpt>
      <trkpt lat="42.49035" lon="18.43424">
        <ele>246.222278</ele>
        <time>2022-06-01T09:33:20.559Z</time>
      </trkpt>
      <trkpt lat="42.49233" lon="18.43124">
        <ele>236.522295</ele>
        <time>2022-06-01T09:39:30.598Z</time>
      </trkpt>
      <trkpt lat="42.4937" lon="18.42755">
        <ele>224.910731</ele>
        <time>2022-06-01T09:40:05.587Z</time>
      </trkpt>
      <trkpt lat="42.49499" lon="18.42551">
        <ele>214.984382</ele>
        <time>2022-06-01T09:40:26.590Z</time>
      </trkpt>
      <trkpt lat="42.49638" lon="18.42344">
        <ele>197.6787</ele>
        <time>2022-06-01T09:40:47.582Z</time>
      </trkpt>
      <trkpt lat="42.49813" lon="18.42139">
        <ele>178.575602</ele>
        <time>2022-06-01T09:41:08.558Z</time>
      </trkpt>
      <trkpt lat="42.49975" lon="18.41965">
        <ele>165.785438</ele>
        <time>2022-06-01T09:41:28.675Z</time>
      </trkpt>
      <trkpt lat="42.50136" lon="18.41765">
        <ele>155.778433</ele>
        <time>2022-06-01T09:41:49.593Z</time>
      </trkpt>
      <trkpt lat="42.50312" lon="18.41514">
        <ele>149.246965</ele>
        <time>2022-06-01T09:42:18.584Z</time>
      </trkpt>
      <trkpt lat="42.50427" lon="18.41218">
        <ele>150.494897</ele>
        <time>2022-06-01T09:42:58.610Z</time>
      </trkpt>
      <trkpt lat="42.50543" lon="18.40938">
        <ele>148.950018</ele>
        <time>2022-06-01T09:43:44.602Z</time>
      </trkpt>
      <trkpt lat="42.50621" lon="18.40657">
        <ele>145.61411</ele>
        <time>2022-06-01T09:44:37.582Z</time>
      </trkpt>
      <trkpt lat="42.5059" lon="18.40383">
        <ele>141.852805</ele>
        <time>2022-06-01T09:45:17.588Z</time>
      </trkpt>
      <trkpt lat="42.50691" lon="18.40108">
        <ele>133.295252</ele>
        <time>2022-06-01T09:46:29.621Z</time>
      </trkpt>
      <trkpt lat="42.50774" lon="18.39893">
        <ele>128.329444</ele>
        <time>2022-06-01T09:48:43.589Z</time>
      </trkpt>
      <trkpt lat="42.50869" lon="18.39622">
        <ele>128.78729</ele>
        <time>2022-06-01T09:50:05.615Z</time>
      </trkpt>
      <trkpt lat="42.5096" lon="18.39355">
        <ele>125.137203</ele>
        <time>2022-06-01T09:51:38.592Z</time>
      </trkpt>
      <trkpt lat="42.51083" lon="18.39141">
        <ele>120.628281</ele>
        <time>2022-06-01T09:53:06.569Z</time>
      </trkpt>
      <trkpt lat="42.51198" lon="18.38905">
        <ele>115.64911</ele>
        <time>2022-06-01T09:54:48.588Z</time>
      </trkpt>
      <trkpt lat="42.51271" lon="18.38642">
        <ele>111.681863</ele>
        <time>2022-06-01T09:56:29.590Z</time>
      </trkpt>
      <trkpt lat="42.51375" lon="18.38414">
        <ele>107.852662</ele>
        <time>2022-06-01T09:58:08.577Z</time>
      </trkpt>
      <trkpt lat="42.51483" lon="18.38146">
        <ele>107.722741</ele>
        <time>2022-06-01T09:59:16.572Z</time>
      </trkpt>
      <trkpt lat="42.51639" lon="18.37877">
        <ele>107.023911</ele>
        <time>2022-06-01T10:00:14.567Z</time>
      </trkpt>
      <trkpt lat="42.51742" lon="18.37595">
        <ele>106.697826</ele>
        <time>2022-06-01T10:01:14.589Z</time>
      </trkpt>
      <trkpt lat="42.51904" lon="18.37532">
        <ele>103.519789</ele>
        <time>2022-06-01T10:08:26.560Z</time>
      </trkpt>
      <trkpt lat="42.52103" lon="18.37665">
        <ele>102.453601</ele>
        <time>2022-06-01T10:09:25.603Z</time>
      </trkpt>
      <trkpt lat="42.52302" lon="18.37717">
        <ele>107.106952</ele>
        <time>2022-06-01T10:10:33.581Z</time>
      </trkpt>
      <trkpt lat="42.52512" lon="18.37785">
        <ele>108.716635</ele>
        <time>2022-06-01T10:11:57.629Z</time>
      </trkpt>
      <trkpt lat="42.52709" lon="18.37847">
        <ele>107.580914</ele>
        <time>2022-06-01T10:12:49.581Z</time>
      </trkpt>
      <trkpt lat="42.52923" lon="18.37844">
        <ele>104.986834</ele>
        <time>2022-06-01T10:13:42.606Z</time>
      </trkpt>
      <trkpt lat="42.53186" lon="18.37744">
        <ele>99.557641</ele>
        <time>2022-06-01T10:14:36.596Z</time>
      </trkpt>
      <trkpt lat="42.53374" lon="18.37811">
        <ele>98.161999</ele>
        <time>2022-06-01T10:15:22.590Z</time>
      </trkpt>
      <trkpt lat="42.53421" lon="18.37611">
        <ele>101.998516</ele>
        <time>2022-06-01T10:16:34.612Z</time>
      </trkpt>
      <trkpt lat="42.53455" lon="18.37338">
        <ele>105.81424</ele>
        <time>2022-06-01T10:18:13.577Z</time>
      </trkpt>
      <trkpt lat="42.53491" lon="18.37069">
        <ele>108.609771</ele>
        <time>2022-06-01T10:19:33.567Z</time>
      </trkpt>
      <trkpt lat="42.53533" lon="18.36779">
        <ele>111.903993</ele>
        <time>2022-06-01T10:21:01.579Z</time>
      </trkpt>
      <trkpt lat="42.53569" lon="18.36478">
        <ele>111.516903</ele>
        <time>2022-06-01T10:22:09.583Z</time>
      </trkpt>
      <trkpt lat="42.53636" lon="18.36214">
        <ele>113.418459</ele>
        <time>2022-06-01T10:23:15.571Z</time>
      </trkpt>
      <trkpt lat="42.53712" lon="18.3594">
        <ele>112.865082</ele>
        <time>2022-06-01T10:24:22.587Z</time>
      </trkpt>
      <trkpt lat="42.53796" lon="18.35647">
        <ele>110.745033</ele>
        <time>2022-06-01T10:25:27.587Z</time>
      </trkpt>
      <trkpt lat="42.53865" lon="18.35365">
        <ele>109.338013</ele>
        <time>2022-06-01T10:26:15.589Z</time>
      </trkpt>
      <trkpt lat="42.53929" lon="18.3507">
        <ele>107.89824</ele>
        <time>2022-06-01T10:27:05.579Z</time>
      </trkpt>
      <trkpt lat="42.54001" lon="18.34797">
        <ele>106.344915</ele>
        <time>2022-06-01T10:27:51.570Z</time>
      </trkpt>
      <trkpt lat="42.54108" lon="18.34515">
        <ele>104.716591</ele>
        <time>2022-06-01T10:28:40.612Z</time>
      </trkpt>
      <trkpt lat="42.54234" lon="18.3424">
        <ele>104.837327</ele>
        <time>2022-06-01T10:29:31.561Z</time>
      </trkpt>
      <trkpt lat="42.54413" lon="18.34144">
        <ele>107.249147</ele>
        <time>2022-06-01T10:30:40.647Z</time>
      </trkpt>
      <trkpt lat="42.54598" lon="18.34095">
        <ele>114.636025</ele>
        <time>2022-06-01T10:32:16.602Z</time>
      </trkpt>
      <trkpt lat="42.54767" lon="18.34249">
        <ele>125.528949</ele>
        <time>2022-06-01T10:34:31.559Z</time>
      </trkpt>
      <trkpt lat="42.54874" lon="18.34037">
        <ele>131.360386</ele>
        <time>2022-06-01T10:38:25.555Z</time>
      </trkpt>
      <trkpt lat="42.55047" lon="18.33878">
        <ele>128.227453</ele>
        <time>2022-06-01T10:39:21.559Z</time>
      </trkpt>
      <trkpt lat="42.55181" lon="18.33641">
        <ele>130.186469</ele>
        <time>2022-06-01T10:40:14.551Z</time>
      </trkpt>
      <trkpt lat="42.55322" lon="18.33398">
        <ele>126.772814</ele>
        <time>2022-06-01T10:40:59.576Z</time>
      </trkpt>
      <trkpt lat="42.55457" lon="18.33128">
        <ele>122.103838</ele>
        <time>2022-06-01T10:41:54.549Z</time>
      </trkpt>
      <trkpt lat="42.55469" lon="18.32802">
        <ele>117.760119</ele>
        <time>2022-06-01T10:42:43.551Z</time>
      </trkpt>
      <trkpt lat="42.55486" lon="18.32498">
        <ele>117.296394</ele>
        <time>2022-06-01T10:43:34.552Z</time>
      </trkpt>
      <trkpt lat="42.5551" lon="18.3221">
        <ele>114.807337</ele>
        <time>2022-06-01T10:44:16.551Z</time>
      </trkpt>
      <trkpt lat="42.55547" lon="18.31936">
        <ele>113.26728</ele>
        <time>2022-06-01T10:45:00.585Z</time>
      </trkpt>
      <trkpt lat="42.55609" lon="18.31673">
        <ele>111.144395</ele>
        <time>2022-06-01T10:45:41.555Z</time>
      </trkpt>
      <trkpt lat="42.55685" lon="18.31377">
        <ele>109.542381</ele>
        <time>2022-06-01T10:46:35.604Z</time>
      </trkpt>
      <trkpt lat="42.5574" lon="18.31073">
        <ele>111.676051</ele>
        <time>2022-06-01T10:47:38.598Z</time>
      </trkpt>
      <trkpt lat="42.55739" lon="18.30775">
        <ele>109.252156</ele>
        <time>2022-06-01T10:48:44.586Z</time>
      </trkpt>
      <trkpt lat="42.55795" lon="18.3046">
        <ele>110.517211</ele>
        <time>2022-06-01T10:49:44.622Z</time>
      </trkpt>
      <trkpt lat="42.5584" lon="18.30181">
        <ele>108.841349</ele>
        <time>2022-06-01T10:50:33.592Z</time>
      </trkpt>
      <trkpt lat="42.55928" lon="18.29907">
        <ele>109.055871</ele>
        <time>2022-06-01T10:51:34.582Z</time>
      </trkpt>
      <trkpt lat="42.55998" lon="18.29624">
        <ele>110.93409</ele>
        <time>2022-06-01T10:52:43.592Z</time>
      </trkpt>
      <trkpt lat="42.56065" lon="18.2938">
        <ele>110.230114</ele>
        <time>2022-06-01T10:53:25.586Z</time>
      </trkpt>
      <trkpt lat="42.56115" lon="18.29063">
        <ele>109.814283</ele>
        <time>2022-06-01T10:54:28.589Z</time>
      </trkpt>
      <trkpt lat="42.56159" lon="18.28763">
        <ele>115.0323</ele>
        <time>2022-06-01T10:55:34.603Z</time>
      </trkpt>
      <trkpt lat="42.56256" lon="18.28534">
        <ele>126.839551</ele>
        <time>2022-06-01T10:56:57.571Z</time>
      </trkpt>
      <trkpt lat="42.56355" lon="18.28272">
        <ele>125.772045</ele>
        <time>2022-06-01T10:58:16.587Z</time>
      </trkpt>
      <trkpt lat="42.56452" lon="18.28013">
        <ele>126.625325</ele>
        <time>2022-06-01T10:59:40.594Z</time>
      </trkpt>
      <trkpt lat="42.5654" lon="18.27772">
        <ele>132.57298</ele>
        <time>2022-06-01T11:01:06.608Z</time>
      </trkpt>
      <trkpt lat="42.56649" lon="18.2753">
        <ele>129.902471</ele>
        <time>2022-06-01T11:02:28.613Z</time>
      </trkpt>
      <trkpt lat="42.56758" lon="18.2728">
        <ele>131.161309</ele>
        <time>2022-06-01T11:03:37.574Z</time>
      </trkpt>
      <trkpt lat="42.56857" lon="18.27039">
        <ele>135.223399</ele>
        <time>2022-06-01T11:05:01.581Z</time>
      </trkpt>
      <trkpt lat="42.56973" lon="18.26788">
        <ele>138.078463</ele>
        <time>2022-06-01T11:06:13.592Z</time>
      </trkpt>
      <trkpt lat="42.57063" lon="18.2654">
        <ele>142.250553</ele>
        <time>2022-06-01T11:07:51.582Z</time>
      </trkpt>
      <trkpt lat="42.57142" lon="18.26278">
        <ele>144.635325</ele>
        <time>2022-06-01T11:09:20.592Z</time>
      </trkpt>
      <trkpt lat="42.57227" lon="18.26002">
        <ele>148.864557</ele>
        <time>2022-06-01T11:10:31.581Z</time>
      </trkpt>
      <trkpt lat="42.57294" lon="18.25728">
        <ele>151.953012</ele>
        <time>2022-06-01T11:11:51.546Z</time>
      </trkpt>
      <trkpt lat="42.57362" lon="18.25443">
        <ele>153.922213</ele>
        <time>2022-06-01T11:13:15.550Z</time>
      </trkpt>
      <trkpt lat="42.57449" lon="18.25189">
        <ele>161.687844</ele>
        <time>2022-06-01T11:14:44.581Z</time>
      </trkpt>
      <trkpt lat="42.57485" lon="18.24924">
        <ele>161.220179</ele>
        <time>2022-06-01T11:16:06.576Z</time>
      </trkpt>
      <trkpt lat="42.5755" lon="18.24696">
        <ele>168.981672</ele>
        <time>2022-06-01T11:19:53.592Z</time>
      </trkpt>
      <trkpt lat="42.5763" lon="18.24429">
        <ele>174.848615</ele>
        <time>2022-06-01T11:21:18.570Z</time>
      </trkpt>
      <trkpt lat="42.57759" lon="18.24305">
        <ele>175.890083</ele>
        <time>2022-06-01T11:48:46.559Z</time>
      </trkpt>
      <trkpt lat="42.57851" lon="18.24232">
        <ele>180.443886</ele>
        <time>2022-06-01T11:50:07.575Z</time>
      </trkpt>
      <trkpt lat="42.57784" lon="18.23964">
        <ele>162.620096</ele>
        <time>2022-06-01T11:59:56.599Z</time>
      </trkpt>
      <trkpt lat="42.57853" lon="18.23709">
        <ele>143.993953</ele>
        <time>2022-06-01T12:00:48.581Z</time>
      </trkpt>
      <trkpt lat="42.58091" lon="18.23517">
        <ele>127.794543</ele>
        <time>2022-06-01T12:01:24.641Z</time>
      </trkpt>
      <trkpt lat="42.5834" lon="18.23443">
        <ele>115.201927</ele>
        <time>2022-06-01T12:01:52.543Z</time>
      </trkpt>
      <trkpt lat="42.58543" lon="18.23265">
        <ele>109.35378</ele>
        <time>2022-06-01T12:02:19.542Z</time>
      </trkpt>
      <trkpt lat="42.58746" lon="18.23125">
        <ele>115.454363</ele>
        <time>2022-06-01T12:03:29.552Z</time>
      </trkpt>
      <trkpt lat="42.58915" lon="18.22999">
        <ele>123.014003</ele>
        <time>2022-06-01T12:05:14.547Z</time>
      </trkpt>
      <trkpt lat="42.59119" lon="18.23002">
        <ele>130.610155</ele>
        <time>2022-06-01T12:07:06.546Z</time>
      </trkpt>
      <trkpt lat="42.59332" lon="18.22992">
        <ele>135.457599</ele>
        <time>2022-06-01T12:08:40.563Z</time>
      </trkpt>
      <trkpt lat="42.59537" lon="18.23101">
        <ele>128.345459</ele>
        <time>2022-06-01T12:09:41.547Z</time>
      </trkpt>
      <trkpt lat="42.59746" lon="18.23083">
        <ele>129.428307</ele>
        <time>2022-06-01T12:10:26.546Z</time>
      </trkpt>
      <trkpt lat="42.59908" lon="18.23273">
        <ele>127.629767</ele>
        <time>2022-06-01T12:11:08.552Z</time>
      </trkpt>
      <trkpt lat="42.6009" lon="18.232">
        <ele>132.860166</ele>
        <time>2022-06-01T12:11:48.547Z</time>
      </trkpt>
      <trkpt lat="42.60304" lon="18.23176">
        <ele>129.913921</ele>
        <time>2022-06-01T12:12:31.576Z</time>
      </trkpt>
      <trkpt lat="42.60495" lon="18.23281">
        <ele>121.19538</ele>
        <time>2022-06-01T12:13:12.681Z</time>
      </trkpt>
      <trkpt lat="42.60712" lon="18.23229">
        <ele>128.232971</ele>
        <time>2022-06-01T12:13:57.609Z</time>
      </trkpt>
      <trkpt lat="42.60868" lon="18.2305">
        <ele>129.937162</ele>
        <time>2022-06-01T12:14:39.599Z</time>
      </trkpt>
      <trkpt lat="42.60999" lon="18.22842">
        <ele>126.203044</ele>
        <time>2022-06-01T12:15:21.581Z</time>
      </trkpt>
      <trkpt lat="42.612" lon="18.22727">
        <ele>127.610502</ele>
        <time>2022-06-01T12:16:06.577Z</time>
      </trkpt>
      <trkpt lat="42.61354" lon="18.22553">
        <ele>125.05182</ele>
        <time>2022-06-01T12:16:48.583Z</time>
      </trkpt>
      <trkpt lat="42.6145" lon="18.2231">
        <ele>117.754487</ele>
        <time>2022-06-01T12:17:30.618Z</time>
      </trkpt>
      <trkpt lat="42.61507" lon="18.21995">
        <ele>112.73475</ele>
        <time>2022-06-01T12:18:24.608Z</time>
      </trkpt>
      <trkpt lat="42.61615" lon="18.21729">
        <ele>117.944384</ele>
        <time>2022-06-01T12:19:14.590Z</time>
      </trkpt>
      <trkpt lat="42.61758" lon="18.2154">
        <ele>126.503577</ele>
        <time>2022-06-01T12:19:56.588Z</time>
      </trkpt>
      <trkpt lat="42.61933" lon="18.21389">
        <ele>125.182035</ele>
        <time>2022-06-01T12:20:38.589Z</time>
      </trkpt>
      <trkpt lat="42.62109" lon="18.21215">
        <ele>121.125945</ele>
        <time>2022-06-01T12:21:20.570Z</time>
      </trkpt>
      <trkpt lat="42.62323" lon="18.21109">
        <ele>119.337383</ele>
        <time>2022-06-01T12:22:00.574Z</time>
      </trkpt>
      <trkpt lat="42.62489" lon="18.20794">
        <ele>108.430045</ele>
        <time>2022-06-01T12:22:42.572Z</time>
      </trkpt>
      <trkpt lat="42.62408" lon="18.20452">
        <ele>92.47243</ele>
        <time>2022-06-01T12:23:12.578Z</time>
      </trkpt>
      <trkpt lat="42.62559" lon="18.20076">
        <ele>80.902404</ele>
        <time>2022-06-01T12:23:51.620Z</time>
      </trkpt>
      <trkpt lat="42.62518" lon="18.19785">
        <ele>69.680035</ele>
        <time>2022-06-01T12:24:15.562Z</time>
      </trkpt>
      <trkpt lat="42.62524" lon="18.19337">
        <ele>50.527161</ele>
        <time>2022-06-01T12:24:55.577Z</time>
      </trkpt>
      <trkpt lat="42.62561" lon="18.19258">
        <ele>51.779468</ele>
        <time>2022-06-01T12:26:58.547Z</time>
      </trkpt>
      <trkpt lat="42.62716" lon="18.19056">
        <ele>59.201685</ele>
        <time>2022-06-01T12:28:18.587Z</time>
      </trkpt>
      <trkpt lat="42.62823" lon="18.18773">
        <ele>48.528782</ele>
        <time>2022-06-01T12:29:19.579Z</time>
      </trkpt>
      <trkpt lat="42.62892" lon="18.18454">
        <ele>47.799462</ele>
        <time>2022-06-01T12:30:24.557Z</time>
      </trkpt>
      <trkpt lat="42.63073" lon="18.18546">
        <ele>55.741842</ele>
        <time>2022-06-01T12:31:44.615Z</time>
      </trkpt>
      <trkpt lat="42.63222" lon="18.18408">
        <ele>56.897967</ele>
        <time>2022-06-01T12:32:48.577Z</time>
      </trkpt>
      <trkpt lat="42.63367" lon="18.18211">
        <ele>53.896286</ele>
        <time>2022-06-01T12:33:52.563Z</time>
      </trkpt>
      <trkpt lat="42.63404" lon="18.17937">
        <ele>48.604422</ele>
        <time>2022-06-01T12:34:51.642Z</time>
      </trkpt>
      <trkpt lat="42.63511" lon="18.17671">
        <ele>53.162781</ele>
        <time>2022-06-01T12:35:54.633Z</time>
      </trkpt>
      <trkpt lat="42.63556" lon="18.17393">
        <ele>65.906098</ele>
        <time>2022-06-01T12:37:37.573Z</time>
      </trkpt>
      <trkpt lat="42.63547" lon="18.17096">
        <ele>59.331562</ele>
        <time>2022-06-01T12:38:38.578Z</time>
      </trkpt>
      <trkpt lat="42.63525" lon="18.16846">
        <ele>71.685299</ele>
        <time>2022-06-01T12:40:36.569Z</time>
      </trkpt>
      <trkpt lat="42.6334" lon="18.16943">
        <ele>92.124214</ele>
        <time>2022-06-01T12:43:10.581Z</time>
      </trkpt>
      <trkpt lat="42.6323" lon="18.1689">
        <ele>103.02445</ele>
        <time>2022-06-01T12:45:47.564Z</time>
      </trkpt>
      <trkpt lat="42.63231" lon="18.16602">
        <ele>110.815483</ele>
        <time>2022-06-01T12:47:16.594Z</time>
      </trkpt>
      <trkpt lat="42.63206" lon="18.16321">
        <ele>118.579006</ele>
        <time>2022-06-01T12:49:01.592Z</time>
      </trkpt>
      <trkpt lat="42.63073" lon="18.16134">
        <ele>123.059202</ele>
        <time>2022-06-01T12:50:41.606Z</time>
      </trkpt>
      <trkpt lat="42.63049" lon="18.15867">
        <ele>131.9838</ele>
        <time>2022-06-01T12:52:44.590Z</time>
      </trkpt>
      <trkpt lat="42.62973" lon="18.15802">
        <ele>144.738921</ele>
        <time>2022-06-01T12:55:13.610Z</time>
      </trkpt>
      <trkpt lat="42.62923" lon="18.16072">
        <ele>148.355589</ele>
        <time>2022-06-01T13:02:08.604Z</time>
      </trkpt>
      <trkpt lat="42.62924" lon="18.15978">
        <ele>158.60089</ele>
        <time>2022-06-01T13:05:00.579Z</time>
      </trkpt>
      <trkpt lat="42.62934" lon="18.15698">
        <ele>169.856652</ele>
        <time>2022-06-01T13:07:03.587Z</time>
      </trkpt>
      <trkpt lat="42.63" lon="18.15451">
        <ele>181.797082</ele>
        <time>2022-06-01T13:09:18.615Z</time>
      </trkpt>
      <trkpt lat="42.63028" lon="18.15136">
        <ele>191.095272</ele>
        <time>2022-06-01T13:10:40.576Z</time>
      </trkpt>
      <trkpt lat="42.63135" lon="18.1481">
        <ele>188.622609</ele>
        <time>2022-06-01T13:11:22.562Z</time>
      </trkpt>
      <trkpt lat="42.63186" lon="18.14541">
        <ele>194.562916</ele>
        <time>2022-06-01T13:13:15.556Z</time>
      </trkpt>
      <trkpt lat="42.63299" lon="18.14341">
        <ele>222.271795</ele>
        <time>2022-06-01T13:15:40.589Z</time>
      </trkpt>
      <trkpt lat="42.63365" lon="18.14093">
        <ele>225.05897</ele>
        <time>2022-06-01T13:20:33.560Z</time>
      </trkpt>
      <trkpt lat="42.63317" lon="18.13828">
        <ele>234.870826</ele>
        <time>2022-06-01T13:23:00.585Z</time>
      </trkpt>
      <trkpt lat="42.6344" lon="18.13584">
        <ele>238.822358</ele>
        <time>2022-06-01T13:25:21.586Z</time>
      </trkpt>
      <trkpt lat="42.63666" lon="18.13386">
        <ele>226.175122</ele>
        <time>2022-06-01T13:26:01.618Z</time>
      </trkpt>
      <trkpt lat="42.63812" lon="18.13074">
        <ele>199.443547</ele>
        <time>2022-06-01T13:26:43.587Z</time>
      </trkpt>
      <trkpt lat="42.63966" lon="18.128">
        <ele>173.152359</ele>
        <time>2022-06-01T13:27:14.589Z</time>
      </trkpt>
      <trkpt lat="42.64053" lon="18.12542">
        <ele>145.573132</ele>
        <time>2022-06-01T13:27:45.569Z</time>
      </trkpt>
      <trkpt lat="42.64113" lon="18.12189">
        <ele>115.330158</ele>
        <time>2022-06-01T13:28:27.587Z</time>
      </trkpt>
      <trkpt lat="42.64036" lon="18.12413">
        <ele>120.691272</ele>
        <time>2022-06-01T13:29:55.584Z</time>
      </trkpt>
      <trkpt lat="42.63995" lon="18.12481">
        <ele>110.16297</ele>
        <time>2022-06-01T13:30:40.588Z</time>
      </trkpt>
      <trkpt lat="42.64072" lon="18.12083">
        <ele>92.068136</ele>
        <time>2022-06-01T13:31:22.571Z</time>
      </trkpt>
      <trkpt lat="42.6417" lon="18.11719">
        <ele>76.145696</ele>
        <time>2022-06-01T13:32:02.616Z</time>
      </trkpt>
      <trkpt lat="42.64191" lon="18.1136">
        <ele>63.758088</ele>
        <time>2022-06-01T13:32:47.562Z</time>
      </trkpt>
      <trkpt lat="42.64234" lon="18.11101">
        <ele>64.92905</ele>
        <time>2022-06-01T13:34:25.543Z</time>
      </trkpt>
      <trkpt lat="42.64313" lon="18.10831">
        <ele>78.828864</ele>
        <time>2022-06-01T13:35:40.541Z</time>
      </trkpt>
      <trkpt lat="42.64167" lon="18.10673">
        <ele>58.854577</ele>
        <time>2022-06-01T13:37:15.561Z</time>
      </trkpt>
      <trkpt lat="42.64141" lon="18.10809">
        <ele>50.79451</ele>
        <time>2022-06-01T13:48:13.557Z</time>
      </trkpt>
      <trkpt lat="42.64115" lon="18.10938">
        <ele>50.79451</ele>
        <time>2022-06-01T13:50:56.390Z</time>
      </trkpt>
    </trkseg>
  </trk>
  <trk>
    <name><![CDATA[Tour d'Europe: étape 702]]></name>
    <extensions>
      <line xmlns="http://www.topografix.com/GPX/gpx_style/0/2">
        <color>FFFF00</color>
        <width>4</width>
      </line>
    </extensions>
    <trkseg>
      <trkpt lat="42.4279" lon="18.77223">
        <ele>55.233286</ele>
        <time>2022-05-31T08:07:23.561Z</time>
      </trkpt>
      <trkpt lat="42.42723" lon="18.77231">
        <ele>54.279297</ele>
        <time>2022-05-31T08:12:07.543Z</time>
      </trkpt>
      <trkpt lat="42.42779" lon="18.76918">
        <ele>52.40499</ele>
        <time>2022-05-31T08:15:55.581Z</time>
      </trkpt>
      <trkpt lat="42.42981" lon="18.76924">
        <ele>65.59196</ele>
        <time>2022-05-31T08:17:26.550Z</time>
      </trkpt>
      <trkpt lat="42.43168" lon="18.76928">
        <ele>72.407379</ele>
        <time>2022-05-31T08:19:10.577Z</time>
      </trkpt>
      <trkpt lat="42.43428" lon="18.76845">
        <ele>66.111279</ele>
        <time>2022-05-31T08:20:12.549Z</time>
      </trkpt>
      <trkpt lat="42.43618" lon="18.76694">
        <ele>53.564501</ele>
        <time>2022-05-31T08:20:54.581Z</time>
      </trkpt>
      <trkpt lat="42.43594" lon="18.76493">
        <ele>52.380195</ele>
        <time>2022-05-31T08:21:53.536Z</time>
      </trkpt>
      <trkpt lat="42.43805" lon="18.7642">
        <ele>51.677558</ele>
        <time>2022-05-31T08:22:50.536Z</time>
      </trkpt>
      <trkpt lat="42.43993" lon="18.76261">
        <ele>50.579028</ele>
        <time>2022-05-31T08:23:54.552Z</time>
      </trkpt>
      <trkpt lat="42.44221" lon="18.76223">
        <ele>49.996375</ele>
        <time>2022-05-31T08:24:54.541Z</time>
      </trkpt>
      <trkpt lat="42.44397" lon="18.76396">
        <ele>47.663069</ele>
        <time>2022-05-31T08:25:57.543Z</time>
      </trkpt>
      <trkpt lat="42.44604" lon="18.7652">
        <ele>46.010318</ele>
        <time>2022-05-31T08:26:59.590Z</time>
      </trkpt>
      <trkpt lat="42.44811" lon="18.76565">
        <ele>50.559194</ele>
        <time>2022-05-31T08:28:04.544Z</time>
      </trkpt>
      <trkpt lat="42.45027" lon="18.76485">
        <ele>54.765524</ele>
        <time>2022-05-31T08:29:19.548Z</time>
      </trkpt>
      <trkpt lat="42.45246" lon="18.76501">
        <ele>55.033718</ele>
        <time>2022-05-31T08:30:21.540Z</time>
      </trkpt>
      <trkpt lat="42.45468" lon="18.7657">
        <ele>53.756111</ele>
        <time>2022-05-31T08:31:25.531Z</time>
      </trkpt>
      <trkpt lat="42.45688" lon="18.76541">
        <ele>52.558052</ele>
        <time>2022-05-31T08:32:28.554Z</time>
      </trkpt>
      <trkpt lat="42.45884" lon="18.76505">
        <ele>58.235662</ele>
        <time>2022-05-31T08:33:38.549Z</time>
      </trkpt>
      <trkpt lat="42.46088" lon="18.76411">
        <ele>58.778073</ele>
        <time>2022-05-31T08:34:44.556Z</time>
      </trkpt>
      <trkpt lat="42.46306" lon="18.76391">
        <ele>51.286898</ele>
        <time>2022-05-31T08:35:45.529Z</time>
      </trkpt>
      <trkpt lat="42.46514" lon="18.76367">
        <ele>51.27624</ele>
        <time>2022-05-31T08:36:47.555Z</time>
      </trkpt>
      <trkpt lat="42.46727" lon="18.76303">
        <ele>51.352444</ele>
        <time>2022-05-31T08:37:51.556Z</time>
      </trkpt>
      <trkpt lat="42.4693" lon="18.76384">
        <ele>57.433114</ele>
        <time>2022-05-31T08:38:52.572Z</time>
      </trkpt>
      <trkpt lat="42.47112" lon="18.76443">
        <ele>59.731361</ele>
        <time>2022-05-31T08:40:18.547Z</time>
      </trkpt>
      <trkpt lat="42.47331" lon="18.76477">
        <ele>60.867589</ele>
        <time>2022-05-31T08:41:15.525Z</time>
      </trkpt>
      <trkpt lat="42.47585" lon="18.76484">
        <ele>56.367686</ele>
        <time>2022-05-31T08:41:56.550Z</time>
      </trkpt>
      <trkpt lat="42.4777" lon="18.76342">
        <ele>56.447202</ele>
        <time>2022-05-31T08:42:42.616Z</time>
      </trkpt>
      <trkpt lat="42.47983" lon="18.76366">
        <ele>55.205354</ele>
        <time>2022-05-31T08:43:46.543Z</time>
      </trkpt>
      <trkpt lat="42.48198" lon="18.76403">
        <ele>52.868528</ele>
        <time>2022-05-31T08:44:49.554Z</time>
      </trkpt>
      <trkpt lat="42.48397" lon="18.76488">
        <ele>55.461346</ele>
        <time>2022-05-31T08:45:55.531Z</time>
      </trkpt>
      <trkpt lat="42.48525" lon="18.76662">
        <ele>66.528077</ele>
        <time>2022-05-31T08:47:29.545Z</time>
      </trkpt>
      <trkpt lat="42.4866" lon="18.76567">
        <ele>71.920963</ele>
        <time>2022-05-31T08:48:25.579Z</time>
      </trkpt>
      <trkpt lat="42.48908" lon="18.76446">
        <ele>60.934906</ele>
        <time>2022-05-31T08:49:07.533Z</time>
      </trkpt>
      <trkpt lat="42.49049" lon="18.76237">
        <ele>63.207216</ele>
        <time>2022-05-31T08:50:05.537Z</time>
      </trkpt>
      <trkpt lat="42.49028" lon="18.75971">
        <ele>62.662079</ele>
        <time>2022-05-31T08:51:32.590Z</time>
      </trkpt>
      <trkpt lat="42.49026" lon="18.75651">
        <ele>62.488505</ele>
        <time>2022-05-31T08:52:30.537Z</time>
      </trkpt>
      <trkpt lat="42.48993" lon="18.75307">
        <ele>65.180336</ele>
        <time>2022-05-31T08:53:10.541Z</time>
      </trkpt>
      <trkpt lat="42.48859" lon="18.75085">
        <ele>72.953593</ele>
        <time>2022-05-31T08:53:57.554Z</time>
      </trkpt>
      <trkpt lat="42.48754" lon="18.74812">
        <ele>66.614202</ele>
        <time>2022-05-31T08:54:51.558Z</time>
      </trkpt>
      <trkpt lat="42.48663" lon="18.74496">
        <ele>59.843682</ele>
        <time>2022-05-31T08:55:50.538Z</time>
      </trkpt>
      <trkpt lat="42.48572" lon="18.74189">
        <ele>56.812237</ele>
        <time>2022-05-31T08:56:51.559Z</time>
      </trkpt>
      <trkpt lat="42.48482" lon="18.73935">
        <ele>57.174567</ele>
        <time>2022-05-31T08:57:38.559Z</time>
      </trkpt>
      <trkpt lat="42.48433" lon="18.73685">
        <ele>58.36287</ele>
        <time>2022-05-31T08:58:20.548Z</time>
      </trkpt>
      <trkpt lat="42.48361" lon="18.73381">
        <ele>61.883859</ele>
        <time>2022-05-31T08:59:15.545Z</time>
      </trkpt>
      <trkpt lat="42.48392" lon="18.73124">
        <ele>58.439646</ele>
        <time>2022-05-31T08:59:55.573Z</time>
      </trkpt>
      <trkpt lat="42.48457" lon="18.72875">
        <ele>61.724941</ele>
        <time>2022-05-31T09:00:39.564Z</time>
      </trkpt>
      <trkpt lat="42.48422" lon="18.72592">
        <ele>58.417262</ele>
        <time>2022-05-31T09:01:21.558Z</time>
      </trkpt>
      <trkpt lat="42.48417" lon="18.72326">
        <ele>53.86442</ele>
        <time>2022-05-31T09:02:01.534Z</time>
      </trkpt>
      <trkpt lat="42.48422" lon="18.72053">
        <ele>55.047796</ele>
        <time>2022-05-31T09:02:41.529Z</time>
      </trkpt>
      <trkpt lat="42.48387" lon="18.71756">
        <ele>56.583984</ele>
        <time>2022-05-31T09:03:24.549Z</time>
      </trkpt>
      <trkpt lat="42.48375" lon="18.71441">
        <ele>56.05585</ele>
        <time>2022-05-31T09:04:17.553Z</time>
      </trkpt>
      <trkpt lat="42.48398" lon="18.71147">
        <ele>55.009892</ele>
        <time>2022-05-31T09:04:57.554Z</time>
      </trkpt>
      <trkpt lat="42.48403" lon="18.70841">
        <ele>55.277273</ele>
        <time>2022-05-31T09:05:39.640Z</time>
      </trkpt>
      <trkpt lat="42.4842" lon="18.7055">
        <ele>53.697297</ele>
        <time>2022-05-31T09:06:24.564Z</time>
      </trkpt>
      <trkpt lat="42.48519" lon="18.70303">
        <ele>50.492738</ele>
        <time>2022-05-31T09:07:09.540Z</time>
      </trkpt>
      <trkpt lat="42.48523" lon="18.7">
        <ele>48.464683</ele>
        <time>2022-05-31T09:08:10.530Z</time>
      </trkpt>
      <trkpt lat="42.48649" lon="18.69753">
        <ele>48.58731</ele>
        <time>2022-05-31T09:10:18.555Z</time>
      </trkpt>
      <trkpt lat="42.48799" lon="18.69529">
        <ele>49.172956</ele>
        <time>2022-05-31T09:12:40.543Z</time>
      </trkpt>
      <trkpt lat="42.48985" lon="18.69338">
        <ele>53.755431</ele>
        <time>2022-05-31T09:38:32.531Z</time>
      </trkpt>
      <trkpt lat="42.49171" lon="18.69189">
        <ele>45.41661</ele>
        <time>2022-05-31T09:39:21.516Z</time>
      </trkpt>
      <trkpt lat="42.49395" lon="18.69161">
        <ele>40.700306</ele>
        <time>2022-05-31T09:40:19.525Z</time>
      </trkpt>
      <trkpt lat="42.49603" lon="18.69111">
        <ele>47.32665</ele>
        <time>2022-05-31T09:41:07.541Z</time>
      </trkpt>
      <trkpt lat="42.49801" lon="18.69212">
        <ele>48.312414</ele>
        <time>2022-05-31T09:41:47.557Z</time>
      </trkpt>
      <trkpt lat="42.50034" lon="18.69271">
        <ele>43.378786</ele>
        <time>2022-05-31T09:42:29.548Z</time>
      </trkpt>
      <trkpt lat="42.50247" lon="18.6926">
        <ele>40.192662</ele>
        <time>2022-05-31T09:43:09.544Z</time>
      </trkpt>
      <trkpt lat="42.50389" lon="18.69455">
        <ele>45.012699</ele>
        <time>2022-05-31T09:43:49.535Z</time>
      </trkpt>
      <trkpt lat="42.50597" lon="18.69377">
        <ele>51.279296</ele>
        <time>2022-05-31T09:45:05.531Z</time>
      </trkpt>
      <trkpt lat="42.508" lon="18.69596">
        <ele>48.353452</ele>
        <time>2022-05-31T09:45:45.540Z</time>
      </trkpt>
      <trkpt lat="42.51028" lon="18.69652">
        <ele>43.949725</ele>
        <time>2022-05-31T09:46:39.535Z</time>
      </trkpt>
      <trkpt lat="42.51215" lon="18.69569">
        <ele>44.711979</ele>
        <time>2022-05-31T09:47:22.548Z</time>
      </trkpt>
      <trkpt lat="42.51397" lon="18.69485">
        <ele>43.637538</ele>
        <time>2022-05-31T09:48:03.536Z</time>
      </trkpt>
      <trkpt lat="42.51605" lon="18.69309">
        <ele>43.886757</ele>
        <time>2022-05-31T09:48:59.574Z</time>
      </trkpt>
      <trkpt lat="42.51718" lon="18.69028">
        <ele>47.92425</ele>
        <time>2022-05-31T09:49:54.544Z</time>
      </trkpt>
      <trkpt lat="42.51719" lon="18.68753">
        <ele>50.90949</ele>
        <time>2022-05-31T09:50:38.553Z</time>
      </trkpt>
      <trkpt lat="42.5161" lon="18.68507">
        <ele>59.107777</ele>
        <time>2022-05-31T09:51:47.548Z</time>
      </trkpt>
      <trkpt lat="42.51526" lon="18.68285">
        <ele>72.699475</ele>
        <time>2022-05-31T09:53:46.547Z</time>
      </trkpt>
      <trkpt lat="42.51358" lon="18.68164">
        <ele>77.938714</ele>
        <time>2022-05-31T09:55:45.547Z</time>
      </trkpt>
      <trkpt lat="42.51148" lon="18.68031">
        <ele>72.63127</ele>
        <time>2022-05-31T09:56:30.541Z</time>
      </trkpt>
      <trkpt lat="42.50928" lon="18.6787">
        <ele>61.747067</ele>
        <time>2022-05-31T09:57:04.554Z</time>
      </trkpt>
      <trkpt lat="42.50648" lon="18.67687">
        <ele>50.759393</ele>
        <time>2022-05-31T09:57:42.546Z</time>
      </trkpt>
      <trkpt lat="42.5048" lon="18.67439">
        <ele>46.318356</ele>
        <time>2022-05-31T09:58:16.552Z</time>
      </trkpt>
      <trkpt lat="42.50503" lon="18.67172">
        <ele>49.065066</ele>
        <time>2022-05-31T09:59:00.535Z</time>
      </trkpt>
      <trkpt lat="42.50461" lon="18.66896">
        <ele>50.704521</ele>
        <time>2022-05-31T09:59:42.541Z</time>
      </trkpt>
      <trkpt lat="42.50361" lon="18.66717">
        <ele>49.34734</ele>
        <time>2022-05-31T10:00:26.543Z</time>
      </trkpt>
      <trkpt lat="42.50252" lon="18.66501">
        <ele>47.24139</ele>
        <time>2022-05-31T10:01:07.534Z</time>
      </trkpt>
      <trkpt lat="42.5009" lon="18.66297">
        <ele>47.930314</ele>
        <time>2022-05-31T10:02:03.545Z</time>
      </trkpt>
      <trkpt lat="42.49977" lon="18.66085">
        <ele>49.456807</ele>
        <time>2022-05-31T10:02:53.548Z</time>
      </trkpt>
      <trkpt lat="42.49818" lon="18.65893">
        <ele>47.996367</ele>
        <time>2022-05-31T10:03:38.555Z</time>
      </trkpt>
      <trkpt lat="42.49666" lon="18.65693">
        <ele>48.195075</ele>
        <time>2022-05-31T10:04:25.537Z</time>
      </trkpt>
      <trkpt lat="42.49566" lon="18.65443">
        <ele>48.610201</ele>
        <time>2022-05-31T10:05:11.637Z</time>
      </trkpt>
      <trkpt lat="42.4947" lon="18.65224">
        <ele>49.125031</ele>
        <time>2022-05-31T10:05:56.551Z</time>
      </trkpt>
      <trkpt lat="42.49279" lon="18.65096">
        <ele>47.642758</ele>
        <time>2022-05-31T10:06:42.534Z</time>
      </trkpt>
      <trkpt lat="42.49089" lon="18.65025">
        <ele>45.080641</ele>
        <time>2022-05-31T10:07:25.558Z</time>
      </trkpt>
      <trkpt lat="42.48904" lon="18.64933">
        <ele>45.616324</ele>
        <time>2022-05-31T10:08:10.535Z</time>
      </trkpt>
      <trkpt lat="42.48752" lon="18.65135">
        <ele>44.83409</ele>
        <time>2022-05-31T10:08:52.544Z</time>
      </trkpt>
      <trkpt lat="42.48705" lon="18.65409">
        <ele>46.805389</ele>
        <time>2022-05-31T10:09:48.539Z</time>
      </trkpt>
      <trkpt lat="42.48694" lon="18.65722">
        <ele>43.983294</ele>
        <time>2022-05-31T10:10:41.548Z</time>
      </trkpt>
      <trkpt lat="42.48686" lon="18.65996">
        <ele>43.800721</ele>
        <time>2022-05-31T10:11:24.553Z</time>
      </trkpt>
      <trkpt lat="42.487" lon="18.66271">
        <ele>45.416462</ele>
        <time>2022-05-31T10:12:04.544Z</time>
      </trkpt>
      <trkpt lat="42.4863" lon="18.66582">
        <ele>42.338978</ele>
        <time>2022-05-31T10:12:46.582Z</time>
      </trkpt>
      <trkpt lat="42.48581" lon="18.66837">
        <ele>45.936267</ele>
        <time>2022-05-31T10:13:26.589Z</time>
      </trkpt>
      <trkpt lat="42.4848" lon="18.67071">
        <ele>43.761417</ele>
        <time>2022-05-31T10:14:09.543Z</time>
      </trkpt>
      <trkpt lat="42.48441" lon="18.67341">
        <ele>42.900683</ele>
        <time>2022-05-31T10:14:51.552Z</time>
      </trkpt>
      <trkpt lat="42.4834" lon="18.67579">
        <ele>43.469409</ele>
        <time>2022-05-31T10:15:51.557Z</time>
      </trkpt>
      <trkpt lat="42.48234" lon="18.67845">
        <ele>36.031145</ele>
        <time>2022-05-31T10:16:46.541Z</time>
      </trkpt>
      <trkpt lat="42.48109" lon="18.68128">
        <ele>37.080313</ele>
        <time>2022-05-31T10:17:48.578Z</time>
      </trkpt>
      <trkpt lat="42.47993" lon="18.68426">
        <ele>39.453135</ele>
        <time>2022-05-31T10:18:46.557Z</time>
      </trkpt>
      <trkpt lat="42.4785" lon="18.68623">
        <ele>46.494428</ele>
        <time>2022-05-31T10:19:38.552Z</time>
      </trkpt>
      <trkpt lat="42.47701" lon="18.68395">
        <ele>50.75464</ele>
        <time>2022-05-31T10:20:38.555Z</time>
      </trkpt>
      <trkpt lat="42.47507" lon="18.68281">
        <ele>44.832326</ele>
        <time>2022-05-31T10:21:22.544Z</time>
      </trkpt>
      <trkpt lat="42.47318" lon="18.6807">
        <ele>41.063247</ele>
        <time>2022-05-31T10:22:16.548Z</time>
      </trkpt>
      <trkpt lat="42.47123" lon="18.68017">
        <ele>44.856398</ele>
        <time>2022-05-31T10:23:01.539Z</time>
      </trkpt>
      <trkpt lat="42.47024" lon="18.67774">
        <ele>49.029873</ele>
        <time>2022-05-31T10:24:13.556Z</time>
      </trkpt>
      <trkpt lat="42.46848" lon="18.67563">
        <ele>43.823926</ele>
        <time>2022-05-31T10:25:08.551Z</time>
      </trkpt>
      <trkpt lat="42.46663" lon="18.67391">
        <ele>46.325187</ele>
        <time>2022-05-31T10:26:07.554Z</time>
      </trkpt>
      <trkpt lat="42.4645" lon="18.67336">
        <ele>46.048611</ele>
        <time>2022-05-31T10:27:06.548Z</time>
      </trkpt>
      <trkpt lat="42.46242" lon="18.6729">
        <ele>45.614338</ele>
        <time>2022-05-31T10:28:05.664Z</time>
      </trkpt>
      <trkpt lat="42.46089" lon="18.67483">
        <ele>44.024569</ele>
        <time>2022-05-31T10:28:48.559Z</time>
      </trkpt>
      <trkpt lat="42.45953" lon="18.67434">
        <ele>47.017711</ele>
        <time>2022-05-31T10:29:35.546Z</time>
      </trkpt>
      <trkpt lat="42.45931" lon="18.67153">
        <ele>49.789506</ele>
        <time>2022-05-31T10:30:19.570Z</time>
      </trkpt>
      <trkpt lat="42.45791" lon="18.6691">
        <ele>45.636158</ele>
        <time>2022-05-31T10:31:10.543Z</time>
      </trkpt>
      <trkpt lat="42.45703" lon="18.66623">
        <ele>43.992051</ele>
        <time>2022-05-31T10:32:02.548Z</time>
      </trkpt>
      <trkpt lat="42.45642" lon="18.66363">
        <ele>42.616273</ele>
        <time>2022-05-31T10:32:45.545Z</time>
      </trkpt>
      <trkpt lat="42.45528" lon="18.66115">
        <ele>44.383912</ele>
        <time>2022-05-31T10:33:42.557Z</time>
      </trkpt>
      <trkpt lat="42.45346" lon="18.65914">
        <ele>44.972082</ele>
        <time>2022-05-31T10:34:36.553Z</time>
      </trkpt>
      <trkpt lat="42.45174" lon="18.65738">
        <ele>41.640242</ele>
        <time>2022-05-31T10:35:32.580Z</time>
      </trkpt>
      <trkpt lat="42.45269" lon="18.65536">
        <ele>45.696616</ele>
        <time>2022-05-31T10:36:34.535Z</time>
      </trkpt>
      <trkpt lat="42.45344" lon="18.65339">
        <ele>51.483115</ele>
        <time>2022-05-31T10:37:57.550Z</time>
      </trkpt>
      <trkpt lat="42.45162" lon="18.65153">
        <ele>50.232133</ele>
        <time>2022-05-31T10:38:39.555Z</time>
      </trkpt>
      <trkpt lat="42.45023" lon="18.65083">
        <ele>44.678003</ele>
        <time>2022-05-31T10:39:52.537Z</time>
      </trkpt>
      <trkpt lat="42.44928" lon="18.64813">
        <ele>42.966513</ele>
        <time>2022-05-31T10:41:22.597Z</time>
      </trkpt>
      <trkpt lat="42.448" lon="18.64553">
        <ele>42.162772</ele>
        <time>2022-05-31T10:42:22.549Z</time>
      </trkpt>
      <trkpt lat="42.44657" lon="18.64299">
        <ele>42.798949</ele>
        <time>2022-05-31T10:43:17.575Z</time>
      </trkpt>
      <trkpt lat="42.44499" lon="18.64067">
        <ele>43.421612</ele>
        <time>2022-05-31T10:44:10.580Z</time>
      </trkpt>
      <trkpt lat="42.44378" lon="18.63797">
        <ele>44.661927</ele>
        <time>2022-05-31T10:45:05.543Z</time>
      </trkpt>
      <trkpt lat="42.44297" lon="18.63502">
        <ele>42.5847</ele>
        <time>2022-05-31T10:46:14.549Z</time>
      </trkpt>
      <trkpt lat="42.44185" lon="18.63235">
        <ele>42.20169</ele>
        <time>2022-05-31T10:47:13.549Z</time>
      </trkpt>
      <trkpt lat="42.44101" lon="18.62997">
        <ele>42.536021</ele>
        <time>2022-05-31T11:22:59.543Z</time>
      </trkpt>
      <trkpt lat="42.44027" lon="18.62691">
        <ele>40.664538</ele>
        <time>2022-05-31T11:23:58.548Z</time>
      </trkpt>
      <trkpt lat="42.43948" lon="18.62404">
        <ele>38.87159</ele>
        <time>2022-05-31T11:24:55.572Z</time>
      </trkpt>
      <trkpt lat="42.43921" lon="18.62106">
        <ele>40.458829</ele>
        <time>2022-05-31T11:25:50.532Z</time>
      </trkpt>
      <trkpt lat="42.43863" lon="18.61838">
        <ele>37.912805</ele>
        <time>2022-05-31T11:26:45.545Z</time>
      </trkpt>
      <trkpt lat="42.43838" lon="18.61542">
        <ele>39.971822</ele>
        <time>2022-05-31T11:27:36.548Z</time>
      </trkpt>
      <trkpt lat="42.43703" lon="18.61354">
        <ele>44.833342</ele>
        <time>2022-05-31T11:28:31.548Z</time>
      </trkpt>
      <trkpt lat="42.43621" lon="18.61073">
        <ele>45.668943</ele>
        <time>2022-05-31T11:29:29.549Z</time>
      </trkpt>
      <trkpt lat="42.43513" lon="18.6082">
        <ele>48.840666</ele>
        <time>2022-05-31T11:30:29.547Z</time>
      </trkpt>
      <trkpt lat="42.43489" lon="18.60511">
        <ele>47.6348</ele>
        <time>2022-05-31T11:31:32.531Z</time>
      </trkpt>
      <trkpt lat="42.43499" lon="18.60249">
        <ele>48.986214</ele>
        <time>2022-05-31T11:32:33.535Z</time>
      </trkpt>
      <trkpt lat="42.43521" lon="18.6001">
        <ele>52.459356</ele>
        <time>2022-05-31T11:33:42.521Z</time>
      </trkpt>
      <trkpt lat="42.43669" lon="18.59869">
        <ele>55.866088</ele>
        <time>2022-05-31T11:36:12.511Z</time>
      </trkpt>
      <trkpt lat="42.43765" lon="18.59557">
        <ele>56.344429</ele>
        <time>2022-05-31T11:36:59.527Z</time>
      </trkpt>
      <trkpt lat="42.43826" lon="18.59281">
        <ele>63.818542</ele>
        <time>2022-05-31T11:38:16.544Z</time>
      </trkpt>
      <trkpt lat="42.43764" lon="18.5901">
        <ele>51.202785</ele>
        <time>2022-05-31T11:39:01.544Z</time>
      </trkpt>
      <trkpt lat="42.43863" lon="18.58746">
        <ele>47.687442</ele>
        <time>2022-05-31T11:39:53.580Z</time>
      </trkpt>
      <trkpt lat="42.44011" lon="18.58508">
        <ele>49.148647</ele>
        <time>2022-05-31T11:40:56.545Z</time>
      </trkpt>
      <trkpt lat="42.44186" lon="18.58319">
        <ele>51.115229</ele>
        <time>2022-05-31T11:41:51.555Z</time>
      </trkpt>
      <trkpt lat="42.44343" lon="18.58111">
        <ele>52.747943</ele>
        <time>2022-05-31T11:42:51.547Z</time>
      </trkpt>
      <trkpt lat="42.44444" lon="18.57873">
        <ele>53.208318</ele>
        <time>2022-05-31T11:44:16.544Z</time>
      </trkpt>
      <trkpt lat="42.44647" lon="18.57681">
        <ele>51.530719</ele>
        <time>2022-05-31T11:44:58.543Z</time>
      </trkpt>
      <trkpt lat="42.44824" lon="18.5751">
        <ele>53.287084</ele>
        <time>2022-05-31T11:45:43.565Z</time>
      </trkpt>
      <trkpt lat="42.45014" lon="18.57358">
        <ele>48.458796</ele>
        <time>2022-05-31T11:46:32.544Z</time>
      </trkpt>
      <trkpt lat="42.45162" lon="18.57193">
        <ele>49.57053</ele>
        <time>2022-05-31T11:47:13.548Z</time>
      </trkpt>
      <trkpt lat="42.45296" lon="18.56989">
        <ele>54.188261</ele>
        <time>2022-05-31T11:47:58.532Z</time>
      </trkpt>
      <trkpt lat="42.4529" lon="18.56773">
        <ele>60.253881</ele>
        <time>2022-05-31T11:49:28.518Z</time>
      </trkpt>
      <trkpt lat="42.45361" lon="18.56527">
        <ele>60.653937</ele>
        <time>2022-05-31T11:50:39.528Z</time>
      </trkpt>
      <trkpt lat="42.45433" lon="18.56381">
        <ele>51.7517</ele>
        <time>2022-05-31T11:51:27.523Z</time>
      </trkpt>
      <trkpt lat="42.45452" lon="18.56069">
        <ele>49.526074</ele>
        <time>2022-05-31T11:52:38.520Z</time>
      </trkpt>
      <trkpt lat="42.45386" lon="18.55845">
        <ele>56.044831</ele>
        <time>2022-05-31T11:53:56.512Z</time>
      </trkpt>
      <trkpt lat="42.45242" lon="18.55666">
        <ele>62.538831</ele>
        <time>2022-05-31T11:55:45.523Z</time>
      </trkpt>
      <trkpt lat="42.45163" lon="18.55406">
        <ele>72.762999</ele>
        <time>2022-05-31T11:57:19.516Z</time>
      </trkpt>
      <trkpt lat="42.45064" lon="18.55167">
        <ele>77.029944</ele>
        <time>2022-05-31T11:58:23.529Z</time>
      </trkpt>
      <trkpt lat="42.45069" lon="18.54903">
        <ele>77.194975</ele>
        <time>2022-05-31T11:59:35.544Z</time>
      </trkpt>
      <trkpt lat="42.45103" lon="18.5462">
        <ele>82.261554</ele>
        <time>2022-05-31T12:00:55.551Z</time>
      </trkpt>
      <trkpt lat="42.45128" lon="18.54487">
        <ele>82.261554</ele>
        <time>2022-05-31T12:03:09.382Z</time>
      </trkpt>
    </trkseg>
  </trk>
  <trk>
    <name><![CDATA[Tour d'Europe: étape 700]]></name>
    <extensions>
      <line xmlns="http://www.topografix.com/GPX/gpx_style/0/2">
        <color>FF00FF</color>
        <width>4</width>
      </line>
    </extensions>
    <trkseg>
      <trkpt lat="42.2837" lon="18.83812">
        <ele>94.793916</ele>
        <time>2022-05-29T08:04:44.764Z</time>
      </trkpt>
      <trkpt lat="42.28359" lon="18.83753">
        <ele>85.454613</ele>
        <time>2022-05-29T08:26:50.734Z</time>
      </trkpt>
      <trkpt lat="42.28522" lon="18.83724">
        <ele>69.358499</ele>
        <time>2022-05-29T08:28:04.765Z</time>
      </trkpt>
      <trkpt lat="42.28408" lon="18.83514">
        <ele>55.427149</ele>
        <time>2022-05-29T08:29:56.730Z</time>
      </trkpt>
      <trkpt lat="42.28236" lon="18.83403">
        <ele>71.849131</ele>
        <time>2022-05-29T08:31:51.726Z</time>
      </trkpt>
      <trkpt lat="42.28051" lon="18.83387">
        <ele>83.667183</ele>
        <time>2022-05-29T08:34:00.748Z</time>
      </trkpt>
      <trkpt lat="42.27897" lon="18.83322">
        <ele>98.659478</ele>
        <time>2022-05-29T08:36:16.720Z</time>
      </trkpt>
      <trkpt lat="42.2777" lon="18.8321">
        <ele>110.404964</ele>
        <time>2022-05-29T08:38:14.741Z</time>
      </trkpt>
      <trkpt lat="42.27783" lon="18.82956">
        <ele>123.745416</ele>
        <time>2022-05-29T08:40:14.739Z</time>
      </trkpt>
      <trkpt lat="42.27793" lon="18.8268">
        <ele>132.793095</ele>
        <time>2022-05-29T08:42:08.747Z</time>
      </trkpt>
      <trkpt lat="42.28128" lon="18.82002">
        <ele>113.881633</ele>
        <time>2022-05-29T08:45:10.733Z</time>
      </trkpt>
      <trkpt lat="42.28282" lon="18.81829">
        <ele>135.27738</ele>
        <time>2022-05-29T08:46:14.744Z</time>
      </trkpt>
      <trkpt lat="42.28404" lon="18.81624">
        <ele>135.647359</ele>
        <time>2022-05-29T08:47:19.742Z</time>
      </trkpt>
      <trkpt lat="42.28592" lon="18.81409">
        <ele>151.213881</ele>
        <time>2022-05-29T08:50:40.761Z</time>
      </trkpt>
      <trkpt lat="42.28583" lon="18.81121">
        <ele>153.086145</ele>
        <time>2022-05-29T08:51:52.738Z</time>
      </trkpt>
      <trkpt lat="42.28486" lon="18.80853">
        <ele>135.747836</ele>
        <time>2022-05-29T08:52:16.740Z</time>
      </trkpt>
      <trkpt lat="42.28553" lon="18.80576">
        <ele>114.165338</ele>
        <time>2022-05-29T08:52:38.769Z</time>
      </trkpt>
      <trkpt lat="42.28763" lon="18.80569">
        <ele>95.877633</ele>
        <time>2022-05-29T08:52:58.727Z</time>
      </trkpt>
      <trkpt lat="42.28966" lon="18.80725">
        <ele>69.013961</ele>
        <time>2022-05-29T08:53:18.739Z</time>
      </trkpt>
      <trkpt lat="42.29202" lon="18.8073">
        <ele>51.715993</ele>
        <time>2022-05-29T08:53:39.730Z</time>
      </trkpt>
      <trkpt lat="42.29445" lon="18.80693">
        <ele>48.98501</ele>
        <time>2022-05-29T08:54:08.780Z</time>
      </trkpt>
      <trkpt lat="42.29666" lon="18.80725">
        <ele>52.370809</ele>
        <time>2022-05-29T08:54:59.735Z</time>
      </trkpt>
      <trkpt lat="42.29885" lon="18.80726">
        <ele>56.315421</ele>
        <time>2022-05-29T08:56:02.728Z</time>
      </trkpt>
      <trkpt lat="42.30098" lon="18.80688">
        <ele>60.88499</ele>
        <time>2022-05-29T08:57:02.727Z</time>
      </trkpt>
      <trkpt lat="42.30309" lon="18.80639">
        <ele>64.629351</ele>
        <time>2022-05-29T08:58:02.745Z</time>
      </trkpt>
      <trkpt lat="42.30511" lon="18.80571">
        <ele>67.12614</ele>
        <time>2022-05-29T08:59:02.728Z</time>
      </trkpt>
      <trkpt lat="42.30713" lon="18.80408">
        <ele>68.396819</ele>
        <time>2022-05-29T09:00:05.748Z</time>
      </trkpt>
      <trkpt lat="42.30838" lon="18.80194">
        <ele>67.331093</ele>
        <time>2022-05-29T09:00:46.757Z</time>
      </trkpt>
      <trkpt lat="42.30917" lon="18.7992">
        <ele>63.300245</ele>
        <time>2022-05-29T09:01:26.743Z</time>
      </trkpt>
      <trkpt lat="42.30993" lon="18.79587">
        <ele>59.039774</ele>
        <time>2022-05-29T09:02:08.753Z</time>
      </trkpt>
      <trkpt lat="42.31103" lon="18.79312">
        <ele>60.320022</ele>
        <time>2022-05-29T09:02:48.765Z</time>
      </trkpt>
      <trkpt lat="42.31294" lon="18.7916">
        <ele>60.733703</ele>
        <time>2022-05-29T09:03:28.764Z</time>
      </trkpt>
      <trkpt lat="42.31478" lon="18.79048">
        <ele>57.954368</ele>
        <time>2022-05-29T09:04:11.727Z</time>
      </trkpt>
      <trkpt lat="42.31665" lon="18.78894">
        <ele>57.255778</ele>
        <time>2022-05-29T09:04:59.745Z</time>
      </trkpt>
      <trkpt lat="42.3187" lon="18.78715">
        <ele>60.110126</ele>
        <time>2022-05-29T09:05:55.764Z</time>
      </trkpt>
      <trkpt lat="42.32068" lon="18.78548">
        <ele>63.101155</ele>
        <time>2022-05-29T09:06:49.738Z</time>
      </trkpt>
      <trkpt lat="42.32257" lon="18.7831">
        <ele>67.9203</ele>
        <time>2022-05-29T09:07:52.746Z</time>
      </trkpt>
      <trkpt lat="42.32437" lon="18.78129">
        <ele>68.36076</ele>
        <time>2022-05-29T09:08:52.732Z</time>
      </trkpt>
      <trkpt lat="42.32616" lon="18.7797">
        <ele>72.88974</ele>
        <time>2022-05-29T09:09:52.739Z</time>
      </trkpt>
      <trkpt lat="42.3282" lon="18.77773">
        <ele>73.420494</ele>
        <time>2022-05-29T09:10:55.750Z</time>
      </trkpt>
      <trkpt lat="42.32996" lon="18.77574">
        <ele>75.070139</ele>
        <time>2022-05-29T09:11:55.747Z</time>
      </trkpt>
      <trkpt lat="42.33176" lon="18.77379">
        <ele>73.355046</ele>
        <time>2022-05-29T09:12:55.755Z</time>
      </trkpt>
      <trkpt lat="42.33388" lon="18.77267">
        <ele>76.479267</ele>
        <time>2022-05-29T09:13:58.739Z</time>
      </trkpt>
      <trkpt lat="42.33589" lon="18.77245">
        <ele>79.82316</ele>
        <time>2022-05-29T09:15:01.734Z</time>
      </trkpt>
      <trkpt lat="42.33794" lon="18.77217">
        <ele>85.350846</ele>
        <time>2022-05-29T09:16:14.752Z</time>
      </trkpt>
      <trkpt lat="42.34016" lon="18.7713">
        <ele>92.763072</ele>
        <time>2022-05-29T09:17:36.761Z</time>
      </trkpt>
      <trkpt lat="42.34217" lon="18.77022">
        <ele>95.007556</ele>
        <time>2022-05-29T09:18:56.743Z</time>
      </trkpt>
      <trkpt lat="42.34414" lon="18.76936">
        <ele>99.48214</ele>
        <time>2022-05-29T09:20:25.738Z</time>
      </trkpt>
      <trkpt lat="42.34616" lon="18.76897">
        <ele>107.349495</ele>
        <time>2022-05-29T09:22:09.739Z</time>
      </trkpt>
      <trkpt lat="42.34817" lon="18.76827">
        <ele>114.489278</ele>
        <time>2022-05-29T09:23:58.780Z</time>
      </trkpt>
      <trkpt lat="42.34996" lon="18.76714">
        <ele>121.791902</ele>
        <time>2022-05-29T09:25:39.751Z</time>
      </trkpt>
      <trkpt lat="42.35166" lon="18.76554">
        <ele>124.694795</ele>
        <time>2022-05-29T09:27:08.750Z</time>
      </trkpt>
      <trkpt lat="42.35337" lon="18.76376">
        <ele>123.917166</ele>
        <time>2022-05-29T09:28:15.737Z</time>
      </trkpt>
      <trkpt lat="42.35533" lon="18.76226">
        <ele>123.127534</ele>
        <time>2022-05-29T09:29:04.728Z</time>
      </trkpt>
      <trkpt lat="42.35815" lon="18.76112">
        <ele>116.020726</ele>
        <time>2022-05-29T09:29:44.735Z</time>
      </trkpt>
      <trkpt lat="42.36077" lon="18.75982">
        <ele>103.442943</ele>
        <time>2022-05-29T09:30:16.726Z</time>
      </trkpt>
      <trkpt lat="42.36233" lon="18.75823">
        <ele>97.193958</ele>
        <time>2022-05-29T09:30:37.749Z</time>
      </trkpt>
      <trkpt lat="42.3641" lon="18.75702">
        <ele>91.031124</ele>
        <time>2022-05-29T09:30:57.768Z</time>
      </trkpt>
      <trkpt lat="42.36594" lon="18.75561">
        <ele>85.940393</ele>
        <time>2022-05-29T09:31:20.743Z</time>
      </trkpt>
      <trkpt lat="42.36786" lon="18.75461">
        <ele>81.836639</ele>
        <time>2022-05-29T09:31:41.730Z</time>
      </trkpt>
      <trkpt lat="42.36977" lon="18.75405">
        <ele>76.907121</ele>
        <time>2022-05-29T09:32:01.745Z</time>
      </trkpt>
      <trkpt lat="42.37193" lon="18.75338">
        <ele>71.846206</ele>
        <time>2022-05-29T09:32:25.736Z</time>
      </trkpt>
      <trkpt lat="42.37449" lon="18.75234">
        <ele>70.811184</ele>
        <time>2022-05-29T09:33:07.767Z</time>
      </trkpt>
      <trkpt lat="42.37666" lon="18.7512">
        <ele>70.756894</ele>
        <time>2022-05-29T09:33:47.727Z</time>
      </trkpt>
      <trkpt lat="42.37928" lon="18.74948">
        <ele>65.026767</ele>
        <time>2022-05-29T09:34:27.749Z</time>
      </trkpt>
      <trkpt lat="42.38207" lon="18.74712">
        <ele>62.062777</ele>
        <time>2022-05-29T09:35:09.743Z</time>
      </trkpt>
      <trkpt lat="42.3846" lon="18.7446">
        <ele>57.244343</ele>
        <time>2022-05-29T09:35:49.733Z</time>
      </trkpt>
      <trkpt lat="42.38714" lon="18.74202">
        <ele>51.641621</ele>
        <time>2022-05-29T09:36:29.747Z</time>
      </trkpt>
      <trkpt lat="42.38932" lon="18.74">
        <ele>50.901243</ele>
        <time>2022-05-29T09:37:09.739Z</time>
      </trkpt>
      <trkpt lat="42.39114" lon="18.73843">
        <ele>50.44241</ele>
        <time>2022-05-29T09:37:51.748Z</time>
      </trkpt>
      <trkpt lat="42.39289" lon="18.73715">
        <ele>51.302452</ele>
        <time>2022-05-29T09:38:31.730Z</time>
      </trkpt>
      <trkpt lat="42.39496" lon="18.73557">
        <ele>49.017282</ele>
        <time>2022-05-29T09:39:11.735Z</time>
      </trkpt>
      <trkpt lat="42.39716" lon="18.73384">
        <ele>47.321643</ele>
        <time>2022-05-29T09:39:53.765Z</time>
      </trkpt>
      <trkpt lat="42.39908" lon="18.73212">
        <ele>46.236642</ele>
        <time>2022-05-29T09:40:33.738Z</time>
      </trkpt>
      <trkpt lat="42.40088" lon="18.73027">
        <ele>46.834328</ele>
        <time>2022-05-29T09:41:13.764Z</time>
      </trkpt>
      <trkpt lat="42.40248" lon="18.72842">
        <ele>48.22113</ele>
        <time>2022-05-29T09:41:55.748Z</time>
      </trkpt>
      <trkpt lat="42.40392" lon="18.72672">
        <ele>49.590671</ele>
        <time>2022-05-29T09:42:35.728Z</time>
      </trkpt>
      <trkpt lat="42.40542" lon="18.72496">
        <ele>49.118628</ele>
        <time>2022-05-29T09:43:15.748Z</time>
      </trkpt>
      <trkpt lat="42.40713" lon="18.723">
        <ele>48.678353</ele>
        <time>2022-05-29T09:43:57.743Z</time>
      </trkpt>
      <trkpt lat="42.40888" lon="18.72137">
        <ele>47.535729</ele>
        <time>2022-05-29T09:44:37.766Z</time>
      </trkpt>
      <trkpt lat="42.41074" lon="18.72004">
        <ele>46.673474</ele>
        <time>2022-05-29T09:45:17.751Z</time>
      </trkpt>
      <trkpt lat="42.41264" lon="18.71903">
        <ele>45.994828</ele>
        <time>2022-05-29T09:45:57.752Z</time>
      </trkpt>
      <trkpt lat="42.41475" lon="18.71824">
        <ele>46.956544</ele>
        <time>2022-05-29T09:46:43.743Z</time>
      </trkpt>
      <trkpt lat="42.41676" lon="18.71762">
        <ele>52.229027</ele>
        <time>2022-05-29T09:47:43.735Z</time>
      </trkpt>
      <trkpt lat="42.41866" lon="18.71669">
        <ele>58.654214</ele>
        <time>2022-05-29T09:48:51.737Z</time>
      </trkpt>
      <trkpt lat="42.4205" lon="18.71494">
        <ele>67.538757</ele>
        <time>2022-05-29T09:49:55.758Z</time>
      </trkpt>
      <trkpt lat="42.42171" lon="18.71298">
        <ele>63.043346</ele>
        <time>2022-05-29T09:50:35.732Z</time>
      </trkpt>
      <trkpt lat="42.42265" lon="18.71056">
        <ele>61.312777</ele>
        <time>2022-05-29T09:51:18.760Z</time>
      </trkpt>
      <trkpt lat="42.42383" lon="18.70752">
        <ele>54.509673</ele>
        <time>2022-05-29T09:52:00.746Z</time>
      </trkpt>
      <trkpt lat="42.42534" lon="18.70479">
        <ele>50.195303</ele>
        <time>2022-05-29T09:52:42.719Z</time>
      </trkpt>
      <trkpt lat="42.4262" lon="18.70235">
        <ele>49.099084</ele>
        <time>2022-05-29T09:53:35.738Z</time>
      </trkpt>
      <trkpt lat="42.42736" lon="18.70167">
        <ele>46.358431</ele>
        <time>2022-05-29T09:54:29.731Z</time>
      </trkpt>
      <trkpt lat="42.42924" lon="18.70074">
        <ele>48.08309</ele>
        <time>2022-05-29T09:55:36.727Z</time>
      </trkpt>
      <trkpt lat="42.42921" lon="18.69786">
        <ele>58.425012</ele>
        <time>2022-05-29T09:56:38.728Z</time>
      </trkpt>
      <trkpt lat="42.42942" lon="18.69583">
        <ele>48.616338</ele>
        <time>2022-05-29T09:58:59.730Z</time>
      </trkpt>
      <trkpt lat="42.43133" lon="18.69473">
        <ele>50.208038</ele>
        <time>2022-05-29T10:00:46.759Z</time>
      </trkpt>
      <trkpt lat="42.4328" lon="18.69383">
        <ele>53.15533</ele>
        <time>2022-05-29T10:25:10.735Z</time>
      </trkpt>
      <trkpt lat="42.43395" lon="18.69312">
        <ele>57.911277</ele>
        <time>2022-05-29T10:26:31.731Z</time>
      </trkpt>
      <trkpt lat="42.43611" lon="18.69264">
        <ele>54.558737</ele>
        <time>2022-05-29T10:27:44.724Z</time>
      </trkpt>
      <trkpt lat="42.43778" lon="18.69217">
        <ele>48.072748</ele>
        <time>2022-05-29T10:28:53.721Z</time>
      </trkpt>
      <trkpt lat="42.43916" lon="18.69025">
        <ele>49.217401</ele>
        <time>2022-05-29T10:29:56.717Z</time>
      </trkpt>
      <trkpt lat="42.43976" lon="18.68751">
        <ele>48.992348</ele>
        <time>2022-05-29T10:31:04.714Z</time>
      </trkpt>
      <trkpt lat="42.44171" lon="18.68709">
        <ele>47.853527</ele>
        <time>2022-05-29T10:32:14.730Z</time>
      </trkpt>
      <trkpt lat="42.44377" lon="18.68686">
        <ele>49.228634</ele>
        <time>2022-05-29T10:33:30.721Z</time>
      </trkpt>
      <trkpt lat="42.44582" lon="18.68698">
        <ele>47.623213</ele>
        <time>2022-05-29T10:34:32.740Z</time>
      </trkpt>
      <trkpt lat="42.44795" lon="18.68666">
        <ele>48.965594</ele>
        <time>2022-05-29T10:35:43.721Z</time>
      </trkpt>
      <trkpt lat="42.4498" lon="18.6856">
        <ele>47.577298</ele>
        <time>2022-05-29T10:36:50.727Z</time>
      </trkpt>
      <trkpt lat="42.45164" lon="18.68478">
        <ele>49.073004</ele>
        <time>2022-05-29T10:37:31.727Z</time>
      </trkpt>
      <trkpt lat="42.45376" lon="18.68401">
        <ele>47.52759</ele>
        <time>2022-05-29T10:38:13.747Z</time>
      </trkpt>
      <trkpt lat="42.4553" lon="18.68234">
        <ele>44.576416</ele>
        <time>2022-05-29T10:38:54.765Z</time>
      </trkpt>
      <trkpt lat="42.45706" lon="18.68189">
        <ele>46.191497</ele>
        <time>2022-05-29T10:39:34.752Z</time>
      </trkpt>
      <trkpt lat="42.45922" lon="18.6818">
        <ele>48.681345</ele>
        <time>2022-05-29T10:40:19.712Z</time>
      </trkpt>
      <trkpt lat="42.46101" lon="18.68351">
        <ele>47.688534</ele>
        <time>2022-05-29T10:41:00.743Z</time>
      </trkpt>
      <trkpt lat="42.46292" lon="18.68321">
        <ele>45.787136</ele>
        <time>2022-05-29T10:41:45.751Z</time>
      </trkpt>
      <trkpt lat="42.46468" lon="18.68439">
        <ele>44.461971</ele>
        <time>2022-05-29T10:42:25.748Z</time>
      </trkpt>
      <trkpt lat="42.46618" lon="18.68648">
        <ele>46.497383</ele>
        <time>2022-05-29T10:43:14.723Z</time>
      </trkpt>
      <trkpt lat="42.46807" lon="18.68554">
        <ele>46.275644</ele>
        <time>2022-05-29T10:44:10.761Z</time>
      </trkpt>
      <trkpt lat="42.47028" lon="18.68677">
        <ele>45.102034</ele>
        <time>2022-05-29T10:45:07.746Z</time>
      </trkpt>
      <trkpt lat="42.47266" lon="18.68658">
        <ele>47.971663</ele>
        <time>2022-05-29T10:46:03.737Z</time>
      </trkpt>
      <trkpt lat="42.47448" lon="18.68773">
        <ele>50.367629</ele>
        <time>2022-05-29T10:47:08.745Z</time>
      </trkpt>
      <trkpt lat="42.47606" lon="18.68944">
        <ele>53.353278</ele>
        <time>2022-05-29T10:48:18.730Z</time>
      </trkpt>
      <trkpt lat="42.47714" lon="18.69149">
        <ele>55.251455</ele>
        <time>2022-05-29T10:49:40.759Z</time>
      </trkpt>
      <trkpt lat="42.47642" lon="18.69444">
        <ele>59.002089</ele>
        <time>2022-05-29T10:50:36.740Z</time>
      </trkpt>
      <trkpt lat="42.47571" lon="18.69727">
        <ele>54.848696</ele>
        <time>2022-05-29T10:51:30.726Z</time>
      </trkpt>
      <trkpt lat="42.47475" lon="18.69992">
        <ele>49.14913</ele>
        <time>2022-05-29T10:52:15.723Z</time>
      </trkpt>
      <trkpt lat="42.47355" lon="18.70232">
        <ele>49.583714</ele>
        <time>2022-05-29T10:53:18.716Z</time>
      </trkpt>
      <trkpt lat="42.47229" lon="18.70472">
        <ele>47.470288</ele>
        <time>2022-05-29T10:54:15.743Z</time>
      </trkpt>
      <trkpt lat="42.47209" lon="18.70774">
        <ele>49.682685</ele>
        <time>2022-05-29T10:55:13.737Z</time>
      </trkpt>
      <trkpt lat="42.47242" lon="18.71088">
        <ele>46.853883</ele>
        <time>2022-05-29T10:56:16.758Z</time>
      </trkpt>
      <trkpt lat="42.47231" lon="18.71392">
        <ele>48.369759</ele>
        <time>2022-05-29T10:57:11.735Z</time>
      </trkpt>
      <trkpt lat="42.47052" lon="18.71588">
        <ele>49.096599</ele>
        <time>2022-05-29T10:58:08.741Z</time>
      </trkpt>
      <trkpt lat="42.47012" lon="18.71875">
        <ele>47.077548</ele>
        <time>2022-05-29T10:58:58.737Z</time>
      </trkpt>
      <trkpt lat="42.46937" lon="18.72152">
        <ele>49.687015</ele>
        <time>2022-05-29T10:59:50.738Z</time>
      </trkpt>
      <trkpt lat="42.46874" lon="18.72421">
        <ele>52.733519</ele>
        <time>2022-05-29T11:00:52.735Z</time>
      </trkpt>
      <trkpt lat="42.46741" lon="18.72687">
        <ele>51.430338</ele>
        <time>2022-05-29T11:01:49.748Z</time>
      </trkpt>
      <trkpt lat="42.46613" lon="18.72969">
        <ele>48.126343</ele>
        <time>2022-05-29T11:02:42.732Z</time>
      </trkpt>
      <trkpt lat="42.46525" lon="18.73244">
        <ele>49.394398</ele>
        <time>2022-05-29T11:03:36.735Z</time>
      </trkpt>
      <trkpt lat="42.4642" lon="18.73508">
        <ele>49.819139</ele>
        <time>2022-05-29T11:04:39.743Z</time>
      </trkpt>
      <trkpt lat="42.46235" lon="18.73711">
        <ele>46.305167</ele>
        <time>2022-05-29T11:05:34.772Z</time>
      </trkpt>
      <trkpt lat="42.46057" lon="18.73878">
        <ele>50.361769</ele>
        <time>2022-05-29T11:09:14.739Z</time>
      </trkpt>
      <trkpt lat="42.45925" lon="18.74088">
        <ele>47.547484</ele>
        <time>2022-05-29T11:10:14.756Z</time>
      </trkpt>
      <trkpt lat="42.45743" lon="18.74291">
        <ele>46.457227</ele>
        <time>2022-05-29T11:11:14.741Z</time>
      </trkpt>
      <trkpt lat="42.4562" lon="18.74558">
        <ele>46.305794</ele>
        <time>2022-05-29T11:12:10.740Z</time>
      </trkpt>
      <trkpt lat="42.4549" lon="18.7476">
        <ele>44.79845</ele>
        <time>2022-05-29T11:13:13.745Z</time>
      </trkpt>
      <trkpt lat="42.45294" lon="18.7488">
        <ele>50.752351</ele>
        <time>2022-05-29T11:14:29.722Z</time>
      </trkpt>
      <trkpt lat="42.45227" lon="18.7495">
        <ele>48.523876</ele>
        <time>2022-05-29T11:16:23.736Z</time>
      </trkpt>
      <trkpt lat="42.45032" lon="18.7507">
        <ele>44.493151</ele>
        <time>2022-05-29T11:17:20.740Z</time>
      </trkpt>
      <trkpt lat="42.4493" lon="18.75338">
        <ele>38.614491</ele>
        <time>2022-05-29T11:18:21.734Z</time>
      </trkpt>
      <trkpt lat="42.4473" lon="18.75442">
        <ele>38.452953</ele>
        <time>2022-05-29T11:19:24.742Z</time>
      </trkpt>
      <trkpt lat="42.44561" lon="18.75277">
        <ele>43.542041</ele>
        <time>2022-05-29T11:20:24.779Z</time>
      </trkpt>
      <trkpt lat="42.44365" lon="18.75281">
        <ele>42.923654</ele>
        <time>2022-05-29T11:21:24.751Z</time>
      </trkpt>
      <trkpt lat="42.44209" lon="18.75462">
        <ele>44.880569</ele>
        <time>2022-05-29T11:22:36.764Z</time>
      </trkpt>
      <trkpt lat="42.44015" lon="18.75372">
        <ele>47.460238</ele>
        <time>2022-05-29T11:23:26.745Z</time>
      </trkpt>
      <trkpt lat="42.43834" lon="18.75463">
        <ele>42.359976</ele>
        <time>2022-05-29T11:24:13.778Z</time>
      </trkpt>
      <trkpt lat="42.43632" lon="18.75615">
        <ele>37.283785</ele>
        <time>2022-05-29T11:25:05.798Z</time>
      </trkpt>
      <trkpt lat="42.43426" lon="18.75725">
        <ele>39.313918</ele>
        <time>2022-05-29T11:25:57.761Z</time>
      </trkpt>
      <trkpt lat="42.43224" lon="18.75773">
        <ele>45.629046</ele>
        <time>2022-05-29T11:26:57.742Z</time>
      </trkpt>
      <trkpt lat="42.42988" lon="18.75829">
        <ele>46.012396</ele>
        <time>2022-05-29T11:27:59.757Z</time>
      </trkpt>
      <trkpt lat="42.42766" lon="18.75869">
        <ele>46.09782</ele>
        <time>2022-05-29T11:28:59.742Z</time>
      </trkpt>
      <trkpt lat="42.42551" lon="18.75936">
        <ele>42.847593</ele>
        <time>2022-05-29T11:29:59.742Z</time>
      </trkpt>
      <trkpt lat="42.42374" lon="18.76085">
        <ele>36.016532</ele>
        <time>2022-05-29T11:30:54.739Z</time>
      </trkpt>
      <trkpt lat="42.42188" lon="18.7626">
        <ele>36.097149</ele>
        <time>2022-05-29T11:31:52.712Z</time>
      </trkpt>
      <trkpt lat="42.42138" lon="18.7655">
        <ele>38.753837</ele>
        <time>2022-05-29T11:32:47.741Z</time>
      </trkpt>
      <trkpt lat="42.42156" lon="18.76875">
        <ele>43.470629</ele>
        <time>2022-05-29T11:33:46.733Z</time>
      </trkpt>
      <trkpt lat="42.42248" lon="18.7713">
        <ele>41.780088</ele>
        <time>2022-05-29T11:34:42.731Z</time>
      </trkpt>
      <trkpt lat="42.4242" lon="18.76991">
        <ele>37.756912</ele>
        <time>2022-05-29T11:35:34.734Z</time>
      </trkpt>
      <trkpt lat="42.42586" lon="18.76849">
        <ele>39.631883</ele>
        <time>2022-05-29T11:36:40.727Z</time>
      </trkpt>
      <trkpt lat="42.42761" lon="18.76963">
        <ele>39.135377</ele>
        <time>2022-05-29T11:37:42.738Z</time>
      </trkpt>
      <trkpt lat="42.42718" lon="18.77256">
        <ele>41.330757</ele>
        <time>2022-05-29T11:38:50.731Z</time>
      </trkpt>
      <trkpt lat="42.42805" lon="18.77206">
        <ele>41.330757</ele>
        <time>2022-05-29T11:41:00.722Z</time>
      </trkpt>
    </trkseg>
  </trk>
  <trk>
    <name><![CDATA[Tour d'Europe: étape 698]]></name>
    <extensions>
      <line xmlns="http://www.topografix.com/GPX/gpx_style/0/2">
        <color>000088</color>
        <width>4</width>
      </line>
    </extensions>
    <trkseg>
      <trkpt lat="42.10763" lon="19.08928">
        <ele>52.587396</ele>
        <time>2022-05-27T08:20:16.714Z</time>
      </trkpt>
      <trkpt lat="42.10853" lon="19.08802">
        <ele>51.010488</ele>
        <time>2022-05-27T08:22:05.863Z</time>
      </trkpt>
      <trkpt lat="42.11039" lon="19.08625">
        <ele>45.074214</ele>
        <time>2022-05-27T08:23:01.845Z</time>
      </trkpt>
      <trkpt lat="42.11237" lon="19.08454">
        <ele>46.355284</ele>
        <time>2022-05-27T08:23:58.887Z</time>
      </trkpt>
      <trkpt lat="42.11407" lon="19.08282">
        <ele>54.201945</ele>
        <time>2022-05-27T08:25:12.855Z</time>
      </trkpt>
      <trkpt lat="42.11507" lon="19.08059">
        <ele>61.14419</ele>
        <time>2022-05-27T08:26:41.876Z</time>
      </trkpt>
      <trkpt lat="42.1163" lon="19.07837">
        <ele>63.35637</ele>
        <time>2022-05-27T08:27:42.870Z</time>
      </trkpt>
      <trkpt lat="42.11742" lon="19.07582">
        <ele>57.899471</ele>
        <time>2022-05-27T08:28:26.866Z</time>
      </trkpt>
      <trkpt lat="42.11896" lon="19.07348">
        <ele>56.932231</ele>
        <time>2022-05-27T08:29:23.874Z</time>
      </trkpt>
      <trkpt lat="42.1204" lon="19.07132">
        <ele>61.721957</ele>
        <time>2022-05-27T08:30:27.873Z</time>
      </trkpt>
      <trkpt lat="42.12137" lon="19.06873">
        <ele>56.640525</ele>
        <time>2022-05-27T08:30:50.855Z</time>
      </trkpt>
      <trkpt lat="42.12291" lon="19.06664">
        <ele>54.301614</ele>
        <time>2022-05-27T08:31:27.862Z</time>
      </trkpt>
      <trkpt lat="42.12297" lon="19.06416">
        <ele>65.67956</ele>
        <time>2022-05-27T08:33:07.858Z</time>
      </trkpt>
      <trkpt lat="42.12472" lon="19.06404">
        <ele>80.314162</ele>
        <time>2022-05-27T08:34:51.884Z</time>
      </trkpt>
      <trkpt lat="42.12664" lon="19.06499">
        <ele>82.971376</ele>
        <time>2022-05-27T08:36:25.884Z</time>
      </trkpt>
      <trkpt lat="42.12882" lon="19.06378">
        <ele>72.111503</ele>
        <time>2022-05-27T08:37:07.855Z</time>
      </trkpt>
      <trkpt lat="42.1312" lon="19.06319">
        <ele>69.727781</ele>
        <time>2022-05-27T08:37:49.892Z</time>
      </trkpt>
      <trkpt lat="42.13328" lon="19.06324">
        <ele>72.027009</ele>
        <time>2022-05-27T08:38:32.834Z</time>
      </trkpt>
      <trkpt lat="42.13558" lon="19.06361">
        <ele>68.74577</ele>
        <time>2022-05-27T08:40:56.864Z</time>
      </trkpt>
      <trkpt lat="42.13698" lon="19.06131">
        <ele>62.924616</ele>
        <time>2022-05-27T08:41:43.863Z</time>
      </trkpt>
      <trkpt lat="42.13709" lon="19.05865">
        <ele>59.040856</ele>
        <time>2022-05-27T08:42:21.877Z</time>
      </trkpt>
      <trkpt lat="42.13708" lon="19.05537">
        <ele>51.688578</ele>
        <time>2022-05-27T08:43:01.882Z</time>
      </trkpt>
      <trkpt lat="42.13825" lon="19.05219">
        <ele>49.828676</ele>
        <time>2022-05-27T08:43:38.873Z</time>
      </trkpt>
      <trkpt lat="42.13938" lon="19.04978">
        <ele>54.103318</ele>
        <time>2022-05-27T08:44:31.876Z</time>
      </trkpt>
      <trkpt lat="42.14111" lon="19.0482">
        <ele>62.133807</ele>
        <time>2022-05-27T08:45:42.876Z</time>
      </trkpt>
      <trkpt lat="42.14208" lon="19.04612">
        <ele>69.996577</ele>
        <time>2022-05-27T08:46:55.942Z</time>
      </trkpt>
      <trkpt lat="42.1427" lon="19.04393">
        <ele>68.214115</ele>
        <time>2022-05-27T08:48:10.880Z</time>
      </trkpt>
      <trkpt lat="42.1426" lon="19.04151">
        <ele>63.490245</ele>
        <time>2022-05-27T08:48:57.876Z</time>
      </trkpt>
      <trkpt lat="42.14278" lon="19.0391">
        <ele>62.665539</ele>
        <time>2022-05-27T08:49:58.855Z</time>
      </trkpt>
      <trkpt lat="42.14375" lon="19.03672">
        <ele>62.628373</ele>
        <time>2022-05-27T08:51:10.867Z</time>
      </trkpt>
      <trkpt lat="42.14551" lon="19.03578">
        <ele>66.008923</ele>
        <time>2022-05-27T08:52:35.866Z</time>
      </trkpt>
      <trkpt lat="42.14741" lon="19.03508">
        <ele>73.127515</ele>
        <time>2022-05-27T08:54:15.868Z</time>
      </trkpt>
      <trkpt lat="42.14919" lon="19.03573">
        <ele>82.19453</ele>
        <time>2022-05-27T08:55:54.894Z</time>
      </trkpt>
      <trkpt lat="42.15101" lon="19.03659">
        <ele>95.877299</ele>
        <time>2022-05-27T08:58:16.846Z</time>
      </trkpt>
      <trkpt lat="42.15229" lon="19.03495">
        <ele>110.136722</ele>
        <time>2022-05-27T09:00:58.853Z</time>
      </trkpt>
      <trkpt lat="42.15354" lon="19.03316">
        <ele>117.192916</ele>
        <time>2022-05-27T09:02:50.849Z</time>
      </trkpt>
      <trkpt lat="42.15532" lon="19.03201">
        <ele>123.134592</ele>
        <time>2022-05-27T09:04:41.884Z</time>
      </trkpt>
      <trkpt lat="42.15694" lon="19.03032">
        <ele>128.251384</ele>
        <time>2022-05-27T09:10:51.921Z</time>
      </trkpt>
      <trkpt lat="42.15794" lon="19.02805">
        <ele>135.782173</ele>
        <time>2022-05-27T09:12:35.857Z</time>
      </trkpt>
      <trkpt lat="42.15843" lon="19.02451">
        <ele>137.520983</ele>
        <time>2022-05-27T09:21:22.857Z</time>
      </trkpt>
      <trkpt lat="42.16044" lon="19.0213">
        <ele>141.117845</ele>
        <time>2022-05-27T09:21:54.863Z</time>
      </trkpt>
      <trkpt lat="42.16274" lon="19.01904">
        <ele>114.672032</ele>
        <time>2022-05-27T09:22:30.839Z</time>
      </trkpt>
      <trkpt lat="42.16433" lon="19.01639">
        <ele>109.936193</ele>
        <time>2022-05-27T09:23:08.863Z</time>
      </trkpt>
      <trkpt lat="42.16553" lon="19.01369">
        <ele>114.589846</ele>
        <time>2022-05-27T09:24:06.852Z</time>
      </trkpt>
      <trkpt lat="42.16681" lon="19.01162">
        <ele>122.05793</ele>
        <time>2022-05-27T09:25:20.889Z</time>
      </trkpt>
      <trkpt lat="42.16813" lon="19.01007">
        <ele>138.086687</ele>
        <time>2022-05-27T09:27:28.867Z</time>
      </trkpt>
      <trkpt lat="42.16999" lon="19.01027">
        <ele>151.039896</ele>
        <time>2022-05-27T09:29:56.876Z</time>
      </trkpt>
      <trkpt lat="42.17136" lon="19.00872">
        <ele>172.976978</ele>
        <time>2022-05-27T09:32:16.865Z</time>
      </trkpt>
      <trkpt lat="42.17307" lon="19.00775">
        <ele>178.369547</ele>
        <time>2022-05-27T09:35:02.877Z</time>
      </trkpt>
      <trkpt lat="42.17313" lon="19.00538">
        <ele>180.745989</ele>
        <time>2022-05-27T09:37:32.868Z</time>
      </trkpt>
      <trkpt lat="42.17215" lon="19.00332">
        <ele>192.699785</ele>
        <time>2022-05-27T09:39:51.876Z</time>
      </trkpt>
      <trkpt lat="42.17283" lon="19.001">
        <ele>214.577993</ele>
        <time>2022-05-27T09:42:25.880Z</time>
      </trkpt>
      <trkpt lat="42.17431" lon="18.99964">
        <ele>228.960124</ele>
        <time>2022-05-27T09:44:47.896Z</time>
      </trkpt>
      <trkpt lat="42.17557" lon="18.99769">
        <ele>234.71506</ele>
        <time>2022-05-27T09:47:10.888Z</time>
      </trkpt>
      <trkpt lat="42.1781" lon="18.99693">
        <ele>229.1669</ele>
        <time>2022-05-27T09:50:14.880Z</time>
      </trkpt>
      <trkpt lat="42.18013" lon="18.99605">
        <ele>217.000912</ele>
        <time>2022-05-27T09:50:36.868Z</time>
      </trkpt>
      <trkpt lat="42.18221" lon="18.9945">
        <ele>202.692834</ele>
        <time>2022-05-27T09:51:02.862Z</time>
      </trkpt>
      <trkpt lat="42.18415" lon="18.9938">
        <ele>187.411314</ele>
        <time>2022-05-27T09:51:23.893Z</time>
      </trkpt>
      <trkpt lat="42.18503" lon="18.99099">
        <ele>173.813555</ele>
        <time>2022-05-27T09:51:44.878Z</time>
      </trkpt>
      <trkpt lat="42.18633" lon="18.98862">
        <ele>156.598401</ele>
        <time>2022-05-27T09:52:05.854Z</time>
      </trkpt>
      <trkpt lat="42.18845" lon="18.98892">
        <ele>138.552658</ele>
        <time>2022-05-27T09:52:26.911Z</time>
      </trkpt>
      <trkpt lat="42.19045" lon="18.98832">
        <ele>120.451296</ele>
        <time>2022-05-27T09:52:50.853Z</time>
      </trkpt>
      <trkpt lat="42.19179" lon="18.98584">
        <ele>109.19542</ele>
        <time>2022-05-27T09:53:15.869Z</time>
      </trkpt>
      <trkpt lat="42.19381" lon="18.98416">
        <ele>96.679911</ele>
        <time>2022-05-27T09:53:37.911Z</time>
      </trkpt>
      <trkpt lat="42.19609" lon="18.98308">
        <ele>82.082816</ele>
        <time>2022-05-27T09:54:03.876Z</time>
      </trkpt>
      <trkpt lat="42.19665" lon="18.98011">
        <ele>76.360407</ele>
        <time>2022-05-27T09:54:31.857Z</time>
      </trkpt>
      <trkpt lat="42.19793" lon="18.97807">
        <ele>78.773225</ele>
        <time>2022-05-27T09:55:29.882Z</time>
      </trkpt>
      <trkpt lat="42.19731" lon="18.97489">
        <ele>71.057164</ele>
        <time>2022-05-27T09:56:00.862Z</time>
      </trkpt>
      <trkpt lat="42.19714" lon="18.97134">
        <ele>62.853483</ele>
        <time>2022-05-27T09:56:33.861Z</time>
      </trkpt>
      <trkpt lat="42.19832" lon="18.96865">
        <ele>64.558211</ele>
        <time>2022-05-27T09:57:17.882Z</time>
      </trkpt>
      <trkpt lat="42.19942" lon="18.9666">
        <ele>64.923864</ele>
        <time>2022-05-27T09:58:21.874Z</time>
      </trkpt>
      <trkpt lat="42.20048" lon="18.96395">
        <ele>67.773914</ele>
        <time>2022-05-27T11:35:56.889Z</time>
      </trkpt>
      <trkpt lat="42.20155" lon="18.96169">
        <ele>77.799705</ele>
        <time>2022-05-27T11:37:20.897Z</time>
      </trkpt>
      <trkpt lat="42.2028" lon="18.95959">
        <ele>85.728834</ele>
        <time>2022-05-27T11:38:53.868Z</time>
      </trkpt>
      <trkpt lat="42.20397" lon="18.95751">
        <ele>91.864648</ele>
        <time>2022-05-27T11:40:24.868Z</time>
      </trkpt>
      <trkpt lat="42.20376" lon="18.95445">
        <ele>100.15182</ele>
        <time>2022-05-27T11:42:08.866Z</time>
      </trkpt>
      <trkpt lat="42.20393" lon="18.95178">
        <ele>106.043126</ele>
        <time>2022-05-27T11:43:30.878Z</time>
      </trkpt>
      <trkpt lat="42.20538" lon="18.94928">
        <ele>105.89111</ele>
        <time>2022-05-27T11:44:28.854Z</time>
      </trkpt>
      <trkpt lat="42.20692" lon="18.94651">
        <ele>90.803914</ele>
        <time>2022-05-27T11:45:02.867Z</time>
      </trkpt>
      <trkpt lat="42.20868" lon="18.94533">
        <ele>94.126605</ele>
        <time>2022-05-27T11:46:16.870Z</time>
      </trkpt>
      <trkpt lat="42.21014" lon="18.94382">
        <ele>110.915901</ele>
        <time>2022-05-27T11:48:02.870Z</time>
      </trkpt>
      <trkpt lat="42.21042" lon="18.94146">
        <ele>119.891162</ele>
        <time>2022-05-27T11:52:31.869Z</time>
      </trkpt>
      <trkpt lat="42.21021" lon="18.93888">
        <ele>128.660772</ele>
        <time>2022-05-27T11:54:34.864Z</time>
      </trkpt>
      <trkpt lat="42.21024" lon="18.9366">
        <ele>138.747934</ele>
        <time>2022-05-27T11:56:36.864Z</time>
      </trkpt>
      <trkpt lat="42.20978" lon="18.93399">
        <ele>144.794723</ele>
        <time>2022-05-27T11:58:24.859Z</time>
      </trkpt>
      <trkpt lat="42.20876" lon="18.93198">
        <ele>152.566124</ele>
        <time>2022-05-27T12:00:11.850Z</time>
      </trkpt>
      <trkpt lat="42.20821" lon="18.92913">
        <ele>169.15313</ele>
        <time>2022-05-27T12:03:35.872Z</time>
      </trkpt>
      <trkpt lat="42.20937" lon="18.92784">
        <ele>178.85389</ele>
        <time>2022-05-27T12:05:38.843Z</time>
      </trkpt>
      <trkpt lat="42.21095" lon="18.92904">
        <ele>182.446023</ele>
        <time>2022-05-27T12:07:34.836Z</time>
      </trkpt>
      <trkpt lat="42.21274" lon="18.93041">
        <ele>183.928937</ele>
        <time>2022-05-27T12:09:02.857Z</time>
      </trkpt>
      <trkpt lat="42.21438" lon="18.9316">
        <ele>193.107112</ele>
        <time>2022-05-27T12:10:29.861Z</time>
      </trkpt>
      <trkpt lat="42.21543" lon="18.93012">
        <ele>206.221547</ele>
        <time>2022-05-27T12:18:37.914Z</time>
      </trkpt>
      <trkpt lat="42.21534" lon="18.92773">
        <ele>210.462502</ele>
        <time>2022-05-27T12:19:56.874Z</time>
      </trkpt>
      <trkpt lat="42.21603" lon="18.92515">
        <ele>208.568568</ele>
        <time>2022-05-27T12:20:45.870Z</time>
      </trkpt>
      <trkpt lat="42.21624" lon="18.92198">
        <ele>201.608527</ele>
        <time>2022-05-27T12:21:25.854Z</time>
      </trkpt>
      <trkpt lat="42.21773" lon="18.91974">
        <ele>187.039722</ele>
        <time>2022-05-27T12:21:52.850Z</time>
      </trkpt>
      <trkpt lat="42.21849" lon="18.91719">
        <ele>174.499878</ele>
        <time>2022-05-27T12:22:12.913Z</time>
      </trkpt>
      <trkpt lat="42.22002" lon="18.91404">
        <ele>167.326471</ele>
        <time>2022-05-27T12:22:44.862Z</time>
      </trkpt>
      <trkpt lat="42.221" lon="18.91176">
        <ele>166.318121</ele>
        <time>2022-05-27T12:23:22.871Z</time>
      </trkpt>
      <trkpt lat="42.22334" lon="18.91122">
        <ele>162.601</ele>
        <time>2022-05-27T12:24:06.898Z</time>
      </trkpt>
      <trkpt lat="42.22607" lon="18.91138">
        <ele>149.021332</ele>
        <time>2022-05-27T12:24:44.874Z</time>
      </trkpt>
      <trkpt lat="42.22844" lon="18.91151">
        <ele>139.540051</ele>
        <time>2022-05-27T12:25:12.857Z</time>
      </trkpt>
      <trkpt lat="42.22993" lon="18.90923">
        <ele>142.605023</ele>
        <time>2022-05-27T12:26:20.866Z</time>
      </trkpt>
      <trkpt lat="42.23176" lon="18.90881">
        <ele>149.640564</ele>
        <time>2022-05-27T12:27:47.877Z</time>
      </trkpt>
      <trkpt lat="42.23401" lon="18.90776">
        <ele>145.185896</ele>
        <time>2022-05-27T12:28:28.865Z</time>
      </trkpt>
      <trkpt lat="42.23593" lon="18.90694">
        <ele>143.813084</ele>
        <time>2022-05-27T12:29:29.868Z</time>
      </trkpt>
      <trkpt lat="42.23786" lon="18.90613">
        <ele>150.508102</ele>
        <time>2022-05-27T12:31:06.852Z</time>
      </trkpt>
      <trkpt lat="42.23977" lon="18.90547">
        <ele>158.350857</ele>
        <time>2022-05-27T12:32:48.852Z</time>
      </trkpt>
      <trkpt lat="42.2413" lon="18.90394">
        <ele>164.26987</ele>
        <time>2022-05-27T12:34:18.874Z</time>
      </trkpt>
      <trkpt lat="42.2432" lon="18.9034">
        <ele>167.199476</ele>
        <time>2022-05-27T12:35:40.859Z</time>
      </trkpt>
      <trkpt lat="42.24446" lon="18.90238">
        <ele>166.748774</ele>
        <time>2022-05-27T12:38:54.865Z</time>
      </trkpt>
      <trkpt lat="42.24701" lon="18.90291">
        <ele>156.740261</ele>
        <time>2022-05-27T12:39:35.872Z</time>
      </trkpt>
      <trkpt lat="42.24942" lon="18.90149">
        <ele>147.530978</ele>
        <time>2022-05-27T12:40:09.847Z</time>
      </trkpt>
      <trkpt lat="42.25221" lon="18.90012">
        <ele>136.224421</ele>
        <time>2022-05-27T12:40:47.871Z</time>
      </trkpt>
      <trkpt lat="42.25459" lon="18.9004">
        <ele>119.029769</ele>
        <time>2022-05-27T12:41:27.870Z</time>
      </trkpt>
      <trkpt lat="42.25587" lon="18.89812">
        <ele>111.779668</ele>
        <time>2022-05-27T12:42:05.862Z</time>
      </trkpt>
      <trkpt lat="42.25759" lon="18.89624">
        <ele>113.222507</ele>
        <time>2022-05-27T13:01:21.874Z</time>
      </trkpt>
      <trkpt lat="42.25995" lon="18.8975">
        <ele>105.425616</ele>
        <time>2022-05-27T13:02:01.866Z</time>
      </trkpt>
      <trkpt lat="42.26168" lon="18.89743">
        <ele>102.873908</ele>
        <time>2022-05-27T13:02:40.849Z</time>
      </trkpt>
      <trkpt lat="42.26345" lon="18.89599">
        <ele>112.205334</ele>
        <time>2022-05-27T13:03:48.863Z</time>
      </trkpt>
      <trkpt lat="42.2654" lon="18.89571">
        <ele>111.297969</ele>
        <time>2022-05-27T13:05:00.898Z</time>
      </trkpt>
      <trkpt lat="42.26742" lon="18.89488">
        <ele>98.582944</ele>
        <time>2022-05-27T13:05:31.871Z</time>
      </trkpt>
      <trkpt lat="42.26935" lon="18.89558">
        <ele>81.356263</ele>
        <time>2022-05-27T13:05:57.874Z</time>
      </trkpt>
      <trkpt lat="42.27002" lon="18.89247">
        <ele>66.110844</ele>
        <time>2022-05-27T13:06:24.844Z</time>
      </trkpt>
      <trkpt lat="42.27143" lon="18.89055">
        <ele>75.012823</ele>
        <time>2022-05-27T13:08:03.831Z</time>
      </trkpt>
      <trkpt lat="42.27358" lon="18.89135">
        <ele>72.416704</ele>
        <time>2022-05-27T13:09:02.834Z</time>
      </trkpt>
      <trkpt lat="42.27509" lon="18.88835">
        <ele>66.361375</ele>
        <time>2022-05-27T13:09:44.839Z</time>
      </trkpt>
      <trkpt lat="42.2764" lon="18.88658">
        <ele>75.99545</ele>
        <time>2022-05-27T13:11:49.838Z</time>
      </trkpt>
      <trkpt lat="42.27604" lon="18.88417">
        <ele>59.054482</ele>
        <time>2022-05-27T13:13:30.835Z</time>
      </trkpt>
      <trkpt lat="42.27764" lon="18.88084">
        <ele>45.225463</ele>
        <time>2022-05-27T13:19:20.858Z</time>
      </trkpt>
      <trkpt lat="42.27927" lon="18.88191">
        <ele>46.666004</ele>
        <time>2022-05-27T13:20:36.871Z</time>
      </trkpt>
      <trkpt lat="42.2805" lon="18.87986">
        <ele>50.925047</ele>
        <time>2022-05-27T13:22:11.926Z</time>
      </trkpt>
      <trkpt lat="42.28113" lon="18.87724">
        <ele>53.721081</ele>
        <time>2022-05-27T13:23:34.849Z</time>
      </trkpt>
      <trkpt lat="42.28146" lon="18.87465">
        <ele>47.689787</ele>
        <time>2022-05-27T13:24:35.832Z</time>
      </trkpt>
      <trkpt lat="42.28153" lon="18.87165">
        <ele>42.890576</ele>
        <time>2022-05-27T13:26:16.857Z</time>
      </trkpt>
      <trkpt lat="42.28145" lon="18.8691">
        <ele>43.301581</ele>
        <time>2022-05-27T13:27:25.885Z</time>
      </trkpt>
      <trkpt lat="42.28132" lon="18.86632">
        <ele>42.903158</ele>
        <time>2022-05-27T13:28:32.853Z</time>
      </trkpt>
      <trkpt lat="42.28178" lon="18.8646">
        <ele>46.659268</ele>
        <time>2022-05-27T13:29:55.891Z</time>
      </trkpt>
      <trkpt lat="42.28322" lon="18.86381">
        <ele>53.867628</ele>
        <time>2022-05-27T13:31:10.840Z</time>
      </trkpt>
      <trkpt lat="42.28372" lon="18.86165">
        <ele>59.050976</ele>
        <time>2022-05-27T13:33:01.833Z</time>
      </trkpt>
      <trkpt lat="42.28268" lon="18.85966">
        <ele>66.89641</ele>
        <time>2022-05-27T13:34:48.829Z</time>
      </trkpt>
      <trkpt lat="42.28342" lon="18.85716">
        <ele>71.474131</ele>
        <time>2022-05-27T13:36:08.845Z</time>
      </trkpt>
      <trkpt lat="42.28542" lon="18.85449">
        <ele>64.932411</ele>
        <time>2022-05-27T13:36:45.824Z</time>
      </trkpt>
      <trkpt lat="42.28692" lon="18.85196">
        <ele>49.837169</ele>
        <time>2022-05-27T13:37:24.832Z</time>
      </trkpt>
      <trkpt lat="42.28554" lon="18.85005">
        <ele>46.422957</ele>
        <time>2022-05-27T13:38:21.831Z</time>
      </trkpt>
      <trkpt lat="42.28547" lon="18.84711">
        <ele>47.038947</ele>
        <time>2022-05-27T13:39:14.838Z</time>
      </trkpt>
      <trkpt lat="42.28505" lon="18.84422">
        <ele>47.350351</ele>
        <time>2022-05-27T13:40:13.831Z</time>
      </trkpt>
      <trkpt lat="42.28443" lon="18.84121">
        <ele>47.432853</ele>
        <time>2022-05-27T13:41:15.825Z</time>
      </trkpt>
      <trkpt lat="42.28326" lon="18.83894">
        <ele>49.689897</ele>
        <time>2022-05-27T13:42:15.832Z</time>
      </trkpt>
      <trkpt lat="42.28281" lon="18.83788">
        <ele>49.689897</ele>
        <time>2022-05-27T13:44:22.050Z</time>
      </trkpt>
    </trkseg>
  </trk>
  <trk>
    <name><![CDATA[Tour d'Europe: étape 697]]></name>
    <extensions>
      <line xmlns="http://www.topografix.com/GPX/gpx_style/0/2">
        <color>008800</color>
        <width>4</width>
      </line>
    </extensions>
    <trkseg>
      <trkpt lat="42.06437" lon="19.50834">
        <ele>63.15614</ele>
        <time>2022-05-26T07:51:39.243Z</time>
      </trkpt>
      <trkpt lat="42.06471" lon="19.50842">
        <ele>63.583097</ele>
        <time>2022-05-26T07:57:14.237Z</time>
      </trkpt>
      <trkpt lat="42.06291" lon="19.5067">
        <ele>66.947285</ele>
        <time>2022-05-26T07:58:09.235Z</time>
      </trkpt>
      <trkpt lat="42.0612" lon="19.50511">
        <ele>66.791933</ele>
        <time>2022-05-26T07:58:52.238Z</time>
      </trkpt>
      <trkpt lat="42.0595" lon="19.50362">
        <ele>70.624549</ele>
        <time>2022-05-26T07:59:32.247Z</time>
      </trkpt>
      <trkpt lat="42.05775" lon="19.50212">
        <ele>75.400899</ele>
        <time>2022-05-26T08:00:20.305Z</time>
      </trkpt>
      <trkpt lat="42.05593" lon="19.50052">
        <ele>70.12126</ele>
        <time>2022-05-26T08:01:18.241Z</time>
      </trkpt>
      <trkpt lat="42.05441" lon="19.49863">
        <ele>66.61971</ele>
        <time>2022-05-26T08:02:05.233Z</time>
      </trkpt>
      <trkpt lat="42.05339" lon="19.49615">
        <ele>60.85957</ele>
        <time>2022-05-26T08:03:01.243Z</time>
      </trkpt>
      <trkpt lat="42.05235" lon="19.49379">
        <ele>54.269772</ele>
        <time>2022-05-26T08:03:43.237Z</time>
      </trkpt>
      <trkpt lat="42.05064" lon="19.49225">
        <ele>55.65904</ele>
        <time>2022-05-26T08:04:35.244Z</time>
      </trkpt>
      <trkpt lat="42.05107" lon="19.48969">
        <ele>54.68344</ele>
        <time>2022-05-26T08:05:49.272Z</time>
      </trkpt>
      <trkpt lat="42.04914" lon="19.48781">
        <ele>58.403801</ele>
        <time>2022-05-26T08:06:45.218Z</time>
      </trkpt>
      <trkpt lat="42.04736" lon="19.48641">
        <ele>57.374651</ele>
        <time>2022-05-26T08:07:25.243Z</time>
      </trkpt>
      <trkpt lat="42.04543" lon="19.48509">
        <ele>54.309109</ele>
        <time>2022-05-26T08:08:13.221Z</time>
      </trkpt>
      <trkpt lat="42.04344" lon="19.48353">
        <ele>53.321672</ele>
        <time>2022-05-26T08:08:53.242Z</time>
      </trkpt>
      <trkpt lat="42.04164" lon="19.48229">
        <ele>54.554231</ele>
        <time>2022-05-26T08:09:34.243Z</time>
      </trkpt>
      <trkpt lat="42.03962" lon="19.48153">
        <ele>53.97182</ele>
        <time>2022-05-26T08:10:14.244Z</time>
      </trkpt>
      <trkpt lat="42.03771" lon="19.48016">
        <ele>54.225201</ele>
        <time>2022-05-26T08:10:54.253Z</time>
      </trkpt>
      <trkpt lat="42.03583" lon="19.47878">
        <ele>53.596921</ele>
        <time>2022-05-26T08:11:34.233Z</time>
      </trkpt>
      <trkpt lat="42.03391" lon="19.47763">
        <ele>53.283945</ele>
        <time>2022-05-26T08:12:14.230Z</time>
      </trkpt>
      <trkpt lat="42.03219" lon="19.47558">
        <ele>57.099011</ele>
        <time>2022-05-26T08:12:54.279Z</time>
      </trkpt>
      <trkpt lat="42.03068" lon="19.47373">
        <ele>54.15462</ele>
        <time>2022-05-26T08:13:35.225Z</time>
      </trkpt>
      <trkpt lat="42.02905" lon="19.47201">
        <ele>54.513945</ele>
        <time>2022-05-26T08:14:21.235Z</time>
      </trkpt>
      <trkpt lat="42.0275" lon="19.47019">
        <ele>54.898734</ele>
        <time>2022-05-26T08:15:01.242Z</time>
      </trkpt>
      <trkpt lat="42.0255" lon="19.46869">
        <ele>58.442578</ele>
        <time>2022-05-26T08:15:52.240Z</time>
      </trkpt>
      <trkpt lat="42.02475" lon="19.46642">
        <ele>58.931336</ele>
        <time>2022-05-26T08:16:40.229Z</time>
      </trkpt>
      <trkpt lat="42.02485" lon="19.46362">
        <ele>59.851825</ele>
        <time>2022-05-26T08:17:31.237Z</time>
      </trkpt>
      <trkpt lat="42.02365" lon="19.46089">
        <ele>53.087293</ele>
        <time>2022-05-26T08:18:18.276Z</time>
      </trkpt>
      <trkpt lat="42.02201" lon="19.45863">
        <ele>51.704906</ele>
        <time>2022-05-26T08:19:01.228Z</time>
      </trkpt>
      <trkpt lat="42.0205" lon="19.4568">
        <ele>53.651906</ele>
        <time>2022-05-26T08:19:41.313Z</time>
      </trkpt>
      <trkpt lat="42.01865" lon="19.4551">
        <ele>54.797911</ele>
        <time>2022-05-26T08:20:21.237Z</time>
      </trkpt>
      <trkpt lat="42.01752" lon="19.45287">
        <ele>56.131613</ele>
        <time>2022-05-26T08:21:01.238Z</time>
      </trkpt>
      <trkpt lat="42.01693" lon="19.44999">
        <ele>58.952039</ele>
        <time>2022-05-26T08:21:49.239Z</time>
      </trkpt>
      <trkpt lat="42.01719" lon="19.44702">
        <ele>63.521773</ele>
        <time>2022-05-26T08:23:01.246Z</time>
      </trkpt>
      <trkpt lat="42.01649" lon="19.44448">
        <ele>61.576603</ele>
        <time>2022-05-26T08:23:56.238Z</time>
      </trkpt>
      <trkpt lat="42.01575" lon="19.4416">
        <ele>57.767622</ele>
        <time>2022-05-26T08:24:40.250Z</time>
      </trkpt>
      <trkpt lat="42.0157" lon="19.43895">
        <ele>58.416861</ele>
        <time>2022-05-26T08:25:22.269Z</time>
      </trkpt>
      <trkpt lat="42.0156" lon="19.43595">
        <ele>56.343159</ele>
        <time>2022-05-26T08:26:02.237Z</time>
      </trkpt>
      <trkpt lat="42.01526" lon="19.43288">
        <ele>53.653358</ele>
        <time>2022-05-26T08:26:42.235Z</time>
      </trkpt>
      <trkpt lat="42.0152" lon="19.42988">
        <ele>53.412948</ele>
        <time>2022-05-26T08:27:22.233Z</time>
      </trkpt>
      <trkpt lat="42.01541" lon="19.42727">
        <ele>53.539757</ele>
        <time>2022-05-26T08:28:07.232Z</time>
      </trkpt>
      <trkpt lat="42.01378" lon="19.42548">
        <ele>51.470485</ele>
        <time>2022-05-26T08:28:45.234Z</time>
      </trkpt>
      <trkpt lat="42.01222" lon="19.42374">
        <ele>52.540603</ele>
        <time>2022-05-26T08:29:25.244Z</time>
      </trkpt>
      <trkpt lat="42.01075" lon="19.42198">
        <ele>53.56405</ele>
        <time>2022-05-26T08:30:05.280Z</time>
      </trkpt>
      <trkpt lat="42.0104" lon="19.41928">
        <ele>54.961447</ele>
        <time>2022-05-26T08:30:53.226Z</time>
      </trkpt>
      <trkpt lat="42.01067" lon="19.41666">
        <ele>55.533857</ele>
        <time>2022-05-26T08:31:33.234Z</time>
      </trkpt>
      <trkpt lat="42.0111" lon="19.41409">
        <ele>55.43053</ele>
        <time>2022-05-26T08:32:14.236Z</time>
      </trkpt>
      <trkpt lat="42.01168" lon="19.4115">
        <ele>53.996012</ele>
        <time>2022-05-26T08:32:56.225Z</time>
      </trkpt>
      <trkpt lat="42.01229" lon="19.40882">
        <ele>53.267377</ele>
        <time>2022-05-26T08:33:36.214Z</time>
      </trkpt>
      <trkpt lat="42.01317" lon="19.40629">
        <ele>52.081896</ele>
        <time>2022-05-26T08:34:16.270Z</time>
      </trkpt>
      <trkpt lat="42.01416" lon="19.40353">
        <ele>51.724153</ele>
        <time>2022-05-26T08:35:08.273Z</time>
      </trkpt>
      <trkpt lat="42.01516" lon="19.40082">
        <ele>53.656395</ele>
        <time>2022-05-26T08:36:02.238Z</time>
      </trkpt>
      <trkpt lat="42.01652" lon="19.39872">
        <ele>58.007286</ele>
        <time>2022-05-26T08:37:11.224Z</time>
      </trkpt>
      <trkpt lat="42.01796" lon="19.3966">
        <ele>59.576094</ele>
        <time>2022-05-26T08:38:19.229Z</time>
      </trkpt>
      <trkpt lat="42.01822" lon="19.39365">
        <ele>56.654232</ele>
        <time>2022-05-26T08:38:59.243Z</time>
      </trkpt>
      <trkpt lat="42.01801" lon="19.39078">
        <ele>53.724206</ele>
        <time>2022-05-26T08:39:39.255Z</time>
      </trkpt>
      <trkpt lat="42.01817" lon="19.38787">
        <ele>53.102284</ele>
        <time>2022-05-26T08:40:19.220Z</time>
      </trkpt>
      <trkpt lat="42.01835" lon="19.38508">
        <ele>53.516196</ele>
        <time>2022-05-26T08:40:59.257Z</time>
      </trkpt>
      <trkpt lat="42.01958" lon="19.38327">
        <ele>53.42704</ele>
        <time>2022-05-26T08:41:37.261Z</time>
      </trkpt>
      <trkpt lat="42.02057" lon="19.38099">
        <ele>53.674769</ele>
        <time>2022-05-26T08:42:20.221Z</time>
      </trkpt>
      <trkpt lat="42.02092" lon="19.37838">
        <ele>52.044936</ele>
        <time>2022-05-26T08:43:00.277Z</time>
      </trkpt>
      <trkpt lat="42.01912" lon="19.37647">
        <ele>52.965322</ele>
        <time>2022-05-26T08:43:40.276Z</time>
      </trkpt>
      <trkpt lat="42.01753" lon="19.37429">
        <ele>54.972285</ele>
        <time>2022-05-26T08:44:20.230Z</time>
      </trkpt>
      <trkpt lat="42.01663" lon="19.3716">
        <ele>54.859569</ele>
        <time>2022-05-26T08:53:05.243Z</time>
      </trkpt>
      <trkpt lat="42.01601" lon="19.36886">
        <ele>50.161872</ele>
        <time>2022-05-26T08:53:53.226Z</time>
      </trkpt>
      <trkpt lat="42.0152" lon="19.3665">
        <ele>50.248939</ele>
        <time>2022-05-26T08:54:33.234Z</time>
      </trkpt>
      <trkpt lat="42.01412" lon="19.36442">
        <ele>53.56333</ele>
        <time>2022-05-26T08:55:13.239Z</time>
      </trkpt>
      <trkpt lat="42.01216" lon="19.36288">
        <ele>59.402661</ele>
        <time>2022-05-26T08:56:00.237Z</time>
      </trkpt>
      <trkpt lat="42.01112" lon="19.36032">
        <ele>53.885074</ele>
        <time>2022-05-26T08:56:47.236Z</time>
      </trkpt>
      <trkpt lat="42.01133" lon="19.3578">
        <ele>53.248168</ele>
        <time>2022-05-26T08:57:28.243Z</time>
      </trkpt>
      <trkpt lat="42.01274" lon="19.35618">
        <ele>56.288005</ele>
        <time>2022-05-26T08:58:27.234Z</time>
      </trkpt>
      <trkpt lat="42.01174" lon="19.35377">
        <ele>58.16887</ele>
        <time>2022-05-26T08:59:07.248Z</time>
      </trkpt>
      <trkpt lat="42.01053" lon="19.35147">
        <ele>62.416065</ele>
        <time>2022-05-26T09:00:10.214Z</time>
      </trkpt>
      <trkpt lat="42.00936" lon="19.34919">
        <ele>60.686291</ele>
        <time>2022-05-26T09:00:52.280Z</time>
      </trkpt>
      <trkpt lat="42.01012" lon="19.3466">
        <ele>58.061302</ele>
        <time>2022-05-26T09:01:39.250Z</time>
      </trkpt>
      <trkpt lat="42.01069" lon="19.34334">
        <ele>58.103628</ele>
        <time>2022-05-26T09:02:38.245Z</time>
      </trkpt>
      <trkpt lat="42.01094" lon="19.34044">
        <ele>61.657427</ele>
        <time>2022-05-26T09:03:34.225Z</time>
      </trkpt>
      <trkpt lat="42.01074" lon="19.33771">
        <ele>62.810314</ele>
        <time>2022-05-26T09:04:21.230Z</time>
      </trkpt>
      <trkpt lat="42.01117" lon="19.33487">
        <ele>65.159527</ele>
        <time>2022-05-26T09:05:19.275Z</time>
      </trkpt>
      <trkpt lat="42.012" lon="19.33268">
        <ele>67.859349</ele>
        <time>2022-05-26T09:06:19.263Z</time>
      </trkpt>
      <trkpt lat="42.01032" lon="19.33083">
        <ele>66.81518</ele>
        <time>2022-05-26T09:06:59.234Z</time>
      </trkpt>
      <trkpt lat="42.00858" lon="19.32972">
        <ele>66.51796</ele>
        <time>2022-05-26T09:07:39.234Z</time>
      </trkpt>
      <trkpt lat="42.0064" lon="19.32842">
        <ele>67.643791</ele>
        <time>2022-05-26T09:08:33.230Z</time>
      </trkpt>
      <trkpt lat="42.00526" lon="19.32626">
        <ele>74.430038</ele>
        <time>2022-05-26T09:09:52.239Z</time>
      </trkpt>
      <trkpt lat="42.0065" lon="19.32431">
        <ele>85.193829</ele>
        <time>2022-05-26T09:11:41.263Z</time>
      </trkpt>
      <trkpt lat="42.00758" lon="19.32176">
        <ele>82.619349</ele>
        <time>2022-05-26T09:12:40.235Z</time>
      </trkpt>
      <trkpt lat="42.00822" lon="19.31922">
        <ele>80.633882</ele>
        <time>2022-05-26T09:13:31.221Z</time>
      </trkpt>
      <trkpt lat="42.00906" lon="19.31683">
        <ele>84.04347</ele>
        <time>2022-05-26T09:14:13.239Z</time>
      </trkpt>
      <trkpt lat="42.01009" lon="19.31421">
        <ele>86.656099</ele>
        <time>2022-05-26T09:15:13.276Z</time>
      </trkpt>
      <trkpt lat="42.00926" lon="19.31159">
        <ele>84.052234</ele>
        <time>2022-05-26T09:16:03.277Z</time>
      </trkpt>
      <trkpt lat="42.00908" lon="19.30945">
        <ele>81.633438</ele>
        <time>2022-05-26T09:36:00.208Z</time>
      </trkpt>
      <trkpt lat="42.00771" lon="19.30798">
        <ele>81.311493</ele>
        <time>2022-05-26T09:36:39.218Z</time>
      </trkpt>
      <trkpt lat="42.00672" lon="19.30592">
        <ele>80.111196</ele>
        <time>2022-05-26T09:37:24.205Z</time>
      </trkpt>
      <trkpt lat="42.00487" lon="19.30499">
        <ele>80.008903</ele>
        <time>2022-05-26T09:38:04.209Z</time>
      </trkpt>
      <trkpt lat="42.00364" lon="19.30295">
        <ele>80.116165</ele>
        <time>2022-05-26T09:38:50.206Z</time>
      </trkpt>
      <trkpt lat="42.00305" lon="19.30017">
        <ele>83.087238</ele>
        <time>2022-05-26T09:39:39.216Z</time>
      </trkpt>
      <trkpt lat="42.00377" lon="19.29737">
        <ele>86.38905</ele>
        <time>2022-05-26T09:40:38.235Z</time>
      </trkpt>
      <trkpt lat="42.00525" lon="19.29526">
        <ele>87.907687</ele>
        <time>2022-05-26T09:41:38.226Z</time>
      </trkpt>
      <trkpt lat="42.0058" lon="19.29248">
        <ele>94.965321</ele>
        <time>2022-05-26T09:42:50.206Z</time>
      </trkpt>
      <trkpt lat="42.00668" lon="19.28984">
        <ele>96.61644</ele>
        <time>2022-05-26T09:43:49.207Z</time>
      </trkpt>
      <trkpt lat="42.00783" lon="19.28768">
        <ele>95.859275</ele>
        <time>2022-05-26T09:44:39.219Z</time>
      </trkpt>
      <trkpt lat="42.00873" lon="19.28493">
        <ele>98.747234</ele>
        <time>2022-05-26T09:45:32.216Z</time>
      </trkpt>
      <trkpt lat="42.0099" lon="19.28281">
        <ele>103.617107</ele>
        <time>2022-05-26T09:46:36.228Z</time>
      </trkpt>
      <trkpt lat="42.01036" lon="19.28029">
        <ele>116.348193</ele>
        <time>2022-05-26T09:48:18.204Z</time>
      </trkpt>
      <trkpt lat="42.01069" lon="19.27811">
        <ele>128.893208</ele>
        <time>2022-05-26T09:50:20.206Z</time>
      </trkpt>
      <trkpt lat="42.01196" lon="19.2761">
        <ele>132.676259</ele>
        <time>2022-05-26T09:51:52.211Z</time>
      </trkpt>
      <trkpt lat="42.01283" lon="19.27366">
        <ele>138.226025</ele>
        <time>2022-05-26T09:53:37.231Z</time>
      </trkpt>
      <trkpt lat="42.01334" lon="19.27128">
        <ele>141.470395</ele>
        <time>2022-05-26T09:55:13.209Z</time>
      </trkpt>
      <trkpt lat="42.01422" lon="19.26873">
        <ele>143.11272</ele>
        <time>2022-05-26T09:56:11.208Z</time>
      </trkpt>
      <trkpt lat="42.01506" lon="19.26616">
        <ele>143.414299</ele>
        <time>2022-05-26T09:57:07.216Z</time>
      </trkpt>
      <trkpt lat="42.01415" lon="19.26412">
        <ele>151.576872</ele>
        <time>2022-05-26T09:58:22.220Z</time>
      </trkpt>
      <trkpt lat="42.01391" lon="19.26149">
        <ele>160.030304</ele>
        <time>2022-05-26T10:00:00.212Z</time>
      </trkpt>
      <trkpt lat="42.01408" lon="19.25888">
        <ele>166.163084</ele>
        <time>2022-05-26T10:01:39.198Z</time>
      </trkpt>
      <trkpt lat="42.01461" lon="19.25624">
        <ele>173.010856</ele>
        <time>2022-05-26T10:03:18.205Z</time>
      </trkpt>
      <trkpt lat="42.01502" lon="19.25365">
        <ele>183.44507</ele>
        <time>2022-05-26T10:05:04.206Z</time>
      </trkpt>
      <trkpt lat="42.01502" lon="19.25108">
        <ele>192.164305</ele>
        <time>2022-05-26T10:06:40.212Z</time>
      </trkpt>
      <trkpt lat="42.01469" lon="19.24843">
        <ele>199.358307</ele>
        <time>2022-05-26T10:08:12.220Z</time>
      </trkpt>
      <trkpt lat="42.01571" lon="19.24623">
        <ele>206.64051</ele>
        <time>2022-05-26T10:10:05.255Z</time>
      </trkpt>
      <trkpt lat="42.01591" lon="19.24354">
        <ele>211.16897</ele>
        <time>2022-05-26T10:11:49.207Z</time>
      </trkpt>
      <trkpt lat="42.01607" lon="19.24075">
        <ele>214.057341</ele>
        <time>2022-05-26T10:13:28.231Z</time>
      </trkpt>
      <trkpt lat="42.01688" lon="19.23835">
        <ele>217.448865</ele>
        <time>2022-05-26T10:14:50.234Z</time>
      </trkpt>
      <trkpt lat="42.01755" lon="19.23588">
        <ele>226.854602</ele>
        <time>2022-05-26T10:16:41.227Z</time>
      </trkpt>
      <trkpt lat="42.01827" lon="19.23337">
        <ele>231.565312</ele>
        <time>2022-05-26T10:18:25.233Z</time>
      </trkpt>
      <trkpt lat="42.01889" lon="19.23072">
        <ele>232.969481</ele>
        <time>2022-05-26T10:19:30.229Z</time>
      </trkpt>
      <trkpt lat="42.01928" lon="19.22827">
        <ele>235.411412</ele>
        <time>2022-05-26T10:20:27.291Z</time>
      </trkpt>
      <trkpt lat="42.02006" lon="19.22584">
        <ele>239.21041</ele>
        <time>2022-05-26T10:22:00.219Z</time>
      </trkpt>
      <trkpt lat="42.02124" lon="19.22362">
        <ele>243.171387</ele>
        <time>2022-05-26T10:23:24.232Z</time>
      </trkpt>
      <trkpt lat="42.02225" lon="19.22118">
        <ele>247.809188</ele>
        <time>2022-05-26T10:24:41.237Z</time>
      </trkpt>
      <trkpt lat="42.02295" lon="19.21898">
        <ele>250.158226</ele>
        <time>2022-05-26T10:26:09.225Z</time>
      </trkpt>
      <trkpt lat="42.02399" lon="19.21652">
        <ele>253.52249</ele>
        <time>2022-05-26T10:27:24.244Z</time>
      </trkpt>
      <trkpt lat="42.02461" lon="19.21388">
        <ele>255.585223</ele>
        <time>2022-05-26T10:28:41.200Z</time>
      </trkpt>
      <trkpt lat="42.02527" lon="19.21125">
        <ele>261.502725</ele>
        <time>2022-05-26T10:30:04.211Z</time>
      </trkpt>
      <trkpt lat="42.02577" lon="19.20865">
        <ele>265.942446</ele>
        <time>2022-05-26T10:31:41.202Z</time>
      </trkpt>
      <trkpt lat="42.02543" lon="19.20599">
        <ele>268.609846</ele>
        <time>2022-05-26T10:33:14.200Z</time>
      </trkpt>
      <trkpt lat="42.02492" lon="19.20327">
        <ele>269.660519</ele>
        <time>2022-05-26T10:34:28.207Z</time>
      </trkpt>
      <trkpt lat="42.02429" lon="19.20045">
        <ele>268.931969</ele>
        <time>2022-05-26T10:35:30.213Z</time>
      </trkpt>
      <trkpt lat="42.02447" lon="19.19755">
        <ele>269.467803</ele>
        <time>2022-05-26T10:36:30.208Z</time>
      </trkpt>
      <trkpt lat="42.0243" lon="19.19476">
        <ele>268.455459</ele>
        <time>2022-05-26T10:37:30.211Z</time>
      </trkpt>
      <trkpt lat="42.0239" lon="19.19205">
        <ele>264.040362</ele>
        <time>2022-05-26T10:38:17.206Z</time>
      </trkpt>
      <trkpt lat="42.02433" lon="19.18932">
        <ele>263.413723</ele>
        <time>2022-05-26T10:39:05.208Z</time>
      </trkpt>
      <trkpt lat="42.0252" lon="19.18645">
        <ele>259.924994</ele>
        <time>2022-05-26T10:39:35.212Z</time>
      </trkpt>
      <trkpt lat="42.02631" lon="19.18376">
        <ele>253.828711</ele>
        <time>2022-05-26T10:40:26.210Z</time>
      </trkpt>
      <trkpt lat="42.02677" lon="19.18105">
        <ele>249.945652</ele>
        <time>2022-05-26T10:41:28.215Z</time>
      </trkpt>
      <trkpt lat="42.02785" lon="19.17864">
        <ele>247.144255</ele>
        <time>2022-05-26T10:42:12.206Z</time>
      </trkpt>
      <trkpt lat="42.0291" lon="19.17607">
        <ele>243.019435</ele>
        <time>2022-05-26T10:43:02.242Z</time>
      </trkpt>
      <trkpt lat="42.03085" lon="19.17462">
        <ele>242.753997</ele>
        <time>2022-05-26T10:43:47.224Z</time>
      </trkpt>
      <trkpt lat="42.0324" lon="19.17302">
        <ele>245.361541</ele>
        <time>2022-05-26T10:44:52.220Z</time>
      </trkpt>
      <trkpt lat="42.03374" lon="19.17116">
        <ele>245.841738</ele>
        <time>2022-05-26T10:49:03.212Z</time>
      </trkpt>
      <trkpt lat="42.03514" lon="19.1692">
        <ele>244.178348</ele>
        <time>2022-05-26T10:50:06.205Z</time>
      </trkpt>
      <trkpt lat="42.03703" lon="19.16713">
        <ele>241.386561</ele>
        <time>2022-05-26T10:51:05.203Z</time>
      </trkpt>
      <trkpt lat="42.03828" lon="19.16459">
        <ele>242.310062</ele>
        <time>2022-05-26T10:52:00.227Z</time>
      </trkpt>
      <trkpt lat="42.03921" lon="19.16228">
        <ele>243.348628</ele>
        <time>2022-05-26T10:52:59.215Z</time>
      </trkpt>
      <trkpt lat="42.04067" lon="19.16032">
        <ele>247.672185</ele>
        <time>2022-05-26T10:53:59.223Z</time>
      </trkpt>
      <trkpt lat="42.04156" lon="19.15791">
        <ele>250.16704</ele>
        <time>2022-05-26T10:55:08.229Z</time>
      </trkpt>
      <trkpt lat="42.04245" lon="19.15576">
        <ele>249.233981</ele>
        <time>2022-05-26T10:56:14.211Z</time>
      </trkpt>
      <trkpt lat="42.04318" lon="19.15311">
        <ele>250.985934</ele>
        <time>2022-05-26T10:57:16.220Z</time>
      </trkpt>
      <trkpt lat="42.04455" lon="19.15119">
        <ele>256.997046</ele>
        <time>2022-05-26T10:58:21.237Z</time>
      </trkpt>
      <trkpt lat="42.04596" lon="19.14937">
        <ele>257.935669</ele>
        <time>2022-05-26T10:59:27.216Z</time>
      </trkpt>
      <trkpt lat="42.04765" lon="19.14727">
        <ele>253.560132</ele>
        <time>2022-05-26T11:00:24.230Z</time>
      </trkpt>
      <trkpt lat="42.04828" lon="19.14426">
        <ele>240.518118</ele>
        <time>2022-05-26T11:01:04.211Z</time>
      </trkpt>
      <trkpt lat="42.05004" lon="19.14284">
        <ele>243.300415</ele>
        <time>2022-05-26T11:02:04.208Z</time>
      </trkpt>
      <trkpt lat="42.0521" lon="19.14148">
        <ele>244.810486</ele>
        <time>2022-05-26T11:02:57.213Z</time>
      </trkpt>
      <trkpt lat="42.05346" lon="19.13948">
        <ele>241.266429</ele>
        <time>2022-05-26T11:03:42.224Z</time>
      </trkpt>
      <trkpt lat="42.05485" lon="19.13728">
        <ele>236.212215</ele>
        <time>2022-05-26T11:07:31.198Z</time>
      </trkpt>
      <trkpt lat="42.05605" lon="19.13476">
        <ele>223.179674</ele>
        <time>2022-05-26T11:08:29.232Z</time>
      </trkpt>
      <trkpt lat="42.05593" lon="19.13239">
        <ele>204.293796</ele>
        <time>2022-05-26T11:09:18.210Z</time>
      </trkpt>
      <trkpt lat="42.05711" lon="19.13491">
        <ele>189.628444</ele>
        <time>2022-05-26T11:10:04.207Z</time>
      </trkpt>
      <trkpt lat="42.05898" lon="19.13546">
        <ele>178.905982</ele>
        <time>2022-05-26T11:10:50.204Z</time>
      </trkpt>
      <trkpt lat="42.06111" lon="19.13515">
        <ele>167.356207</ele>
        <time>2022-05-26T11:11:32.209Z</time>
      </trkpt>
      <trkpt lat="42.06287" lon="19.13397">
        <ele>155.304691</ele>
        <time>2022-05-26T11:12:17.205Z</time>
      </trkpt>
      <trkpt lat="42.06494" lon="19.13302">
        <ele>143.352956</ele>
        <time>2022-05-26T11:13:06.233Z</time>
      </trkpt>
      <trkpt lat="42.06714" lon="19.13317">
        <ele>127.552125</ele>
        <time>2022-05-26T11:13:50.207Z</time>
      </trkpt>
      <trkpt lat="42.06906" lon="19.13209">
        <ele>128.04053</ele>
        <time>2022-05-26T11:14:55.197Z</time>
      </trkpt>
      <trkpt lat="42.0708" lon="19.13117">
        <ele>127.768919</ele>
        <time>2022-05-26T11:15:52.203Z</time>
      </trkpt>
      <trkpt lat="42.07285" lon="19.13101">
        <ele>116.858763</ele>
        <time>2022-05-26T11:16:34.212Z</time>
      </trkpt>
      <trkpt lat="42.07426" lon="19.12988">
        <ele>105.869178</ele>
        <time>2022-05-26T11:17:15.203Z</time>
      </trkpt>
      <trkpt lat="42.07651" lon="19.12938">
        <ele>98.917686</ele>
        <time>2022-05-26T11:18:06.205Z</time>
      </trkpt>
      <trkpt lat="42.07829" lon="19.12971">
        <ele>93.425058</ele>
        <time>2022-05-26T11:18:55.197Z</time>
      </trkpt>
      <trkpt lat="42.08048" lon="19.12897">
        <ele>87.225162</ele>
        <time>2022-05-26T11:19:39.209Z</time>
      </trkpt>
      <trkpt lat="42.08243" lon="19.12954">
        <ele>86.713774</ele>
        <time>2022-05-26T11:20:22.202Z</time>
      </trkpt>
      <trkpt lat="42.08394" lon="19.13136">
        <ele>89.640775</ele>
        <time>2022-05-26T11:21:27.199Z</time>
      </trkpt>
      <trkpt lat="42.08567" lon="19.13111">
        <ele>89.136397</ele>
        <time>2022-05-26T11:22:24.208Z</time>
      </trkpt>
      <trkpt lat="42.08773" lon="19.13098">
        <ele>95.704128</ele>
        <time>2022-05-26T11:23:52.196Z</time>
      </trkpt>
      <trkpt lat="42.0893" lon="19.12948">
        <ele>104.808124</ele>
        <time>2022-05-26T11:25:29.205Z</time>
      </trkpt>
      <trkpt lat="42.08932" lon="19.12685">
        <ele>109.211615</ele>
        <time>2022-05-26T11:26:57.199Z</time>
      </trkpt>
      <trkpt lat="42.09089" lon="19.12542">
        <ele>111.196078</ele>
        <time>2022-05-26T11:28:05.208Z</time>
      </trkpt>
      <trkpt lat="42.09128" lon="19.12184">
        <ele>97.052207</ele>
        <time>2022-05-26T11:28:43.199Z</time>
      </trkpt>
      <trkpt lat="42.09231" lon="19.11907">
        <ele>88.961704</ele>
        <time>2022-05-26T11:29:31.196Z</time>
      </trkpt>
      <trkpt lat="42.09265" lon="19.11559">
        <ele>76.450323</ele>
        <time>2022-05-26T11:30:11.201Z</time>
      </trkpt>
      <trkpt lat="42.09259" lon="19.11261">
        <ele>63.249981</ele>
        <time>2022-05-26T11:30:54.214Z</time>
      </trkpt>
      <trkpt lat="42.09199" lon="19.11081">
        <ele>58.294233</ele>
        <time>2022-05-26T11:31:49.194Z</time>
      </trkpt>
      <trkpt lat="42.09223" lon="19.11027">
        <ele>60.760501</ele>
        <time>2022-05-26T11:32:36.207Z</time>
      </trkpt>
      <trkpt lat="42.09261" lon="19.10752">
        <ele>55.247987</ele>
        <time>2022-05-26T11:33:42.201Z</time>
      </trkpt>
      <trkpt lat="42.09308" lon="19.10368">
        <ele>43.67655</ele>
        <time>2022-05-26T11:34:22.197Z</time>
      </trkpt>
      <trkpt lat="42.09346" lon="19.10072">
        <ele>41.39004</ele>
        <time>2022-05-26T11:35:02.222Z</time>
      </trkpt>
      <trkpt lat="42.09389" lon="19.09818">
        <ele>43.108002</ele>
        <time>2022-05-26T11:35:44.230Z</time>
      </trkpt>
      <trkpt lat="42.09484" lon="19.0962">
        <ele>47.154497</ele>
        <time>2022-05-26T11:36:35.237Z</time>
      </trkpt>
      <trkpt lat="42.09618" lon="19.09443">
        <ele>47.469132</ele>
        <time>2022-05-26T11:37:38.241Z</time>
      </trkpt>
      <trkpt lat="42.09664" lon="19.09369">
        <ele>47.469132</ele>
        <time>2022-05-26T11:45:12.211Z</time>
      </trkpt>
    </trkseg>
  </trk>
  <trk>
    <name><![CDATA[Tour d'Europe: étape 686]]></name>
    <extensions>
      <line xmlns="http://www.topografix.com/GPX/gpx_style/0/2">
        <color>880000</color>
        <width>4</width>
      </line>
    </extensions>
    <trkseg>
      <trkpt lat="41.77565" lon="19.64264">
        <ele>45.968244</ele>
        <time>2022-05-15T08:00:20.882Z</time>
      </trkpt>
      <trkpt lat="41.77683" lon="19.64264">
        <ele>45.585753</ele>
        <time>2022-05-15T08:08:19.954Z</time>
      </trkpt>
      <trkpt lat="41.77921" lon="19.64273">
        <ele>44.29629</ele>
        <time>2022-05-15T08:09:22.957Z</time>
      </trkpt>
      <trkpt lat="41.78165" lon="19.64223">
        <ele>39.456595</ele>
        <time>2022-05-15T08:10:30.934Z</time>
      </trkpt>
      <trkpt lat="41.78406" lon="19.64136">
        <ele>39.434333</ele>
        <time>2022-05-15T08:16:42.914Z</time>
      </trkpt>
      <trkpt lat="41.78536" lon="19.64373">
        <ele>44.753651</ele>
        <time>2022-05-15T08:18:01.954Z</time>
      </trkpt>
      <trkpt lat="41.787" lon="19.64541">
        <ele>49.318507</ele>
        <time>2022-05-15T08:19:10.951Z</time>
      </trkpt>
      <trkpt lat="41.78923" lon="19.64652">
        <ele>46.200652</ele>
        <time>2022-05-15T08:20:18.988Z</time>
      </trkpt>
      <trkpt lat="41.78904" lon="19.6461">
        <ele>46.282693</ele>
        <time>2022-05-15T08:23:38.961Z</time>
      </trkpt>
      <trkpt lat="41.78685" lon="19.64492">
        <ele>50.346512</ele>
        <time>2022-05-15T08:25:04.988Z</time>
      </trkpt>
      <trkpt lat="41.78484" lon="19.64359">
        <ele>47.937365</ele>
        <time>2022-05-15T08:26:07.938Z</time>
      </trkpt>
      <trkpt lat="41.78275" lon="19.64371">
        <ele>49.341272</ele>
        <time>2022-05-15T08:27:19.950Z</time>
      </trkpt>
      <trkpt lat="41.78493" lon="19.64428">
        <ele>55.329881</ele>
        <time>2022-05-15T08:28:38.976Z</time>
      </trkpt>
      <trkpt lat="41.78668" lon="19.64587">
        <ele>61.722852</ele>
        <time>2022-05-15T08:30:07.960Z</time>
      </trkpt>
      <trkpt lat="41.78803" lon="19.64801">
        <ele>68.583983</ele>
        <time>2022-05-15T08:31:44.948Z</time>
      </trkpt>
      <trkpt lat="41.78871" lon="19.65088">
        <ele>70.871896</ele>
        <time>2022-05-15T08:32:49.969Z</time>
      </trkpt>
      <trkpt lat="41.79005" lon="19.65369">
        <ele>62.609876</ele>
        <time>2022-05-15T08:33:44.936Z</time>
      </trkpt>
      <trkpt lat="41.7918" lon="19.65571">
        <ele>59.441094</ele>
        <time>2022-05-15T08:34:45.936Z</time>
      </trkpt>
      <trkpt lat="41.7931" lon="19.65818">
        <ele>57.760277</ele>
        <time>2022-05-15T08:35:50.947Z</time>
      </trkpt>
      <trkpt lat="41.79528" lon="19.65906">
        <ele>51.113586</ele>
        <time>2022-05-15T08:36:38.949Z</time>
      </trkpt>
      <trkpt lat="41.79772" lon="19.65967">
        <ele>53.020279</ele>
        <time>2022-05-15T08:37:53.935Z</time>
      </trkpt>
      <trkpt lat="41.7998" lon="19.65913">
        <ele>56.715575</ele>
        <time>2022-05-15T08:39:12.948Z</time>
      </trkpt>
      <trkpt lat="41.80184" lon="19.65796">
        <ele>64.771614</ele>
        <time>2022-05-15T08:40:57.933Z</time>
      </trkpt>
      <trkpt lat="41.80381" lon="19.65747">
        <ele>71.338903</ele>
        <time>2022-05-15T08:42:31.921Z</time>
      </trkpt>
      <trkpt lat="41.80575" lon="19.65622">
        <ele>79.185095</ele>
        <time>2022-05-15T08:43:58.926Z</time>
      </trkpt>
      <trkpt lat="41.8079" lon="19.65607">
        <ele>76.701508</ele>
        <time>2022-05-15T08:45:20.918Z</time>
      </trkpt>
      <trkpt lat="41.80964" lon="19.65651">
        <ele>77.517997</ele>
        <time>2022-05-15T08:46:12.914Z</time>
      </trkpt>
      <trkpt lat="41.81177" lon="19.6552">
        <ele>74.483248</ele>
        <time>2022-05-15T08:47:00.918Z</time>
      </trkpt>
      <trkpt lat="41.81101" lon="19.65569">
        <ele>74.967669</ele>
        <time>2022-05-15T08:48:30.006Z</time>
      </trkpt>
      <trkpt lat="41.81045" lon="19.65348">
        <ele>59.999174</ele>
        <time>2022-05-15T08:49:31.919Z</time>
      </trkpt>
      <trkpt lat="41.81037" lon="19.65036">
        <ele>45.004457</ele>
        <time>2022-05-15T08:50:26.913Z</time>
      </trkpt>
      <trkpt lat="41.81015" lon="19.64693">
        <ele>43.258877</ele>
        <time>2022-05-15T08:51:32.926Z</time>
      </trkpt>
      <trkpt lat="41.81026" lon="19.64398">
        <ele>43.565719</ele>
        <time>2022-05-15T08:52:35.915Z</time>
      </trkpt>
      <trkpt lat="41.81293" lon="19.64354">
        <ele>39.959071</ele>
        <time>2022-05-15T08:53:40.942Z</time>
      </trkpt>
      <trkpt lat="41.81533" lon="19.64332">
        <ele>39.556748</ele>
        <time>2022-05-15T08:54:36.923Z</time>
      </trkpt>
      <trkpt lat="41.81775" lon="19.64369">
        <ele>39.578014</ele>
        <time>2022-05-15T08:55:35.931Z</time>
      </trkpt>
      <trkpt lat="41.81998" lon="19.6432">
        <ele>41.559263</ele>
        <time>2022-05-15T08:56:42.919Z</time>
      </trkpt>
      <trkpt lat="41.82145" lon="19.6424">
        <ele>45.43927</ele>
        <time>2022-05-15T08:57:57.920Z</time>
      </trkpt>
      <trkpt lat="41.82374" lon="19.64159">
        <ele>46.161182</ele>
        <time>2022-05-15T08:59:00.914Z</time>
      </trkpt>
      <trkpt lat="41.8259" lon="19.64027">
        <ele>43.581644</ele>
        <time>2022-05-15T08:59:51.929Z</time>
      </trkpt>
      <trkpt lat="41.82815" lon="19.63906">
        <ele>39.980762</ele>
        <time>2022-05-15T09:00:46.917Z</time>
      </trkpt>
      <trkpt lat="41.82961" lon="19.63861">
        <ele>42.977154</ele>
        <time>2022-05-15T09:01:53.946Z</time>
      </trkpt>
      <trkpt lat="41.83052" lon="19.63718">
        <ele>41.967682</ele>
        <time>2022-05-15T09:02:59.919Z</time>
      </trkpt>
      <trkpt lat="41.83246" lon="19.63558">
        <ele>44.859096</ele>
        <time>2022-05-15T09:04:02.918Z</time>
      </trkpt>
      <trkpt lat="41.83455" lon="19.63683">
        <ele>42.37358</ele>
        <time>2022-05-15T09:05:06.927Z</time>
      </trkpt>
      <trkpt lat="41.83673" lon="19.63517">
        <ele>40.995169</ele>
        <time>2022-05-15T09:06:08.922Z</time>
      </trkpt>
      <trkpt lat="41.83907" lon="19.63342">
        <ele>43.431838</ele>
        <time>2022-05-15T09:07:14.912Z</time>
      </trkpt>
      <trkpt lat="41.84063" lon="19.6311">
        <ele>44.162435</ele>
        <time>2022-05-15T09:08:17.924Z</time>
      </trkpt>
      <trkpt lat="41.83999" lon="19.62819">
        <ele>41.991263</ele>
        <time>2022-05-15T09:09:21.914Z</time>
      </trkpt>
      <trkpt lat="41.84204" lon="19.62659">
        <ele>41.139261</ele>
        <time>2022-05-15T09:10:22.921Z</time>
      </trkpt>
      <trkpt lat="41.84425" lon="19.62446">
        <ele>39.067384</ele>
        <time>2022-05-15T09:11:25.915Z</time>
      </trkpt>
      <trkpt lat="41.84626" lon="19.62232">
        <ele>41.318991</ele>
        <time>2022-05-15T09:12:26.910Z</time>
      </trkpt>
      <trkpt lat="41.84822" lon="19.61996">
        <ele>41.736927</ele>
        <time>2022-05-15T09:13:29.919Z</time>
      </trkpt>
      <trkpt lat="41.84986" lon="19.61759">
        <ele>42.21891</ele>
        <time>2022-05-15T09:14:27.914Z</time>
      </trkpt>
      <trkpt lat="41.85201" lon="19.61536">
        <ele>41.227399</ele>
        <time>2022-05-15T09:15:32.914Z</time>
      </trkpt>
      <trkpt lat="41.85405" lon="19.61382">
        <ele>43.374202</ele>
        <time>2022-05-15T09:16:28.914Z</time>
      </trkpt>
      <trkpt lat="41.85589" lon="19.61208">
        <ele>46.404622</ele>
        <time>2022-05-15T09:17:35.915Z</time>
      </trkpt>
      <trkpt lat="41.85796" lon="19.61063">
        <ele>48.530779</ele>
        <time>2022-05-15T09:18:36.912Z</time>
      </trkpt>
      <trkpt lat="41.8599" lon="19.60919">
        <ele>44.224344</ele>
        <time>2022-05-15T09:19:43.913Z</time>
      </trkpt>
      <trkpt lat="41.86183" lon="19.60748">
        <ele>45.411931</ele>
        <time>2022-05-15T09:20:37.916Z</time>
      </trkpt>
      <trkpt lat="41.86359" lon="19.60528">
        <ele>42.990578</ele>
        <time>2022-05-15T09:21:32.913Z</time>
      </trkpt>
      <trkpt lat="41.86543" lon="19.60285">
        <ele>42.410379</ele>
        <time>2022-05-15T09:22:33.911Z</time>
      </trkpt>
      <trkpt lat="41.86748" lon="19.60113">
        <ele>47.572438</ele>
        <time>2022-05-15T09:23:31.923Z</time>
      </trkpt>
      <trkpt lat="41.86958" lon="19.601">
        <ele>45.255277</ele>
        <time>2022-05-15T09:24:30.943Z</time>
      </trkpt>
      <trkpt lat="41.87179" lon="19.60184">
        <ele>45.087805</ele>
        <time>2022-05-15T09:25:25.944Z</time>
      </trkpt>
      <trkpt lat="41.87339" lon="19.59953">
        <ele>44.469444</ele>
        <time>2022-05-15T09:26:29.933Z</time>
      </trkpt>
      <trkpt lat="41.87496" lon="19.59715">
        <ele>44.759656</ele>
        <time>2022-05-15T09:27:32.947Z</time>
      </trkpt>
      <trkpt lat="41.87673" lon="19.59484">
        <ele>43.802638</ele>
        <time>2022-05-15T09:28:38.973Z</time>
      </trkpt>
      <trkpt lat="41.87787" lon="19.59223">
        <ele>45.156381</ele>
        <time>2022-05-15T09:29:41.945Z</time>
      </trkpt>
      <trkpt lat="41.87911" lon="19.58935">
        <ele>44.135184</ele>
        <time>2022-05-15T09:30:47.954Z</time>
      </trkpt>
      <trkpt lat="41.8804" lon="19.58673">
        <ele>42.759061</ele>
        <time>2022-05-15T09:31:50.927Z</time>
      </trkpt>
      <trkpt lat="41.88249" lon="19.58648">
        <ele>43.36354</ele>
        <time>2022-05-15T09:32:55.946Z</time>
      </trkpt>
      <trkpt lat="41.88346" lon="19.58374">
        <ele>41.098322</ele>
        <time>2022-05-15T09:33:57.976Z</time>
      </trkpt>
      <trkpt lat="41.88533" lon="19.58177">
        <ele>44.768316</ele>
        <time>2022-05-15T09:35:00.945Z</time>
      </trkpt>
      <trkpt lat="41.88736" lon="19.57979">
        <ele>42.045998</ele>
        <time>2022-05-15T09:36:06.951Z</time>
      </trkpt>
      <trkpt lat="41.8891" lon="19.5777">
        <ele>44.182331</ele>
        <time>2022-05-15T09:37:07.954Z</time>
      </trkpt>
      <trkpt lat="41.89091" lon="19.57551">
        <ele>43.578267</ele>
        <time>2022-05-15T09:38:19.945Z</time>
      </trkpt>
      <trkpt lat="41.8928" lon="19.57374">
        <ele>41.696269</ele>
        <time>2022-05-15T09:39:22.944Z</time>
      </trkpt>
      <trkpt lat="41.89505" lon="19.57249">
        <ele>42.356706</ele>
        <time>2022-05-15T09:40:28.944Z</time>
      </trkpt>
      <trkpt lat="41.89722" lon="19.57132">
        <ele>43.283901</ele>
        <time>2022-05-15T09:41:31.951Z</time>
      </trkpt>
      <trkpt lat="41.89952" lon="19.5699">
        <ele>45.029726</ele>
        <time>2022-05-15T09:42:37.951Z</time>
      </trkpt>
      <trkpt lat="41.90092" lon="19.56741">
        <ele>44.246614</ele>
        <time>2022-05-15T09:45:43.918Z</time>
      </trkpt>
      <trkpt lat="41.90199" lon="19.56528">
        <ele>45.937606</ele>
        <time>2022-05-15T09:46:50.911Z</time>
      </trkpt>
      <trkpt lat="41.90391" lon="19.56383">
        <ele>46.817611</ele>
        <time>2022-05-15T09:47:41.919Z</time>
      </trkpt>
      <trkpt lat="41.90581" lon="19.56164">
        <ele>48.315023</ele>
        <time>2022-05-15T09:48:40.008Z</time>
      </trkpt>
      <trkpt lat="41.9078" lon="19.56">
        <ele>50.396994</ele>
        <time>2022-05-15T09:49:31.941Z</time>
      </trkpt>
      <trkpt lat="41.91028" lon="19.5595">
        <ele>47.354209</ele>
        <time>2022-05-15T09:50:27.938Z</time>
      </trkpt>
      <trkpt lat="41.91262" lon="19.55988">
        <ele>45.416494</ele>
        <time>2022-05-15T09:51:21.984Z</time>
      </trkpt>
      <trkpt lat="41.91488" lon="19.56049">
        <ele>45.452728</ele>
        <time>2022-05-15T09:52:14.913Z</time>
      </trkpt>
      <trkpt lat="41.91703" lon="19.5625">
        <ele>45.867137</ele>
        <time>2022-05-15T09:53:14.913Z</time>
      </trkpt>
      <trkpt lat="41.91936" lon="19.56324">
        <ele>46.820077</ele>
        <time>2022-05-15T09:54:14.910Z</time>
      </trkpt>
      <trkpt lat="41.92202" lon="19.5635">
        <ele>47.360954</ele>
        <time>2022-05-15T09:55:20.922Z</time>
      </trkpt>
      <trkpt lat="41.92431" lon="19.5625">
        <ele>48.498849</ele>
        <time>2022-05-15T09:56:17.909Z</time>
      </trkpt>
      <trkpt lat="41.92574" lon="19.5599">
        <ele>45.402485</ele>
        <time>2022-05-15T09:57:22.925Z</time>
      </trkpt>
      <trkpt lat="41.92618" lon="19.55695">
        <ele>46.571804</ele>
        <time>2022-05-15T10:22:10.986Z</time>
      </trkpt>
      <trkpt lat="41.9268" lon="19.55384">
        <ele>47.218426</ele>
        <time>2022-05-15T10:23:16.954Z</time>
      </trkpt>
      <trkpt lat="41.92837" lon="19.55157">
        <ele>46.664413</ele>
        <time>2022-05-15T10:24:19.923Z</time>
      </trkpt>
      <trkpt lat="41.9305" lon="19.55001">
        <ele>50.126321</ele>
        <time>2022-05-15T10:25:25.945Z</time>
      </trkpt>
      <trkpt lat="41.9329" lon="19.54883">
        <ele>46.026345</ele>
        <time>2022-05-15T10:26:28.944Z</time>
      </trkpt>
      <trkpt lat="41.93501" lon="19.54704">
        <ele>44.916423</ele>
        <time>2022-05-15T10:27:28.963Z</time>
      </trkpt>
      <trkpt lat="41.93716" lon="19.54539">
        <ele>44.692054</ele>
        <time>2022-05-15T10:28:28.933Z</time>
      </trkpt>
      <trkpt lat="41.93865" lon="19.54319">
        <ele>47.385786</ele>
        <time>2022-05-15T10:29:34.941Z</time>
      </trkpt>
      <trkpt lat="41.9396" lon="19.54048">
        <ele>48.219679</ele>
        <time>2022-05-15T10:30:30.013Z</time>
      </trkpt>
      <trkpt lat="41.94022" lon="19.53772">
        <ele>48.502104</ele>
        <time>2022-05-15T10:31:17.930Z</time>
      </trkpt>
      <trkpt lat="41.94132" lon="19.53512">
        <ele>51.436753</ele>
        <time>2022-05-15T10:32:25.946Z</time>
      </trkpt>
      <trkpt lat="41.94368" lon="19.53456">
        <ele>48.853761</ele>
        <time>2022-05-15T10:33:22.943Z</time>
      </trkpt>
      <trkpt lat="41.94618" lon="19.53353">
        <ele>48.921268</ele>
        <time>2022-05-15T10:34:27.951Z</time>
      </trkpt>
      <trkpt lat="41.94848" lon="19.53176">
        <ele>49.306461</ele>
        <time>2022-05-15T10:35:30.948Z</time>
      </trkpt>
      <trkpt lat="41.9507" lon="19.53002">
        <ele>50.021443</ele>
        <time>2022-05-15T10:36:29.961Z</time>
      </trkpt>
      <trkpt lat="41.95289" lon="19.52883">
        <ele>51.246256</ele>
        <time>2022-05-15T10:37:31.943Z</time>
      </trkpt>
      <trkpt lat="41.95495" lon="19.53054">
        <ele>53.211016</ele>
        <time>2022-05-15T10:38:37.930Z</time>
      </trkpt>
      <trkpt lat="41.95678" lon="19.53238">
        <ele>54.927266</ele>
        <time>2022-05-15T10:39:42.927Z</time>
      </trkpt>
      <trkpt lat="41.95884" lon="19.53368">
        <ele>58.055201</ele>
        <time>2022-05-15T10:40:49.962Z</time>
      </trkpt>
      <trkpt lat="41.96021" lon="19.53594">
        <ele>58.851833</ele>
        <time>2022-05-15T10:41:34.924Z</time>
      </trkpt>
      <trkpt lat="41.96034" lon="19.5382">
        <ele>53.56619</ele>
        <time>2022-05-15T10:43:50.921Z</time>
      </trkpt>
      <trkpt lat="41.96161" lon="19.53677">
        <ele>57.496928</ele>
        <time>2022-05-15T10:45:04.936Z</time>
      </trkpt>
      <trkpt lat="41.96391" lon="19.53765">
        <ele>54.782126</ele>
        <time>2022-05-15T10:46:10.907Z</time>
      </trkpt>
      <trkpt lat="41.96638" lon="19.53862">
        <ele>55.65728</ele>
        <time>2022-05-15T10:47:13.914Z</time>
      </trkpt>
      <trkpt lat="41.96904" lon="19.53942">
        <ele>56.01846</ele>
        <time>2022-05-15T10:48:19.938Z</time>
      </trkpt>
      <trkpt lat="41.97147" lon="19.5404">
        <ele>56.584847</ele>
        <time>2022-05-15T10:49:20.906Z</time>
      </trkpt>
      <trkpt lat="41.97306" lon="19.54254">
        <ele>55.941646</ele>
        <time>2022-05-15T10:50:12.913Z</time>
      </trkpt>
      <trkpt lat="41.97523" lon="19.54379">
        <ele>54.049205</ele>
        <time>2022-05-15T10:51:06.922Z</time>
      </trkpt>
      <trkpt lat="41.97747" lon="19.54383">
        <ele>53.313173</ele>
        <time>2022-05-15T10:51:59.907Z</time>
      </trkpt>
      <trkpt lat="41.98011" lon="19.54362">
        <ele>51.995151</ele>
        <time>2022-05-15T10:53:02.915Z</time>
      </trkpt>
      <trkpt lat="41.98219" lon="19.54254">
        <ele>52.067011</ele>
        <time>2022-05-15T10:54:24.911Z</time>
      </trkpt>
      <trkpt lat="41.98435" lon="19.54082">
        <ele>52.51796</ele>
        <time>2022-05-15T10:55:29.911Z</time>
      </trkpt>
      <trkpt lat="41.98636" lon="19.53894">
        <ele>48.99079</ele>
        <time>2022-05-15T10:56:31.908Z</time>
      </trkpt>
      <trkpt lat="41.98811" lon="19.53663">
        <ele>50.809222</ele>
        <time>2022-05-15T10:57:37.905Z</time>
      </trkpt>
      <trkpt lat="41.99028" lon="19.53551">
        <ele>51.681478</ele>
        <time>2022-05-15T10:58:40.964Z</time>
      </trkpt>
      <trkpt lat="41.99219" lon="19.53397">
        <ele>53.028702</ele>
        <time>2022-05-15T10:59:54.973Z</time>
      </trkpt>
      <trkpt lat="41.99404" lon="19.53185">
        <ele>51.034117</ele>
        <time>2022-05-15T11:00:56.915Z</time>
      </trkpt>
      <trkpt lat="41.99555" lon="19.52943">
        <ele>50.923074</ele>
        <time>2022-05-15T11:01:48.931Z</time>
      </trkpt>
      <trkpt lat="41.99741" lon="19.52717">
        <ele>51.059299</ele>
        <time>2022-05-15T11:02:46.914Z</time>
      </trkpt>
      <trkpt lat="41.99963" lon="19.52524">
        <ele>50.660726</ele>
        <time>2022-05-15T11:03:47.903Z</time>
      </trkpt>
      <trkpt lat="42.00179" lon="19.52416">
        <ele>49.502778</ele>
        <time>2022-05-15T11:04:39.910Z</time>
      </trkpt>
      <trkpt lat="42.00425" lon="19.52319">
        <ele>48.464545</ele>
        <time>2022-05-15T11:05:37.932Z</time>
      </trkpt>
      <trkpt lat="42.00687" lon="19.52231">
        <ele>47.42074</ele>
        <time>2022-05-15T11:06:39.931Z</time>
      </trkpt>
      <trkpt lat="42.00902" lon="19.52066">
        <ele>47.737659</ele>
        <time>2022-05-15T11:07:37.943Z</time>
      </trkpt>
      <trkpt lat="42.0109" lon="19.51836">
        <ele>49.419057</ele>
        <time>2022-05-15T11:08:35.939Z</time>
      </trkpt>
      <trkpt lat="42.01298" lon="19.51691">
        <ele>49.996253</ele>
        <time>2022-05-15T11:09:38.960Z</time>
      </trkpt>
      <trkpt lat="42.01535" lon="19.51672">
        <ele>53.050995</ele>
        <time>2022-05-15T11:10:59.932Z</time>
      </trkpt>
      <trkpt lat="42.01791" lon="19.51692">
        <ele>57.139612</ele>
        <time>2022-05-15T11:12:06.945Z</time>
      </trkpt>
      <trkpt lat="42.02041" lon="19.51769">
        <ele>52.559106</ele>
        <time>2022-05-15T11:12:55.950Z</time>
      </trkpt>
      <trkpt lat="42.02262" lon="19.51824">
        <ele>50.115084</ele>
        <time>2022-05-15T11:13:44.941Z</time>
      </trkpt>
      <trkpt lat="42.02513" lon="19.51884">
        <ele>51.931198</ele>
        <time>2022-05-15T11:14:50.936Z</time>
      </trkpt>
      <trkpt lat="42.02661" lon="19.5168">
        <ele>50.196067</ele>
        <time>2022-05-15T11:15:39.944Z</time>
      </trkpt>
      <trkpt lat="42.02768" lon="19.51422">
        <ele>49.500257</ele>
        <time>2022-05-15T11:16:27.943Z</time>
      </trkpt>
      <trkpt lat="42.02919" lon="19.51187">
        <ele>51.14138</ele>
        <time>2022-05-15T11:17:19.951Z</time>
      </trkpt>
      <trkpt lat="42.03082" lon="19.50909">
        <ele>49.147057</ele>
        <time>2022-05-15T11:18:20.939Z</time>
      </trkpt>
      <trkpt lat="42.03154" lon="19.50623">
        <ele>48.332</ele>
        <time>2022-05-15T11:19:10.941Z</time>
      </trkpt>
      <trkpt lat="42.03193" lon="19.50348">
        <ele>47.40361</ele>
        <time>2022-05-15T11:19:53.932Z</time>
      </trkpt>
      <trkpt lat="42.03392" lon="19.50149">
        <ele>52.644758</ele>
        <time>2022-05-15T11:20:48.965Z</time>
      </trkpt>
      <trkpt lat="42.03589" lon="19.49973">
        <ele>54.711419</ele>
        <time>2022-05-15T11:21:41.938Z</time>
      </trkpt>
      <trkpt lat="42.03809" lon="19.49756">
        <ele>51.624817</ele>
        <time>2022-05-15T11:22:45.961Z</time>
      </trkpt>
      <trkpt lat="42.03981" lon="19.49549">
        <ele>51.327107</ele>
        <time>2022-05-15T11:23:37.966Z</time>
      </trkpt>
      <trkpt lat="42.04158" lon="19.4932">
        <ele>50.068434</ele>
        <time>2022-05-15T11:24:37.942Z</time>
      </trkpt>
      <trkpt lat="42.04325" lon="19.49123">
        <ele>51.733099</ele>
        <time>2022-05-15T11:25:42.978Z</time>
      </trkpt>
      <trkpt lat="42.04397" lon="19.49361">
        <ele>53.642997</ele>
        <time>2022-05-15T11:26:51.925Z</time>
      </trkpt>
      <trkpt lat="42.04524" lon="19.49602">
        <ele>51.564341</ele>
        <time>2022-05-15T11:27:59.909Z</time>
      </trkpt>
      <trkpt lat="42.04696" lon="19.49801">
        <ele>48.894691</ele>
        <time>2022-05-15T11:29:11.914Z</time>
      </trkpt>
      <trkpt lat="42.0474" lon="19.49884">
        <ele>56.979986</ele>
        <time>2022-05-15T11:49:59.934Z</time>
      </trkpt>
      <trkpt lat="42.04846" lon="19.49638">
        <ele>67.15912</ele>
        <time>2022-05-15T11:52:30.927Z</time>
      </trkpt>
      <trkpt lat="42.05054" lon="19.49526">
        <ele>51.410073</ele>
        <time>2022-05-15T11:53:30.005Z</time>
      </trkpt>
      <trkpt lat="42.05264" lon="19.49662">
        <ele>45.173701</ele>
        <time>2022-05-15T11:54:29.915Z</time>
      </trkpt>
      <trkpt lat="42.05419" lon="19.49901">
        <ele>43.545068</ele>
        <time>2022-05-15T11:55:33.962Z</time>
      </trkpt>
      <trkpt lat="42.05628" lon="19.50068">
        <ele>59.060614</ele>
        <time>2022-05-15T11:56:40.953Z</time>
      </trkpt>
      <trkpt lat="42.05805" lon="19.50251">
        <ele>61.280033</ele>
        <time>2022-05-15T11:57:32.934Z</time>
      </trkpt>
      <trkpt lat="42.06012" lon="19.50427">
        <ele>53.797725</ele>
        <time>2022-05-15T11:58:35.920Z</time>
      </trkpt>
      <trkpt lat="42.06219" lon="19.50611">
        <ele>55.435767</ele>
        <time>2022-05-15T11:59:41.915Z</time>
      </trkpt>
      <trkpt lat="42.0641" lon="19.50788">
        <ele>60.139302</ele>
        <time>2022-05-15T12:00:44.933Z</time>
      </trkpt>
      <trkpt lat="42.06602" lon="19.50993">
        <ele>54.568605</ele>
        <time>2022-05-15T12:01:50.951Z</time>
      </trkpt>
      <trkpt lat="42.06779" lon="19.51183">
        <ele>57.536818</ele>
        <time>2022-05-15T12:02:51.915Z</time>
      </trkpt>
      <trkpt lat="42.06716" lon="19.51101">
        <ele>55.39071</ele>
        <time>2022-05-15T12:05:31.988Z</time>
      </trkpt>
      <trkpt lat="42.06535" lon="19.50911">
        <ele>50.982333</ele>
        <time>2022-05-15T12:06:25.912Z</time>
      </trkpt>
      <trkpt lat="42.06439" lon="19.5085">
        <ele>50.776767</ele>
        <time>2022-05-15T12:11:32.873Z</time>
      </trkpt>
    </trkseg>
  </trk>
  <trk>
    <name><![CDATA[Tour d'Europe: étape 685]]></name>
    <extensions>
      <line xmlns="http://www.topografix.com/GPX/gpx_style/0/2">
        <color>008888</color>
        <width>4</width>
      </line>
    </extensions>
    <trkseg>
      <trkpt lat="41.32614" lon="19.80579">
        <ele>147.541142</ele>
        <time>2022-05-14T08:21:05.097Z</time>
      </trkpt>
      <trkpt lat="41.32663" lon="19.80619">
        <ele>148.071248</ele>
        <time>2022-05-14T08:21:45.086Z</time>
      </trkpt>
      <trkpt lat="41.3274" lon="19.80879">
        <ele>155.788562</ele>
        <time>2022-05-14T08:22:47.075Z</time>
      </trkpt>
      <trkpt lat="41.32839" lon="19.81149">
        <ele>156.579294</ele>
        <time>2022-05-14T08:23:59.068Z</time>
      </trkpt>
      <trkpt lat="41.33032" lon="19.81206">
        <ele>156.135955</ele>
        <time>2022-05-14T08:25:10.068Z</time>
      </trkpt>
      <trkpt lat="41.33123" lon="19.80958">
        <ele>156.303049</ele>
        <time>2022-05-14T08:26:01.102Z</time>
      </trkpt>
      <trkpt lat="41.3321" lon="19.80696">
        <ele>152.614841</ele>
        <time>2022-05-14T08:26:48.124Z</time>
      </trkpt>
      <trkpt lat="41.3334" lon="19.80512">
        <ele>142.491226</ele>
        <time>2022-05-14T08:27:44.063Z</time>
      </trkpt>
      <trkpt lat="41.33529" lon="19.80537">
        <ele>145.940548</ele>
        <time>2022-05-14T08:29:13.073Z</time>
      </trkpt>
      <trkpt lat="41.33725" lon="19.80421">
        <ele>143.942457</ele>
        <time>2022-05-14T08:29:58.097Z</time>
      </trkpt>
      <trkpt lat="41.33934" lon="19.80277">
        <ele>140.419919</ele>
        <time>2022-05-14T08:31:00.059Z</time>
      </trkpt>
      <trkpt lat="41.34139" lon="19.80146">
        <ele>149.350598</ele>
        <time>2022-05-14T08:31:52.099Z</time>
      </trkpt>
      <trkpt lat="41.34237" lon="19.79922">
        <ele>152.983788</ele>
        <time>2022-05-14T08:32:48.158Z</time>
      </trkpt>
      <trkpt lat="41.34349" lon="19.79784">
        <ele>138.632586</ele>
        <time>2022-05-14T08:33:50.080Z</time>
      </trkpt>
      <trkpt lat="41.34495" lon="19.79706">
        <ele>133.427698</ele>
        <time>2022-05-14T08:35:18.084Z</time>
      </trkpt>
      <trkpt lat="41.34666" lon="19.79796">
        <ele>128.088604</ele>
        <time>2022-05-14T08:36:22.106Z</time>
      </trkpt>
      <trkpt lat="41.34853" lon="19.79719">
        <ele>124.827186</ele>
        <time>2022-05-14T08:40:10.054Z</time>
      </trkpt>
      <trkpt lat="41.34987" lon="19.79595">
        <ele>123.535517</ele>
        <time>2022-05-14T08:41:55.039Z</time>
      </trkpt>
      <trkpt lat="41.35068" lon="19.79311">
        <ele>120.811636</ele>
        <time>2022-05-14T08:42:37.048Z</time>
      </trkpt>
      <trkpt lat="41.35134" lon="19.79051">
        <ele>125.1474</ele>
        <time>2022-05-14T08:43:28.064Z</time>
      </trkpt>
      <trkpt lat="41.35199" lon="19.78766">
        <ele>124.891496</ele>
        <time>2022-05-14T08:44:18.082Z</time>
      </trkpt>
      <trkpt lat="41.3518" lon="19.78483">
        <ele>120.477588</ele>
        <time>2022-05-14T08:45:00.052Z</time>
      </trkpt>
      <trkpt lat="41.35248" lon="19.78212">
        <ele>120.954836</ele>
        <time>2022-05-14T08:45:48.075Z</time>
      </trkpt>
      <trkpt lat="41.35309" lon="19.7794">
        <ele>117.010652</ele>
        <time>2022-05-14T08:46:33.066Z</time>
      </trkpt>
      <trkpt lat="41.35411" lon="19.77684">
        <ele>115.700159</ele>
        <time>2022-05-14T08:47:22.074Z</time>
      </trkpt>
      <trkpt lat="41.35559" lon="19.7746">
        <ele>118.378576</ele>
        <time>2022-05-14T08:49:22.074Z</time>
      </trkpt>
      <trkpt lat="41.35751" lon="19.77385">
        <ele>129.633131</ele>
        <time>2022-05-14T08:50:48.072Z</time>
      </trkpt>
      <trkpt lat="41.35928" lon="19.77259">
        <ele>135.829639</ele>
        <time>2022-05-14T08:52:06.066Z</time>
      </trkpt>
      <trkpt lat="41.36135" lon="19.77203">
        <ele>133.207352</ele>
        <time>2022-05-14T08:53:16.074Z</time>
      </trkpt>
      <trkpt lat="41.36383" lon="19.77159">
        <ele>122.099342</ele>
        <time>2022-05-14T08:54:03.093Z</time>
      </trkpt>
      <trkpt lat="41.36618" lon="19.77031">
        <ele>111.080281</ele>
        <time>2022-05-14T08:54:44.062Z</time>
      </trkpt>
      <trkpt lat="41.36804" lon="19.76933">
        <ele>104.018822</ele>
        <time>2022-05-14T08:55:29.071Z</time>
      </trkpt>
      <trkpt lat="41.37001" lon="19.76822">
        <ele>102.948293</ele>
        <time>2022-05-14T08:56:17.076Z</time>
      </trkpt>
      <trkpt lat="41.37203" lon="19.76705">
        <ele>101.475838</ele>
        <time>2022-05-14T08:57:14.085Z</time>
      </trkpt>
      <trkpt lat="41.37419" lon="19.76582">
        <ele>105.655431</ele>
        <time>2022-05-14T09:01:08.146Z</time>
      </trkpt>
      <trkpt lat="41.37636" lon="19.76459">
        <ele>108.596053</ele>
        <time>2022-05-14T09:02:04.102Z</time>
      </trkpt>
      <trkpt lat="41.37852" lon="19.76328">
        <ele>112.471561</ele>
        <time>2022-05-14T09:02:53.051Z</time>
      </trkpt>
      <trkpt lat="41.38051" lon="19.76222">
        <ele>109.465136</ele>
        <time>2022-05-14T09:03:38.067Z</time>
      </trkpt>
      <trkpt lat="41.38251" lon="19.76111">
        <ele>103.788407</ele>
        <time>2022-05-14T09:05:09.069Z</time>
      </trkpt>
      <trkpt lat="41.38442" lon="19.75994">
        <ele>105.875785</ele>
        <time>2022-05-14T09:06:10.062Z</time>
      </trkpt>
      <trkpt lat="41.38662" lon="19.75864">
        <ele>107.891321</ele>
        <time>2022-05-14T09:07:03.095Z</time>
      </trkpt>
      <trkpt lat="41.38858" lon="19.75763">
        <ele>97.951097</ele>
        <time>2022-05-14T09:07:49.078Z</time>
      </trkpt>
      <trkpt lat="41.39071" lon="19.75642">
        <ele>95.900043</ele>
        <time>2022-05-14T09:08:41.111Z</time>
      </trkpt>
      <trkpt lat="41.39256" lon="19.75538">
        <ele>91.047154</ele>
        <time>2022-05-14T09:09:24.085Z</time>
      </trkpt>
      <trkpt lat="41.39452" lon="19.75426">
        <ele>91.845689</ele>
        <time>2022-05-14T09:10:10.080Z</time>
      </trkpt>
      <trkpt lat="41.39641" lon="19.75319">
        <ele>89.372091</ele>
        <time>2022-05-14T09:10:52.084Z</time>
      </trkpt>
      <trkpt lat="41.39831" lon="19.7521">
        <ele>86.871699</ele>
        <time>2022-05-14T09:11:32.098Z</time>
      </trkpt>
      <trkpt lat="41.40029" lon="19.75096">
        <ele>86.366985</ele>
        <time>2022-05-14T09:12:14.055Z</time>
      </trkpt>
      <trkpt lat="41.40217" lon="19.74988">
        <ele>85.914975</ele>
        <time>2022-05-14T09:12:54.062Z</time>
      </trkpt>
      <trkpt lat="41.404" lon="19.74887">
        <ele>84.161586</ele>
        <time>2022-05-14T09:13:34.066Z</time>
      </trkpt>
      <trkpt lat="41.40583" lon="19.74759">
        <ele>84.195579</ele>
        <time>2022-05-14T09:14:14.104Z</time>
      </trkpt>
      <trkpt lat="41.40764" lon="19.74622">
        <ele>82.417202</ele>
        <time>2022-05-14T09:14:56.110Z</time>
      </trkpt>
      <trkpt lat="41.40934" lon="19.74496">
        <ele>81.058922</ele>
        <time>2022-05-14T09:15:36.099Z</time>
      </trkpt>
      <trkpt lat="41.41125" lon="19.74404">
        <ele>80.033633</ele>
        <time>2022-05-14T09:16:16.058Z</time>
      </trkpt>
      <trkpt lat="41.41315" lon="19.74335">
        <ele>80.820471</ele>
        <time>2022-05-14T09:16:56.087Z</time>
      </trkpt>
      <trkpt lat="41.41515" lon="19.74256">
        <ele>78.902421</ele>
        <time>2022-05-14T09:17:41.150Z</time>
      </trkpt>
      <trkpt lat="41.41709" lon="19.74179">
        <ele>77.774757</ele>
        <time>2022-05-14T09:18:23.076Z</time>
      </trkpt>
      <trkpt lat="41.41903" lon="19.74103">
        <ele>76.531012</ele>
        <time>2022-05-14T09:19:03.122Z</time>
      </trkpt>
      <trkpt lat="41.42103" lon="19.74024">
        <ele>75.502882</ele>
        <time>2022-05-14T09:19:46.065Z</time>
      </trkpt>
      <trkpt lat="41.42296" lon="19.73945">
        <ele>73.028165</ele>
        <time>2022-05-14T09:20:26.094Z</time>
      </trkpt>
      <trkpt lat="41.42484" lon="19.73869">
        <ele>72.407131</ele>
        <time>2022-05-14T09:21:06.078Z</time>
      </trkpt>
      <trkpt lat="41.42674" lon="19.73792">
        <ele>71.901913</ele>
        <time>2022-05-14T09:21:46.086Z</time>
      </trkpt>
      <trkpt lat="41.42874" lon="19.73713">
        <ele>73.869801</ele>
        <time>2022-05-14T09:22:28.070Z</time>
      </trkpt>
      <trkpt lat="41.43067" lon="19.73634">
        <ele>74.323433</ele>
        <time>2022-05-14T09:23:12.065Z</time>
      </trkpt>
      <trkpt lat="41.43296" lon="19.73543">
        <ele>73.223362</ele>
        <time>2022-05-14T09:24:05.089Z</time>
      </trkpt>
      <trkpt lat="41.43486" lon="19.73467">
        <ele>73.814968</ele>
        <time>2022-05-14T09:24:46.086Z</time>
      </trkpt>
      <trkpt lat="41.43679" lon="19.73391">
        <ele>75.364538</ele>
        <time>2022-05-14T09:25:28.081Z</time>
      </trkpt>
      <trkpt lat="41.43906" lon="19.73301">
        <ele>78.073936</ele>
        <time>2022-05-14T09:26:26.068Z</time>
      </trkpt>
      <trkpt lat="41.44131" lon="19.7321">
        <ele>78.823803</ele>
        <time>2022-05-14T09:27:21.082Z</time>
      </trkpt>
      <trkpt lat="41.44353" lon="19.7312">
        <ele>79.010229</ele>
        <time>2022-05-14T09:28:20.072Z</time>
      </trkpt>
      <trkpt lat="41.44582" lon="19.73028">
        <ele>78.058088</ele>
        <time>2022-05-14T09:29:18.054Z</time>
      </trkpt>
      <trkpt lat="41.44799" lon="19.72936">
        <ele>75.724581</ele>
        <time>2022-05-14T09:30:09.084Z</time>
      </trkpt>
      <trkpt lat="41.45016" lon="19.72849">
        <ele>74.69901</ele>
        <time>2022-05-14T09:30:59.121Z</time>
      </trkpt>
      <trkpt lat="41.45227" lon="19.72763">
        <ele>72.261177</ele>
        <time>2022-05-14T09:31:41.120Z</time>
      </trkpt>
      <trkpt lat="41.45426" lon="19.72682">
        <ele>69.382289</ele>
        <time>2022-05-14T09:32:21.124Z</time>
      </trkpt>
      <trkpt lat="41.45609" lon="19.72607">
        <ele>67.968516</ele>
        <time>2022-05-14T09:33:02.073Z</time>
      </trkpt>
      <trkpt lat="41.45803" lon="19.72531">
        <ele>68.851022</ele>
        <time>2022-05-14T09:33:45.083Z</time>
      </trkpt>
      <trkpt lat="41.45993" lon="19.72454">
        <ele>69.11523</ele>
        <time>2022-05-14T09:34:27.057Z</time>
      </trkpt>
      <trkpt lat="41.46182" lon="19.72382">
        <ele>68.415471</ele>
        <time>2022-05-14T09:35:07.082Z</time>
      </trkpt>
      <trkpt lat="41.46367" lon="19.72315">
        <ele>67.848401</ele>
        <time>2022-05-14T09:35:47.103Z</time>
      </trkpt>
      <trkpt lat="41.46564" lon="19.72243">
        <ele>66.249658</ele>
        <time>2022-05-14T09:36:31.062Z</time>
      </trkpt>
      <trkpt lat="41.46773" lon="19.72163">
        <ele>67.8537</ele>
        <time>2022-05-14T09:37:19.126Z</time>
      </trkpt>
      <trkpt lat="41.46975" lon="19.72084">
        <ele>65.107377</ele>
        <time>2022-05-14T09:37:59.063Z</time>
      </trkpt>
      <trkpt lat="41.47164" lon="19.71975">
        <ele>64.567129</ele>
        <time>2022-05-14T09:38:40.103Z</time>
      </trkpt>
      <trkpt lat="41.47358" lon="19.71878">
        <ele>66.571076</ele>
        <time>2022-05-14T09:39:22.066Z</time>
      </trkpt>
      <trkpt lat="41.47556" lon="19.71825">
        <ele>64.422691</ele>
        <time>2022-05-14T09:40:02.063Z</time>
      </trkpt>
      <trkpt lat="41.47747" lon="19.71771">
        <ele>64.214234</ele>
        <time>2022-05-14T09:40:43.077Z</time>
      </trkpt>
      <trkpt lat="41.47908" lon="19.71821">
        <ele>64.049584</ele>
        <time>2022-05-14T09:41:28.119Z</time>
      </trkpt>
      <trkpt lat="41.47956" lon="19.72091">
        <ele>66.298831</ele>
        <time>2022-05-14T09:42:21.060Z</time>
      </trkpt>
      <trkpt lat="41.48138" lon="19.72231">
        <ele>69.634571</ele>
        <time>2022-05-14T09:43:19.112Z</time>
      </trkpt>
      <trkpt lat="41.48321" lon="19.72368">
        <ele>66.642985</ele>
        <time>2022-05-14T09:44:21.063Z</time>
      </trkpt>
      <trkpt lat="41.48518" lon="19.7251">
        <ele>68.174657</ele>
        <time>2022-05-14T09:45:21.069Z</time>
      </trkpt>
      <trkpt lat="41.48746" lon="19.72599">
        <ele>65.881857</ele>
        <time>2022-05-14T09:46:21.078Z</time>
      </trkpt>
      <trkpt lat="41.48946" lon="19.72456">
        <ele>64.495364</ele>
        <time>2022-05-14T09:47:12.071Z</time>
      </trkpt>
      <trkpt lat="41.49095" lon="19.72253">
        <ele>62.742271</ele>
        <time>2022-05-14T09:48:01.056Z</time>
      </trkpt>
      <trkpt lat="41.49295" lon="19.72201">
        <ele>60.82638</ele>
        <time>2022-05-14T09:48:43.084Z</time>
      </trkpt>
      <trkpt lat="41.49488" lon="19.72187">
        <ele>59.879444</ele>
        <time>2022-05-14T09:49:24.083Z</time>
      </trkpt>
      <trkpt lat="41.49671" lon="19.72082">
        <ele>57.739655</ele>
        <time>2022-05-14T09:50:06.081Z</time>
      </trkpt>
      <trkpt lat="41.49838" lon="19.71912">
        <ele>57.181862</ele>
        <time>2022-05-14T09:50:53.081Z</time>
      </trkpt>
      <trkpt lat="41.5007" lon="19.719">
        <ele>55.935604</ele>
        <time>2022-05-14T09:51:52.086Z</time>
      </trkpt>
      <trkpt lat="41.50275" lon="19.7205">
        <ele>56.893098</ele>
        <time>2022-05-14T09:52:51.105Z</time>
      </trkpt>
      <trkpt lat="41.50458" lon="19.72227">
        <ele>59.559898</ele>
        <time>2022-05-14T09:53:51.066Z</time>
      </trkpt>
      <trkpt lat="41.50616" lon="19.72429">
        <ele>60.299762</ele>
        <time>2022-05-14T09:54:51.076Z</time>
      </trkpt>
      <trkpt lat="41.50754" lon="19.72675">
        <ele>61.085196</ele>
        <time>2022-05-14T09:55:54.071Z</time>
      </trkpt>
      <trkpt lat="41.50885" lon="19.72872">
        <ele>62.509966</ele>
        <time>2022-05-14T09:56:57.079Z</time>
      </trkpt>
      <trkpt lat="41.51126" lon="19.72903">
        <ele>53.181663</ele>
        <time>2022-05-14T09:57:40.064Z</time>
      </trkpt>
      <trkpt lat="41.51394" lon="19.72929">
        <ele>46.198093</ele>
        <time>2022-05-14T09:58:22.072Z</time>
      </trkpt>
      <trkpt lat="41.5163" lon="19.72947">
        <ele>49.256614</ele>
        <time>2022-05-14T09:59:25.073Z</time>
      </trkpt>
      <trkpt lat="41.5181" lon="19.72992">
        <ele>57.375411</ele>
        <time>2022-05-14T10:25:46.057Z</time>
      </trkpt>
      <trkpt lat="41.51977" lon="19.72842">
        <ele>63.211064</ele>
        <time>2022-05-14T10:33:51.076Z</time>
      </trkpt>
      <trkpt lat="41.52152" lon="19.72653">
        <ele>59.331</ele>
        <time>2022-05-14T10:34:54.082Z</time>
      </trkpt>
      <trkpt lat="41.52328" lon="19.72496">
        <ele>54.189902</ele>
        <time>2022-05-14T10:35:37.072Z</time>
      </trkpt>
      <trkpt lat="41.52502" lon="19.72341">
        <ele>54.384699</ele>
        <time>2022-05-14T10:36:21.064Z</time>
      </trkpt>
      <trkpt lat="41.52687" lon="19.72249">
        <ele>54.535975</ele>
        <time>2022-05-14T10:37:02.066Z</time>
      </trkpt>
      <trkpt lat="41.52921" lon="19.72167">
        <ele>56.780598</ele>
        <time>2022-05-14T10:38:05.073Z</time>
      </trkpt>
      <trkpt lat="41.53083" lon="19.7196">
        <ele>60.773209</ele>
        <time>2022-05-14T10:38:59.101Z</time>
      </trkpt>
      <trkpt lat="41.5322" lon="19.71766">
        <ele>60.354505</ele>
        <time>2022-05-14T10:39:40.100Z</time>
      </trkpt>
      <trkpt lat="41.53428" lon="19.71628">
        <ele>50.484513</ele>
        <time>2022-05-14T10:40:27.074Z</time>
      </trkpt>
      <trkpt lat="41.5359" lon="19.71428">
        <ele>49.981696</ele>
        <time>2022-05-14T10:41:16.066Z</time>
      </trkpt>
      <trkpt lat="41.53787" lon="19.7125">
        <ele>51.143432</ele>
        <time>2022-05-14T10:42:16.101Z</time>
      </trkpt>
      <trkpt lat="41.53947" lon="19.71074">
        <ele>54.468045</ele>
        <time>2022-05-14T10:43:17.083Z</time>
      </trkpt>
      <trkpt lat="41.54054" lon="19.70825">
        <ele>53.500579</ele>
        <time>2022-05-14T10:43:59.082Z</time>
      </trkpt>
      <trkpt lat="41.54166" lon="19.70565">
        <ele>54.765183</ele>
        <time>2022-05-14T10:44:47.078Z</time>
      </trkpt>
      <trkpt lat="41.54266" lon="19.70335">
        <ele>62.347613</ele>
        <time>2022-05-14T10:46:30.063Z</time>
      </trkpt>
      <trkpt lat="41.54434" lon="19.70224">
        <ele>61.894508</ele>
        <time>2022-05-14T10:47:42.082Z</time>
      </trkpt>
      <trkpt lat="41.54666" lon="19.70019">
        <ele>52.40639</ele>
        <time>2022-05-14T10:48:24.084Z</time>
      </trkpt>
      <trkpt lat="41.54565" lon="19.6974">
        <ele>50.461553</ele>
        <time>2022-05-14T10:49:12.112Z</time>
      </trkpt>
      <trkpt lat="41.5459" lon="19.69501">
        <ele>52.463238</ele>
        <time>2022-05-14T10:49:54.080Z</time>
      </trkpt>
      <trkpt lat="41.54742" lon="19.69295">
        <ele>53.676064</ele>
        <time>2022-05-14T10:50:52.068Z</time>
      </trkpt>
      <trkpt lat="41.54714" lon="19.6903">
        <ele>56.645727</ele>
        <time>2022-05-14T10:51:56.074Z</time>
      </trkpt>
      <trkpt lat="41.54621" lon="19.68786">
        <ele>60.747942</ele>
        <time>2022-05-14T10:53:04.062Z</time>
      </trkpt>
      <trkpt lat="41.54756" lon="19.68596">
        <ele>64.071135</ele>
        <time>2022-05-14T10:54:05.067Z</time>
      </trkpt>
      <trkpt lat="41.54771" lon="19.68289">
        <ele>60.376537</ele>
        <time>2022-05-14T10:54:47.081Z</time>
      </trkpt>
      <trkpt lat="41.54756" lon="19.68041">
        <ele>57.026884</ele>
        <time>2022-05-14T10:55:38.078Z</time>
      </trkpt>
      <trkpt lat="41.54877" lon="19.67834">
        <ele>57.996892</ele>
        <time>2022-05-14T10:56:41.064Z</time>
      </trkpt>
      <trkpt lat="41.55067" lon="19.67768">
        <ele>64.035218</ele>
        <time>2022-05-14T10:57:43.102Z</time>
      </trkpt>
      <trkpt lat="41.5528" lon="19.67721">
        <ele>61.69591</ele>
        <time>2022-05-14T10:58:51.070Z</time>
      </trkpt>
      <trkpt lat="41.55483" lon="19.67718">
        <ele>61.528562</ele>
        <time>2022-05-14T10:59:52.053Z</time>
      </trkpt>
      <trkpt lat="41.55677" lon="19.67713">
        <ele>65.360189</ele>
        <time>2022-05-14T11:00:52.107Z</time>
      </trkpt>
      <trkpt lat="41.55854" lon="19.67864">
        <ele>66.0952</ele>
        <time>2022-05-14T11:01:52.080Z</time>
      </trkpt>
      <trkpt lat="41.55907" lon="19.68129">
        <ele>68.395702</ele>
        <time>2022-05-14T11:02:56.101Z</time>
      </trkpt>
      <trkpt lat="41.55915" lon="19.68387">
        <ele>71.046794</ele>
        <time>2022-05-14T11:03:56.086Z</time>
      </trkpt>
      <trkpt lat="41.55954" lon="19.68639">
        <ele>72.87109</ele>
        <time>2022-05-14T11:04:56.068Z</time>
      </trkpt>
      <trkpt lat="41.55973" lon="19.68906">
        <ele>75.580114</ele>
        <time>2022-05-14T11:06:02.090Z</time>
      </trkpt>
      <trkpt lat="41.56032" lon="19.69161">
        <ele>80.083375</ele>
        <time>2022-05-14T11:07:16.081Z</time>
      </trkpt>
      <trkpt lat="41.56237" lon="19.69204">
        <ele>79.785788</ele>
        <time>2022-05-14T11:08:18.091Z</time>
      </trkpt>
      <trkpt lat="41.56433" lon="19.69259">
        <ele>78.835774</ele>
        <time>2022-05-14T11:09:02.080Z</time>
      </trkpt>
      <trkpt lat="41.56652" lon="19.69279">
        <ele>79.231945</ele>
        <time>2022-05-14T11:09:57.087Z</time>
      </trkpt>
      <trkpt lat="41.56856" lon="19.69372">
        <ele>80.774789</ele>
        <time>2022-05-14T11:10:54.085Z</time>
      </trkpt>
      <trkpt lat="41.57056" lon="19.69368">
        <ele>78.525476</ele>
        <time>2022-05-14T11:11:46.108Z</time>
      </trkpt>
      <trkpt lat="41.57281" lon="19.69258">
        <ele>73.022276</ele>
        <time>2022-05-14T11:12:26.099Z</time>
      </trkpt>
      <trkpt lat="41.57471" lon="19.69205">
        <ele>66.273679</ele>
        <time>2022-05-14T11:18:20.076Z</time>
      </trkpt>
      <trkpt lat="41.57702" lon="19.69256">
        <ele>66.74128</ele>
        <time>2022-05-14T11:19:21.079Z</time>
      </trkpt>
      <trkpt lat="41.57914" lon="19.69224">
        <ele>71.922165</ele>
        <time>2022-05-14T11:20:13.097Z</time>
      </trkpt>
      <trkpt lat="41.5813" lon="19.6919">
        <ele>64.647718</ele>
        <time>2022-05-14T11:21:09.086Z</time>
      </trkpt>
      <trkpt lat="41.58332" lon="19.69271">
        <ele>58.10695</ele>
        <time>2022-05-14T11:21:58.097Z</time>
      </trkpt>
      <trkpt lat="41.58537" lon="19.69308">
        <ele>58.718687</ele>
        <time>2022-05-14T11:22:53.086Z</time>
      </trkpt>
      <trkpt lat="41.58741" lon="19.69295">
        <ele>62.384401</ele>
        <time>2022-05-14T11:24:07.079Z</time>
      </trkpt>
      <trkpt lat="41.58887" lon="19.69516">
        <ele>56.481198</ele>
        <time>2022-05-14T11:25:08.094Z</time>
      </trkpt>
      <trkpt lat="41.58898" lon="19.69813">
        <ele>54.420244</ele>
        <time>2022-05-14T11:26:14.075Z</time>
      </trkpt>
      <trkpt lat="41.5902" lon="19.70029">
        <ele>50.76223</ele>
        <time>2022-05-14T11:27:08.079Z</time>
      </trkpt>
      <trkpt lat="41.5923" lon="19.69905">
        <ele>51.207308</ele>
        <time>2022-05-14T11:28:08.072Z</time>
      </trkpt>
      <trkpt lat="41.5947" lon="19.69866">
        <ele>48.922467</ele>
        <time>2022-05-14T11:29:11.076Z</time>
      </trkpt>
      <trkpt lat="41.59703" lon="19.69907">
        <ele>48.333847</ele>
        <time>2022-05-14T11:30:11.107Z</time>
      </trkpt>
      <trkpt lat="41.59907" lon="19.69951">
        <ele>49.965039</ele>
        <time>2022-05-14T11:31:12.070Z</time>
      </trkpt>
      <trkpt lat="41.60071" lon="19.70062">
        <ele>55.842324</ele>
        <time>2022-05-14T11:32:11.077Z</time>
      </trkpt>
      <trkpt lat="41.60173" lon="19.7036">
        <ele>58.632266</ele>
        <time>2022-05-14T11:33:11.077Z</time>
      </trkpt>
      <trkpt lat="41.60247" lon="19.70623">
        <ele>59.504236</ele>
        <time>2022-05-14T11:34:10.123Z</time>
      </trkpt>
      <trkpt lat="41.60419" lon="19.7078">
        <ele>56.209115</ele>
        <time>2022-05-14T11:34:56.081Z</time>
      </trkpt>
      <trkpt lat="41.60548" lon="19.70995">
        <ele>56.065615</ele>
        <time>2022-05-14T11:35:41.080Z</time>
      </trkpt>
      <trkpt lat="41.60702" lon="19.71218">
        <ele>59.855859</ele>
        <time>2022-05-14T11:36:44.078Z</time>
      </trkpt>
      <trkpt lat="41.60894" lon="19.71353">
        <ele>55.952215</ele>
        <time>2022-05-14T11:37:33.092Z</time>
      </trkpt>
      <trkpt lat="41.61102" lon="19.71293">
        <ele>50.720731</ele>
        <time>2022-05-14T11:38:20.078Z</time>
      </trkpt>
      <trkpt lat="41.6129" lon="19.71133">
        <ele>49.634887</ele>
        <time>2022-05-14T11:39:16.081Z</time>
      </trkpt>
      <trkpt lat="41.61508" lon="19.71172">
        <ele>50.584458</ele>
        <time>2022-05-14T11:40:05.079Z</time>
      </trkpt>
      <trkpt lat="41.61736" lon="19.71145">
        <ele>49.744962</ele>
        <time>2022-05-14T11:41:00.080Z</time>
      </trkpt>
      <trkpt lat="41.61921" lon="19.71076">
        <ele>50.903202</ele>
        <time>2022-05-14T11:41:46.086Z</time>
      </trkpt>
      <trkpt lat="41.62124" lon="19.70934">
        <ele>53.020651</ele>
        <time>2022-05-14T11:42:52.117Z</time>
      </trkpt>
      <trkpt lat="41.62318" lon="19.70854">
        <ele>55.081184</ele>
        <time>2022-05-14T11:44:00.113Z</time>
      </trkpt>
      <trkpt lat="41.62538" lon="19.70902">
        <ele>58.300718</ele>
        <time>2022-05-14T11:45:00.087Z</time>
      </trkpt>
      <trkpt lat="41.62726" lon="19.71001">
        <ele>63.026826</ele>
        <time>2022-05-14T11:46:04.073Z</time>
      </trkpt>
      <trkpt lat="41.62936" lon="19.71106">
        <ele>69.413864</ele>
        <time>2022-05-14T11:47:14.094Z</time>
      </trkpt>
      <trkpt lat="41.63165" lon="19.71118">
        <ele>66.723812</ele>
        <time>2022-05-14T11:48:13.133Z</time>
      </trkpt>
      <trkpt lat="41.63374" lon="19.71096">
        <ele>70.574004</ele>
        <time>2022-05-14T11:49:15.097Z</time>
      </trkpt>
      <trkpt lat="41.6359" lon="19.71144">
        <ele>78.316646</ele>
        <time>2022-05-14T11:50:22.078Z</time>
      </trkpt>
      <trkpt lat="41.63793" lon="19.71174">
        <ele>74.35411</ele>
        <time>2022-05-14T11:51:05.091Z</time>
      </trkpt>
      <trkpt lat="41.63962" lon="19.71355">
        <ele>74.264653</ele>
        <time>2022-05-14T11:51:50.080Z</time>
      </trkpt>
      <trkpt lat="41.64161" lon="19.71303">
        <ele>71.057816</ele>
        <time>2022-05-14T11:53:00.107Z</time>
      </trkpt>
      <trkpt lat="41.64328" lon="19.71105">
        <ele>64.46361</ele>
        <time>2022-05-14T11:54:01.096Z</time>
      </trkpt>
      <trkpt lat="41.64477" lon="19.70858">
        <ele>60.958794</ele>
        <time>2022-05-14T11:54:43.115Z</time>
      </trkpt>
      <trkpt lat="41.64677" lon="19.70734">
        <ele>62.507471</ele>
        <time>2022-05-14T11:55:50.076Z</time>
      </trkpt>
      <trkpt lat="41.64851" lon="19.70862">
        <ele>70.927198</ele>
        <time>2022-05-14T11:57:12.136Z</time>
      </trkpt>
      <trkpt lat="41.65041" lon="19.70873">
        <ele>72.329344</ele>
        <time>2022-05-14T11:58:31.100Z</time>
      </trkpt>
      <trkpt lat="41.65258" lon="19.70832">
        <ele>66.66781</ele>
        <time>2022-05-14T11:59:13.088Z</time>
      </trkpt>
      <trkpt lat="41.65509" lon="19.70687">
        <ele>57.966506</ele>
        <time>2022-05-14T11:59:50.086Z</time>
      </trkpt>
      <trkpt lat="41.65738" lon="19.70497">
        <ele>52.129316</ele>
        <time>2022-05-14T12:00:29.116Z</time>
      </trkpt>
      <trkpt lat="41.65936" lon="19.70606">
        <ele>52.078422</ele>
        <time>2022-05-14T12:01:21.104Z</time>
      </trkpt>
      <trkpt lat="41.66122" lon="19.70774">
        <ele>55.349751</ele>
        <time>2022-05-14T12:02:21.074Z</time>
      </trkpt>
      <trkpt lat="41.66326" lon="19.7086">
        <ele>59.399489</ele>
        <time>2022-05-14T12:03:33.093Z</time>
      </trkpt>
      <trkpt lat="41.66555" lon="19.70839">
        <ele>57.673804</ele>
        <time>2022-05-14T12:04:35.071Z</time>
      </trkpt>
      <trkpt lat="41.66756" lon="19.70866">
        <ele>60.993149</ele>
        <time>2022-05-14T12:05:28.115Z</time>
      </trkpt>
      <trkpt lat="41.66966" lon="19.70837">
        <ele>61.122433</ele>
        <time>2022-05-14T12:06:12.112Z</time>
      </trkpt>
      <trkpt lat="41.67217" lon="19.70797">
        <ele>57.512856</ele>
        <time>2022-05-14T12:06:52.099Z</time>
      </trkpt>
      <trkpt lat="41.67414" lon="19.70713">
        <ele>52.740778</ele>
        <time>2022-05-14T12:07:35.118Z</time>
      </trkpt>
      <trkpt lat="41.67603" lon="19.70825">
        <ele>55.283944</ele>
        <time>2022-05-14T12:08:22.083Z</time>
      </trkpt>
      <trkpt lat="41.6778" lon="19.71009">
        <ele>50.591445</ele>
        <time>2022-05-14T12:09:14.104Z</time>
      </trkpt>
      <trkpt lat="41.67928" lon="19.71224">
        <ele>51.386908</ele>
        <time>2022-05-14T12:10:09.093Z</time>
      </trkpt>
      <trkpt lat="41.68122" lon="19.71156">
        <ele>55.632917</ele>
        <time>2022-05-14T12:11:05.107Z</time>
      </trkpt>
      <trkpt lat="41.68286" lon="19.70968">
        <ele>59.430289</ele>
        <time>2022-05-14T12:12:02.075Z</time>
      </trkpt>
      <trkpt lat="41.68437" lon="19.70773">
        <ele>57.480083</ele>
        <time>2022-05-14T12:12:55.106Z</time>
      </trkpt>
      <trkpt lat="41.68601" lon="19.70564">
        <ele>58.099499</ele>
        <time>2022-05-14T12:14:08.084Z</time>
      </trkpt>
      <trkpt lat="41.68749" lon="19.70368">
        <ele>61.302183</ele>
        <time>2022-05-14T12:15:18.111Z</time>
      </trkpt>
      <trkpt lat="41.68896" lon="19.70177">
        <ele>59.006432</ele>
        <time>2022-05-14T12:16:20.087Z</time>
      </trkpt>
      <trkpt lat="41.69069" lon="19.69955">
        <ele>57.480515</ele>
        <time>2022-05-14T12:17:20.079Z</time>
      </trkpt>
      <trkpt lat="41.69217" lon="19.69766">
        <ele>55.628932</ele>
        <time>2022-05-14T12:18:03.096Z</time>
      </trkpt>
      <trkpt lat="41.6939" lon="19.69593">
        <ele>54.328326</ele>
        <time>2022-05-14T12:18:51.091Z</time>
      </trkpt>
      <trkpt lat="41.69586" lon="19.69469">
        <ele>49.760671</ele>
        <time>2022-05-14T12:19:34.082Z</time>
      </trkpt>
      <trkpt lat="41.69804" lon="19.69364">
        <ele>53.620777</ele>
        <time>2022-05-14T12:20:33.077Z</time>
      </trkpt>
      <trkpt lat="41.70029" lon="19.69238">
        <ele>56.483722</ele>
        <time>2022-05-14T12:21:25.074Z</time>
      </trkpt>
      <trkpt lat="41.7021" lon="19.69081">
        <ele>61.029633</ele>
        <time>2022-05-14T12:22:05.084Z</time>
      </trkpt>
      <trkpt lat="41.70389" lon="19.68923">
        <ele>52.238315</ele>
        <time>2022-05-14T12:22:45.073Z</time>
      </trkpt>
      <trkpt lat="41.70599" lon="19.68848">
        <ele>51.509321</ele>
        <time>2022-05-14T12:23:27.097Z</time>
      </trkpt>
      <trkpt lat="41.70802" lon="19.68777">
        <ele>50.193373</ele>
        <time>2022-05-14T12:24:16.093Z</time>
      </trkpt>
      <trkpt lat="41.71019" lon="19.68704">
        <ele>49.456606</ele>
        <time>2022-05-14T12:25:08.093Z</time>
      </trkpt>
      <trkpt lat="41.71227" lon="19.68724">
        <ele>49.597434</ele>
        <time>2022-05-14T12:25:51.085Z</time>
      </trkpt>
      <trkpt lat="41.71459" lon="19.68706">
        <ele>48.837596</ele>
        <time>2022-05-14T12:26:44.101Z</time>
      </trkpt>
      <trkpt lat="41.71679" lon="19.68671">
        <ele>49.449105</ele>
        <time>2022-05-14T12:27:46.091Z</time>
      </trkpt>
      <trkpt lat="41.71902" lon="19.6871">
        <ele>54.382078</ele>
        <time>2022-05-14T12:28:40.094Z</time>
      </trkpt>
      <trkpt lat="41.72118" lon="19.68782">
        <ele>57.271505</ele>
        <time>2022-05-14T12:29:40.100Z</time>
      </trkpt>
      <trkpt lat="41.72353" lon="19.68863">
        <ele>48.553858</ele>
        <time>2022-05-14T12:30:40.099Z</time>
      </trkpt>
      <trkpt lat="41.72581" lon="19.6888">
        <ele>46.308089</ele>
        <time>2022-05-14T12:31:43.080Z</time>
      </trkpt>
      <trkpt lat="41.72802" lon="19.6885">
        <ele>48.160856</ele>
        <time>2022-05-14T12:41:15.076Z</time>
      </trkpt>
      <trkpt lat="41.73023" lon="19.68793">
        <ele>47.610131</ele>
        <time>2022-05-14T12:42:21.101Z</time>
      </trkpt>
      <trkpt lat="41.73255" lon="19.688">
        <ele>54.040077</ele>
        <time>2022-05-14T12:43:15.079Z</time>
      </trkpt>
      <trkpt lat="41.73439" lon="19.68917">
        <ele>61.625901</ele>
        <time>2022-05-14T12:44:24.095Z</time>
      </trkpt>
      <trkpt lat="41.73648" lon="19.68911">
        <ele>63.216153</ele>
        <time>2022-05-14T12:45:43.121Z</time>
      </trkpt>
      <trkpt lat="41.73895" lon="19.68831">
        <ele>59.727679</ele>
        <time>2022-05-14T12:46:32.080Z</time>
      </trkpt>
      <trkpt lat="41.74093" lon="19.68776">
        <ele>61.459786</ele>
        <time>2022-05-14T12:47:46.089Z</time>
      </trkpt>
      <trkpt lat="41.74243" lon="19.68573">
        <ele>55.266384</ele>
        <time>2022-05-14T12:48:41.095Z</time>
      </trkpt>
      <trkpt lat="41.74298" lon="19.68287">
        <ele>48.914298</ele>
        <time>2022-05-14T12:49:27.076Z</time>
      </trkpt>
      <trkpt lat="41.74438" lon="19.68048">
        <ele>48.283324</ele>
        <time>2022-05-14T12:50:23.074Z</time>
      </trkpt>
      <trkpt lat="41.74571" lon="19.67818">
        <ele>51.145348</ele>
        <time>2022-05-14T12:51:08.096Z</time>
      </trkpt>
      <trkpt lat="41.74613" lon="19.67542">
        <ele>46.46706</ele>
        <time>2022-05-14T12:51:54.070Z</time>
      </trkpt>
      <trkpt lat="41.74745" lon="19.67321">
        <ele>42.500017</ele>
        <time>2022-05-14T12:53:02.091Z</time>
      </trkpt>
      <trkpt lat="41.74986" lon="19.6716">
        <ele>32.902723</ele>
        <time>2022-05-14T12:53:44.070Z</time>
      </trkpt>
      <trkpt lat="41.75206" lon="19.6716">
        <ele>39.388851</ele>
        <time>2022-05-14T12:54:35.066Z</time>
      </trkpt>
      <trkpt lat="41.75448" lon="19.6712">
        <ele>44.861351</ele>
        <time>2022-05-14T12:55:35.077Z</time>
      </trkpt>
      <trkpt lat="41.75681" lon="19.67156">
        <ele>42.191596</ele>
        <time>2022-05-14T12:56:38.068Z</time>
      </trkpt>
      <trkpt lat="41.7588" lon="19.67199">
        <ele>49.06903</ele>
        <time>2022-05-14T12:57:39.124Z</time>
      </trkpt>
      <trkpt lat="41.76096" lon="19.6725">
        <ele>57.226906</ele>
        <time>2022-05-14T12:58:41.087Z</time>
      </trkpt>
      <trkpt lat="41.76306" lon="19.67285">
        <ele>56.515639</ele>
        <time>2022-05-14T12:59:27.086Z</time>
      </trkpt>
      <trkpt lat="41.76457" lon="19.67049">
        <ele>55.599567</ele>
        <time>2022-05-14T13:00:20.083Z</time>
      </trkpt>
      <trkpt lat="41.76631" lon="19.66866">
        <ele>51.276678</ele>
        <time>2022-05-14T13:01:17.074Z</time>
      </trkpt>
      <trkpt lat="41.76828" lon="19.66762">
        <ele>48.59479</ele>
        <time>2022-05-14T13:02:07.074Z</time>
      </trkpt>
      <trkpt lat="41.76993" lon="19.66614">
        <ele>46.872928</ele>
        <time>2022-05-14T13:02:47.098Z</time>
      </trkpt>
      <trkpt lat="41.77094" lon="19.66338">
        <ele>44.861177</ele>
        <time>2022-05-14T13:03:45.087Z</time>
      </trkpt>
      <trkpt lat="41.77156" lon="19.66096">
        <ele>38.955736</ele>
        <time>2022-05-14T13:04:28.090Z</time>
      </trkpt>
      <trkpt lat="41.77314" lon="19.65893">
        <ele>48.231459</ele>
        <time>2022-05-14T13:05:12.095Z</time>
      </trkpt>
      <trkpt lat="41.77455" lon="19.65646">
        <ele>51.820264</ele>
        <time>2022-05-14T13:06:03.062Z</time>
      </trkpt>
      <trkpt lat="41.77515" lon="19.65388">
        <ele>55.390316</ele>
        <time>2022-05-14T13:06:43.098Z</time>
      </trkpt>
      <trkpt lat="41.77525" lon="19.65105">
        <ele>64.510382</ele>
        <time>2022-05-14T13:07:23.074Z</time>
      </trkpt>
      <trkpt lat="41.77505" lon="19.64808">
        <ele>64.885446</ele>
        <time>2022-05-14T13:08:03.072Z</time>
      </trkpt>
      <trkpt lat="41.77482" lon="19.64492">
        <ele>63.444511</ele>
        <time>2022-05-14T13:09:14.101Z</time>
      </trkpt>
      <trkpt lat="41.7753" lon="19.64282">
        <ele>60.208412</ele>
        <time>2022-05-14T13:10:19.080Z</time>
      </trkpt>
      <trkpt lat="41.77562" lon="19.64259">
        <ele>60.208412</ele>
        <time>2022-05-14T13:12:48.432Z</time>
      </trkpt>
    </trkseg>
  </trk>
  <trk>
    <name><![CDATA[Tour d'Europe: étape 677]]></name>
    <extensions>
      <line xmlns="http://www.topografix.com/GPX/gpx_style/0/2">
        <color>888800</color>
        <width>4</width>
      </line>
    </extensions>
    <trkseg>
      <trkpt lat="41.31417" lon="19.47179">
        <ele>122.422934</ele>
        <time>2022-05-06T07:58:55.233Z</time>
      </trkpt>
      <trkpt lat="41.31487" lon="19.47098">
        <ele>98.449809</ele>
        <time>2022-05-06T08:26:34.541Z</time>
      </trkpt>
      <trkpt lat="41.31547" lon="19.4685">
        <ele>43.370936</ele>
        <time>2022-05-06T08:27:45.575Z</time>
      </trkpt>
      <trkpt lat="41.31667" lon="19.46671">
        <ele>41.697053</ele>
        <time>2022-05-06T08:29:12.548Z</time>
      </trkpt>
      <trkpt lat="41.31719" lon="19.4638">
        <ele>45.967543</ele>
        <time>2022-05-06T08:30:15.582Z</time>
      </trkpt>
      <trkpt lat="41.31746" lon="19.46098">
        <ele>41.87837</ele>
        <time>2022-05-06T08:31:02.550Z</time>
      </trkpt>
      <trkpt lat="41.31737" lon="19.45819">
        <ele>37.110234</ele>
        <time>2022-05-06T08:31:46.541Z</time>
      </trkpt>
      <trkpt lat="41.31716" lon="19.45567">
        <ele>37.142865</ele>
        <time>2022-05-06T08:32:26.545Z</time>
      </trkpt>
      <trkpt lat="41.31615" lon="19.45306">
        <ele>40.364328</ele>
        <time>2022-05-06T08:33:13.550Z</time>
      </trkpt>
      <trkpt lat="41.31415" lon="19.45159">
        <ele>40.366812</ele>
        <time>2022-05-06T08:34:18.556Z</time>
      </trkpt>
      <trkpt lat="41.31199" lon="19.45027">
        <ele>42.407366</ele>
        <time>2022-05-06T08:35:16.542Z</time>
      </trkpt>
      <trkpt lat="41.30995" lon="19.44897">
        <ele>42.626546</ele>
        <time>2022-05-06T08:36:20.530Z</time>
      </trkpt>
      <trkpt lat="41.30921" lon="19.44646">
        <ele>44.008495</ele>
        <time>2022-05-06T08:47:10.537Z</time>
      </trkpt>
      <trkpt lat="41.31022" lon="19.44719">
        <ele>58.175351</ele>
        <time>2022-05-06T08:48:47.531Z</time>
      </trkpt>
      <trkpt lat="41.31221" lon="19.44601">
        <ele>68.501552</ele>
        <time>2022-05-06T08:50:06.532Z</time>
      </trkpt>
      <trkpt lat="41.31423" lon="19.44603">
        <ele>60.63342</ele>
        <time>2022-05-06T08:51:13.541Z</time>
      </trkpt>
      <trkpt lat="41.31618" lon="19.44499">
        <ele>79.654682</ele>
        <time>2022-05-06T08:52:18.533Z</time>
      </trkpt>
      <trkpt lat="41.31844" lon="19.44499">
        <ele>72.754912</ele>
        <time>2022-05-06T08:53:09.563Z</time>
      </trkpt>
      <trkpt lat="41.32056" lon="19.44515">
        <ele>63.047645</ele>
        <time>2022-05-06T08:53:53.535Z</time>
      </trkpt>
      <trkpt lat="41.32275" lon="19.44528">
        <ele>63.403003</ele>
        <time>2022-05-06T08:54:35.543Z</time>
      </trkpt>
      <trkpt lat="41.32495" lon="19.44534">
        <ele>64.727492</ele>
        <time>2022-05-06T08:55:31.544Z</time>
      </trkpt>
      <trkpt lat="41.32712" lon="19.44544">
        <ele>62.014949</ele>
        <time>2022-05-06T08:56:16.577Z</time>
      </trkpt>
      <trkpt lat="41.32933" lon="19.44548">
        <ele>53.900456</ele>
        <time>2022-05-06T08:56:57.555Z</time>
      </trkpt>
      <trkpt lat="41.33139" lon="19.44549">
        <ele>51.627569</ele>
        <time>2022-05-06T08:57:41.560Z</time>
      </trkpt>
      <trkpt lat="41.33351" lon="19.44549">
        <ele>52.69581</ele>
        <time>2022-05-06T08:58:23.570Z</time>
      </trkpt>
      <trkpt lat="41.33566" lon="19.44532">
        <ele>51.890026</ele>
        <time>2022-05-06T08:59:05.556Z</time>
      </trkpt>
      <trkpt lat="41.33757" lon="19.44454">
        <ele>47.555973</ele>
        <time>2022-05-06T08:59:47.591Z</time>
      </trkpt>
      <trkpt lat="41.33974" lon="19.44368">
        <ele>50.544505</ele>
        <time>2022-05-06T09:00:39.543Z</time>
      </trkpt>
      <trkpt lat="41.341" lon="19.44484">
        <ele>45.032622</ele>
        <time>2022-05-06T09:01:28.547Z</time>
      </trkpt>
      <trkpt lat="41.34162" lon="19.4477">
        <ele>40.697188</ele>
        <time>2022-05-06T09:02:13.539Z</time>
      </trkpt>
      <trkpt lat="41.34263" lon="19.45008">
        <ele>42.996161</ele>
        <time>2022-05-06T09:02:55.539Z</time>
      </trkpt>
      <trkpt lat="41.34363" lon="19.4524">
        <ele>42.171093</ele>
        <time>2022-05-06T09:03:37.569Z</time>
      </trkpt>
      <trkpt lat="41.34463" lon="19.45488">
        <ele>41.495038</ele>
        <time>2022-05-06T09:04:28.542Z</time>
      </trkpt>
      <trkpt lat="41.34566" lon="19.45739">
        <ele>42.191141</ele>
        <time>2022-05-06T09:05:34.573Z</time>
      </trkpt>
      <trkpt lat="41.34677" lon="19.46022">
        <ele>36.904191</ele>
        <time>2022-05-06T09:06:39.552Z</time>
      </trkpt>
      <trkpt lat="41.34797" lon="19.46308">
        <ele>38.084342</ele>
        <time>2022-05-06T09:07:37.543Z</time>
      </trkpt>
      <trkpt lat="41.34906" lon="19.46566">
        <ele>38.733627</ele>
        <time>2022-05-06T09:08:31.556Z</time>
      </trkpt>
      <trkpt lat="41.35007" lon="19.46817">
        <ele>38.440294</ele>
        <time>2022-05-06T09:09:18.547Z</time>
      </trkpt>
      <trkpt lat="41.35099" lon="19.47057">
        <ele>38.046252</ele>
        <time>2022-05-06T09:10:19.568Z</time>
      </trkpt>
      <trkpt lat="41.35198" lon="19.4729">
        <ele>38.053763</ele>
        <time>2022-05-06T09:11:22.551Z</time>
      </trkpt>
      <trkpt lat="41.35282" lon="19.47551">
        <ele>37.723898</ele>
        <time>2022-05-06T09:12:22.559Z</time>
      </trkpt>
      <trkpt lat="41.35464" lon="19.47708">
        <ele>37.523486</ele>
        <time>2022-05-06T09:13:10.565Z</time>
      </trkpt>
      <trkpt lat="41.35653" lon="19.47876">
        <ele>41.183403</ele>
        <time>2022-05-06T09:14:04.536Z</time>
      </trkpt>
      <trkpt lat="41.35827" lon="19.48056">
        <ele>43.815015</ele>
        <time>2022-05-06T09:14:58.585Z</time>
      </trkpt>
      <trkpt lat="41.35914" lon="19.48349">
        <ele>50.461762</ele>
        <time>2022-05-06T09:15:56.528Z</time>
      </trkpt>
      <trkpt lat="41.35984" lon="19.48597">
        <ele>59.581684</ele>
        <time>2022-05-06T09:17:51.552Z</time>
      </trkpt>
      <trkpt lat="41.36157" lon="19.48803">
        <ele>52.273946</ele>
        <time>2022-05-06T09:18:46.585Z</time>
      </trkpt>
      <trkpt lat="41.36315" lon="19.49004">
        <ele>42.052588</ele>
        <time>2022-05-06T09:19:27.551Z</time>
      </trkpt>
      <trkpt lat="41.36468" lon="19.49193">
        <ele>40.110149</ele>
        <time>2022-05-06T09:20:13.551Z</time>
      </trkpt>
      <trkpt lat="41.36642" lon="19.49399">
        <ele>42.921572</ele>
        <time>2022-05-06T09:21:04.547Z</time>
      </trkpt>
      <trkpt lat="41.36768" lon="19.4962">
        <ele>45.580965</ele>
        <time>2022-05-06T09:21:52.562Z</time>
      </trkpt>
      <trkpt lat="41.36832" lon="19.49905">
        <ele>45.179184</ele>
        <time>2022-05-06T09:22:41.563Z</time>
      </trkpt>
      <trkpt lat="41.36898" lon="19.50171">
        <ele>45.325607</ele>
        <time>2022-05-06T09:23:29.545Z</time>
      </trkpt>
      <trkpt lat="41.36961" lon="19.50456">
        <ele>48.112192</ele>
        <time>2022-05-06T09:24:20.543Z</time>
      </trkpt>
      <trkpt lat="41.37016" lon="19.50769">
        <ele>45.772679</ele>
        <time>2022-05-06T09:25:16.599Z</time>
      </trkpt>
      <trkpt lat="41.37058" lon="19.5107">
        <ele>47.302212</ele>
        <time>2022-05-06T09:26:09.556Z</time>
      </trkpt>
      <trkpt lat="41.37097" lon="19.51359">
        <ele>46.704102</ele>
        <time>2022-05-06T09:26:59.546Z</time>
      </trkpt>
      <trkpt lat="41.37135" lon="19.51638">
        <ele>47.25432</ele>
        <time>2022-05-06T09:27:47.559Z</time>
      </trkpt>
      <trkpt lat="41.37174" lon="19.51917">
        <ele>45.812281</ele>
        <time>2022-05-06T09:28:35.543Z</time>
      </trkpt>
      <trkpt lat="41.37224" lon="19.5225">
        <ele>46.106753</ele>
        <time>2022-05-06T09:29:34.553Z</time>
      </trkpt>
      <trkpt lat="41.37266" lon="19.52567">
        <ele>46.204729</ele>
        <time>2022-05-06T09:30:29.556Z</time>
      </trkpt>
      <trkpt lat="41.37312" lon="19.52897">
        <ele>48.26113</ele>
        <time>2022-05-06T09:31:27.542Z</time>
      </trkpt>
      <trkpt lat="41.37341" lon="19.53178">
        <ele>51.654773</ele>
        <time>2022-05-06T09:32:14.547Z</time>
      </trkpt>
      <trkpt lat="41.37325" lon="19.53462">
        <ele>52.985109</ele>
        <time>2022-05-06T09:33:10.548Z</time>
      </trkpt>
      <trkpt lat="41.37087" lon="19.53524">
        <ele>50.603363</ele>
        <time>2022-05-06T09:34:05.578Z</time>
      </trkpt>
      <trkpt lat="41.36871" lon="19.53577">
        <ele>50.369082</ele>
        <time>2022-05-06T09:34:53.544Z</time>
      </trkpt>
      <trkpt lat="41.36684" lon="19.53666">
        <ele>50.246723</ele>
        <time>2022-05-06T09:35:36.543Z</time>
      </trkpt>
      <trkpt lat="41.36495" lon="19.53818">
        <ele>53.209952</ele>
        <time>2022-05-06T09:36:32.559Z</time>
      </trkpt>
      <trkpt lat="41.36305" lon="19.53966">
        <ele>53.261063</ele>
        <time>2022-05-06T09:37:27.533Z</time>
      </trkpt>
      <trkpt lat="41.3609" lon="19.54111">
        <ele>52.421958</ele>
        <time>2022-05-06T09:38:25.535Z</time>
      </trkpt>
      <trkpt lat="41.35866" lon="19.54245">
        <ele>52.74307</ele>
        <time>2022-05-06T09:39:22.532Z</time>
      </trkpt>
      <trkpt lat="41.35997" lon="19.54175">
        <ele>51.502771</ele>
        <time>2022-05-06T09:40:22.544Z</time>
      </trkpt>
      <trkpt lat="41.36075" lon="19.54439">
        <ele>53.493027</ele>
        <time>2022-05-06T09:41:22.555Z</time>
      </trkpt>
      <trkpt lat="41.36079" lon="19.54749">
        <ele>53.542991</ele>
        <time>2022-05-06T09:42:18.545Z</time>
      </trkpt>
      <trkpt lat="41.36141" lon="19.54921">
        <ele>55.364198</ele>
        <time>2022-05-06T09:43:29.546Z</time>
      </trkpt>
      <trkpt lat="41.36343" lon="19.54989">
        <ele>55.482213</ele>
        <time>2022-05-06T09:44:11.526Z</time>
      </trkpt>
      <trkpt lat="41.36498" lon="19.55165">
        <ele>54.288802</ele>
        <time>2022-05-06T09:44:55.549Z</time>
      </trkpt>
      <trkpt lat="41.36616" lon="19.55404">
        <ele>57.953357</ele>
        <time>2022-05-06T09:45:53.539Z</time>
      </trkpt>
      <trkpt lat="41.36724" lon="19.55657">
        <ele>59.595881</ele>
        <time>2022-05-06T09:46:55.605Z</time>
      </trkpt>
      <trkpt lat="41.36782" lon="19.55928">
        <ele>59.970699</ele>
        <time>2022-05-06T09:47:42.551Z</time>
      </trkpt>
      <trkpt lat="41.36743" lon="19.56258">
        <ele>53.101584</ele>
        <time>2022-05-06T09:48:27.537Z</time>
      </trkpt>
      <trkpt lat="41.36666" lon="19.5651">
        <ele>53.904012</ele>
        <time>2022-05-06T09:49:13.532Z</time>
      </trkpt>
      <trkpt lat="41.36593" lon="19.56746">
        <ele>55.340426</ele>
        <time>2022-05-06T09:49:54.538Z</time>
      </trkpt>
      <trkpt lat="41.36517" lon="19.57003">
        <ele>55.62608</ele>
        <time>2022-05-06T09:50:39.542Z</time>
      </trkpt>
      <trkpt lat="41.3647" lon="19.57266">
        <ele>54.000553</ele>
        <time>2022-05-06T09:51:24.520Z</time>
      </trkpt>
      <trkpt lat="41.36453" lon="19.57551">
        <ele>56.536644</ele>
        <time>2022-05-06T09:52:12.532Z</time>
      </trkpt>
      <trkpt lat="41.36467" lon="19.57814">
        <ele>58.307256</ele>
        <time>2022-05-06T09:52:54.549Z</time>
      </trkpt>
      <trkpt lat="41.36507" lon="19.58074">
        <ele>59.018521</ele>
        <time>2022-05-06T09:53:37.552Z</time>
      </trkpt>
      <trkpt lat="41.36553" lon="19.58331">
        <ele>58.991123</ele>
        <time>2022-05-06T09:54:20.544Z</time>
      </trkpt>
      <trkpt lat="41.36599" lon="19.58579">
        <ele>57.347042</ele>
        <time>2022-05-06T09:55:01.553Z</time>
      </trkpt>
      <trkpt lat="41.36648" lon="19.58858">
        <ele>56.347577</ele>
        <time>2022-05-06T09:55:43.544Z</time>
      </trkpt>
      <trkpt lat="41.36696" lon="19.59112">
        <ele>57.524987</ele>
        <time>2022-05-06T09:56:23.553Z</time>
      </trkpt>
      <trkpt lat="41.36749" lon="19.59364">
        <ele>58.877825</ele>
        <time>2022-05-06T09:57:03.551Z</time>
      </trkpt>
      <trkpt lat="41.36818" lon="19.59609">
        <ele>59.314224</ele>
        <time>2022-05-06T09:57:43.536Z</time>
      </trkpt>
      <trkpt lat="41.36905" lon="19.59893">
        <ele>62.420798</ele>
        <time>2022-05-06T09:58:37.535Z</time>
      </trkpt>
      <trkpt lat="41.36994" lon="19.60191">
        <ele>65.278601</ele>
        <time>2022-05-06T09:59:41.579Z</time>
      </trkpt>
      <trkpt lat="41.3708" lon="19.60472">
        <ele>70.790786</ele>
        <time>2022-05-06T10:00:44.551Z</time>
      </trkpt>
      <trkpt lat="41.37116" lon="19.60759">
        <ele>70.677218</ele>
        <time>2022-05-06T10:01:40.546Z</time>
      </trkpt>
      <trkpt lat="41.37173" lon="19.61068">
        <ele>65.811789</ele>
        <time>2022-05-06T10:02:35.547Z</time>
      </trkpt>
      <trkpt lat="41.37223" lon="19.61366">
        <ele>69.451794</ele>
        <time>2022-05-06T10:03:35.592Z</time>
      </trkpt>
      <trkpt lat="41.37353" lon="19.6165">
        <ele>68.384884</ele>
        <time>2022-05-06T10:04:34.553Z</time>
      </trkpt>
      <trkpt lat="41.37479" lon="19.61911">
        <ele>69.43754</ele>
        <time>2022-05-06T10:05:28.539Z</time>
      </trkpt>
      <trkpt lat="41.37592" lon="19.62158">
        <ele>70.671744</ele>
        <time>2022-05-06T10:06:28.583Z</time>
      </trkpt>
      <trkpt lat="41.37676" lon="19.6234">
        <ele>74.20698</ele>
        <time>2022-05-06T10:32:29.548Z</time>
      </trkpt>
      <trkpt lat="41.37834" lon="19.62523">
        <ele>72.684378</ele>
        <time>2022-05-06T10:33:22.549Z</time>
      </trkpt>
      <trkpt lat="41.38019" lon="19.62708">
        <ele>73.809538</ele>
        <time>2022-05-06T10:34:20.551Z</time>
      </trkpt>
      <trkpt lat="41.38194" lon="19.62881">
        <ele>78.645482</ele>
        <time>2022-05-06T10:35:21.550Z</time>
      </trkpt>
      <trkpt lat="41.3836" lon="19.63039">
        <ele>79.811987</ele>
        <time>2022-05-06T10:36:21.552Z</time>
      </trkpt>
      <trkpt lat="41.38547" lon="19.63202">
        <ele>81.358034</ele>
        <time>2022-05-06T10:37:09.536Z</time>
      </trkpt>
      <trkpt lat="41.38725" lon="19.63357">
        <ele>79.494058</ele>
        <time>2022-05-06T10:38:02.530Z</time>
      </trkpt>
      <trkpt lat="41.38931" lon="19.63532">
        <ele>76.82731</ele>
        <time>2022-05-06T10:38:56.542Z</time>
      </trkpt>
      <trkpt lat="41.39117" lon="19.63694">
        <ele>77.140461</ele>
        <time>2022-05-06T10:39:44.537Z</time>
      </trkpt>
      <trkpt lat="41.39285" lon="19.63838">
        <ele>75.549429</ele>
        <time>2022-05-06T10:40:25.590Z</time>
      </trkpt>
      <trkpt lat="41.39489" lon="19.63931">
        <ele>77.381766</ele>
        <time>2022-05-06T10:41:12.547Z</time>
      </trkpt>
      <trkpt lat="41.39678" lon="19.64104">
        <ele>85.227507</ele>
        <time>2022-05-06T10:42:06.545Z</time>
      </trkpt>
      <trkpt lat="41.39844" lon="19.64315">
        <ele>90.620682</ele>
        <time>2022-05-06T10:43:11.554Z</time>
      </trkpt>
      <trkpt lat="41.39968" lon="19.64549">
        <ele>89.182743</ele>
        <time>2022-05-06T10:44:11.592Z</time>
      </trkpt>
      <trkpt lat="41.39917" lon="19.64819">
        <ele>79.113082</ele>
        <time>2022-05-06T10:44:54.542Z</time>
      </trkpt>
      <trkpt lat="41.39824" lon="19.65079">
        <ele>80.212211</ele>
        <time>2022-05-06T10:45:44.647Z</time>
      </trkpt>
      <trkpt lat="41.39679" lon="19.6531">
        <ele>85.16132</ele>
        <time>2022-05-06T10:46:45.556Z</time>
      </trkpt>
      <trkpt lat="41.39559" lon="19.65434">
        <ele>95.26297</ele>
        <time>2022-05-06T10:48:31.551Z</time>
      </trkpt>
      <trkpt lat="41.39402" lon="19.65555">
        <ele>109.615718</ele>
        <time>2022-05-06T10:49:54.547Z</time>
      </trkpt>
      <trkpt lat="41.39323" lon="19.65754">
        <ele>99.063489</ele>
        <time>2022-05-06T10:51:07.534Z</time>
      </trkpt>
      <trkpt lat="41.39159" lon="19.65931">
        <ele>96.136189</ele>
        <time>2022-05-06T10:52:07.536Z</time>
      </trkpt>
      <trkpt lat="41.39046" lon="19.66098">
        <ele>96.172393</ele>
        <time>2022-05-06T10:52:57.565Z</time>
      </trkpt>
      <trkpt lat="41.38938" lon="19.66291">
        <ele>97.328756</ele>
        <time>2022-05-06T10:53:58.546Z</time>
      </trkpt>
      <trkpt lat="41.38761" lon="19.66508">
        <ele>95.966852</ele>
        <time>2022-05-06T10:54:58.538Z</time>
      </trkpt>
      <trkpt lat="41.38581" lon="19.66727">
        <ele>95.940498</ele>
        <time>2022-05-06T10:55:58.574Z</time>
      </trkpt>
      <trkpt lat="41.38403" lon="19.66941">
        <ele>101.394607</ele>
        <time>2022-05-06T10:56:58.552Z</time>
      </trkpt>
      <trkpt lat="41.38246" lon="19.6712">
        <ele>105.526089</ele>
        <time>2022-05-06T10:57:58.541Z</time>
      </trkpt>
      <trkpt lat="41.38058" lon="19.67273">
        <ele>109.389134</ele>
        <time>2022-05-06T10:58:58.534Z</time>
      </trkpt>
      <trkpt lat="41.37851" lon="19.6741">
        <ele>107.539043</ele>
        <time>2022-05-06T10:59:52.549Z</time>
      </trkpt>
      <trkpt lat="41.37661" lon="19.67551">
        <ele>102.929074</ele>
        <time>2022-05-06T11:00:32.539Z</time>
      </trkpt>
      <trkpt lat="41.37483" lon="19.67743">
        <ele>99.076054</ele>
        <time>2022-05-06T11:01:12.541Z</time>
      </trkpt>
      <trkpt lat="41.37322" lon="19.67927">
        <ele>100.788317</ele>
        <time>2022-05-06T11:01:54.588Z</time>
      </trkpt>
      <trkpt lat="41.37195" lon="19.68172">
        <ele>97.787961</ele>
        <time>2022-05-06T11:02:34.546Z</time>
      </trkpt>
      <trkpt lat="41.37078" lon="19.68418">
        <ele>99.670859</ele>
        <time>2022-05-06T11:03:16.550Z</time>
      </trkpt>
      <trkpt lat="41.37108" lon="19.6869">
        <ele>100.126797</ele>
        <time>2022-05-06T11:03:58.542Z</time>
      </trkpt>
      <trkpt lat="41.37121" lon="19.68999">
        <ele>101.916979</ele>
        <time>2022-05-06T11:04:38.537Z</time>
      </trkpt>
      <trkpt lat="41.37072" lon="19.6926">
        <ele>101.648164</ele>
        <time>2022-05-06T11:05:32.539Z</time>
      </trkpt>
      <trkpt lat="41.3702" lon="19.69528">
        <ele>96.343238</ele>
        <time>2022-05-06T11:06:12.546Z</time>
      </trkpt>
      <trkpt lat="41.36967" lon="19.69803">
        <ele>94.857966</ele>
        <time>2022-05-06T11:06:54.546Z</time>
      </trkpt>
      <trkpt lat="41.36917" lon="19.7007">
        <ele>99.866917</ele>
        <time>2022-05-06T11:07:35.551Z</time>
      </trkpt>
      <trkpt lat="41.37057" lon="19.70239">
        <ele>104.362436</ele>
        <time>2022-05-06T11:08:19.536Z</time>
      </trkpt>
      <trkpt lat="41.36874" lon="19.70364">
        <ele>104.276639</ele>
        <time>2022-05-06T11:11:13.570Z</time>
      </trkpt>
      <trkpt lat="41.36669" lon="19.70436">
        <ele>101.896423</ele>
        <time>2022-05-06T11:12:14.568Z</time>
      </trkpt>
      <trkpt lat="41.36545" lon="19.7071">
        <ele>94.976019</ele>
        <time>2022-05-06T11:12:59.546Z</time>
      </trkpt>
      <trkpt lat="41.36436" lon="19.70985">
        <ele>87.558604</ele>
        <time>2022-05-06T11:13:45.539Z</time>
      </trkpt>
      <trkpt lat="41.36355" lon="19.71254">
        <ele>90.131593</ele>
        <time>2022-05-06T11:14:34.545Z</time>
      </trkpt>
      <trkpt lat="41.36282" lon="19.71543">
        <ele>96.013026</ele>
        <time>2022-05-06T11:15:26.556Z</time>
      </trkpt>
      <trkpt lat="41.36207" lon="19.7183">
        <ele>93.424266</ele>
        <time>2022-05-06T11:16:17.552Z</time>
      </trkpt>
      <trkpt lat="41.36129" lon="19.72141">
        <ele>96.332134</ele>
        <time>2022-05-06T11:17:15.556Z</time>
      </trkpt>
      <trkpt lat="41.36061" lon="19.72408">
        <ele>101.432104</ele>
        <time>2022-05-06T11:18:39.559Z</time>
      </trkpt>
      <trkpt lat="41.3597" lon="19.72672">
        <ele>102.187816</ele>
        <time>2022-05-06T11:19:29.562Z</time>
      </trkpt>
      <trkpt lat="41.3588" lon="19.72953">
        <ele>103.637655</ele>
        <time>2022-05-06T11:20:21.551Z</time>
      </trkpt>
      <trkpt lat="41.35792" lon="19.73208">
        <ele>102.778662</ele>
        <time>2022-05-06T11:21:06.575Z</time>
      </trkpt>
      <trkpt lat="41.35699" lon="19.73481">
        <ele>106.760288</ele>
        <time>2022-05-06T11:21:48.571Z</time>
      </trkpt>
      <trkpt lat="41.35616" lon="19.73722">
        <ele>107.380172</ele>
        <time>2022-05-06T11:22:29.529Z</time>
      </trkpt>
      <trkpt lat="41.35526" lon="19.73981">
        <ele>102.606941</ele>
        <time>2022-05-06T11:23:16.548Z</time>
      </trkpt>
      <trkpt lat="41.3544" lon="19.74226">
        <ele>102.584232</ele>
        <time>2022-05-06T11:23:59.560Z</time>
      </trkpt>
      <trkpt lat="41.35261" lon="19.74361">
        <ele>105.032227</ele>
        <time>2022-05-06T11:24:46.554Z</time>
      </trkpt>
      <trkpt lat="41.35073" lon="19.74551">
        <ele>106.755551</ele>
        <time>2022-05-06T11:25:49.540Z</time>
      </trkpt>
      <trkpt lat="41.34939" lon="19.74802">
        <ele>107.923169</ele>
        <time>2022-05-06T11:26:43.566Z</time>
      </trkpt>
      <trkpt lat="41.34795" lon="19.75042">
        <ele>107.71166</ele>
        <time>2022-05-06T11:27:42.560Z</time>
      </trkpt>
      <trkpt lat="41.34666" lon="19.75275">
        <ele>111.222294</ele>
        <time>2022-05-06T11:28:42.553Z</time>
      </trkpt>
      <trkpt lat="41.34512" lon="19.75499">
        <ele>109.756518</ele>
        <time>2022-05-06T11:29:38.563Z</time>
      </trkpt>
      <trkpt lat="41.34344" lon="19.75725">
        <ele>112.724132</ele>
        <time>2022-05-06T11:30:39.552Z</time>
      </trkpt>
      <trkpt lat="41.34181" lon="19.75944">
        <ele>113.298371</ele>
        <time>2022-05-06T11:31:39.614Z</time>
      </trkpt>
      <trkpt lat="41.34019" lon="19.76159">
        <ele>118.268449</ele>
        <time>2022-05-06T11:32:40.560Z</time>
      </trkpt>
      <trkpt lat="41.33889" lon="19.76357">
        <ele>116.779349</ele>
        <time>2022-05-06T11:33:38.579Z</time>
      </trkpt>
      <trkpt lat="41.34073" lon="19.76558">
        <ele>116.078844</ele>
        <time>2022-05-06T11:34:27.575Z</time>
      </trkpt>
      <trkpt lat="41.33939" lon="19.76794">
        <ele>116.038888</ele>
        <time>2022-05-06T11:35:33.547Z</time>
      </trkpt>
      <trkpt lat="41.33786" lon="19.77014">
        <ele>116.353716</ele>
        <time>2022-05-06T11:36:33.537Z</time>
      </trkpt>
      <trkpt lat="41.33617" lon="19.77265">
        <ele>120.726122</ele>
        <time>2022-05-06T11:37:52.544Z</time>
      </trkpt>
      <trkpt lat="41.33459" lon="19.77487">
        <ele>131.482066</ele>
        <time>2022-05-06T11:39:58.550Z</time>
      </trkpt>
      <trkpt lat="41.33312" lon="19.77707">
        <ele>133.636614</ele>
        <time>2022-05-06T11:40:52.547Z</time>
      </trkpt>
      <trkpt lat="41.33162" lon="19.77936">
        <ele>145.846065</ele>
        <time>2022-05-06T11:41:50.544Z</time>
      </trkpt>
      <trkpt lat="41.33017" lon="19.78148">
        <ele>150.659278</ele>
        <time>2022-05-06T11:42:50.561Z</time>
      </trkpt>
      <trkpt lat="41.32873" lon="19.78347">
        <ele>149.927001</ele>
        <time>2022-05-06T11:43:49.551Z</time>
      </trkpt>
      <trkpt lat="41.3277" lon="19.78506">
        <ele>143.898666</ele>
        <time>2022-05-06T11:45:41.545Z</time>
      </trkpt>
      <trkpt lat="41.32594" lon="19.78679">
        <ele>135.778865</ele>
        <time>2022-05-06T11:47:18.590Z</time>
      </trkpt>
      <trkpt lat="41.32391" lon="19.78791">
        <ele>141.033796</ele>
        <time>2022-05-06T11:48:36.553Z</time>
      </trkpt>
      <trkpt lat="41.32198" lon="19.78896">
        <ele>145.134805</ele>
        <time>2022-05-06T11:49:44.557Z</time>
      </trkpt>
      <trkpt lat="41.32207" lon="19.79125">
        <ele>139.395928</ele>
        <time>2022-05-06T11:50:41.586Z</time>
      </trkpt>
      <trkpt lat="41.32296" lon="19.79396">
        <ele>149.287044</ele>
        <time>2022-05-06T11:51:28.544Z</time>
      </trkpt>
      <trkpt lat="41.32354" lon="19.79667">
        <ele>156.859132</ele>
        <time>2022-05-06T11:52:20.531Z</time>
      </trkpt>
      <trkpt lat="41.32433" lon="19.79945">
        <ele>153.893568</ele>
        <time>2022-05-06T11:53:11.557Z</time>
      </trkpt>
      <trkpt lat="41.32527" lon="19.80212">
        <ele>150.481989</ele>
        <time>2022-05-06T11:54:06.532Z</time>
      </trkpt>
      <trkpt lat="41.32606" lon="19.80475">
        <ele>153.730801</ele>
        <time>2022-05-06T11:55:50.551Z</time>
      </trkpt>
      <trkpt lat="41.3262" lon="19.80594">
        <ele>153.730801</ele>
        <time>2022-05-06T11:57:38.908Z</time>
      </trkpt>
    </trkseg>
  </trk>
  <trk>
    <name><![CDATA[Tour d'Europe: étape 674]]></name>
    <extensions>
      <line xmlns="http://www.topografix.com/GPX/gpx_style/0/2">
        <color>880088</color>
        <width>4</width>
      </line>
    </extensions>
    <trkseg>
      <trkpt lat="41.11687" lon="20.08468">
        <ele>100.256413</ele>
        <time>2022-05-03T07:16:55.798Z</time>
      </trkpt>
      <trkpt lat="41.11779" lon="20.08605">
        <ele>145.41062</ele>
        <time>2022-05-03T07:35:32.603Z</time>
      </trkpt>
      <trkpt lat="41.11648" lon="20.08674">
        <ele>184.675137</ele>
        <time>2022-05-03T07:36:47.588Z</time>
      </trkpt>
      <trkpt lat="41.11452" lon="20.08676">
        <ele>179.917246</ele>
        <time>2022-05-03T07:37:35.584Z</time>
      </trkpt>
      <trkpt lat="41.11346" lon="20.08433">
        <ele>180.87337</ele>
        <time>2022-05-03T07:38:31.591Z</time>
      </trkpt>
      <trkpt lat="41.11281" lon="20.08167">
        <ele>173.75903</ele>
        <time>2022-05-03T07:39:29.586Z</time>
      </trkpt>
      <trkpt lat="41.11211" lon="20.07907">
        <ele>183.1456</ele>
        <time>2022-05-03T07:40:31.590Z</time>
      </trkpt>
      <trkpt lat="41.11216" lon="20.07635">
        <ele>194.006898</ele>
        <time>2022-05-03T07:41:30.592Z</time>
      </trkpt>
      <trkpt lat="41.11279" lon="20.07383">
        <ele>188.036468</ele>
        <time>2022-05-03T07:42:19.588Z</time>
      </trkpt>
      <trkpt lat="41.11355" lon="20.07117">
        <ele>184.116663</ele>
        <time>2022-05-03T07:43:17.590Z</time>
      </trkpt>
      <trkpt lat="41.1138" lon="20.06824">
        <ele>180.031364</ele>
        <time>2022-05-03T07:43:59.581Z</time>
      </trkpt>
      <trkpt lat="41.11437" lon="20.06542">
        <ele>175.029454</ele>
        <time>2022-05-03T07:44:44.579Z</time>
      </trkpt>
      <trkpt lat="41.11366" lon="20.06284">
        <ele>166.506064</ele>
        <time>2022-05-03T07:45:22.584Z</time>
      </trkpt>
      <trkpt lat="41.11246" lon="20.06037">
        <ele>163.8446</ele>
        <time>2022-05-03T07:46:13.586Z</time>
      </trkpt>
      <trkpt lat="41.11152" lon="20.05762">
        <ele>161.920071</ele>
        <time>2022-05-03T07:46:53.587Z</time>
      </trkpt>
      <trkpt lat="41.11171" lon="20.05455">
        <ele>163.686829</ele>
        <time>2022-05-03T07:47:41.585Z</time>
      </trkpt>
      <trkpt lat="41.11128" lon="20.05195">
        <ele>165.115253</ele>
        <time>2022-05-03T07:48:37.604Z</time>
      </trkpt>
      <trkpt lat="41.10975" lon="20.05059">
        <ele>155.117318</ele>
        <time>2022-05-03T07:49:17.614Z</time>
      </trkpt>
      <trkpt lat="41.10766" lon="20.04964">
        <ele>148.704542</ele>
        <time>2022-05-03T07:50:08.608Z</time>
      </trkpt>
      <trkpt lat="41.10613" lon="20.04782">
        <ele>150.205995</ele>
        <time>2022-05-03T07:50:49.632Z</time>
      </trkpt>
      <trkpt lat="41.10471" lon="20.04571">
        <ele>149.194234</ele>
        <time>2022-05-03T07:51:36.622Z</time>
      </trkpt>
      <trkpt lat="41.10347" lon="20.04324">
        <ele>144.719513</ele>
        <time>2022-05-03T07:52:24.614Z</time>
      </trkpt>
      <trkpt lat="41.10261" lon="20.04073">
        <ele>143.739086</ele>
        <time>2022-05-03T07:53:11.605Z</time>
      </trkpt>
      <trkpt lat="41.10177" lon="20.03809">
        <ele>144.03569</ele>
        <time>2022-05-03T07:53:57.641Z</time>
      </trkpt>
      <trkpt lat="41.10101" lon="20.03551">
        <ele>143.638171</ele>
        <time>2022-05-03T07:54:42.606Z</time>
      </trkpt>
      <trkpt lat="41.10059" lon="20.0329">
        <ele>140.050436</ele>
        <time>2022-05-03T07:55:24.608Z</time>
      </trkpt>
      <trkpt lat="41.10053" lon="20.02991">
        <ele>143.756144</ele>
        <time>2022-05-03T07:56:23.578Z</time>
      </trkpt>
      <trkpt lat="41.10144" lon="20.02787">
        <ele>140.850863</ele>
        <time>2022-05-03T07:57:23.655Z</time>
      </trkpt>
      <trkpt lat="41.10052" lon="20.02506">
        <ele>138.642152</ele>
        <time>2022-05-03T07:58:23.612Z</time>
      </trkpt>
      <trkpt lat="41.09929" lon="20.02263">
        <ele>133.856158</ele>
        <time>2022-05-03T07:59:15.612Z</time>
      </trkpt>
      <trkpt lat="41.09772" lon="20.02065">
        <ele>131.258642</ele>
        <time>2022-05-03T08:00:04.606Z</time>
      </trkpt>
      <trkpt lat="41.09582" lon="20.01855">
        <ele>129.968589</ele>
        <time>2022-05-03T08:01:04.602Z</time>
      </trkpt>
      <trkpt lat="41.09429" lon="20.01667">
        <ele>138.797807</ele>
        <time>2022-05-03T08:02:18.587Z</time>
      </trkpt>
      <trkpt lat="41.09315" lon="20.01451">
        <ele>144.723914</ele>
        <time>2022-05-03T08:03:21.650Z</time>
      </trkpt>
      <trkpt lat="41.09184" lon="20.01204">
        <ele>139.588557</ele>
        <time>2022-05-03T08:04:06.578Z</time>
      </trkpt>
      <trkpt lat="41.09138" lon="20.00935">
        <ele>144.622673</ele>
        <time>2022-05-03T08:05:27.602Z</time>
      </trkpt>
      <trkpt lat="41.09158" lon="20.00676">
        <ele>157.506413</ele>
        <time>2022-05-03T08:07:11.607Z</time>
      </trkpt>
      <trkpt lat="41.09158" lon="20.00421">
        <ele>165.457183</ele>
        <time>2022-05-03T08:08:55.619Z</time>
      </trkpt>
      <trkpt lat="41.09014" lon="20.00209">
        <ele>162.09306</ele>
        <time>2022-05-03T08:09:56.622Z</time>
      </trkpt>
      <trkpt lat="41.08841" lon="20.00062">
        <ele>151.399271</ele>
        <time>2022-05-03T08:10:36.651Z</time>
      </trkpt>
      <trkpt lat="41.08679" lon="19.99879">
        <ele>147.840864</ele>
        <time>2022-05-03T08:11:17.612Z</time>
      </trkpt>
      <trkpt lat="41.0851" lon="19.99719">
        <ele>151.552703</ele>
        <time>2022-05-03T08:12:04.622Z</time>
      </trkpt>
      <trkpt lat="41.08402" lon="19.9946">
        <ele>159.710512</ele>
        <time>2022-05-03T08:13:04.616Z</time>
      </trkpt>
      <trkpt lat="41.08238" lon="19.99267">
        <ele>154.783636</ele>
        <time>2022-05-03T08:13:56.615Z</time>
      </trkpt>
      <trkpt lat="41.08034" lon="19.98998">
        <ele>147.646796</ele>
        <time>2022-05-03T08:14:36.619Z</time>
      </trkpt>
      <trkpt lat="41.07792" lon="19.98815">
        <ele>139.56223</ele>
        <time>2022-05-03T08:15:16.667Z</time>
      </trkpt>
      <trkpt lat="41.07586" lon="19.98601">
        <ele>134.18116</ele>
        <time>2022-05-03T08:15:56.612Z</time>
      </trkpt>
      <trkpt lat="41.07383" lon="19.98604">
        <ele>133.5393</ele>
        <time>2022-05-03T08:16:38.617Z</time>
      </trkpt>
      <trkpt lat="41.07258" lon="19.98396">
        <ele>133.488125</ele>
        <time>2022-05-03T08:17:21.596Z</time>
      </trkpt>
      <trkpt lat="41.07094" lon="19.98236">
        <ele>127.608121</ele>
        <time>2022-05-03T08:18:06.616Z</time>
      </trkpt>
      <trkpt lat="41.06925" lon="19.98039">
        <ele>132.322438</ele>
        <time>2022-05-03T08:19:02.612Z</time>
      </trkpt>
      <trkpt lat="41.06718" lon="19.97877">
        <ele>127.236982</ele>
        <time>2022-05-03T08:19:43.621Z</time>
      </trkpt>
      <trkpt lat="41.06549" lon="19.97703">
        <ele>124.739087</ele>
        <time>2022-05-03T08:20:29.616Z</time>
      </trkpt>
      <trkpt lat="41.06312" lon="19.97659">
        <ele>118.490908</ele>
        <time>2022-05-03T08:21:09.623Z</time>
      </trkpt>
      <trkpt lat="41.06114" lon="19.9756">
        <ele>115.017019</ele>
        <time>2022-05-03T08:21:53.595Z</time>
      </trkpt>
      <trkpt lat="41.05903" lon="19.975">
        <ele>114.632977</ele>
        <time>2022-05-03T08:22:35.638Z</time>
      </trkpt>
      <trkpt lat="41.05681" lon="19.97409">
        <ele>109.54529</ele>
        <time>2022-05-03T08:23:15.622Z</time>
      </trkpt>
      <trkpt lat="41.05511" lon="19.97278">
        <ele>109.02709</ele>
        <time>2022-05-03T08:23:56.610Z</time>
      </trkpt>
      <trkpt lat="41.05328" lon="19.97135">
        <ele>111.313203</ele>
        <time>2022-05-03T08:24:42.627Z</time>
      </trkpt>
      <trkpt lat="41.05164" lon="19.96984">
        <ele>112.927504</ele>
        <time>2022-05-03T08:25:24.643Z</time>
      </trkpt>
      <trkpt lat="41.05087" lon="19.96696">
        <ele>119.340643</ele>
        <time>2022-05-03T08:26:24.626Z</time>
      </trkpt>
      <trkpt lat="41.05063" lon="19.96407">
        <ele>122.885174</ele>
        <time>2022-05-03T08:27:19.624Z</time>
      </trkpt>
      <trkpt lat="41.05059" lon="19.96152">
        <ele>124.171082</ele>
        <time>2022-05-03T08:28:00.618Z</time>
      </trkpt>
      <trkpt lat="41.05104" lon="19.95864">
        <ele>120.879216</ele>
        <time>2022-05-03T08:28:52.602Z</time>
      </trkpt>
      <trkpt lat="41.05239" lon="19.95667">
        <ele>116.759665</ele>
        <time>2022-05-03T08:29:32.651Z</time>
      </trkpt>
      <trkpt lat="41.05388" lon="19.95483">
        <ele>116.332156</ele>
        <time>2022-05-03T08:30:12.618Z</time>
      </trkpt>
      <trkpt lat="41.05543" lon="19.95325">
        <ele>115.482346</ele>
        <time>2022-05-03T08:30:53.625Z</time>
      </trkpt>
      <trkpt lat="41.0564" lon="19.95103">
        <ele>117.473863</ele>
        <time>2022-05-03T08:31:34.622Z</time>
      </trkpt>
      <trkpt lat="41.05667" lon="19.94847">
        <ele>120.195779</ele>
        <time>2022-05-03T08:32:18.618Z</time>
      </trkpt>
      <trkpt lat="41.0558" lon="19.94597">
        <ele>122.383761</ele>
        <time>2022-05-03T08:33:15.626Z</time>
      </trkpt>
      <trkpt lat="41.05462" lon="19.94367">
        <ele>122.041836</ele>
        <time>2022-05-03T08:34:26.626Z</time>
      </trkpt>
      <trkpt lat="41.05397" lon="19.94047">
        <ele>115.113562</ele>
        <time>2022-05-03T08:35:07.612Z</time>
      </trkpt>
      <trkpt lat="41.05491" lon="19.9375">
        <ele>113.141342</ele>
        <time>2022-05-03T08:35:38.604Z</time>
      </trkpt>
      <trkpt lat="41.05622" lon="19.93528">
        <ele>116.677344</ele>
        <time>2022-05-03T08:36:23.636Z</time>
      </trkpt>
      <trkpt lat="41.05736" lon="19.93288">
        <ele>113.182121</ele>
        <time>2022-05-03T08:37:05.619Z</time>
      </trkpt>
      <trkpt lat="41.05865" lon="19.93104">
        <ele>110.045477</ele>
        <time>2022-05-03T08:37:43.624Z</time>
      </trkpt>
      <trkpt lat="41.06023" lon="19.92948">
        <ele>110.640667</ele>
        <time>2022-05-03T08:38:24.667Z</time>
      </trkpt>
      <trkpt lat="41.06199" lon="19.92829">
        <ele>111.664917</ele>
        <time>2022-05-03T08:39:06.595Z</time>
      </trkpt>
      <trkpt lat="41.06413" lon="19.92683">
        <ele>109.317353</ele>
        <time>2022-05-03T08:39:46.607Z</time>
      </trkpt>
      <trkpt lat="41.06599" lon="19.92532">
        <ele>109.227481</ele>
        <time>2022-05-03T08:40:26.623Z</time>
      </trkpt>
      <trkpt lat="41.06774" lon="19.92362">
        <ele>111.2013</ele>
        <time>2022-05-03T08:41:06.623Z</time>
      </trkpt>
      <trkpt lat="41.06942" lon="19.9214">
        <ele>108.979059</ele>
        <time>2022-05-03T08:41:46.618Z</time>
      </trkpt>
      <trkpt lat="41.07134" lon="19.9196">
        <ele>112.199948</ele>
        <time>2022-05-03T08:42:26.622Z</time>
      </trkpt>
      <trkpt lat="41.07197" lon="19.91681">
        <ele>115.451959</ele>
        <time>2022-05-03T08:43:06.624Z</time>
      </trkpt>
      <trkpt lat="41.07154" lon="19.91413">
        <ele>118.652243</ele>
        <time>2022-05-03T08:43:47.609Z</time>
      </trkpt>
      <trkpt lat="41.07175" lon="19.91115">
        <ele>115.248878</ele>
        <time>2022-05-03T08:44:39.641Z</time>
      </trkpt>
      <trkpt lat="41.07227" lon="19.90862">
        <ele>106.342995</ele>
        <time>2022-05-03T08:45:20.631Z</time>
      </trkpt>
      <trkpt lat="41.07195" lon="19.90572">
        <ele>107.449232</ele>
        <time>2022-05-03T08:46:17.603Z</time>
      </trkpt>
      <trkpt lat="41.07203" lon="19.90291">
        <ele>107.201056</ele>
        <time>2022-05-03T08:47:05.615Z</time>
      </trkpt>
      <trkpt lat="41.07229" lon="19.90001">
        <ele>107.097486</ele>
        <time>2022-05-03T08:47:58.611Z</time>
      </trkpt>
      <trkpt lat="41.07167" lon="19.89735">
        <ele>106.052236</ele>
        <time>2022-05-03T08:48:52.617Z</time>
      </trkpt>
      <trkpt lat="41.07069" lon="19.89493">
        <ele>104.034493</ele>
        <time>2022-05-03T08:49:32.616Z</time>
      </trkpt>
      <trkpt lat="41.06969" lon="19.89282">
        <ele>103.235618</ele>
        <time>2022-05-03T08:50:12.611Z</time>
      </trkpt>
      <trkpt lat="41.06835" lon="19.89097">
        <ele>101.92064</ele>
        <time>2022-05-03T08:50:54.604Z</time>
      </trkpt>
      <trkpt lat="41.06675" lon="19.88931">
        <ele>104.584637</ele>
        <time>2022-05-03T08:51:49.616Z</time>
      </trkpt>
      <trkpt lat="41.06572" lon="19.88682">
        <ele>108.426264</ele>
        <time>2022-05-03T08:52:46.608Z</time>
      </trkpt>
      <trkpt lat="41.06498" lon="19.88446">
        <ele>108.611122</ele>
        <time>2022-05-03T08:53:24.593Z</time>
      </trkpt>
      <trkpt lat="41.06415" lon="19.88191">
        <ele>105.91067</ele>
        <time>2022-05-03T08:54:04.608Z</time>
      </trkpt>
      <trkpt lat="41.0629" lon="19.87962">
        <ele>101.177537</ele>
        <time>2022-05-03T08:54:44.614Z</time>
      </trkpt>
      <trkpt lat="41.06245" lon="19.87684">
        <ele>100.389656</ele>
        <time>2022-05-03T08:55:24.617Z</time>
      </trkpt>
      <trkpt lat="41.06252" lon="19.87352">
        <ele>95.400184</ele>
        <time>2022-05-03T08:56:04.602Z</time>
      </trkpt>
      <trkpt lat="41.06216" lon="19.87073">
        <ele>96.312301</ele>
        <time>2022-05-03T08:56:46.619Z</time>
      </trkpt>
      <trkpt lat="41.06171" lon="19.86787">
        <ele>98.579674</ele>
        <time>2022-05-03T08:57:41.617Z</time>
      </trkpt>
      <trkpt lat="41.06108" lon="19.86488">
        <ele>97.680451</ele>
        <time>2022-05-03T08:58:41.621Z</time>
      </trkpt>
      <trkpt lat="41.06069" lon="19.86194">
        <ele>99.244127</ele>
        <time>2022-05-03T08:59:35.609Z</time>
      </trkpt>
      <trkpt lat="41.05995" lon="19.85927">
        <ele>97.168737</ele>
        <time>2022-05-03T09:00:24.612Z</time>
      </trkpt>
      <trkpt lat="41.05856" lon="19.85675">
        <ele>93.67434</ele>
        <time>2022-05-03T09:01:06.625Z</time>
      </trkpt>
      <trkpt lat="41.05756" lon="19.85429">
        <ele>93.410779</ele>
        <time>2022-05-03T09:01:58.658Z</time>
      </trkpt>
      <trkpt lat="41.05752" lon="19.85175">
        <ele>104.321699</ele>
        <time>2022-05-03T09:02:58.586Z</time>
      </trkpt>
      <trkpt lat="41.05779" lon="19.84879">
        <ele>102.314096</ele>
        <time>2022-05-03T09:03:58.604Z</time>
      </trkpt>
      <trkpt lat="41.05669" lon="19.84612">
        <ele>99.39089</ele>
        <time>2022-05-03T09:04:58.604Z</time>
      </trkpt>
      <trkpt lat="41.05584" lon="19.84337">
        <ele>101.019633</ele>
        <time>2022-05-03T09:05:58.609Z</time>
      </trkpt>
      <trkpt lat="41.05535" lon="19.84033">
        <ele>104.392093</ele>
        <time>2022-05-03T09:06:58.606Z</time>
      </trkpt>
      <trkpt lat="41.05491" lon="19.83733">
        <ele>108.924203</ele>
        <time>2022-05-03T09:07:58.593Z</time>
      </trkpt>
      <trkpt lat="41.05357" lon="19.83528">
        <ele>107.54585</ele>
        <time>2022-05-03T09:08:59.606Z</time>
      </trkpt>
      <trkpt lat="41.05233" lon="19.83313">
        <ele>101.527374</ele>
        <time>2022-05-03T09:09:42.613Z</time>
      </trkpt>
      <trkpt lat="41.05172" lon="19.83029">
        <ele>98.905571</ele>
        <time>2022-05-03T09:10:22.691Z</time>
      </trkpt>
      <trkpt lat="41.0508" lon="19.82757">
        <ele>97.58833</ele>
        <time>2022-05-03T09:11:00.596Z</time>
      </trkpt>
      <trkpt lat="41.05044" lon="19.82465">
        <ele>98.196537</ele>
        <time>2022-05-03T09:11:46.597Z</time>
      </trkpt>
      <trkpt lat="41.04969" lon="19.82219">
        <ele>97.759168</ele>
        <time>2022-05-03T09:12:32.621Z</time>
      </trkpt>
      <trkpt lat="41.04812" lon="19.82026">
        <ele>94.004488</ele>
        <time>2022-05-03T09:13:12.643Z</time>
      </trkpt>
      <trkpt lat="41.04691" lon="19.81806">
        <ele>93.713786</ele>
        <time>2022-05-03T09:13:52.628Z</time>
      </trkpt>
      <trkpt lat="41.04589" lon="19.81575">
        <ele>92.737511</ele>
        <time>2022-05-03T09:14:32.618Z</time>
      </trkpt>
      <trkpt lat="41.04489" lon="19.81334">
        <ele>90.676857</ele>
        <time>2022-05-03T09:15:12.657Z</time>
      </trkpt>
      <trkpt lat="41.04363" lon="19.81026">
        <ele>86.165133</ele>
        <time>2022-05-03T09:15:52.613Z</time>
      </trkpt>
      <trkpt lat="41.04337" lon="19.80755">
        <ele>87.456335</ele>
        <time>2022-05-03T09:16:34.649Z</time>
      </trkpt>
      <trkpt lat="41.04369" lon="19.80449">
        <ele>88.742591</ele>
        <time>2022-05-03T09:17:27.624Z</time>
      </trkpt>
      <trkpt lat="41.04386" lon="19.80147">
        <ele>91.80994</ele>
        <time>2022-05-03T09:18:27.659Z</time>
      </trkpt>
      <trkpt lat="41.04386" lon="19.79842">
        <ele>93.256495</ele>
        <time>2022-05-03T09:19:27.632Z</time>
      </trkpt>
      <trkpt lat="41.0442" lon="19.79552">
        <ele>91.051246</ele>
        <time>2022-05-03T09:20:22.614Z</time>
      </trkpt>
      <trkpt lat="41.04449" lon="19.79245">
        <ele>88.617686</ele>
        <time>2022-05-03T09:21:02.657Z</time>
      </trkpt>
      <trkpt lat="41.04434" lon="19.78985">
        <ele>87.412364</ele>
        <time>2022-05-03T09:21:44.617Z</time>
      </trkpt>
      <trkpt lat="41.04417" lon="19.78707">
        <ele>86.999579</ele>
        <time>2022-05-03T09:22:24.621Z</time>
      </trkpt>
      <trkpt lat="41.04388" lon="19.7842">
        <ele>85.070525</ele>
        <time>2022-05-03T09:23:04.666Z</time>
      </trkpt>
      <trkpt lat="41.04348" lon="19.78103">
        <ele>81.563565</ele>
        <time>2022-05-03T09:23:44.596Z</time>
      </trkpt>
      <trkpt lat="41.04292" lon="19.77792">
        <ele>78.29438</ele>
        <time>2022-05-03T09:24:24.623Z</time>
      </trkpt>
      <trkpt lat="41.04227" lon="19.77514">
        <ele>77.135177</ele>
        <time>2022-05-03T09:25:06.673Z</time>
      </trkpt>
      <trkpt lat="41.04177" lon="19.77257">
        <ele>77.007332</ele>
        <time>2022-05-03T09:25:47.616Z</time>
      </trkpt>
      <trkpt lat="41.04164" lon="19.76962">
        <ele>78.540168</ele>
        <time>2022-05-03T09:26:35.629Z</time>
      </trkpt>
      <trkpt lat="41.04061" lon="19.767">
        <ele>78.047104</ele>
        <time>2022-05-03T09:27:29.657Z</time>
      </trkpt>
      <trkpt lat="41.0418" lon="19.76413">
        <ele>74.077591</ele>
        <time>2022-05-03T09:28:09.613Z</time>
      </trkpt>
      <trkpt lat="41.0428" lon="19.76148">
        <ele>79.002519</ele>
        <time>2022-05-03T09:29:03.638Z</time>
      </trkpt>
      <trkpt lat="41.04439" lon="19.75996">
        <ele>83.843908</ele>
        <time>2022-05-03T09:30:32.638Z</time>
      </trkpt>
      <trkpt lat="41.04542" lon="19.75703">
        <ele>83.832175</ele>
        <time>2022-05-03T09:31:27.615Z</time>
      </trkpt>
      <trkpt lat="41.04619" lon="19.75411">
        <ele>93.369335</ele>
        <time>2022-05-03T09:32:43.624Z</time>
      </trkpt>
      <trkpt lat="41.04571" lon="19.75115">
        <ele>103.761178</ele>
        <time>2022-05-03T10:04:44.655Z</time>
      </trkpt>
      <trkpt lat="41.04629" lon="19.74833">
        <ele>97.584005</ele>
        <time>2022-05-03T10:05:41.623Z</time>
      </trkpt>
      <trkpt lat="41.04703" lon="19.7455">
        <ele>76.318936</ele>
        <time>2022-05-03T10:06:34.663Z</time>
      </trkpt>
      <trkpt lat="41.04707" lon="19.74258">
        <ele>73.603516</ele>
        <time>2022-05-03T10:07:36.614Z</time>
      </trkpt>
      <trkpt lat="41.04776" lon="19.7397">
        <ele>69.661373</ele>
        <time>2022-05-03T10:08:36.615Z</time>
      </trkpt>
      <trkpt lat="41.04826" lon="19.73686">
        <ele>70.198731</ele>
        <time>2022-05-03T10:09:25.619Z</time>
      </trkpt>
      <trkpt lat="41.04955" lon="19.73445">
        <ele>72.448438</ele>
        <time>2022-05-03T10:10:22.624Z</time>
      </trkpt>
      <trkpt lat="41.05039" lon="19.73174">
        <ele>72.495021</ele>
        <time>2022-05-03T10:11:13.627Z</time>
      </trkpt>
      <trkpt lat="41.05086" lon="19.72884">
        <ele>71.453374</ele>
        <time>2022-05-03T10:12:03.647Z</time>
      </trkpt>
      <trkpt lat="41.05177" lon="19.72621">
        <ele>67.303577</ele>
        <time>2022-05-03T10:12:43.611Z</time>
      </trkpt>
      <trkpt lat="41.05271" lon="19.7235">
        <ele>63.93153</ele>
        <time>2022-05-03T10:13:23.675Z</time>
      </trkpt>
      <trkpt lat="41.05314" lon="19.72078">
        <ele>64.91128</ele>
        <time>2022-05-03T10:14:03.631Z</time>
      </trkpt>
      <trkpt lat="41.0545" lon="19.71845">
        <ele>66.461739</ele>
        <time>2022-05-03T10:14:43.639Z</time>
      </trkpt>
      <trkpt lat="41.05586" lon="19.71595">
        <ele>63.570256</ele>
        <time>2022-05-03T10:15:27.658Z</time>
      </trkpt>
      <trkpt lat="41.0572" lon="19.71396">
        <ele>63.513334</ele>
        <time>2022-05-03T10:16:05.616Z</time>
      </trkpt>
      <trkpt lat="41.05847" lon="19.71173">
        <ele>64.164129</ele>
        <time>2022-05-03T10:16:45.605Z</time>
      </trkpt>
      <trkpt lat="41.05886" lon="19.709">
        <ele>67.283337</ele>
        <time>2022-05-03T10:17:31.654Z</time>
      </trkpt>
      <trkpt lat="41.05924" lon="19.7062">
        <ele>68.761844</ele>
        <time>2022-05-03T10:18:20.635Z</time>
      </trkpt>
      <trkpt lat="41.05962" lon="19.70355">
        <ele>66.911939</ele>
        <time>2022-05-03T10:19:00.626Z</time>
      </trkpt>
      <trkpt lat="41.06007" lon="19.70035">
        <ele>61.782756</ele>
        <time>2022-05-03T10:19:40.624Z</time>
      </trkpt>
      <trkpt lat="41.06079" lon="19.69693">
        <ele>57.092559</ele>
        <time>2022-05-03T10:20:20.630Z</time>
      </trkpt>
      <trkpt lat="41.06156" lon="19.69462">
        <ele>55.38756</ele>
        <time>2022-05-03T10:21:00.625Z</time>
      </trkpt>
      <trkpt lat="41.06254" lon="19.69222">
        <ele>58.462057</ele>
        <time>2022-05-03T10:21:41.626Z</time>
      </trkpt>
      <trkpt lat="41.06366" lon="19.68959">
        <ele>58.128093</ele>
        <time>2022-05-03T10:22:21.617Z</time>
      </trkpt>
      <trkpt lat="41.06479" lon="19.68698">
        <ele>58.515694</ele>
        <time>2022-05-03T10:23:01.614Z</time>
      </trkpt>
      <trkpt lat="41.06589" lon="19.6844">
        <ele>55.453728</ele>
        <time>2022-05-03T10:23:41.616Z</time>
      </trkpt>
      <trkpt lat="41.06696" lon="19.68183">
        <ele>53.894926</ele>
        <time>2022-05-03T10:24:21.626Z</time>
      </trkpt>
      <trkpt lat="41.06835" lon="19.67984">
        <ele>54.918995</ele>
        <time>2022-05-03T10:25:01.609Z</time>
      </trkpt>
      <trkpt lat="41.06976" lon="19.67763">
        <ele>56.586578</ele>
        <time>2022-05-03T10:25:41.615Z</time>
      </trkpt>
      <trkpt lat="41.07125" lon="19.67538">
        <ele>58.41435</ele>
        <time>2022-05-03T10:26:34.634Z</time>
      </trkpt>
      <trkpt lat="41.07278" lon="19.67338">
        <ele>61.553095</ele>
        <time>2022-05-03T10:27:27.627Z</time>
      </trkpt>
      <trkpt lat="41.07374" lon="19.67093">
        <ele>63.465701</ele>
        <time>2022-05-03T10:28:12.613Z</time>
      </trkpt>
      <trkpt lat="41.07476" lon="19.66829">
        <ele>67.657895</ele>
        <time>2022-05-03T10:28:53.621Z</time>
      </trkpt>
      <trkpt lat="41.07567" lon="19.6658">
        <ele>69.239906</ele>
        <time>2022-05-03T10:29:52.622Z</time>
      </trkpt>
      <trkpt lat="41.07663" lon="19.66332">
        <ele>66.033278</ele>
        <time>2022-05-03T10:30:45.603Z</time>
      </trkpt>
      <trkpt lat="41.0776" lon="19.66096">
        <ele>62.234378</ele>
        <time>2022-05-03T10:31:28.625Z</time>
      </trkpt>
      <trkpt lat="41.0786" lon="19.65823">
        <ele>61.469648</ele>
        <time>2022-05-03T10:32:23.630Z</time>
      </trkpt>
      <trkpt lat="41.07922" lon="19.6553">
        <ele>61.133249</ele>
        <time>2022-05-03T10:33:16.625Z</time>
      </trkpt>
      <trkpt lat="41.07891" lon="19.65228">
        <ele>62.487568</ele>
        <time>2022-05-03T10:34:15.630Z</time>
      </trkpt>
      <trkpt lat="41.07844" lon="19.64947">
        <ele>59.259954</ele>
        <time>2022-05-03T10:34:58.630Z</time>
      </trkpt>
      <trkpt lat="41.07774" lon="19.6466">
        <ele>56.987859</ele>
        <time>2022-05-03T10:35:44.627Z</time>
      </trkpt>
      <trkpt lat="41.0765" lon="19.64449">
        <ele>58.920579</ele>
        <time>2022-05-03T10:36:28.625Z</time>
      </trkpt>
      <trkpt lat="41.07538" lon="19.64214">
        <ele>60.157232</ele>
        <time>2022-05-03T10:37:08.637Z</time>
      </trkpt>
      <trkpt lat="41.07435" lon="19.63945">
        <ele>55.63983</ele>
        <time>2022-05-03T10:37:48.619Z</time>
      </trkpt>
      <trkpt lat="41.07325" lon="19.63701">
        <ele>55.060712</ele>
        <time>2022-05-03T10:38:42.653Z</time>
      </trkpt>
      <trkpt lat="41.07197" lon="19.63597">
        <ele>53.562155</ele>
        <time>2022-05-03T10:39:34.615Z</time>
      </trkpt>
      <trkpt lat="41.07317" lon="19.63369">
        <ele>50.558352</ele>
        <time>2022-05-03T10:40:26.628Z</time>
      </trkpt>
      <trkpt lat="41.07439" lon="19.63112">
        <ele>52.013183</ele>
        <time>2022-05-03T10:41:18.665Z</time>
      </trkpt>
      <trkpt lat="41.0757" lon="19.6287">
        <ele>53.572282</ele>
        <time>2022-05-03T10:42:18.627Z</time>
      </trkpt>
      <trkpt lat="41.07701" lon="19.62665">
        <ele>52.497491</ele>
        <time>2022-05-03T10:43:03.666Z</time>
      </trkpt>
      <trkpt lat="41.07871" lon="19.62513">
        <ele>52.7205</ele>
        <time>2022-05-03T10:43:48.641Z</time>
      </trkpt>
      <trkpt lat="41.0803" lon="19.62318">
        <ele>51.483233</ele>
        <time>2022-05-03T10:44:32.663Z</time>
      </trkpt>
      <trkpt lat="41.08205" lon="19.62089">
        <ele>47.603059</ele>
        <time>2022-05-03T10:45:12.626Z</time>
      </trkpt>
      <trkpt lat="41.08366" lon="19.61881">
        <ele>46.991384</ele>
        <time>2022-05-03T10:45:55.628Z</time>
      </trkpt>
      <trkpt lat="41.08512" lon="19.61666">
        <ele>48.297088</ele>
        <time>2022-05-03T10:46:35.683Z</time>
      </trkpt>
      <trkpt lat="41.08653" lon="19.61454">
        <ele>49.165574</ele>
        <time>2022-05-03T10:47:15.664Z</time>
      </trkpt>
      <trkpt lat="41.08791" lon="19.61243">
        <ele>50.009892</ele>
        <time>2022-05-03T10:47:59.645Z</time>
      </trkpt>
      <trkpt lat="41.08888" lon="19.61062">
        <ele>53.615791</ele>
        <time>2022-05-03T10:48:49.631Z</time>
      </trkpt>
      <trkpt lat="41.08882" lon="19.61278">
        <ele>55.091605</ele>
        <time>2022-05-03T10:49:58.628Z</time>
      </trkpt>
      <trkpt lat="41.09003" lon="19.61502">
        <ele>61.2094</ele>
        <time>2022-05-03T10:51:03.632Z</time>
      </trkpt>
      <trkpt lat="41.09192" lon="19.61371">
        <ele>59.563671</ele>
        <time>2022-05-03T10:51:52.631Z</time>
      </trkpt>
      <trkpt lat="41.09392" lon="19.61235">
        <ele>55.223997</ele>
        <time>2022-05-03T10:52:34.624Z</time>
      </trkpt>
      <trkpt lat="41.0958" lon="19.61148">
        <ele>56.420337</ele>
        <time>2022-05-03T10:53:16.628Z</time>
      </trkpt>
      <trkpt lat="41.09765" lon="19.61065">
        <ele>55.566672</ele>
        <time>2022-05-03T10:53:58.620Z</time>
      </trkpt>
      <trkpt lat="41.1001" lon="19.60958">
        <ele>57.675482</ele>
        <time>2022-05-03T10:54:58.616Z</time>
      </trkpt>
      <trkpt lat="41.10239" lon="19.60925">
        <ele>59.332184</ele>
        <time>2022-05-03T10:55:44.627Z</time>
      </trkpt>
      <trkpt lat="41.10482" lon="19.60899">
        <ele>56.048032</ele>
        <time>2022-05-03T10:56:24.627Z</time>
      </trkpt>
      <trkpt lat="41.1067" lon="19.60847">
        <ele>57.807211</ele>
        <time>2022-05-03T10:57:04.618Z</time>
      </trkpt>
      <trkpt lat="41.10884" lon="19.60756">
        <ele>63.72922</ele>
        <time>2022-05-03T10:58:01.640Z</time>
      </trkpt>
      <trkpt lat="41.11095" lon="19.60663">
        <ele>65.831273</ele>
        <time>2022-05-03T10:59:01.632Z</time>
      </trkpt>
      <trkpt lat="41.11289" lon="19.60577">
        <ele>63.968904</ele>
        <time>2022-05-03T10:59:46.624Z</time>
      </trkpt>
      <trkpt lat="41.11486" lon="19.6049">
        <ele>61.684889</ele>
        <time>2022-05-03T11:00:28.617Z</time>
      </trkpt>
      <trkpt lat="41.11696" lon="19.60403">
        <ele>61.857683</ele>
        <time>2022-05-03T11:01:08.623Z</time>
      </trkpt>
      <trkpt lat="41.11893" lon="19.60316">
        <ele>63.209557</ele>
        <time>2022-05-03T11:01:48.625Z</time>
      </trkpt>
      <trkpt lat="41.12074" lon="19.60205">
        <ele>63.86915</ele>
        <time>2022-05-03T11:02:30.628Z</time>
      </trkpt>
      <trkpt lat="41.123" lon="19.60093">
        <ele>61.417973</ele>
        <time>2022-05-03T11:03:10.652Z</time>
      </trkpt>
      <trkpt lat="41.12496" lon="19.59995">
        <ele>61.185925</ele>
        <time>2022-05-03T11:03:53.632Z</time>
      </trkpt>
      <trkpt lat="41.12691" lon="19.599">
        <ele>62.105645</ele>
        <time>2022-05-03T11:04:37.630Z</time>
      </trkpt>
      <trkpt lat="41.12868" lon="19.59817">
        <ele>64.146752</ele>
        <time>2022-05-03T11:05:15.643Z</time>
      </trkpt>
      <trkpt lat="41.13053" lon="19.59723">
        <ele>64.266344</ele>
        <time>2022-05-03T11:05:55.621Z</time>
      </trkpt>
      <trkpt lat="41.13266" lon="19.59625">
        <ele>67.822158</ele>
        <time>2022-05-03T11:06:46.618Z</time>
      </trkpt>
      <trkpt lat="41.13397" lon="19.59736">
        <ele>69.044706</ele>
        <time>2022-05-03T11:07:51.620Z</time>
      </trkpt>
      <trkpt lat="41.13456" lon="19.59536">
        <ele>64.566341</ele>
        <time>2022-05-03T11:08:50.633Z</time>
      </trkpt>
      <trkpt lat="41.13662" lon="19.59439">
        <ele>69.859361</ele>
        <time>2022-05-03T11:09:54.636Z</time>
      </trkpt>
      <trkpt lat="41.13868" lon="19.59341">
        <ele>68.517923</ele>
        <time>2022-05-03T11:10:55.628Z</time>
      </trkpt>
      <trkpt lat="41.14082" lon="19.59239">
        <ele>68.902169</ele>
        <time>2022-05-03T11:11:53.620Z</time>
      </trkpt>
      <trkpt lat="41.14301" lon="19.59134">
        <ele>67.905465</ele>
        <time>2022-05-03T11:12:53.644Z</time>
      </trkpt>
      <trkpt lat="41.14506" lon="19.59073">
        <ele>74.517194</ele>
        <time>2022-05-03T11:13:58.612Z</time>
      </trkpt>
      <trkpt lat="41.14696" lon="19.58943">
        <ele>70.429108</ele>
        <time>2022-05-03T11:14:43.626Z</time>
      </trkpt>
      <trkpt lat="41.14898" lon="19.58812">
        <ele>65.246538</ele>
        <time>2022-05-03T11:15:23.620Z</time>
      </trkpt>
      <trkpt lat="41.15043" lon="19.58603">
        <ele>67.413906</ele>
        <time>2022-05-03T11:16:10.628Z</time>
      </trkpt>
      <trkpt lat="41.15223" lon="19.58477">
        <ele>64.075204</ele>
        <time>2022-05-03T11:16:52.629Z</time>
      </trkpt>
      <trkpt lat="41.15403" lon="19.58353">
        <ele>62.218389</ele>
        <time>2022-05-03T11:17:32.651Z</time>
      </trkpt>
      <trkpt lat="41.15577" lon="19.58224">
        <ele>65.186695</ele>
        <time>2022-05-03T11:18:13.686Z</time>
      </trkpt>
      <trkpt lat="41.15763" lon="19.58092">
        <ele>68.356794</ele>
        <time>2022-05-03T11:18:53.635Z</time>
      </trkpt>
      <trkpt lat="41.15957" lon="19.57951">
        <ele>66.870245</ele>
        <time>2022-05-03T11:19:33.621Z</time>
      </trkpt>
      <trkpt lat="41.16155" lon="19.57804">
        <ele>65.977897</ele>
        <time>2022-05-03T11:20:13.625Z</time>
      </trkpt>
      <trkpt lat="41.16344" lon="19.57668">
        <ele>63.238791</ele>
        <time>2022-05-03T11:20:53.626Z</time>
      </trkpt>
      <trkpt lat="41.16551" lon="19.57515">
        <ele>61.386764</ele>
        <time>2022-05-03T11:21:33.636Z</time>
      </trkpt>
      <trkpt lat="41.16723" lon="19.57397">
        <ele>59.651762</ele>
        <time>2022-05-03T11:22:11.637Z</time>
      </trkpt>
      <trkpt lat="41.16916" lon="19.57261">
        <ele>60.642023</ele>
        <time>2022-05-03T11:22:51.631Z</time>
      </trkpt>
      <trkpt lat="41.1712" lon="19.57115">
        <ele>58.794975</ele>
        <time>2022-05-03T11:23:31.628Z</time>
      </trkpt>
      <trkpt lat="41.17314" lon="19.56968">
        <ele>56.262967</ele>
        <time>2022-05-03T11:24:11.645Z</time>
      </trkpt>
      <trkpt lat="41.17434" lon="19.56761">
        <ele>59.670815</ele>
        <time>2022-05-03T11:24:52.791Z</time>
      </trkpt>
      <trkpt lat="41.17395" lon="19.56912">
        <ele>65.97661</ele>
        <time>2022-05-03T11:25:53.638Z</time>
      </trkpt>
      <trkpt lat="41.17581" lon="19.56775">
        <ele>70.829951</ele>
        <time>2022-05-03T11:26:40.619Z</time>
      </trkpt>
      <trkpt lat="41.17766" lon="19.56633">
        <ele>72.425918</ele>
        <time>2022-05-03T11:27:25.611Z</time>
      </trkpt>
      <trkpt lat="41.17951" lon="19.56501">
        <ele>65.893992</ele>
        <time>2022-05-03T11:28:07.613Z</time>
      </trkpt>
      <trkpt lat="41.18138" lon="19.56368">
        <ele>74.895086</ele>
        <time>2022-05-03T11:28:53.627Z</time>
      </trkpt>
      <trkpt lat="41.18322" lon="19.56227">
        <ele>78.300034</ele>
        <time>2022-05-03T11:29:38.626Z</time>
      </trkpt>
      <trkpt lat="41.18506" lon="19.56071">
        <ele>75.208879</ele>
        <time>2022-05-03T11:30:38.628Z</time>
      </trkpt>
      <trkpt lat="41.18698" lon="19.55871">
        <ele>82.537751</ele>
        <time>2022-05-03T11:31:38.625Z</time>
      </trkpt>
      <trkpt lat="41.18859" lon="19.55705">
        <ele>76.248457</ele>
        <time>2022-05-03T11:32:19.653Z</time>
      </trkpt>
      <trkpt lat="41.19014" lon="19.55536">
        <ele>77.482708</ele>
        <time>2022-05-03T11:33:00.617Z</time>
      </trkpt>
      <trkpt lat="41.19183" lon="19.55375">
        <ele>76.729691</ele>
        <time>2022-05-03T11:33:40.622Z</time>
      </trkpt>
      <trkpt lat="41.19349" lon="19.5522">
        <ele>66.320754</ele>
        <time>2022-05-03T11:34:21.650Z</time>
      </trkpt>
      <trkpt lat="41.19513" lon="19.55041">
        <ele>62.840779</ele>
        <time>2022-05-03T11:35:06.635Z</time>
      </trkpt>
      <trkpt lat="41.19636" lon="19.54854">
        <ele>64.816782</ele>
        <time>2022-05-03T12:28:10.679Z</time>
      </trkpt>
      <trkpt lat="41.19768" lon="19.54633">
        <ele>61.252299</ele>
        <time>2022-05-03T12:28:53.636Z</time>
      </trkpt>
      <trkpt lat="41.19892" lon="19.54427">
        <ele>59.703153</ele>
        <time>2022-05-03T12:29:33.615Z</time>
      </trkpt>
      <trkpt lat="41.20014" lon="19.54228">
        <ele>55.739173</ele>
        <time>2022-05-03T12:30:11.635Z</time>
      </trkpt>
      <trkpt lat="41.20149" lon="19.54011">
        <ele>51.548092</ele>
        <time>2022-05-03T12:30:57.610Z</time>
      </trkpt>
      <trkpt lat="41.20275" lon="19.538">
        <ele>50.357709</ele>
        <time>2022-05-03T12:31:37.638Z</time>
      </trkpt>
      <trkpt lat="41.20404" lon="19.53592">
        <ele>52.260837</ele>
        <time>2022-05-03T12:32:19.650Z</time>
      </trkpt>
      <trkpt lat="41.20596" lon="19.53513">
        <ele>52.777838</ele>
        <time>2022-05-03T12:33:07.624Z</time>
      </trkpt>
      <trkpt lat="41.20575" lon="19.53312">
        <ele>53.993197</ele>
        <time>2022-05-03T12:34:12.633Z</time>
      </trkpt>
      <trkpt lat="41.2074" lon="19.53401">
        <ele>48.734921</ele>
        <time>2022-05-03T12:34:52.651Z</time>
      </trkpt>
      <trkpt lat="41.20937" lon="19.53339">
        <ele>47.314183</ele>
        <time>2022-05-03T12:35:32.632Z</time>
      </trkpt>
      <trkpt lat="41.2114" lon="19.53254">
        <ele>46.634137</ele>
        <time>2022-05-03T12:36:12.652Z</time>
      </trkpt>
      <trkpt lat="41.21337" lon="19.53172">
        <ele>47.823725</ele>
        <time>2022-05-03T12:36:52.627Z</time>
      </trkpt>
      <trkpt lat="41.21481" lon="19.53008">
        <ele>48.098458</ele>
        <time>2022-05-03T12:37:44.624Z</time>
      </trkpt>
      <trkpt lat="41.21667" lon="19.52855">
        <ele>48.01237</ele>
        <time>2022-05-03T12:38:37.680Z</time>
      </trkpt>
      <trkpt lat="41.21845" lon="19.52707">
        <ele>49.128731</ele>
        <time>2022-05-03T12:39:26.631Z</time>
      </trkpt>
      <trkpt lat="41.22018" lon="19.52559">
        <ele>48.029125</ele>
        <time>2022-05-03T12:40:11.628Z</time>
      </trkpt>
      <trkpt lat="41.22211" lon="19.52415">
        <ele>47.421062</ele>
        <time>2022-05-03T12:41:04.636Z</time>
      </trkpt>
      <trkpt lat="41.22398" lon="19.52298">
        <ele>45.98654</ele>
        <time>2022-05-03T12:41:49.638Z</time>
      </trkpt>
      <trkpt lat="41.2251" lon="19.52123">
        <ele>46.228323</ele>
        <time>2022-05-03T12:42:41.636Z</time>
      </trkpt>
      <trkpt lat="41.22596" lon="19.51883">
        <ele>44.803397</ele>
        <time>2022-05-03T12:43:33.647Z</time>
      </trkpt>
      <trkpt lat="41.22796" lon="19.51869">
        <ele>46.489617</ele>
        <time>2022-05-03T12:44:31.636Z</time>
      </trkpt>
      <trkpt lat="41.2301" lon="19.51977">
        <ele>50.66698</ele>
        <time>2022-05-03T12:45:22.643Z</time>
      </trkpt>
      <trkpt lat="41.23179" lon="19.519">
        <ele>43.400929</ele>
        <time>2022-05-03T12:46:18.642Z</time>
      </trkpt>
      <trkpt lat="41.23114" lon="19.51656">
        <ele>42.715257</ele>
        <time>2022-05-03T12:47:19.640Z</time>
      </trkpt>
      <trkpt lat="41.23181" lon="19.51932">
        <ele>41.263433</ele>
        <time>2022-05-03T12:48:10.632Z</time>
      </trkpt>
      <trkpt lat="41.23254" lon="19.51753">
        <ele>47.874977</ele>
        <time>2022-05-03T12:49:07.637Z</time>
      </trkpt>
      <trkpt lat="41.23386" lon="19.51698">
        <ele>56.997123</ele>
        <time>2022-05-03T12:50:18.636Z</time>
      </trkpt>
      <trkpt lat="41.23561" lon="19.5166">
        <ele>62.167506</ele>
        <time>2022-05-03T12:51:32.626Z</time>
      </trkpt>
      <trkpt lat="41.23769" lon="19.51741">
        <ele>59.397641</ele>
        <time>2022-05-03T12:52:23.675Z</time>
      </trkpt>
      <trkpt lat="41.23983" lon="19.51778">
        <ele>56.304491</ele>
        <time>2022-05-03T12:53:10.615Z</time>
      </trkpt>
      <trkpt lat="41.24208" lon="19.51841">
        <ele>57.490974</ele>
        <time>2022-05-03T12:54:02.645Z</time>
      </trkpt>
      <trkpt lat="41.2442" lon="19.51905">
        <ele>45.933695</ele>
        <time>2022-05-03T12:54:46.637Z</time>
      </trkpt>
      <trkpt lat="41.24618" lon="19.51955">
        <ele>40.027401</ele>
        <time>2022-05-03T12:55:26.685Z</time>
      </trkpt>
      <trkpt lat="41.24786" lon="19.52072">
        <ele>40.935353</ele>
        <time>2022-05-03T12:56:08.641Z</time>
      </trkpt>
      <trkpt lat="41.24979" lon="19.52076">
        <ele>44.643527</ele>
        <time>2022-05-03T12:56:48.647Z</time>
      </trkpt>
      <trkpt lat="41.25202" lon="19.52096">
        <ele>52.616141</ele>
        <time>2022-05-03T12:57:41.640Z</time>
      </trkpt>
      <trkpt lat="41.25436" lon="19.52088">
        <ele>54.188333</ele>
        <time>2022-05-03T12:58:43.622Z</time>
      </trkpt>
      <trkpt lat="41.25647" lon="19.52053">
        <ele>50.388792</ele>
        <time>2022-05-03T12:59:45.639Z</time>
      </trkpt>
      <trkpt lat="41.25847" lon="19.52081">
        <ele>47.0423</ele>
        <time>2022-05-03T13:01:04.649Z</time>
      </trkpt>
      <trkpt lat="41.26002" lon="19.52159">
        <ele>51.110735</ele>
        <time>2022-05-03T13:02:28.633Z</time>
      </trkpt>
      <trkpt lat="41.26039" lon="19.52431">
        <ele>47.610731</ele>
        <time>2022-05-03T13:03:30.672Z</time>
      </trkpt>
      <trkpt lat="41.26179" lon="19.52485">
        <ele>46.007444</ele>
        <time>2022-05-03T13:05:09.635Z</time>
      </trkpt>
      <trkpt lat="41.26385" lon="19.52419">
        <ele>52.464078</ele>
        <time>2022-05-03T13:06:05.635Z</time>
      </trkpt>
      <trkpt lat="41.2658" lon="19.52287">
        <ele>49.37125</ele>
        <time>2022-05-03T13:06:53.642Z</time>
      </trkpt>
      <trkpt lat="41.2676" lon="19.52123">
        <ele>75.549784</ele>
        <time>2022-05-03T13:07:51.622Z</time>
      </trkpt>
      <trkpt lat="41.26948" lon="19.51979">
        <ele>84.292517</ele>
        <time>2022-05-03T13:08:44.641Z</time>
      </trkpt>
      <trkpt lat="41.27138" lon="19.51813">
        <ele>76.228652</ele>
        <time>2022-05-03T13:09:34.638Z</time>
      </trkpt>
      <trkpt lat="41.27329" lon="19.51705">
        <ele>56.180459</ele>
        <time>2022-05-03T13:10:19.643Z</time>
      </trkpt>
      <trkpt lat="41.2754" lon="19.5162">
        <ele>55.71021</ele>
        <time>2022-05-03T13:11:04.639Z</time>
      </trkpt>
      <trkpt lat="41.27736" lon="19.51532">
        <ele>64.422445</ele>
        <time>2022-05-03T13:11:46.677Z</time>
      </trkpt>
      <trkpt lat="41.27951" lon="19.51432">
        <ele>66.095547</ele>
        <time>2022-05-03T13:12:34.635Z</time>
      </trkpt>
      <trkpt lat="41.2816" lon="19.51427">
        <ele>57.510672</ele>
        <time>2022-05-03T13:13:14.639Z</time>
      </trkpt>
      <trkpt lat="41.2837" lon="19.51428">
        <ele>49.233535</ele>
        <time>2022-05-03T13:13:54.636Z</time>
      </trkpt>
      <trkpt lat="41.28571" lon="19.51375">
        <ele>47.436199</ele>
        <time>2022-05-03T13:14:34.640Z</time>
      </trkpt>
      <trkpt lat="41.28761" lon="19.51328">
        <ele>46.740386</ele>
        <time>2022-05-03T13:15:14.642Z</time>
      </trkpt>
      <trkpt lat="41.28961" lon="19.51229">
        <ele>42.245341</ele>
        <time>2022-05-03T13:15:54.644Z</time>
      </trkpt>
      <trkpt lat="41.291" lon="19.51032">
        <ele>44.528818</ele>
        <time>2022-05-03T13:16:34.626Z</time>
      </trkpt>
      <trkpt lat="41.29229" lon="19.50843">
        <ele>42.141212</ele>
        <time>2022-05-03T13:17:16.640Z</time>
      </trkpt>
      <trkpt lat="41.29391" lon="19.50685">
        <ele>45.138989</ele>
        <time>2022-05-03T13:17:58.641Z</time>
      </trkpt>
      <trkpt lat="41.29577" lon="19.5059">
        <ele>50.231256</ele>
        <time>2022-05-03T13:18:38.632Z</time>
      </trkpt>
      <trkpt lat="41.29762" lon="19.50453">
        <ele>40.980306</ele>
        <time>2022-05-03T13:19:18.626Z</time>
      </trkpt>
      <trkpt lat="41.29917" lon="19.50257">
        <ele>41.765982</ele>
        <time>2022-05-03T13:19:59.651Z</time>
      </trkpt>
      <trkpt lat="41.30049" lon="19.50056">
        <ele>54.306399</ele>
        <time>2022-05-03T13:20:42.670Z</time>
      </trkpt>
      <trkpt lat="41.30198" lon="19.49855">
        <ele>81.738987</ele>
        <time>2022-05-03T13:21:38.641Z</time>
      </trkpt>
      <trkpt lat="41.30344" lon="19.49639">
        <ele>78.671828</ele>
        <time>2022-05-03T13:22:30.625Z</time>
      </trkpt>
      <trkpt lat="41.3049" lon="19.49436">
        <ele>71.453458</ele>
        <time>2022-05-03T13:23:29.651Z</time>
      </trkpt>
      <trkpt lat="41.30652" lon="19.49232">
        <ele>68.304585</ele>
        <time>2022-05-03T13:24:31.652Z</time>
      </trkpt>
      <trkpt lat="41.30575" lon="19.491">
        <ele>58.202239</ele>
        <time>2022-05-03T13:25:42.631Z</time>
      </trkpt>
      <trkpt lat="41.30696" lon="19.48883">
        <ele>59.577203</ele>
        <time>2022-05-03T13:26:51.632Z</time>
      </trkpt>
      <trkpt lat="41.30843" lon="19.48671">
        <ele>66.616836</ele>
        <time>2022-05-03T13:27:52.639Z</time>
      </trkpt>
      <trkpt lat="41.30991" lon="19.48475">
        <ele>60.974807</ele>
        <time>2022-05-03T13:29:01.653Z</time>
      </trkpt>
      <trkpt lat="41.31125" lon="19.48248">
        <ele>60.153268</ele>
        <time>2022-05-03T13:30:04.623Z</time>
      </trkpt>
      <trkpt lat="41.31242" lon="19.47989">
        <ele>68.506918</ele>
        <time>2022-05-03T13:31:05.634Z</time>
      </trkpt>
      <trkpt lat="41.31368" lon="19.47739">
        <ele>70.056407</ele>
        <time>2022-05-03T13:32:01.639Z</time>
      </trkpt>
      <trkpt lat="41.31475" lon="19.4748">
        <ele>71.096279</ele>
        <time>2022-05-03T13:32:59.642Z</time>
      </trkpt>
      <trkpt lat="41.31492" lon="19.47267">
        <ele>67.613816</ele>
        <time>2022-05-03T13:34:32.639Z</time>
      </trkpt>
      <trkpt lat="41.31468" lon="19.47191">
        <ele>67.613816</ele>
        <time>2022-05-03T13:49:59.616Z</time>
      </trkpt>
    </trkseg>
  </trk>
  <trk>
    <name><![CDATA[Tour d'Europe: étape 672]]></name>
    <extensions>
      <line xmlns="http://www.topografix.com/GPX/gpx_style/0/2">
        <color>0000FF</color>
        <width>4</width>
      </line>
    </extensions>
    <trkseg>
      <trkpt lat="41.17664" lon="20.67606">
        <ele>761.792461</ele>
        <time>2022-05-01T07:07:47.723Z</time>
      </trkpt>
      <trkpt lat="41.17733" lon="20.676">
        <ele>761.425551</ele>
        <time>2022-05-01T07:18:43.518Z</time>
      </trkpt>
      <trkpt lat="41.17736" lon="20.6736">
        <ele>755.106282</ele>
        <time>2022-05-01T07:19:50.531Z</time>
      </trkpt>
      <trkpt lat="41.17681" lon="20.67072">
        <ele>749.608639</ele>
        <time>2022-05-01T07:20:48.533Z</time>
      </trkpt>
      <trkpt lat="41.17623" lon="20.66803">
        <ele>748.322945</ele>
        <time>2022-05-01T07:21:37.545Z</time>
      </trkpt>
      <trkpt lat="41.17555" lon="20.66491">
        <ele>739.579665</ele>
        <time>2022-05-01T07:22:36.528Z</time>
      </trkpt>
      <trkpt lat="41.1749" lon="20.66173">
        <ele>737.56282</ele>
        <time>2022-05-01T07:23:34.529Z</time>
      </trkpt>
      <trkpt lat="41.17426" lon="20.65907">
        <ele>735.951372</ele>
        <time>2022-05-01T07:24:19.550Z</time>
      </trkpt>
      <trkpt lat="41.17404" lon="20.65667">
        <ele>738.324644</ele>
        <time>2022-05-01T07:25:03.533Z</time>
      </trkpt>
      <trkpt lat="41.17313" lon="20.65434">
        <ele>739.091451</ele>
        <time>2022-05-01T07:25:43.532Z</time>
      </trkpt>
      <trkpt lat="41.17252" lon="20.65188">
        <ele>740.899515</ele>
        <time>2022-05-01T07:26:23.536Z</time>
      </trkpt>
      <trkpt lat="41.17162" lon="20.64954">
        <ele>740.541838</ele>
        <time>2022-05-01T07:27:04.518Z</time>
      </trkpt>
      <trkpt lat="41.17056" lon="20.64732">
        <ele>740.881554</ele>
        <time>2022-05-01T07:27:44.523Z</time>
      </trkpt>
      <trkpt lat="41.16953" lon="20.64516">
        <ele>741.712355</ele>
        <time>2022-05-01T07:28:24.533Z</time>
      </trkpt>
      <trkpt lat="41.16837" lon="20.64308">
        <ele>740.143506</ele>
        <time>2022-05-01T07:29:04.533Z</time>
      </trkpt>
      <trkpt lat="41.16717" lon="20.64103">
        <ele>740.020226</ele>
        <time>2022-05-01T07:29:44.544Z</time>
      </trkpt>
      <trkpt lat="41.16572" lon="20.63935">
        <ele>741.88544</ele>
        <time>2022-05-01T07:30:25.547Z</time>
      </trkpt>
      <trkpt lat="41.16418" lon="20.63704">
        <ele>746.335427</ele>
        <time>2022-05-01T07:31:22.543Z</time>
      </trkpt>
      <trkpt lat="41.16221" lon="20.6355">
        <ele>745.539656</ele>
        <time>2022-05-01T07:32:21.547Z</time>
      </trkpt>
      <trkpt lat="41.15992" lon="20.6346">
        <ele>746.202248</ele>
        <time>2022-05-01T07:33:19.518Z</time>
      </trkpt>
      <trkpt lat="41.1577" lon="20.63423">
        <ele>751.188397</ele>
        <time>2022-05-01T07:34:24.531Z</time>
      </trkpt>
      <trkpt lat="41.15564" lon="20.63386">
        <ele>761.616719</ele>
        <time>2022-05-01T07:35:48.530Z</time>
      </trkpt>
      <trkpt lat="41.15354" lon="20.63355">
        <ele>768.467891</ele>
        <time>2022-05-01T07:37:12.544Z</time>
      </trkpt>
      <trkpt lat="41.15156" lon="20.63284">
        <ele>770.068972</ele>
        <time>2022-05-01T07:38:22.581Z</time>
      </trkpt>
      <trkpt lat="41.14935" lon="20.63199">
        <ele>767.245905</ele>
        <time>2022-05-01T07:39:10.539Z</time>
      </trkpt>
      <trkpt lat="41.14717" lon="20.631">
        <ele>766.091173</ele>
        <time>2022-05-01T07:40:02.553Z</time>
      </trkpt>
      <trkpt lat="41.14516" lon="20.63009">
        <ele>771.262941</ele>
        <time>2022-05-01T07:41:10.545Z</time>
      </trkpt>
      <trkpt lat="41.14307" lon="20.62931">
        <ele>776.795099</ele>
        <time>2022-05-01T07:42:10.545Z</time>
      </trkpt>
      <trkpt lat="41.14113" lon="20.62833">
        <ele>782.285553</ele>
        <time>2022-05-01T07:43:32.535Z</time>
      </trkpt>
      <trkpt lat="41.13912" lon="20.62812">
        <ele>788.350076</ele>
        <time>2022-05-01T07:44:52.540Z</time>
      </trkpt>
      <trkpt lat="41.13711" lon="20.62797">
        <ele>801.095633</ele>
        <time>2022-05-01T07:46:15.536Z</time>
      </trkpt>
      <trkpt lat="41.13512" lon="20.62849">
        <ele>809.273279</ele>
        <time>2022-05-01T07:47:39.540Z</time>
      </trkpt>
      <trkpt lat="41.13318" lon="20.62877">
        <ele>811.259597</ele>
        <time>2022-05-01T07:49:15.545Z</time>
      </trkpt>
      <trkpt lat="41.13126" lon="20.62875">
        <ele>815.289264</ele>
        <time>2022-05-01T07:51:08.578Z</time>
      </trkpt>
      <trkpt lat="41.12948" lon="20.62772">
        <ele>820.994946</ele>
        <time>2022-05-01T07:52:55.567Z</time>
      </trkpt>
      <trkpt lat="41.12752" lon="20.62744">
        <ele>838.773178</ele>
        <time>2022-05-01T07:54:36.525Z</time>
      </trkpt>
      <trkpt lat="41.12554" lon="20.62745">
        <ele>845.532328</ele>
        <time>2022-05-01T07:56:19.544Z</time>
      </trkpt>
      <trkpt lat="41.12358" lon="20.62729">
        <ele>847.162802</ele>
        <time>2022-05-01T07:58:17.533Z</time>
      </trkpt>
      <trkpt lat="41.12191" lon="20.62601">
        <ele>850.931551</ele>
        <time>2022-05-01T08:00:21.543Z</time>
      </trkpt>
      <trkpt lat="41.1203" lon="20.62465">
        <ele>865.743231</ele>
        <time>2022-05-01T08:02:45.546Z</time>
      </trkpt>
      <trkpt lat="41.11908" lon="20.62284">
        <ele>892.313888</ele>
        <time>2022-05-01T08:04:56.558Z</time>
      </trkpt>
      <trkpt lat="41.11723" lon="20.62219">
        <ele>913.33438</ele>
        <time>2022-05-01T08:07:15.540Z</time>
      </trkpt>
      <trkpt lat="41.11534" lon="20.6218">
        <ele>919.095311</ele>
        <time>2022-05-01T08:09:35.534Z</time>
      </trkpt>
      <trkpt lat="41.11348" lon="20.62115">
        <ele>927.430053</ele>
        <time>2022-05-01T08:12:33.533Z</time>
      </trkpt>
      <trkpt lat="41.11177" lon="20.61975">
        <ele>959.153237</ele>
        <time>2022-05-01T08:20:50.529Z</time>
      </trkpt>
      <trkpt lat="41.11073" lon="20.61767">
        <ele>981.818241</ele>
        <time>2022-05-01T08:23:36.540Z</time>
      </trkpt>
      <trkpt lat="41.10908" lon="20.61661">
        <ele>992.984053</ele>
        <time>2022-05-01T08:26:41.584Z</time>
      </trkpt>
      <trkpt lat="41.10724" lon="20.6161">
        <ele>1012.963559</ele>
        <time>2022-05-01T08:29:33.542Z</time>
      </trkpt>
      <trkpt lat="41.10596" lon="20.6143">
        <ele>1022.358823</ele>
        <time>2022-05-01T08:32:09.542Z</time>
      </trkpt>
      <trkpt lat="41.10434" lon="20.61301">
        <ele>1039.660297</ele>
        <time>2022-05-01T08:34:43.531Z</time>
      </trkpt>
      <trkpt lat="41.10211" lon="20.61176">
        <ele>1044.580441</ele>
        <time>2022-05-01T08:35:48.541Z</time>
      </trkpt>
      <trkpt lat="41.09897" lon="20.61141">
        <ele>1031.701146</ele>
        <time>2022-05-01T08:36:28.563Z</time>
      </trkpt>
      <trkpt lat="41.09637" lon="20.61144">
        <ele>1019.951308</ele>
        <time>2022-05-01T08:37:08.531Z</time>
      </trkpt>
      <trkpt lat="41.09416" lon="20.61044">
        <ele>1020.310411</ele>
        <time>2022-05-01T08:38:02.541Z</time>
      </trkpt>
      <trkpt lat="41.09234" lon="20.60881">
        <ele>1027.808497</ele>
        <time>2022-05-01T08:39:21.613Z</time>
      </trkpt>
      <trkpt lat="41.09007" lon="20.60748">
        <ele>1033.32696</ele>
        <time>2022-05-01T08:46:32.562Z</time>
      </trkpt>
      <trkpt lat="41.08803" lon="20.60626">
        <ele>1032.441031</ele>
        <time>2022-05-01T09:00:05.551Z</time>
      </trkpt>
      <trkpt lat="41.08603" lon="20.6055">
        <ele>1028.643302</ele>
        <time>2022-05-01T09:01:11.552Z</time>
      </trkpt>
      <trkpt lat="41.08384" lon="20.60501">
        <ele>1028.899777</ele>
        <time>2022-05-01T09:02:03.557Z</time>
      </trkpt>
      <trkpt lat="41.08185" lon="20.60465">
        <ele>1043.512632</ele>
        <time>2022-05-01T09:03:54.586Z</time>
      </trkpt>
      <trkpt lat="41.08012" lon="20.60561">
        <ele>1049.652683</ele>
        <time>2022-05-01T09:05:27.547Z</time>
      </trkpt>
      <trkpt lat="41.07812" lon="20.60678">
        <ele>1045.774453</ele>
        <time>2022-05-01T09:06:27.538Z</time>
      </trkpt>
      <trkpt lat="41.07607" lon="20.60616">
        <ele>1042.29215</ele>
        <time>2022-05-01T09:07:17.546Z</time>
      </trkpt>
      <trkpt lat="41.07392" lon="20.60496">
        <ele>1032.329697</ele>
        <time>2022-05-01T09:07:48.547Z</time>
      </trkpt>
      <trkpt lat="41.0718" lon="20.60566">
        <ele>1024.882335</ele>
        <time>2022-05-01T09:08:14.552Z</time>
      </trkpt>
      <trkpt lat="41.06932" lon="20.60553">
        <ele>1009.46641</ele>
        <time>2022-05-01T09:08:43.536Z</time>
      </trkpt>
      <trkpt lat="41.06694" lon="20.60614">
        <ele>988.743773</ele>
        <time>2022-05-01T09:09:14.535Z</time>
      </trkpt>
      <trkpt lat="41.06506" lon="20.60839">
        <ele>967.427519</ele>
        <time>2022-05-01T09:14:36.545Z</time>
      </trkpt>
      <trkpt lat="41.06592" lon="20.60519">
        <ele>949.503816</ele>
        <time>2022-05-01T09:15:16.550Z</time>
      </trkpt>
      <trkpt lat="41.06642" lon="20.60233">
        <ele>929.452841</ele>
        <time>2022-05-01T09:15:43.543Z</time>
      </trkpt>
      <trkpt lat="41.06724" lon="20.59993">
        <ele>913.10056</ele>
        <time>2022-05-01T09:16:03.543Z</time>
      </trkpt>
      <trkpt lat="41.06942" lon="20.59835">
        <ele>892.169206</ele>
        <time>2022-05-01T09:16:35.552Z</time>
      </trkpt>
      <trkpt lat="41.06712" lon="20.5987">
        <ele>873.385347</ele>
        <time>2022-05-01T09:17:09.522Z</time>
      </trkpt>
      <trkpt lat="41.06544" lon="20.59766">
        <ele>863.779278</ele>
        <time>2022-05-01T09:17:49.547Z</time>
      </trkpt>
      <trkpt lat="41.06408" lon="20.59519">
        <ele>855.730934</ele>
        <time>2022-05-01T09:18:31.569Z</time>
      </trkpt>
      <trkpt lat="41.06464" lon="20.59218">
        <ele>838.100392</ele>
        <time>2022-05-01T09:18:59.560Z</time>
      </trkpt>
      <trkpt lat="41.06483" lon="20.591">
        <ele>817.742367</ele>
        <time>2022-05-01T09:19:36.549Z</time>
      </trkpt>
      <trkpt lat="41.0666" lon="20.59253">
        <ele>805.760629</ele>
        <time>2022-05-01T09:23:11.551Z</time>
      </trkpt>
      <trkpt lat="41.06772" lon="20.58982">
        <ele>786.558749</ele>
        <time>2022-05-01T09:23:38.557Z</time>
      </trkpt>
      <trkpt lat="41.06918" lon="20.5899">
        <ele>761.715756</ele>
        <time>2022-05-01T09:24:14.542Z</time>
      </trkpt>
      <trkpt lat="41.0686" lon="20.59248">
        <ele>749.637146</ele>
        <time>2022-05-01T09:24:56.548Z</time>
      </trkpt>
      <trkpt lat="41.0708" lon="20.59086">
        <ele>731.227346</ele>
        <time>2022-05-01T09:25:26.579Z</time>
      </trkpt>
      <trkpt lat="41.07244" lon="20.58924">
        <ele>717.170515</ele>
        <time>2022-05-01T09:25:46.539Z</time>
      </trkpt>
      <trkpt lat="41.07333" lon="20.58727">
        <ele>700.928092</ele>
        <time>2022-05-01T09:26:14.547Z</time>
      </trkpt>
      <trkpt lat="41.07111" lon="20.58718">
        <ele>681.883593</ele>
        <time>2022-05-01T09:26:37.557Z</time>
      </trkpt>
      <trkpt lat="41.07049" lon="20.58468">
        <ele>664.169332</ele>
        <time>2022-05-01T09:26:57.548Z</time>
      </trkpt>
      <trkpt lat="41.07056" lon="20.58158">
        <ele>649.014867</ele>
        <time>2022-05-01T09:27:17.550Z</time>
      </trkpt>
      <trkpt lat="41.07047" lon="20.57876">
        <ele>639.097993</ele>
        <time>2022-05-01T09:27:37.548Z</time>
      </trkpt>
      <trkpt lat="41.07015" lon="20.57613">
        <ele>633.31137</ele>
        <time>2022-05-01T09:27:57.591Z</time>
      </trkpt>
      <trkpt lat="41.06938" lon="20.57375">
        <ele>629.791562</ele>
        <time>2022-05-01T09:28:17.558Z</time>
      </trkpt>
      <trkpt lat="41.06932" lon="20.57043">
        <ele>628.213932</ele>
        <time>2022-05-01T09:28:47.547Z</time>
      </trkpt>
      <trkpt lat="41.06926" lon="20.56759">
        <ele>637.026728</ele>
        <time>2022-05-01T09:29:57.555Z</time>
      </trkpt>
      <trkpt lat="41.0698" lon="20.56487">
        <ele>636.547845</ele>
        <time>2022-05-01T09:30:48.534Z</time>
      </trkpt>
      <trkpt lat="41.07152" lon="20.56296">
        <ele>634.274606</ele>
        <time>2022-05-01T09:31:17.587Z</time>
      </trkpt>
      <trkpt lat="41.07152" lon="20.55982">
        <ele>630.542996</ele>
        <time>2022-05-01T09:31:57.556Z</time>
      </trkpt>
      <trkpt lat="41.07114" lon="20.5566">
        <ele>628.046099</ele>
        <time>2022-05-01T09:32:37.543Z</time>
      </trkpt>
      <trkpt lat="41.07067" lon="20.55372">
        <ele>624.893486</ele>
        <time>2022-05-01T09:33:05.539Z</time>
      </trkpt>
      <trkpt lat="41.06994" lon="20.55013">
        <ele>621.953567</ele>
        <time>2022-05-01T09:33:46.546Z</time>
      </trkpt>
      <trkpt lat="41.06897" lon="20.54762">
        <ele>620.605429</ele>
        <time>2022-05-01T09:34:27.562Z</time>
      </trkpt>
      <trkpt lat="41.06789" lon="20.54522">
        <ele>616.902034</ele>
        <time>2022-05-01T09:35:07.547Z</time>
      </trkpt>
      <trkpt lat="41.06691" lon="20.54248">
        <ele>613.908594</ele>
        <time>2022-05-01T09:35:47.549Z</time>
      </trkpt>
      <trkpt lat="41.0663" lon="20.53962">
        <ele>613.737319</ele>
        <time>2022-05-01T09:36:27.546Z</time>
      </trkpt>
      <trkpt lat="41.06584" lon="20.53678">
        <ele>613.271777</ele>
        <time>2022-05-01T09:37:07.556Z</time>
      </trkpt>
      <trkpt lat="41.06492" lon="20.53363">
        <ele>609.638968</ele>
        <time>2022-05-01T09:37:47.549Z</time>
      </trkpt>
      <trkpt lat="41.06389" lon="20.53114">
        <ele>609.458407</ele>
        <time>2022-05-01T09:38:27.548Z</time>
      </trkpt>
      <trkpt lat="41.06313" lon="20.52805">
        <ele>604.875502</ele>
        <time>2022-05-01T09:39:07.566Z</time>
      </trkpt>
      <trkpt lat="41.06448" lon="20.52418">
        <ele>597.933953</ele>
        <time>2022-05-01T09:39:47.537Z</time>
      </trkpt>
      <trkpt lat="41.06583" lon="20.52104">
        <ele>592.866759</ele>
        <time>2022-05-01T09:40:29.540Z</time>
      </trkpt>
      <trkpt lat="41.06698" lon="20.51882">
        <ele>594.281024</ele>
        <time>2022-05-01T09:41:12.557Z</time>
      </trkpt>
      <trkpt lat="41.06702" lon="20.51595">
        <ele>596.217622</ele>
        <time>2022-05-01T09:41:52.563Z</time>
      </trkpt>
      <trkpt lat="41.06962" lon="20.51407">
        <ele>595.234613</ele>
        <time>2022-05-01T09:42:32.539Z</time>
      </trkpt>
      <trkpt lat="41.0724" lon="20.51239">
        <ele>587.577329</ele>
        <time>2022-05-01T09:43:12.538Z</time>
      </trkpt>
      <trkpt lat="41.07298" lon="20.51011">
        <ele>574.934511</ele>
        <time>2022-05-01T09:43:48.604Z</time>
      </trkpt>
      <trkpt lat="41.07331" lon="20.50686">
        <ele>562.529366</ele>
        <time>2022-05-01T09:44:17.559Z</time>
      </trkpt>
      <trkpt lat="41.07326" lon="20.50412">
        <ele>550.462938</ele>
        <time>2022-05-01T09:44:37.571Z</time>
      </trkpt>
      <trkpt lat="41.07382" lon="20.50117">
        <ele>538.635179</ele>
        <time>2022-05-01T09:44:57.538Z</time>
      </trkpt>
      <trkpt lat="41.07489" lon="20.49871">
        <ele>534.235533</ele>
        <time>2022-05-01T09:45:18.566Z</time>
      </trkpt>
      <trkpt lat="41.07491" lon="20.49512">
        <ele>528.115398</ele>
        <time>2022-05-01T09:45:55.587Z</time>
      </trkpt>
      <trkpt lat="41.07482" lon="20.49201">
        <ele>523.78647</ele>
        <time>2022-05-01T09:46:35.544Z</time>
      </trkpt>
      <trkpt lat="41.07509" lon="20.48923">
        <ele>523.039853</ele>
        <time>2022-05-01T09:46:58.563Z</time>
      </trkpt>
      <trkpt lat="41.07516" lon="20.48663">
        <ele>527.179612</ele>
        <time>2022-05-01T09:48:06.567Z</time>
      </trkpt>
      <trkpt lat="41.07491" lon="20.48375">
        <ele>519.928194</ele>
        <time>2022-05-01T09:48:53.562Z</time>
      </trkpt>
      <trkpt lat="41.07467" lon="20.48017">
        <ele>508.71489</ele>
        <time>2022-05-01T09:49:25.535Z</time>
      </trkpt>
      <trkpt lat="41.07382" lon="20.47749">
        <ele>499.525431</ele>
        <time>2022-05-01T09:49:50.535Z</time>
      </trkpt>
      <trkpt lat="41.07405" lon="20.4746">
        <ele>484.643055</ele>
        <time>2022-05-01T09:50:12.597Z</time>
      </trkpt>
      <trkpt lat="41.07447" lon="20.47221">
        <ele>473.537491</ele>
        <time>2022-05-01T09:50:32.584Z</time>
      </trkpt>
      <trkpt lat="41.07339" lon="20.46982">
        <ele>461.02108</ele>
        <time>2022-05-01T09:50:54.607Z</time>
      </trkpt>
      <trkpt lat="41.07307" lon="20.46657">
        <ele>460.716122</ele>
        <time>2022-05-01T09:51:32.552Z</time>
      </trkpt>
      <trkpt lat="41.0738" lon="20.46412">
        <ele>476.389324</ele>
        <time>2022-05-01T09:53:01.552Z</time>
      </trkpt>
      <trkpt lat="41.0754" lon="20.46237">
        <ele>477.545221</ele>
        <time>2022-05-01T09:54:14.548Z</time>
      </trkpt>
      <trkpt lat="41.07763" lon="20.46084">
        <ele>467.521043</ele>
        <time>2022-05-01T09:54:54.546Z</time>
      </trkpt>
      <trkpt lat="41.07931" lon="20.45933">
        <ele>460.562329</ele>
        <time>2022-05-01T09:55:16.550Z</time>
      </trkpt>
      <trkpt lat="41.08116" lon="20.45639">
        <ele>459.243632</ele>
        <time>2022-05-01T09:55:55.535Z</time>
      </trkpt>
      <trkpt lat="41.08272" lon="20.45449">
        <ele>462.757905</ele>
        <time>2022-05-01T10:00:22.545Z</time>
      </trkpt>
      <trkpt lat="41.08399" lon="20.4523">
        <ele>465.825338</ele>
        <time>2022-05-01T10:01:23.559Z</time>
      </trkpt>
      <trkpt lat="41.08606" lon="20.45148">
        <ele>467.166617</ele>
        <time>2022-05-01T10:02:23.555Z</time>
      </trkpt>
      <trkpt lat="41.0879" lon="20.45028">
        <ele>477.157135</ele>
        <time>2022-05-01T10:03:42.580Z</time>
      </trkpt>
      <trkpt lat="41.08884" lon="20.44799">
        <ele>487.857463</ele>
        <time>2022-05-01T10:05:25.532Z</time>
      </trkpt>
      <trkpt lat="41.09076" lon="20.44574">
        <ele>479.030191</ele>
        <time>2022-05-01T10:06:06.550Z</time>
      </trkpt>
      <trkpt lat="41.09327" lon="20.44529">
        <ele>466.19231</ele>
        <time>2022-05-01T10:06:33.562Z</time>
      </trkpt>
      <trkpt lat="41.09522" lon="20.44436">
        <ele>454.950916</ele>
        <time>2022-05-01T10:06:54.533Z</time>
      </trkpt>
      <trkpt lat="41.09732" lon="20.44366">
        <ele>442.31772</ele>
        <time>2022-05-01T10:07:14.565Z</time>
      </trkpt>
      <trkpt lat="41.0994" lon="20.44359">
        <ele>429.922826</ele>
        <time>2022-05-01T10:07:43.533Z</time>
      </trkpt>
      <trkpt lat="41.09826" lon="20.44132">
        <ele>420.939098</ele>
        <time>2022-05-01T10:08:06.568Z</time>
      </trkpt>
      <trkpt lat="41.09907" lon="20.43886">
        <ele>415.687433</ele>
        <time>2022-05-01T10:08:26.567Z</time>
      </trkpt>
      <trkpt lat="41.10121" lon="20.43785">
        <ele>409.295294</ele>
        <time>2022-05-01T10:08:52.558Z</time>
      </trkpt>
      <trkpt lat="41.10302" lon="20.43616">
        <ele>414.544622</ele>
        <time>2022-05-01T10:09:42.555Z</time>
      </trkpt>
      <trkpt lat="41.10448" lon="20.43421">
        <ele>413.935654</ele>
        <time>2022-05-01T10:10:27.543Z</time>
      </trkpt>
      <trkpt lat="41.10718" lon="20.43257">
        <ele>413.444622</ele>
        <time>2022-05-01T10:11:07.559Z</time>
      </trkpt>
      <trkpt lat="41.10837" lon="20.4299">
        <ele>414.406049</ele>
        <time>2022-05-01T10:11:53.552Z</time>
      </trkpt>
      <trkpt lat="41.10999" lon="20.42616">
        <ele>403.481297</ele>
        <time>2022-05-01T10:12:35.550Z</time>
      </trkpt>
      <trkpt lat="41.11116" lon="20.4229">
        <ele>396.145035</ele>
        <time>2022-05-01T10:13:15.557Z</time>
      </trkpt>
      <trkpt lat="41.11304" lon="20.42124">
        <ele>392.397147</ele>
        <time>2022-05-01T10:14:10.554Z</time>
      </trkpt>
      <trkpt lat="41.11525" lon="20.41957">
        <ele>392.654325</ele>
        <time>2022-05-01T10:14:50.553Z</time>
      </trkpt>
      <trkpt lat="41.11662" lon="20.41758">
        <ele>399.396974</ele>
        <time>2022-05-01T10:15:45.558Z</time>
      </trkpt>
      <trkpt lat="41.11794" lon="20.41549">
        <ele>402.203634</ele>
        <time>2022-05-01T10:16:50.546Z</time>
      </trkpt>
      <trkpt lat="41.11975" lon="20.4133">
        <ele>395.221369</ele>
        <time>2022-05-01T10:17:23.558Z</time>
      </trkpt>
      <trkpt lat="41.12113" lon="20.41124">
        <ele>385.830541</ele>
        <time>2022-05-01T10:17:43.555Z</time>
      </trkpt>
      <trkpt lat="41.12306" lon="20.41067">
        <ele>391.884722</ele>
        <time>2022-05-01T10:18:31.547Z</time>
      </trkpt>
      <trkpt lat="41.12464" lon="20.40912">
        <ele>402.360164</ele>
        <time>2022-05-01T10:20:11.537Z</time>
      </trkpt>
      <trkpt lat="41.12633" lon="20.40739">
        <ele>401.265243</ele>
        <time>2022-05-01T10:21:11.550Z</time>
      </trkpt>
      <trkpt lat="41.12712" lon="20.4046">
        <ele>391.388679</ele>
        <time>2022-05-01T10:21:31.555Z</time>
      </trkpt>
      <trkpt lat="41.12811" lon="20.40186">
        <ele>384.28751</ele>
        <time>2022-05-01T10:22:05.551Z</time>
      </trkpt>
      <trkpt lat="41.12992" lon="20.40083">
        <ele>381.835927</ele>
        <time>2022-05-01T10:22:46.559Z</time>
      </trkpt>
      <trkpt lat="41.13198" lon="20.40002">
        <ele>383.84238</ele>
        <time>2022-05-01T10:23:29.540Z</time>
      </trkpt>
      <trkpt lat="41.13333" lon="20.39782">
        <ele>388.14143</ele>
        <time>2022-05-01T10:24:16.550Z</time>
      </trkpt>
      <trkpt lat="41.13529" lon="20.39592">
        <ele>376.936133</ele>
        <time>2022-05-01T10:24:49.550Z</time>
      </trkpt>
      <trkpt lat="41.13638" lon="20.3933">
        <ele>369.137042</ele>
        <time>2022-05-01T10:25:18.551Z</time>
      </trkpt>
      <trkpt lat="41.13693" lon="20.39029">
        <ele>361.817457</ele>
        <time>2022-05-01T10:25:48.549Z</time>
      </trkpt>
      <trkpt lat="41.13739" lon="20.38682">
        <ele>354.474133</ele>
        <time>2022-05-01T10:26:22.640Z</time>
      </trkpt>
      <trkpt lat="41.13544" lon="20.38438">
        <ele>345.55383</ele>
        <time>2022-05-01T10:27:02.582Z</time>
      </trkpt>
      <trkpt lat="41.13691" lon="20.38193">
        <ele>336.983219</ele>
        <time>2022-05-01T10:27:37.565Z</time>
      </trkpt>
      <trkpt lat="41.13888" lon="20.3834">
        <ele>336.004124</ele>
        <time>2022-05-01T10:28:17.544Z</time>
      </trkpt>
      <trkpt lat="41.14102" lon="20.38387">
        <ele>343.340677</ele>
        <time>2022-05-01T10:29:26.545Z</time>
      </trkpt>
      <trkpt lat="41.14278" lon="20.3814">
        <ele>343.834484</ele>
        <time>2022-05-01T10:30:18.565Z</time>
      </trkpt>
      <trkpt lat="41.14417" lon="20.37925">
        <ele>350.389158</ele>
        <time>2022-05-01T10:31:31.555Z</time>
      </trkpt>
      <trkpt lat="41.14592" lon="20.37774">
        <ele>355.578507</ele>
        <time>2022-05-01T10:32:22.529Z</time>
      </trkpt>
      <trkpt lat="41.14817" lon="20.37622">
        <ele>342.121433</ele>
        <time>2022-05-01T10:32:51.592Z</time>
      </trkpt>
      <trkpt lat="41.1499" lon="20.37475">
        <ele>334.639771</ele>
        <time>2022-05-01T10:33:11.539Z</time>
      </trkpt>
      <trkpt lat="41.15222" lon="20.37343">
        <ele>332.357042</ele>
        <time>2022-05-01T10:33:51.543Z</time>
      </trkpt>
      <trkpt lat="41.15327" lon="20.37069">
        <ele>328.952949</ele>
        <time>2022-05-01T10:34:18.630Z</time>
      </trkpt>
      <trkpt lat="41.15322" lon="20.36796">
        <ele>328.734701</ele>
        <time>2022-05-01T10:34:57.583Z</time>
      </trkpt>
      <trkpt lat="41.15263" lon="20.36527">
        <ele>334.368743</ele>
        <time>2022-05-01T10:35:40.563Z</time>
      </trkpt>
      <trkpt lat="41.15406" lon="20.36277">
        <ele>329.089745</ele>
        <time>2022-05-01T10:36:20.557Z</time>
      </trkpt>
      <trkpt lat="41.15519" lon="20.35982">
        <ele>322.65959</ele>
        <time>2022-05-01T10:36:52.513Z</time>
      </trkpt>
      <trkpt lat="41.15689" lon="20.35833">
        <ele>321.525732</ele>
        <time>2022-05-01T10:37:39.554Z</time>
      </trkpt>
      <trkpt lat="41.15887" lon="20.35782">
        <ele>333.320171</ele>
        <time>2022-05-01T10:39:23.535Z</time>
      </trkpt>
      <trkpt lat="41.16076" lon="20.35739">
        <ele>349.296622</ele>
        <time>2022-05-01T10:41:44.543Z</time>
      </trkpt>
      <trkpt lat="41.16267" lon="20.35597">
        <ele>350.896078</ele>
        <time>2022-05-01T10:42:45.595Z</time>
      </trkpt>
      <trkpt lat="41.16395" lon="20.35351">
        <ele>345.045127</ele>
        <time>2022-05-01T10:43:22.546Z</time>
      </trkpt>
      <trkpt lat="41.16419" lon="20.35031">
        <ele>329.39628</ele>
        <time>2022-05-01T10:43:48.552Z</time>
      </trkpt>
      <trkpt lat="41.16491" lon="20.34783">
        <ele>312.962126</ele>
        <time>2022-05-01T10:44:10.567Z</time>
      </trkpt>
      <trkpt lat="41.16658" lon="20.34598">
        <ele>300.978849</ele>
        <time>2022-05-01T10:44:30.583Z</time>
      </trkpt>
      <trkpt lat="41.16665" lon="20.34272">
        <ele>298.505254</ele>
        <time>2022-05-01T10:45:10.547Z</time>
      </trkpt>
      <trkpt lat="41.16647" lon="20.33992">
        <ele>301.482857</ele>
        <time>2022-05-01T10:46:00.544Z</time>
      </trkpt>
      <trkpt lat="41.16724" lon="20.33713">
        <ele>300.71725</ele>
        <time>2022-05-01T10:46:56.570Z</time>
      </trkpt>
      <trkpt lat="41.16842" lon="20.33446">
        <ele>294.398619</ele>
        <time>2022-05-01T10:47:31.547Z</time>
      </trkpt>
      <trkpt lat="41.17055" lon="20.33278">
        <ele>294.062838</ele>
        <time>2022-05-01T10:48:00.565Z</time>
      </trkpt>
      <trkpt lat="41.17173" lon="20.33027">
        <ele>293.569709</ele>
        <time>2022-05-01T10:48:48.543Z</time>
      </trkpt>
      <trkpt lat="41.17344" lon="20.32884">
        <ele>295.498835</ele>
        <time>2022-05-01T10:49:42.540Z</time>
      </trkpt>
      <trkpt lat="41.17415" lon="20.32643">
        <ele>305.173282</ele>
        <time>2022-05-01T10:51:27.564Z</time>
      </trkpt>
      <trkpt lat="41.17535" lon="20.32413">
        <ele>294.872069</ele>
        <time>2022-05-01T10:51:54.546Z</time>
      </trkpt>
      <trkpt lat="41.177" lon="20.32089">
        <ele>279.289174</ele>
        <time>2022-05-01T10:52:28.539Z</time>
      </trkpt>
      <trkpt lat="41.17755" lon="20.3174">
        <ele>274.559329</ele>
        <time>2022-05-01T10:53:06.550Z</time>
      </trkpt>
      <trkpt lat="41.17891" lon="20.31437">
        <ele>289.170112</ele>
        <time>2022-05-01T10:57:06.547Z</time>
      </trkpt>
      <trkpt lat="41.18019" lon="20.31301">
        <ele>295.775787</ele>
        <time>2022-05-01T11:09:59.559Z</time>
      </trkpt>
      <trkpt lat="41.18142" lon="20.3112">
        <ele>287.108212</ele>
        <time>2022-05-01T11:11:09.602Z</time>
      </trkpt>
      <trkpt lat="41.18318" lon="20.31003">
        <ele>297.924609</ele>
        <time>2022-05-01T11:12:49.542Z</time>
      </trkpt>
      <trkpt lat="41.18437" lon="20.30806">
        <ele>305.738582</ele>
        <time>2022-05-01T11:14:25.546Z</time>
      </trkpt>
      <trkpt lat="41.18541" lon="20.30547">
        <ele>307.863786</ele>
        <time>2022-05-01T11:15:39.552Z</time>
      </trkpt>
      <trkpt lat="41.1863" lon="20.30243">
        <ele>307.883056</ele>
        <time>2022-05-01T11:16:32.559Z</time>
      </trkpt>
      <trkpt lat="41.18685" lon="20.30013">
        <ele>316.136986</ele>
        <time>2022-05-01T11:18:21.563Z</time>
      </trkpt>
      <trkpt lat="41.1879" lon="20.29708">
        <ele>302.305102</ele>
        <time>2022-05-01T11:18:52.548Z</time>
      </trkpt>
      <trkpt lat="41.18816" lon="20.29432">
        <ele>290.104255</ele>
        <time>2022-05-01T11:19:12.547Z</time>
      </trkpt>
      <trkpt lat="41.18894" lon="20.29143">
        <ele>275.273844</ele>
        <time>2022-05-01T11:19:32.551Z</time>
      </trkpt>
      <trkpt lat="41.18735" lon="20.28929">
        <ele>259.938903</ele>
        <time>2022-05-01T11:19:52.558Z</time>
      </trkpt>
      <trkpt lat="41.18635" lon="20.28711">
        <ele>255.416723</ele>
        <time>2022-05-01T11:20:14.538Z</time>
      </trkpt>
      <trkpt lat="41.18777" lon="20.28398">
        <ele>252.714313</ele>
        <time>2022-05-01T11:20:54.542Z</time>
      </trkpt>
      <trkpt lat="41.1868" lon="20.28186">
        <ele>249.101244</ele>
        <time>2022-05-01T11:21:34.547Z</time>
      </trkpt>
      <trkpt lat="41.18516" lon="20.27969">
        <ele>252.767448</ele>
        <time>2022-05-01T11:22:14.558Z</time>
      </trkpt>
      <trkpt lat="41.18496" lon="20.27708">
        <ele>255.861487</ele>
        <time>2022-05-01T11:22:55.530Z</time>
      </trkpt>
      <trkpt lat="41.18544" lon="20.27425">
        <ele>257.03795</ele>
        <time>2022-05-01T11:23:35.539Z</time>
      </trkpt>
      <trkpt lat="41.18464" lon="20.27179">
        <ele>253.013037</ele>
        <time>2022-05-01T11:24:27.548Z</time>
      </trkpt>
      <trkpt lat="41.18294" lon="20.27382">
        <ele>243.234729</ele>
        <time>2022-05-01T11:25:07.566Z</time>
      </trkpt>
      <trkpt lat="41.18108" lon="20.27286">
        <ele>247.195303</ele>
        <time>2022-05-01T11:26:12.595Z</time>
      </trkpt>
      <trkpt lat="41.17977" lon="20.27096">
        <ele>268.444958</ele>
        <time>2022-05-01T11:28:25.543Z</time>
      </trkpt>
      <trkpt lat="41.17888" lon="20.26873">
        <ele>286.180512</ele>
        <time>2022-05-01T11:30:30.577Z</time>
      </trkpt>
      <trkpt lat="41.17859" lon="20.26614">
        <ele>293.597047</ele>
        <time>2022-05-01T11:32:25.538Z</time>
      </trkpt>
      <trkpt lat="41.17766" lon="20.26331">
        <ele>289.85088</ele>
        <time>2022-05-01T11:33:09.558Z</time>
      </trkpt>
      <trkpt lat="41.17619" lon="20.26108">
        <ele>276.984975</ele>
        <time>2022-05-01T11:33:29.572Z</time>
      </trkpt>
      <trkpt lat="41.17442" lon="20.25919">
        <ele>264.225694</ele>
        <time>2022-05-01T11:33:49.548Z</time>
      </trkpt>
      <trkpt lat="41.17233" lon="20.25724">
        <ele>260.509241</ele>
        <time>2022-05-01T11:34:24.550Z</time>
      </trkpt>
      <trkpt lat="41.17131" lon="20.25456">
        <ele>253.180748</ele>
        <time>2022-05-01T11:34:44.555Z</time>
      </trkpt>
      <trkpt lat="41.16964" lon="20.25268">
        <ele>245.613787</ele>
        <time>2022-05-01T11:35:04.557Z</time>
      </trkpt>
      <trkpt lat="41.16828" lon="20.25088">
        <ele>250.014364</ele>
        <time>2022-05-01T11:36:04.591Z</time>
      </trkpt>
      <trkpt lat="41.16734" lon="20.24799">
        <ele>256.021988</ele>
        <time>2022-05-01T11:36:53.562Z</time>
      </trkpt>
      <trkpt lat="41.16682" lon="20.24515">
        <ele>247.66011</ele>
        <time>2022-05-01T11:37:13.549Z</time>
      </trkpt>
      <trkpt lat="41.1653" lon="20.24358">
        <ele>232.028235</ele>
        <time>2022-05-01T11:37:33.599Z</time>
      </trkpt>
      <trkpt lat="41.16489" lon="20.24066">
        <ele>220.820847</ele>
        <time>2022-05-01T11:38:16.549Z</time>
      </trkpt>
      <trkpt lat="41.16576" lon="20.23764">
        <ele>225.643158</ele>
        <time>2022-05-01T11:38:59.536Z</time>
      </trkpt>
      <trkpt lat="41.16633" lon="20.23503">
        <ele>231.889</ele>
        <time>2022-05-01T11:40:20.568Z</time>
      </trkpt>
      <trkpt lat="41.16603" lon="20.23156">
        <ele>229.277703</ele>
        <time>2022-05-01T11:41:04.564Z</time>
      </trkpt>
      <trkpt lat="41.16461" lon="20.22949">
        <ele>234.926392</ele>
        <time>2022-05-01T11:42:02.559Z</time>
      </trkpt>
      <trkpt lat="41.16434" lon="20.22655">
        <ele>233.222446</ele>
        <time>2022-05-01T11:42:58.538Z</time>
      </trkpt>
      <trkpt lat="41.16546" lon="20.22324">
        <ele>223.313091</ele>
        <time>2022-05-01T11:43:38.588Z</time>
      </trkpt>
      <trkpt lat="41.16618" lon="20.22063">
        <ele>224.258222</ele>
        <time>2022-05-01T11:44:20.548Z</time>
      </trkpt>
      <trkpt lat="41.16702" lon="20.21747">
        <ele>225.154626</ele>
        <time>2022-05-01T11:45:03.549Z</time>
      </trkpt>
      <trkpt lat="41.16751" lon="20.2148">
        <ele>227.920581</ele>
        <time>2022-05-01T11:46:09.560Z</time>
      </trkpt>
      <trkpt lat="41.16742" lon="20.21128">
        <ele>225.200937</ele>
        <time>2022-05-01T11:46:51.552Z</time>
      </trkpt>
      <trkpt lat="41.16682" lon="20.2085">
        <ele>226.947526</ele>
        <time>2022-05-01T11:47:43.609Z</time>
      </trkpt>
      <trkpt lat="41.16643" lon="20.20549">
        <ele>227.671498</ele>
        <time>2022-05-01T11:48:23.559Z</time>
      </trkpt>
      <trkpt lat="41.16611" lon="20.20266">
        <ele>233.542682</ele>
        <time>2022-05-01T11:49:15.559Z</time>
      </trkpt>
      <trkpt lat="41.16611" lon="20.19984">
        <ele>233.69166</ele>
        <time>2022-05-01T11:50:18.557Z</time>
      </trkpt>
      <trkpt lat="41.16492" lon="20.19735">
        <ele>233.715294</ele>
        <time>2022-05-01T11:51:18.552Z</time>
      </trkpt>
      <trkpt lat="41.16271" lon="20.1955">
        <ele>234.668521</ele>
        <time>2022-05-01T11:52:00.558Z</time>
      </trkpt>
      <trkpt lat="41.16104" lon="20.19354">
        <ele>224.543075</ele>
        <time>2022-05-01T11:52:23.544Z</time>
      </trkpt>
      <trkpt lat="41.16034" lon="20.19073">
        <ele>204.727567</ele>
        <time>2022-05-01T11:52:58.616Z</time>
      </trkpt>
      <trkpt lat="41.16005" lon="20.18791">
        <ele>200.31776</ele>
        <time>2022-05-01T11:53:38.551Z</time>
      </trkpt>
      <trkpt lat="41.15927" lon="20.18497">
        <ele>202.612207</ele>
        <time>2022-05-01T11:54:18.646Z</time>
      </trkpt>
      <trkpt lat="41.15928" lon="20.18185">
        <ele>200.593111</ele>
        <time>2022-05-01T11:54:58.548Z</time>
      </trkpt>
      <trkpt lat="41.16008" lon="20.17909">
        <ele>200.181375</ele>
        <time>2022-05-01T11:55:38.555Z</time>
      </trkpt>
      <trkpt lat="41.16038" lon="20.17607">
        <ele>198.959815</ele>
        <time>2022-05-01T11:56:18.566Z</time>
      </trkpt>
      <trkpt lat="41.1597" lon="20.17306">
        <ele>198.618224</ele>
        <time>2022-05-01T11:56:58.571Z</time>
      </trkpt>
      <trkpt lat="41.15843" lon="20.17047">
        <ele>199.779314</ele>
        <time>2022-05-01T11:57:38.582Z</time>
      </trkpt>
      <trkpt lat="41.15691" lon="20.16869">
        <ele>198.643458</ele>
        <time>2022-05-01T11:58:18.538Z</time>
      </trkpt>
      <trkpt lat="41.15503" lon="20.16685">
        <ele>197.384989</ele>
        <time>2022-05-01T11:58:58.537Z</time>
      </trkpt>
      <trkpt lat="41.15322" lon="20.16507">
        <ele>196.776432</ele>
        <time>2022-05-01T11:59:38.564Z</time>
      </trkpt>
      <trkpt lat="41.15136" lon="20.1633">
        <ele>196.431261</ele>
        <time>2022-05-01T12:00:18.593Z</time>
      </trkpt>
      <trkpt lat="41.14946" lon="20.16156">
        <ele>191.737539</ele>
        <time>2022-05-01T12:00:58.560Z</time>
      </trkpt>
      <trkpt lat="41.14686" lon="20.15924">
        <ele>187.978012</ele>
        <time>2022-05-01T12:01:38.559Z</time>
      </trkpt>
      <trkpt lat="41.14488" lon="20.1565">
        <ele>186.050312</ele>
        <time>2022-05-01T12:02:18.551Z</time>
      </trkpt>
      <trkpt lat="41.14359" lon="20.15438">
        <ele>186.33815</ele>
        <time>2022-05-01T12:02:58.553Z</time>
      </trkpt>
      <trkpt lat="41.14215" lon="20.15195">
        <ele>187.349532</ele>
        <time>2022-05-01T12:03:55.546Z</time>
      </trkpt>
      <trkpt lat="41.14068" lon="20.14993">
        <ele>194.452492</ele>
        <time>2022-05-01T12:04:55.593Z</time>
      </trkpt>
      <trkpt lat="41.13901" lon="20.14775">
        <ele>192.092601</ele>
        <time>2022-05-01T12:05:55.555Z</time>
      </trkpt>
      <trkpt lat="41.13736" lon="20.14524">
        <ele>188.04603</ele>
        <time>2022-05-01T12:06:44.557Z</time>
      </trkpt>
      <trkpt lat="41.1355" lon="20.14289">
        <ele>178.333419</ele>
        <time>2022-05-01T12:07:13.566Z</time>
      </trkpt>
      <trkpt lat="41.13365" lon="20.14017">
        <ele>169.736991</ele>
        <time>2022-05-01T12:07:49.565Z</time>
      </trkpt>
      <trkpt lat="41.13227" lon="20.13791">
        <ele>168.350275</ele>
        <time>2022-05-01T12:08:32.552Z</time>
      </trkpt>
      <trkpt lat="41.13115" lon="20.1356">
        <ele>167.191658</ele>
        <time>2022-05-01T12:09:12.548Z</time>
      </trkpt>
      <trkpt lat="41.12994" lon="20.13348">
        <ele>167.033561</ele>
        <time>2022-05-01T12:09:52.559Z</time>
      </trkpt>
      <trkpt lat="41.12873" lon="20.13136">
        <ele>168.099482</ele>
        <time>2022-05-01T12:10:32.545Z</time>
      </trkpt>
      <trkpt lat="41.12775" lon="20.12855">
        <ele>167.149391</ele>
        <time>2022-05-01T12:11:12.562Z</time>
      </trkpt>
      <trkpt lat="41.12688" lon="20.12593">
        <ele>168.397326</ele>
        <time>2022-05-01T12:11:52.558Z</time>
      </trkpt>
      <trkpt lat="41.12582" lon="20.1236">
        <ele>169.374003</ele>
        <time>2022-05-01T12:12:41.540Z</time>
      </trkpt>
      <trkpt lat="41.12485" lon="20.12115">
        <ele>175.504346</ele>
        <time>2022-05-01T12:13:53.548Z</time>
      </trkpt>
      <trkpt lat="41.1242" lon="20.11756">
        <ele>168.428964</ele>
        <time>2022-05-01T12:14:30.531Z</time>
      </trkpt>
      <trkpt lat="41.12371" lon="20.11395">
        <ele>166.606443</ele>
        <time>2022-05-01T12:15:10.555Z</time>
      </trkpt>
      <trkpt lat="41.12302" lon="20.1113">
        <ele>167.328793</ele>
        <time>2022-05-01T12:15:50.514Z</time>
      </trkpt>
      <trkpt lat="41.12233" lon="20.10868">
        <ele>168.55967</ele>
        <time>2022-05-01T12:16:30.567Z</time>
      </trkpt>
      <trkpt lat="41.12205" lon="20.1061">
        <ele>174.098326</ele>
        <time>2022-05-01T12:17:10.554Z</time>
      </trkpt>
      <trkpt lat="41.12162" lon="20.10287">
        <ele>181.315981</ele>
        <time>2022-05-01T12:18:10.548Z</time>
      </trkpt>
      <trkpt lat="41.12072" lon="20.09988">
        <ele>175.807505</ele>
        <time>2022-05-01T12:19:08.549Z</time>
      </trkpt>
      <trkpt lat="41.11996" lon="20.0973">
        <ele>178.586538</ele>
        <time>2022-05-01T12:20:03.536Z</time>
      </trkpt>
      <trkpt lat="41.11881" lon="20.09475">
        <ele>180.446365</ele>
        <time>2022-05-01T12:20:46.543Z</time>
      </trkpt>
      <trkpt lat="41.11881" lon="20.0925">
        <ele>181.852878</ele>
        <time>2022-05-01T12:21:39.553Z</time>
      </trkpt>
      <trkpt lat="41.12035" lon="20.09068">
        <ele>177.437638</ele>
        <time>2022-05-01T12:22:41.554Z</time>
      </trkpt>
      <trkpt lat="41.11881" lon="20.08876">
        <ele>179.428313</ele>
        <time>2022-05-01T12:23:47.564Z</time>
      </trkpt>
      <trkpt lat="41.11767" lon="20.08679">
        <ele>182.134023</ele>
        <time>2022-05-01T12:24:47.580Z</time>
      </trkpt>
      <trkpt lat="41.11746" lon="20.08594">
        <ele>182.134023</ele>
        <time>2022-05-01T12:26:33.963Z</time>
      </trkpt>
    </trkseg>
  </trk>
  <trk>
    <name><![CDATA[Tour d'Europe: étape 668]]></name>
    <extensions>
      <line xmlns="http://www.topografix.com/GPX/gpx_style/0/2">
        <color>00FF00</color>
        <width>4</width>
      </line>
    </extensions>
    <trkseg>
      <trkpt lat="41.51496" lon="20.53273">
        <ele>709.729914</ele>
        <time>2022-04-27T08:26:40.761Z</time>
      </trkpt>
      <trkpt lat="41.5164" lon="20.53217">
        <ele>721.101743</ele>
        <time>2022-04-27T08:36:56.773Z</time>
      </trkpt>
      <trkpt lat="41.51792" lon="20.53024">
        <ele>724.707614</ele>
        <time>2022-04-27T08:38:03.800Z</time>
      </trkpt>
      <trkpt lat="41.5192" lon="20.52868">
        <ele>715.805012</ele>
        <time>2022-04-27T08:38:47.811Z</time>
      </trkpt>
      <trkpt lat="41.51921" lon="20.52511">
        <ele>700.767948</ele>
        <time>2022-04-27T08:39:29.768Z</time>
      </trkpt>
      <trkpt lat="41.51796" lon="20.5228">
        <ele>693.907053</ele>
        <time>2022-04-27T08:40:15.774Z</time>
      </trkpt>
      <trkpt lat="41.51626" lon="20.52086">
        <ele>694.236562</ele>
        <time>2022-04-27T08:41:07.783Z</time>
      </trkpt>
      <trkpt lat="41.51459" lon="20.51874">
        <ele>692.65299</ele>
        <time>2022-04-27T08:41:58.820Z</time>
      </trkpt>
      <trkpt lat="41.51279" lon="20.51651">
        <ele>688.769422</ele>
        <time>2022-04-27T08:42:39.763Z</time>
      </trkpt>
      <trkpt lat="41.51084" lon="20.51475">
        <ele>684.955424</ele>
        <time>2022-04-27T08:43:33.761Z</time>
      </trkpt>
      <trkpt lat="41.50928" lon="20.51298">
        <ele>679.021817</ele>
        <time>2022-04-27T08:44:13.823Z</time>
      </trkpt>
      <trkpt lat="41.50774" lon="20.51059">
        <ele>678.601999</ele>
        <time>2022-04-27T08:44:55.765Z</time>
      </trkpt>
      <trkpt lat="41.50633" lon="20.50772">
        <ele>677.663543</ele>
        <time>2022-04-27T08:45:37.781Z</time>
      </trkpt>
      <trkpt lat="41.50451" lon="20.50637">
        <ele>670.682898</ele>
        <time>2022-04-27T08:46:24.778Z</time>
      </trkpt>
      <trkpt lat="41.50208" lon="20.50564">
        <ele>665.426994</ele>
        <time>2022-04-27T08:47:07.778Z</time>
      </trkpt>
      <trkpt lat="41.49961" lon="20.50356">
        <ele>653.880334</ele>
        <time>2022-04-27T08:47:41.810Z</time>
      </trkpt>
      <trkpt lat="41.49739" lon="20.50405">
        <ele>637.318276</ele>
        <time>2022-04-27T08:48:10.765Z</time>
      </trkpt>
      <trkpt lat="41.49548" lon="20.50587">
        <ele>628.348738</ele>
        <time>2022-04-27T08:48:50.769Z</time>
      </trkpt>
      <trkpt lat="41.49332" lon="20.50614">
        <ele>622.934385</ele>
        <time>2022-04-27T08:49:51.774Z</time>
      </trkpt>
      <trkpt lat="41.49177" lon="20.50776">
        <ele>628.433619</ele>
        <time>2022-04-27T08:51:13.773Z</time>
      </trkpt>
      <trkpt lat="41.49038" lon="20.50958">
        <ele>643.587513</ele>
        <time>2022-04-27T08:53:19.758Z</time>
      </trkpt>
      <trkpt lat="41.48862" lon="20.51096">
        <ele>662.58384</ele>
        <time>2022-04-27T08:55:32.800Z</time>
      </trkpt>
      <trkpt lat="41.48677" lon="20.51169">
        <ele>675.434137</ele>
        <time>2022-04-27T08:57:43.769Z</time>
      </trkpt>
      <trkpt lat="41.48474" lon="20.51148">
        <ele>687.032545</ele>
        <time>2022-04-27T09:00:05.774Z</time>
      </trkpt>
      <trkpt lat="41.48285" lon="20.5112">
        <ele>702.077371</ele>
        <time>2022-04-27T09:02:18.776Z</time>
      </trkpt>
      <trkpt lat="41.48085" lon="20.51124">
        <ele>714.775855</ele>
        <time>2022-04-27T09:04:23.771Z</time>
      </trkpt>
      <trkpt lat="41.47904" lon="20.51247">
        <ele>722.680013</ele>
        <time>2022-04-27T09:06:02.795Z</time>
      </trkpt>
      <trkpt lat="41.47702" lon="20.51175">
        <ele>719.520369</ele>
        <time>2022-04-27T09:07:22.774Z</time>
      </trkpt>
      <trkpt lat="41.47484" lon="20.51182">
        <ele>717.608515</ele>
        <time>2022-04-27T09:08:43.777Z</time>
      </trkpt>
      <trkpt lat="41.47269" lon="20.51171">
        <ele>717.680159</ele>
        <time>2022-04-27T09:10:02.764Z</time>
      </trkpt>
      <trkpt lat="41.47064" lon="20.51211">
        <ele>726.310654</ele>
        <time>2022-04-27T09:11:13.781Z</time>
      </trkpt>
      <trkpt lat="41.46873" lon="20.51297">
        <ele>732.885349</ele>
        <time>2022-04-27T09:12:21.770Z</time>
      </trkpt>
      <trkpt lat="41.46715" lon="20.51407">
        <ele>738.324317</ele>
        <time>2022-04-27T09:14:10.769Z</time>
      </trkpt>
      <trkpt lat="41.46609" lon="20.51627">
        <ele>739.948619</ele>
        <time>2022-04-27T09:16:03.800Z</time>
      </trkpt>
      <trkpt lat="41.46409" lon="20.51635">
        <ele>740.786154</ele>
        <time>2022-04-27T09:17:08.785Z</time>
      </trkpt>
      <trkpt lat="41.4628" lon="20.51874">
        <ele>741.762042</ele>
        <time>2022-04-27T09:18:14.783Z</time>
      </trkpt>
      <trkpt lat="41.46095" lon="20.51772">
        <ele>741.347019</ele>
        <time>2022-04-27T09:19:17.774Z</time>
      </trkpt>
      <trkpt lat="41.45937" lon="20.51837">
        <ele>748.533927</ele>
        <time>2022-04-27T09:20:20.782Z</time>
      </trkpt>
      <trkpt lat="41.45898" lon="20.52049">
        <ele>746.849761</ele>
        <time>2022-04-27T09:21:16.802Z</time>
      </trkpt>
      <trkpt lat="41.45786" lon="20.52282">
        <ele>738.126649</ele>
        <time>2022-04-27T09:22:13.793Z</time>
      </trkpt>
      <trkpt lat="41.4556" lon="20.52362">
        <ele>729.578514</ele>
        <time>2022-04-27T09:22:55.756Z</time>
      </trkpt>
      <trkpt lat="41.45486" lon="20.52113">
        <ele>699.976566</ele>
        <time>2022-04-27T09:23:36.757Z</time>
      </trkpt>
      <trkpt lat="41.45332" lon="20.52023">
        <ele>678.254264</ele>
        <time>2022-04-27T09:24:18.770Z</time>
      </trkpt>
      <trkpt lat="41.45195" lon="20.5198">
        <ele>667.951159</ele>
        <time>2022-04-27T09:24:58.774Z</time>
      </trkpt>
      <trkpt lat="41.45015" lon="20.5198">
        <ele>665.726186</ele>
        <time>2022-04-27T09:25:40.776Z</time>
      </trkpt>
      <trkpt lat="41.44836" lon="20.51836">
        <ele>663.066501</ele>
        <time>2022-04-27T09:26:20.771Z</time>
      </trkpt>
      <trkpt lat="41.44739" lon="20.52001">
        <ele>676.13191</ele>
        <time>2022-04-27T09:27:55.756Z</time>
      </trkpt>
      <trkpt lat="41.44735" lon="20.52249">
        <ele>690.553139</ele>
        <time>2022-04-27T09:30:13.745Z</time>
      </trkpt>
      <trkpt lat="41.44697" lon="20.52484">
        <ele>700.937586</ele>
        <time>2022-04-27T09:32:31.749Z</time>
      </trkpt>
      <trkpt lat="41.44618" lon="20.52699">
        <ele>715.781194</ele>
        <time>2022-04-27T09:35:02.745Z</time>
      </trkpt>
      <trkpt lat="41.44631" lon="20.52898">
        <ele>727.958233</ele>
        <time>2022-04-27T09:37:29.757Z</time>
      </trkpt>
      <trkpt lat="41.44468" lon="20.52962">
        <ele>741.096679</ele>
        <time>2022-04-27T09:39:51.750Z</time>
      </trkpt>
      <trkpt lat="41.44318" lon="20.52901">
        <ele>756.319826</ele>
        <time>2022-04-27T09:41:55.746Z</time>
      </trkpt>
      <trkpt lat="41.4426" lon="20.5316">
        <ele>759.975996</ele>
        <time>2022-04-27T09:43:57.745Z</time>
      </trkpt>
      <trkpt lat="41.44189" lon="20.5341">
        <ele>764.162674</ele>
        <time>2022-04-27T09:45:48.742Z</time>
      </trkpt>
      <trkpt lat="41.44178" lon="20.5363">
        <ele>761.801336</ele>
        <time>2022-04-27T09:46:49.741Z</time>
      </trkpt>
      <trkpt lat="41.44385" lon="20.53839">
        <ele>741.09575</ele>
        <time>2022-04-27T09:49:29.747Z</time>
      </trkpt>
      <trkpt lat="41.44304" lon="20.54229">
        <ele>716.664029</ele>
        <time>2022-04-27T09:50:07.743Z</time>
      </trkpt>
      <trkpt lat="41.44373" lon="20.54475">
        <ele>720.915571</ele>
        <time>2022-04-27T09:51:04.738Z</time>
      </trkpt>
      <trkpt lat="41.44509" lon="20.54664">
        <ele>741.369021</ele>
        <time>2022-04-27T09:52:55.746Z</time>
      </trkpt>
      <trkpt lat="41.44477" lon="20.54951">
        <ele>728.010334</ele>
        <time>2022-04-27T09:54:10.744Z</time>
      </trkpt>
      <trkpt lat="41.44312" lon="20.55174">
        <ele>713.665661</ele>
        <time>2022-04-27T09:54:52.755Z</time>
      </trkpt>
      <trkpt lat="41.44123" lon="20.55045">
        <ele>710.920474</ele>
        <time>2022-04-27T09:55:32.753Z</time>
      </trkpt>
      <trkpt lat="41.44013" lon="20.55252">
        <ele>713.704324</ele>
        <time>2022-04-27T09:57:08.748Z</time>
      </trkpt>
      <trkpt lat="41.4382" lon="20.55333">
        <ele>713.33152</ele>
        <time>2022-04-27T09:58:37.743Z</time>
      </trkpt>
      <trkpt lat="41.43631" lon="20.55622">
        <ele>690.962325</ele>
        <time>2022-04-27T09:59:19.751Z</time>
      </trkpt>
      <trkpt lat="41.43347" lon="20.55788">
        <ele>666.227765</ele>
        <time>2022-04-27T09:59:59.743Z</time>
      </trkpt>
      <trkpt lat="41.43115" lon="20.56075">
        <ele>640.914984</ele>
        <time>2022-04-27T10:00:41.743Z</time>
      </trkpt>
      <trkpt lat="41.4284" lon="20.56129">
        <ele>628.063535</ele>
        <time>2022-04-27T10:01:16.743Z</time>
      </trkpt>
      <trkpt lat="41.42657" lon="20.56286">
        <ele>622.021176</ele>
        <time>2022-04-27T10:01:56.746Z</time>
      </trkpt>
      <trkpt lat="41.4247" lon="20.56396">
        <ele>620.798687</ele>
        <time>2022-04-27T10:02:38.747Z</time>
      </trkpt>
      <trkpt lat="41.42274" lon="20.56497">
        <ele>623.261237</ele>
        <time>2022-04-27T10:03:28.762Z</time>
      </trkpt>
      <trkpt lat="41.42088" lon="20.56651">
        <ele>629.255814</ele>
        <time>2022-04-27T10:04:32.754Z</time>
      </trkpt>
      <trkpt lat="41.41938" lon="20.56872">
        <ele>622.962015</ele>
        <time>2022-04-27T10:05:31.774Z</time>
      </trkpt>
      <trkpt lat="41.41749" lon="20.57078">
        <ele>617.760619</ele>
        <time>2022-04-27T10:06:33.772Z</time>
      </trkpt>
      <trkpt lat="41.41585" lon="20.57304">
        <ele>610.533741</ele>
        <time>2022-04-27T10:07:26.769Z</time>
      </trkpt>
      <trkpt lat="41.41363" lon="20.57379">
        <ele>620.106143</ele>
        <time>2022-04-27T10:08:20.745Z</time>
      </trkpt>
      <trkpt lat="41.41121" lon="20.57438">
        <ele>624.76881</ele>
        <time>2022-04-27T10:09:17.739Z</time>
      </trkpt>
      <trkpt lat="41.4089" lon="20.5752">
        <ele>621.266503</ele>
        <time>2022-04-27T10:10:14.742Z</time>
      </trkpt>
      <trkpt lat="41.40695" lon="20.57677">
        <ele>619.535413</ele>
        <time>2022-04-27T10:11:08.743Z</time>
      </trkpt>
      <trkpt lat="41.4053" lon="20.57866">
        <ele>611.304429</ele>
        <time>2022-04-27T10:11:57.743Z</time>
      </trkpt>
      <trkpt lat="41.40412" lon="20.58128">
        <ele>609.166156</ele>
        <time>2022-04-27T10:12:51.746Z</time>
      </trkpt>
      <trkpt lat="41.40193" lon="20.58282">
        <ele>621.795776</ele>
        <time>2022-04-27T10:13:53.738Z</time>
      </trkpt>
      <trkpt lat="41.3999" lon="20.58361">
        <ele>628.686844</ele>
        <time>2022-04-27T10:14:39.745Z</time>
      </trkpt>
      <trkpt lat="41.39779" lon="20.58345">
        <ele>638.212064</ele>
        <time>2022-04-27T10:15:50.757Z</time>
      </trkpt>
      <trkpt lat="41.39581" lon="20.58401">
        <ele>639.401428</ele>
        <time>2022-04-27T10:17:17.741Z</time>
      </trkpt>
      <trkpt lat="41.39305" lon="20.58377">
        <ele>635.481473</ele>
        <time>2022-04-27T10:18:01.818Z</time>
      </trkpt>
      <trkpt lat="41.39051" lon="20.58336">
        <ele>630.205534</ele>
        <time>2022-04-27T10:18:40.759Z</time>
      </trkpt>
      <trkpt lat="41.38832" lon="20.58359">
        <ele>632.233567</ele>
        <time>2022-04-27T10:19:35.746Z</time>
      </trkpt>
      <trkpt lat="41.3861" lon="20.58419">
        <ele>633.768808</ele>
        <time>2022-04-27T10:20:48.744Z</time>
      </trkpt>
      <trkpt lat="41.3839" lon="20.58423">
        <ele>638.317725</ele>
        <time>2022-04-27T10:21:44.745Z</time>
      </trkpt>
      <trkpt lat="41.38195" lon="20.58598">
        <ele>642.350187</ele>
        <time>2022-04-27T10:22:33.734Z</time>
      </trkpt>
      <trkpt lat="41.38058" lon="20.58812">
        <ele>637.920255</ele>
        <time>2022-04-27T10:23:18.768Z</time>
      </trkpt>
      <trkpt lat="41.37871" lon="20.58981">
        <ele>646.454972</ele>
        <time>2022-04-27T10:24:24.776Z</time>
      </trkpt>
      <trkpt lat="41.3774" lon="20.59232">
        <ele>646.140045</ele>
        <time>2022-04-27T10:25:23.746Z</time>
      </trkpt>
      <trkpt lat="41.3755" lon="20.59418">
        <ele>646.376883</ele>
        <time>2022-04-27T10:26:22.755Z</time>
      </trkpt>
      <trkpt lat="41.37367" lon="20.59582">
        <ele>651.958929</ele>
        <time>2022-04-27T10:27:42.738Z</time>
      </trkpt>
      <trkpt lat="41.37179" lon="20.59696">
        <ele>647.120772</ele>
        <time>2022-04-27T10:28:41.745Z</time>
      </trkpt>
      <trkpt lat="41.36995" lon="20.59849">
        <ele>641.433328</ele>
        <time>2022-04-27T10:29:43.735Z</time>
      </trkpt>
      <trkpt lat="41.36937" lon="20.60117">
        <ele>635.29854</ele>
        <time>2022-04-27T10:30:39.737Z</time>
      </trkpt>
      <trkpt lat="41.3682" lon="20.60375">
        <ele>638.688205</ele>
        <time>2022-04-27T10:31:41.739Z</time>
      </trkpt>
      <trkpt lat="41.36615" lon="20.60481">
        <ele>647.607023</ele>
        <time>2022-04-27T10:32:44.741Z</time>
      </trkpt>
      <trkpt lat="41.364" lon="20.6046">
        <ele>650.273462</ele>
        <time>2022-04-27T10:33:45.737Z</time>
      </trkpt>
      <trkpt lat="41.36203" lon="20.60339">
        <ele>649.88733</ele>
        <time>2022-04-27T10:34:49.734Z</time>
      </trkpt>
      <trkpt lat="41.35993" lon="20.60307">
        <ele>645.600321</ele>
        <time>2022-04-27T10:35:50.749Z</time>
      </trkpt>
      <trkpt lat="41.3584" lon="20.60514">
        <ele>647.149178</ele>
        <time>2022-04-27T10:36:49.737Z</time>
      </trkpt>
      <trkpt lat="41.35688" lon="20.60751">
        <ele>653.024308</ele>
        <time>2022-04-27T10:37:48.750Z</time>
      </trkpt>
      <trkpt lat="41.35521" lon="20.60949">
        <ele>650.85716</ele>
        <time>2022-04-27T10:40:48.753Z</time>
      </trkpt>
      <trkpt lat="41.35458" lon="20.61203">
        <ele>662.365132</ele>
        <time>2022-04-27T11:08:46.733Z</time>
      </trkpt>
      <trkpt lat="41.35398" lon="20.61477">
        <ele>666.236404</ele>
        <time>2022-04-27T11:09:46.737Z</time>
      </trkpt>
      <trkpt lat="41.35299" lon="20.61748">
        <ele>658.694405</ele>
        <time>2022-04-27T11:10:51.741Z</time>
      </trkpt>
      <trkpt lat="41.35191" lon="20.61984">
        <ele>650.187859</ele>
        <time>2022-04-27T11:11:50.750Z</time>
      </trkpt>
      <trkpt lat="41.35014" lon="20.6218">
        <ele>652.511487</ele>
        <time>2022-04-27T11:12:57.738Z</time>
      </trkpt>
      <trkpt lat="41.34862" lon="20.62377">
        <ele>664.198928</ele>
        <time>2022-04-27T11:13:59.771Z</time>
      </trkpt>
      <trkpt lat="41.34668" lon="20.62486">
        <ele>684.964851</ele>
        <time>2022-04-27T11:15:08.738Z</time>
      </trkpt>
      <trkpt lat="41.34505" lon="20.62649">
        <ele>695.778991</ele>
        <time>2022-04-27T11:17:17.736Z</time>
      </trkpt>
      <trkpt lat="41.34327" lon="20.62731">
        <ele>695.338527</ele>
        <time>2022-04-27T11:19:09.748Z</time>
      </trkpt>
      <trkpt lat="41.34131" lon="20.62658">
        <ele>688.900455</ele>
        <time>2022-04-27T11:21:22.733Z</time>
      </trkpt>
      <trkpt lat="41.33947" lon="20.62727">
        <ele>691.412996</ele>
        <time>2022-04-27T11:23:26.734Z</time>
      </trkpt>
      <trkpt lat="41.33852" lon="20.62929">
        <ele>707.582508</ele>
        <time>2022-04-27T11:25:42.730Z</time>
      </trkpt>
      <trkpt lat="41.33765" lon="20.63133">
        <ele>722.247619</ele>
        <time>2022-04-27T11:27:47.737Z</time>
      </trkpt>
      <trkpt lat="41.33642" lon="20.63336">
        <ele>732.017395</ele>
        <time>2022-04-27T11:30:01.737Z</time>
      </trkpt>
      <trkpt lat="41.33487" lon="20.63509">
        <ele>735.99152</ele>
        <time>2022-04-27T11:31:29.757Z</time>
      </trkpt>
      <trkpt lat="41.33292" lon="20.63583">
        <ele>741.806733</ele>
        <time>2022-04-27T11:32:33.739Z</time>
      </trkpt>
      <trkpt lat="41.33094" lon="20.63736">
        <ele>741.13377</ele>
        <time>2022-04-27T11:33:38.768Z</time>
      </trkpt>
      <trkpt lat="41.32901" lon="20.63632">
        <ele>743.541985</ele>
        <time>2022-04-27T11:34:38.732Z</time>
      </trkpt>
      <trkpt lat="41.3268" lon="20.6353">
        <ele>745.574107</ele>
        <time>2022-04-27T11:35:41.739Z</time>
      </trkpt>
      <trkpt lat="41.32513" lon="20.63356">
        <ele>743.171263</ele>
        <time>2022-04-27T11:36:41.741Z</time>
      </trkpt>
      <trkpt lat="41.32293" lon="20.63362">
        <ele>747.721391</ele>
        <time>2022-04-27T11:37:44.739Z</time>
      </trkpt>
      <trkpt lat="41.32085" lon="20.6348">
        <ele>745.115561</ele>
        <time>2022-04-27T11:38:45.740Z</time>
      </trkpt>
      <trkpt lat="41.31898" lon="20.63623">
        <ele>740.507847</ele>
        <time>2022-04-27T11:39:45.731Z</time>
      </trkpt>
      <trkpt lat="41.31708" lon="20.63827">
        <ele>735.706245</ele>
        <time>2022-04-27T11:40:47.751Z</time>
      </trkpt>
      <trkpt lat="41.31495" lon="20.63923">
        <ele>740.804851</ele>
        <time>2022-04-27T11:41:48.737Z</time>
      </trkpt>
      <trkpt lat="41.31277" lon="20.63955">
        <ele>740.515067</ele>
        <time>2022-04-27T11:42:51.768Z</time>
      </trkpt>
      <trkpt lat="41.3108" lon="20.63837">
        <ele>734.551763</ele>
        <time>2022-04-27T11:43:51.741Z</time>
      </trkpt>
      <trkpt lat="41.31044" lon="20.63548">
        <ele>749.217625</ele>
        <time>2022-04-27T11:44:55.741Z</time>
      </trkpt>
      <trkpt lat="41.31005" lon="20.63263">
        <ele>747.473649</ele>
        <time>2022-04-27T11:45:58.753Z</time>
      </trkpt>
      <trkpt lat="41.30837" lon="20.63155">
        <ele>736.936028</ele>
        <time>2022-04-27T11:46:57.728Z</time>
      </trkpt>
      <trkpt lat="41.30639" lon="20.63024">
        <ele>734.501159</ele>
        <time>2022-04-27T11:48:00.736Z</time>
      </trkpt>
      <trkpt lat="41.30431" lon="20.62999">
        <ele>734.741795</ele>
        <time>2022-04-27T11:48:59.733Z</time>
      </trkpt>
      <trkpt lat="41.30273" lon="20.62799">
        <ele>740.48421</ele>
        <time>2022-04-27T11:50:02.738Z</time>
      </trkpt>
      <trkpt lat="41.30285" lon="20.62515">
        <ele>748.195791</ele>
        <time>2022-04-27T11:51:06.731Z</time>
      </trkpt>
      <trkpt lat="41.30259" lon="20.62241">
        <ele>749.644368</ele>
        <time>2022-04-27T11:52:11.728Z</time>
      </trkpt>
      <trkpt lat="41.30089" lon="20.62032">
        <ele>746.111513</ele>
        <time>2022-04-27T11:53:14.750Z</time>
      </trkpt>
      <trkpt lat="41.29872" lon="20.61972">
        <ele>750.786396</ele>
        <time>2022-04-27T11:54:15.726Z</time>
      </trkpt>
      <trkpt lat="41.29633" lon="20.61983">
        <ele>752.626834</ele>
        <time>2022-04-27T11:55:18.733Z</time>
      </trkpt>
      <trkpt lat="41.29424" lon="20.62068">
        <ele>752.184296</ele>
        <time>2022-04-27T11:56:18.732Z</time>
      </trkpt>
      <trkpt lat="41.29208" lon="20.62098">
        <ele>754.010929</ele>
        <time>2022-04-27T11:57:20.736Z</time>
      </trkpt>
      <trkpt lat="41.29008" lon="20.61975">
        <ele>760.000777</ele>
        <time>2022-04-27T11:58:20.728Z</time>
      </trkpt>
      <trkpt lat="41.28809" lon="20.6181">
        <ele>752.97593</ele>
        <time>2022-04-27T11:59:23.737Z</time>
      </trkpt>
      <trkpt lat="41.28613" lon="20.61662">
        <ele>748.564458</ele>
        <time>2022-04-27T12:00:31.734Z</time>
      </trkpt>
      <trkpt lat="41.28401" lon="20.61565">
        <ele>738.680425</ele>
        <time>2022-04-27T12:01:31.728Z</time>
      </trkpt>
      <trkpt lat="41.2822" lon="20.61385">
        <ele>742.829628</ele>
        <time>2022-04-27T12:02:34.761Z</time>
      </trkpt>
      <trkpt lat="41.28221" lon="20.61666">
        <ele>747.369376</ele>
        <time>2022-04-27T12:03:33.730Z</time>
      </trkpt>
      <trkpt lat="41.28093" lon="20.61929">
        <ele>746.534822</ele>
        <time>2022-04-27T12:04:35.734Z</time>
      </trkpt>
      <trkpt lat="41.27896" lon="20.62058">
        <ele>752.195123</ele>
        <time>2022-04-27T12:05:33.741Z</time>
      </trkpt>
      <trkpt lat="41.27694" lon="20.62225">
        <ele>754.778881</ele>
        <time>2022-04-27T12:06:36.742Z</time>
      </trkpt>
      <trkpt lat="41.27551" lon="20.6248">
        <ele>750.45165</ele>
        <time>2022-04-27T12:07:39.739Z</time>
      </trkpt>
      <trkpt lat="41.27345" lon="20.6258">
        <ele>756.013685</ele>
        <time>2022-04-27T12:08:39.726Z</time>
      </trkpt>
      <trkpt lat="41.27104" lon="20.62595">
        <ele>760.336449</ele>
        <time>2022-04-27T12:09:42.756Z</time>
      </trkpt>
      <trkpt lat="41.26889" lon="20.62563">
        <ele>755.09186</ele>
        <time>2022-04-27T12:10:39.770Z</time>
      </trkpt>
      <trkpt lat="41.26629" lon="20.62689">
        <ele>743.021098</ele>
        <time>2022-04-27T12:11:23.767Z</time>
      </trkpt>
      <trkpt lat="41.26688" lon="20.6291">
        <ele>733.206043</ele>
        <time>2022-04-27T12:12:03.744Z</time>
      </trkpt>
      <trkpt lat="41.26647" lon="20.63146">
        <ele>735.778701</ele>
        <time>2022-04-27T12:12:56.797Z</time>
      </trkpt>
      <trkpt lat="41.26459" lon="20.63327">
        <ele>741.22865</ele>
        <time>2022-04-27T12:13:58.797Z</time>
      </trkpt>
      <trkpt lat="41.26283" lon="20.63434">
        <ele>749.951706</ele>
        <time>2022-04-27T12:15:55.789Z</time>
      </trkpt>
      <trkpt lat="41.26127" lon="20.63585">
        <ele>761.341335</ele>
        <time>2022-04-27T12:18:01.753Z</time>
      </trkpt>
      <trkpt lat="41.25947" lon="20.63627">
        <ele>759.979621</ele>
        <time>2022-04-27T12:19:38.735Z</time>
      </trkpt>
      <trkpt lat="41.25744" lon="20.63582">
        <ele>760.863243</ele>
        <time>2022-04-27T12:20:43.738Z</time>
      </trkpt>
      <trkpt lat="41.2554" lon="20.63541">
        <ele>765.141909</ele>
        <time>2022-04-27T12:21:57.734Z</time>
      </trkpt>
      <trkpt lat="41.25323" lon="20.6355">
        <ele>767.45609</ele>
        <time>2022-04-27T12:23:07.726Z</time>
      </trkpt>
      <trkpt lat="41.25143" lon="20.63694">
        <ele>771.867398</ele>
        <time>2022-04-27T12:24:10.734Z</time>
      </trkpt>
      <trkpt lat="41.24963" lon="20.63862">
        <ele>769.839776</ele>
        <time>2022-04-27T12:25:10.734Z</time>
      </trkpt>
      <trkpt lat="41.24752" lon="20.63998">
        <ele>765.396689</ele>
        <time>2022-04-27T12:28:53.745Z</time>
      </trkpt>
      <trkpt lat="41.24526" lon="20.64119">
        <ele>763.297047</ele>
        <time>2022-04-27T12:29:37.736Z</time>
      </trkpt>
      <trkpt lat="41.24309" lon="20.64191">
        <ele>770.279202</ele>
        <time>2022-04-27T12:30:49.733Z</time>
      </trkpt>
      <trkpt lat="41.2411" lon="20.64167">
        <ele>769.039985</ele>
        <time>2022-04-27T12:31:46.741Z</time>
      </trkpt>
      <trkpt lat="41.23887" lon="20.64147">
        <ele>782.623674</ele>
        <time>2022-04-27T12:33:01.761Z</time>
      </trkpt>
      <trkpt lat="41.23675" lon="20.64237">
        <ele>773.957876</ele>
        <time>2022-04-27T12:33:58.729Z</time>
      </trkpt>
      <trkpt lat="41.23491" lon="20.64394">
        <ele>771.338293</ele>
        <time>2022-04-27T12:34:56.743Z</time>
      </trkpt>
      <trkpt lat="41.23281" lon="20.64564">
        <ele>764.28042</ele>
        <time>2022-04-27T12:35:54.736Z</time>
      </trkpt>
      <trkpt lat="41.23074" lon="20.64719">
        <ele>756.10122</ele>
        <time>2022-04-27T12:36:50.743Z</time>
      </trkpt>
      <trkpt lat="41.22864" lon="20.64877">
        <ele>750.62661</ele>
        <time>2022-04-27T12:37:36.735Z</time>
      </trkpt>
      <trkpt lat="41.22658" lon="20.65029">
        <ele>747.12345</ele>
        <time>2022-04-27T12:38:16.741Z</time>
      </trkpt>
      <trkpt lat="41.22476" lon="20.65165">
        <ele>746.206546</ele>
        <time>2022-04-27T12:38:58.734Z</time>
      </trkpt>
      <trkpt lat="41.22297" lon="20.65297">
        <ele>747.945858</ele>
        <time>2022-04-27T12:39:40.735Z</time>
      </trkpt>
      <trkpt lat="41.22114" lon="20.65437">
        <ele>748.335939</ele>
        <time>2022-04-27T12:40:20.739Z</time>
      </trkpt>
      <trkpt lat="41.21918" lon="20.65589">
        <ele>747.738065</ele>
        <time>2022-04-27T12:41:02.733Z</time>
      </trkpt>
      <trkpt lat="41.21743" lon="20.65729">
        <ele>745.192172</ele>
        <time>2022-04-27T12:41:42.738Z</time>
      </trkpt>
      <trkpt lat="41.21544" lon="20.65886">
        <ele>738.837661</ele>
        <time>2022-04-27T12:42:24.741Z</time>
      </trkpt>
      <trkpt lat="41.21343" lon="20.66081">
        <ele>737.898855</ele>
        <time>2022-04-27T12:43:04.736Z</time>
      </trkpt>
      <trkpt lat="41.21129" lon="20.66298">
        <ele>736.879684</ele>
        <time>2022-04-27T12:43:46.734Z</time>
      </trkpt>
      <trkpt lat="41.20962" lon="20.66468">
        <ele>734.515734</ele>
        <time>2022-04-27T12:44:33.742Z</time>
      </trkpt>
      <trkpt lat="41.20801" lon="20.66644">
        <ele>733.901908</ele>
        <time>2022-04-27T12:45:13.757Z</time>
      </trkpt>
      <trkpt lat="41.20659" lon="20.66881">
        <ele>732.473911</ele>
        <time>2022-04-27T12:45:55.730Z</time>
      </trkpt>
      <trkpt lat="41.20532" lon="20.67114">
        <ele>731.404594</ele>
        <time>2022-04-27T12:46:35.737Z</time>
      </trkpt>
      <trkpt lat="41.20362" lon="20.67261">
        <ele>732.580812</ele>
        <time>2022-04-27T12:47:17.757Z</time>
      </trkpt>
      <trkpt lat="41.2016" lon="20.67324">
        <ele>730.817843</ele>
        <time>2022-04-27T12:47:59.738Z</time>
      </trkpt>
      <trkpt lat="41.19958" lon="20.67436">
        <ele>731.659051</ele>
        <time>2022-04-27T12:48:41.726Z</time>
      </trkpt>
      <trkpt lat="41.19753" lon="20.6757">
        <ele>735.290323</ele>
        <time>2022-04-27T12:49:37.728Z</time>
      </trkpt>
      <trkpt lat="41.19556" lon="20.67663">
        <ele>732.198954</ele>
        <time>2022-04-27T12:50:25.728Z</time>
      </trkpt>
      <trkpt lat="41.1934" lon="20.67684">
        <ele>734.201156</ele>
        <time>2022-04-27T12:51:10.733Z</time>
      </trkpt>
      <trkpt lat="41.19118" lon="20.67651">
        <ele>734.82691</ele>
        <time>2022-04-27T12:52:00.742Z</time>
      </trkpt>
      <trkpt lat="41.18882" lon="20.67612">
        <ele>735.544578</ele>
        <time>2022-04-27T12:52:53.734Z</time>
      </trkpt>
      <trkpt lat="41.18653" lon="20.67575">
        <ele>739.167337</ele>
        <time>2022-04-27T12:53:45.736Z</time>
      </trkpt>
      <trkpt lat="41.18418" lon="20.67539">
        <ele>738.944263</ele>
        <time>2022-04-27T12:54:39.737Z</time>
      </trkpt>
      <trkpt lat="41.18204" lon="20.67587">
        <ele>741.588446</ele>
        <time>2022-04-27T12:55:27.734Z</time>
      </trkpt>
      <trkpt lat="41.17965" lon="20.67629">
        <ele>754.361473</ele>
        <time>2022-04-27T12:56:25.734Z</time>
      </trkpt>
      <trkpt lat="41.17736" lon="20.67608">
        <ele>758.352226</ele>
        <time>2022-04-27T12:57:29.746Z</time>
      </trkpt>
      <trkpt lat="41.17626" lon="20.67621">
        <ele>758.352226</ele>
        <time>2022-04-27T12:59:11.107Z</time>
      </trkpt>
    </trkseg>
  </trk>
  <trk>
    <name><![CDATA[Tour d'Europe: étape 667]]></name>
    <extensions>
      <line xmlns="http://www.topografix.com/GPX/gpx_style/0/2">
        <color>00FFFF</color>
        <width>4</width>
      </line>
    </extensions>
    <trkseg>
      <trkpt lat="41.62242" lon="20.60691">
        <ele>745.165181</ele>
        <time>2022-04-26T09:02:44.230Z</time>
      </trkpt>
      <trkpt lat="41.62289" lon="20.60669">
        <ele>742.919535</ele>
        <time>2022-04-26T09:15:21.455Z</time>
      </trkpt>
      <trkpt lat="41.62083" lon="20.608">
        <ele>738.577756</ele>
        <time>2022-04-26T09:16:10.480Z</time>
      </trkpt>
      <trkpt lat="41.61869" lon="20.60714">
        <ele>734.355954</ele>
        <time>2022-04-26T09:17:06.449Z</time>
      </trkpt>
      <trkpt lat="41.61611" lon="20.60702">
        <ele>728.638495</ele>
        <time>2022-04-26T09:17:46.454Z</time>
      </trkpt>
      <trkpt lat="41.61412" lon="20.60775">
        <ele>730.658653</ele>
        <time>2022-04-26T09:18:44.456Z</time>
      </trkpt>
      <trkpt lat="41.61222" lon="20.60829">
        <ele>733.375275</ele>
        <time>2022-04-26T09:19:42.452Z</time>
      </trkpt>
      <trkpt lat="41.60992" lon="20.60831">
        <ele>726.461601</ele>
        <time>2022-04-26T09:20:34.488Z</time>
      </trkpt>
      <trkpt lat="41.60742" lon="20.60782">
        <ele>719.060875</ele>
        <time>2022-04-26T09:21:16.451Z</time>
      </trkpt>
      <trkpt lat="41.60516" lon="20.60779">
        <ele>719.266478</ele>
        <time>2022-04-26T09:22:07.454Z</time>
      </trkpt>
      <trkpt lat="41.60367" lon="20.60885">
        <ele>720.102435</ele>
        <time>2022-04-26T09:23:15.455Z</time>
      </trkpt>
      <trkpt lat="41.60222" lon="20.6095">
        <ele>721.489939</ele>
        <time>2022-04-26T09:24:16.452Z</time>
      </trkpt>
      <trkpt lat="41.59991" lon="20.60955">
        <ele>720.146213</ele>
        <time>2022-04-26T09:24:56.470Z</time>
      </trkpt>
      <trkpt lat="41.59788" lon="20.61124">
        <ele>705.359736</ele>
        <time>2022-04-26T09:25:43.483Z</time>
      </trkpt>
      <trkpt lat="41.59623" lon="20.61343">
        <ele>699.156175</ele>
        <time>2022-04-26T09:26:12.476Z</time>
      </trkpt>
      <trkpt lat="41.59459" lon="20.61506">
        <ele>704.345282</ele>
        <time>2022-04-26T09:27:08.485Z</time>
      </trkpt>
      <trkpt lat="41.59259" lon="20.61657">
        <ele>701.113595</ele>
        <time>2022-04-26T09:27:58.477Z</time>
      </trkpt>
      <trkpt lat="41.59092" lon="20.61836">
        <ele>708.368292</ele>
        <time>2022-04-26T09:29:22.484Z</time>
      </trkpt>
      <trkpt lat="41.58923" lon="20.62006">
        <ele>707.005608</ele>
        <time>2022-04-26T09:30:21.475Z</time>
      </trkpt>
      <trkpt lat="41.58662" lon="20.62114">
        <ele>695.60234</ele>
        <time>2022-04-26T09:31:00.496Z</time>
      </trkpt>
      <trkpt lat="41.58538" lon="20.62388">
        <ele>692.733837</ele>
        <time>2022-04-26T09:31:53.494Z</time>
      </trkpt>
      <trkpt lat="41.58351" lon="20.62518">
        <ele>701.684528</ele>
        <time>2022-04-26T09:32:59.502Z</time>
      </trkpt>
      <trkpt lat="41.58112" lon="20.62418">
        <ele>692.082169</ele>
        <time>2022-04-26T09:33:42.489Z</time>
      </trkpt>
      <trkpt lat="41.5799" lon="20.62083">
        <ele>686.974094</ele>
        <time>2022-04-26T09:34:16.484Z</time>
      </trkpt>
      <trkpt lat="41.57953" lon="20.61758">
        <ele>682.129354</ele>
        <time>2022-04-26T09:34:56.466Z</time>
      </trkpt>
      <trkpt lat="41.57718" lon="20.61724">
        <ele>683.084032</ele>
        <time>2022-04-26T09:35:52.476Z</time>
      </trkpt>
      <trkpt lat="41.57491" lon="20.6174">
        <ele>676.942411</ele>
        <time>2022-04-26T09:36:53.478Z</time>
      </trkpt>
      <trkpt lat="41.57279" lon="20.61709">
        <ele>677.813064</ele>
        <time>2022-04-26T09:38:00.477Z</time>
      </trkpt>
      <trkpt lat="41.57058" lon="20.61723">
        <ele>674.824248</ele>
        <time>2022-04-26T09:38:48.495Z</time>
      </trkpt>
      <trkpt lat="41.5683" lon="20.61713">
        <ele>677.364748</ele>
        <time>2022-04-26T09:39:38.479Z</time>
      </trkpt>
      <trkpt lat="41.56731" lon="20.61934">
        <ele>678.804299</ele>
        <time>2022-04-26T09:41:13.496Z</time>
      </trkpt>
      <trkpt lat="41.56579" lon="20.62026">
        <ele>687.58632</ele>
        <time>2022-04-26T09:42:59.478Z</time>
      </trkpt>
      <trkpt lat="41.56381" lon="20.61892">
        <ele>688.281438</ele>
        <time>2022-04-26T09:44:16.511Z</time>
      </trkpt>
      <trkpt lat="41.5618" lon="20.61778">
        <ele>688.028446</ele>
        <time>2022-04-26T09:45:02.485Z</time>
      </trkpt>
      <trkpt lat="41.55912" lon="20.61669">
        <ele>682.204994</ele>
        <time>2022-04-26T09:45:42.517Z</time>
      </trkpt>
      <trkpt lat="41.55622" lon="20.61733">
        <ele>665.949113</ele>
        <time>2022-04-26T09:46:26.479Z</time>
      </trkpt>
      <trkpt lat="41.55406" lon="20.61644">
        <ele>652.770642</ele>
        <time>2022-04-26T09:46:53.478Z</time>
      </trkpt>
      <trkpt lat="41.55185" lon="20.61561">
        <ele>645.462236</ele>
        <time>2022-04-26T09:47:48.492Z</time>
      </trkpt>
      <trkpt lat="41.55015" lon="20.61362">
        <ele>647.845279</ele>
        <time>2022-04-26T09:48:48.456Z</time>
      </trkpt>
      <trkpt lat="41.54918" lon="20.61095">
        <ele>648.850761</ele>
        <time>2022-04-26T09:49:45.544Z</time>
      </trkpt>
      <trkpt lat="41.54784" lon="20.60847">
        <ele>644.594495</ele>
        <time>2022-04-26T09:50:38.490Z</time>
      </trkpt>
      <trkpt lat="41.54604" lon="20.60649">
        <ele>643.545601</ele>
        <time>2022-04-26T09:51:32.485Z</time>
      </trkpt>
      <trkpt lat="41.54502" lon="20.60365">
        <ele>637.115896</ele>
        <time>2022-04-26T09:52:27.477Z</time>
      </trkpt>
      <trkpt lat="41.54433" lon="20.60096">
        <ele>634.240258</ele>
        <time>2022-04-26T09:53:11.474Z</time>
      </trkpt>
      <trkpt lat="41.54333" lon="20.59861">
        <ele>631.484487</ele>
        <time>2022-04-26T09:53:51.489Z</time>
      </trkpt>
      <trkpt lat="41.54196" lon="20.59637">
        <ele>631.549382</ele>
        <time>2022-04-26T09:54:38.511Z</time>
      </trkpt>
      <trkpt lat="41.54074" lon="20.59384">
        <ele>630.538278</ele>
        <time>2022-04-26T09:55:28.489Z</time>
      </trkpt>
      <trkpt lat="41.53926" lon="20.59137">
        <ele>626.806558</ele>
        <time>2022-04-26T09:56:23.474Z</time>
      </trkpt>
      <trkpt lat="41.53753" lon="20.58963">
        <ele>624.563201</ele>
        <time>2022-04-26T09:57:10.478Z</time>
      </trkpt>
      <trkpt lat="41.53625" lon="20.58699">
        <ele>629.757961</ele>
        <time>2022-04-26T09:58:04.473Z</time>
      </trkpt>
      <trkpt lat="41.53524" lon="20.58444">
        <ele>627.414265</ele>
        <time>2022-04-26T09:58:44.470Z</time>
      </trkpt>
      <trkpt lat="41.53422" lon="20.58159">
        <ele>622.304545</ele>
        <time>2022-04-26T09:59:28.503Z</time>
      </trkpt>
      <trkpt lat="41.53192" lon="20.58044">
        <ele>622.074767</ele>
        <time>2022-04-26T10:00:31.481Z</time>
      </trkpt>
      <trkpt lat="41.52991" lon="20.57971">
        <ele>618.202869</ele>
        <time>2022-04-26T10:01:31.486Z</time>
      </trkpt>
      <trkpt lat="41.52835" lon="20.57779">
        <ele>621.32772</ele>
        <time>2022-04-26T10:02:31.491Z</time>
      </trkpt>
      <trkpt lat="41.5268" lon="20.57607">
        <ele>635.181562</ele>
        <time>2022-04-26T10:03:44.480Z</time>
      </trkpt>
      <trkpt lat="41.52483" lon="20.57543">
        <ele>640.024016</ele>
        <time>2022-04-26T10:04:57.468Z</time>
      </trkpt>
      <trkpt lat="41.52351" lon="20.57323">
        <ele>637.924771</ele>
        <time>2022-04-26T10:06:14.519Z</time>
      </trkpt>
      <trkpt lat="41.52179" lon="20.57114">
        <ele>633.227087</ele>
        <time>2022-04-26T10:07:18.504Z</time>
      </trkpt>
      <trkpt lat="41.52188" lon="20.56832">
        <ele>636.643345</ele>
        <time>2022-04-26T10:08:16.490Z</time>
      </trkpt>
      <trkpt lat="41.52148" lon="20.56608">
        <ele>645.781742</ele>
        <time>2022-04-26T10:09:41.494Z</time>
      </trkpt>
      <trkpt lat="41.5201" lon="20.56426">
        <ele>665.404044</ele>
        <time>2022-04-26T10:12:03.511Z</time>
      </trkpt>
      <trkpt lat="41.51896" lon="20.5624">
        <ele>679.017672</ele>
        <time>2022-04-26T10:14:28.491Z</time>
      </trkpt>
      <trkpt lat="41.51822" lon="20.56005">
        <ele>693.462136</ele>
        <time>2022-04-26T10:16:58.455Z</time>
      </trkpt>
      <trkpt lat="41.51753" lon="20.55756">
        <ele>709.011376</ele>
        <time>2022-04-26T10:19:37.464Z</time>
      </trkpt>
      <trkpt lat="41.51611" lon="20.55585">
        <ele>725.4887</ele>
        <time>2022-04-26T10:22:08.460Z</time>
      </trkpt>
      <trkpt lat="41.51445" lon="20.55474">
        <ele>737.919561</ele>
        <time>2022-04-26T10:24:44.541Z</time>
      </trkpt>
      <trkpt lat="41.5151" lon="20.55243">
        <ele>754.547979</ele>
        <time>2022-04-26T10:27:26.462Z</time>
      </trkpt>
      <trkpt lat="41.5153" lon="20.54997">
        <ele>763.204778</ele>
        <time>2022-04-26T10:29:59.462Z</time>
      </trkpt>
      <trkpt lat="41.51487" lon="20.54709">
        <ele>761.453993</ele>
        <time>2022-04-26T10:51:31.474Z</time>
      </trkpt>
      <trkpt lat="41.51412" lon="20.54386">
        <ele>744.72778</ele>
        <time>2022-04-26T10:52:08.468Z</time>
      </trkpt>
      <trkpt lat="41.51454" lon="20.54034">
        <ele>720.777769</ele>
        <time>2022-04-26T10:52:43.473Z</time>
      </trkpt>
      <trkpt lat="41.51547" lon="20.53737">
        <ele>697.603541</ele>
        <time>2022-04-26T10:53:23.478Z</time>
      </trkpt>
      <trkpt lat="41.51613" lon="20.53442">
        <ele>691.952621</ele>
        <time>2022-04-26T10:54:27.510Z</time>
      </trkpt>
      <trkpt lat="41.51589" lon="20.53327">
        <ele>691.952621</ele>
        <time>2022-04-26T10:57:25.569Z</time>
      </trkpt>
    </trkseg>
  </trk>
  <trk>
    <name><![CDATA[Tour d'Europe: étape 666]]></name>
    <extensions>
      <line xmlns="http://www.topografix.com/GPX/gpx_style/0/2">
        <color>FFFF00</color>
        <width>4</width>
      </line>
    </extensions>
    <trkseg>
      <trkpt lat="41.79015" lon="20.90829">
        <ele>580.190296</ele>
        <time>2022-04-25T08:00:54.991Z</time>
      </trkpt>
      <trkpt lat="41.78988" lon="20.90745">
        <ele>583.558874</ele>
        <time>2022-04-25T08:05:22.899Z</time>
      </trkpt>
      <trkpt lat="41.79034" lon="20.90459">
        <ele>589.015497</ele>
        <time>2022-04-25T08:07:12.898Z</time>
      </trkpt>
      <trkpt lat="41.7906" lon="20.90196">
        <ele>588.298198</ele>
        <time>2022-04-25T08:08:15.889Z</time>
      </trkpt>
      <trkpt lat="41.79138" lon="20.89986">
        <ele>583.848736</ele>
        <time>2022-04-25T08:09:19.902Z</time>
      </trkpt>
      <trkpt lat="41.79354" lon="20.89932">
        <ele>589.544953</ele>
        <time>2022-04-25T08:10:19.888Z</time>
      </trkpt>
      <trkpt lat="41.79506" lon="20.89844">
        <ele>595.626202</ele>
        <time>2022-04-25T08:11:39.893Z</time>
      </trkpt>
      <trkpt lat="41.79471" lon="20.89575">
        <ele>598.010857</ele>
        <time>2022-04-25T08:12:41.895Z</time>
      </trkpt>
      <trkpt lat="41.79458" lon="20.89298">
        <ele>599.797313</ele>
        <time>2022-04-25T08:13:46.908Z</time>
      </trkpt>
      <trkpt lat="41.79432" lon="20.8901">
        <ele>604.319813</ele>
        <time>2022-04-25T08:14:54.898Z</time>
      </trkpt>
      <trkpt lat="41.7941" lon="20.88741">
        <ele>602.27681</ele>
        <time>2022-04-25T08:15:57.877Z</time>
      </trkpt>
      <trkpt lat="41.79433" lon="20.88509">
        <ele>594.157383</ele>
        <time>2022-04-25T08:17:00.917Z</time>
      </trkpt>
      <trkpt lat="41.79337" lon="20.88272">
        <ele>597.500896</ele>
        <time>2022-04-25T08:18:05.919Z</time>
      </trkpt>
      <trkpt lat="41.79192" lon="20.88071">
        <ele>600.110258</ele>
        <time>2022-04-25T08:19:16.891Z</time>
      </trkpt>
      <trkpt lat="41.79006" lon="20.87968">
        <ele>602.891233</ele>
        <time>2022-04-25T08:20:20.910Z</time>
      </trkpt>
      <trkpt lat="41.78882" lon="20.8775">
        <ele>607.553017</ele>
        <time>2022-04-25T08:21:38.914Z</time>
      </trkpt>
      <trkpt lat="41.78729" lon="20.87562">
        <ele>612.408649</ele>
        <time>2022-04-25T08:22:55.903Z</time>
      </trkpt>
      <trkpt lat="41.78576" lon="20.87379">
        <ele>618.094606</ele>
        <time>2022-04-25T08:24:15.938Z</time>
      </trkpt>
      <trkpt lat="41.78403" lon="20.87245">
        <ele>621.837581</ele>
        <time>2022-04-25T08:25:36.926Z</time>
      </trkpt>
      <trkpt lat="41.78231" lon="20.87097">
        <ele>631.600759</ele>
        <time>2022-04-25T08:26:54.918Z</time>
      </trkpt>
      <trkpt lat="41.7805" lon="20.86945">
        <ele>635.306737</ele>
        <time>2022-04-25T08:28:14.895Z</time>
      </trkpt>
      <trkpt lat="41.77916" lon="20.86746">
        <ele>637.735021</ele>
        <time>2022-04-25T08:29:38.898Z</time>
      </trkpt>
      <trkpt lat="41.77775" lon="20.86555">
        <ele>648.023285</ele>
        <time>2022-04-25T08:31:11.903Z</time>
      </trkpt>
      <trkpt lat="41.77619" lon="20.86405">
        <ele>653.108907</ele>
        <time>2022-04-25T08:32:55.909Z</time>
      </trkpt>
      <trkpt lat="41.77457" lon="20.86261">
        <ele>658.714263</ele>
        <time>2022-04-25T08:34:43.899Z</time>
      </trkpt>
      <trkpt lat="41.7727" lon="20.86181">
        <ele>667.507766</ele>
        <time>2022-04-25T08:36:42.884Z</time>
      </trkpt>
      <trkpt lat="41.77107" lon="20.86068">
        <ele>675.540798</ele>
        <time>2022-04-25T08:38:45.899Z</time>
      </trkpt>
      <trkpt lat="41.77038" lon="20.85836">
        <ele>685.099006</ele>
        <time>2022-04-25T08:40:54.904Z</time>
      </trkpt>
      <trkpt lat="41.76856" lon="20.85773">
        <ele>694.147807</ele>
        <time>2022-04-25T08:43:04.902Z</time>
      </trkpt>
      <trkpt lat="41.7672" lon="20.85584">
        <ele>707.574698</ele>
        <time>2022-04-25T08:50:43.891Z</time>
      </trkpt>
      <trkpt lat="41.76581" lon="20.85404">
        <ele>717.537093</ele>
        <time>2022-04-25T08:52:52.929Z</time>
      </trkpt>
      <trkpt lat="41.76394" lon="20.85361">
        <ele>729.305824</ele>
        <time>2022-04-25T08:55:01.867Z</time>
      </trkpt>
      <trkpt lat="41.76266" lon="20.85171">
        <ele>738.974103</ele>
        <time>2022-04-25T08:57:08.882Z</time>
      </trkpt>
      <trkpt lat="41.76143" lon="20.84974">
        <ele>752.729366</ele>
        <time>2022-04-25T08:59:21.867Z</time>
      </trkpt>
      <trkpt lat="41.75962" lon="20.85023">
        <ele>767.134265</ele>
        <time>2022-04-25T09:01:34.890Z</time>
      </trkpt>
      <trkpt lat="41.75805" lon="20.84874">
        <ele>776.852909</ele>
        <time>2022-04-25T09:03:48.872Z</time>
      </trkpt>
      <trkpt lat="41.75623" lon="20.84794">
        <ele>785.641456</ele>
        <time>2022-04-25T09:06:04.890Z</time>
      </trkpt>
      <trkpt lat="41.7554" lon="20.84577">
        <ele>795.787359</ele>
        <time>2022-04-25T09:08:18.880Z</time>
      </trkpt>
      <trkpt lat="41.75412" lon="20.84389">
        <ele>807.067067</ele>
        <time>2022-04-25T09:10:34.877Z</time>
      </trkpt>
      <trkpt lat="41.75221" lon="20.84334">
        <ele>818.426667</ele>
        <time>2022-04-25T09:12:49.875Z</time>
      </trkpt>
      <trkpt lat="41.75145" lon="20.84114">
        <ele>829.000507</ele>
        <time>2022-04-25T09:15:04.878Z</time>
      </trkpt>
      <trkpt lat="41.75026" lon="20.83919">
        <ele>842.962137</ele>
        <time>2022-04-25T09:17:19.869Z</time>
      </trkpt>
      <trkpt lat="41.74842" lon="20.83912">
        <ele>856.268868</ele>
        <time>2022-04-25T09:19:35.865Z</time>
      </trkpt>
      <trkpt lat="41.74698" lon="20.83738">
        <ele>862.56148</ele>
        <time>2022-04-25T09:21:57.872Z</time>
      </trkpt>
      <trkpt lat="41.74549" lon="20.83594">
        <ele>870.611543</ele>
        <time>2022-04-25T09:24:12.891Z</time>
      </trkpt>
      <trkpt lat="41.74364" lon="20.83528">
        <ele>882.781742</ele>
        <time>2022-04-25T09:26:22.886Z</time>
      </trkpt>
      <trkpt lat="41.74188" lon="20.83433">
        <ele>896.06136</ele>
        <time>2022-04-25T09:28:36.886Z</time>
      </trkpt>
      <trkpt lat="41.74024" lon="20.83562">
        <ele>911.663961</ele>
        <time>2022-04-25T09:30:59.912Z</time>
      </trkpt>
      <trkpt lat="41.73847" lon="20.83635">
        <ele>924.277361</ele>
        <time>2022-04-25T09:33:37.900Z</time>
      </trkpt>
      <trkpt lat="41.73665" lon="20.8371">
        <ele>935.395013</ele>
        <time>2022-04-25T09:36:26.900Z</time>
      </trkpt>
      <trkpt lat="41.73539" lon="20.83527">
        <ele>935.675354</ele>
        <time>2022-04-25T09:48:36.870Z</time>
      </trkpt>
      <trkpt lat="41.73371" lon="20.8325">
        <ele>923.382194</ele>
        <time>2022-04-25T09:49:16.863Z</time>
      </trkpt>
      <trkpt lat="41.73299" lon="20.83423">
        <ele>931.267192</ele>
        <time>2022-04-25T09:50:54.866Z</time>
      </trkpt>
      <trkpt lat="41.73265" lon="20.83666">
        <ele>948.339519</ele>
        <time>2022-04-25T09:53:20.877Z</time>
      </trkpt>
      <trkpt lat="41.73201" lon="20.83892">
        <ele>959.244893</ele>
        <time>2022-04-25T09:55:41.865Z</time>
      </trkpt>
      <trkpt lat="41.73072" lon="20.83952">
        <ele>967.280166</ele>
        <time>2022-04-25T09:58:07.866Z</time>
      </trkpt>
      <trkpt lat="41.72936" lon="20.83941">
        <ele>984.367886</ele>
        <time>2022-04-25T10:00:40.876Z</time>
      </trkpt>
      <trkpt lat="41.72865" lon="20.84136">
        <ele>998.847848</ele>
        <time>2022-04-25T10:03:02.868Z</time>
      </trkpt>
      <trkpt lat="41.72716" lon="20.84069">
        <ele>1013.202879</ele>
        <time>2022-04-25T10:05:24.859Z</time>
      </trkpt>
      <trkpt lat="41.72829" lon="20.83954">
        <ele>1032.076095</ele>
        <time>2022-04-25T10:07:54.882Z</time>
      </trkpt>
      <trkpt lat="41.72719" lon="20.83752">
        <ele>1045.721154</ele>
        <time>2022-04-25T10:10:24.886Z</time>
      </trkpt>
      <trkpt lat="41.72836" lon="20.83578">
        <ele>1056.493451</ele>
        <time>2022-04-25T10:13:03.876Z</time>
      </trkpt>
      <trkpt lat="41.72735" lon="20.83381">
        <ele>1071.766563</ele>
        <time>2022-04-25T10:15:43.939Z</time>
      </trkpt>
      <trkpt lat="41.7264" lon="20.83173">
        <ele>1080.251585</ele>
        <time>2022-04-25T10:18:22.903Z</time>
      </trkpt>
      <trkpt lat="41.72683" lon="20.82941">
        <ele>1091.613286</ele>
        <time>2022-04-25T10:21:04.897Z</time>
      </trkpt>
      <trkpt lat="41.72699" lon="20.82732">
        <ele>1107.96394</ele>
        <time>2022-04-25T10:23:55.885Z</time>
      </trkpt>
      <trkpt lat="41.72627" lon="20.82523">
        <ele>1122.741626</ele>
        <time>2022-04-25T10:26:45.881Z</time>
      </trkpt>
      <trkpt lat="41.72662" lon="20.82275">
        <ele>1136.624851</ele>
        <time>2022-04-25T10:56:11.896Z</time>
      </trkpt>
      <trkpt lat="41.72637" lon="20.82056">
        <ele>1153.449754</ele>
        <time>2022-04-25T10:58:50.902Z</time>
      </trkpt>
      <trkpt lat="41.72718" lon="20.81828">
        <ele>1166.055168</ele>
        <time>2022-04-25T11:01:31.887Z</time>
      </trkpt>
      <trkpt lat="41.7272" lon="20.81577">
        <ele>1177.934098</ele>
        <time>2022-04-25T11:04:10.883Z</time>
      </trkpt>
      <trkpt lat="41.72809" lon="20.81371">
        <ele>1182.133459</ele>
        <time>2022-04-25T11:06:41.869Z</time>
      </trkpt>
      <trkpt lat="41.72926" lon="20.81183">
        <ele>1194.978689</ele>
        <time>2022-04-25T11:09:14.882Z</time>
      </trkpt>
      <trkpt lat="41.73085" lon="20.81057">
        <ele>1203.655672</ele>
        <time>2022-04-25T11:11:42.912Z</time>
      </trkpt>
      <trkpt lat="41.7325" lon="20.81105">
        <ele>1215.637267</ele>
        <time>2022-04-25T11:14:22.887Z</time>
      </trkpt>
      <trkpt lat="41.73368" lon="20.80982">
        <ele>1221.795436</ele>
        <time>2022-04-25T11:16:50.886Z</time>
      </trkpt>
      <trkpt lat="41.73404" lon="20.80732">
        <ele>1232.438855</ele>
        <time>2022-04-25T11:19:24.881Z</time>
      </trkpt>
      <trkpt lat="41.73405" lon="20.80478">
        <ele>1245.277195</ele>
        <time>2022-04-25T11:35:04.893Z</time>
      </trkpt>
      <trkpt lat="41.73436" lon="20.80229">
        <ele>1253.79534</ele>
        <time>2022-04-25T11:37:28.897Z</time>
      </trkpt>
      <trkpt lat="41.73416" lon="20.79973">
        <ele>1264.066361</ele>
        <time>2022-04-25T11:40:12.884Z</time>
      </trkpt>
      <trkpt lat="41.73303" lon="20.79804">
        <ele>1277.989369</ele>
        <time>2022-04-25T11:42:42.878Z</time>
      </trkpt>
      <trkpt lat="41.73286" lon="20.79565">
        <ele>1297.887996</ele>
        <time>2022-04-25T11:45:23.874Z</time>
      </trkpt>
      <trkpt lat="41.73267" lon="20.7932">
        <ele>1315.047924</ele>
        <time>2022-04-25T11:48:13.890Z</time>
      </trkpt>
      <trkpt lat="41.73225" lon="20.79075">
        <ele>1323.260977</ele>
        <time>2022-04-25T11:50:47.908Z</time>
      </trkpt>
      <trkpt lat="41.73086" lon="20.789">
        <ele>1340.313442</ele>
        <time>2022-04-25T12:00:35.850Z</time>
      </trkpt>
      <trkpt lat="41.73044" lon="20.78646">
        <ele>1345.945874</ele>
        <time>2022-04-25T12:02:22.889Z</time>
      </trkpt>
      <trkpt lat="41.73037" lon="20.78387">
        <ele>1346.505284</ele>
        <time>2022-04-25T12:03:56.854Z</time>
      </trkpt>
      <trkpt lat="41.7291" lon="20.78482">
        <ele>1350.327109</ele>
        <time>2022-04-25T12:08:32.849Z</time>
      </trkpt>
      <trkpt lat="41.72746" lon="20.78417">
        <ele>1365.693693</ele>
        <time>2022-04-25T12:11:10.869Z</time>
      </trkpt>
      <trkpt lat="41.72617" lon="20.7825">
        <ele>1366.252242</ele>
        <time>2022-04-25T12:13:12.864Z</time>
      </trkpt>
      <trkpt lat="41.72648" lon="20.77931">
        <ele>1353.827802</ele>
        <time>2022-04-25T12:13:52.844Z</time>
      </trkpt>
      <trkpt lat="41.72506" lon="20.77718">
        <ele>1344.901239</ele>
        <time>2022-04-25T12:14:48.849Z</time>
      </trkpt>
      <trkpt lat="41.72493" lon="20.77461">
        <ele>1348.915205</ele>
        <time>2022-04-25T12:15:46.864Z</time>
      </trkpt>
      <trkpt lat="41.72299" lon="20.77381">
        <ele>1346.781968</ele>
        <time>2022-04-25T12:16:29.848Z</time>
      </trkpt>
      <trkpt lat="41.72099" lon="20.7727">
        <ele>1336.338034</ele>
        <time>2022-04-25T12:17:14.846Z</time>
      </trkpt>
      <trkpt lat="41.71919" lon="20.77118">
        <ele>1340.055189</ele>
        <time>2022-04-25T12:36:05.984Z</time>
      </trkpt>
      <trkpt lat="41.71721" lon="20.77021">
        <ele>1340.273012</ele>
        <time>2022-04-25T12:36:51.878Z</time>
      </trkpt>
      <trkpt lat="41.71672" lon="20.76747">
        <ele>1333.721138</ele>
        <time>2022-04-25T12:37:36.868Z</time>
      </trkpt>
      <trkpt lat="41.71456" lon="20.76608">
        <ele>1333.582631</ele>
        <time>2022-04-25T12:38:35.881Z</time>
      </trkpt>
      <trkpt lat="41.71276" lon="20.7674">
        <ele>1335.662746</ele>
        <time>2022-04-25T12:39:18.884Z</time>
      </trkpt>
      <trkpt lat="41.71152" lon="20.76538">
        <ele>1320.0314</ele>
        <time>2022-04-25T12:40:03.874Z</time>
      </trkpt>
      <trkpt lat="41.7099" lon="20.76376">
        <ele>1319.538054</ele>
        <time>2022-04-25T12:40:51.876Z</time>
      </trkpt>
      <trkpt lat="41.70775" lon="20.7626">
        <ele>1314.381228</ele>
        <time>2022-04-25T12:41:31.885Z</time>
      </trkpt>
      <trkpt lat="41.70567" lon="20.76158">
        <ele>1311.763801</ele>
        <time>2022-04-25T12:42:15.867Z</time>
      </trkpt>
      <trkpt lat="41.70364" lon="20.76062">
        <ele>1308.11446</ele>
        <time>2022-04-25T12:42:58.890Z</time>
      </trkpt>
      <trkpt lat="41.70275" lon="20.75815">
        <ele>1302.87035</ele>
        <time>2022-04-25T12:44:06.878Z</time>
      </trkpt>
      <trkpt lat="41.70093" lon="20.75651">
        <ele>1299.196588</ele>
        <time>2022-04-25T12:45:01.876Z</time>
      </trkpt>
      <trkpt lat="41.69946" lon="20.75459">
        <ele>1293.443955</ele>
        <time>2022-04-25T12:45:44.865Z</time>
      </trkpt>
      <trkpt lat="41.6985" lon="20.75242">
        <ele>1288.278428</ele>
        <time>2022-04-25T12:46:24.878Z</time>
      </trkpt>
      <trkpt lat="41.69782" lon="20.74969">
        <ele>1285.39549</ele>
        <time>2022-04-25T12:47:08.886Z</time>
      </trkpt>
      <trkpt lat="41.69765" lon="20.74696">
        <ele>1285.95949</ele>
        <time>2022-04-25T12:47:58.877Z</time>
      </trkpt>
      <trkpt lat="41.69732" lon="20.7467">
        <ele>1282.391285</ele>
        <time>2022-04-25T12:55:16.930Z</time>
      </trkpt>
      <trkpt lat="41.69822" lon="20.7444">
        <ele>1279.805327</ele>
        <time>2022-04-25T12:56:11.878Z</time>
      </trkpt>
      <trkpt lat="41.70016" lon="20.74116">
        <ele>1257.815643</ele>
        <time>2022-04-25T12:56:51.878Z</time>
      </trkpt>
      <trkpt lat="41.70078" lon="20.7379">
        <ele>1244.556433</ele>
        <time>2022-04-25T12:57:22.892Z</time>
      </trkpt>
      <trkpt lat="41.70119" lon="20.73432">
        <ele>1223.391733</ele>
        <time>2022-04-25T12:57:57.869Z</time>
      </trkpt>
      <trkpt lat="41.70279" lon="20.73244">
        <ele>1212.567124</ele>
        <time>2022-04-25T12:58:40.878Z</time>
      </trkpt>
      <trkpt lat="41.70496" lon="20.73175">
        <ele>1221.530129</ele>
        <time>2022-04-25T12:59:33.893Z</time>
      </trkpt>
      <trkpt lat="41.70663" lon="20.7298">
        <ele>1214.085459</ele>
        <time>2022-04-25T13:00:23.869Z</time>
      </trkpt>
      <trkpt lat="41.70803" lon="20.72775">
        <ele>1202.935125</ele>
        <time>2022-04-25T13:01:05.877Z</time>
      </trkpt>
      <trkpt lat="41.70959" lon="20.72467">
        <ele>1189.020027</ele>
        <time>2022-04-25T13:01:45.875Z</time>
      </trkpt>
      <trkpt lat="41.71023" lon="20.72161">
        <ele>1178.179765</ele>
        <time>2022-04-25T13:02:25.876Z</time>
      </trkpt>
      <trkpt lat="41.7109" lon="20.71828">
        <ele>1166.922481</ele>
        <time>2022-04-25T13:03:00.886Z</time>
      </trkpt>
      <trkpt lat="41.71102" lon="20.71494">
        <ele>1156.339921</ele>
        <time>2022-04-25T13:03:36.877Z</time>
      </trkpt>
      <trkpt lat="41.71179" lon="20.71208">
        <ele>1151.235035</ele>
        <time>2022-04-25T13:04:16.885Z</time>
      </trkpt>
      <trkpt lat="41.7122" lon="20.7093">
        <ele>1140.443668</ele>
        <time>2022-04-25T13:04:58.903Z</time>
      </trkpt>
      <trkpt lat="41.71125" lon="20.7058">
        <ele>1108.594697</ele>
        <time>2022-04-25T13:05:38.870Z</time>
      </trkpt>
      <trkpt lat="41.71126" lon="20.70285">
        <ele>1094.257058</ele>
        <time>2022-04-25T13:06:18.866Z</time>
      </trkpt>
      <trkpt lat="41.71134" lon="20.69968">
        <ele>1093.368689</ele>
        <time>2022-04-25T13:07:03.874Z</time>
      </trkpt>
      <trkpt lat="41.71114" lon="20.69632">
        <ele>1083.691724</ele>
        <time>2022-04-25T13:07:43.917Z</time>
      </trkpt>
      <trkpt lat="41.71097" lon="20.69292">
        <ele>1069.33197</ele>
        <time>2022-04-25T13:10:09.881Z</time>
      </trkpt>
      <trkpt lat="41.71155" lon="20.68989">
        <ele>1049.94163</ele>
        <time>2022-04-25T13:10:50.903Z</time>
      </trkpt>
      <trkpt lat="41.71021" lon="20.68786">
        <ele>1034.728568</ele>
        <time>2022-04-25T13:11:31.896Z</time>
      </trkpt>
      <trkpt lat="41.71238" lon="20.68607">
        <ele>1017.664379</ele>
        <time>2022-04-25T13:12:18.884Z</time>
      </trkpt>
      <trkpt lat="41.71355" lon="20.68331">
        <ele>1007.961133</ele>
        <time>2022-04-25T13:12:46.886Z</time>
      </trkpt>
      <trkpt lat="41.71483" lon="20.68052">
        <ele>997.569305</ele>
        <time>2022-04-25T13:13:16.884Z</time>
      </trkpt>
      <trkpt lat="41.71629" lon="20.67814">
        <ele>986.430581</ele>
        <time>2022-04-25T13:13:54.885Z</time>
      </trkpt>
      <trkpt lat="41.71795" lon="20.67531">
        <ele>979.824234</ele>
        <time>2022-04-25T13:14:34.872Z</time>
      </trkpt>
      <trkpt lat="41.71873" lon="20.67177">
        <ele>972.640776</ele>
        <time>2022-04-25T13:15:14.867Z</time>
      </trkpt>
      <trkpt lat="41.72004" lon="20.66856">
        <ele>952.922235</ele>
        <time>2022-04-25T13:15:47.886Z</time>
      </trkpt>
      <trkpt lat="41.72025" lon="20.66548">
        <ele>936.165061</ele>
        <time>2022-04-25T13:16:35.888Z</time>
      </trkpt>
      <trkpt lat="41.71961" lon="20.66309">
        <ele>946.477175</ele>
        <time>2022-04-25T13:17:16.942Z</time>
      </trkpt>
      <trkpt lat="41.71807" lon="20.6612">
        <ele>951.406962</ele>
        <time>2022-04-25T13:18:09.889Z</time>
      </trkpt>
      <trkpt lat="41.71661" lon="20.65933">
        <ele>944.198181</ele>
        <time>2022-04-25T13:18:52.870Z</time>
      </trkpt>
      <trkpt lat="41.71422" lon="20.65803">
        <ele>926.443906</ele>
        <time>2022-04-25T13:19:30.900Z</time>
      </trkpt>
      <trkpt lat="41.71168" lon="20.65784">
        <ele>914.035946</ele>
        <time>2022-04-25T13:20:10.910Z</time>
      </trkpt>
      <trkpt lat="41.70987" lon="20.65594">
        <ele>912.910343</ele>
        <time>2022-04-25T13:20:51.909Z</time>
      </trkpt>
      <trkpt lat="41.70844" lon="20.6543">
        <ele>910.393388</ele>
        <time>2022-04-25T13:21:33.861Z</time>
      </trkpt>
      <trkpt lat="41.70776" lon="20.65174">
        <ele>907.007064</ele>
        <time>2022-04-25T13:22:20.866Z</time>
      </trkpt>
      <trkpt lat="41.70614" lon="20.65004">
        <ele>898.439859</ele>
        <time>2022-04-25T13:23:33.879Z</time>
      </trkpt>
      <trkpt lat="41.70393" lon="20.65049">
        <ele>898.409778</ele>
        <time>2022-04-25T13:24:03.893Z</time>
      </trkpt>
      <trkpt lat="41.70165" lon="20.64829">
        <ele>905.039679</ele>
        <time>2022-04-25T13:24:38.884Z</time>
      </trkpt>
      <trkpt lat="41.69936" lon="20.64768">
        <ele>903.503606</ele>
        <time>2022-04-25T13:25:25.885Z</time>
      </trkpt>
      <trkpt lat="41.69732" lon="20.64704">
        <ele>915.833027</ele>
        <time>2022-04-25T13:26:08.925Z</time>
      </trkpt>
      <trkpt lat="41.69513" lon="20.64712">
        <ele>907.846724</ele>
        <time>2022-04-25T13:26:58.868Z</time>
      </trkpt>
      <trkpt lat="41.6928" lon="20.64812">
        <ele>895.801164</ele>
        <time>2022-04-25T13:27:37.901Z</time>
      </trkpt>
      <trkpt lat="41.69078" lon="20.64904">
        <ele>891.596114</ele>
        <time>2022-04-25T13:28:28.920Z</time>
      </trkpt>
      <trkpt lat="41.68858" lon="20.64915">
        <ele>890.025772</ele>
        <time>2022-04-25T13:29:09.887Z</time>
      </trkpt>
      <trkpt lat="41.68603" lon="20.64885">
        <ele>890.134416</ele>
        <time>2022-04-25T13:29:49.914Z</time>
      </trkpt>
      <trkpt lat="41.68353" lon="20.64811">
        <ele>886.211303</ele>
        <time>2022-04-25T13:30:32.887Z</time>
      </trkpt>
      <trkpt lat="41.68132" lon="20.64776">
        <ele>886.262436</ele>
        <time>2022-04-25T13:31:29.883Z</time>
      </trkpt>
      <trkpt lat="41.67927" lon="20.64636">
        <ele>883.502148</ele>
        <time>2022-04-25T13:32:04.866Z</time>
      </trkpt>
      <trkpt lat="41.67707" lon="20.64505">
        <ele>876.52443</ele>
        <time>2022-04-25T13:32:43.873Z</time>
      </trkpt>
      <trkpt lat="41.67504" lon="20.64437">
        <ele>876.681913</ele>
        <time>2022-04-25T13:33:05.868Z</time>
      </trkpt>
      <trkpt lat="41.6731" lon="20.64197">
        <ele>862.228146</ele>
        <time>2022-04-25T13:33:45.864Z</time>
      </trkpt>
      <trkpt lat="41.67073" lon="20.6414">
        <ele>865.196274</ele>
        <time>2022-04-25T13:34:25.874Z</time>
      </trkpt>
      <trkpt lat="41.66958" lon="20.63845">
        <ele>869.724013</ele>
        <time>2022-04-25T13:35:05.886Z</time>
      </trkpt>
      <trkpt lat="41.66813" lon="20.63637">
        <ele>857.699091</ele>
        <time>2022-04-25T13:35:45.932Z</time>
      </trkpt>
      <trkpt lat="41.66713" lon="20.63377">
        <ele>838.840243</ele>
        <time>2022-04-25T13:36:25.867Z</time>
      </trkpt>
      <trkpt lat="41.66693" lon="20.6308">
        <ele>824.388019</ele>
        <time>2022-04-25T13:36:47.879Z</time>
      </trkpt>
      <trkpt lat="41.66647" lon="20.62683">
        <ele>815.342572</ele>
        <time>2022-04-25T13:37:24.883Z</time>
      </trkpt>
      <trkpt lat="41.66591" lon="20.62383">
        <ele>822.357923</ele>
        <time>2022-04-25T13:38:12.921Z</time>
      </trkpt>
      <trkpt lat="41.6648" lon="20.62116">
        <ele>822.789169</ele>
        <time>2022-04-25T13:38:53.863Z</time>
      </trkpt>
      <trkpt lat="41.6656" lon="20.61827">
        <ele>817.241504</ele>
        <time>2022-04-25T13:39:38.874Z</time>
      </trkpt>
      <trkpt lat="41.66641" lon="20.61567">
        <ele>821.662018</ele>
        <time>2022-04-25T13:40:25.878Z</time>
      </trkpt>
      <trkpt lat="41.66783" lon="20.61292">
        <ele>815.023252</ele>
        <time>2022-04-25T13:41:05.894Z</time>
      </trkpt>
      <trkpt lat="41.66792" lon="20.60989">
        <ele>811.196099</ele>
        <time>2022-04-25T13:41:52.907Z</time>
      </trkpt>
      <trkpt lat="41.66689" lon="20.60722">
        <ele>816.3198</ele>
        <time>2022-04-25T13:42:55.926Z</time>
      </trkpt>
      <trkpt lat="41.66634" lon="20.60434">
        <ele>801.40636</ele>
        <time>2022-04-25T13:43:46.894Z</time>
      </trkpt>
      <trkpt lat="41.66551" lon="20.60161">
        <ele>795.378879</ele>
        <time>2022-04-25T13:44:26.886Z</time>
      </trkpt>
      <trkpt lat="41.66374" lon="20.59982">
        <ele>801.649303</ele>
        <time>2022-04-25T13:45:13.925Z</time>
      </trkpt>
      <trkpt lat="41.6614" lon="20.60006">
        <ele>800.391787</ele>
        <time>2022-04-25T13:45:56.898Z</time>
      </trkpt>
      <trkpt lat="41.65878" lon="20.59967">
        <ele>793.479955</ele>
        <time>2022-04-25T13:46:36.885Z</time>
      </trkpt>
      <trkpt lat="41.65645" lon="20.59993">
        <ele>783.025915</ele>
        <time>2022-04-25T13:47:16.860Z</time>
      </trkpt>
      <trkpt lat="41.6536" lon="20.60006">
        <ele>771.983527</ele>
        <time>2022-04-25T13:47:56.873Z</time>
      </trkpt>
      <trkpt lat="41.65157" lon="20.60061">
        <ele>767.903058</ele>
        <time>2022-04-25T13:48:38.857Z</time>
      </trkpt>
      <trkpt lat="41.64928" lon="20.60145">
        <ele>770.104392</ele>
        <time>2022-04-25T13:49:21.885Z</time>
      </trkpt>
      <trkpt lat="41.64705" lon="20.60145">
        <ele>774.120676</ele>
        <time>2022-04-25T13:50:04.892Z</time>
      </trkpt>
      <trkpt lat="41.64495" lon="20.60086">
        <ele>780.595022</ele>
        <time>2022-04-25T13:50:52.915Z</time>
      </trkpt>
      <trkpt lat="41.64296" lon="20.60166">
        <ele>783.798056</ele>
        <time>2022-04-25T13:51:58.899Z</time>
      </trkpt>
      <trkpt lat="41.64049" lon="20.60277">
        <ele>774.344298</ele>
        <time>2022-04-25T13:52:38.891Z</time>
      </trkpt>
      <trkpt lat="41.63818" lon="20.60282">
        <ele>766.766281</ele>
        <time>2022-04-25T13:53:22.885Z</time>
      </trkpt>
      <trkpt lat="41.63648" lon="20.60374">
        <ele>764.38522</ele>
        <time>2022-04-25T13:54:02.892Z</time>
      </trkpt>
      <trkpt lat="41.63434" lon="20.60615">
        <ele>759.748206</ele>
        <time>2022-04-25T13:54:42.884Z</time>
      </trkpt>
      <trkpt lat="41.63218" lon="20.60695">
        <ele>759.524881</ele>
        <time>2022-04-25T13:55:22.910Z</time>
      </trkpt>
      <trkpt lat="41.63001" lon="20.60674">
        <ele>751.670958</ele>
        <time>2022-04-25T13:56:10.882Z</time>
      </trkpt>
      <trkpt lat="41.62788" lon="20.60714">
        <ele>745.991427</ele>
        <time>2022-04-25T13:57:03.871Z</time>
      </trkpt>
      <trkpt lat="41.62556" lon="20.60778">
        <ele>740.097525</ele>
        <time>2022-04-25T13:57:31.893Z</time>
      </trkpt>
      <trkpt lat="41.62348" lon="20.60664">
        <ele>732.022357</ele>
        <time>2022-04-25T13:58:02.907Z</time>
      </trkpt>
      <trkpt lat="41.62256" lon="20.60719">
        <ele>732.022357</ele>
        <time>2022-04-25T14:01:29.802Z</time>
      </trkpt>
    </trkseg>
  </trk>
  <trk>
    <name><![CDATA[Tour d'Europe: étape 665]]></name>
    <extensions>
      <line xmlns="http://www.topografix.com/GPX/gpx_style/0/2">
        <color>FF00FF</color>
        <width>4</width>
      </line>
    </extensions>
    <trkseg>
      <trkpt lat="41.97965" lon="20.96911">
        <ele>487.194285</ele>
        <time>2022-04-24T09:28:05.712Z</time>
      </trkpt>
      <trkpt lat="41.97859" lon="20.96925">
        <ele>486.592092</ele>
        <time>2022-04-24T09:30:11.706Z</time>
      </trkpt>
      <trkpt lat="41.97651" lon="20.97038">
        <ele>482.313076</ele>
        <time>2022-04-24T09:30:53.716Z</time>
      </trkpt>
      <trkpt lat="41.97453" lon="20.97175">
        <ele>480.145066</ele>
        <time>2022-04-24T09:31:35.751Z</time>
      </trkpt>
      <trkpt lat="41.97273" lon="20.97321">
        <ele>480.435567</ele>
        <time>2022-04-24T09:32:15.721Z</time>
      </trkpt>
      <trkpt lat="41.97137" lon="20.97555">
        <ele>479.53169</ele>
        <time>2022-04-24T09:32:57.709Z</time>
      </trkpt>
      <trkpt lat="41.96994" lon="20.97808">
        <ele>479.012247</ele>
        <time>2022-04-24T09:33:45.702Z</time>
      </trkpt>
      <trkpt lat="41.96804" lon="20.97975">
        <ele>479.567557</ele>
        <time>2022-04-24T09:34:25.718Z</time>
      </trkpt>
      <trkpt lat="41.96599" lon="20.98111">
        <ele>479.537555</ele>
        <time>2022-04-24T09:36:23.713Z</time>
      </trkpt>
      <trkpt lat="41.96376" lon="20.98114">
        <ele>481.689446</ele>
        <time>2022-04-24T09:37:12.712Z</time>
      </trkpt>
      <trkpt lat="41.96176" lon="20.98041">
        <ele>479.256319</ele>
        <time>2022-04-24T09:37:52.729Z</time>
      </trkpt>
      <trkpt lat="41.95966" lon="20.98051">
        <ele>478.07235</ele>
        <time>2022-04-24T09:38:36.699Z</time>
      </trkpt>
      <trkpt lat="41.9575" lon="20.98126">
        <ele>474.778038</ele>
        <time>2022-04-24T09:39:19.703Z</time>
      </trkpt>
      <trkpt lat="41.95543" lon="20.98193">
        <ele>473.687644</ele>
        <time>2022-04-24T09:40:03.718Z</time>
      </trkpt>
      <trkpt lat="41.95339" lon="20.98262">
        <ele>473.956728</ele>
        <time>2022-04-24T09:40:45.708Z</time>
      </trkpt>
      <trkpt lat="41.95148" lon="20.98327">
        <ele>474.489088</ele>
        <time>2022-04-24T09:41:25.719Z</time>
      </trkpt>
      <trkpt lat="41.9495" lon="20.98393">
        <ele>474.603392</ele>
        <time>2022-04-24T09:42:07.711Z</time>
      </trkpt>
      <trkpt lat="41.94749" lon="20.9846">
        <ele>475.627226</ele>
        <time>2022-04-24T09:42:50.707Z</time>
      </trkpt>
      <trkpt lat="41.94554" lon="20.98426">
        <ele>477.378818</ele>
        <time>2022-04-24T09:43:33.725Z</time>
      </trkpt>
      <trkpt lat="41.9435" lon="20.98349">
        <ele>478.529739</ele>
        <time>2022-04-24T09:44:15.723Z</time>
      </trkpt>
      <trkpt lat="41.94154" lon="20.98276">
        <ele>480.136041</ele>
        <time>2022-04-24T09:44:57.745Z</time>
      </trkpt>
      <trkpt lat="41.93965" lon="20.98205">
        <ele>480.804126</ele>
        <time>2022-04-24T09:45:39.727Z</time>
      </trkpt>
      <trkpt lat="41.93762" lon="20.98126">
        <ele>482.448982</ele>
        <time>2022-04-24T09:46:22.711Z</time>
      </trkpt>
      <trkpt lat="41.93557" lon="20.98047">
        <ele>481.815897</ele>
        <time>2022-04-24T09:47:06.710Z</time>
      </trkpt>
      <trkpt lat="41.93356" lon="20.97972">
        <ele>481.965975</ele>
        <time>2022-04-24T09:47:48.694Z</time>
      </trkpt>
      <trkpt lat="41.9314" lon="20.97891">
        <ele>482.88815</ele>
        <time>2022-04-24T09:48:36.703Z</time>
      </trkpt>
      <trkpt lat="41.92937" lon="20.97815">
        <ele>483.939485</ele>
        <time>2022-04-24T09:49:21.709Z</time>
      </trkpt>
      <trkpt lat="41.92737" lon="20.97738">
        <ele>486.101265</ele>
        <time>2022-04-24T09:50:06.720Z</time>
      </trkpt>
      <trkpt lat="41.92529" lon="20.97656">
        <ele>486.563422</ele>
        <time>2022-04-24T09:50:49.712Z</time>
      </trkpt>
      <trkpt lat="41.92322" lon="20.97575">
        <ele>486.622034</ele>
        <time>2022-04-24T09:51:31.727Z</time>
      </trkpt>
      <trkpt lat="41.92133" lon="20.97501">
        <ele>488.12399</ele>
        <time>2022-04-24T09:52:11.709Z</time>
      </trkpt>
      <trkpt lat="41.91934" lon="20.97423">
        <ele>488.93192</ele>
        <time>2022-04-24T09:52:54.704Z</time>
      </trkpt>
      <trkpt lat="41.91702" lon="20.97337">
        <ele>490.500803</ele>
        <time>2022-04-24T09:55:09.709Z</time>
      </trkpt>
      <trkpt lat="41.91495" lon="20.97257">
        <ele>491.410446</ele>
        <time>2022-04-24T09:55:58.722Z</time>
      </trkpt>
      <trkpt lat="41.91288" lon="20.97181">
        <ele>491.658821</ele>
        <time>2022-04-24T09:56:44.710Z</time>
      </trkpt>
      <trkpt lat="41.91144" lon="20.96966">
        <ele>493.481369</ele>
        <time>2022-04-24T09:57:34.705Z</time>
      </trkpt>
      <trkpt lat="41.90976" lon="20.96735">
        <ele>494.368583</ele>
        <time>2022-04-24T09:58:31.707Z</time>
      </trkpt>
      <trkpt lat="41.90803" lon="20.96532">
        <ele>500.604731</ele>
        <time>2022-04-24T09:59:26.735Z</time>
      </trkpt>
      <trkpt lat="41.90622" lon="20.9634">
        <ele>502.199677</ele>
        <time>2022-04-24T10:00:18.720Z</time>
      </trkpt>
      <trkpt lat="41.90428" lon="20.96281">
        <ele>499.657577</ele>
        <time>2022-04-24T10:01:00.702Z</time>
      </trkpt>
      <trkpt lat="41.90209" lon="20.96359">
        <ele>501.414668</ele>
        <time>2022-04-24T10:01:52.715Z</time>
      </trkpt>
      <trkpt lat="41.90014" lon="20.9652">
        <ele>498.998009</ele>
        <time>2022-04-24T10:02:38.715Z</time>
      </trkpt>
      <trkpt lat="41.89817" lon="20.96694">
        <ele>500.061561</ele>
        <time>2022-04-24T10:03:33.713Z</time>
      </trkpt>
      <trkpt lat="41.89591" lon="20.96804">
        <ele>502.643949</ele>
        <time>2022-04-24T10:04:28.724Z</time>
      </trkpt>
      <trkpt lat="41.89347" lon="20.96884">
        <ele>503.726307</ele>
        <time>2022-04-24T10:05:28.731Z</time>
      </trkpt>
      <trkpt lat="41.89148" lon="20.9701">
        <ele>503.172095</ele>
        <time>2022-04-24T10:06:17.718Z</time>
      </trkpt>
      <trkpt lat="41.88969" lon="20.97155">
        <ele>503.722138</ele>
        <time>2022-04-24T10:07:02.736Z</time>
      </trkpt>
      <trkpt lat="41.88774" lon="20.97215">
        <ele>504.847423</ele>
        <time>2022-04-24T10:07:42.707Z</time>
      </trkpt>
      <trkpt lat="41.8857" lon="20.97254">
        <ele>505.870393</ele>
        <time>2022-04-24T10:08:24.730Z</time>
      </trkpt>
      <trkpt lat="41.88373" lon="20.97332">
        <ele>507.686543</ele>
        <time>2022-04-24T10:09:06.714Z</time>
      </trkpt>
      <trkpt lat="41.88182" lon="20.97407">
        <ele>507.658131</ele>
        <time>2022-04-24T10:09:47.705Z</time>
      </trkpt>
      <trkpt lat="41.87975" lon="20.97478">
        <ele>507.163445</ele>
        <time>2022-04-24T10:10:29.725Z</time>
      </trkpt>
      <trkpt lat="41.87759" lon="20.97498">
        <ele>508.71836</ele>
        <time>2022-04-24T10:11:14.729Z</time>
      </trkpt>
      <trkpt lat="41.8757" lon="20.97558">
        <ele>509.375994</ele>
        <time>2022-04-24T10:11:54.714Z</time>
      </trkpt>
      <trkpt lat="41.87417" lon="20.97751">
        <ele>508.512829</ele>
        <time>2022-04-24T10:12:36.711Z</time>
      </trkpt>
      <trkpt lat="41.872" lon="20.97801">
        <ele>508.624714</ele>
        <time>2022-04-24T10:13:20.709Z</time>
      </trkpt>
      <trkpt lat="41.86993" lon="20.97828">
        <ele>509.053469</ele>
        <time>2022-04-24T10:14:04.698Z</time>
      </trkpt>
      <trkpt lat="41.86811" lon="20.98009">
        <ele>510.681729</ele>
        <time>2022-04-24T10:14:46.713Z</time>
      </trkpt>
      <trkpt lat="41.86877" lon="20.98263">
        <ele>509.97268</ele>
        <time>2022-04-24T10:15:29.694Z</time>
      </trkpt>
      <trkpt lat="41.86824" lon="20.98524">
        <ele>511.468603</ele>
        <time>2022-04-24T10:16:12.707Z</time>
      </trkpt>
      <trkpt lat="41.86685" lon="20.98695">
        <ele>515.030176</ele>
        <time>2022-04-24T10:17:15.731Z</time>
      </trkpt>
      <trkpt lat="41.86471" lon="20.98657">
        <ele>518.260087</ele>
        <time>2022-04-24T10:18:08.698Z</time>
      </trkpt>
      <trkpt lat="41.86279" lon="20.98523">
        <ele>522.003056</ele>
        <time>2022-04-24T10:19:23.719Z</time>
      </trkpt>
      <trkpt lat="41.86085" lon="20.98398">
        <ele>524.280195</ele>
        <time>2022-04-24T10:20:32.705Z</time>
      </trkpt>
      <trkpt lat="41.85877" lon="20.98278">
        <ele>522.863174</ele>
        <time>2022-04-24T10:21:31.711Z</time>
      </trkpt>
      <trkpt lat="41.85682" lon="20.98193">
        <ele>521.626829</ele>
        <time>2022-04-24T10:22:11.698Z</time>
      </trkpt>
      <trkpt lat="41.85434" lon="20.98118">
        <ele>519.864932</ele>
        <time>2022-04-24T10:22:53.715Z</time>
      </trkpt>
      <trkpt lat="41.85217" lon="20.98103">
        <ele>524.280845</ele>
        <time>2022-04-24T10:23:55.778Z</time>
      </trkpt>
      <trkpt lat="41.85014" lon="20.98091">
        <ele>531.580317</ele>
        <time>2022-04-24T10:25:09.713Z</time>
      </trkpt>
      <trkpt lat="41.848" lon="20.98015">
        <ele>538.826979</ele>
        <time>2022-04-24T10:26:06.726Z</time>
      </trkpt>
      <trkpt lat="41.84573" lon="20.97922">
        <ele>540.258569</ele>
        <time>2022-04-24T10:27:04.740Z</time>
      </trkpt>
      <trkpt lat="41.8438" lon="20.97767">
        <ele>538.689278</ele>
        <time>2022-04-24T10:27:46.696Z</time>
      </trkpt>
      <trkpt lat="41.841" lon="20.97699">
        <ele>531.259122</ele>
        <time>2022-04-24T10:28:28.736Z</time>
      </trkpt>
      <trkpt lat="41.8391" lon="20.97593">
        <ele>538.977165</ele>
        <time>2022-04-24T10:29:42.698Z</time>
      </trkpt>
      <trkpt lat="41.83735" lon="20.97363">
        <ele>541.33276</ele>
        <time>2022-04-24T10:32:29.801Z</time>
      </trkpt>
      <trkpt lat="41.83605" lon="20.97121">
        <ele>549.467542</ele>
        <time>2022-04-24T10:33:49.703Z</time>
      </trkpt>
      <trkpt lat="41.83442" lon="20.96955">
        <ele>548.879028</ele>
        <time>2022-04-24T10:34:56.703Z</time>
      </trkpt>
      <trkpt lat="41.83227" lon="20.96799">
        <ele>546.452871</ele>
        <time>2022-04-24T10:35:54.697Z</time>
      </trkpt>
      <trkpt lat="41.82993" lon="20.96664">
        <ele>543.565334</ele>
        <time>2022-04-24T10:36:55.704Z</time>
      </trkpt>
      <trkpt lat="41.82784" lon="20.96547">
        <ele>543.963708</ele>
        <time>2022-04-24T10:37:55.714Z</time>
      </trkpt>
      <trkpt lat="41.82568" lon="20.96438">
        <ele>542.756878</ele>
        <time>2022-04-24T10:38:50.707Z</time>
      </trkpt>
      <trkpt lat="41.82355" lon="20.96332">
        <ele>544.93023</ele>
        <time>2022-04-24T10:39:32.718Z</time>
      </trkpt>
      <trkpt lat="41.82363" lon="20.96033">
        <ele>538.845181</ele>
        <time>2022-04-24T10:40:19.736Z</time>
      </trkpt>
      <trkpt lat="41.82218" lon="20.95818">
        <ele>539.286637</ele>
        <time>2022-04-24T10:41:12.704Z</time>
      </trkpt>
      <trkpt lat="41.82035" lon="20.95602">
        <ele>540.627404</ele>
        <time>2022-04-24T10:42:11.813Z</time>
      </trkpt>
      <trkpt lat="41.81903" lon="20.95358">
        <ele>536.595747</ele>
        <time>2022-04-24T10:43:07.688Z</time>
      </trkpt>
      <trkpt lat="41.81914" lon="20.95049">
        <ele>533.747115</ele>
        <time>2022-04-24T10:44:02.679Z</time>
      </trkpt>
      <trkpt lat="41.81904" lon="20.94758">
        <ele>533.358614</ele>
        <time>2022-04-24T10:44:50.682Z</time>
      </trkpt>
      <trkpt lat="41.81865" lon="20.94478">
        <ele>531.299881</ele>
        <time>2022-04-24T10:45:37.694Z</time>
      </trkpt>
      <trkpt lat="41.81687" lon="20.94304">
        <ele>534.805806</ele>
        <time>2022-04-24T10:46:33.697Z</time>
      </trkpt>
      <trkpt lat="41.81566" lon="20.94053">
        <ele>537.046405</ele>
        <time>2022-04-24T10:47:36.701Z</time>
      </trkpt>
      <trkpt lat="41.81463" lon="20.93801">
        <ele>540.421472</ele>
        <time>2022-04-24T10:48:36.695Z</time>
      </trkpt>
      <trkpt lat="41.81233" lon="20.93684">
        <ele>544.062227</ele>
        <time>2022-04-24T10:49:39.685Z</time>
      </trkpt>
      <trkpt lat="41.81004" lon="20.93581">
        <ele>546.756821</ele>
        <time>2022-04-24T10:50:42.692Z</time>
      </trkpt>
      <trkpt lat="41.80798" lon="20.93473">
        <ele>554.698319</ele>
        <time>2022-04-24T10:51:42.692Z</time>
      </trkpt>
      <trkpt lat="41.80605" lon="20.93293">
        <ele>558.574248</ele>
        <time>2022-04-24T10:52:45.678Z</time>
      </trkpt>
      <trkpt lat="41.80412" lon="20.93112">
        <ele>558.768186</ele>
        <time>2022-04-24T10:53:48.676Z</time>
      </trkpt>
      <trkpt lat="41.80291" lon="20.92867">
        <ele>559.627521</ele>
        <time>2022-04-24T10:54:48.678Z</time>
      </trkpt>
      <trkpt lat="41.80213" lon="20.92583">
        <ele>556.815255</ele>
        <time>2022-04-24T10:55:51.687Z</time>
      </trkpt>
      <trkpt lat="41.80159" lon="20.92305">
        <ele>563.320453</ele>
        <time>2022-04-24T10:57:03.694Z</time>
      </trkpt>
      <trkpt lat="41.80234" lon="20.92029">
        <ele>562.907294</ele>
        <time>2022-04-24T10:57:53.689Z</time>
      </trkpt>
      <trkpt lat="41.80212" lon="20.91722">
        <ele>567.960441</ele>
        <time>2022-04-24T10:58:57.682Z</time>
      </trkpt>
      <trkpt lat="41.80033" lon="20.91665">
        <ele>563.689959</ele>
        <time>2022-04-24T11:00:00.693Z</time>
      </trkpt>
      <trkpt lat="41.79848" lon="20.91607">
        <ele>571.339402</ele>
        <time>2022-04-24T11:01:23.727Z</time>
      </trkpt>
      <trkpt lat="41.79672" lon="20.91538">
        <ele>575.701066</ele>
        <time>2022-04-24T11:02:39.682Z</time>
      </trkpt>
      <trkpt lat="41.79584" lon="20.91391">
        <ele>578.032777</ele>
        <time>2022-04-24T11:08:00.735Z</time>
      </trkpt>
      <trkpt lat="41.79613" lon="20.91232">
        <ele>579.858873</ele>
        <time>2022-04-24T11:09:22.705Z</time>
      </trkpt>
      <trkpt lat="41.79423" lon="20.91089">
        <ele>586.040392</ele>
        <time>2022-04-24T11:12:27.690Z</time>
      </trkpt>
      <trkpt lat="41.79355" lon="20.91072">
        <ele>582.820214</ele>
        <time>2022-04-24T11:20:49.758Z</time>
      </trkpt>
      <trkpt lat="41.79259" lon="20.90944">
        <ele>579.850196</ele>
        <time>2022-04-24T12:14:25.691Z</time>
      </trkpt>
      <trkpt lat="41.79047" lon="20.90846">
        <ele>575.367566</ele>
        <time>2022-04-24T12:25:19.686Z</time>
      </trkpt>
      <trkpt lat="41.78999" lon="20.90668">
        <ele>575.638051</ele>
        <time>2022-04-24T12:29:16.685Z</time>
      </trkpt>
      <trkpt lat="41.79033" lon="20.90614">
        <ele>574.395792</ele>
        <time>2022-04-24T13:17:52.671Z</time>
      </trkpt>
      <trkpt lat="41.7893" lon="20.90806">
        <ele>574.28898</ele>
        <time>2022-04-24T13:25:13.669Z</time>
      </trkpt>
      <trkpt lat="41.78896" lon="20.90824">
        <ele>575.149017</ele>
        <time>2022-04-24T13:49:34.720Z</time>
      </trkpt>
    </trkseg>
  </trk>
  <trk>
    <name><![CDATA[Tour d'Europe: étape 664]]></name>
    <extensions>
      <line xmlns="http://www.topografix.com/GPX/gpx_style/0/2">
        <color>000088</color>
        <width>4</width>
      </line>
    </extensions>
    <trkseg>
      <trkpt lat="41.99589" lon="21.42541">
        <ele>321.714643</ele>
        <time>2022-04-23T07:24:37.605Z</time>
      </trkpt>
      <trkpt lat="41.99552" lon="21.42576">
        <ele>320.718866</ele>
        <time>2022-04-23T07:49:05.512Z</time>
      </trkpt>
      <trkpt lat="41.99512" lon="21.42259">
        <ele>311.847555</ele>
        <time>2022-04-23T07:50:36.514Z</time>
      </trkpt>
      <trkpt lat="41.99464" lon="21.41967">
        <ele>310.471018</ele>
        <time>2022-04-23T07:51:27.500Z</time>
      </trkpt>
      <trkpt lat="41.9947" lon="21.41703">
        <ele>304.826113</ele>
        <time>2022-04-23T07:52:11.535Z</time>
      </trkpt>
      <trkpt lat="41.99515" lon="21.41412">
        <ele>303.919732</ele>
        <time>2022-04-23T07:53:01.503Z</time>
      </trkpt>
      <trkpt lat="41.99553" lon="21.41109">
        <ele>305.832102</ele>
        <time>2022-04-23T07:54:34.525Z</time>
      </trkpt>
      <trkpt lat="41.99592" lon="21.40826">
        <ele>306.723967</ele>
        <time>2022-04-23T07:55:21.506Z</time>
      </trkpt>
      <trkpt lat="41.99635" lon="21.40536">
        <ele>307.90982</ele>
        <time>2022-04-23T07:56:10.497Z</time>
      </trkpt>
      <trkpt lat="41.99672" lon="21.40249">
        <ele>304.331944</ele>
        <time>2022-04-23T07:56:52.505Z</time>
      </trkpt>
      <trkpt lat="41.99712" lon="21.39966">
        <ele>301.756757</ele>
        <time>2022-04-23T07:57:38.504Z</time>
      </trkpt>
      <trkpt lat="41.99751" lon="21.39694">
        <ele>305.534667</ele>
        <time>2022-04-23T07:58:23.489Z</time>
      </trkpt>
      <trkpt lat="41.9979" lon="21.394">
        <ele>309.820198</ele>
        <time>2022-04-23T07:59:11.523Z</time>
      </trkpt>
      <trkpt lat="41.99831" lon="21.39121">
        <ele>310.970185</ele>
        <time>2022-04-23T08:00:09.510Z</time>
      </trkpt>
      <trkpt lat="41.9985" lon="21.38839">
        <ele>307.726828</ele>
        <time>2022-04-23T08:01:48.542Z</time>
      </trkpt>
      <trkpt lat="41.99897" lon="21.38547">
        <ele>309.999121</ele>
        <time>2022-04-23T08:02:45.497Z</time>
      </trkpt>
      <trkpt lat="41.99947" lon="21.38251">
        <ele>318.096147</ele>
        <time>2022-04-23T08:03:45.508Z</time>
      </trkpt>
      <trkpt lat="42.00004" lon="21.37983">
        <ele>320.754724</ele>
        <time>2022-04-23T08:04:49.534Z</time>
      </trkpt>
      <trkpt lat="42.00129" lon="21.37751">
        <ele>316.41142</ele>
        <time>2022-04-23T08:05:38.514Z</time>
      </trkpt>
      <trkpt lat="42.00256" lon="21.37552">
        <ele>317.746249</ele>
        <time>2022-04-23T08:06:18.496Z</time>
      </trkpt>
      <trkpt lat="42.00384" lon="21.37351">
        <ele>320.870216</ele>
        <time>2022-04-23T08:06:56.536Z</time>
      </trkpt>
      <trkpt lat="42.00504" lon="21.3716">
        <ele>328.417465</ele>
        <time>2022-04-23T08:07:36.523Z</time>
      </trkpt>
      <trkpt lat="42.00641" lon="21.36928">
        <ele>331.246212</ele>
        <time>2022-04-23T08:08:24.553Z</time>
      </trkpt>
      <trkpt lat="42.00728" lon="21.36626">
        <ele>320.701984</ele>
        <time>2022-04-23T08:09:59.516Z</time>
      </trkpt>
      <trkpt lat="42.00685" lon="21.36353">
        <ele>319.055604</ele>
        <time>2022-04-23T08:10:51.498Z</time>
      </trkpt>
      <trkpt lat="42.00815" lon="21.36192">
        <ele>314.655441</ele>
        <time>2022-04-23T08:11:43.519Z</time>
      </trkpt>
      <trkpt lat="42.00911" lon="21.36147">
        <ele>317.909192</ele>
        <time>2022-04-23T08:12:42.513Z</time>
      </trkpt>
      <trkpt lat="42.00915" lon="21.35916">
        <ele>326.734904</ele>
        <time>2022-04-23T08:14:03.492Z</time>
      </trkpt>
      <trkpt lat="42.00892" lon="21.35615">
        <ele>318.297437</ele>
        <time>2022-04-23T08:15:03.503Z</time>
      </trkpt>
      <trkpt lat="42.00958" lon="21.35352">
        <ele>319.996079</ele>
        <time>2022-04-23T08:16:03.521Z</time>
      </trkpt>
      <trkpt lat="42.01052" lon="21.35124">
        <ele>322.379743</ele>
        <time>2022-04-23T08:17:02.513Z</time>
      </trkpt>
      <trkpt lat="42.01077" lon="21.34853">
        <ele>317.963322</ele>
        <time>2022-04-23T08:17:48.542Z</time>
      </trkpt>
      <trkpt lat="42.01085" lon="21.34525">
        <ele>319.484922</ele>
        <time>2022-04-23T08:18:46.513Z</time>
      </trkpt>
      <trkpt lat="42.01057" lon="21.34221">
        <ele>324.970592</ele>
        <time>2022-04-23T08:19:38.540Z</time>
      </trkpt>
      <trkpt lat="42.01058" lon="21.33953">
        <ele>318.373431</ele>
        <time>2022-04-23T08:20:34.516Z</time>
      </trkpt>
      <trkpt lat="42.01072" lon="21.33708">
        <ele>319.63463</ele>
        <time>2022-04-23T08:21:37.587Z</time>
      </trkpt>
      <trkpt lat="42.01046" lon="21.33428">
        <ele>322.870187</ele>
        <time>2022-04-23T08:22:42.521Z</time>
      </trkpt>
      <trkpt lat="42.00991" lon="21.33154">
        <ele>325.177084</ele>
        <time>2022-04-23T08:24:12.491Z</time>
      </trkpt>
      <trkpt lat="42.00945" lon="21.3288">
        <ele>323.739247</ele>
        <time>2022-04-23T08:25:21.531Z</time>
      </trkpt>
      <trkpt lat="42.00933" lon="21.32596">
        <ele>323.934035</ele>
        <time>2022-04-23T08:26:27.500Z</time>
      </trkpt>
      <trkpt lat="42.00994" lon="21.32305">
        <ele>325.680462</ele>
        <time>2022-04-23T08:27:26.498Z</time>
      </trkpt>
      <trkpt lat="42.01034" lon="21.32015">
        <ele>327.428035</ele>
        <time>2022-04-23T08:28:23.501Z</time>
      </trkpt>
      <trkpt lat="42.01111" lon="21.31756">
        <ele>328.393061</ele>
        <time>2022-04-23T08:29:14.519Z</time>
      </trkpt>
      <trkpt lat="42.01111" lon="21.31431">
        <ele>334.857678</ele>
        <time>2022-04-23T08:30:12.511Z</time>
      </trkpt>
      <trkpt lat="42.01117" lon="21.31149">
        <ele>335.962692</ele>
        <time>2022-04-23T08:31:21.513Z</time>
      </trkpt>
      <trkpt lat="42.0115" lon="21.30853">
        <ele>331.851442</ele>
        <time>2022-04-23T08:32:13.489Z</time>
      </trkpt>
      <trkpt lat="42.01186" lon="21.30571">
        <ele>334.513684</ele>
        <time>2022-04-23T08:33:19.499Z</time>
      </trkpt>
      <trkpt lat="42.01252" lon="21.30307">
        <ele>336.241402</ele>
        <time>2022-04-23T08:34:27.522Z</time>
      </trkpt>
      <trkpt lat="42.01316" lon="21.30036">
        <ele>335.192366</ele>
        <time>2022-04-23T08:35:18.510Z</time>
      </trkpt>
      <trkpt lat="42.01419" lon="21.29829">
        <ele>342.580723</ele>
        <time>2022-04-23T08:36:43.504Z</time>
      </trkpt>
      <trkpt lat="42.01549" lon="21.29568">
        <ele>344.148042</ele>
        <time>2022-04-23T08:37:31.511Z</time>
      </trkpt>
      <trkpt lat="42.01604" lon="21.29282">
        <ele>345.331156</ele>
        <time>2022-04-23T08:38:31.511Z</time>
      </trkpt>
      <trkpt lat="42.01679" lon="21.29023">
        <ele>346.388185</ele>
        <time>2022-04-23T08:39:39.515Z</time>
      </trkpt>
      <trkpt lat="42.0185" lon="21.28921">
        <ele>347.541435</ele>
        <time>2022-04-23T08:40:40.509Z</time>
      </trkpt>
      <trkpt lat="42.02049" lon="21.28875">
        <ele>355.487572</ele>
        <time>2022-04-23T08:41:50.520Z</time>
      </trkpt>
      <trkpt lat="42.02214" lon="21.28754">
        <ele>354.406153</ele>
        <time>2022-04-23T08:42:44.510Z</time>
      </trkpt>
      <trkpt lat="42.02001" lon="21.28751">
        <ele>350.846041</ele>
        <time>2022-04-23T08:43:37.509Z</time>
      </trkpt>
      <trkpt lat="42.01731" lon="21.28687">
        <ele>337.054118</ele>
        <time>2022-04-23T08:44:17.544Z</time>
      </trkpt>
      <trkpt lat="42.01668" lon="21.28379">
        <ele>333.826426</ele>
        <time>2022-04-23T08:45:03.494Z</time>
      </trkpt>
      <trkpt lat="42.01681" lon="21.28107">
        <ele>337.095126</ele>
        <time>2022-04-23T08:45:54.513Z</time>
      </trkpt>
      <trkpt lat="42.01749" lon="21.27831">
        <ele>341.851786</ele>
        <time>2022-04-23T08:46:54.516Z</time>
      </trkpt>
      <trkpt lat="42.01885" lon="21.27629">
        <ele>342.964505</ele>
        <time>2022-04-23T08:47:55.489Z</time>
      </trkpt>
      <trkpt lat="42.0203" lon="21.27417">
        <ele>340.700751</ele>
        <time>2022-04-23T08:48:56.533Z</time>
      </trkpt>
      <trkpt lat="42.02238" lon="21.27323">
        <ele>337.644395</ele>
        <time>2022-04-23T08:49:48.513Z</time>
      </trkpt>
      <trkpt lat="42.02428" lon="21.27214">
        <ele>337.774899</ele>
        <time>2022-04-23T08:50:46.512Z</time>
      </trkpt>
      <trkpt lat="42.02598" lon="21.27038">
        <ele>343.072546</ele>
        <time>2022-04-23T08:56:32.494Z</time>
      </trkpt>
      <trkpt lat="42.02786" lon="21.26872">
        <ele>341.725399</ele>
        <time>2022-04-23T08:57:21.511Z</time>
      </trkpt>
      <trkpt lat="42.02974" lon="21.26747">
        <ele>344.622193</ele>
        <time>2022-04-23T08:58:27.510Z</time>
      </trkpt>
      <trkpt lat="42.03163" lon="21.26618">
        <ele>349.84261</ele>
        <time>2022-04-23T08:59:42.531Z</time>
      </trkpt>
      <trkpt lat="42.0326" lon="21.26392">
        <ele>347.887209</ele>
        <time>2022-04-23T09:00:47.532Z</time>
      </trkpt>
      <trkpt lat="42.03332" lon="21.26115">
        <ele>343.16574</ele>
        <time>2022-04-23T09:01:25.503Z</time>
      </trkpt>
      <trkpt lat="42.0336" lon="21.2584">
        <ele>340.914565</ele>
        <time>2022-04-23T09:02:30.507Z</time>
      </trkpt>
      <trkpt lat="42.03414" lon="21.25587">
        <ele>350.568807</ele>
        <time>2022-04-23T09:03:57.522Z</time>
      </trkpt>
      <trkpt lat="42.03571" lon="21.25393">
        <ele>355.141171</ele>
        <time>2022-04-23T09:04:53.501Z</time>
      </trkpt>
      <trkpt lat="42.03694" lon="21.25177">
        <ele>358.21284</ele>
        <time>2022-04-23T09:05:46.512Z</time>
      </trkpt>
      <trkpt lat="42.03861" lon="21.25083">
        <ele>362.03944</ele>
        <time>2022-04-23T09:07:44.512Z</time>
      </trkpt>
      <trkpt lat="42.04075" lon="21.25072">
        <ele>361.305206</ele>
        <time>2022-04-23T09:08:40.500Z</time>
      </trkpt>
      <trkpt lat="42.04268" lon="21.25112">
        <ele>363.633835</ele>
        <time>2022-04-23T09:09:57.478Z</time>
      </trkpt>
      <trkpt lat="42.04419" lon="21.25279">
        <ele>373.379623</ele>
        <time>2022-04-23T09:12:06.505Z</time>
      </trkpt>
      <trkpt lat="42.04637" lon="21.25426">
        <ele>359.051238</ele>
        <time>2022-04-23T09:12:46.476Z</time>
      </trkpt>
      <trkpt lat="42.04876" lon="21.2542">
        <ele>340.668468</ele>
        <time>2022-04-23T09:13:34.472Z</time>
      </trkpt>
      <trkpt lat="42.05083" lon="21.25469">
        <ele>343.523795</ele>
        <time>2022-04-23T09:14:23.505Z</time>
      </trkpt>
      <trkpt lat="42.05305" lon="21.25469">
        <ele>348.82653</ele>
        <time>2022-04-23T09:15:16.509Z</time>
      </trkpt>
      <trkpt lat="42.05531" lon="21.25454">
        <ele>351.126154</ele>
        <time>2022-04-23T09:16:11.513Z</time>
      </trkpt>
      <trkpt lat="42.05733" lon="21.25317">
        <ele>352.070347</ele>
        <time>2022-04-23T09:17:04.519Z</time>
      </trkpt>
      <trkpt lat="42.05914" lon="21.2518">
        <ele>347.718154</ele>
        <time>2022-04-23T09:17:47.517Z</time>
      </trkpt>
      <trkpt lat="42.061" lon="21.25049">
        <ele>348.622136</ele>
        <time>2022-04-23T09:18:48.515Z</time>
      </trkpt>
      <trkpt lat="42.06268" lon="21.2484">
        <ele>349.538851</ele>
        <time>2022-04-23T09:19:47.550Z</time>
      </trkpt>
      <trkpt lat="42.06456" lon="21.24731">
        <ele>351.877806</ele>
        <time>2022-04-23T09:20:49.502Z</time>
      </trkpt>
      <trkpt lat="42.06639" lon="21.24634">
        <ele>359.668719</ele>
        <time>2022-04-23T09:21:58.498Z</time>
      </trkpt>
      <trkpt lat="42.06765" lon="21.24394">
        <ele>362.764231</ele>
        <time>2022-04-23T09:22:59.502Z</time>
      </trkpt>
      <trkpt lat="42.06903" lon="21.24144">
        <ele>356.660529</ele>
        <time>2022-04-23T09:24:02.519Z</time>
      </trkpt>
      <trkpt lat="42.07067" lon="21.23936">
        <ele>357.746563</ele>
        <time>2022-04-23T09:24:59.526Z</time>
      </trkpt>
      <trkpt lat="42.07234" lon="21.23759">
        <ele>360.232713</ele>
        <time>2022-04-23T09:25:51.512Z</time>
      </trkpt>
      <trkpt lat="42.07436" lon="21.23611">
        <ele>358.211842</ele>
        <time>2022-04-23T09:26:45.509Z</time>
      </trkpt>
      <trkpt lat="42.07593" lon="21.23408">
        <ele>355.995688</ele>
        <time>2022-04-23T09:27:37.515Z</time>
      </trkpt>
      <trkpt lat="42.07737" lon="21.23174">
        <ele>364.032605</ele>
        <time>2022-04-23T09:28:40.536Z</time>
      </trkpt>
      <trkpt lat="42.07896" lon="21.2295">
        <ele>363.213937</ele>
        <time>2022-04-23T09:29:36.497Z</time>
      </trkpt>
      <trkpt lat="42.08004" lon="21.22653">
        <ele>353.467855</ele>
        <time>2022-04-23T09:30:36.501Z</time>
      </trkpt>
      <trkpt lat="42.08153" lon="21.22453">
        <ele>359.297853</ele>
        <time>2022-04-23T09:31:36.490Z</time>
      </trkpt>
      <trkpt lat="42.08311" lon="21.22287">
        <ele>361.459911</ele>
        <time>2022-04-23T09:32:47.505Z</time>
      </trkpt>
      <trkpt lat="42.08418" lon="21.2205">
        <ele>364.565333</ele>
        <time>2022-04-23T09:33:41.477Z</time>
      </trkpt>
      <trkpt lat="42.08492" lon="21.21783">
        <ele>360.974528</ele>
        <time>2022-04-23T09:34:36.511Z</time>
      </trkpt>
      <trkpt lat="42.08607" lon="21.21541">
        <ele>362.348815</ele>
        <time>2022-04-23T09:35:34.489Z</time>
      </trkpt>
      <trkpt lat="42.0863" lon="21.21356">
        <ele>358.6828</ele>
        <time>2022-04-23T09:36:49.493Z</time>
      </trkpt>
      <trkpt lat="42.08778" lon="21.21231">
        <ele>360.436955</ele>
        <time>2022-04-23T09:37:50.503Z</time>
      </trkpt>
      <trkpt lat="42.08901" lon="21.21005">
        <ele>363.708784</ele>
        <time>2022-04-23T09:39:10.496Z</time>
      </trkpt>
      <trkpt lat="42.09022" lon="21.20746">
        <ele>365.811565</ele>
        <time>2022-04-23T09:40:15.506Z</time>
      </trkpt>
      <trkpt lat="42.0907" lon="21.20476">
        <ele>371.459803</ele>
        <time>2022-04-23T09:41:14.505Z</time>
      </trkpt>
      <trkpt lat="42.09155" lon="21.20217">
        <ele>364.081717</ele>
        <time>2022-04-23T09:42:14.512Z</time>
      </trkpt>
      <trkpt lat="42.09272" lon="21.19991">
        <ele>370.214717</ele>
        <time>2022-04-23T09:43:16.520Z</time>
      </trkpt>
      <trkpt lat="42.09425" lon="21.19807">
        <ele>369.9279</ele>
        <time>2022-04-23T09:44:17.503Z</time>
      </trkpt>
      <trkpt lat="42.09598" lon="21.19648">
        <ele>367.565695</ele>
        <time>2022-04-23T09:45:11.515Z</time>
      </trkpt>
      <trkpt lat="42.0976" lon="21.19474">
        <ele>369.699887</ele>
        <time>2022-04-23T09:46:22.497Z</time>
      </trkpt>
      <trkpt lat="42.09905" lon="21.19312">
        <ele>379.242198</ele>
        <time>2022-04-23T09:47:39.517Z</time>
      </trkpt>
      <trkpt lat="42.10037" lon="21.19092">
        <ele>388.524936</ele>
        <time>2022-04-23T09:48:54.525Z</time>
      </trkpt>
      <trkpt lat="42.10148" lon="21.18868">
        <ele>384.51974</ele>
        <time>2022-04-23T09:50:04.513Z</time>
      </trkpt>
      <trkpt lat="42.10234" lon="21.1859">
        <ele>384.4482</ele>
        <time>2022-04-23T09:51:06.509Z</time>
      </trkpt>
      <trkpt lat="42.10359" lon="21.18361">
        <ele>384.30311</ele>
        <time>2022-04-23T09:52:08.519Z</time>
      </trkpt>
      <trkpt lat="42.1041" lon="21.18117">
        <ele>380.738408</ele>
        <time>2022-04-23T09:52:57.516Z</time>
      </trkpt>
      <trkpt lat="42.10375" lon="21.17818">
        <ele>385.326606</ele>
        <time>2022-04-23T09:53:47.497Z</time>
      </trkpt>
      <trkpt lat="42.1035" lon="21.17563">
        <ele>392.264823</ele>
        <time>2022-04-23T09:55:21.490Z</time>
      </trkpt>
      <trkpt lat="42.10348" lon="21.17283">
        <ele>390.663157</ele>
        <time>2022-04-23T09:56:26.486Z</time>
      </trkpt>
      <trkpt lat="42.10271" lon="21.17036">
        <ele>391.662567</ele>
        <time>2022-04-23T09:57:33.500Z</time>
      </trkpt>
      <trkpt lat="42.10283" lon="21.16745">
        <ele>394.052619</ele>
        <time>2022-04-23T09:58:37.516Z</time>
      </trkpt>
      <trkpt lat="42.10212" lon="21.16463">
        <ele>391.912975</ele>
        <time>2022-04-23T09:59:29.500Z</time>
      </trkpt>
      <trkpt lat="42.10072" lon="21.16238">
        <ele>395.067223</ele>
        <time>2022-04-23T10:00:28.503Z</time>
      </trkpt>
      <trkpt lat="42.10049" lon="21.15948">
        <ele>399.828464</ele>
        <time>2022-04-23T10:01:36.506Z</time>
      </trkpt>
      <trkpt lat="42.10028" lon="21.15676">
        <ele>407.629903</ele>
        <time>2022-04-23T10:03:13.505Z</time>
      </trkpt>
      <trkpt lat="42.09934" lon="21.15408">
        <ele>403.572489</ele>
        <time>2022-04-23T10:04:07.537Z</time>
      </trkpt>
      <trkpt lat="42.10084" lon="21.15216">
        <ele>409.814816</ele>
        <time>2022-04-23T10:05:06.509Z</time>
      </trkpt>
      <trkpt lat="42.10153" lon="21.14964">
        <ele>417.428071</ele>
        <time>2022-04-23T10:06:02.534Z</time>
      </trkpt>
      <trkpt lat="42.10106" lon="21.14682">
        <ele>421.042744</ele>
        <time>2022-04-23T10:07:04.510Z</time>
      </trkpt>
      <trkpt lat="42.10039" lon="21.1443">
        <ele>419.874687</ele>
        <time>2022-04-23T10:08:33.510Z</time>
      </trkpt>
      <trkpt lat="42.10072" lon="21.14093">
        <ele>410.104022</ele>
        <time>2022-04-23T10:09:14.528Z</time>
      </trkpt>
      <trkpt lat="42.09992" lon="21.13864">
        <ele>411.566822</ele>
        <time>2022-04-23T10:10:19.498Z</time>
      </trkpt>
      <trkpt lat="42.09835" lon="21.13805">
        <ele>421.774927</ele>
        <time>2022-04-23T10:12:01.496Z</time>
      </trkpt>
      <trkpt lat="42.0979" lon="21.13529">
        <ele>421.261527</ele>
        <time>2022-04-23T10:13:06.486Z</time>
      </trkpt>
      <trkpt lat="42.09615" lon="21.13321">
        <ele>414.91938</ele>
        <time>2022-04-23T10:13:50.491Z</time>
      </trkpt>
      <trkpt lat="42.09369" lon="21.13289">
        <ele>415.00662</ele>
        <time>2022-04-23T10:14:31.520Z</time>
      </trkpt>
      <trkpt lat="42.0917" lon="21.1338">
        <ele>416.349329</ele>
        <time>2022-04-23T10:15:33.500Z</time>
      </trkpt>
      <trkpt lat="42.0898" lon="21.13373">
        <ele>424.497913</ele>
        <time>2022-04-23T10:17:37.503Z</time>
      </trkpt>
      <trkpt lat="42.08821" lon="21.13188">
        <ele>427.623446</ele>
        <time>2022-04-23T10:18:42.507Z</time>
      </trkpt>
      <trkpt lat="42.08755" lon="21.12867">
        <ele>425.401259</ele>
        <time>2022-04-23T10:19:32.500Z</time>
      </trkpt>
      <trkpt lat="42.08609" lon="21.12641">
        <ele>422.720289</ele>
        <time>2022-04-23T10:20:35.505Z</time>
      </trkpt>
      <trkpt lat="42.08423" lon="21.12454">
        <ele>421.495351</ele>
        <time>2022-04-23T10:21:18.534Z</time>
      </trkpt>
      <trkpt lat="42.08229" lon="21.12292">
        <ele>424.152736</ele>
        <time>2022-04-23T10:22:16.500Z</time>
      </trkpt>
      <trkpt lat="42.08142" lon="21.12076">
        <ele>431.81926</ele>
        <time>2022-04-23T10:24:05.526Z</time>
      </trkpt>
      <trkpt lat="42.07994" lon="21.11892">
        <ele>432.964682</ele>
        <time>2022-04-23T10:25:07.507Z</time>
      </trkpt>
      <trkpt lat="42.07798" lon="21.11801">
        <ele>433.864667</ele>
        <time>2022-04-23T10:26:01.504Z</time>
      </trkpt>
      <trkpt lat="42.0759" lon="21.11786">
        <ele>435.805609</ele>
        <time>2022-04-23T10:27:06.522Z</time>
      </trkpt>
      <trkpt lat="42.07392" lon="21.1185">
        <ele>436.474586</ele>
        <time>2022-04-23T10:28:04.537Z</time>
      </trkpt>
      <trkpt lat="42.07379" lon="21.11934">
        <ele>440.146691</ele>
        <time>2022-04-23T10:37:21.498Z</time>
      </trkpt>
      <trkpt lat="42.07271" lon="21.12085">
        <ele>441.409296</ele>
        <time>2022-04-23T10:38:19.503Z</time>
      </trkpt>
      <trkpt lat="42.07069" lon="21.12075">
        <ele>436.224063</ele>
        <time>2022-04-23T10:38:59.490Z</time>
      </trkpt>
      <trkpt lat="42.06851" lon="21.12069">
        <ele>434.856637</ele>
        <time>2022-04-23T10:39:47.523Z</time>
      </trkpt>
      <trkpt lat="42.0663" lon="21.12097">
        <ele>431.964102</ele>
        <time>2022-04-23T10:40:27.510Z</time>
      </trkpt>
      <trkpt lat="42.06421" lon="21.12168">
        <ele>431.598116</ele>
        <time>2022-04-23T10:41:11.539Z</time>
      </trkpt>
      <trkpt lat="42.06283" lon="21.12038">
        <ele>435.312122</ele>
        <time>2022-04-23T10:42:07.533Z</time>
      </trkpt>
      <trkpt lat="42.06159" lon="21.11808">
        <ele>435.659207</ele>
        <time>2022-04-23T10:43:04.521Z</time>
      </trkpt>
      <trkpt lat="42.05941" lon="21.11748">
        <ele>434.247253</ele>
        <time>2022-04-23T10:43:54.505Z</time>
      </trkpt>
      <trkpt lat="42.05706" lon="21.11782">
        <ele>436.490064</ele>
        <time>2022-04-23T10:44:52.494Z</time>
      </trkpt>
      <trkpt lat="42.05489" lon="21.11705">
        <ele>435.120456</ele>
        <time>2022-04-23T10:45:46.516Z</time>
      </trkpt>
      <trkpt lat="42.05306" lon="21.11679">
        <ele>435.358632</ele>
        <time>2022-04-23T10:46:51.513Z</time>
      </trkpt>
      <trkpt lat="42.05158" lon="21.11487">
        <ele>437.571979</ele>
        <time>2022-04-23T10:47:34.494Z</time>
      </trkpt>
      <trkpt lat="42.05054" lon="21.11251">
        <ele>441.363902</ele>
        <time>2022-04-23T10:48:47.502Z</time>
      </trkpt>
      <trkpt lat="42.04946" lon="21.11004">
        <ele>441.046642</ele>
        <time>2022-04-23T10:49:50.506Z</time>
      </trkpt>
      <trkpt lat="42.04809" lon="21.10752">
        <ele>440.90662</ele>
        <time>2022-04-23T10:50:49.514Z</time>
      </trkpt>
      <trkpt lat="42.0468" lon="21.10532">
        <ele>445.671939</ele>
        <time>2022-04-23T10:51:36.515Z</time>
      </trkpt>
      <trkpt lat="42.04489" lon="21.10371">
        <ele>446.512017</ele>
        <time>2022-04-23T10:52:33.505Z</time>
      </trkpt>
      <trkpt lat="42.04317" lon="21.10203">
        <ele>446.860641</ele>
        <time>2022-04-23T10:53:18.516Z</time>
      </trkpt>
      <trkpt lat="42.04156" lon="21.10041">
        <ele>442.547365</ele>
        <time>2022-04-23T10:53:59.509Z</time>
      </trkpt>
      <trkpt lat="42.0397" lon="21.09916">
        <ele>441.030024</ele>
        <time>2022-04-23T10:54:41.505Z</time>
      </trkpt>
      <trkpt lat="42.0376" lon="21.09883">
        <ele>440.513416</ele>
        <time>2022-04-23T10:55:23.496Z</time>
      </trkpt>
      <trkpt lat="42.0355" lon="21.09847">
        <ele>439.832683</ele>
        <time>2022-04-23T10:56:14.493Z</time>
      </trkpt>
      <trkpt lat="42.03371" lon="21.09821">
        <ele>441.345874</ele>
        <time>2022-04-23T10:56:53.533Z</time>
      </trkpt>
      <trkpt lat="42.03216" lon="21.0971">
        <ele>441.071411</ele>
        <time>2022-04-23T10:57:34.505Z</time>
      </trkpt>
      <trkpt lat="42.03128" lon="21.09454">
        <ele>440.760822</ele>
        <time>2022-04-23T10:58:18.494Z</time>
      </trkpt>
      <trkpt lat="42.03022" lon="21.09248">
        <ele>439.299843</ele>
        <time>2022-04-23T10:59:03.496Z</time>
      </trkpt>
      <trkpt lat="42.02803" lon="21.09228">
        <ele>437.518049</ele>
        <time>2022-04-23T10:59:48.545Z</time>
      </trkpt>
      <trkpt lat="42.02677" lon="21.09063">
        <ele>439.771475</ele>
        <time>2022-04-23T11:00:26.574Z</time>
      </trkpt>
      <trkpt lat="42.02637" lon="21.08792">
        <ele>441.883096</ele>
        <time>2022-04-23T11:01:12.555Z</time>
      </trkpt>
      <trkpt lat="42.0253" lon="21.08551">
        <ele>441.821532</ele>
        <time>2022-04-23T11:01:56.539Z</time>
      </trkpt>
      <trkpt lat="42.02422" lon="21.08303">
        <ele>440.450468</ele>
        <time>2022-04-23T11:02:40.520Z</time>
      </trkpt>
      <trkpt lat="42.02294" lon="21.0815">
        <ele>439.294294</ele>
        <time>2022-04-23T11:03:35.533Z</time>
      </trkpt>
      <trkpt lat="42.02066" lon="21.08187">
        <ele>437.299917</ele>
        <time>2022-04-23T11:04:21.502Z</time>
      </trkpt>
      <trkpt lat="42.0191" lon="21.08021">
        <ele>437.84663</ele>
        <time>2022-04-23T11:05:11.520Z</time>
      </trkpt>
      <trkpt lat="42.01823" lon="21.07767">
        <ele>437.927277</ele>
        <time>2022-04-23T11:05:58.493Z</time>
      </trkpt>
      <trkpt lat="42.01754" lon="21.07478">
        <ele>439.175577</ele>
        <time>2022-04-23T11:06:53.510Z</time>
      </trkpt>
      <trkpt lat="42.01691" lon="21.0723">
        <ele>439.039018</ele>
        <time>2022-04-23T11:07:46.519Z</time>
      </trkpt>
      <trkpt lat="42.01605" lon="21.06991">
        <ele>440.970299</ele>
        <time>2022-04-23T11:08:37.522Z</time>
      </trkpt>
      <trkpt lat="42.01474" lon="21.06764">
        <ele>444.481221</ele>
        <time>2022-04-23T11:09:30.506Z</time>
      </trkpt>
      <trkpt lat="42.01368" lon="21.06542">
        <ele>444.246373</ele>
        <time>2022-04-23T11:10:26.510Z</time>
      </trkpt>
      <trkpt lat="42.01202" lon="21.0632">
        <ele>443.636725</ele>
        <time>2022-04-23T11:11:22.502Z</time>
      </trkpt>
      <trkpt lat="42.01026" lon="21.06121">
        <ele>445.34117</ele>
        <time>2022-04-23T11:12:17.526Z</time>
      </trkpt>
      <trkpt lat="42.00873" lon="21.05927">
        <ele>446.684493</ele>
        <time>2022-04-23T11:13:08.504Z</time>
      </trkpt>
      <trkpt lat="42.00706" lon="21.05743">
        <ele>448.349198</ele>
        <time>2022-04-23T11:14:00.518Z</time>
      </trkpt>
      <trkpt lat="42.00495" lon="21.05688">
        <ele>449.428967</ele>
        <time>2022-04-23T11:14:51.524Z</time>
      </trkpt>
      <trkpt lat="42.00322" lon="21.05763">
        <ele>449.501535</ele>
        <time>2022-04-23T11:15:46.512Z</time>
      </trkpt>
      <trkpt lat="42.00107" lon="21.05742">
        <ele>445.15519</ele>
        <time>2022-04-23T11:16:28.543Z</time>
      </trkpt>
      <trkpt lat="41.99892" lon="21.05715">
        <ele>444.463455</ele>
        <time>2022-04-23T11:17:19.496Z</time>
      </trkpt>
      <trkpt lat="41.99675" lon="21.05674">
        <ele>445.235351</ele>
        <time>2022-04-23T11:18:16.513Z</time>
      </trkpt>
      <trkpt lat="41.99469" lon="21.0566">
        <ele>445.369877</ele>
        <time>2022-04-23T11:19:01.511Z</time>
      </trkpt>
      <trkpt lat="41.99273" lon="21.05612">
        <ele>446.774769</ele>
        <time>2022-04-23T11:19:49.524Z</time>
      </trkpt>
      <trkpt lat="41.9911" lon="21.05777">
        <ele>444.560048</ele>
        <time>2022-04-23T11:20:30.508Z</time>
      </trkpt>
      <trkpt lat="41.98904" lon="21.05864">
        <ele>441.819424</ele>
        <time>2022-04-23T11:21:13.583Z</time>
      </trkpt>
      <trkpt lat="41.98764" lon="21.05785">
        <ele>444.719963</ele>
        <time>2022-04-23T11:22:08.513Z</time>
      </trkpt>
      <trkpt lat="41.98752" lon="21.05462">
        <ele>446.123987</ele>
        <time>2022-04-23T11:23:08.498Z</time>
      </trkpt>
      <trkpt lat="41.9882" lon="21.05169">
        <ele>446.812891</ele>
        <time>2022-04-23T11:24:05.534Z</time>
      </trkpt>
      <trkpt lat="41.98885" lon="21.04857">
        <ele>449.914711</ele>
        <time>2022-04-23T11:25:02.541Z</time>
      </trkpt>
      <trkpt lat="41.98881" lon="21.04553">
        <ele>451.615886</ele>
        <time>2022-04-23T11:26:02.509Z</time>
      </trkpt>
      <trkpt lat="41.9886" lon="21.04255">
        <ele>453.402732</ele>
        <time>2022-04-23T11:27:02.509Z</time>
      </trkpt>
      <trkpt lat="41.98858" lon="21.03944">
        <ele>451.562833</ele>
        <time>2022-04-23T11:28:02.489Z</time>
      </trkpt>
      <trkpt lat="41.98922" lon="21.03688">
        <ele>453.256591</ele>
        <time>2022-04-23T11:28:59.502Z</time>
      </trkpt>
      <trkpt lat="41.98813" lon="21.03609">
        <ele>453.742797</ele>
        <time>2022-04-23T11:29:50.499Z</time>
      </trkpt>
      <trkpt lat="41.98711" lon="21.03808">
        <ele>453.018242</ele>
        <time>2022-04-23T11:30:51.486Z</time>
      </trkpt>
      <trkpt lat="41.98504" lon="21.03935">
        <ele>451.121418</ele>
        <time>2022-04-23T11:31:50.514Z</time>
      </trkpt>
      <trkpt lat="41.98277" lon="21.03996">
        <ele>456.103772</ele>
        <time>2022-04-23T11:32:45.522Z</time>
      </trkpt>
      <trkpt lat="41.98172" lon="21.03827">
        <ele>455.670878</ele>
        <time>2022-04-23T11:33:47.501Z</time>
      </trkpt>
      <trkpt lat="41.98106" lon="21.03584">
        <ele>457.673959</ele>
        <time>2022-04-23T11:34:56.508Z</time>
      </trkpt>
      <trkpt lat="41.97969" lon="21.0337">
        <ele>459.944342</ele>
        <time>2022-04-23T11:36:06.522Z</time>
      </trkpt>
      <trkpt lat="41.97815" lon="21.03203">
        <ele>461.454877</ele>
        <time>2022-04-23T11:37:28.512Z</time>
      </trkpt>
      <trkpt lat="41.97647" lon="21.03028">
        <ele>462.187965</ele>
        <time>2022-04-23T11:38:45.519Z</time>
      </trkpt>
      <trkpt lat="41.97488" lon="21.02838">
        <ele>460.130813</ele>
        <time>2022-04-23T11:40:08.499Z</time>
      </trkpt>
      <trkpt lat="41.97344" lon="21.02646">
        <ele>460.779566</ele>
        <time>2022-04-23T11:41:05.504Z</time>
      </trkpt>
      <trkpt lat="41.97292" lon="21.0238">
        <ele>459.384717</ele>
        <time>2022-04-23T11:42:06.500Z</time>
      </trkpt>
      <trkpt lat="41.97336" lon="21.02078">
        <ele>461.183435</ele>
        <time>2022-04-23T11:43:02.513Z</time>
      </trkpt>
      <trkpt lat="41.97379" lon="21.01804">
        <ele>460.055264</ele>
        <time>2022-04-23T11:43:59.505Z</time>
      </trkpt>
      <trkpt lat="41.97505" lon="21.01554">
        <ele>458.561265</ele>
        <time>2022-04-23T11:44:59.506Z</time>
      </trkpt>
      <trkpt lat="41.97637" lon="21.01321">
        <ele>457.570026</ele>
        <time>2022-04-23T11:46:04.519Z</time>
      </trkpt>
      <trkpt lat="41.97739" lon="21.01087">
        <ele>460.97418</ele>
        <time>2022-04-23T11:47:06.496Z</time>
      </trkpt>
      <trkpt lat="41.978" lon="21.00826">
        <ele>467.432572</ele>
        <time>2022-04-23T11:48:08.515Z</time>
      </trkpt>
      <trkpt lat="41.97927" lon="21.00573">
        <ele>465.938977</ele>
        <time>2022-04-23T11:49:08.548Z</time>
      </trkpt>
      <trkpt lat="41.97991" lon="21.00291">
        <ele>466.081907</ele>
        <time>2022-04-23T11:50:09.497Z</time>
      </trkpt>
      <trkpt lat="41.9808" lon="21.00036">
        <ele>466.729287</ele>
        <time>2022-04-23T11:51:09.489Z</time>
      </trkpt>
      <trkpt lat="41.98187" lon="20.99798">
        <ele>468.735826</ele>
        <time>2022-04-23T11:52:06.519Z</time>
      </trkpt>
      <trkpt lat="41.98319" lon="20.99554">
        <ele>468.292473</ele>
        <time>2022-04-23T11:53:06.517Z</time>
      </trkpt>
      <trkpt lat="41.98462" lon="20.99328">
        <ele>469.149274</ele>
        <time>2022-04-23T11:54:07.510Z</time>
      </trkpt>
      <trkpt lat="41.98493" lon="20.99102">
        <ele>476.493687</ele>
        <time>2022-04-23T11:55:10.493Z</time>
      </trkpt>
      <trkpt lat="41.98332" lon="20.98943">
        <ele>481.276863</ele>
        <time>2022-04-23T11:56:15.513Z</time>
      </trkpt>
      <trkpt lat="41.98192" lon="20.98749">
        <ele>481.922521</ele>
        <time>2022-04-23T11:57:36.495Z</time>
      </trkpt>
      <trkpt lat="41.98087" lon="20.98531">
        <ele>481.492621</ele>
        <time>2022-04-23T11:58:56.501Z</time>
      </trkpt>
      <trkpt lat="41.97997" lon="20.98288">
        <ele>482.594617</ele>
        <time>2022-04-23T12:00:16.549Z</time>
      </trkpt>
      <trkpt lat="41.97928" lon="20.98035">
        <ele>480.844331</ele>
        <time>2022-04-23T12:01:22.505Z</time>
      </trkpt>
      <trkpt lat="41.97853" lon="20.9778">
        <ele>481.702237</ele>
        <time>2022-04-23T12:02:23.504Z</time>
      </trkpt>
      <trkpt lat="41.97734" lon="20.97564">
        <ele>488.886277</ele>
        <time>2022-04-23T12:03:25.508Z</time>
      </trkpt>
      <trkpt lat="41.97741" lon="20.97322">
        <ele>487.764239</ele>
        <time>2022-04-23T12:04:30.518Z</time>
      </trkpt>
      <trkpt lat="41.97724" lon="20.97037">
        <ele>498.372708</ele>
        <time>2022-04-23T12:05:50.597Z</time>
      </trkpt>
      <trkpt lat="41.97881" lon="20.96914">
        <ele>494.610146</ele>
        <time>2022-04-23T12:06:59.515Z</time>
      </trkpt>
      <trkpt lat="41.9797" lon="20.96915">
        <ele>494.610146</ele>
        <time>2022-04-23T12:08:38.166Z</time>
      </trkpt>
    </trkseg>
  </trk>
  <trk>
    <name><![CDATA[Tour d'Europe: étape 654]]></name>
    <extensions>
      <line xmlns="http://www.topografix.com/GPX/gpx_style/0/2">
        <color>008800</color>
        <width>4</width>
      </line>
    </extensions>
    <trkseg>
      <trkpt lat="42.13931" lon="21.72083">
        <ele>379.998736</ele>
        <time>2022-04-13T08:37:26.342Z</time>
      </trkpt>
      <trkpt lat="42.14012" lon="21.71992">
        <ele>379.468081</ele>
        <time>2022-04-13T08:38:09.297Z</time>
      </trkpt>
      <trkpt lat="42.14202" lon="21.72052">
        <ele>377.773131</ele>
        <time>2022-04-13T08:39:23.323Z</time>
      </trkpt>
      <trkpt lat="42.14289" lon="21.71783">
        <ele>379.878152</ele>
        <time>2022-04-13T08:40:42.295Z</time>
      </trkpt>
      <trkpt lat="42.14237" lon="21.72001">
        <ele>376.198044</ele>
        <time>2022-04-13T08:50:50.318Z</time>
      </trkpt>
      <trkpt lat="42.14085" lon="21.71959">
        <ele>371.520404</ele>
        <time>2022-04-13T08:52:45.355Z</time>
      </trkpt>
      <trkpt lat="42.14107" lon="21.71652">
        <ele>375.464836</ele>
        <time>2022-04-13T08:53:54.303Z</time>
      </trkpt>
      <trkpt lat="42.13934" lon="21.71516">
        <ele>374.900944</ele>
        <time>2022-04-13T08:54:54.355Z</time>
      </trkpt>
      <trkpt lat="42.13741" lon="21.71438">
        <ele>387.151772</ele>
        <time>2022-04-13T08:56:15.315Z</time>
      </trkpt>
      <trkpt lat="42.13693" lon="21.71153">
        <ele>399.425645</ele>
        <time>2022-04-13T08:57:31.348Z</time>
      </trkpt>
      <trkpt lat="42.13576" lon="21.7092">
        <ele>400.044991</ele>
        <time>2022-04-13T08:58:34.345Z</time>
      </trkpt>
      <trkpt lat="42.13506" lon="21.70658">
        <ele>411.823973</ele>
        <time>2022-04-13T08:59:46.316Z</time>
      </trkpt>
      <trkpt lat="42.13436" lon="21.70377">
        <ele>405.603362</ele>
        <time>2022-04-13T09:01:09.295Z</time>
      </trkpt>
      <trkpt lat="42.13368" lon="21.70122">
        <ele>404.228661</ele>
        <time>2022-04-13T09:02:44.308Z</time>
      </trkpt>
      <trkpt lat="42.13301" lon="21.69861">
        <ele>412.211672</ele>
        <time>2022-04-13T09:03:56.306Z</time>
      </trkpt>
      <trkpt lat="42.13235" lon="21.69593">
        <ele>425.733918</ele>
        <time>2022-04-13T09:05:39.328Z</time>
      </trkpt>
      <trkpt lat="42.13165" lon="21.69322">
        <ele>417.593485</ele>
        <time>2022-04-13T09:06:46.312Z</time>
      </trkpt>
      <trkpt lat="42.13064" lon="21.68963">
        <ele>410.274183</ele>
        <time>2022-04-13T09:07:26.318Z</time>
      </trkpt>
      <trkpt lat="42.12922" lon="21.68746">
        <ele>421.433745</ele>
        <time>2022-04-13T09:09:00.358Z</time>
      </trkpt>
      <trkpt lat="42.12758" lon="21.68602">
        <ele>428.239324</ele>
        <time>2022-04-13T09:10:45.303Z</time>
      </trkpt>
      <trkpt lat="42.1272" lon="21.68351">
        <ele>453.536811</ele>
        <time>2022-04-13T09:12:43.296Z</time>
      </trkpt>
      <trkpt lat="42.12691" lon="21.68087">
        <ele>470.185319</ele>
        <time>2022-04-13T09:14:46.314Z</time>
      </trkpt>
      <trkpt lat="42.12658" lon="21.67812">
        <ele>473.115313</ele>
        <time>2022-04-13T09:16:27.299Z</time>
      </trkpt>
      <trkpt lat="42.12624" lon="21.67545">
        <ele>467.614668</ele>
        <time>2022-04-13T09:17:47.318Z</time>
      </trkpt>
      <trkpt lat="42.12569" lon="21.67284">
        <ele>468.706132</ele>
        <time>2022-04-13T09:19:02.315Z</time>
      </trkpt>
      <trkpt lat="42.12425" lon="21.67079">
        <ele>479.959815</ele>
        <time>2022-04-13T09:20:58.304Z</time>
      </trkpt>
      <trkpt lat="42.12289" lon="21.66891">
        <ele>489.184677</ele>
        <time>2022-04-13T09:22:58.336Z</time>
      </trkpt>
      <trkpt lat="42.12142" lon="21.66721">
        <ele>497.389766</ele>
        <time>2022-04-13T09:24:52.304Z</time>
      </trkpt>
      <trkpt lat="42.12003" lon="21.66497">
        <ele>501.534146</ele>
        <time>2022-04-13T09:26:19.288Z</time>
      </trkpt>
      <trkpt lat="42.11851" lon="21.66304">
        <ele>498.17776</ele>
        <time>2022-04-13T09:27:09.318Z</time>
      </trkpt>
      <trkpt lat="42.11682" lon="21.66181">
        <ele>499.720075</ele>
        <time>2022-04-13T09:28:14.308Z</time>
      </trkpt>
      <trkpt lat="42.11582" lon="21.65924">
        <ele>508.870263</ele>
        <time>2022-04-13T09:29:23.307Z</time>
      </trkpt>
      <trkpt lat="42.11442" lon="21.65709">
        <ele>515.731901</ele>
        <time>2022-04-13T09:30:36.299Z</time>
      </trkpt>
      <trkpt lat="42.11307" lon="21.65505">
        <ele>517.38559</ele>
        <time>2022-04-13T09:31:44.352Z</time>
      </trkpt>
      <trkpt lat="42.11166" lon="21.65292">
        <ele>516.281733</ele>
        <time>2022-04-13T09:32:49.296Z</time>
      </trkpt>
      <trkpt lat="42.1103" lon="21.65092">
        <ele>518.809526</ele>
        <time>2022-04-13T09:34:07.310Z</time>
      </trkpt>
      <trkpt lat="42.10888" lon="21.64893">
        <ele>521.739842</ele>
        <time>2022-04-13T09:35:25.305Z</time>
      </trkpt>
      <trkpt lat="42.10733" lon="21.64677">
        <ele>525.511361</ele>
        <time>2022-04-13T09:36:44.308Z</time>
      </trkpt>
      <trkpt lat="42.10605" lon="21.64437">
        <ele>527.773991</ele>
        <time>2022-04-13T09:37:44.307Z</time>
      </trkpt>
      <trkpt lat="42.10471" lon="21.64207">
        <ele>526.593562</ele>
        <time>2022-04-13T09:38:44.306Z</time>
      </trkpt>
      <trkpt lat="42.10314" lon="21.64014">
        <ele>526.796359</ele>
        <time>2022-04-13T09:39:52.298Z</time>
      </trkpt>
      <trkpt lat="42.10149" lon="21.63846">
        <ele>527.66487</ele>
        <time>2022-04-13T09:41:01.321Z</time>
      </trkpt>
      <trkpt lat="42.09977" lon="21.63694">
        <ele>531.307578</ele>
        <time>2022-04-13T09:42:08.317Z</time>
      </trkpt>
      <trkpt lat="42.09804" lon="21.63543">
        <ele>538.282669</ele>
        <time>2022-04-13T09:43:20.304Z</time>
      </trkpt>
      <trkpt lat="42.0961" lon="21.63429">
        <ele>543.508801</ele>
        <time>2022-04-13T09:44:44.307Z</time>
      </trkpt>
      <trkpt lat="42.09406" lon="21.63348">
        <ele>541.782741</ele>
        <time>2022-04-13T09:45:51.308Z</time>
      </trkpt>
      <trkpt lat="42.0925" lon="21.63133">
        <ele>545.946883</ele>
        <time>2022-04-13T09:46:48.299Z</time>
      </trkpt>
      <trkpt lat="42.09027" lon="21.63013">
        <ele>544.532212</ele>
        <time>2022-04-13T09:47:54.324Z</time>
      </trkpt>
      <trkpt lat="42.08887" lon="21.628">
        <ele>554.928989</ele>
        <time>2022-04-13T09:48:59.287Z</time>
      </trkpt>
      <trkpt lat="42.08788" lon="21.62571">
        <ele>562.710631</ele>
        <time>2022-04-13T09:50:27.277Z</time>
      </trkpt>
      <trkpt lat="42.08717" lon="21.62278">
        <ele>562.639432</ele>
        <time>2022-04-13T09:51:48.285Z</time>
      </trkpt>
      <trkpt lat="42.08652" lon="21.62012">
        <ele>563.970258</ele>
        <time>2022-04-13T09:53:08.283Z</time>
      </trkpt>
      <trkpt lat="42.08591" lon="21.61748">
        <ele>567.177285</ele>
        <time>2022-04-13T09:54:28.274Z</time>
      </trkpt>
      <trkpt lat="42.08523" lon="21.61458">
        <ele>570.078647</ele>
        <time>2022-04-13T09:55:51.288Z</time>
      </trkpt>
      <trkpt lat="42.08459" lon="21.61191">
        <ele>573.966333</ele>
        <time>2022-04-13T09:57:11.289Z</time>
      </trkpt>
      <trkpt lat="42.08398" lon="21.60931">
        <ele>578.765764</ele>
        <time>2022-04-13T09:58:31.274Z</time>
      </trkpt>
      <trkpt lat="42.08329" lon="21.60644">
        <ele>585.517428</ele>
        <time>2022-04-13T09:59:56.305Z</time>
      </trkpt>
      <trkpt lat="42.08266" lon="21.60376">
        <ele>588.546461</ele>
        <time>2022-04-13T10:01:16.316Z</time>
      </trkpt>
      <trkpt lat="42.08184" lon="21.60132">
        <ele>593.863657</ele>
        <time>2022-04-13T10:02:41.283Z</time>
      </trkpt>
      <trkpt lat="42.08085" lon="21.59889">
        <ele>601.020033</ele>
        <time>2022-04-13T10:04:12.278Z</time>
      </trkpt>
      <trkpt lat="42.07911" lon="21.59753">
        <ele>599.138647</ele>
        <time>2022-04-13T10:05:19.320Z</time>
      </trkpt>
      <trkpt lat="42.07718" lon="21.59662">
        <ele>599.981008</ele>
        <time>2022-04-13T10:06:37.285Z</time>
      </trkpt>
      <trkpt lat="42.07498" lon="21.59682">
        <ele>601.289491</ele>
        <time>2022-04-13T10:07:38.279Z</time>
      </trkpt>
      <trkpt lat="42.07265" lon="21.59689">
        <ele>599.073358</ele>
        <time>2022-04-13T10:08:27.283Z</time>
      </trkpt>
      <trkpt lat="42.07057" lon="21.59656">
        <ele>595.95248</ele>
        <time>2022-04-13T10:09:15.284Z</time>
      </trkpt>
      <trkpt lat="42.06834" lon="21.59658">
        <ele>598.235215</ele>
        <time>2022-04-13T10:10:04.281Z</time>
      </trkpt>
      <trkpt lat="42.06588" lon="21.5967">
        <ele>592.832008</ele>
        <time>2022-04-13T10:10:46.282Z</time>
      </trkpt>
      <trkpt lat="42.06335" lon="21.59792">
        <ele>590.204661</ele>
        <time>2022-04-13T10:11:26.275Z</time>
      </trkpt>
      <trkpt lat="42.06102" lon="21.59912">
        <ele>583.492857</ele>
        <time>2022-04-13T10:12:06.284Z</time>
      </trkpt>
      <trkpt lat="42.05903" lon="21.60129">
        <ele>569.812747</ele>
        <time>2022-04-13T10:12:48.280Z</time>
      </trkpt>
      <trkpt lat="42.05621" lon="21.60116">
        <ele>553.001271</ele>
        <time>2022-04-13T10:13:28.288Z</time>
      </trkpt>
      <trkpt lat="42.05355" lon="21.60032">
        <ele>544.583616</ele>
        <time>2022-04-13T10:14:15.287Z</time>
      </trkpt>
      <trkpt lat="42.05051" lon="21.59895">
        <ele>525.862267</ele>
        <time>2022-04-13T10:14:57.286Z</time>
      </trkpt>
      <trkpt lat="42.04809" lon="21.59984">
        <ele>512.35044</ele>
        <time>2022-04-13T10:15:28.280Z</time>
      </trkpt>
      <trkpt lat="42.04525" lon="21.60048">
        <ele>494.894539</ele>
        <time>2022-04-13T10:16:03.286Z</time>
      </trkpt>
      <trkpt lat="42.042" lon="21.60058">
        <ele>477.507295</ele>
        <time>2022-04-13T10:16:45.283Z</time>
      </trkpt>
      <trkpt lat="42.0394" lon="21.59941">
        <ele>464.447685</ele>
        <time>2022-04-13T10:17:25.288Z</time>
      </trkpt>
      <trkpt lat="42.03737" lon="21.59706">
        <ele>454.167012</ele>
        <time>2022-04-13T10:17:59.277Z</time>
      </trkpt>
      <trkpt lat="42.03499" lon="21.59615">
        <ele>436.774642</ele>
        <time>2022-04-13T10:18:26.278Z</time>
      </trkpt>
      <trkpt lat="42.03201" lon="21.59475">
        <ele>411.424085</ele>
        <time>2022-04-13T10:19:06.303Z</time>
      </trkpt>
      <trkpt lat="42.03015" lon="21.59183">
        <ele>392.316866</ele>
        <time>2022-04-13T10:19:46.282Z</time>
      </trkpt>
      <trkpt lat="42.03002" lon="21.58853">
        <ele>378.134409</ele>
        <time>2022-04-13T10:20:25.311Z</time>
      </trkpt>
      <trkpt lat="42.02915" lon="21.58576">
        <ele>364.53401</ele>
        <time>2022-04-13T10:20:48.274Z</time>
      </trkpt>
      <trkpt lat="42.02799" lon="21.58337">
        <ele>362.694947</ele>
        <time>2022-04-13T10:21:32.276Z</time>
      </trkpt>
      <trkpt lat="42.02755" lon="21.58078">
        <ele>378.030766</ele>
        <time>2022-04-13T10:23:02.312Z</time>
      </trkpt>
      <trkpt lat="42.02778" lon="21.57785">
        <ele>395.473316</ele>
        <time>2022-04-13T10:24:18.283Z</time>
      </trkpt>
      <trkpt lat="42.02758" lon="21.57471">
        <ele>389.80081</ele>
        <time>2022-04-13T10:25:00.286Z</time>
      </trkpt>
      <trkpt lat="42.02738" lon="21.57148">
        <ele>376.253291</ele>
        <time>2022-04-13T10:25:49.308Z</time>
      </trkpt>
      <trkpt lat="42.0272" lon="21.56748">
        <ele>356.973996</ele>
        <time>2022-04-13T10:26:31.321Z</time>
      </trkpt>
      <trkpt lat="42.02708" lon="21.56422">
        <ele>337.037436</ele>
        <time>2022-04-13T10:27:12.291Z</time>
      </trkpt>
      <trkpt lat="42.02624" lon="21.56089">
        <ele>317.256166</ele>
        <time>2022-04-13T10:27:56.304Z</time>
      </trkpt>
      <trkpt lat="42.02513" lon="21.55698">
        <ele>289.794537</ele>
        <time>2022-04-13T10:28:37.296Z</time>
      </trkpt>
      <trkpt lat="42.02426" lon="21.55397">
        <ele>279.507735</ele>
        <time>2022-04-13T10:29:24.316Z</time>
      </trkpt>
      <trkpt lat="42.02347" lon="21.55124">
        <ele>278.359549</ele>
        <time>2022-04-13T10:30:06.299Z</time>
      </trkpt>
      <trkpt lat="42.02265" lon="21.54846">
        <ele>274.805624</ele>
        <time>2022-04-13T10:30:56.317Z</time>
      </trkpt>
      <trkpt lat="42.02194" lon="21.54604">
        <ele>272.886038</ele>
        <time>2022-04-13T10:31:37.298Z</time>
      </trkpt>
      <trkpt lat="42.02121" lon="21.5435">
        <ele>272.501481</ele>
        <time>2022-04-13T10:32:19.298Z</time>
      </trkpt>
      <trkpt lat="42.02047" lon="21.54094">
        <ele>272.148039</ele>
        <time>2022-04-13T10:33:01.320Z</time>
      </trkpt>
      <trkpt lat="42.01975" lon="21.53848">
        <ele>272.253077</ele>
        <time>2022-04-13T10:33:41.305Z</time>
      </trkpt>
      <trkpt lat="42.019" lon="21.5359">
        <ele>273.917632</ele>
        <time>2022-04-13T10:34:29.313Z</time>
      </trkpt>
      <trkpt lat="42.01825" lon="21.53328">
        <ele>277.924078</ele>
        <time>2022-04-13T10:35:41.307Z</time>
      </trkpt>
      <trkpt lat="42.01727" lon="21.53008">
        <ele>277.108962</ele>
        <time>2022-04-13T10:36:28.300Z</time>
      </trkpt>
      <trkpt lat="42.01641" lon="21.52715">
        <ele>280.20653</ele>
        <time>2022-04-13T10:37:22.314Z</time>
      </trkpt>
      <trkpt lat="42.01558" lon="21.52431">
        <ele>284.39205</ele>
        <time>2022-04-13T10:38:19.292Z</time>
      </trkpt>
      <trkpt lat="42.01472" lon="21.52142">
        <ele>290.075751</ele>
        <time>2022-04-13T10:39:23.317Z</time>
      </trkpt>
      <trkpt lat="42.0139" lon="21.51861">
        <ele>295.851496</ele>
        <time>2022-04-13T10:40:17.284Z</time>
      </trkpt>
      <trkpt lat="42.01306" lon="21.51567">
        <ele>291.840466</ele>
        <time>2022-04-13T10:41:11.281Z</time>
      </trkpt>
      <trkpt lat="42.01221" lon="21.51253">
        <ele>288.619142</ele>
        <time>2022-04-13T10:42:14.296Z</time>
      </trkpt>
      <trkpt lat="42.01134" lon="21.50976">
        <ele>292.316733</ele>
        <time>2022-04-13T10:43:17.268Z</time>
      </trkpt>
      <trkpt lat="42.00955" lon="21.50843">
        <ele>297.378615</ele>
        <time>2022-04-13T10:44:27.275Z</time>
      </trkpt>
      <trkpt lat="42.00757" lon="21.50586">
        <ele>284.162451</ele>
        <time>2022-04-13T10:45:09.286Z</time>
      </trkpt>
      <trkpt lat="42.00639" lon="21.50346">
        <ele>282.096047</ele>
        <time>2022-04-13T10:45:56.278Z</time>
      </trkpt>
      <trkpt lat="42.006" lon="21.50342">
        <ele>290.479648</ele>
        <time>2022-04-13T10:47:00.268Z</time>
      </trkpt>
      <trkpt lat="42.00365" lon="21.50393">
        <ele>287.878525</ele>
        <time>2022-04-13T10:47:59.307Z</time>
      </trkpt>
      <trkpt lat="42.00176" lon="21.50255">
        <ele>281.875284</ele>
        <time>2022-04-13T10:48:47.303Z</time>
      </trkpt>
      <trkpt lat="41.99991" lon="21.50137">
        <ele>283.425758</ele>
        <time>2022-04-13T10:49:43.299Z</time>
      </trkpt>
      <trkpt lat="41.99778" lon="21.50021">
        <ele>282.800731</ele>
        <time>2022-04-13T10:50:46.313Z</time>
      </trkpt>
      <trkpt lat="41.99564" lon="21.49902">
        <ele>283.464757</ele>
        <time>2022-04-13T10:51:55.301Z</time>
      </trkpt>
      <trkpt lat="41.99514" lon="21.49695">
        <ele>284.081938</ele>
        <time>2022-04-13T10:52:57.305Z</time>
      </trkpt>
      <trkpt lat="41.99605" lon="21.49412">
        <ele>283.884329</ele>
        <time>2022-04-13T10:54:01.309Z</time>
      </trkpt>
      <trkpt lat="41.99544" lon="21.49248">
        <ele>286.09223</ele>
        <time>2022-04-13T10:55:09.285Z</time>
      </trkpt>
      <trkpt lat="41.99329" lon="21.49173">
        <ele>288.290354</ele>
        <time>2022-04-13T10:56:00.296Z</time>
      </trkpt>
      <trkpt lat="41.99171" lon="21.48974">
        <ele>284.019936</ele>
        <time>2022-04-13T10:57:03.288Z</time>
      </trkpt>
      <trkpt lat="41.99079" lon="21.48878">
        <ele>289.261602</ele>
        <time>2022-04-13T11:00:05.285Z</time>
      </trkpt>
      <trkpt lat="41.99241" lon="21.49047">
        <ele>292.938688</ele>
        <time>2022-04-13T11:05:24.271Z</time>
      </trkpt>
      <trkpt lat="41.99397" lon="21.49219">
        <ele>289.791815</ele>
        <time>2022-04-13T11:06:29.322Z</time>
      </trkpt>
      <trkpt lat="41.99629" lon="21.49262">
        <ele>291.284787</ele>
        <time>2022-04-13T11:07:36.302Z</time>
      </trkpt>
      <trkpt lat="41.99641" lon="21.48954">
        <ele>292.872667</ele>
        <time>2022-04-13T11:08:36.300Z</time>
      </trkpt>
      <trkpt lat="41.9973" lon="21.48711">
        <ele>295.374452</ele>
        <time>2022-04-13T11:09:39.301Z</time>
      </trkpt>
      <trkpt lat="41.99715" lon="21.48416">
        <ele>302.687432</ele>
        <time>2022-04-13T11:10:30.317Z</time>
      </trkpt>
      <trkpt lat="41.99696" lon="21.48122">
        <ele>300.988739</ele>
        <time>2022-04-13T11:11:22.299Z</time>
      </trkpt>
      <trkpt lat="41.99684" lon="21.4781">
        <ele>296.631106</ele>
        <time>2022-04-13T11:12:17.295Z</time>
      </trkpt>
      <trkpt lat="41.99598" lon="21.47578">
        <ele>290.278719</ele>
        <time>2022-04-13T11:13:45.289Z</time>
      </trkpt>
      <trkpt lat="41.99372" lon="21.47521">
        <ele>284.542378</ele>
        <time>2022-04-13T11:14:39.291Z</time>
      </trkpt>
      <trkpt lat="41.99162" lon="21.47443">
        <ele>287.492281</ele>
        <time>2022-04-13T11:16:46.336Z</time>
      </trkpt>
      <trkpt lat="41.99235" lon="21.4719">
        <ele>284.267896</ele>
        <time>2022-04-13T11:18:05.283Z</time>
      </trkpt>
      <trkpt lat="41.99376" lon="21.46924">
        <ele>285.782325</ele>
        <time>2022-04-13T11:19:00.278Z</time>
      </trkpt>
      <trkpt lat="41.99492" lon="21.46674">
        <ele>285.557722</ele>
        <time>2022-04-13T11:19:48.296Z</time>
      </trkpt>
      <trkpt lat="41.99512" lon="21.46395">
        <ele>287.001172</ele>
        <time>2022-04-13T11:20:38.282Z</time>
      </trkpt>
      <trkpt lat="41.99453" lon="21.46165">
        <ele>291.650248</ele>
        <time>2022-04-13T11:22:42.316Z</time>
      </trkpt>
      <trkpt lat="41.99293" lon="21.46326">
        <ele>292.545636</ele>
        <time>2022-04-13T11:23:49.293Z</time>
      </trkpt>
      <trkpt lat="41.99281" lon="21.46407">
        <ele>290.536817</ele>
        <time>2022-04-13T11:24:39.298Z</time>
      </trkpt>
      <trkpt lat="41.994" lon="21.46307">
        <ele>294.885482</ele>
        <time>2022-04-13T11:25:58.291Z</time>
      </trkpt>
      <trkpt lat="41.99387" lon="21.46313">
        <ele>293.350074</ele>
        <time>2022-04-13T11:27:26.282Z</time>
      </trkpt>
      <trkpt lat="41.99297" lon="21.46129">
        <ele>290.346271</ele>
        <time>2022-04-13T11:29:40.302Z</time>
      </trkpt>
      <trkpt lat="41.99091" lon="21.4592">
        <ele>287.606506</ele>
        <time>2022-04-13T11:30:42.275Z</time>
      </trkpt>
      <trkpt lat="41.99029" lon="21.45605">
        <ele>291.227926</ele>
        <time>2022-04-13T11:31:40.281Z</time>
      </trkpt>
      <trkpt lat="41.99127" lon="21.45346">
        <ele>292.952004</ele>
        <time>2022-04-13T11:32:27.302Z</time>
      </trkpt>
      <trkpt lat="41.99261" lon="21.45132">
        <ele>292.487285</ele>
        <time>2022-04-13T11:33:09.273Z</time>
      </trkpt>
      <trkpt lat="41.99438" lon="21.44944">
        <ele>295.434574</ele>
        <time>2022-04-13T11:34:01.315Z</time>
      </trkpt>
      <trkpt lat="41.99543" lon="21.44706">
        <ele>303.094347</ele>
        <time>2022-04-13T11:34:46.276Z</time>
      </trkpt>
      <trkpt lat="41.99537" lon="21.44405">
        <ele>300.694293</ele>
        <time>2022-04-13T11:35:28.265Z</time>
      </trkpt>
      <trkpt lat="41.99474" lon="21.44132">
        <ele>298.296206</ele>
        <time>2022-04-13T11:36:08.272Z</time>
      </trkpt>
      <trkpt lat="41.9947" lon="21.43843">
        <ele>300.567804</ele>
        <time>2022-04-13T11:36:55.272Z</time>
      </trkpt>
      <trkpt lat="41.99398" lon="21.43625">
        <ele>307.713248</ele>
        <time>2022-04-13T11:38:04.276Z</time>
      </trkpt>
      <trkpt lat="41.99298" lon="21.43359">
        <ele>310.675085</ele>
        <time>2022-04-13T11:38:52.264Z</time>
      </trkpt>
      <trkpt lat="41.99451" lon="21.4316">
        <ele>304.744297</ele>
        <time>2022-04-13T11:39:58.304Z</time>
      </trkpt>
      <trkpt lat="41.99506" lon="21.42854">
        <ele>309.82508</ele>
        <time>2022-04-13T11:40:48.287Z</time>
      </trkpt>
      <trkpt lat="41.9956" lon="21.42595">
        <ele>305.467565</ele>
        <time>2022-04-13T11:56:00.254Z</time>
      </trkpt>
      <trkpt lat="41.99594" lon="21.42577">
        <ele>305.467565</ele>
        <time>2022-04-13T12:01:36.321Z</time>
      </trkpt>
    </trkseg>
  </trk>
  <trk>
    <name><![CDATA[Tour d'Europe: étape 651]]></name>
    <extensions>
      <line xmlns="http://www.topografix.com/GPX/gpx_style/0/2">
        <color>880000</color>
        <width>4</width>
      </line>
    </extensions>
    <trkseg>
      <trkpt lat="42.20188" lon="22.33429">
        <ele>694.661711</ele>
        <time>2022-04-10T07:50:49.284Z</time>
      </trkpt>
      <trkpt lat="42.20056" lon="22.33395">
        <ele>694.673191</ele>
        <time>2022-04-10T08:17:40.007Z</time>
      </trkpt>
      <trkpt lat="42.19961" lon="22.33104">
        <ele>693.329389</ele>
        <time>2022-04-10T08:18:26.003Z</time>
      </trkpt>
      <trkpt lat="42.19925" lon="22.32832">
        <ele>688.781744</ele>
        <time>2022-04-10T08:19:34.024Z</time>
      </trkpt>
      <trkpt lat="42.19831" lon="22.32553">
        <ele>691.681632</ele>
        <time>2022-04-10T08:20:33.020Z</time>
      </trkpt>
      <trkpt lat="42.1973" lon="22.32286">
        <ele>689.301528</ele>
        <time>2022-04-10T08:21:36.004Z</time>
      </trkpt>
      <trkpt lat="42.19617" lon="22.32021">
        <ele>688.209806</ele>
        <time>2022-04-10T08:22:31.035Z</time>
      </trkpt>
      <trkpt lat="42.19502" lon="22.31763">
        <ele>678.899205</ele>
        <time>2022-04-10T08:23:12.013Z</time>
      </trkpt>
      <trkpt lat="42.1942" lon="22.31488">
        <ele>677.887619</ele>
        <time>2022-04-10T08:24:13.023Z</time>
      </trkpt>
      <trkpt lat="42.19276" lon="22.31296">
        <ele>683.569436</ele>
        <time>2022-04-10T08:25:17.059Z</time>
      </trkpt>
      <trkpt lat="42.1919" lon="22.30954">
        <ele>666.414005</ele>
        <time>2022-04-10T08:25:59.024Z</time>
      </trkpt>
      <trkpt lat="42.1908" lon="22.30713">
        <ele>660.874125</ele>
        <time>2022-04-10T08:26:42.027Z</time>
      </trkpt>
      <trkpt lat="42.18935" lon="22.30551">
        <ele>678.040914</ele>
        <time>2022-04-10T08:28:35.019Z</time>
      </trkpt>
      <trkpt lat="42.18757" lon="22.30364">
        <ele>680.237641</ele>
        <time>2022-04-10T08:30:03.015Z</time>
      </trkpt>
      <trkpt lat="42.18606" lon="22.30111">
        <ele>686.303305</ele>
        <time>2022-04-10T08:31:42.032Z</time>
      </trkpt>
      <trkpt lat="42.18494" lon="22.29887">
        <ele>696.692947</ele>
        <time>2022-04-10T08:33:18.036Z</time>
      </trkpt>
      <trkpt lat="42.18373" lon="22.29656">
        <ele>702.882268</ele>
        <time>2022-04-10T08:34:47.036Z</time>
      </trkpt>
      <trkpt lat="42.18273" lon="22.29443">
        <ele>709.098793</ele>
        <time>2022-04-10T08:36:20.019Z</time>
      </trkpt>
      <trkpt lat="42.18224" lon="22.29133">
        <ele>704.607839</ele>
        <time>2022-04-10T08:37:26.015Z</time>
      </trkpt>
      <trkpt lat="42.18163" lon="22.288">
        <ele>691.192705</ele>
        <time>2022-04-10T08:38:07.050Z</time>
      </trkpt>
      <trkpt lat="42.18107" lon="22.28485">
        <ele>685.192168</ele>
        <time>2022-04-10T08:39:06.018Z</time>
      </trkpt>
      <trkpt lat="42.18017" lon="22.28166">
        <ele>674.030081</ele>
        <time>2022-04-10T08:39:56.030Z</time>
      </trkpt>
      <trkpt lat="42.17939" lon="22.27904">
        <ele>671.957851</ele>
        <time>2022-04-10T08:40:47.028Z</time>
      </trkpt>
      <trkpt lat="42.1786" lon="22.2761">
        <ele>663.419972</ele>
        <time>2022-04-10T08:41:41.018Z</time>
      </trkpt>
      <trkpt lat="42.17763" lon="22.27303">
        <ele>651.285699</ele>
        <time>2022-04-10T08:42:31.043Z</time>
      </trkpt>
      <trkpt lat="42.17674" lon="22.2702">
        <ele>650.501126</ele>
        <time>2022-04-10T08:43:35.042Z</time>
      </trkpt>
      <trkpt lat="42.17655" lon="22.26766">
        <ele>644.883059</ele>
        <time>2022-04-10T08:44:45.023Z</time>
      </trkpt>
      <trkpt lat="42.17678" lon="22.26527">
        <ele>630.02424</ele>
        <time>2022-04-10T08:45:28.043Z</time>
      </trkpt>
      <trkpt lat="42.17876" lon="22.26392">
        <ele>616.49012</ele>
        <time>2022-04-10T08:46:18.032Z</time>
      </trkpt>
      <trkpt lat="42.17882" lon="22.26126">
        <ele>612.876697</ele>
        <time>2022-04-10T08:47:13.036Z</time>
      </trkpt>
      <trkpt lat="42.177" lon="22.2592">
        <ele>610.703055</ele>
        <time>2022-04-10T08:47:58.039Z</time>
      </trkpt>
      <trkpt lat="42.17663" lon="22.25624">
        <ele>605.439523</ele>
        <time>2022-04-10T08:48:41.036Z</time>
      </trkpt>
      <trkpt lat="42.17656" lon="22.25246">
        <ele>602.103024</ele>
        <time>2022-04-10T08:49:30.042Z</time>
      </trkpt>
      <trkpt lat="42.17655" lon="22.24957">
        <ele>602.348139</ele>
        <time>2022-04-10T08:50:18.060Z</time>
      </trkpt>
      <trkpt lat="42.17643" lon="22.24554">
        <ele>592.736691</ele>
        <time>2022-04-10T08:51:00.090Z</time>
      </trkpt>
      <trkpt lat="42.17681" lon="22.24195">
        <ele>588.436475</ele>
        <time>2022-04-10T08:51:40.045Z</time>
      </trkpt>
      <trkpt lat="42.1765" lon="22.23857">
        <ele>587.003528</ele>
        <time>2022-04-10T08:52:22.071Z</time>
      </trkpt>
      <trkpt lat="42.17504" lon="22.23636">
        <ele>587.792946</ele>
        <time>2022-04-10T08:53:02.075Z</time>
      </trkpt>
      <trkpt lat="42.17357" lon="22.23381">
        <ele>594.936726</ele>
        <time>2022-04-10T08:54:00.036Z</time>
      </trkpt>
      <trkpt lat="42.17326" lon="22.231">
        <ele>591.351351</ele>
        <time>2022-04-10T08:54:42.035Z</time>
      </trkpt>
      <trkpt lat="42.1724" lon="22.22832">
        <ele>584.295552</ele>
        <time>2022-04-10T08:55:26.046Z</time>
      </trkpt>
      <trkpt lat="42.17246" lon="22.22556">
        <ele>581.612267</ele>
        <time>2022-04-10T08:56:06.044Z</time>
      </trkpt>
      <trkpt lat="42.17402" lon="22.224">
        <ele>583.438282</ele>
        <time>2022-04-10T08:56:50.040Z</time>
      </trkpt>
      <trkpt lat="42.17466" lon="22.22215">
        <ele>576.076556</ele>
        <time>2022-04-10T08:57:31.034Z</time>
      </trkpt>
      <trkpt lat="42.17352" lon="22.2199">
        <ele>572.756743</ele>
        <time>2022-04-10T08:58:15.073Z</time>
      </trkpt>
      <trkpt lat="42.17207" lon="22.21756">
        <ele>568.80285</ele>
        <time>2022-04-10T08:58:55.016Z</time>
      </trkpt>
      <trkpt lat="42.1715" lon="22.21506">
        <ele>563.156931</ele>
        <time>2022-04-10T08:59:37.034Z</time>
      </trkpt>
      <trkpt lat="42.17246" lon="22.21249">
        <ele>562.941837</ele>
        <time>2022-04-10T09:00:21.044Z</time>
      </trkpt>
      <trkpt lat="42.17217" lon="22.20937">
        <ele>559.62437</ele>
        <time>2022-04-10T09:01:05.053Z</time>
      </trkpt>
      <trkpt lat="42.17231" lon="22.20634">
        <ele>554.732285</ele>
        <time>2022-04-10T09:01:45.038Z</time>
      </trkpt>
      <trkpt lat="42.17212" lon="22.20339">
        <ele>550.176608</ele>
        <time>2022-04-10T09:02:30.044Z</time>
      </trkpt>
      <trkpt lat="42.17215" lon="22.20087">
        <ele>550.289995</ele>
        <time>2022-04-10T09:03:10.038Z</time>
      </trkpt>
      <trkpt lat="42.17267" lon="22.19771">
        <ele>550.075333</ele>
        <time>2022-04-10T09:03:52.056Z</time>
      </trkpt>
      <trkpt lat="42.17235" lon="22.19499">
        <ele>546.950238</ele>
        <time>2022-04-10T09:04:32.037Z</time>
      </trkpt>
      <trkpt lat="42.17199" lon="22.19192">
        <ele>542.345664</ele>
        <time>2022-04-10T09:05:14.038Z</time>
      </trkpt>
      <trkpt lat="42.17179" lon="22.18876">
        <ele>537.645353</ele>
        <time>2022-04-10T09:05:54.040Z</time>
      </trkpt>
      <trkpt lat="42.17156" lon="22.18555">
        <ele>535.613752</ele>
        <time>2022-04-10T09:06:36.033Z</time>
      </trkpt>
      <trkpt lat="42.1714" lon="22.18238">
        <ele>533.216631</ele>
        <time>2022-04-10T09:07:16.074Z</time>
      </trkpt>
      <trkpt lat="42.1712" lon="22.1792">
        <ele>530.52561</ele>
        <time>2022-04-10T09:07:58.035Z</time>
      </trkpt>
      <trkpt lat="42.17103" lon="22.17621">
        <ele>528.36433</ele>
        <time>2022-04-10T09:08:38.034Z</time>
      </trkpt>
      <trkpt lat="42.17085" lon="22.17315">
        <ele>530.238317</ele>
        <time>2022-04-10T09:09:25.054Z</time>
      </trkpt>
      <trkpt lat="42.17067" lon="22.1699">
        <ele>527.17393</ele>
        <time>2022-04-10T09:10:09.046Z</time>
      </trkpt>
      <trkpt lat="42.17051" lon="22.16701">
        <ele>524.433885</ele>
        <time>2022-04-10T09:10:50.051Z</time>
      </trkpt>
      <trkpt lat="42.17035" lon="22.16419">
        <ele>525.524168</ele>
        <time>2022-04-10T09:11:32.027Z</time>
      </trkpt>
      <trkpt lat="42.17019" lon="22.16142">
        <ele>525.156029</ele>
        <time>2022-04-10T09:12:16.035Z</time>
      </trkpt>
      <trkpt lat="42.17001" lon="22.15846">
        <ele>523.303916</ele>
        <time>2022-04-10T09:13:01.059Z</time>
      </trkpt>
      <trkpt lat="42.16986" lon="22.15557">
        <ele>519.092523</ele>
        <time>2022-04-10T09:13:41.074Z</time>
      </trkpt>
      <trkpt lat="42.16969" lon="22.15276">
        <ele>516.021695</ele>
        <time>2022-04-10T09:14:23.035Z</time>
      </trkpt>
      <trkpt lat="42.16953" lon="22.14996">
        <ele>515.30393</ele>
        <time>2022-04-10T09:15:07.057Z</time>
      </trkpt>
      <trkpt lat="42.16937" lon="22.14682">
        <ele>517.122188</ele>
        <time>2022-04-10T09:15:59.042Z</time>
      </trkpt>
      <trkpt lat="42.16917" lon="22.14358">
        <ele>517.260314</ele>
        <time>2022-04-10T09:16:58.025Z</time>
      </trkpt>
      <trkpt lat="42.16899" lon="22.14048">
        <ele>515.589182</ele>
        <time>2022-04-10T09:17:48.054Z</time>
      </trkpt>
      <trkpt lat="42.16882" lon="22.13768">
        <ele>512.674808</ele>
        <time>2022-04-10T09:18:28.023Z</time>
      </trkpt>
      <trkpt lat="42.16867" lon="22.1349">
        <ele>513.368843</ele>
        <time>2022-04-10T09:19:13.053Z</time>
      </trkpt>
      <trkpt lat="42.16848" lon="22.13169">
        <ele>517.901201</ele>
        <time>2022-04-10T09:20:13.029Z</time>
      </trkpt>
      <trkpt lat="42.1683" lon="22.12837">
        <ele>519.373599</ele>
        <time>2022-04-10T09:21:16.081Z</time>
      </trkpt>
      <trkpt lat="42.16813" lon="22.12561">
        <ele>521.242318</ele>
        <time>2022-04-10T09:22:16.056Z</time>
      </trkpt>
      <trkpt lat="42.16792" lon="22.12232">
        <ele>518.428374</ele>
        <time>2022-04-10T09:23:01.041Z</time>
      </trkpt>
      <trkpt lat="42.16772" lon="22.11906">
        <ele>517.791816</ele>
        <time>2022-04-10T09:24:00.039Z</time>
      </trkpt>
      <trkpt lat="42.16756" lon="22.11602">
        <ele>526.854949</ele>
        <time>2022-04-10T09:25:23.078Z</time>
      </trkpt>
      <trkpt lat="42.16743" lon="22.11345">
        <ele>538.011986</ele>
        <time>2022-04-10T09:27:16.057Z</time>
      </trkpt>
      <trkpt lat="42.16722" lon="22.11058">
        <ele>541.166457</ele>
        <time>2022-04-10T09:29:04.040Z</time>
      </trkpt>
      <trkpt lat="42.16699" lon="22.10784">
        <ele>541.057444</ele>
        <time>2022-04-10T09:30:18.022Z</time>
      </trkpt>
      <trkpt lat="42.16685" lon="22.10497">
        <ele>545.151102</ele>
        <time>2022-04-10T09:31:38.037Z</time>
      </trkpt>
      <trkpt lat="42.16666" lon="22.10235">
        <ele>549.209054</ele>
        <time>2022-04-10T09:33:04.071Z</time>
      </trkpt>
      <trkpt lat="42.1665" lon="22.09956">
        <ele>559.583306</ele>
        <time>2022-04-10T09:35:01.047Z</time>
      </trkpt>
      <trkpt lat="42.16631" lon="22.09692">
        <ele>569.647088</ele>
        <time>2022-04-10T09:36:51.121Z</time>
      </trkpt>
      <trkpt lat="42.16708" lon="22.0944">
        <ele>579.770601</ele>
        <time>2022-04-10T09:38:52.053Z</time>
      </trkpt>
      <trkpt lat="42.16731" lon="22.09261">
        <ele>586.202249</ele>
        <time>2022-04-10T09:40:52.034Z</time>
      </trkpt>
      <trkpt lat="42.16597" lon="22.0911">
        <ele>587.36709</ele>
        <time>2022-04-10T09:42:22.051Z</time>
      </trkpt>
      <trkpt lat="42.16555" lon="22.08891">
        <ele>574.067446</ele>
        <time>2022-04-10T09:43:17.033Z</time>
      </trkpt>
      <trkpt lat="42.16355" lon="22.0874">
        <ele>559.746915</ele>
        <time>2022-04-10T09:44:10.051Z</time>
      </trkpt>
      <trkpt lat="42.16232" lon="22.0852">
        <ele>557.298983</ele>
        <time>2022-04-10T09:45:12.043Z</time>
      </trkpt>
      <trkpt lat="42.16346" lon="22.08366">
        <ele>563.642888</ele>
        <time>2022-04-10T09:47:12.053Z</time>
      </trkpt>
      <trkpt lat="42.16404" lon="22.0814">
        <ele>577.20282</ele>
        <time>2022-04-10T09:49:28.050Z</time>
      </trkpt>
      <trkpt lat="42.16397" lon="22.07865">
        <ele>592.261957</ele>
        <time>2022-04-10T09:51:31.053Z</time>
      </trkpt>
      <trkpt lat="42.16298" lon="22.07616">
        <ele>572.408015</ele>
        <time>2022-04-10T09:52:15.044Z</time>
      </trkpt>
      <trkpt lat="42.16128" lon="22.0747">
        <ele>547.772571</ele>
        <time>2022-04-10T09:53:08.047Z</time>
      </trkpt>
      <trkpt lat="42.16031" lon="22.07217">
        <ele>557.729569</ele>
        <time>2022-04-10T09:54:12.059Z</time>
      </trkpt>
      <trkpt lat="42.16069" lon="22.0694">
        <ele>573.546565</ele>
        <time>2022-04-10T09:56:25.092Z</time>
      </trkpt>
      <trkpt lat="42.16044" lon="22.06694">
        <ele>584.166374</ele>
        <time>2022-04-10T09:58:42.042Z</time>
      </trkpt>
      <trkpt lat="42.16011" lon="22.06446">
        <ele>596.966379</ele>
        <time>2022-04-10T10:01:09.065Z</time>
      </trkpt>
      <trkpt lat="42.15993" lon="22.06199">
        <ele>607.212849</ele>
        <time>2022-04-10T10:03:53.064Z</time>
      </trkpt>
      <trkpt lat="42.15907" lon="22.06089">
        <ele>623.794486</ele>
        <time>2022-04-10T10:06:40.049Z</time>
      </trkpt>
      <trkpt lat="42.15814" lon="22.05867">
        <ele>642.448222</ele>
        <time>2022-04-10T10:09:19.065Z</time>
      </trkpt>
      <trkpt lat="42.15776" lon="22.05606">
        <ele>648.484598</ele>
        <time>2022-04-10T10:11:47.059Z</time>
      </trkpt>
      <trkpt lat="42.15652" lon="22.05409">
        <ele>640.295185</ele>
        <time>2022-04-10T10:13:29.047Z</time>
      </trkpt>
      <trkpt lat="42.15634" lon="22.05319">
        <ele>644.159716</ele>
        <time>2022-04-10T10:14:44.057Z</time>
      </trkpt>
      <trkpt lat="42.15567" lon="22.05131">
        <ele>651.370795</ele>
        <time>2022-04-10T10:17:00.045Z</time>
      </trkpt>
      <trkpt lat="42.1547" lon="22.04894">
        <ele>665.388143</ele>
        <time>2022-04-10T10:19:24.062Z</time>
      </trkpt>
      <trkpt lat="42.15369" lon="22.04674">
        <ele>672.940803</ele>
        <time>2022-04-10T10:21:34.055Z</time>
      </trkpt>
      <trkpt lat="42.15249" lon="22.04467">
        <ele>686.051848</ele>
        <time>2022-04-10T10:23:57.052Z</time>
      </trkpt>
      <trkpt lat="42.15229" lon="22.04211">
        <ele>698.562485</ele>
        <time>2022-04-10T10:26:19.058Z</time>
      </trkpt>
      <trkpt lat="42.15206" lon="22.03944">
        <ele>712.327586</ele>
        <time>2022-04-10T10:29:15.038Z</time>
      </trkpt>
      <trkpt lat="42.15124" lon="22.03712">
        <ele>727.8247</ele>
        <time>2022-04-10T10:31:56.053Z</time>
      </trkpt>
      <trkpt lat="42.15045" lon="22.03466">
        <ele>736.225598</ele>
        <time>2022-04-10T10:34:45.034Z</time>
      </trkpt>
      <trkpt lat="42.1496" lon="22.03328">
        <ele>729.497774</ele>
        <time>2022-04-10T10:37:14.065Z</time>
      </trkpt>
      <trkpt lat="42.14935" lon="22.02984">
        <ele>715.072323</ele>
        <time>2022-04-10T10:38:05.066Z</time>
      </trkpt>
      <trkpt lat="42.14902" lon="22.02688">
        <ele>702.182902</ele>
        <time>2022-04-10T10:38:29.062Z</time>
      </trkpt>
      <trkpt lat="42.14835" lon="22.02392">
        <ele>693.329185</ele>
        <time>2022-04-10T10:38:54.070Z</time>
      </trkpt>
      <trkpt lat="42.14795" lon="22.02058">
        <ele>692.056974</ele>
        <time>2022-04-10T10:39:38.059Z</time>
      </trkpt>
      <trkpt lat="42.14759" lon="22.01721">
        <ele>690.70797</ele>
        <time>2022-04-10T10:40:38.104Z</time>
      </trkpt>
      <trkpt lat="42.14716" lon="22.01381">
        <ele>685.983908</ele>
        <time>2022-04-10T10:41:18.087Z</time>
      </trkpt>
      <trkpt lat="42.14664" lon="22.00935">
        <ele>671.572376</ele>
        <time>2022-04-10T10:42:00.054Z</time>
      </trkpt>
      <trkpt lat="42.14618" lon="22.00521">
        <ele>661.46349</ele>
        <time>2022-04-10T10:42:36.066Z</time>
      </trkpt>
      <trkpt lat="42.14733" lon="22.00179">
        <ele>653.578984</ele>
        <time>2022-04-10T10:43:18.054Z</time>
      </trkpt>
      <trkpt lat="42.14885" lon="21.99942">
        <ele>648.474488</ele>
        <time>2022-04-10T11:16:30.095Z</time>
      </trkpt>
      <trkpt lat="42.14806" lon="21.99625">
        <ele>634.844299</ele>
        <time>2022-04-10T11:17:12.049Z</time>
      </trkpt>
      <trkpt lat="42.1457" lon="21.9948">
        <ele>628.002044</ele>
        <time>2022-04-10T11:17:52.069Z</time>
      </trkpt>
      <trkpt lat="42.1449" lon="21.99129">
        <ele>610.466891</ele>
        <time>2022-04-10T11:18:34.081Z</time>
      </trkpt>
      <trkpt lat="42.14645" lon="21.98866">
        <ele>599.113155</ele>
        <time>2022-04-10T11:19:14.078Z</time>
      </trkpt>
      <trkpt lat="42.14856" lon="21.98702">
        <ele>596.516495</ele>
        <time>2022-04-10T11:20:13.082Z</time>
      </trkpt>
      <trkpt lat="42.14974" lon="21.98468">
        <ele>598.373255</ele>
        <time>2022-04-10T11:21:23.073Z</time>
      </trkpt>
      <trkpt lat="42.14895" lon="21.98193">
        <ele>604.35994</ele>
        <time>2022-04-10T11:22:43.067Z</time>
      </trkpt>
      <trkpt lat="42.14759" lon="21.97988">
        <ele>606.93038</ele>
        <time>2022-04-10T11:24:03.118Z</time>
      </trkpt>
      <trkpt lat="42.14758" lon="21.97684">
        <ele>607.485173</ele>
        <time>2022-04-10T11:25:26.077Z</time>
      </trkpt>
      <trkpt lat="42.14735" lon="21.97507">
        <ele>601.223862</ele>
        <time>2022-04-10T11:26:15.090Z</time>
      </trkpt>
      <trkpt lat="42.14788" lon="21.97198">
        <ele>594.98111</ele>
        <time>2022-04-10T11:27:13.088Z</time>
      </trkpt>
      <trkpt lat="42.14839" lon="21.96888">
        <ele>592.169329</ele>
        <time>2022-04-10T11:28:09.081Z</time>
      </trkpt>
      <trkpt lat="42.14885" lon="21.9661">
        <ele>591.505681</ele>
        <time>2022-04-10T11:29:13.073Z</time>
      </trkpt>
      <trkpt lat="42.14933" lon="21.96321">
        <ele>587.456312</ele>
        <time>2022-04-10T11:30:14.068Z</time>
      </trkpt>
      <trkpt lat="42.14983" lon="21.96044">
        <ele>572.229128</ele>
        <time>2022-04-10T11:30:56.071Z</time>
      </trkpt>
      <trkpt lat="42.15026" lon="21.9578">
        <ele>557.753279</ele>
        <time>2022-04-10T11:31:38.084Z</time>
      </trkpt>
      <trkpt lat="42.15071" lon="21.95499">
        <ele>546.307922</ele>
        <time>2022-04-10T11:32:20.098Z</time>
      </trkpt>
      <trkpt lat="42.15134" lon="21.95256">
        <ele>535.845356</ele>
        <time>2022-04-10T11:33:03.076Z</time>
      </trkpt>
      <trkpt lat="42.15099" lon="21.95074">
        <ele>520.236467</ele>
        <time>2022-04-10T11:33:51.076Z</time>
      </trkpt>
      <trkpt lat="42.15199" lon="21.94902">
        <ele>528.940391</ele>
        <time>2022-04-10T11:35:31.078Z</time>
      </trkpt>
      <trkpt lat="42.15363" lon="21.94748">
        <ele>540.782361</ele>
        <time>2022-04-10T11:37:41.100Z</time>
      </trkpt>
      <trkpt lat="42.15392" lon="21.94551">
        <ele>549.337953</ele>
        <time>2022-04-10T11:39:59.054Z</time>
      </trkpt>
      <trkpt lat="42.15437" lon="21.94262">
        <ele>546.730406</ele>
        <time>2022-04-10T11:41:17.076Z</time>
      </trkpt>
      <trkpt lat="42.15531" lon="21.93999">
        <ele>538.973631</ele>
        <time>2022-04-10T11:42:04.067Z</time>
      </trkpt>
      <trkpt lat="42.1568" lon="21.93875">
        <ele>545.850664</ele>
        <time>2022-04-10T11:43:55.086Z</time>
      </trkpt>
      <trkpt lat="42.15742" lon="21.93615">
        <ele>538.13889</ele>
        <time>2022-04-10T11:45:04.087Z</time>
      </trkpt>
      <trkpt lat="42.15954" lon="21.93534">
        <ele>523.213495</ele>
        <time>2022-04-10T11:52:12.089Z</time>
      </trkpt>
      <trkpt lat="42.15964" lon="21.93353">
        <ele>521.647321</ele>
        <time>2022-04-10T11:53:31.120Z</time>
      </trkpt>
      <trkpt lat="42.15973" lon="21.93064">
        <ele>520.865901</ele>
        <time>2022-04-10T11:54:47.087Z</time>
      </trkpt>
      <trkpt lat="42.1601" lon="21.92802">
        <ele>521.872855</ele>
        <time>2022-04-10T11:56:19.114Z</time>
      </trkpt>
      <trkpt lat="42.16065" lon="21.92506">
        <ele>520.397323</ele>
        <time>2022-04-10T11:57:27.081Z</time>
      </trkpt>
      <trkpt lat="42.16059" lon="21.92216">
        <ele>513.327839</ele>
        <time>2022-04-10T11:58:37.082Z</time>
      </trkpt>
      <trkpt lat="42.16165" lon="21.91959">
        <ele>499.51705</ele>
        <time>2022-04-10T11:59:43.099Z</time>
      </trkpt>
      <trkpt lat="42.16281" lon="21.91719">
        <ele>487.383819</ele>
        <time>2022-04-10T12:00:53.115Z</time>
      </trkpt>
      <trkpt lat="42.16397" lon="21.91479">
        <ele>487.537134</ele>
        <time>2022-04-10T12:02:23.080Z</time>
      </trkpt>
      <trkpt lat="42.16499" lon="21.91256">
        <ele>495.374395</ele>
        <time>2022-04-10T12:04:25.098Z</time>
      </trkpt>
      <trkpt lat="42.16633" lon="21.90979">
        <ele>489.636533</ele>
        <time>2022-04-10T12:05:31.085Z</time>
      </trkpt>
      <trkpt lat="42.16753" lon="21.90728">
        <ele>480.753159</ele>
        <time>2022-04-10T12:06:23.093Z</time>
      </trkpt>
      <trkpt lat="42.16747" lon="21.90446">
        <ele>468.384141</ele>
        <time>2022-04-10T12:07:11.090Z</time>
      </trkpt>
      <trkpt lat="42.1672" lon="21.90164">
        <ele>458.757072</ele>
        <time>2022-04-10T12:08:21.066Z</time>
      </trkpt>
      <trkpt lat="42.16729" lon="21.89879">
        <ele>449.524544</ele>
        <time>2022-04-10T12:09:46.085Z</time>
      </trkpt>
      <trkpt lat="42.16727" lon="21.89598">
        <ele>441.130882</ele>
        <time>2022-04-10T12:11:02.084Z</time>
      </trkpt>
      <trkpt lat="42.16732" lon="21.89285">
        <ele>428.369945</ele>
        <time>2022-04-10T12:11:53.087Z</time>
      </trkpt>
      <trkpt lat="42.16676" lon="21.89019">
        <ele>418.734987</ele>
        <time>2022-04-10T12:12:41.110Z</time>
      </trkpt>
      <trkpt lat="42.16608" lon="21.88753">
        <ele>403.362448</ele>
        <time>2022-04-10T12:13:52.092Z</time>
      </trkpt>
      <trkpt lat="42.16588" lon="21.88491">
        <ele>387.121249</ele>
        <time>2022-04-10T12:14:59.093Z</time>
      </trkpt>
      <trkpt lat="42.16383" lon="21.88389">
        <ele>371.205336</ele>
        <time>2022-04-10T12:16:12.095Z</time>
      </trkpt>
      <trkpt lat="42.16389" lon="21.88299">
        <ele>371.496219</ele>
        <time>2022-04-10T12:21:15.075Z</time>
      </trkpt>
      <trkpt lat="42.16309" lon="21.88037">
        <ele>378.692646</ele>
        <time>2022-04-10T12:23:06.082Z</time>
      </trkpt>
      <trkpt lat="42.16239" lon="21.87785">
        <ele>380.438126</ele>
        <time>2022-04-10T12:24:26.091Z</time>
      </trkpt>
      <trkpt lat="42.1617" lon="21.87517">
        <ele>380.794018</ele>
        <time>2022-04-10T12:25:37.128Z</time>
      </trkpt>
      <trkpt lat="42.16105" lon="21.87244">
        <ele>375.74168</ele>
        <time>2022-04-10T12:26:39.085Z</time>
      </trkpt>
      <trkpt lat="42.1621" lon="21.87069">
        <ele>359.97027</ele>
        <time>2022-04-10T12:27:56.080Z</time>
      </trkpt>
      <trkpt lat="42.16256" lon="21.86788">
        <ele>352.961404</ele>
        <time>2022-04-10T12:29:01.084Z</time>
      </trkpt>
      <trkpt lat="42.16246" lon="21.86492">
        <ele>355.112236</ele>
        <time>2022-04-10T12:30:01.088Z</time>
      </trkpt>
      <trkpt lat="42.16249" lon="21.86201">
        <ele>359.122562</ele>
        <time>2022-04-10T12:31:24.089Z</time>
      </trkpt>
      <trkpt lat="42.1628" lon="21.85938">
        <ele>364.184275</ele>
        <time>2022-04-10T12:32:55.127Z</time>
      </trkpt>
      <trkpt lat="42.16335" lon="21.8566">
        <ele>365.291468</ele>
        <time>2022-04-10T12:34:16.095Z</time>
      </trkpt>
      <trkpt lat="42.16387" lon="21.85392">
        <ele>369.321804</ele>
        <time>2022-04-10T12:35:40.100Z</time>
      </trkpt>
      <trkpt lat="42.16439" lon="21.85122">
        <ele>377.891451</ele>
        <time>2022-04-10T12:37:30.095Z</time>
      </trkpt>
      <trkpt lat="42.16485" lon="21.84867">
        <ele>396.711249</ele>
        <time>2022-04-10T12:40:11.099Z</time>
      </trkpt>
      <trkpt lat="42.16537" lon="21.84599">
        <ele>410.246829</ele>
        <time>2022-04-10T12:42:47.115Z</time>
      </trkpt>
      <trkpt lat="42.16586" lon="21.84326">
        <ele>411.608809</ele>
        <time>2022-04-10T12:44:13.132Z</time>
      </trkpt>
      <trkpt lat="42.16642" lon="21.84056">
        <ele>418.261339</ele>
        <time>2022-04-10T12:46:02.101Z</time>
      </trkpt>
      <trkpt lat="42.16697" lon="21.83794">
        <ele>423.174818</ele>
        <time>2022-04-10T12:47:54.114Z</time>
      </trkpt>
      <trkpt lat="42.16751" lon="21.83518">
        <ele>433.716493</ele>
        <time>2022-04-10T12:49:49.084Z</time>
      </trkpt>
      <trkpt lat="42.168" lon="21.83268">
        <ele>440.672509</ele>
        <time>2022-04-10T12:52:08.097Z</time>
      </trkpt>
      <trkpt lat="42.16851" lon="21.83005">
        <ele>450.632053</ele>
        <time>2022-04-10T12:54:23.117Z</time>
      </trkpt>
      <trkpt lat="42.16902" lon="21.8275">
        <ele>458.949343</ele>
        <time>2022-04-10T12:56:32.099Z</time>
      </trkpt>
      <trkpt lat="42.16953" lon="21.82481">
        <ele>468.867809</ele>
        <time>2022-04-10T12:58:51.107Z</time>
      </trkpt>
      <trkpt lat="42.17003" lon="21.82235">
        <ele>477.268855</ele>
        <time>2022-04-10T13:01:32.097Z</time>
      </trkpt>
      <trkpt lat="42.17053" lon="21.81953">
        <ele>477.743562</ele>
        <time>2022-04-10T13:03:01.102Z</time>
      </trkpt>
      <trkpt lat="42.17107" lon="21.8169">
        <ele>479.112962</ele>
        <time>2022-04-10T13:04:07.106Z</time>
      </trkpt>
      <trkpt lat="42.17164" lon="21.81426">
        <ele>480.139336</ele>
        <time>2022-04-10T13:06:10.099Z</time>
      </trkpt>
      <trkpt lat="42.17233" lon="21.8115">
        <ele>476.953157</ele>
        <time>2022-04-10T13:10:45.118Z</time>
      </trkpt>
      <trkpt lat="42.17307" lon="21.80874">
        <ele>471.681648</ele>
        <time>2022-04-10T13:11:57.104Z</time>
      </trkpt>
      <trkpt lat="42.17443" lon="21.80636">
        <ele>455.906637</ele>
        <time>2022-04-10T13:12:51.093Z</time>
      </trkpt>
      <trkpt lat="42.17377" lon="21.80409">
        <ele>444.359886</ele>
        <time>2022-04-10T13:13:53.126Z</time>
      </trkpt>
      <trkpt lat="42.17347" lon="21.80137">
        <ele>436.961642</ele>
        <time>2022-04-10T13:15:11.106Z</time>
      </trkpt>
      <trkpt lat="42.17344" lon="21.79859">
        <ele>448.570944</ele>
        <time>2022-04-10T13:17:29.147Z</time>
      </trkpt>
      <trkpt lat="42.17343" lon="21.79591">
        <ele>454.590815</ele>
        <time>2022-04-10T13:19:10.090Z</time>
      </trkpt>
      <trkpt lat="42.17308" lon="21.79308">
        <ele>454.696374</ele>
        <time>2022-04-10T13:20:26.116Z</time>
      </trkpt>
      <trkpt lat="42.17337" lon="21.79069">
        <ele>458.594986</ele>
        <time>2022-04-10T13:24:58.113Z</time>
      </trkpt>
      <trkpt lat="42.17419" lon="21.78801">
        <ele>454.656286</ele>
        <time>2022-04-10T13:25:47.112Z</time>
      </trkpt>
      <trkpt lat="42.17335" lon="21.78585">
        <ele>463.123888</ele>
        <time>2022-04-10T13:27:38.112Z</time>
      </trkpt>
      <trkpt lat="42.17308" lon="21.78322">
        <ele>474.981197</ele>
        <time>2022-04-10T13:30:19.119Z</time>
      </trkpt>
      <trkpt lat="42.17201" lon="21.78096">
        <ele>478.74145</ele>
        <time>2022-04-10T13:36:48.147Z</time>
      </trkpt>
      <trkpt lat="42.17145" lon="21.77896">
        <ele>475.063906</ele>
        <time>2022-04-10T13:37:52.144Z</time>
      </trkpt>
      <trkpt lat="42.17055" lon="21.77675">
        <ele>484.21202</ele>
        <time>2022-04-10T13:39:47.121Z</time>
      </trkpt>
      <trkpt lat="42.16985" lon="21.77423">
        <ele>497.621285</ele>
        <time>2022-04-10T13:42:12.108Z</time>
      </trkpt>
      <trkpt lat="42.16917" lon="21.77174">
        <ele>504.393584</ele>
        <time>2022-04-10T13:44:22.122Z</time>
      </trkpt>
      <trkpt lat="42.16831" lon="21.76864">
        <ele>496.035397</ele>
        <time>2022-04-10T13:45:18.118Z</time>
      </trkpt>
      <trkpt lat="42.16754" lon="21.76577">
        <ele>485.249126</ele>
        <time>2022-04-10T13:46:03.122Z</time>
      </trkpt>
      <trkpt lat="42.16665" lon="21.76252">
        <ele>479.261744</ele>
        <time>2022-04-10T13:46:48.155Z</time>
      </trkpt>
      <trkpt lat="42.16572" lon="21.75971">
        <ele>480.271428</ele>
        <time>2022-04-10T13:48:02.116Z</time>
      </trkpt>
      <trkpt lat="42.16434" lon="21.7578">
        <ele>491.533751</ele>
        <time>2022-04-10T13:50:39.128Z</time>
      </trkpt>
      <trkpt lat="42.16319" lon="21.75492">
        <ele>488.760241</ele>
        <time>2022-04-10T13:51:30.118Z</time>
      </trkpt>
      <trkpt lat="42.16192" lon="21.7518">
        <ele>481.933385</ele>
        <time>2022-04-10T13:52:12.126Z</time>
      </trkpt>
      <trkpt lat="42.16086" lon="21.7491">
        <ele>476.850174</ele>
        <time>2022-04-10T13:53:10.100Z</time>
      </trkpt>
      <trkpt lat="42.15948" lon="21.74568">
        <ele>463.775667</ele>
        <time>2022-04-10T13:53:53.107Z</time>
      </trkpt>
      <trkpt lat="42.15833" lon="21.74285">
        <ele>452.055369</ele>
        <time>2022-04-10T13:54:36.109Z</time>
      </trkpt>
      <trkpt lat="42.157" lon="21.73958">
        <ele>439.278694</ele>
        <time>2022-04-10T13:55:26.124Z</time>
      </trkpt>
      <trkpt lat="42.1559" lon="21.73673">
        <ele>432.783327</ele>
        <time>2022-04-10T13:56:09.131Z</time>
      </trkpt>
      <trkpt lat="42.15488" lon="21.73423">
        <ele>441.357941</ele>
        <time>2022-04-10T13:58:00.133Z</time>
      </trkpt>
      <trkpt lat="42.15385" lon="21.73171">
        <ele>441.410966</ele>
        <time>2022-04-10T13:59:05.121Z</time>
      </trkpt>
      <trkpt lat="42.15226" lon="21.72928">
        <ele>426.468896</ele>
        <time>2022-04-10T13:59:47.126Z</time>
      </trkpt>
      <trkpt lat="42.14979" lon="21.72796">
        <ele>415.222911</ele>
        <time>2022-04-10T14:00:27.158Z</time>
      </trkpt>
      <trkpt lat="42.14771" lon="21.72641">
        <ele>406.639512</ele>
        <time>2022-04-10T14:01:09.139Z</time>
      </trkpt>
      <trkpt lat="42.14586" lon="21.72452">
        <ele>396.444187</ele>
        <time>2022-04-10T14:01:50.126Z</time>
      </trkpt>
      <trkpt lat="42.14364" lon="21.72284">
        <ele>382.522458</ele>
        <time>2022-04-10T14:02:32.135Z</time>
      </trkpt>
      <trkpt lat="42.14179" lon="21.72063">
        <ele>371.284903</ele>
        <time>2022-04-10T14:03:29.137Z</time>
      </trkpt>
      <trkpt lat="42.14013" lon="21.72012">
        <ele>375.96711</ele>
        <time>2022-04-10T14:04:54.122Z</time>
      </trkpt>
      <trkpt lat="42.13979" lon="21.72102">
        <ele>375.96711</ele>
        <time>2022-04-10T14:14:41.397Z</time>
      </trkpt>
    </trkseg>
  </trk>
  <trk>
    <name><![CDATA[Tour d'Europe: étape 650]]></name>
    <extensions>
      <line xmlns="http://www.topografix.com/GPX/gpx_style/0/2">
        <color>008888</color>
        <width>4</width>
      </line>
    </extensions>
    <trkseg>
      <trkpt lat="42.27847" lon="22.68861">
        <ele>565.279055</ele>
        <time>2022-04-09T07:23:21.696Z</time>
      </trkpt>
      <trkpt lat="42.2792" lon="22.68934">
        <ele>569.904549</ele>
        <time>2022-04-09T07:43:54.171Z</time>
      </trkpt>
      <trkpt lat="42.28126" lon="22.68827">
        <ele>580.665991</ele>
        <time>2022-04-09T07:45:08.203Z</time>
      </trkpt>
      <trkpt lat="42.283" lon="22.687">
        <ele>581.688943</ele>
        <time>2022-04-09T07:46:12.184Z</time>
      </trkpt>
      <trkpt lat="42.28346" lon="22.6849">
        <ele>576.744081</ele>
        <time>2022-04-09T07:47:17.192Z</time>
      </trkpt>
      <trkpt lat="42.28268" lon="22.6823">
        <ele>585.600798</ele>
        <time>2022-04-09T07:48:20.167Z</time>
      </trkpt>
      <trkpt lat="42.28184" lon="22.67966">
        <ele>583.189591</ele>
        <time>2022-04-09T07:49:29.200Z</time>
      </trkpt>
      <trkpt lat="42.281" lon="22.67693">
        <ele>587.502736</ele>
        <time>2022-04-09T07:50:35.194Z</time>
      </trkpt>
      <trkpt lat="42.2802" lon="22.6744">
        <ele>591.989578</ele>
        <time>2022-04-09T07:51:39.182Z</time>
      </trkpt>
      <trkpt lat="42.28058" lon="22.67276">
        <ele>582.377195</ele>
        <time>2022-04-09T07:52:37.176Z</time>
      </trkpt>
      <trkpt lat="42.28164" lon="22.67087">
        <ele>592.61045</ele>
        <time>2022-04-09T07:53:47.187Z</time>
      </trkpt>
      <trkpt lat="42.28192" lon="22.66873">
        <ele>598.159162</ele>
        <time>2022-04-09T07:55:12.186Z</time>
      </trkpt>
      <trkpt lat="42.2814" lon="22.6659">
        <ele>601.869926</ele>
        <time>2022-04-09T07:56:31.202Z</time>
      </trkpt>
      <trkpt lat="42.28097" lon="22.66305">
        <ele>609.945651</ele>
        <time>2022-04-09T07:57:55.220Z</time>
      </trkpt>
      <trkpt lat="42.28063" lon="22.6604">
        <ele>614.987589</ele>
        <time>2022-04-09T07:59:18.191Z</time>
      </trkpt>
      <trkpt lat="42.2803" lon="22.65762">
        <ele>619.049486</ele>
        <time>2022-04-09T08:00:51.192Z</time>
      </trkpt>
      <trkpt lat="42.27988" lon="22.65496">
        <ele>625.796854</ele>
        <time>2022-04-09T08:02:20.177Z</time>
      </trkpt>
      <trkpt lat="42.27929" lon="22.65245">
        <ele>633.038782</ele>
        <time>2022-04-09T08:03:45.199Z</time>
      </trkpt>
      <trkpt lat="42.27907" lon="22.64966">
        <ele>642.121549</ele>
        <time>2022-04-09T08:05:14.202Z</time>
      </trkpt>
      <trkpt lat="42.27884" lon="22.64705">
        <ele>647.065753</ele>
        <time>2022-04-09T08:07:06.159Z</time>
      </trkpt>
      <trkpt lat="42.2772" lon="22.6453">
        <ele>648.720014</ele>
        <time>2022-04-09T08:08:29.160Z</time>
      </trkpt>
      <trkpt lat="42.27623" lon="22.64307">
        <ele>653.901383</ele>
        <time>2022-04-09T08:10:14.173Z</time>
      </trkpt>
      <trkpt lat="42.27424" lon="22.64272">
        <ele>665.341668</ele>
        <time>2022-04-09T08:12:33.160Z</time>
      </trkpt>
      <trkpt lat="42.2723" lon="22.64256">
        <ele>676.2944</ele>
        <time>2022-04-09T08:15:01.200Z</time>
      </trkpt>
      <trkpt lat="42.27099" lon="22.64103">
        <ele>687.562301</ele>
        <time>2022-04-09T08:16:51.174Z</time>
      </trkpt>
      <trkpt lat="42.27061" lon="22.63834">
        <ele>694.842249</ele>
        <time>2022-04-09T08:18:12.208Z</time>
      </trkpt>
      <trkpt lat="42.27017" lon="22.63547">
        <ele>700.35682</ele>
        <time>2022-04-09T08:19:36.176Z</time>
      </trkpt>
      <trkpt lat="42.26978" lon="22.63245">
        <ele>704.640857</ele>
        <time>2022-04-09T08:21:03.198Z</time>
      </trkpt>
      <trkpt lat="42.26943" lon="22.62981">
        <ele>714.61129</ele>
        <time>2022-04-09T08:22:57.158Z</time>
      </trkpt>
      <trkpt lat="42.26902" lon="22.62713">
        <ele>726.775736</ele>
        <time>2022-04-09T08:25:35.181Z</time>
      </trkpt>
      <trkpt lat="42.26864" lon="22.62458">
        <ele>739.470698</ele>
        <time>2022-04-09T08:28:10.172Z</time>
      </trkpt>
      <trkpt lat="42.26828" lon="22.62191">
        <ele>756.15601</ele>
        <time>2022-04-09T08:30:53.182Z</time>
      </trkpt>
      <trkpt lat="42.26792" lon="22.61937">
        <ele>767.863146</ele>
        <time>2022-04-09T08:33:27.212Z</time>
      </trkpt>
      <trkpt lat="42.26752" lon="22.61675">
        <ele>781.782434</ele>
        <time>2022-04-09T08:36:13.185Z</time>
      </trkpt>
      <trkpt lat="42.26716" lon="22.61427">
        <ele>794.202058</ele>
        <time>2022-04-09T08:38:49.183Z</time>
      </trkpt>
      <trkpt lat="42.26681" lon="22.61158">
        <ele>807.082544</ele>
        <time>2022-04-09T08:41:31.171Z</time>
      </trkpt>
      <trkpt lat="42.26644" lon="22.60894">
        <ele>821.456008</ele>
        <time>2022-04-09T08:44:21.200Z</time>
      </trkpt>
      <trkpt lat="42.26606" lon="22.60628">
        <ele>834.645664</ele>
        <time>2022-04-09T08:52:32.204Z</time>
      </trkpt>
      <trkpt lat="42.26569" lon="22.6036">
        <ele>849.904982</ele>
        <time>2022-04-09T08:55:13.180Z</time>
      </trkpt>
      <trkpt lat="42.26532" lon="22.60101">
        <ele>860.771769</ele>
        <time>2022-04-09T08:57:43.195Z</time>
      </trkpt>
      <trkpt lat="42.26493" lon="22.59834">
        <ele>872.739387</ele>
        <time>2022-04-09T09:00:24.245Z</time>
      </trkpt>
      <trkpt lat="42.26456" lon="22.59583">
        <ele>885.788977</ele>
        <time>2022-04-09T09:03:00.184Z</time>
      </trkpt>
      <trkpt lat="42.26414" lon="22.59318">
        <ele>894.443401</ele>
        <time>2022-04-09T09:05:41.181Z</time>
      </trkpt>
      <trkpt lat="42.26382" lon="22.5906">
        <ele>908.403297</ele>
        <time>2022-04-09T09:08:18.215Z</time>
      </trkpt>
      <trkpt lat="42.26343" lon="22.58797">
        <ele>925.619839</ele>
        <time>2022-04-09T09:11:00.188Z</time>
      </trkpt>
      <trkpt lat="42.26309" lon="22.5853">
        <ele>936.60458</ele>
        <time>2022-04-09T09:13:27.193Z</time>
      </trkpt>
      <trkpt lat="42.26444" lon="22.5838">
        <ele>947.517993</ele>
        <time>2022-04-09T09:15:46.185Z</time>
      </trkpt>
      <trkpt lat="42.2663" lon="22.58266">
        <ele>958.220362</ele>
        <time>2022-04-09T09:19:16.169Z</time>
      </trkpt>
      <trkpt lat="42.26682" lon="22.58028">
        <ele>968.032171</ele>
        <time>2022-04-09T09:21:44.183Z</time>
      </trkpt>
      <trkpt lat="42.2658" lon="22.57808">
        <ele>979.426947</ele>
        <time>2022-04-09T09:24:23.187Z</time>
      </trkpt>
      <trkpt lat="42.26407" lon="22.57696">
        <ele>992.384894</ele>
        <time>2022-04-09T09:26:54.179Z</time>
      </trkpt>
      <trkpt lat="42.2622" lon="22.5759">
        <ele>1004.517483</ele>
        <time>2022-04-09T09:29:40.186Z</time>
      </trkpt>
      <trkpt lat="42.26075" lon="22.57423">
        <ele>1017.788291</ele>
        <time>2022-04-09T09:32:15.197Z</time>
      </trkpt>
      <trkpt lat="42.26004" lon="22.5717">
        <ele>1027.173437</ele>
        <time>2022-04-09T09:34:39.196Z</time>
      </trkpt>
      <trkpt lat="42.26005" lon="22.56888">
        <ele>1031.804652</ele>
        <time>2022-04-09T09:36:02.204Z</time>
      </trkpt>
      <trkpt lat="42.25974" lon="22.5656">
        <ele>1018.544119</ele>
        <time>2022-04-09T09:36:46.183Z</time>
      </trkpt>
      <trkpt lat="42.25921" lon="22.56154">
        <ele>1005.57347</ele>
        <time>2022-04-09T09:37:27.196Z</time>
      </trkpt>
      <trkpt lat="42.2586" lon="22.55862">
        <ele>997.964033</ele>
        <time>2022-04-09T09:37:53.175Z</time>
      </trkpt>
      <trkpt lat="42.25782" lon="22.55561">
        <ele>992.10857</ele>
        <time>2022-04-09T09:38:48.201Z</time>
      </trkpt>
      <trkpt lat="42.25709" lon="22.55284">
        <ele>995.510885</ele>
        <time>2022-04-09T09:39:48.202Z</time>
      </trkpt>
      <trkpt lat="42.25635" lon="22.54994">
        <ele>993.33176</ele>
        <time>2022-04-09T09:40:39.223Z</time>
      </trkpt>
      <trkpt lat="42.25563" lon="22.54735">
        <ele>988.362412</ele>
        <time>2022-04-09T09:41:19.199Z</time>
      </trkpt>
      <trkpt lat="42.2548" lon="22.54404">
        <ele>978.692239</ele>
        <time>2022-04-09T09:42:01.216Z</time>
      </trkpt>
      <trkpt lat="42.25405" lon="22.54123">
        <ele>971.623826</ele>
        <time>2022-04-09T09:42:41.200Z</time>
      </trkpt>
      <trkpt lat="42.25324" lon="22.53829">
        <ele>972.275745</ele>
        <time>2022-04-09T09:43:33.171Z</time>
      </trkpt>
      <trkpt lat="42.25238" lon="22.53567">
        <ele>978.766483</ele>
        <time>2022-04-09T09:45:01.181Z</time>
      </trkpt>
      <trkpt lat="42.2515" lon="22.53331">
        <ele>985.401187</ele>
        <time>2022-04-09T09:46:42.204Z</time>
      </trkpt>
      <trkpt lat="42.25058" lon="22.53084">
        <ele>996.437896</ele>
        <time>2022-04-09T09:48:31.201Z</time>
      </trkpt>
      <trkpt lat="42.24969" lon="22.52837">
        <ele>1005.96857</ele>
        <time>2022-04-09T09:50:22.179Z</time>
      </trkpt>
      <trkpt lat="42.24861" lon="22.52582">
        <ele>1006.751255</ele>
        <time>2022-04-09T09:51:50.191Z</time>
      </trkpt>
      <trkpt lat="42.24744" lon="22.52346">
        <ele>1005.044756</ele>
        <time>2022-04-09T09:53:04.173Z</time>
      </trkpt>
      <trkpt lat="42.24601" lon="22.52097">
        <ele>997.034105</ele>
        <time>2022-04-09T09:53:59.189Z</time>
      </trkpt>
      <trkpt lat="42.24437" lon="22.51808">
        <ele>989.006985</ele>
        <time>2022-04-09T09:54:39.186Z</time>
      </trkpt>
      <trkpt lat="42.2429" lon="22.51549">
        <ele>987.612635</ele>
        <time>2022-04-09T09:55:22.186Z</time>
      </trkpt>
      <trkpt lat="42.24169" lon="22.51333">
        <ele>994.317537</ele>
        <time>2022-04-09T09:56:59.177Z</time>
      </trkpt>
      <trkpt lat="42.24037" lon="22.51125">
        <ele>1004.112711</ele>
        <time>2022-04-09T09:59:07.179Z</time>
      </trkpt>
      <trkpt lat="42.23889" lon="22.50932">
        <ele>1012.035478</ele>
        <time>2022-04-09T10:01:17.200Z</time>
      </trkpt>
      <trkpt lat="42.23765" lon="22.50731">
        <ele>1018.387876</ele>
        <time>2022-04-09T10:03:13.176Z</time>
      </trkpt>
      <trkpt lat="42.23635" lon="22.50508">
        <ele>1026.67055</ele>
        <time>2022-04-09T10:05:16.197Z</time>
      </trkpt>
      <trkpt lat="42.23539" lon="22.50281">
        <ele>1035.623931</ele>
        <time>2022-04-09T10:07:24.189Z</time>
      </trkpt>
      <trkpt lat="42.23471" lon="22.50019">
        <ele>1044.969388</ele>
        <time>2022-04-09T10:09:33.185Z</time>
      </trkpt>
      <trkpt lat="42.234" lon="22.4976">
        <ele>1049.456862</ele>
        <time>2022-04-09T10:10:55.180Z</time>
      </trkpt>
      <trkpt lat="42.23323" lon="22.4948">
        <ele>1047.58543</ele>
        <time>2022-04-09T10:12:11.185Z</time>
      </trkpt>
      <trkpt lat="42.23236" lon="22.49222">
        <ele>1046.022401</ele>
        <time>2022-04-09T10:13:29.181Z</time>
      </trkpt>
      <trkpt lat="42.23144" lon="22.48979">
        <ele>1053.267471</ele>
        <time>2022-04-09T10:14:55.194Z</time>
      </trkpt>
      <trkpt lat="42.23048" lon="22.48726">
        <ele>1062.437965</ele>
        <time>2022-04-09T10:16:31.188Z</time>
      </trkpt>
      <trkpt lat="42.22932" lon="22.48518">
        <ele>1071.890296</ele>
        <time>2022-04-09T10:18:37.195Z</time>
      </trkpt>
      <trkpt lat="42.22772" lon="22.48343">
        <ele>1082.662515</ele>
        <time>2022-04-09T10:20:52.188Z</time>
      </trkpt>
      <trkpt lat="42.22615" lon="22.48182">
        <ele>1087.939222</ele>
        <time>2022-04-09T10:22:54.181Z</time>
      </trkpt>
      <trkpt lat="42.22445" lon="22.48013">
        <ele>1094.303516</ele>
        <time>2022-04-09T10:24:41.177Z</time>
      </trkpt>
      <trkpt lat="42.22329" lon="22.47796">
        <ele>1115.641478</ele>
        <time>2022-04-09T10:26:18.190Z</time>
      </trkpt>
      <trkpt lat="42.22328" lon="22.47518">
        <ele>1115.908551</ele>
        <time>2022-04-09T10:28:10.184Z</time>
      </trkpt>
      <trkpt lat="42.22162" lon="22.47382">
        <ele>1120.669056</ele>
        <time>2022-04-09T10:35:48.179Z</time>
      </trkpt>
      <trkpt lat="42.21971" lon="22.47278">
        <ele>1136.249653</ele>
        <time>2022-04-09T10:38:14.188Z</time>
      </trkpt>
      <trkpt lat="42.21793" lon="22.47182">
        <ele>1147.941729</ele>
        <time>2022-04-09T10:40:44.194Z</time>
      </trkpt>
      <trkpt lat="42.217" lon="22.46978">
        <ele>1161.531096</ele>
        <time>2022-04-09T10:43:17.187Z</time>
      </trkpt>
      <trkpt lat="42.21814" lon="22.46759">
        <ele>1174.53491</ele>
        <time>2022-04-09T10:45:56.207Z</time>
      </trkpt>
      <trkpt lat="42.21904" lon="22.46534">
        <ele>1190.659564</ele>
        <time>2022-04-09T10:48:33.187Z</time>
      </trkpt>
      <trkpt lat="42.21912" lon="22.46267">
        <ele>1202.753172</ele>
        <time>2022-04-09T10:51:35.183Z</time>
      </trkpt>
      <trkpt lat="42.21951" lon="22.45952">
        <ele>1206.088998</ele>
        <time>2022-04-09T10:59:02.164Z</time>
      </trkpt>
      <trkpt lat="42.2214" lon="22.45754">
        <ele>1202.918835</ele>
        <time>2022-04-09T11:21:49.199Z</time>
      </trkpt>
      <trkpt lat="42.21989" lon="22.45564">
        <ele>1192.16387</ele>
        <time>2022-04-09T11:22:31.183Z</time>
      </trkpt>
      <trkpt lat="42.21831" lon="22.45293">
        <ele>1174.786349</ele>
        <time>2022-04-09T11:23:13.185Z</time>
      </trkpt>
      <trkpt lat="42.21643" lon="22.4507">
        <ele>1153.320652</ele>
        <time>2022-04-09T11:23:56.208Z</time>
      </trkpt>
      <trkpt lat="42.21894" lon="22.44959">
        <ele>1134.738588</ele>
        <time>2022-04-09T11:24:32.202Z</time>
      </trkpt>
      <trkpt lat="42.21736" lon="22.44713">
        <ele>1117.334069</ele>
        <time>2022-04-09T11:24:59.207Z</time>
      </trkpt>
      <trkpt lat="42.21796" lon="22.44488">
        <ele>1100.633268</ele>
        <time>2022-04-09T11:25:19.200Z</time>
      </trkpt>
      <trkpt lat="42.21992" lon="22.44548">
        <ele>1084.933102</ele>
        <time>2022-04-09T11:25:43.196Z</time>
      </trkpt>
      <trkpt lat="42.22091" lon="22.4477">
        <ele>1075.36748</ele>
        <time>2022-04-09T11:26:04.193Z</time>
      </trkpt>
      <trkpt lat="42.22287" lon="22.44637">
        <ele>1056.498501</ele>
        <time>2022-04-09T11:26:47.198Z</time>
      </trkpt>
      <trkpt lat="42.22178" lon="22.44253">
        <ele>1034.238556</ele>
        <time>2022-04-09T11:27:27.187Z</time>
      </trkpt>
      <trkpt lat="42.21945" lon="22.43939">
        <ele>1008.880944</ele>
        <time>2022-04-09T11:28:05.226Z</time>
      </trkpt>
      <trkpt lat="42.21812" lon="22.43686">
        <ele>985.410991</ele>
        <time>2022-04-09T11:28:36.252Z</time>
      </trkpt>
      <trkpt lat="42.21955" lon="22.43391">
        <ele>966.833976</ele>
        <time>2022-04-09T11:29:05.183Z</time>
      </trkpt>
      <trkpt lat="42.22118" lon="22.43242">
        <ele>949.779664</ele>
        <time>2022-04-09T11:29:38.193Z</time>
      </trkpt>
      <trkpt lat="42.22126" lon="22.42844">
        <ele>925.144497</ele>
        <time>2022-04-09T11:30:18.204Z</time>
      </trkpt>
      <trkpt lat="42.22322" lon="22.42691">
        <ele>905.94674</ele>
        <time>2022-04-09T11:30:46.224Z</time>
      </trkpt>
      <trkpt lat="42.22265" lon="22.42427">
        <ele>884.293821</ele>
        <time>2022-04-09T11:31:22.196Z</time>
      </trkpt>
      <trkpt lat="42.22376" lon="22.42123">
        <ele>866.134467</ele>
        <time>2022-04-09T11:32:06.200Z</time>
      </trkpt>
      <trkpt lat="42.22468" lon="22.41843">
        <ele>857.989715</ele>
        <time>2022-04-09T11:32:48.194Z</time>
      </trkpt>
      <trkpt lat="42.22478" lon="22.41542">
        <ele>856.171992</ele>
        <time>2022-04-09T11:33:36.190Z</time>
      </trkpt>
      <trkpt lat="42.2257" lon="22.41289">
        <ele>850.903697</ele>
        <time>2022-04-09T11:34:34.188Z</time>
      </trkpt>
      <trkpt lat="42.22585" lon="22.40988">
        <ele>846.806148</ele>
        <time>2022-04-09T11:35:32.187Z</time>
      </trkpt>
      <trkpt lat="42.22541" lon="22.40703">
        <ele>837.952027</ele>
        <time>2022-04-09T11:36:12.209Z</time>
      </trkpt>
      <trkpt lat="42.22532" lon="22.40405">
        <ele>832.657981</ele>
        <time>2022-04-09T11:36:57.190Z</time>
      </trkpt>
      <trkpt lat="42.22503" lon="22.40115">
        <ele>831.936763</ele>
        <time>2022-04-09T11:37:53.227Z</time>
      </trkpt>
      <trkpt lat="42.22391" lon="22.3984">
        <ele>826.212162</ele>
        <time>2022-04-09T11:39:03.194Z</time>
      </trkpt>
      <trkpt lat="42.22335" lon="22.39515">
        <ele>816.645313</ele>
        <time>2022-04-09T11:39:46.195Z</time>
      </trkpt>
      <trkpt lat="42.22444" lon="22.39242">
        <ele>818.295885</ele>
        <time>2022-04-09T11:40:45.199Z</time>
      </trkpt>
      <trkpt lat="42.22541" lon="22.38932">
        <ele>813.142945</ele>
        <time>2022-04-09T11:41:30.205Z</time>
      </trkpt>
      <trkpt lat="42.22666" lon="22.3859">
        <ele>805.367115</ele>
        <time>2022-04-09T11:42:10.203Z</time>
      </trkpt>
      <trkpt lat="42.22755" lon="22.38315">
        <ele>803.683002</ele>
        <time>2022-04-09T11:42:57.197Z</time>
      </trkpt>
      <trkpt lat="42.22877" lon="22.38076">
        <ele>794.593348</ele>
        <time>2022-04-09T11:43:44.187Z</time>
      </trkpt>
      <trkpt lat="42.22918" lon="22.37782">
        <ele>786.754611</ele>
        <time>2022-04-09T11:44:37.184Z</time>
      </trkpt>
      <trkpt lat="42.22927" lon="22.37508">
        <ele>774.950943</ele>
        <time>2022-04-09T11:45:21.184Z</time>
      </trkpt>
      <trkpt lat="42.23028" lon="22.37224">
        <ele>766.731751</ele>
        <time>2022-04-09T11:46:01.192Z</time>
      </trkpt>
      <trkpt lat="42.23063" lon="22.36922">
        <ele>764.669345</ele>
        <time>2022-04-09T11:46:43.219Z</time>
      </trkpt>
      <trkpt lat="42.23028" lon="22.36649">
        <ele>764.272889</ele>
        <time>2022-04-09T11:47:34.192Z</time>
      </trkpt>
      <trkpt lat="42.23064" lon="22.3637">
        <ele>763.075212</ele>
        <time>2022-04-09T11:48:16.181Z</time>
      </trkpt>
      <trkpt lat="42.22939" lon="22.36131">
        <ele>744.861355</ele>
        <time>2022-04-09T11:48:58.188Z</time>
      </trkpt>
      <trkpt lat="42.22731" lon="22.35958">
        <ele>736.579417</ele>
        <time>2022-04-09T11:49:48.203Z</time>
      </trkpt>
      <trkpt lat="42.22532" lon="22.35896">
        <ele>728.625972</ele>
        <time>2022-04-09T11:50:32.186Z</time>
      </trkpt>
      <trkpt lat="42.22342" lon="22.35915">
        <ele>733.537144</ele>
        <time>2022-04-09T11:51:16.199Z</time>
      </trkpt>
      <trkpt lat="42.22268" lon="22.35594">
        <ele>741.054774</ele>
        <time>2022-04-09T11:51:56.184Z</time>
      </trkpt>
      <trkpt lat="42.22024" lon="22.35551">
        <ele>722.115719</ele>
        <time>2022-04-09T11:52:38.175Z</time>
      </trkpt>
      <trkpt lat="42.21844" lon="22.35362">
        <ele>723.59082</ele>
        <time>2022-04-09T11:53:28.184Z</time>
      </trkpt>
      <trkpt lat="42.21729" lon="22.35146">
        <ele>725.407635</ele>
        <time>2022-04-09T11:54:08.174Z</time>
      </trkpt>
      <trkpt lat="42.21534" lon="22.34949">
        <ele>714.179196</ele>
        <time>2022-04-09T11:54:52.217Z</time>
      </trkpt>
      <trkpt lat="42.21419" lon="22.34747">
        <ele>726.565033</ele>
        <time>2022-04-09T11:55:56.238Z</time>
      </trkpt>
      <trkpt lat="42.21228" lon="22.34595">
        <ele>710.616326</ele>
        <time>2022-04-09T11:56:47.206Z</time>
      </trkpt>
      <trkpt lat="42.2109" lon="22.3439">
        <ele>704.483085</ele>
        <time>2022-04-09T11:57:50.197Z</time>
      </trkpt>
      <trkpt lat="42.21092" lon="22.34256">
        <ele>701.228026</ele>
        <time>2022-04-09T11:58:38.212Z</time>
      </trkpt>
      <trkpt lat="42.20989" lon="22.34064">
        <ele>695.796929</ele>
        <time>2022-04-09T11:59:42.177Z</time>
      </trkpt>
      <trkpt lat="42.2084" lon="22.33859">
        <ele>692.388078</ele>
        <time>2022-04-09T12:00:28.185Z</time>
      </trkpt>
      <trkpt lat="42.20754" lon="22.33584">
        <ele>689.939917</ele>
        <time>2022-04-09T12:01:14.187Z</time>
      </trkpt>
      <trkpt lat="42.20596" lon="22.33405">
        <ele>684.450605</ele>
        <time>2022-04-09T12:01:59.187Z</time>
      </trkpt>
      <trkpt lat="42.20403" lon="22.33321">
        <ele>681.401543</ele>
        <time>2022-04-09T12:02:41.182Z</time>
      </trkpt>
      <trkpt lat="42.20201" lon="22.33379">
        <ele>684.075253</ele>
        <time>2022-04-09T12:03:36.215Z</time>
      </trkpt>
      <trkpt lat="42.20195" lon="22.33372">
        <ele>689.937212</ele>
        <time>2022-04-09T12:05:08.206Z</time>
      </trkpt>
      <trkpt lat="42.20138" lon="22.33442">
        <ele>689.937212</ele>
        <time>2022-04-09T12:08:03.013Z</time>
      </trkpt>
    </trkseg>
  </trk>
  <trk>
    <name><![CDATA[Tour d'Europe: étape 647]]></name>
    <extensions>
      <line xmlns="http://www.topografix.com/GPX/gpx_style/0/2">
        <color>888800</color>
        <width>4</width>
      </line>
    </extensions>
    <trkseg>
      <trkpt lat="42.27188" lon="23.1409">
        <ele>596.075042</ele>
        <time>2022-04-06T07:24:12.466Z</time>
      </trkpt>
      <trkpt lat="42.27147" lon="23.13923">
        <ele>596.847422</ele>
        <time>2022-04-06T07:24:48.907Z</time>
      </trkpt>
      <trkpt lat="42.27258" lon="23.13645">
        <ele>596.345999</ele>
        <time>2022-04-06T07:25:48.897Z</time>
      </trkpt>
      <trkpt lat="42.27291" lon="23.13362">
        <ele>580.79601</ele>
        <time>2022-04-06T07:26:49.910Z</time>
      </trkpt>
      <trkpt lat="42.27351" lon="23.1307">
        <ele>566.554405</ele>
        <time>2022-04-06T07:27:55.883Z</time>
      </trkpt>
      <trkpt lat="42.27148" lon="23.13043">
        <ele>565.15658</ele>
        <time>2022-04-06T07:28:58.887Z</time>
      </trkpt>
      <trkpt lat="42.26925" lon="23.12948">
        <ele>560.267639</ele>
        <time>2022-04-06T07:29:51.889Z</time>
      </trkpt>
      <trkpt lat="42.26713" lon="23.12794">
        <ele>558.121204</ele>
        <time>2022-04-06T07:30:33.898Z</time>
      </trkpt>
      <trkpt lat="42.26613" lon="23.12562">
        <ele>549.696744</ele>
        <time>2022-04-06T07:31:35.883Z</time>
      </trkpt>
      <trkpt lat="42.26615" lon="23.12292">
        <ele>551.641017</ele>
        <time>2022-04-06T07:32:44.882Z</time>
      </trkpt>
      <trkpt lat="42.26576" lon="23.12043">
        <ele>561.780382</ele>
        <time>2022-04-06T07:34:24.903Z</time>
      </trkpt>
      <trkpt lat="42.26447" lon="23.11861">
        <ele>574.453983</ele>
        <time>2022-04-06T07:35:53.876Z</time>
      </trkpt>
      <trkpt lat="42.26495" lon="23.11862">
        <ele>587.515896</ele>
        <time>2022-04-06T07:42:25.902Z</time>
      </trkpt>
      <trkpt lat="42.26494" lon="23.11636">
        <ele>560.965848</ele>
        <time>2022-04-06T07:45:36.866Z</time>
      </trkpt>
      <trkpt lat="42.26402" lon="23.11403">
        <ele>574.755755</ele>
        <time>2022-04-06T07:50:53.875Z</time>
      </trkpt>
      <trkpt lat="42.26373" lon="23.11113">
        <ele>577.775301</ele>
        <time>2022-04-06T07:51:41.872Z</time>
      </trkpt>
      <trkpt lat="42.26247" lon="23.10879">
        <ele>560.636177</ele>
        <time>2022-04-06T07:52:27.904Z</time>
      </trkpt>
      <trkpt lat="42.26069" lon="23.10677">
        <ele>552.545591</ele>
        <time>2022-04-06T07:53:07.874Z</time>
      </trkpt>
      <trkpt lat="42.25907" lon="23.10491">
        <ele>545.590391</ele>
        <time>2022-04-06T07:53:48.875Z</time>
      </trkpt>
      <trkpt lat="42.25732" lon="23.10307">
        <ele>536.583982</ele>
        <time>2022-04-06T07:54:30.874Z</time>
      </trkpt>
      <trkpt lat="42.2554" lon="23.1016">
        <ele>531.106051</ele>
        <time>2022-04-06T07:55:21.886Z</time>
      </trkpt>
      <trkpt lat="42.25339" lon="23.10004">
        <ele>528.757164</ele>
        <time>2022-04-06T07:56:18.887Z</time>
      </trkpt>
      <trkpt lat="42.25301" lon="23.09734">
        <ele>527.059839</ele>
        <time>2022-04-06T07:57:08.880Z</time>
      </trkpt>
      <trkpt lat="42.25272" lon="23.09464">
        <ele>521.843377</ele>
        <time>2022-04-06T07:58:02.869Z</time>
      </trkpt>
      <trkpt lat="42.25271" lon="23.09142">
        <ele>528.561168</ele>
        <time>2022-04-06T07:59:09.882Z</time>
      </trkpt>
      <trkpt lat="42.25268" lon="23.08883">
        <ele>551.130488</ele>
        <time>2022-04-06T08:01:00.874Z</time>
      </trkpt>
      <trkpt lat="42.25372" lon="23.08646">
        <ele>549.221045</ele>
        <time>2022-04-06T08:02:10.869Z</time>
      </trkpt>
      <trkpt lat="42.25481" lon="23.08407">
        <ele>543.396959</ele>
        <time>2022-04-06T08:03:10.899Z</time>
      </trkpt>
      <trkpt lat="42.2564" lon="23.08229">
        <ele>545.353392</ele>
        <time>2022-04-06T08:04:26.880Z</time>
      </trkpt>
      <trkpt lat="42.25752" lon="23.07988">
        <ele>553.183347</ele>
        <time>2022-04-06T08:05:45.903Z</time>
      </trkpt>
      <trkpt lat="42.25877" lon="23.0776">
        <ele>555.210576</ele>
        <time>2022-04-06T08:07:25.901Z</time>
      </trkpt>
      <trkpt lat="42.26031" lon="23.07585">
        <ele>553.433908</ele>
        <time>2022-04-06T08:08:40.904Z</time>
      </trkpt>
      <trkpt lat="42.26195" lon="23.07404">
        <ele>552.802651</ele>
        <time>2022-04-06T08:09:45.903Z</time>
      </trkpt>
      <trkpt lat="42.26355" lon="23.07221">
        <ele>560.361524</ele>
        <time>2022-04-06T08:11:17.900Z</time>
      </trkpt>
      <trkpt lat="42.26542" lon="23.07143">
        <ele>564.887333</ele>
        <time>2022-04-06T08:13:14.911Z</time>
      </trkpt>
      <trkpt lat="42.26601" lon="23.06917">
        <ele>574.753948</ele>
        <time>2022-04-06T08:15:18.911Z</time>
      </trkpt>
      <trkpt lat="42.26671" lon="23.06663">
        <ele>572.90473</ele>
        <time>2022-04-06T08:16:13.904Z</time>
      </trkpt>
      <trkpt lat="42.26756" lon="23.06299">
        <ele>549.013184</ele>
        <time>2022-04-06T08:16:53.899Z</time>
      </trkpt>
      <trkpt lat="42.26777" lon="23.05957">
        <ele>527.490981</ele>
        <time>2022-04-06T08:17:22.903Z</time>
      </trkpt>
      <trkpt lat="42.26816" lon="23.05696">
        <ele>513.398543</ele>
        <time>2022-04-06T08:17:42.922Z</time>
      </trkpt>
      <trkpt lat="42.26864" lon="23.05322">
        <ele>507.417991</ele>
        <time>2022-04-06T08:18:19.905Z</time>
      </trkpt>
      <trkpt lat="42.26911" lon="23.05023">
        <ele>514.701079</ele>
        <time>2022-04-06T08:19:13.898Z</time>
      </trkpt>
      <trkpt lat="42.26957" lon="23.04746">
        <ele>519.95082</ele>
        <time>2022-04-06T08:20:14.900Z</time>
      </trkpt>
      <trkpt lat="42.27009" lon="23.04471">
        <ele>520.81615</ele>
        <time>2022-04-06T08:21:14.907Z</time>
      </trkpt>
      <trkpt lat="42.27061" lon="23.04188">
        <ele>522.905275</ele>
        <time>2022-04-06T08:22:14.915Z</time>
      </trkpt>
      <trkpt lat="42.27113" lon="23.03894">
        <ele>525.010977</ele>
        <time>2022-04-06T08:23:17.894Z</time>
      </trkpt>
      <trkpt lat="42.27157" lon="23.03607">
        <ele>526.267215</ele>
        <time>2022-04-06T08:24:17.892Z</time>
      </trkpt>
      <trkpt lat="42.27201" lon="23.03335">
        <ele>528.806541</ele>
        <time>2022-04-06T08:25:32.910Z</time>
      </trkpt>
      <trkpt lat="42.27231" lon="23.03071">
        <ele>535.196293</ele>
        <time>2022-04-06T08:26:58.886Z</time>
      </trkpt>
      <trkpt lat="42.27272" lon="23.02793">
        <ele>538.085156</ele>
        <time>2022-04-06T08:28:11.932Z</time>
      </trkpt>
      <trkpt lat="42.27322" lon="23.02466">
        <ele>535.718298</ele>
        <time>2022-04-06T08:29:10.915Z</time>
      </trkpt>
      <trkpt lat="42.273" lon="23.02121">
        <ele>539.224653</ele>
        <time>2022-04-06T08:30:13.915Z</time>
      </trkpt>
      <trkpt lat="42.2732" lon="23.01848">
        <ele>539.966621</ele>
        <time>2022-04-06T08:31:13.908Z</time>
      </trkpt>
      <trkpt lat="42.27352" lon="23.01565">
        <ele>541.764139</ele>
        <time>2022-04-06T08:32:13.947Z</time>
      </trkpt>
      <trkpt lat="42.27375" lon="23.01291">
        <ele>551.196976</ele>
        <time>2022-04-06T08:33:51.910Z</time>
      </trkpt>
      <trkpt lat="42.2734" lon="23.01032">
        <ele>556.862882</ele>
        <time>2022-04-06T08:35:31.917Z</time>
      </trkpt>
      <trkpt lat="42.27358" lon="23.00749">
        <ele>557.560865</ele>
        <time>2022-04-06T08:36:58.906Z</time>
      </trkpt>
      <trkpt lat="42.27426" lon="23.00468">
        <ele>557.127243</ele>
        <time>2022-04-06T08:37:59.932Z</time>
      </trkpt>
      <trkpt lat="42.27467" lon="23.00183">
        <ele>559.733343</ele>
        <time>2022-04-06T08:38:59.906Z</time>
      </trkpt>
      <trkpt lat="42.27481" lon="22.99901">
        <ele>563.254021</ele>
        <time>2022-04-06T08:40:15.908Z</time>
      </trkpt>
      <trkpt lat="42.27437" lon="22.99631">
        <ele>569.042966</ele>
        <time>2022-04-06T08:41:44.892Z</time>
      </trkpt>
      <trkpt lat="42.27395" lon="22.99363">
        <ele>576.102394</ele>
        <time>2022-04-06T08:43:23.901Z</time>
      </trkpt>
      <trkpt lat="42.27361" lon="22.99105">
        <ele>581.551704</ele>
        <time>2022-04-06T08:45:07.891Z</time>
      </trkpt>
      <trkpt lat="42.2736" lon="22.9883">
        <ele>588.33592</ele>
        <time>2022-04-06T08:46:40.939Z</time>
      </trkpt>
      <trkpt lat="42.27364" lon="22.98554">
        <ele>581.385818</ele>
        <time>2022-04-06T08:47:41.898Z</time>
      </trkpt>
      <trkpt lat="42.27368" lon="22.98255">
        <ele>581.905115</ele>
        <time>2022-04-06T08:48:42.901Z</time>
      </trkpt>
      <trkpt lat="42.27372" lon="22.97966">
        <ele>585.847508</ele>
        <time>2022-04-06T08:49:51.894Z</time>
      </trkpt>
      <trkpt lat="42.27371" lon="22.97687">
        <ele>592.62667</ele>
        <time>2022-04-06T08:51:09.898Z</time>
      </trkpt>
      <trkpt lat="42.27342" lon="22.97421">
        <ele>600.036586</ele>
        <time>2022-04-06T08:52:43.894Z</time>
      </trkpt>
      <trkpt lat="42.27317" lon="22.9716">
        <ele>603.469003</ele>
        <time>2022-04-06T08:54:24.899Z</time>
      </trkpt>
      <trkpt lat="42.27289" lon="22.96902">
        <ele>611.381953</ele>
        <time>2022-04-06T08:56:07.896Z</time>
      </trkpt>
      <trkpt lat="42.27223" lon="22.96642">
        <ele>621.013546</ele>
        <time>2022-04-06T08:58:08.893Z</time>
      </trkpt>
      <trkpt lat="42.27085" lon="22.96464">
        <ele>630.761942</ele>
        <time>2022-04-06T09:00:05.932Z</time>
      </trkpt>
      <trkpt lat="42.27006" lon="22.96234">
        <ele>644.223203</ele>
        <time>2022-04-06T09:02:16.900Z</time>
      </trkpt>
      <trkpt lat="42.27013" lon="22.95991">
        <ele>661.934327</ele>
        <time>2022-04-06T09:04:46.900Z</time>
      </trkpt>
      <trkpt lat="42.26856" lon="22.95875">
        <ele>670.646427</ele>
        <time>2022-04-06T09:06:49.899Z</time>
      </trkpt>
      <trkpt lat="42.26728" lon="22.95683">
        <ele>684.440533</ele>
        <time>2022-04-06T09:11:38.020Z</time>
      </trkpt>
      <trkpt lat="42.26774" lon="22.95462">
        <ele>696.501366</ele>
        <time>2022-04-06T09:14:21.878Z</time>
      </trkpt>
      <trkpt lat="42.26807" lon="22.95205">
        <ele>703.229485</ele>
        <time>2022-04-06T09:16:53.883Z</time>
      </trkpt>
      <trkpt lat="42.26753" lon="22.94944">
        <ele>708.622955</ele>
        <time>2022-04-06T09:18:19.896Z</time>
      </trkpt>
      <trkpt lat="42.26814" lon="22.94663">
        <ele>703.344176</ele>
        <time>2022-04-06T09:18:59.875Z</time>
      </trkpt>
      <trkpt lat="42.26965" lon="22.9435">
        <ele>686.065017</ele>
        <time>2022-04-06T09:19:39.872Z</time>
      </trkpt>
      <trkpt lat="42.27172" lon="22.94279">
        <ele>672.400237</ele>
        <time>2022-04-06T09:20:00.904Z</time>
      </trkpt>
      <trkpt lat="42.27381" lon="22.9428">
        <ele>656.564648</ele>
        <time>2022-04-06T09:20:22.877Z</time>
      </trkpt>
      <trkpt lat="42.27538" lon="22.94128">
        <ele>637.278478</ele>
        <time>2022-04-06T09:20:43.891Z</time>
      </trkpt>
      <trkpt lat="42.27587" lon="22.93807">
        <ele>621.338947</ele>
        <time>2022-04-06T09:21:05.874Z</time>
      </trkpt>
      <trkpt lat="42.2759" lon="22.93529">
        <ele>611.298603</ele>
        <time>2022-04-06T09:21:26.874Z</time>
      </trkpt>
      <trkpt lat="42.27515" lon="22.93282">
        <ele>601.382313</ele>
        <time>2022-04-06T09:21:47.884Z</time>
      </trkpt>
      <trkpt lat="42.27388" lon="22.93043">
        <ele>593.978592</ele>
        <time>2022-04-06T09:22:07.891Z</time>
      </trkpt>
      <trkpt lat="42.27272" lon="22.92784">
        <ele>580.384805</ele>
        <time>2022-04-06T09:22:27.879Z</time>
      </trkpt>
      <trkpt lat="42.2714" lon="22.9258">
        <ele>564.525854</ele>
        <time>2022-04-06T09:22:47.890Z</time>
      </trkpt>
      <trkpt lat="42.2693" lon="22.92587">
        <ele>547.402952</ele>
        <time>2022-04-06T09:23:08.878Z</time>
      </trkpt>
      <trkpt lat="42.26712" lon="22.92534">
        <ele>535.28417</ele>
        <time>2022-04-06T09:23:31.878Z</time>
      </trkpt>
      <trkpt lat="42.26541" lon="22.92292">
        <ele>532.108616</ele>
        <time>2022-04-06T09:24:08.886Z</time>
      </trkpt>
      <trkpt lat="42.26429" lon="22.91993">
        <ele>527.766212</ele>
        <time>2022-04-06T09:24:48.878Z</time>
      </trkpt>
      <trkpt lat="42.26185" lon="22.91781">
        <ele>521.298207</ele>
        <time>2022-04-06T09:25:28.868Z</time>
      </trkpt>
      <trkpt lat="42.25969" lon="22.91658">
        <ele>517.708367</ele>
        <time>2022-04-06T09:26:14.877Z</time>
      </trkpt>
      <trkpt lat="42.25744" lon="22.91555">
        <ele>513.531514</ele>
        <time>2022-04-06T09:27:09.870Z</time>
      </trkpt>
      <trkpt lat="42.25517" lon="22.91387">
        <ele>510.016664</ele>
        <time>2022-04-06T09:27:49.880Z</time>
      </trkpt>
      <trkpt lat="42.25273" lon="22.91135">
        <ele>505.592312</ele>
        <time>2022-04-06T09:28:29.902Z</time>
      </trkpt>
      <trkpt lat="42.25127" lon="22.90828">
        <ele>500.131858</ele>
        <time>2022-04-06T09:29:09.898Z</time>
      </trkpt>
      <trkpt lat="42.25018" lon="22.90531">
        <ele>497.418935</ele>
        <time>2022-04-06T09:29:49.902Z</time>
      </trkpt>
      <trkpt lat="42.25016" lon="22.90201">
        <ele>495.838392</ele>
        <time>2022-04-06T09:30:29.909Z</time>
      </trkpt>
      <trkpt lat="42.2495" lon="22.89935">
        <ele>498.505279</ele>
        <time>2022-04-06T09:31:59.947Z</time>
      </trkpt>
      <trkpt lat="42.24829" lon="22.89724">
        <ele>506.503858</ele>
        <time>2022-04-06T09:33:22.896Z</time>
      </trkpt>
      <trkpt lat="42.24815" lon="22.8946">
        <ele>513.128465</ele>
        <time>2022-04-06T09:34:42.893Z</time>
      </trkpt>
      <trkpt lat="42.24924" lon="22.89204">
        <ele>512.407201</ele>
        <time>2022-04-06T09:35:45.913Z</time>
      </trkpt>
      <trkpt lat="42.25019" lon="22.88927">
        <ele>501.892458</ele>
        <time>2022-04-06T09:36:39.892Z</time>
      </trkpt>
      <trkpt lat="42.25182" lon="22.88713">
        <ele>493.870412</ele>
        <time>2022-04-06T09:37:22.900Z</time>
      </trkpt>
      <trkpt lat="42.25371" lon="22.88613">
        <ele>494.797531</ele>
        <time>2022-04-06T09:38:21.911Z</time>
      </trkpt>
      <trkpt lat="42.25593" lon="22.8854">
        <ele>493.714358</ele>
        <time>2022-04-06T09:39:19.911Z</time>
      </trkpt>
      <trkpt lat="42.25699" lon="22.88309">
        <ele>488.892531</ele>
        <time>2022-04-06T09:40:16.918Z</time>
      </trkpt>
      <trkpt lat="42.25683" lon="22.87998">
        <ele>484.994375</ele>
        <time>2022-04-06T09:41:16.890Z</time>
      </trkpt>
      <trkpt lat="42.25675" lon="22.87712">
        <ele>487.897903</ele>
        <time>2022-04-06T09:42:19.894Z</time>
      </trkpt>
      <trkpt lat="42.25667" lon="22.87414">
        <ele>492.905275</ele>
        <time>2022-04-06T09:43:19.909Z</time>
      </trkpt>
      <trkpt lat="42.25684" lon="22.87089">
        <ele>486.918879</ele>
        <time>2022-04-06T09:44:18.903Z</time>
      </trkpt>
      <trkpt lat="42.25714" lon="22.86768">
        <ele>484.230081</ele>
        <time>2022-04-06T09:45:14.900Z</time>
      </trkpt>
      <trkpt lat="42.2574" lon="22.86503">
        <ele>485.70053</ele>
        <time>2022-04-06T09:45:56.895Z</time>
      </trkpt>
      <trkpt lat="42.25769" lon="22.86199">
        <ele>486.579642</ele>
        <time>2022-04-06T09:46:53.902Z</time>
      </trkpt>
      <trkpt lat="42.25794" lon="22.85931">
        <ele>489.444651</ele>
        <time>2022-04-06T09:47:58.908Z</time>
      </trkpt>
      <trkpt lat="42.25781" lon="22.8568">
        <ele>493.81589</ele>
        <time>2022-04-06T10:10:47.891Z</time>
      </trkpt>
      <trkpt lat="42.25711" lon="22.85414">
        <ele>494.922763</ele>
        <time>2022-04-06T10:12:07.894Z</time>
      </trkpt>
      <trkpt lat="42.2555" lon="22.85304">
        <ele>497.398257</ele>
        <time>2022-04-06T10:15:53.949Z</time>
      </trkpt>
      <trkpt lat="42.2549" lon="22.85032">
        <ele>506.138004</ele>
        <time>2022-04-06T10:16:50.876Z</time>
      </trkpt>
      <trkpt lat="42.25516" lon="22.84762">
        <ele>509.881048</ele>
        <time>2022-04-06T10:18:01.885Z</time>
      </trkpt>
      <trkpt lat="42.25612" lon="22.84489">
        <ele>501.956691</ele>
        <time>2022-04-06T10:19:02.864Z</time>
      </trkpt>
      <trkpt lat="42.2573" lon="22.84239">
        <ele>498.531361</ele>
        <time>2022-04-06T10:19:55.925Z</time>
      </trkpt>
      <trkpt lat="42.25797" lon="22.83953">
        <ele>504.179335</ele>
        <time>2022-04-06T10:20:55.880Z</time>
      </trkpt>
      <trkpt lat="42.25882" lon="22.8371">
        <ele>502.307819</ele>
        <time>2022-04-06T10:21:38.872Z</time>
      </trkpt>
      <trkpt lat="42.2597" lon="22.83455">
        <ele>496.721209</ele>
        <time>2022-04-06T10:22:21.876Z</time>
      </trkpt>
      <trkpt lat="42.26063" lon="22.83185">
        <ele>498.145164</ele>
        <time>2022-04-06T10:23:20.865Z</time>
      </trkpt>
      <trkpt lat="42.26139" lon="22.82904">
        <ele>502.98818</ele>
        <time>2022-04-06T10:24:20.874Z</time>
      </trkpt>
      <trkpt lat="42.2621" lon="22.82635">
        <ele>502.744397</ele>
        <time>2022-04-06T10:25:20.875Z</time>
      </trkpt>
      <trkpt lat="42.26282" lon="22.82355">
        <ele>503.067129</ele>
        <time>2022-04-06T10:26:20.872Z</time>
      </trkpt>
      <trkpt lat="42.26357" lon="22.82069">
        <ele>501.738955</ele>
        <time>2022-04-06T10:27:14.870Z</time>
      </trkpt>
      <trkpt lat="42.26429" lon="22.8179">
        <ele>502.381132</ele>
        <time>2022-04-06T10:28:04.873Z</time>
      </trkpt>
      <trkpt lat="42.26509" lon="22.81479">
        <ele>504.558942</ele>
        <time>2022-04-06T10:29:04.877Z</time>
      </trkpt>
      <trkpt lat="42.26585" lon="22.81177">
        <ele>506.25847</ele>
        <time>2022-04-06T10:30:04.867Z</time>
      </trkpt>
      <trkpt lat="42.26652" lon="22.8091">
        <ele>505.863853</ele>
        <time>2022-04-06T10:30:49.874Z</time>
      </trkpt>
      <trkpt lat="42.26587" lon="22.80659">
        <ele>509.163233</ele>
        <time>2022-04-06T10:31:48.875Z</time>
      </trkpt>
      <trkpt lat="42.26413" lon="22.80488">
        <ele>508.715851</ele>
        <time>2022-04-06T10:32:53.872Z</time>
      </trkpt>
      <trkpt lat="42.26248" lon="22.80313">
        <ele>511.8935</ele>
        <time>2022-04-06T10:34:12.883Z</time>
      </trkpt>
      <trkpt lat="42.2609" lon="22.80143">
        <ele>521.871406</ele>
        <time>2022-04-06T10:35:43.868Z</time>
      </trkpt>
      <trkpt lat="42.25932" lon="22.79971">
        <ele>522.87878</ele>
        <time>2022-04-06T10:37:06.869Z</time>
      </trkpt>
      <trkpt lat="42.25778" lon="22.79765">
        <ele>526.060407</ele>
        <time>2022-04-06T10:38:32.871Z</time>
      </trkpt>
      <trkpt lat="42.25631" lon="22.79567">
        <ele>530.522024</ele>
        <time>2022-04-06T10:39:51.874Z</time>
      </trkpt>
      <trkpt lat="42.25486" lon="22.79375">
        <ele>535.260593</ele>
        <time>2022-04-06T10:41:20.880Z</time>
      </trkpt>
      <trkpt lat="42.25347" lon="22.79187">
        <ele>539.664055</ele>
        <time>2022-04-06T10:42:53.892Z</time>
      </trkpt>
      <trkpt lat="42.25213" lon="22.78996">
        <ele>549.000199</ele>
        <time>2022-04-06T10:44:49.867Z</time>
      </trkpt>
      <trkpt lat="42.25059" lon="22.78812">
        <ele>553.503974</ele>
        <time>2022-04-06T10:46:35.867Z</time>
      </trkpt>
      <trkpt lat="42.24861" lon="22.78622">
        <ele>555.028238</ele>
        <time>2022-04-06T10:47:45.894Z</time>
      </trkpt>
      <trkpt lat="42.24759" lon="22.78384">
        <ele>555.452579</ele>
        <time>2022-04-06T10:48:48.877Z</time>
      </trkpt>
      <trkpt lat="42.24641" lon="22.78147">
        <ele>559.186176</ele>
        <time>2022-04-06T10:49:59.871Z</time>
      </trkpt>
      <trkpt lat="42.24558" lon="22.77895">
        <ele>565.134438</ele>
        <time>2022-04-06T10:51:23.896Z</time>
      </trkpt>
      <trkpt lat="42.2445" lon="22.77678">
        <ele>575.94194</ele>
        <time>2022-04-06T10:53:17.878Z</time>
      </trkpt>
      <trkpt lat="42.24383" lon="22.77416">
        <ele>583.353498</ele>
        <time>2022-04-06T10:54:56.888Z</time>
      </trkpt>
      <trkpt lat="42.24349" lon="22.77162">
        <ele>581.440713</ele>
        <time>2022-04-06T10:55:58.871Z</time>
      </trkpt>
      <trkpt lat="42.24477" lon="22.76947">
        <ele>588.705411</ele>
        <time>2022-04-06T10:57:26.893Z</time>
      </trkpt>
      <trkpt lat="42.24588" lon="22.76734">
        <ele>604.19886</ele>
        <time>2022-04-06T11:00:01.873Z</time>
      </trkpt>
      <trkpt lat="42.24707" lon="22.76522">
        <ele>610.451165</ele>
        <time>2022-04-06T11:02:17.866Z</time>
      </trkpt>
      <trkpt lat="42.24876" lon="22.76257">
        <ele>601.007311</ele>
        <time>2022-04-06T11:03:09.864Z</time>
      </trkpt>
      <trkpt lat="42.25043" lon="22.76108">
        <ele>607.863606</ele>
        <time>2022-04-06T11:04:32.863Z</time>
      </trkpt>
      <trkpt lat="42.25115" lon="22.75866">
        <ele>617.906413</ele>
        <time>2022-04-06T11:06:16.870Z</time>
      </trkpt>
      <trkpt lat="42.25181" lon="22.75594">
        <ele>617.483047</ele>
        <time>2022-04-06T11:07:32.887Z</time>
      </trkpt>
      <trkpt lat="42.25337" lon="22.75364">
        <ele>600.435958</ele>
        <time>2022-04-06T11:07:58.870Z</time>
      </trkpt>
      <trkpt lat="42.25556" lon="22.75187">
        <ele>589.205279</ele>
        <time>2022-04-06T11:08:22.863Z</time>
      </trkpt>
      <trkpt lat="42.2561" lon="22.74946">
        <ele>594.959352</ele>
        <time>2022-04-06T11:09:40.864Z</time>
      </trkpt>
      <trkpt lat="42.25473" lon="22.74686">
        <ele>592.363277</ele>
        <time>2022-04-06T11:10:25.875Z</time>
      </trkpt>
      <trkpt lat="42.25468" lon="22.74423">
        <ele>592.003151</ele>
        <time>2022-04-06T11:11:16.864Z</time>
      </trkpt>
      <trkpt lat="42.25662" lon="22.74369">
        <ele>594.849862</ele>
        <time>2022-04-06T11:12:06.863Z</time>
      </trkpt>
      <trkpt lat="42.25847" lon="22.74331">
        <ele>598.931171</ele>
        <time>2022-04-06T11:13:26.868Z</time>
      </trkpt>
      <trkpt lat="42.26014" lon="22.74144">
        <ele>597.219117</ele>
        <time>2022-04-06T11:14:44.868Z</time>
      </trkpt>
      <trkpt lat="42.26078" lon="22.73848">
        <ele>585.860639</ele>
        <time>2022-04-06T11:15:27.875Z</time>
      </trkpt>
      <trkpt lat="42.26184" lon="22.73507">
        <ele>578.228168</ele>
        <time>2022-04-06T11:16:07.873Z</time>
      </trkpt>
      <trkpt lat="42.2635" lon="22.73285">
        <ele>575.310544</ele>
        <time>2022-04-06T11:17:04.882Z</time>
      </trkpt>
      <trkpt lat="42.2647" lon="22.73049">
        <ele>576.938104</ele>
        <time>2022-04-06T11:18:05.874Z</time>
      </trkpt>
      <trkpt lat="42.2655" lon="22.72756">
        <ele>577.643176</ele>
        <time>2022-04-06T11:19:08.859Z</time>
      </trkpt>
      <trkpt lat="42.26624" lon="22.72484">
        <ele>580.076781</ele>
        <time>2022-04-06T11:20:10.868Z</time>
      </trkpt>
      <trkpt lat="42.26707" lon="22.72238">
        <ele>584.498162</ele>
        <time>2022-04-06T11:21:13.877Z</time>
      </trkpt>
      <trkpt lat="42.2681" lon="22.71993">
        <ele>584.668873</ele>
        <time>2022-04-06T11:22:15.870Z</time>
      </trkpt>
      <trkpt lat="42.26941" lon="22.71715">
        <ele>579.393873</ele>
        <time>2022-04-06T11:23:00.860Z</time>
      </trkpt>
      <trkpt lat="42.2706" lon="22.71427">
        <ele>580.578893</ele>
        <time>2022-04-06T11:24:03.874Z</time>
      </trkpt>
      <trkpt lat="42.27198" lon="22.71185">
        <ele>580.036367</ele>
        <time>2022-04-06T11:25:03.875Z</time>
      </trkpt>
      <trkpt lat="42.2738" lon="22.71106">
        <ele>582.776847</ele>
        <time>2022-04-06T11:26:43.868Z</time>
      </trkpt>
      <trkpt lat="42.27562" lon="22.71013">
        <ele>596.958749</ele>
        <time>2022-04-06T11:28:49.858Z</time>
      </trkpt>
      <trkpt lat="42.27736" lon="22.70903">
        <ele>611.836124</ele>
        <time>2022-04-06T11:31:04.861Z</time>
      </trkpt>
      <trkpt lat="42.27885" lon="22.70658">
        <ele>606.043779</ele>
        <time>2022-04-06T11:32:03.872Z</time>
      </trkpt>
      <trkpt lat="42.27921" lon="22.70365">
        <ele>593.30289</ele>
        <time>2022-04-06T11:32:58.871Z</time>
      </trkpt>
      <trkpt lat="42.28021" lon="22.70128">
        <ele>592.901813</ele>
        <time>2022-04-06T11:34:11.877Z</time>
      </trkpt>
      <trkpt lat="42.28187" lon="22.69941">
        <ele>585.417043</ele>
        <time>2022-04-06T11:34:57.866Z</time>
      </trkpt>
      <trkpt lat="42.28239" lon="22.69728">
        <ele>576.841332</ele>
        <time>2022-04-06T11:36:01.887Z</time>
      </trkpt>
      <trkpt lat="42.28114" lon="22.69488">
        <ele>583.386716</ele>
        <time>2022-04-06T11:37:26.859Z</time>
      </trkpt>
      <trkpt lat="42.27987" lon="22.69248">
        <ele>588.55405</ele>
        <time>2022-04-06T11:38:31.867Z</time>
      </trkpt>
      <trkpt lat="42.27933" lon="22.68985">
        <ele>586.938953</ele>
        <time>2022-04-06T11:39:36.875Z</time>
      </trkpt>
      <trkpt lat="42.27888" lon="22.68864">
        <ele>586.938953</ele>
        <time>2022-04-06T11:41:20.832Z</time>
      </trkpt>
    </trkseg>
  </trk>
  <trk>
    <name><![CDATA[Tour d'Europe: étape 646]]></name>
    <extensions>
      <line xmlns="http://www.topografix.com/GPX/gpx_style/0/2">
        <color>880088</color>
        <width>4</width>
      </line>
    </extensions>
    <trkseg>
      <trkpt lat="42.60275" lon="23.02981">
        <ele>765.480992</ele>
        <time>2022-04-05T07:02:01.309Z</time>
      </trkpt>
      <trkpt lat="42.602" lon="23.02946">
        <ele>763.704977</ele>
        <time>2022-04-05T07:02:41.201Z</time>
      </trkpt>
      <trkpt lat="42.60053" lon="23.0284">
        <ele>742.623255</ele>
        <time>2022-04-05T07:05:02.206Z</time>
      </trkpt>
      <trkpt lat="42.59883" lon="23.02671">
        <ele>746.048776</ele>
        <time>2022-04-05T07:06:03.195Z</time>
      </trkpt>
      <trkpt lat="42.59709" lon="23.02513">
        <ele>740.75361</ele>
        <time>2022-04-05T07:07:12.197Z</time>
      </trkpt>
      <trkpt lat="42.59706" lon="23.02292">
        <ele>741.778197</ele>
        <time>2022-04-05T07:08:14.223Z</time>
      </trkpt>
      <trkpt lat="42.59706" lon="23.01999">
        <ele>740.576248</ele>
        <time>2022-04-05T07:09:21.192Z</time>
      </trkpt>
      <trkpt lat="42.59662" lon="23.01751">
        <ele>752.444392</ele>
        <time>2022-04-05T07:11:47.219Z</time>
      </trkpt>
      <trkpt lat="42.59574" lon="23.01495">
        <ele>754.433664</ele>
        <time>2022-04-05T07:28:07.233Z</time>
      </trkpt>
      <trkpt lat="42.59476" lon="23.01238">
        <ele>740.466612</ele>
        <time>2022-04-05T07:29:17.219Z</time>
      </trkpt>
      <trkpt lat="42.59353" lon="23.00936">
        <ele>728.317102</ele>
        <time>2022-04-05T07:31:06.262Z</time>
      </trkpt>
      <trkpt lat="42.59362" lon="23.0065">
        <ele>717.3511</ele>
        <time>2022-04-05T07:31:58.231Z</time>
      </trkpt>
      <trkpt lat="42.59267" lon="23.0048">
        <ele>721.535512</ele>
        <time>2022-04-05T07:33:03.206Z</time>
      </trkpt>
      <trkpt lat="42.5927" lon="23.00195">
        <ele>734.138873</ele>
        <time>2022-04-05T07:34:15.214Z</time>
      </trkpt>
      <trkpt lat="42.59319" lon="22.99932">
        <ele>735.673732</ele>
        <time>2022-04-05T07:35:17.224Z</time>
      </trkpt>
      <trkpt lat="42.59412" lon="22.99682">
        <ele>736.982753</ele>
        <time>2022-04-05T07:36:33.261Z</time>
      </trkpt>
      <trkpt lat="42.59561" lon="22.9949">
        <ele>749.34924</ele>
        <time>2022-04-05T07:38:07.219Z</time>
      </trkpt>
      <trkpt lat="42.59583" lon="22.99192">
        <ele>740.577977</ele>
        <time>2022-04-05T07:39:10.215Z</time>
      </trkpt>
      <trkpt lat="42.59522" lon="22.98879">
        <ele>732.886055</ele>
        <time>2022-04-05T07:39:37.222Z</time>
      </trkpt>
      <trkpt lat="42.59467" lon="22.9856">
        <ele>731.834656</ele>
        <time>2022-04-05T07:40:11.221Z</time>
      </trkpt>
      <trkpt lat="42.59414" lon="22.98275">
        <ele>739.247973</ele>
        <time>2022-04-05T07:41:24.210Z</time>
      </trkpt>
      <trkpt lat="42.59365" lon="22.98004">
        <ele>747.326276</ele>
        <time>2022-04-05T07:43:01.230Z</time>
      </trkpt>
      <trkpt lat="42.59277" lon="22.97763">
        <ele>757.660361</ele>
        <time>2022-04-05T07:44:44.225Z</time>
      </trkpt>
      <trkpt lat="42.59174" lon="22.97533">
        <ele>762.942277</ele>
        <time>2022-04-05T07:46:13.238Z</time>
      </trkpt>
      <trkpt lat="42.59064" lon="22.97291">
        <ele>765.625504</ele>
        <time>2022-04-05T07:47:32.245Z</time>
      </trkpt>
      <trkpt lat="42.58977" lon="22.97044">
        <ele>773.111791</ele>
        <time>2022-04-05T07:49:02.222Z</time>
      </trkpt>
      <trkpt lat="42.58908" lon="22.96795">
        <ele>783.457992</ele>
        <time>2022-04-05T07:50:48.205Z</time>
      </trkpt>
      <trkpt lat="42.58833" lon="22.96532">
        <ele>784.33948</ele>
        <time>2022-04-05T07:52:00.237Z</time>
      </trkpt>
      <trkpt lat="42.58686" lon="22.96268">
        <ele>784.043228</ele>
        <time>2022-04-05T07:53:02.206Z</time>
      </trkpt>
      <trkpt lat="42.58513" lon="22.96053">
        <ele>781.774896</ele>
        <time>2022-04-05T07:53:59.205Z</time>
      </trkpt>
      <trkpt lat="42.58333" lon="22.95924">
        <ele>784.607978</ele>
        <time>2022-04-05T07:54:59.206Z</time>
      </trkpt>
      <trkpt lat="42.58141" lon="22.95977">
        <ele>800.037686</ele>
        <time>2022-04-05T07:56:01.200Z</time>
      </trkpt>
      <trkpt lat="42.57946" lon="22.95975">
        <ele>792.07273</ele>
        <time>2022-04-05T07:57:06.228Z</time>
      </trkpt>
      <trkpt lat="42.57817" lon="22.95764">
        <ele>797.846376</ele>
        <time>2022-04-05T07:58:18.227Z</time>
      </trkpt>
      <trkpt lat="42.57645" lon="22.95601">
        <ele>793.543839</ele>
        <time>2022-04-05T07:59:12.233Z</time>
      </trkpt>
      <trkpt lat="42.57411" lon="22.95656">
        <ele>779.704665</ele>
        <time>2022-04-05T07:59:41.231Z</time>
      </trkpt>
      <trkpt lat="42.57166" lon="22.95787">
        <ele>771.924048</ele>
        <time>2022-04-05T08:00:15.228Z</time>
      </trkpt>
      <trkpt lat="42.56966" lon="22.95914">
        <ele>771.35007</ele>
        <time>2022-04-05T08:00:55.221Z</time>
      </trkpt>
      <trkpt lat="42.56793" lon="22.9604">
        <ele>771.646333</ele>
        <time>2022-04-05T08:01:35.223Z</time>
      </trkpt>
      <trkpt lat="42.56601" lon="22.96187">
        <ele>774.832301</ele>
        <time>2022-04-05T08:02:38.214Z</time>
      </trkpt>
      <trkpt lat="42.56417" lon="22.96306">
        <ele>778.061717</ele>
        <time>2022-04-05T08:03:38.230Z</time>
      </trkpt>
      <trkpt lat="42.56206" lon="22.96364">
        <ele>782.370744</ele>
        <time>2022-04-05T08:04:57.235Z</time>
      </trkpt>
      <trkpt lat="42.56006" lon="22.96414">
        <ele>783.663697</ele>
        <time>2022-04-05T08:06:02.221Z</time>
      </trkpt>
      <trkpt lat="42.5576" lon="22.96473">
        <ele>775.530906</ele>
        <time>2022-04-05T08:06:42.220Z</time>
      </trkpt>
      <trkpt lat="42.55422" lon="22.96528">
        <ele>763.997756</ele>
        <time>2022-04-05T08:07:22.220Z</time>
      </trkpt>
      <trkpt lat="42.5513" lon="22.96567">
        <ele>760.617043</ele>
        <time>2022-04-05T08:08:01.221Z</time>
      </trkpt>
      <trkpt lat="42.54873" lon="22.96401">
        <ele>745.015819</ele>
        <time>2022-04-05T08:08:41.222Z</time>
      </trkpt>
      <trkpt lat="42.54638" lon="22.96313">
        <ele>735.820539</ele>
        <time>2022-04-05T08:09:10.225Z</time>
      </trkpt>
      <trkpt lat="42.54447" lon="22.96173">
        <ele>728.203132</ele>
        <time>2022-04-05T08:11:02.217Z</time>
      </trkpt>
      <trkpt lat="42.54422" lon="22.96443">
        <ele>719.089952</ele>
        <time>2022-04-05T08:11:57.224Z</time>
      </trkpt>
      <trkpt lat="42.54263" lon="22.96682">
        <ele>716.07616</ele>
        <time>2022-04-05T08:12:43.209Z</time>
      </trkpt>
      <trkpt lat="42.54074" lon="22.96767">
        <ele>729.973655</ele>
        <time>2022-04-05T08:14:44.227Z</time>
      </trkpt>
      <trkpt lat="42.53913" lon="22.96926">
        <ele>736.695631</ele>
        <time>2022-04-05T08:16:12.225Z</time>
      </trkpt>
      <trkpt lat="42.53771" lon="22.97124">
        <ele>729.535589</ele>
        <time>2022-04-05T08:17:08.214Z</time>
      </trkpt>
      <trkpt lat="42.53605" lon="22.97355">
        <ele>723.818301</ele>
        <time>2022-04-05T08:17:52.216Z</time>
      </trkpt>
      <trkpt lat="42.53462" lon="22.97548">
        <ele>728.747064</ele>
        <time>2022-04-05T08:19:01.217Z</time>
      </trkpt>
      <trkpt lat="42.53312" lon="22.97751">
        <ele>732.463384</ele>
        <time>2022-04-05T08:20:20.214Z</time>
      </trkpt>
      <trkpt lat="42.53161" lon="22.97953">
        <ele>734.905951</ele>
        <time>2022-04-05T08:21:18.227Z</time>
      </trkpt>
      <trkpt lat="42.53004" lon="22.98162">
        <ele>730.986116</ele>
        <time>2022-04-05T08:22:07.219Z</time>
      </trkpt>
      <trkpt lat="42.52835" lon="22.98392">
        <ele>730.550428</ele>
        <time>2022-04-05T08:23:03.228Z</time>
      </trkpt>
      <trkpt lat="42.52655" lon="22.98633">
        <ele>731.639471</ele>
        <time>2022-04-05T08:24:03.265Z</time>
      </trkpt>
      <trkpt lat="42.52485" lon="22.98895">
        <ele>732.391496</ele>
        <time>2022-04-05T08:25:03.223Z</time>
      </trkpt>
      <trkpt lat="42.52354" lon="22.99109">
        <ele>731.140797</ele>
        <time>2022-04-05T08:25:47.239Z</time>
      </trkpt>
      <trkpt lat="42.52213" lon="22.99341">
        <ele>729.647645</ele>
        <time>2022-04-05T08:26:27.237Z</time>
      </trkpt>
      <trkpt lat="42.52082" lon="22.99567">
        <ele>725.711152</ele>
        <time>2022-04-05T08:27:09.227Z</time>
      </trkpt>
      <trkpt lat="42.51928" lon="22.99821">
        <ele>722.773151</ele>
        <time>2022-04-05T08:27:49.225Z</time>
      </trkpt>
      <trkpt lat="42.51783" lon="23.00066">
        <ele>719.005381</ele>
        <time>2022-04-05T08:28:29.225Z</time>
      </trkpt>
      <trkpt lat="42.51632" lon="23.00312">
        <ele>715.541036</ele>
        <time>2022-04-05T08:29:09.229Z</time>
      </trkpt>
      <trkpt lat="42.51495" lon="23.00543">
        <ele>712.055299</ele>
        <time>2022-04-05T08:29:49.235Z</time>
      </trkpt>
      <trkpt lat="42.51341" lon="23.00801">
        <ele>708.808943</ele>
        <time>2022-04-05T08:30:29.223Z</time>
      </trkpt>
      <trkpt lat="42.51196" lon="23.0104">
        <ele>706.598205</ele>
        <time>2022-04-05T08:31:09.251Z</time>
      </trkpt>
      <trkpt lat="42.51062" lon="23.01265">
        <ele>707.057512</ele>
        <time>2022-04-05T08:31:49.218Z</time>
      </trkpt>
      <trkpt lat="42.50914" lon="23.01509">
        <ele>710.763324</ele>
        <time>2022-04-05T08:32:51.215Z</time>
      </trkpt>
      <trkpt lat="42.50772" lon="23.01744">
        <ele>713.517043</ele>
        <time>2022-04-05T08:33:51.209Z</time>
      </trkpt>
      <trkpt lat="42.50626" lon="23.01985">
        <ele>714.132482</ele>
        <time>2022-04-05T08:34:51.237Z</time>
      </trkpt>
      <trkpt lat="42.50497" lon="23.02203">
        <ele>712.130691</ele>
        <time>2022-04-05T08:35:37.257Z</time>
      </trkpt>
      <trkpt lat="42.50356" lon="23.02435">
        <ele>708.838171</ele>
        <time>2022-04-05T08:36:17.223Z</time>
      </trkpt>
      <trkpt lat="42.50214" lon="23.02671">
        <ele>707.194029</ele>
        <time>2022-04-05T08:36:57.238Z</time>
      </trkpt>
      <trkpt lat="42.50089" lon="23.02881">
        <ele>707.899468</ele>
        <time>2022-04-05T08:37:37.256Z</time>
      </trkpt>
      <trkpt lat="42.49957" lon="23.03099">
        <ele>711.297507</ele>
        <time>2022-04-05T08:38:30.212Z</time>
      </trkpt>
      <trkpt lat="42.49827" lon="23.03317">
        <ele>714.924076</ele>
        <time>2022-04-05T08:39:41.216Z</time>
      </trkpt>
      <trkpt lat="42.49686" lon="23.03518">
        <ele>712.908202</ele>
        <time>2022-04-05T08:40:36.265Z</time>
      </trkpt>
      <trkpt lat="42.49498" lon="23.03771">
        <ele>707.536545</ele>
        <time>2022-04-05T08:41:18.233Z</time>
      </trkpt>
      <trkpt lat="42.49348" lon="23.03984">
        <ele>705.37566</ele>
        <time>2022-04-05T08:41:58.228Z</time>
      </trkpt>
      <trkpt lat="42.49193" lon="23.04218">
        <ele>704.387261</ele>
        <time>2022-04-05T08:42:38.218Z</time>
      </trkpt>
      <trkpt lat="42.49036" lon="23.04456">
        <ele>708.317303</ele>
        <time>2022-04-05T08:43:34.228Z</time>
      </trkpt>
      <trkpt lat="42.48893" lon="23.04671">
        <ele>710.975972</ele>
        <time>2022-04-05T08:44:34.242Z</time>
      </trkpt>
      <trkpt lat="42.48754" lon="23.04884">
        <ele>710.409926</ele>
        <time>2022-04-05T08:45:26.267Z</time>
      </trkpt>
      <trkpt lat="42.48616" lon="23.05092">
        <ele>710.693656</ele>
        <time>2022-04-05T08:46:08.228Z</time>
      </trkpt>
      <trkpt lat="42.48467" lon="23.05316">
        <ele>713.377526</ele>
        <time>2022-04-05T08:47:08.227Z</time>
      </trkpt>
      <trkpt lat="42.48328" lon="23.05527">
        <ele>715.182548</ele>
        <time>2022-04-05T08:48:08.235Z</time>
      </trkpt>
      <trkpt lat="42.48183" lon="23.05751">
        <ele>713.906119</ele>
        <time>2022-04-05T08:49:04.220Z</time>
      </trkpt>
      <trkpt lat="42.48029" lon="23.05982">
        <ele>709.575021</ele>
        <time>2022-04-05T08:49:44.268Z</time>
      </trkpt>
      <trkpt lat="42.47873" lon="23.06218">
        <ele>706.715829</ele>
        <time>2022-04-05T08:50:26.242Z</time>
      </trkpt>
      <trkpt lat="42.47718" lon="23.06451">
        <ele>705.347689</ele>
        <time>2022-04-05T08:51:06.232Z</time>
      </trkpt>
      <trkpt lat="42.47563" lon="23.06668">
        <ele>703.910422</ele>
        <time>2022-04-05T08:51:48.221Z</time>
      </trkpt>
      <trkpt lat="42.47407" lon="23.06849">
        <ele>703.39158</ele>
        <time>2022-04-05T08:52:29.226Z</time>
      </trkpt>
      <trkpt lat="42.47216" lon="23.0707">
        <ele>699.653633</ele>
        <time>2022-04-05T08:53:11.233Z</time>
      </trkpt>
      <trkpt lat="42.47056" lon="23.07252">
        <ele>706.481138</ele>
        <time>2022-04-05T08:54:29.217Z</time>
      </trkpt>
      <trkpt lat="42.469" lon="23.0743">
        <ele>709.158048</ele>
        <time>2022-04-05T08:55:43.217Z</time>
      </trkpt>
      <trkpt lat="42.46781" lon="23.07646">
        <ele>708.548464</ele>
        <time>2022-04-05T08:56:45.218Z</time>
      </trkpt>
      <trkpt lat="42.46675" lon="23.07889">
        <ele>711.593707</ele>
        <time>2022-04-05T08:57:54.236Z</time>
      </trkpt>
      <trkpt lat="42.46575" lon="23.08113">
        <ele>711.978477</ele>
        <time>2022-04-05T08:58:54.228Z</time>
      </trkpt>
      <trkpt lat="42.46469" lon="23.08357">
        <ele>713.643565</ele>
        <time>2022-04-05T08:59:54.235Z</time>
      </trkpt>
      <trkpt lat="42.46354" lon="23.08618">
        <ele>715.696487</ele>
        <time>2022-04-05T09:00:57.231Z</time>
      </trkpt>
      <trkpt lat="42.46247" lon="23.08856">
        <ele>716.496017</ele>
        <time>2022-04-05T09:01:57.298Z</time>
      </trkpt>
      <trkpt lat="42.46138" lon="23.09106">
        <ele>721.006041</ele>
        <time>2022-04-05T09:03:11.244Z</time>
      </trkpt>
      <trkpt lat="42.46033" lon="23.09336">
        <ele>723.778592</ele>
        <time>2022-04-05T09:04:38.224Z</time>
      </trkpt>
      <trkpt lat="42.45921" lon="23.09595">
        <ele>726.339627</ele>
        <time>2022-04-05T09:05:58.240Z</time>
      </trkpt>
      <trkpt lat="42.45811" lon="23.09846">
        <ele>729.682478</ele>
        <time>2022-04-05T09:07:17.239Z</time>
      </trkpt>
      <trkpt lat="42.45705" lon="23.10094">
        <ele>731.63936</ele>
        <time>2022-04-05T09:08:37.243Z</time>
      </trkpt>
      <trkpt lat="42.45602" lon="23.10322">
        <ele>733.56086</ele>
        <time>2022-04-05T09:09:39.235Z</time>
      </trkpt>
      <trkpt lat="42.45502" lon="23.1055">
        <ele>735.533129</ele>
        <time>2022-04-05T09:10:40.226Z</time>
      </trkpt>
      <trkpt lat="42.4539" lon="23.10807">
        <ele>733.939454</ele>
        <time>2022-04-05T09:11:36.235Z</time>
      </trkpt>
      <trkpt lat="42.45273" lon="23.1106">
        <ele>737.480968</ele>
        <time>2022-04-05T09:12:47.231Z</time>
      </trkpt>
      <trkpt lat="42.45154" lon="23.11332">
        <ele>738.936036</ele>
        <time>2022-04-05T09:13:54.234Z</time>
      </trkpt>
      <trkpt lat="42.45018" lon="23.11643">
        <ele>737.709569</ele>
        <time>2022-04-05T09:14:44.222Z</time>
      </trkpt>
      <trkpt lat="42.44895" lon="23.11878">
        <ele>736.803315</ele>
        <time>2022-04-05T09:31:26.265Z</time>
      </trkpt>
      <trkpt lat="42.44691" lon="23.1197">
        <ele>733.164716</ele>
        <time>2022-04-05T09:32:18.227Z</time>
      </trkpt>
      <trkpt lat="42.44481" lon="23.12012">
        <ele>730.208345</ele>
        <time>2022-04-05T09:46:23.253Z</time>
      </trkpt>
      <trkpt lat="42.44219" lon="23.12044">
        <ele>719.525666</ele>
        <time>2022-04-05T09:47:03.242Z</time>
      </trkpt>
      <trkpt lat="42.43956" lon="23.12076">
        <ele>716.002076</ele>
        <time>2022-04-05T09:49:19.247Z</time>
      </trkpt>
      <trkpt lat="42.43741" lon="23.12097">
        <ele>719.527043</ele>
        <time>2022-04-05T09:51:02.229Z</time>
      </trkpt>
      <trkpt lat="42.43509" lon="23.1208">
        <ele>717.709636</ele>
        <time>2022-04-05T09:51:50.232Z</time>
      </trkpt>
      <trkpt lat="42.43295" lon="23.12058">
        <ele>714.686169</ele>
        <time>2022-04-05T09:52:30.237Z</time>
      </trkpt>
      <trkpt lat="42.43099" lon="23.12025">
        <ele>716.868298</ele>
        <time>2022-04-05T09:53:10.239Z</time>
      </trkpt>
      <trkpt lat="42.42888" lon="23.11997">
        <ele>713.831811</ele>
        <time>2022-04-05T09:53:52.257Z</time>
      </trkpt>
      <trkpt lat="42.42665" lon="23.11999">
        <ele>708.425126</ele>
        <time>2022-04-05T09:54:41.210Z</time>
      </trkpt>
      <trkpt lat="42.4248" lon="23.12075">
        <ele>703.683108</ele>
        <time>2022-04-05T09:55:21.250Z</time>
      </trkpt>
      <trkpt lat="42.42302" lon="23.12203">
        <ele>700.862249</ele>
        <time>2022-04-05T09:56:01.244Z</time>
      </trkpt>
      <trkpt lat="42.42121" lon="23.12337">
        <ele>701.909246</ele>
        <time>2022-04-05T09:56:41.240Z</time>
      </trkpt>
      <trkpt lat="42.41936" lon="23.1247">
        <ele>700.589004</ele>
        <time>2022-04-05T09:57:21.236Z</time>
      </trkpt>
      <trkpt lat="42.41728" lon="23.12597">
        <ele>701.559352</ele>
        <time>2022-04-05T09:58:16.233Z</time>
      </trkpt>
      <trkpt lat="42.41535" lon="23.12728">
        <ele>699.155753</ele>
        <time>2022-04-05T09:59:10.227Z</time>
      </trkpt>
      <trkpt lat="42.41364" lon="23.12876">
        <ele>701.36797</ele>
        <time>2022-04-05T09:59:52.217Z</time>
      </trkpt>
      <trkpt lat="42.41173" lon="23.13043">
        <ele>705.884262</ele>
        <time>2022-04-05T10:00:45.240Z</time>
      </trkpt>
      <trkpt lat="42.40941" lon="23.13096">
        <ele>708.501597</ele>
        <time>2022-04-05T10:01:40.270Z</time>
      </trkpt>
      <trkpt lat="42.40691" lon="23.1299">
        <ele>705.815909</ele>
        <time>2022-04-05T10:02:43.237Z</time>
      </trkpt>
      <trkpt lat="42.40457" lon="23.12884">
        <ele>703.38971</ele>
        <time>2022-04-05T10:03:43.231Z</time>
      </trkpt>
      <trkpt lat="42.40228" lon="23.12779">
        <ele>705.503273</ele>
        <time>2022-04-05T10:04:43.255Z</time>
      </trkpt>
      <trkpt lat="42.40005" lon="23.12692">
        <ele>707.542821</ele>
        <time>2022-04-05T10:05:41.244Z</time>
      </trkpt>
      <trkpt lat="42.39791" lon="23.12613">
        <ele>706.443125</ele>
        <time>2022-04-05T10:06:41.237Z</time>
      </trkpt>
      <trkpt lat="42.39604" lon="23.12511">
        <ele>706.886249</ele>
        <time>2022-04-05T10:07:41.240Z</time>
      </trkpt>
      <trkpt lat="42.39425" lon="23.12365">
        <ele>705.445526</ele>
        <time>2022-04-05T10:08:41.262Z</time>
      </trkpt>
      <trkpt lat="42.39247" lon="23.12224">
        <ele>708.912452</ele>
        <time>2022-04-05T10:09:41.237Z</time>
      </trkpt>
      <trkpt lat="42.39088" lon="23.12037">
        <ele>710.629758</ele>
        <time>2022-04-05T10:10:50.253Z</time>
      </trkpt>
      <trkpt lat="42.38926" lon="23.11859">
        <ele>714.146671</ele>
        <time>2022-04-05T10:12:10.267Z</time>
      </trkpt>
      <trkpt lat="42.38742" lon="23.11733">
        <ele>720.103362</ele>
        <time>2022-04-05T10:13:28.223Z</time>
      </trkpt>
      <trkpt lat="42.3855" lon="23.11604">
        <ele>723.232352</ele>
        <time>2022-04-05T10:14:45.249Z</time>
      </trkpt>
      <trkpt lat="42.38363" lon="23.11479">
        <ele>725.062063</ele>
        <time>2022-04-05T10:15:56.227Z</time>
      </trkpt>
      <trkpt lat="42.38173" lon="23.11353">
        <ele>728.94124</ele>
        <time>2022-04-05T10:17:21.240Z</time>
      </trkpt>
      <trkpt lat="42.37977" lon="23.11326">
        <ele>741.571947</ele>
        <time>2022-04-05T10:19:30.229Z</time>
      </trkpt>
      <trkpt lat="42.37787" lon="23.11376">
        <ele>749.372858</ele>
        <time>2022-04-05T10:21:34.252Z</time>
      </trkpt>
      <trkpt lat="42.37583" lon="23.11365">
        <ele>749.045904</ele>
        <time>2022-04-05T10:23:13.242Z</time>
      </trkpt>
      <trkpt lat="42.37364" lon="23.11252">
        <ele>749.883567</ele>
        <time>2022-04-05T10:24:15.243Z</time>
      </trkpt>
      <trkpt lat="42.37155" lon="23.11114">
        <ele>752.012718</ele>
        <time>2022-04-05T10:25:17.256Z</time>
      </trkpt>
      <trkpt lat="42.36979" lon="23.10997">
        <ele>759.987238</ele>
        <time>2022-04-05T10:26:56.249Z</time>
      </trkpt>
      <trkpt lat="42.36786" lon="23.10869">
        <ele>757.407041</ele>
        <time>2022-04-05T10:28:13.241Z</time>
      </trkpt>
      <trkpt lat="42.36581" lon="23.10706">
        <ele>753.874594</ele>
        <time>2022-04-05T10:28:55.237Z</time>
      </trkpt>
      <trkpt lat="42.36378" lon="23.10524">
        <ele>754.609413</ele>
        <time>2022-04-05T10:29:52.236Z</time>
      </trkpt>
      <trkpt lat="42.36235" lon="23.10333">
        <ele>754.162145</ele>
        <time>2022-04-05T10:30:34.251Z</time>
      </trkpt>
      <trkpt lat="42.36052" lon="23.1022">
        <ele>753.558295</ele>
        <time>2022-04-05T10:31:14.253Z</time>
      </trkpt>
      <trkpt lat="42.35829" lon="23.10117">
        <ele>751.269615</ele>
        <time>2022-04-05T10:32:09.228Z</time>
      </trkpt>
      <trkpt lat="42.35613" lon="23.10016">
        <ele>745.773434</ele>
        <time>2022-04-05T10:33:00.236Z</time>
      </trkpt>
      <trkpt lat="42.35369" lon="23.09864">
        <ele>736.141736</ele>
        <time>2022-04-05T10:33:33.236Z</time>
      </trkpt>
      <trkpt lat="42.35144" lon="23.09653">
        <ele>727.778296</ele>
        <time>2022-04-05T10:34:13.247Z</time>
      </trkpt>
      <trkpt lat="42.34955" lon="23.09526">
        <ele>726.057124</ele>
        <time>2022-04-05T10:34:59.255Z</time>
      </trkpt>
      <trkpt lat="42.34742" lon="23.09504">
        <ele>724.445851</ele>
        <time>2022-04-05T10:35:46.261Z</time>
      </trkpt>
      <trkpt lat="42.34539" lon="23.09481">
        <ele>721.752246</ele>
        <time>2022-04-05T10:36:30.232Z</time>
      </trkpt>
      <trkpt lat="42.34277" lon="23.09441">
        <ele>716.190035</ele>
        <time>2022-04-05T10:37:12.239Z</time>
      </trkpt>
      <trkpt lat="42.34002" lon="23.09494">
        <ele>705.367015</ele>
        <time>2022-04-05T10:37:52.225Z</time>
      </trkpt>
      <trkpt lat="42.33727" lon="23.09663">
        <ele>694.709573</ele>
        <time>2022-04-05T10:38:32.243Z</time>
      </trkpt>
      <trkpt lat="42.33464" lon="23.09758">
        <ele>683.139267</ele>
        <time>2022-04-05T10:39:04.267Z</time>
      </trkpt>
      <trkpt lat="42.3327" lon="23.09824">
        <ele>674.807908</ele>
        <time>2022-04-05T10:39:25.249Z</time>
      </trkpt>
      <trkpt lat="42.33097" lon="23.09944">
        <ele>665.106053</ele>
        <time>2022-04-05T10:39:45.232Z</time>
      </trkpt>
      <trkpt lat="42.32912" lon="23.10061">
        <ele>654.207009</ele>
        <time>2022-04-05T10:40:06.258Z</time>
      </trkpt>
      <trkpt lat="42.32695" lon="23.10076">
        <ele>642.660192</ele>
        <time>2022-04-05T10:40:29.251Z</time>
      </trkpt>
      <trkpt lat="42.32464" lon="23.10075">
        <ele>628.715013</ele>
        <time>2022-04-05T10:40:52.254Z</time>
      </trkpt>
      <trkpt lat="42.32265" lon="23.09963">
        <ele>615.662258</ele>
        <time>2022-04-05T10:41:12.225Z</time>
      </trkpt>
      <trkpt lat="42.32051" lon="23.09813">
        <ele>609.438976</ele>
        <time>2022-04-05T10:41:32.220Z</time>
      </trkpt>
      <trkpt lat="42.318" lon="23.09797">
        <ele>602.570684</ele>
        <time>2022-04-05T10:42:03.252Z</time>
      </trkpt>
      <trkpt lat="42.31592" lon="23.09909">
        <ele>604.100234</ele>
        <time>2022-04-05T10:42:48.245Z</time>
      </trkpt>
      <trkpt lat="42.31394" lon="23.10052">
        <ele>604.93193</ele>
        <time>2022-04-05T10:43:30.230Z</time>
      </trkpt>
      <trkpt lat="42.31223" lon="23.10235">
        <ele>601.030916</ele>
        <time>2022-04-05T10:44:10.237Z</time>
      </trkpt>
      <trkpt lat="42.31047" lon="23.10395">
        <ele>598.011561</ele>
        <time>2022-04-05T10:44:50.243Z</time>
      </trkpt>
      <trkpt lat="42.30852" lon="23.10544">
        <ele>593.175234</ele>
        <time>2022-04-05T10:45:30.259Z</time>
      </trkpt>
      <trkpt lat="42.30658" lon="23.10688">
        <ele>596.089525</ele>
        <time>2022-04-05T10:46:23.244Z</time>
      </trkpt>
      <trkpt lat="42.30464" lon="23.10839">
        <ele>591.727981</ele>
        <time>2022-04-05T10:47:08.244Z</time>
      </trkpt>
      <trkpt lat="42.30248" lon="23.11005">
        <ele>586.247223</ele>
        <time>2022-04-05T10:47:48.278Z</time>
      </trkpt>
      <trkpt lat="42.30067" lon="23.11141">
        <ele>585.578539</ele>
        <time>2022-04-05T10:48:30.236Z</time>
      </trkpt>
      <trkpt lat="42.29863" lon="23.11297">
        <ele>587.963915</ele>
        <time>2022-04-05T10:49:30.233Z</time>
      </trkpt>
      <trkpt lat="42.29669" lon="23.11449">
        <ele>586.459132</ele>
        <time>2022-04-05T10:50:33.259Z</time>
      </trkpt>
      <trkpt lat="42.29482" lon="23.11593">
        <ele>587.461663</ele>
        <time>2022-04-05T10:51:30.243Z</time>
      </trkpt>
      <trkpt lat="42.29313" lon="23.11722">
        <ele>587.723165</ele>
        <time>2022-04-05T10:52:10.243Z</time>
      </trkpt>
      <trkpt lat="42.29132" lon="23.1186">
        <ele>593.818342</ele>
        <time>2022-04-05T10:53:08.260Z</time>
      </trkpt>
      <trkpt lat="42.28951" lon="23.12004">
        <ele>592.832092</ele>
        <time>2022-04-05T10:54:09.244Z</time>
      </trkpt>
      <trkpt lat="42.28761" lon="23.1215">
        <ele>581.976611</ele>
        <time>2022-04-05T10:54:49.256Z</time>
      </trkpt>
      <trkpt lat="42.28571" lon="23.12258">
        <ele>577.845239</ele>
        <time>2022-04-05T10:55:29.233Z</time>
      </trkpt>
      <trkpt lat="42.28374" lon="23.12352">
        <ele>577.914174</ele>
        <time>2022-04-05T10:56:26.247Z</time>
      </trkpt>
      <trkpt lat="42.28245" lon="23.12617">
        <ele>572.41204</ele>
        <time>2022-04-05T10:56:51.243Z</time>
      </trkpt>
      <trkpt lat="42.28032" lon="23.12755">
        <ele>564.332058</ele>
        <time>2022-04-05T10:57:38.234Z</time>
      </trkpt>
      <trkpt lat="42.27766" lon="23.12869">
        <ele>558.4022</ele>
        <time>2022-04-05T10:58:20.240Z</time>
      </trkpt>
      <trkpt lat="42.27584" lon="23.13072">
        <ele>560.743551</ele>
        <time>2022-04-05T10:59:13.259Z</time>
      </trkpt>
      <trkpt lat="42.27373" lon="23.13066">
        <ele>564.679693</ele>
        <time>2022-04-05T11:00:07.267Z</time>
      </trkpt>
      <trkpt lat="42.27345" lon="23.13148">
        <ele>565.884466</ele>
        <time>2022-04-05T11:15:35.260Z</time>
      </trkpt>
      <trkpt lat="42.27294" lon="23.1341">
        <ele>572.384634</ele>
        <time>2022-04-05T11:16:41.228Z</time>
      </trkpt>
      <trkpt lat="42.27253" lon="23.13674">
        <ele>581.081985</ele>
        <time>2022-04-05T11:17:54.237Z</time>
      </trkpt>
      <trkpt lat="42.27156" lon="23.13911">
        <ele>588.550021</ele>
        <time>2022-04-05T11:19:11.270Z</time>
      </trkpt>
      <trkpt lat="42.27126" lon="23.14153">
        <ele>589.845378</ele>
        <time>2022-04-05T11:20:58.258Z</time>
      </trkpt>
      <trkpt lat="42.27075" lon="23.14416">
        <ele>593.574314</ele>
        <time>2022-04-05T11:22:31.248Z</time>
      </trkpt>
      <trkpt lat="42.27008" lon="23.14675">
        <ele>597.987997</ele>
        <time>2022-04-05T11:23:51.255Z</time>
      </trkpt>
      <trkpt lat="42.26895" lon="23.14902">
        <ele>604.334213</ele>
        <time>2022-04-05T11:25:18.238Z</time>
      </trkpt>
      <trkpt lat="42.26802" lon="23.15148">
        <ele>609.448788</ele>
        <time>2022-04-05T11:26:41.245Z</time>
      </trkpt>
      <trkpt lat="42.26716" lon="23.15403">
        <ele>622.405219</ele>
        <time>2022-04-05T11:28:12.253Z</time>
      </trkpt>
      <trkpt lat="42.26648" lon="23.15646">
        <ele>625.196309</ele>
        <time>2022-04-05T11:29:37.269Z</time>
      </trkpt>
      <trkpt lat="42.26566" lon="23.15883">
        <ele>631.83696</ele>
        <time>2022-04-05T11:31:03.351Z</time>
      </trkpt>
      <trkpt lat="42.26587" lon="23.16152">
        <ele>640.353417</ele>
        <time>2022-04-05T11:32:23.228Z</time>
      </trkpt>
      <trkpt lat="42.26604" lon="23.16428">
        <ele>648.496525</ele>
        <time>2022-04-05T11:33:52.220Z</time>
      </trkpt>
      <trkpt lat="42.26626" lon="23.16718">
        <ele>650.760128</ele>
        <time>2022-04-05T11:35:09.216Z</time>
      </trkpt>
      <trkpt lat="42.26662" lon="23.16988">
        <ele>653.665775</ele>
        <time>2022-04-05T11:36:47.240Z</time>
      </trkpt>
      <trkpt lat="42.26741" lon="23.17263">
        <ele>651.671364</ele>
        <time>2022-04-05T11:37:55.314Z</time>
      </trkpt>
      <trkpt lat="42.26826" lon="23.17531">
        <ele>647.224947</ele>
        <time>2022-04-05T11:38:58.222Z</time>
      </trkpt>
      <trkpt lat="42.269" lon="23.17781">
        <ele>654.207811</ele>
        <time>2022-04-05T11:40:00.244Z</time>
      </trkpt>
      <trkpt lat="42.26981" lon="23.18044">
        <ele>654.648765</ele>
        <time>2022-04-05T11:41:03.248Z</time>
      </trkpt>
      <trkpt lat="42.2706" lon="23.18313">
        <ele>656.500033</ele>
        <time>2022-04-05T11:42:13.280Z</time>
      </trkpt>
      <trkpt lat="42.27131" lon="23.1858">
        <ele>659.992154</ele>
        <time>2022-04-05T11:43:21.276Z</time>
      </trkpt>
      <trkpt lat="42.27158" lon="23.18846">
        <ele>669.487809</ele>
        <time>2022-04-05T11:44:59.259Z</time>
      </trkpt>
      <trkpt lat="42.27168" lon="23.19112">
        <ele>676.995136</ele>
        <time>2022-04-05T11:46:42.258Z</time>
      </trkpt>
      <trkpt lat="42.27161" lon="23.19377">
        <ele>678.03908</ele>
        <time>2022-04-05T11:48:47.242Z</time>
      </trkpt>
      <trkpt lat="42.27141" lon="23.19512">
        <ele>678.03908</ele>
        <time>2022-04-05T11:51:29.835Z</time>
      </trkpt>
    </trkseg>
  </trk>
  <trk>
    <name><![CDATA[Tour d'Europe: étape 645]]></name>
    <extensions>
      <line xmlns="http://www.topografix.com/GPX/gpx_style/0/2">
        <color>0000FF</color>
        <width>4</width>
      </line>
    </extensions>
    <trkseg>
      <trkpt lat="42.67799" lon="23.28777">
        <ele>646.701211</ele>
        <time>2022-04-04T07:30:43.045Z</time>
      </trkpt>
      <trkpt lat="42.67761" lon="23.28655">
        <ele>645.777208</ele>
        <time>2022-04-04T07:31:50.865Z</time>
      </trkpt>
      <trkpt lat="42.67905" lon="23.28447">
        <ele>643.565691</ele>
        <time>2022-04-04T07:34:30.857Z</time>
      </trkpt>
      <trkpt lat="42.68025" lon="23.28218">
        <ele>650.081842</ele>
        <time>2022-04-04T07:35:31.856Z</time>
      </trkpt>
      <trkpt lat="42.68172" lon="23.28015">
        <ele>640.759528</ele>
        <time>2022-04-04T07:36:13.859Z</time>
      </trkpt>
      <trkpt lat="42.68323" lon="23.27808">
        <ele>628.99586</ele>
        <time>2022-04-04T07:36:39.875Z</time>
      </trkpt>
      <trkpt lat="42.6847" lon="23.27582">
        <ele>623.44888</ele>
        <time>2022-04-04T07:37:31.901Z</time>
      </trkpt>
      <trkpt lat="42.6862" lon="23.27491">
        <ele>620.249477</ele>
        <time>2022-04-04T07:38:22.859Z</time>
      </trkpt>
      <trkpt lat="42.68821" lon="23.27635">
        <ele>614.086816</ele>
        <time>2022-04-04T07:39:02.867Z</time>
      </trkpt>
      <trkpt lat="42.69032" lon="23.27793">
        <ele>608.972395</ele>
        <time>2022-04-04T07:39:42.905Z</time>
      </trkpt>
      <trkpt lat="42.69219" lon="23.28031">
        <ele>611.746201</ele>
        <time>2022-04-04T07:40:22.861Z</time>
      </trkpt>
      <trkpt lat="42.69363" lon="23.28252">
        <ele>610.994594</ele>
        <time>2022-04-04T07:41:03.864Z</time>
      </trkpt>
      <trkpt lat="42.69523" lon="23.28484">
        <ele>607.948138</ele>
        <time>2022-04-04T07:41:43.861Z</time>
      </trkpt>
      <trkpt lat="42.69544" lon="23.28718">
        <ele>613.892426</ele>
        <time>2022-04-04T08:07:03.872Z</time>
      </trkpt>
      <trkpt lat="42.69521" lon="23.28457">
        <ele>622.907138</ele>
        <time>2022-04-04T08:08:04.888Z</time>
      </trkpt>
      <trkpt lat="42.69359" lon="23.28256">
        <ele>645.503967</ele>
        <time>2022-04-04T08:09:00.881Z</time>
      </trkpt>
      <trkpt lat="42.6921" lon="23.28017">
        <ele>622.592591</ele>
        <time>2022-04-04T08:10:35.878Z</time>
      </trkpt>
      <trkpt lat="42.69065" lon="23.27814">
        <ele>620.028699</ele>
        <time>2022-04-04T08:11:24.872Z</time>
      </trkpt>
      <trkpt lat="42.68864" lon="23.2765">
        <ele>615.233074</ele>
        <time>2022-04-04T08:12:24.869Z</time>
      </trkpt>
      <trkpt lat="42.68665" lon="23.27504">
        <ele>612.960679</ele>
        <time>2022-04-04T08:13:19.876Z</time>
      </trkpt>
      <trkpt lat="42.68482" lon="23.27352">
        <ele>618.7971</ele>
        <time>2022-04-04T08:14:28.865Z</time>
      </trkpt>
      <trkpt lat="42.68304" lon="23.27182">
        <ele>628.285488</ele>
        <time>2022-04-04T08:15:28.876Z</time>
      </trkpt>
      <trkpt lat="42.68154" lon="23.26979">
        <ele>628.570486</ele>
        <time>2022-04-04T08:17:16.866Z</time>
      </trkpt>
      <trkpt lat="42.68037" lon="23.26804">
        <ele>631.087223</ele>
        <time>2022-04-04T08:18:53.882Z</time>
      </trkpt>
      <trkpt lat="42.68017" lon="23.26554">
        <ele>638.156563</ele>
        <time>2022-04-04T08:20:05.875Z</time>
      </trkpt>
      <trkpt lat="42.67921" lon="23.26298">
        <ele>641.987171</ele>
        <time>2022-04-04T08:21:18.867Z</time>
      </trkpt>
      <trkpt lat="42.67836" lon="23.26056">
        <ele>644.888647</ele>
        <time>2022-04-04T08:22:44.867Z</time>
      </trkpt>
      <trkpt lat="42.67736" lon="23.25808">
        <ele>654.535958</ele>
        <time>2022-04-04T08:24:12.875Z</time>
      </trkpt>
      <trkpt lat="42.67715" lon="23.25539">
        <ele>666.145306</ele>
        <time>2022-04-04T08:25:40.867Z</time>
      </trkpt>
      <trkpt lat="42.67659" lon="23.2533">
        <ele>672.494994</ele>
        <time>2022-04-04T08:27:13.883Z</time>
      </trkpt>
      <trkpt lat="42.67453" lon="23.25249">
        <ele>665.850127</ele>
        <time>2022-04-04T08:28:25.895Z</time>
      </trkpt>
      <trkpt lat="42.67251" lon="23.25173">
        <ele>663.22732</ele>
        <time>2022-04-04T08:29:07.881Z</time>
      </trkpt>
      <trkpt lat="42.67076" lon="23.25301">
        <ele>662.448432</ele>
        <time>2022-04-04T08:29:56.944Z</time>
      </trkpt>
      <trkpt lat="42.66918" lon="23.25195">
        <ele>663.762024</ele>
        <time>2022-04-04T08:30:58.883Z</time>
      </trkpt>
      <trkpt lat="42.66755" lon="23.25003">
        <ele>668.886684</ele>
        <time>2022-04-04T08:32:11.886Z</time>
      </trkpt>
      <trkpt lat="42.66584" lon="23.24838">
        <ele>668.306634</ele>
        <time>2022-04-04T08:33:23.884Z</time>
      </trkpt>
      <trkpt lat="42.6641" lon="23.24688">
        <ele>676.648507</ele>
        <time>2022-04-04T08:34:37.879Z</time>
      </trkpt>
      <trkpt lat="42.66346" lon="23.24484">
        <ele>673.706684</ele>
        <time>2022-04-04T08:35:51.867Z</time>
      </trkpt>
      <trkpt lat="42.66211" lon="23.24291">
        <ele>683.478135</ele>
        <time>2022-04-04T08:37:17.882Z</time>
      </trkpt>
      <trkpt lat="42.66048" lon="23.24182">
        <ele>686.900213</ele>
        <time>2022-04-04T08:38:41.880Z</time>
      </trkpt>
      <trkpt lat="42.65916" lon="23.24052">
        <ele>692.737545</ele>
        <time>2022-04-04T08:40:05.867Z</time>
      </trkpt>
      <trkpt lat="42.65818" lon="23.23841">
        <ele>699.805014</ele>
        <time>2022-04-04T08:41:35.894Z</time>
      </trkpt>
      <trkpt lat="42.65723" lon="23.23601">
        <ele>704.716925</ele>
        <time>2022-04-04T08:43:07.912Z</time>
      </trkpt>
      <trkpt lat="42.65626" lon="23.23364">
        <ele>709.411436</ele>
        <time>2022-04-04T08:44:30.885Z</time>
      </trkpt>
      <trkpt lat="42.6554" lon="23.23124">
        <ele>716.864554</ele>
        <time>2022-04-04T08:45:49.890Z</time>
      </trkpt>
      <trkpt lat="42.65461" lon="23.2287">
        <ele>726.051792</ele>
        <time>2022-04-04T08:47:13.887Z</time>
      </trkpt>
      <trkpt lat="42.65408" lon="23.2261">
        <ele>726.991018</ele>
        <time>2022-04-04T08:48:36.884Z</time>
      </trkpt>
      <trkpt lat="42.65287" lon="23.22392">
        <ele>729.80164</ele>
        <time>2022-04-04T08:50:07.867Z</time>
      </trkpt>
      <trkpt lat="42.65193" lon="23.22155">
        <ele>737.01658</ele>
        <time>2022-04-04T08:51:33.885Z</time>
      </trkpt>
      <trkpt lat="42.6511" lon="23.21904">
        <ele>746.521028</ele>
        <time>2022-04-04T08:53:00.907Z</time>
      </trkpt>
      <trkpt lat="42.6504" lon="23.21664">
        <ele>757.970462</ele>
        <time>2022-04-04T08:55:50.926Z</time>
      </trkpt>
      <trkpt lat="42.64959" lon="23.21426">
        <ele>770.874113</ele>
        <time>2022-04-04T08:57:42.869Z</time>
      </trkpt>
      <trkpt lat="42.6489" lon="23.2118">
        <ele>780.81586</ele>
        <time>2022-04-04T08:59:28.876Z</time>
      </trkpt>
      <trkpt lat="42.64769" lon="23.20949">
        <ele>772.466505</ele>
        <time>2022-04-04T09:00:31.890Z</time>
      </trkpt>
      <trkpt lat="42.64653" lon="23.20732">
        <ele>781.797619</ele>
        <time>2022-04-04T09:01:57.874Z</time>
      </trkpt>
      <trkpt lat="42.64501" lon="23.20555">
        <ele>791.609842</ele>
        <time>2022-04-04T09:03:30.896Z</time>
      </trkpt>
      <trkpt lat="42.64332" lon="23.20436">
        <ele>806.493698</ele>
        <time>2022-04-04T09:05:28.885Z</time>
      </trkpt>
      <trkpt lat="42.64177" lon="23.20304">
        <ele>821.281682</ele>
        <time>2022-04-04T09:07:28.891Z</time>
      </trkpt>
      <trkpt lat="42.64031" lon="23.20123">
        <ele>825.887904</ele>
        <time>2022-04-04T09:09:27.885Z</time>
      </trkpt>
      <trkpt lat="42.6392" lon="23.19922">
        <ele>828.281504</ele>
        <time>2022-04-04T09:11:24.918Z</time>
      </trkpt>
      <trkpt lat="42.63792" lon="23.19721">
        <ele>843.870416</ele>
        <time>2022-04-04T09:13:06.918Z</time>
      </trkpt>
      <trkpt lat="42.6361" lon="23.19608">
        <ele>847.947704</ele>
        <time>2022-04-04T09:14:38.862Z</time>
      </trkpt>
      <trkpt lat="42.63414" lon="23.1951">
        <ele>842.633639</ele>
        <time>2022-04-04T09:15:48.889Z</time>
      </trkpt>
      <trkpt lat="42.63244" lon="23.19391">
        <ele>849.665071</ele>
        <time>2022-04-04T09:17:14.891Z</time>
      </trkpt>
      <trkpt lat="42.63049" lon="23.19408">
        <ele>857.020282</ele>
        <time>2022-04-04T09:19:03.888Z</time>
      </trkpt>
      <trkpt lat="42.6294" lon="23.19599">
        <ele>866.972133</ele>
        <time>2022-04-04T09:20:39.883Z</time>
      </trkpt>
      <trkpt lat="42.62775" lon="23.19423">
        <ele>867.814328</ele>
        <time>2022-04-04T09:21:30.883Z</time>
      </trkpt>
      <trkpt lat="42.6259" lon="23.19283">
        <ele>862.726477</ele>
        <time>2022-04-04T09:22:27.910Z</time>
      </trkpt>
      <trkpt lat="42.6241" lon="23.19195">
        <ele>864.179262</ele>
        <time>2022-04-04T09:24:03.879Z</time>
      </trkpt>
      <trkpt lat="42.62313" lon="23.19134">
        <ele>878.071479</ele>
        <time>2022-04-04T09:47:16.936Z</time>
      </trkpt>
      <trkpt lat="42.62193" lon="23.18958">
        <ele>885.147933</ele>
        <time>2022-04-04T09:49:00.871Z</time>
      </trkpt>
      <trkpt lat="42.62006" lon="23.18886">
        <ele>894.866107</ele>
        <time>2022-04-04T09:50:57.863Z</time>
      </trkpt>
      <trkpt lat="42.62058" lon="23.18658">
        <ele>902.007741</ele>
        <time>2022-04-04T09:52:36.865Z</time>
      </trkpt>
      <trkpt lat="42.62268" lon="23.18627">
        <ele>903.97605</ele>
        <time>2022-04-04T09:53:54.862Z</time>
      </trkpt>
      <trkpt lat="42.62292" lon="23.18395">
        <ele>906.850492</ele>
        <time>2022-04-04T09:55:33.870Z</time>
      </trkpt>
      <trkpt lat="42.6223" lon="23.1814">
        <ele>905.69863</ele>
        <time>2022-04-04T09:56:59.866Z</time>
      </trkpt>
      <trkpt lat="42.62051" lon="23.17942">
        <ele>898.014859</ele>
        <time>2022-04-04T09:57:48.867Z</time>
      </trkpt>
      <trkpt lat="42.61869" lon="23.17749">
        <ele>894.020272</ele>
        <time>2022-04-04T10:00:11.944Z</time>
      </trkpt>
      <trkpt lat="42.61703" lon="23.17513">
        <ele>885.207135</ele>
        <time>2022-04-04T10:00:51.904Z</time>
      </trkpt>
      <trkpt lat="42.61568" lon="23.17288">
        <ele>876.358488</ele>
        <time>2022-04-04T10:01:40.930Z</time>
      </trkpt>
      <trkpt lat="42.61632" lon="23.17054">
        <ele>866.821948</ele>
        <time>2022-04-04T10:02:26.923Z</time>
      </trkpt>
      <trkpt lat="42.61474" lon="23.16849">
        <ele>866.140348</ele>
        <time>2022-04-04T10:03:38.874Z</time>
      </trkpt>
      <trkpt lat="42.61449" lon="23.16753">
        <ele>844.761853</ele>
        <time>2022-04-04T10:05:09.881Z</time>
      </trkpt>
      <trkpt lat="42.61589" lon="23.16731">
        <ele>837.683649</ele>
        <time>2022-04-04T10:06:49.884Z</time>
      </trkpt>
      <trkpt lat="42.61493" lon="23.16451">
        <ele>824.987691</ele>
        <time>2022-04-04T10:07:44.885Z</time>
      </trkpt>
      <trkpt lat="42.61376" lon="23.1619">
        <ele>820.128969</ele>
        <time>2022-04-04T10:08:38.916Z</time>
      </trkpt>
      <trkpt lat="42.61282" lon="23.15948">
        <ele>820.058905</ele>
        <time>2022-04-04T10:10:02.899Z</time>
      </trkpt>
      <trkpt lat="42.61141" lon="23.15747">
        <ele>815.946334</ele>
        <time>2022-04-04T10:11:29.909Z</time>
      </trkpt>
      <trkpt lat="42.61028" lon="23.15518">
        <ele>812.761692</ele>
        <time>2022-04-04T10:12:53.891Z</time>
      </trkpt>
      <trkpt lat="42.60951" lon="23.15266">
        <ele>809.596349</ele>
        <time>2022-04-04T10:14:11.883Z</time>
      </trkpt>
      <trkpt lat="42.60897" lon="23.15014">
        <ele>813.679787</ele>
        <time>2022-04-04T10:15:42.887Z</time>
      </trkpt>
      <trkpt lat="42.6078" lon="23.14758">
        <ele>804.784672</ele>
        <time>2022-04-04T10:16:37.895Z</time>
      </trkpt>
      <trkpt lat="42.60642" lon="23.14517">
        <ele>796.743591</ele>
        <time>2022-04-04T10:17:27.884Z</time>
      </trkpt>
      <trkpt lat="42.60521" lon="23.1429">
        <ele>802.360401</ele>
        <time>2022-04-04T10:18:54.873Z</time>
      </trkpt>
      <trkpt lat="42.60471" lon="23.14008">
        <ele>803.85711</ele>
        <time>2022-04-04T10:19:45.876Z</time>
      </trkpt>
      <trkpt lat="42.60349" lon="23.1414">
        <ele>790.075236</ele>
        <time>2022-04-04T10:20:42.893Z</time>
      </trkpt>
      <trkpt lat="42.60238" lon="23.14373">
        <ele>786.71118</ele>
        <time>2022-04-04T10:21:42.892Z</time>
      </trkpt>
      <trkpt lat="42.60194" lon="23.1413">
        <ele>788.022319</ele>
        <time>2022-04-04T10:22:28.915Z</time>
      </trkpt>
      <trkpt lat="42.60176" lon="23.1384">
        <ele>786.730793</ele>
        <time>2022-04-04T10:23:08.898Z</time>
      </trkpt>
      <trkpt lat="42.60159" lon="23.13534">
        <ele>787.090658</ele>
        <time>2022-04-04T10:23:48.883Z</time>
      </trkpt>
      <trkpt lat="42.60142" lon="23.1324">
        <ele>786.327698</ele>
        <time>2022-04-04T10:24:37.906Z</time>
      </trkpt>
      <trkpt lat="42.60125" lon="23.12957">
        <ele>788.364975</ele>
        <time>2022-04-04T10:25:38.891Z</time>
      </trkpt>
      <trkpt lat="42.60066" lon="23.12672">
        <ele>782.775132</ele>
        <time>2022-04-04T10:26:25.885Z</time>
      </trkpt>
      <trkpt lat="42.60099" lon="23.12414">
        <ele>777.824166</ele>
        <time>2022-04-04T10:27:03.903Z</time>
      </trkpt>
      <trkpt lat="42.60083" lon="23.12101">
        <ele>774.04915</ele>
        <time>2022-04-04T10:27:43.885Z</time>
      </trkpt>
      <trkpt lat="42.60127" lon="23.11741">
        <ele>771.256606</ele>
        <time>2022-04-04T10:28:21.892Z</time>
      </trkpt>
      <trkpt lat="42.60272" lon="23.11506">
        <ele>764.442087</ele>
        <time>2022-04-04T10:29:07.899Z</time>
      </trkpt>
      <trkpt lat="42.60318" lon="23.11355">
        <ele>769.832361</ele>
        <time>2022-04-04T10:29:56.906Z</time>
      </trkpt>
      <trkpt lat="42.60361" lon="23.11074">
        <ele>782.981182</ele>
        <time>2022-04-04T10:30:41.902Z</time>
      </trkpt>
      <trkpt lat="42.60427" lon="23.10826">
        <ele>784.021813</ele>
        <time>2022-04-04T10:31:23.916Z</time>
      </trkpt>
      <trkpt lat="42.60544" lon="23.10597">
        <ele>785.889026</ele>
        <time>2022-04-04T10:32:06.910Z</time>
      </trkpt>
      <trkpt lat="42.60664" lon="23.10361">
        <ele>790.074828</ele>
        <time>2022-04-04T10:32:50.904Z</time>
      </trkpt>
      <trkpt lat="42.60705" lon="23.10087">
        <ele>790.525924</ele>
        <time>2022-04-04T10:33:35.928Z</time>
      </trkpt>
      <trkpt lat="42.60724" lon="23.09799">
        <ele>800.804925</ele>
        <time>2022-04-04T10:34:30.888Z</time>
      </trkpt>
      <trkpt lat="42.60737" lon="23.09522">
        <ele>787.500411</ele>
        <time>2022-04-04T10:35:14.891Z</time>
      </trkpt>
      <trkpt lat="42.60889" lon="23.09376">
        <ele>764.733586</ele>
        <time>2022-04-04T10:36:00.908Z</time>
      </trkpt>
      <trkpt lat="42.61024" lon="23.09205">
        <ele>761.086463</ele>
        <time>2022-04-04T10:36:50.895Z</time>
      </trkpt>
      <trkpt lat="42.61065" lon="23.08934">
        <ele>761.782436</ele>
        <time>2022-04-04T10:38:25.887Z</time>
      </trkpt>
      <trkpt lat="42.61074" lon="23.08633">
        <ele>763.349979</ele>
        <time>2022-04-04T10:39:35.901Z</time>
      </trkpt>
      <trkpt lat="42.61082" lon="23.08329">
        <ele>764.205659</ele>
        <time>2022-04-04T10:40:30.886Z</time>
      </trkpt>
      <trkpt lat="42.61088" lon="23.08039">
        <ele>761.861951</ele>
        <time>2022-04-04T10:41:16.933Z</time>
      </trkpt>
      <trkpt lat="42.61099" lon="23.07754">
        <ele>752.609633</ele>
        <time>2022-04-04T10:42:05.872Z</time>
      </trkpt>
      <trkpt lat="42.61081" lon="23.07469">
        <ele>750.698558</ele>
        <time>2022-04-04T10:43:02.878Z</time>
      </trkpt>
      <trkpt lat="42.6098" lon="23.07204">
        <ele>750.770938</ele>
        <time>2022-04-04T10:43:56.893Z</time>
      </trkpt>
      <trkpt lat="42.60883" lon="23.06972">
        <ele>747.147185</ele>
        <time>2022-04-04T10:44:38.932Z</time>
      </trkpt>
      <trkpt lat="42.60813" lon="23.06692">
        <ele>747.946807</ele>
        <time>2022-04-04T10:45:28.871Z</time>
      </trkpt>
      <trkpt lat="42.60821" lon="23.06397">
        <ele>751.673077</ele>
        <time>2022-04-04T10:46:24.883Z</time>
      </trkpt>
      <trkpt lat="42.60821" lon="23.06096">
        <ele>749.598756</ele>
        <time>2022-04-04T10:47:16.891Z</time>
      </trkpt>
      <trkpt lat="42.60794" lon="23.05798">
        <ele>750.553625</ele>
        <time>2022-04-04T10:48:08.873Z</time>
      </trkpt>
      <trkpt lat="42.6077" lon="23.05521">
        <ele>746.460676</ele>
        <time>2022-04-04T10:49:04.886Z</time>
      </trkpt>
      <trkpt lat="42.60774" lon="23.05222">
        <ele>748.591825</ele>
        <time>2022-04-04T10:49:59.932Z</time>
      </trkpt>
      <trkpt lat="42.60716" lon="23.05016">
        <ele>749.209325</ele>
        <time>2022-04-04T10:51:01.909Z</time>
      </trkpt>
      <trkpt lat="42.6069" lon="23.04796">
        <ele>742.209404</ele>
        <time>2022-04-04T10:52:07.918Z</time>
      </trkpt>
      <trkpt lat="42.60627" lon="23.04506">
        <ele>745.215127</ele>
        <time>2022-04-04T10:53:59.882Z</time>
      </trkpt>
      <trkpt lat="42.60696" lon="23.04217">
        <ele>745.621848</ele>
        <time>2022-04-04T10:54:45.888Z</time>
      </trkpt>
      <trkpt lat="42.60735" lon="23.03951">
        <ele>742.46374</ele>
        <time>2022-04-04T10:55:28.877Z</time>
      </trkpt>
      <trkpt lat="42.60787" lon="23.03698">
        <ele>750.827599</ele>
        <time>2022-04-04T10:56:16.893Z</time>
      </trkpt>
      <trkpt lat="42.60713" lon="23.03405">
        <ele>739.451496</ele>
        <time>2022-04-04T10:57:03.907Z</time>
      </trkpt>
      <trkpt lat="42.60594" lon="23.03148">
        <ele>735.165797</ele>
        <time>2022-04-04T10:57:52.880Z</time>
      </trkpt>
      <trkpt lat="42.60496" lon="23.03185">
        <ele>735.165797</ele>
        <time>2022-04-04T11:01:06.716Z</time>
      </trkpt>
    </trkseg>
  </trk>
  <trk>
    <name><![CDATA[Tour d'Europe: étape 619]]></name>
    <extensions>
      <line xmlns="http://www.topografix.com/GPX/gpx_style/0/2">
        <color>00FF00</color>
        <width>4</width>
      </line>
    </extensions>
    <trkseg>
      <trkpt lat="42.71906" lon="23.72811">
        <ele>668.488593</ele>
        <time>2022-03-09T09:04:17.631Z</time>
      </trkpt>
      <trkpt lat="42.71824" lon="23.72696">
        <ele>666.710888</ele>
        <time>2022-03-09T09:09:42.394Z</time>
      </trkpt>
      <trkpt lat="42.71678" lon="23.72488">
        <ele>660.026107</ele>
        <time>2022-03-09T09:11:16.397Z</time>
      </trkpt>
      <trkpt lat="42.71753" lon="23.72219">
        <ele>661.456892</ele>
        <time>2022-03-09T09:12:23.414Z</time>
      </trkpt>
      <trkpt lat="42.71825" lon="23.71954">
        <ele>651.141397</ele>
        <time>2022-03-09T09:13:19.411Z</time>
      </trkpt>
      <trkpt lat="42.71805" lon="23.71835">
        <ele>644.634783</ele>
        <time>2022-03-09T09:15:01.392Z</time>
      </trkpt>
      <trkpt lat="42.71595" lon="23.7194">
        <ele>637.871974</ele>
        <time>2022-03-09T09:15:41.404Z</time>
      </trkpt>
      <trkpt lat="42.71391" lon="23.72003">
        <ele>637.40816</ele>
        <time>2022-03-09T09:16:31.393Z</time>
      </trkpt>
      <trkpt lat="42.71173" lon="23.72096">
        <ele>639.305686</ele>
        <time>2022-03-09T09:17:24.410Z</time>
      </trkpt>
      <trkpt lat="42.71033" lon="23.72017">
        <ele>644.264031</ele>
        <time>2022-03-09T09:18:38.430Z</time>
      </trkpt>
      <trkpt lat="42.70958" lon="23.71752">
        <ele>657.518182</ele>
        <time>2022-03-09T09:20:34.397Z</time>
      </trkpt>
      <trkpt lat="42.70892" lon="23.715">
        <ele>662.249108</ele>
        <time>2022-03-09T09:22:26.389Z</time>
      </trkpt>
      <trkpt lat="42.7083" lon="23.71241">
        <ele>669.087391</ele>
        <time>2022-03-09T09:24:13.406Z</time>
      </trkpt>
      <trkpt lat="42.70771" lon="23.7096">
        <ele>675.759106</ele>
        <time>2022-03-09T09:25:38.409Z</time>
      </trkpt>
      <trkpt lat="42.70708" lon="23.70636">
        <ele>668.620475</ele>
        <time>2022-03-09T09:26:20.398Z</time>
      </trkpt>
      <trkpt lat="42.70629" lon="23.70265">
        <ele>653.091917</ele>
        <time>2022-03-09T09:26:52.400Z</time>
      </trkpt>
      <trkpt lat="42.70568" lon="23.69963">
        <ele>634.687572</ele>
        <time>2022-03-09T09:27:16.418Z</time>
      </trkpt>
      <trkpt lat="42.70502" lon="23.69658">
        <ele>621.110603</ele>
        <time>2022-03-09T09:27:41.422Z</time>
      </trkpt>
      <trkpt lat="42.7044" lon="23.69369">
        <ele>622.081319</ele>
        <time>2022-03-09T09:28:39.416Z</time>
      </trkpt>
      <trkpt lat="42.70388" lon="23.69102">
        <ele>625.76391</ele>
        <time>2022-03-09T09:29:40.413Z</time>
      </trkpt>
      <trkpt lat="42.70325" lon="23.68799">
        <ele>625.704903</ele>
        <time>2022-03-09T09:30:38.434Z</time>
      </trkpt>
      <trkpt lat="42.70256" lon="23.6847">
        <ele>625.081056</ele>
        <time>2022-03-09T09:31:36.396Z</time>
      </trkpt>
      <trkpt lat="42.70194" lon="23.68176">
        <ele>623.541004</ele>
        <time>2022-03-09T09:32:26.412Z</time>
      </trkpt>
      <trkpt lat="42.70127" lon="23.67861">
        <ele>623.360151</ele>
        <time>2022-03-09T09:33:21.409Z</time>
      </trkpt>
      <trkpt lat="42.70014" lon="23.67573">
        <ele>627.622946</ele>
        <time>2022-03-09T09:34:16.415Z</time>
      </trkpt>
      <trkpt lat="42.69807" lon="23.6746">
        <ele>622.753479</ele>
        <time>2022-03-09T09:35:02.394Z</time>
      </trkpt>
      <trkpt lat="42.69588" lon="23.674">
        <ele>614.178583</ele>
        <time>2022-03-09T09:35:44.442Z</time>
      </trkpt>
      <trkpt lat="42.69355" lon="23.67335">
        <ele>609.73398</ele>
        <time>2022-03-09T09:36:24.420Z</time>
      </trkpt>
      <trkpt lat="42.69111" lon="23.67267">
        <ele>604.689546</ele>
        <time>2022-03-09T09:37:04.409Z</time>
      </trkpt>
      <trkpt lat="42.68901" lon="23.67212">
        <ele>601.794738</ele>
        <time>2022-03-09T09:37:49.387Z</time>
      </trkpt>
      <trkpt lat="42.68696" lon="23.67154">
        <ele>601.034379</ele>
        <time>2022-03-09T09:38:34.395Z</time>
      </trkpt>
      <trkpt lat="42.68493" lon="23.67099">
        <ele>601.14273</ele>
        <time>2022-03-09T09:39:18.407Z</time>
      </trkpt>
      <trkpt lat="42.68299" lon="23.67051">
        <ele>600.466319</ele>
        <time>2022-03-09T09:39:59.410Z</time>
      </trkpt>
      <trkpt lat="42.68092" lon="23.67102">
        <ele>607.626661</ele>
        <time>2022-03-09T09:40:46.412Z</time>
      </trkpt>
      <trkpt lat="42.6787" lon="23.67178">
        <ele>605.727678</ele>
        <time>2022-03-09T09:41:35.452Z</time>
      </trkpt>
      <trkpt lat="42.67701" lon="23.67134">
        <ele>606.897398</ele>
        <time>2022-03-09T09:42:48.395Z</time>
      </trkpt>
      <trkpt lat="42.6766" lon="23.66852">
        <ele>605.740499</ele>
        <time>2022-03-09T09:43:51.396Z</time>
      </trkpt>
      <trkpt lat="42.67567" lon="23.66593">
        <ele>600.859925</ele>
        <time>2022-03-09T09:44:42.419Z</time>
      </trkpt>
      <trkpt lat="42.67469" lon="23.6631">
        <ele>595.285723</ele>
        <time>2022-03-09T09:45:40.411Z</time>
      </trkpt>
      <trkpt lat="42.67363" lon="23.66001">
        <ele>592.662727</ele>
        <time>2022-03-09T09:46:43.399Z</time>
      </trkpt>
      <trkpt lat="42.67298" lon="23.65711">
        <ele>596.265955</ele>
        <time>2022-03-09T09:47:43.388Z</time>
      </trkpt>
      <trkpt lat="42.67158" lon="23.6548">
        <ele>599.937989</ele>
        <time>2022-03-09T09:48:43.418Z</time>
      </trkpt>
      <trkpt lat="42.67024" lon="23.65232">
        <ele>602.55193</ele>
        <time>2022-03-09T09:49:34.397Z</time>
      </trkpt>
      <trkpt lat="42.66884" lon="23.64989">
        <ele>600.334165</ele>
        <time>2022-03-09T09:50:28.400Z</time>
      </trkpt>
      <trkpt lat="42.66715" lon="23.64768">
        <ele>596.147803</ele>
        <time>2022-03-09T09:51:27.395Z</time>
      </trkpt>
      <trkpt lat="42.6672" lon="23.64456">
        <ele>591.84058</ele>
        <time>2022-03-09T09:52:27.397Z</time>
      </trkpt>
      <trkpt lat="42.66726" lon="23.64158">
        <ele>590.294883</ele>
        <time>2022-03-09T09:53:27.393Z</time>
      </trkpt>
      <trkpt lat="42.66729" lon="23.63843">
        <ele>589.315372</ele>
        <time>2022-03-09T09:54:30.432Z</time>
      </trkpt>
      <trkpt lat="42.66732" lon="23.63547">
        <ele>588.158213</ele>
        <time>2022-03-09T09:55:30.428Z</time>
      </trkpt>
      <trkpt lat="42.66736" lon="23.63255">
        <ele>588.904206</ele>
        <time>2022-03-09T09:56:30.401Z</time>
      </trkpt>
      <trkpt lat="42.6674" lon="23.62954">
        <ele>590.461634</ele>
        <time>2022-03-09T09:57:33.412Z</time>
      </trkpt>
      <trkpt lat="42.66743" lon="23.62661">
        <ele>590.323512</ele>
        <time>2022-03-09T09:58:33.392Z</time>
      </trkpt>
      <trkpt lat="42.66747" lon="23.62335">
        <ele>587.862345</ele>
        <time>2022-03-09T09:59:36.419Z</time>
      </trkpt>
      <trkpt lat="42.6675" lon="23.62053">
        <ele>590.479834</ele>
        <time>2022-03-09T10:00:36.417Z</time>
      </trkpt>
      <trkpt lat="42.66754" lon="23.61754">
        <ele>592.672859</ele>
        <time>2022-03-09T10:01:36.405Z</time>
      </trkpt>
      <trkpt lat="42.66759" lon="23.61424">
        <ele>591.603099</ele>
        <time>2022-03-09T10:02:39.399Z</time>
      </trkpt>
      <trkpt lat="42.66761" lon="23.61115">
        <ele>593.357773</ele>
        <time>2022-03-09T10:03:39.406Z</time>
      </trkpt>
      <trkpt lat="42.66762" lon="23.60808">
        <ele>599.919928</ele>
        <time>2022-03-09T10:04:38.411Z</time>
      </trkpt>
      <trkpt lat="42.66771" lon="23.60489">
        <ele>604.087026</ele>
        <time>2022-03-09T10:05:42.399Z</time>
      </trkpt>
      <trkpt lat="42.6696" lon="23.60407">
        <ele>605.886832</ele>
        <time>2022-03-09T10:06:47.395Z</time>
      </trkpt>
      <trkpt lat="42.6702" lon="23.60123">
        <ele>595.40325</ele>
        <time>2022-03-09T10:07:52.440Z</time>
      </trkpt>
      <trkpt lat="42.67122" lon="23.5987">
        <ele>603.606268</ele>
        <time>2022-03-09T10:08:55.399Z</time>
      </trkpt>
      <trkpt lat="42.67226" lon="23.59598">
        <ele>600.731016</ele>
        <time>2022-03-09T10:09:55.416Z</time>
      </trkpt>
      <trkpt lat="42.67339" lon="23.59312">
        <ele>595.841687</ele>
        <time>2022-03-09T10:10:57.414Z</time>
      </trkpt>
      <trkpt lat="42.6745" lon="23.59036">
        <ele>588.657566</ele>
        <time>2022-03-09T10:11:57.420Z</time>
      </trkpt>
      <trkpt lat="42.67559" lon="23.5875">
        <ele>588.06348</ele>
        <time>2022-03-09T10:13:00.454Z</time>
      </trkpt>
      <trkpt lat="42.67673" lon="23.58464">
        <ele>583.910117</ele>
        <time>2022-03-09T10:13:57.429Z</time>
      </trkpt>
      <trkpt lat="42.67787" lon="23.58178">
        <ele>585.452905</ele>
        <time>2022-03-09T10:14:53.444Z</time>
      </trkpt>
      <trkpt lat="42.67911" lon="23.57867">
        <ele>586.872665</ele>
        <time>2022-03-09T10:15:55.381Z</time>
      </trkpt>
      <trkpt lat="42.68025" lon="23.57574">
        <ele>586.637946</ele>
        <time>2022-03-09T10:16:51.383Z</time>
      </trkpt>
      <trkpt lat="42.68127" lon="23.57308">
        <ele>590.30589</ele>
        <time>2022-03-09T10:17:42.380Z</time>
      </trkpt>
      <trkpt lat="42.68249" lon="23.57023">
        <ele>589.124291</ele>
        <time>2022-03-09T10:18:39.402Z</time>
      </trkpt>
      <trkpt lat="42.68113" lon="23.56807">
        <ele>586.430999</ele>
        <time>2022-03-09T10:19:36.380Z</time>
      </trkpt>
      <trkpt lat="42.67988" lon="23.56568">
        <ele>583.602141</ele>
        <time>2022-03-09T10:20:23.383Z</time>
      </trkpt>
      <trkpt lat="42.67783" lon="23.56559">
        <ele>582.709036</ele>
        <time>2022-03-09T10:21:07.389Z</time>
      </trkpt>
      <trkpt lat="42.67612" lon="23.56397">
        <ele>580.871328</ele>
        <time>2022-03-09T10:21:53.412Z</time>
      </trkpt>
      <trkpt lat="42.67484" lon="23.5611">
        <ele>577.755689</ele>
        <time>2022-03-09T10:22:56.405Z</time>
      </trkpt>
      <trkpt lat="42.67402" lon="23.55837">
        <ele>578.30151</ele>
        <time>2022-03-09T10:23:56.437Z</time>
      </trkpt>
      <trkpt lat="42.67375" lon="23.55553">
        <ele>577.468897</ele>
        <time>2022-03-09T10:24:56.406Z</time>
      </trkpt>
      <trkpt lat="42.67336" lon="23.55269">
        <ele>572.583217</ele>
        <time>2022-03-09T10:25:59.446Z</time>
      </trkpt>
      <trkpt lat="42.6729" lon="23.54997">
        <ele>571.648585</ele>
        <time>2022-03-09T10:27:04.451Z</time>
      </trkpt>
      <trkpt lat="42.67242" lon="23.54729">
        <ele>570.529429</ele>
        <time>2022-03-09T10:28:07.448Z</time>
      </trkpt>
      <trkpt lat="42.67194" lon="23.54463">
        <ele>569.926032</ele>
        <time>2022-03-09T10:29:07.415Z</time>
      </trkpt>
      <trkpt lat="42.67148" lon="23.54201">
        <ele>570.153433</ele>
        <time>2022-03-09T10:30:08.416Z</time>
      </trkpt>
      <trkpt lat="42.67102" lon="23.5393">
        <ele>569.915481</ele>
        <time>2022-03-09T10:31:12.420Z</time>
      </trkpt>
      <trkpt lat="42.67052" lon="23.53651">
        <ele>571.894885</ele>
        <time>2022-03-09T10:32:12.395Z</time>
      </trkpt>
      <trkpt lat="42.67002" lon="23.5335">
        <ele>573.298788</ele>
        <time>2022-03-09T10:33:31.418Z</time>
      </trkpt>
      <trkpt lat="42.67027" lon="23.53071">
        <ele>575.118558</ele>
        <time>2022-03-09T10:34:26.412Z</time>
      </trkpt>
      <trkpt lat="42.67065" lon="23.52791">
        <ele>579.965375</ele>
        <time>2022-03-09T10:35:28.420Z</time>
      </trkpt>
      <trkpt lat="42.67156" lon="23.52521">
        <ele>578.997648</ele>
        <time>2022-03-09T10:36:33.423Z</time>
      </trkpt>
      <trkpt lat="42.67048" lon="23.5245">
        <ele>582.167627</ele>
        <time>2022-03-09T10:38:03.408Z</time>
      </trkpt>
      <trkpt lat="42.67213" lon="23.5241">
        <ele>578.86072</ele>
        <time>2022-03-09T10:39:05.407Z</time>
      </trkpt>
      <trkpt lat="42.6742" lon="23.52264">
        <ele>575.888726</ele>
        <time>2022-03-09T10:40:08.437Z</time>
      </trkpt>
      <trkpt lat="42.67639" lon="23.52208">
        <ele>576.122907</ele>
        <time>2022-03-09T10:41:08.389Z</time>
      </trkpt>
      <trkpt lat="42.67869" lon="23.52156">
        <ele>575.202741</ele>
        <time>2022-03-09T10:42:11.400Z</time>
      </trkpt>
      <trkpt lat="42.68056" lon="23.52068">
        <ele>573.871309</ele>
        <time>2022-03-09T10:43:10.403Z</time>
      </trkpt>
      <trkpt lat="42.68157" lon="23.51779">
        <ele>571.278152</ele>
        <time>2022-03-09T10:44:07.415Z</time>
      </trkpt>
      <trkpt lat="42.68254" lon="23.5149">
        <ele>570.63826</ele>
        <time>2022-03-09T10:45:10.407Z</time>
      </trkpt>
      <trkpt lat="42.68348" lon="23.51228">
        <ele>572.979442</ele>
        <time>2022-03-09T10:46:10.417Z</time>
      </trkpt>
      <trkpt lat="42.68472" lon="23.5099">
        <ele>570.237222</ele>
        <time>2022-03-09T10:47:10.448Z</time>
      </trkpt>
      <trkpt lat="42.68617" lon="23.50761">
        <ele>570.2904</ele>
        <time>2022-03-09T10:48:21.404Z</time>
      </trkpt>
      <trkpt lat="42.68745" lon="23.5056">
        <ele>571.358811</ele>
        <time>2022-03-09T10:49:22.400Z</time>
      </trkpt>
      <trkpt lat="42.68879" lon="23.50337">
        <ele>570.657325</ele>
        <time>2022-03-09T10:50:25.420Z</time>
      </trkpt>
      <trkpt lat="42.69004" lon="23.50115">
        <ele>570.071803</ele>
        <time>2022-03-09T10:51:31.409Z</time>
      </trkpt>
      <trkpt lat="42.69085" lon="23.49875">
        <ele>569.510359</ele>
        <time>2022-03-09T10:52:31.411Z</time>
      </trkpt>
      <trkpt lat="42.69202" lon="23.49637">
        <ele>569.21427</ele>
        <time>2022-03-09T10:53:37.419Z</time>
      </trkpt>
      <trkpt lat="42.69315" lon="23.49405">
        <ele>569.074747</ele>
        <time>2022-03-09T10:54:40.392Z</time>
      </trkpt>
      <trkpt lat="42.69515" lon="23.49493">
        <ele>568.773662</ele>
        <time>2022-03-09T10:55:40.387Z</time>
      </trkpt>
      <trkpt lat="42.69707" lon="23.49577">
        <ele>569.343596</ele>
        <time>2022-03-09T10:56:38.396Z</time>
      </trkpt>
      <trkpt lat="42.69834" lon="23.49321">
        <ele>568.468227</ele>
        <time>2022-03-09T10:57:38.401Z</time>
      </trkpt>
      <trkpt lat="42.70021" lon="23.49243">
        <ele>566.889461</ele>
        <time>2022-03-09T10:58:40.421Z</time>
      </trkpt>
      <trkpt lat="42.7024" lon="23.49297">
        <ele>564.903881</ele>
        <time>2022-03-09T10:59:30.399Z</time>
      </trkpt>
      <trkpt lat="42.70464" lon="23.49235">
        <ele>566.228407</ele>
        <time>2022-03-09T11:00:27.408Z</time>
      </trkpt>
      <trkpt lat="42.70518" lon="23.48943">
        <ele>569.650987</ele>
        <time>2022-03-09T11:01:30.383Z</time>
      </trkpt>
      <trkpt lat="42.70559" lon="23.48677">
        <ele>568.609638</ele>
        <time>2022-03-09T11:02:54.394Z</time>
      </trkpt>
      <trkpt lat="42.70572" lon="23.48334">
        <ele>564.265103</ele>
        <time>2022-03-09T11:03:57.432Z</time>
      </trkpt>
      <trkpt lat="42.70592" lon="23.48007">
        <ele>553.364125</ele>
        <time>2022-03-09T11:04:57.440Z</time>
      </trkpt>
      <trkpt lat="42.7061" lon="23.47691">
        <ele>554.610715</ele>
        <time>2022-03-09T11:05:52.394Z</time>
      </trkpt>
      <trkpt lat="42.7063" lon="23.47358">
        <ele>555.841146</ele>
        <time>2022-03-09T11:06:48.408Z</time>
      </trkpt>
      <trkpt lat="42.70655" lon="23.47045">
        <ele>559.237997</ele>
        <time>2022-03-09T11:07:41.404Z</time>
      </trkpt>
      <trkpt lat="42.70809" lon="23.46825">
        <ele>565.144249</ele>
        <time>2022-03-09T11:08:42.414Z</time>
      </trkpt>
      <trkpt lat="42.70968" lon="23.46628">
        <ele>564.142235</ele>
        <time>2022-03-09T11:10:03.411Z</time>
      </trkpt>
      <trkpt lat="42.70942" lon="23.46331">
        <ele>554.545591</ele>
        <time>2022-03-09T11:10:46.429Z</time>
      </trkpt>
      <trkpt lat="42.7079" lon="23.46107">
        <ele>552.909625</ele>
        <time>2022-03-09T11:11:37.415Z</time>
      </trkpt>
      <trkpt lat="42.70763" lon="23.45816">
        <ele>570.199009</ele>
        <time>2022-03-09T11:12:38.409Z</time>
      </trkpt>
      <trkpt lat="42.70754" lon="23.45618">
        <ele>575.192144</ele>
        <time>2022-03-09T11:45:43.426Z</time>
      </trkpt>
      <trkpt lat="42.70775" lon="23.45265">
        <ele>565.494727</ele>
        <time>2022-03-09T11:46:46.425Z</time>
      </trkpt>
      <trkpt lat="42.70792" lon="23.44947">
        <ele>563.888597</ele>
        <time>2022-03-09T11:47:41.420Z</time>
      </trkpt>
      <trkpt lat="42.70818" lon="23.4466">
        <ele>564.634882</ele>
        <time>2022-03-09T11:48:23.412Z</time>
      </trkpt>
      <trkpt lat="42.70832" lon="23.44375">
        <ele>565.240414</ele>
        <time>2022-03-09T11:49:06.419Z</time>
      </trkpt>
      <trkpt lat="42.70849" lon="23.44077">
        <ele>565.808051</ele>
        <time>2022-03-09T11:49:55.416Z</time>
      </trkpt>
      <trkpt lat="42.70865" lon="23.4379">
        <ele>563.527446</ele>
        <time>2022-03-09T11:50:41.416Z</time>
      </trkpt>
      <trkpt lat="42.70889" lon="23.43474">
        <ele>565.652657</ele>
        <time>2022-03-09T11:51:34.432Z</time>
      </trkpt>
      <trkpt lat="42.70913" lon="23.43147">
        <ele>569.33125</ele>
        <time>2022-03-09T11:52:34.404Z</time>
      </trkpt>
      <trkpt lat="42.70774" lon="23.43297">
        <ele>566.120435</ele>
        <time>2022-03-09T11:54:14.397Z</time>
      </trkpt>
      <trkpt lat="42.70574" lon="23.43396">
        <ele>565.537517</ele>
        <time>2022-03-09T11:55:14.416Z</time>
      </trkpt>
      <trkpt lat="42.70424" lon="23.436">
        <ele>566.290204</ele>
        <time>2022-03-09T11:56:17.412Z</time>
      </trkpt>
      <trkpt lat="42.70275" lon="23.43855">
        <ele>568.697888</ele>
        <time>2022-03-09T11:57:17.451Z</time>
      </trkpt>
      <trkpt lat="42.70121" lon="23.44117">
        <ele>569.313622</ele>
        <time>2022-03-09T11:58:13.412Z</time>
      </trkpt>
      <trkpt lat="42.69903" lon="23.44288">
        <ele>571.926841</ele>
        <time>2022-03-09T11:59:15.425Z</time>
      </trkpt>
      <trkpt lat="42.69718" lon="23.44425">
        <ele>572.948602</ele>
        <time>2022-03-09T12:00:02.443Z</time>
      </trkpt>
      <trkpt lat="42.69496" lon="23.44589">
        <ele>571.974718</ele>
        <time>2022-03-09T12:01:01.425Z</time>
      </trkpt>
      <trkpt lat="42.69271" lon="23.4467">
        <ele>572.09586</ele>
        <time>2022-03-09T12:01:56.427Z</time>
      </trkpt>
      <trkpt lat="42.69081" lon="23.44862">
        <ele>570.865758</ele>
        <time>2022-03-09T12:02:56.397Z</time>
      </trkpt>
      <trkpt lat="42.68926" lon="23.45074">
        <ele>568.30133</ele>
        <time>2022-03-09T12:03:44.423Z</time>
      </trkpt>
      <trkpt lat="42.68742" lon="23.45195">
        <ele>573.29577</ele>
        <time>2022-03-09T12:04:45.468Z</time>
      </trkpt>
      <trkpt lat="42.68638" lon="23.45428">
        <ele>576.523252</ele>
        <time>2022-03-09T12:06:03.415Z</time>
      </trkpt>
      <trkpt lat="42.68445" lon="23.45719">
        <ele>570.366596</ele>
        <time>2022-03-09T12:06:45.425Z</time>
      </trkpt>
      <trkpt lat="42.68335" lon="23.45967">
        <ele>573.798492</ele>
        <time>2022-03-09T12:07:33.422Z</time>
      </trkpt>
      <trkpt lat="42.68254" lon="23.46225">
        <ele>572.323169</ele>
        <time>2022-03-09T12:08:18.413Z</time>
      </trkpt>
      <trkpt lat="42.68061" lon="23.46405">
        <ele>572.284929</ele>
        <time>2022-03-09T12:09:11.413Z</time>
      </trkpt>
      <trkpt lat="42.67847" lon="23.46475">
        <ele>578.001438</ele>
        <time>2022-03-09T12:10:07.419Z</time>
      </trkpt>
      <trkpt lat="42.67593" lon="23.46466">
        <ele>582.912768</ele>
        <time>2022-03-09T12:11:10.468Z</time>
      </trkpt>
      <trkpt lat="42.67377" lon="23.46565">
        <ele>580.748967</ele>
        <time>2022-03-09T12:12:11.429Z</time>
      </trkpt>
      <trkpt lat="42.67164" lon="23.46495">
        <ele>583.528794</ele>
        <time>2022-03-09T12:13:11.422Z</time>
      </trkpt>
      <trkpt lat="42.66929" lon="23.46416">
        <ele>586.620933</ele>
        <time>2022-03-09T12:14:14.419Z</time>
      </trkpt>
      <trkpt lat="42.66726" lon="23.46313">
        <ele>588.120506</ele>
        <time>2022-03-09T12:15:14.397Z</time>
      </trkpt>
      <trkpt lat="42.66515" lon="23.46195">
        <ele>591.907978</ele>
        <time>2022-03-09T12:16:17.410Z</time>
      </trkpt>
      <trkpt lat="42.66489" lon="23.45994">
        <ele>597.031524</ele>
        <time>2022-03-09T12:17:17.405Z</time>
      </trkpt>
      <trkpt lat="42.66509" lon="23.45722">
        <ele>604.512232</ele>
        <time>2022-03-09T12:18:47.440Z</time>
      </trkpt>
      <trkpt lat="42.66487" lon="23.45373">
        <ele>601.062126</ele>
        <time>2022-03-09T12:19:42.436Z</time>
      </trkpt>
      <trkpt lat="42.66569" lon="23.45109">
        <ele>590.93958</ele>
        <time>2022-03-09T12:20:34.424Z</time>
      </trkpt>
      <trkpt lat="42.66718" lon="23.44875">
        <ele>579.037198</ele>
        <time>2022-03-09T12:21:29.499Z</time>
      </trkpt>
      <trkpt lat="42.66849" lon="23.44627">
        <ele>585.761538</ele>
        <time>2022-03-09T12:22:20.407Z</time>
      </trkpt>
      <trkpt lat="42.66976" lon="23.44388">
        <ele>587.467321</ele>
        <time>2022-03-09T12:23:08.401Z</time>
      </trkpt>
      <trkpt lat="42.67125" lon="23.44105">
        <ele>583.132818</ele>
        <time>2022-03-09T12:24:08.415Z</time>
      </trkpt>
      <trkpt lat="42.67247" lon="23.43872">
        <ele>592.171394</ele>
        <time>2022-03-09T12:25:02.413Z</time>
      </trkpt>
      <trkpt lat="42.67381" lon="23.43618">
        <ele>596.837997</ele>
        <time>2022-03-09T12:25:58.412Z</time>
      </trkpt>
      <trkpt lat="42.67538" lon="23.43385">
        <ele>603.865152</ele>
        <time>2022-03-09T12:26:59.393Z</time>
      </trkpt>
      <trkpt lat="42.67492" lon="23.43173">
        <ele>595.570891</ele>
        <time>2022-03-09T12:27:59.424Z</time>
      </trkpt>
      <trkpt lat="42.67321" lon="23.42976">
        <ele>590.553816</ele>
        <time>2022-03-09T12:28:50.424Z</time>
      </trkpt>
      <trkpt lat="42.6713" lon="23.42771">
        <ele>588.421596</ele>
        <time>2022-03-09T12:29:53.422Z</time>
      </trkpt>
      <trkpt lat="42.66946" lon="23.42588">
        <ele>589.200402</ele>
        <time>2022-03-09T12:30:53.402Z</time>
      </trkpt>
      <trkpt lat="42.66763" lon="23.42401">
        <ele>586.829326</ele>
        <time>2022-03-09T12:31:56.413Z</time>
      </trkpt>
      <trkpt lat="42.66563" lon="23.42237">
        <ele>596.080188</ele>
        <time>2022-03-09T12:32:56.408Z</time>
      </trkpt>
      <trkpt lat="42.66503" lon="23.41972">
        <ele>603.090818</ele>
        <time>2022-03-09T12:33:53.411Z</time>
      </trkpt>
      <trkpt lat="42.66269" lon="23.41969">
        <ele>589.293088</ele>
        <time>2022-03-09T12:34:41.416Z</time>
      </trkpt>
      <trkpt lat="42.66241" lon="23.41748">
        <ele>611.832067</ele>
        <time>2022-03-09T12:35:44.430Z</time>
      </trkpt>
      <trkpt lat="42.66307" lon="23.41462">
        <ele>612.796012</ele>
        <time>2022-03-09T12:36:47.453Z</time>
      </trkpt>
      <trkpt lat="42.66389" lon="23.4116">
        <ele>601.862279</ele>
        <time>2022-03-09T12:37:51.429Z</time>
      </trkpt>
      <trkpt lat="42.66481" lon="23.40872">
        <ele>597.687928</ele>
        <time>2022-03-09T12:38:48.417Z</time>
      </trkpt>
      <trkpt lat="42.66615" lon="23.40605">
        <ele>595.149155</ele>
        <time>2022-03-09T12:39:53.428Z</time>
      </trkpt>
      <trkpt lat="42.66749" lon="23.40336">
        <ele>595.071273</ele>
        <time>2022-03-09T12:40:49.436Z</time>
      </trkpt>
      <trkpt lat="42.66873" lon="23.40098">
        <ele>597.963846</ele>
        <time>2022-03-09T12:41:53.463Z</time>
      </trkpt>
      <trkpt lat="42.67007" lon="23.39836">
        <ele>601.084279</ele>
        <time>2022-03-09T12:42:48.429Z</time>
      </trkpt>
      <trkpt lat="42.67131" lon="23.39574">
        <ele>587.90438</ele>
        <time>2022-03-09T12:43:45.433Z</time>
      </trkpt>
      <trkpt lat="42.67201" lon="23.39266">
        <ele>589.367891</ele>
        <time>2022-03-09T12:44:41.437Z</time>
      </trkpt>
      <trkpt lat="42.67258" lon="23.38949">
        <ele>597.741448</ele>
        <time>2022-03-09T12:45:41.439Z</time>
      </trkpt>
      <trkpt lat="42.67311" lon="23.38659">
        <ele>596.835691</ele>
        <time>2022-03-09T12:46:39.445Z</time>
      </trkpt>
      <trkpt lat="42.67367" lon="23.38343">
        <ele>590.981532</ele>
        <time>2022-03-09T12:47:45.445Z</time>
      </trkpt>
      <trkpt lat="42.67489" lon="23.38188">
        <ele>587.006751</ele>
        <time>2022-03-09T12:49:26.429Z</time>
      </trkpt>
      <trkpt lat="42.6761" lon="23.38047">
        <ele>591.281204</ele>
        <time>2022-03-09T12:50:26.443Z</time>
      </trkpt>
      <trkpt lat="42.67809" lon="23.3788">
        <ele>585.459581</ele>
        <time>2022-03-09T12:51:28.448Z</time>
      </trkpt>
      <trkpt lat="42.67995" lon="23.37828">
        <ele>589.067848</ele>
        <time>2022-03-09T12:52:20.463Z</time>
      </trkpt>
      <trkpt lat="42.68039" lon="23.37514">
        <ele>595.791485</ele>
        <time>2022-03-09T12:53:19.433Z</time>
      </trkpt>
      <trkpt lat="42.68069" lon="23.37212">
        <ele>601.870761</ele>
        <time>2022-03-09T12:54:41.444Z</time>
      </trkpt>
      <trkpt lat="42.68163" lon="23.3697">
        <ele>608.126251</ele>
        <time>2022-03-09T12:56:04.429Z</time>
      </trkpt>
      <trkpt lat="42.68248" lon="23.36722">
        <ele>621.417683</ele>
        <time>2022-03-09T12:57:57.453Z</time>
      </trkpt>
      <trkpt lat="42.68284" lon="23.36451">
        <ele>630.007834</ele>
        <time>2022-03-09T12:59:00.464Z</time>
      </trkpt>
      <trkpt lat="42.68348" lon="23.36189">
        <ele>624.357928</ele>
        <time>2022-03-09T13:00:12.468Z</time>
      </trkpt>
      <trkpt lat="42.68441" lon="23.35915">
        <ele>631.204649</ele>
        <time>2022-03-09T13:01:18.429Z</time>
      </trkpt>
      <trkpt lat="42.68522" lon="23.35646">
        <ele>633.321163</ele>
        <time>2022-03-09T13:02:22.449Z</time>
      </trkpt>
      <trkpt lat="42.68628" lon="23.3539">
        <ele>628.780277</ele>
        <time>2022-03-09T13:03:09.447Z</time>
      </trkpt>
      <trkpt lat="42.68646" lon="23.35129">
        <ele>606.714458</ele>
        <time>2022-03-09T13:05:19.484Z</time>
      </trkpt>
      <trkpt lat="42.68653" lon="23.34894">
        <ele>602.94548</ele>
        <time>2022-03-09T13:06:09.422Z</time>
      </trkpt>
      <trkpt lat="42.68789" lon="23.3468">
        <ele>605.14649</ele>
        <time>2022-03-09T13:07:31.441Z</time>
      </trkpt>
      <trkpt lat="42.68925" lon="23.34671">
        <ele>611.717757</ele>
        <time>2022-03-09T13:09:05.418Z</time>
      </trkpt>
      <trkpt lat="42.68948" lon="23.34475">
        <ele>603.405559</ele>
        <time>2022-03-09T13:10:29.432Z</time>
      </trkpt>
      <trkpt lat="42.68971" lon="23.34241">
        <ele>603.369249</ele>
        <time>2022-03-09T13:11:58.436Z</time>
      </trkpt>
      <trkpt lat="42.6903" lon="23.33979">
        <ele>612.49866</ele>
        <time>2022-03-09T13:13:28.424Z</time>
      </trkpt>
      <trkpt lat="42.69065" lon="23.33695">
        <ele>587.123195</ele>
        <time>2022-03-09T13:15:13.435Z</time>
      </trkpt>
      <trkpt lat="42.68924" lon="23.33473">
        <ele>585.537062</ele>
        <time>2022-03-09T13:16:21.427Z</time>
      </trkpt>
      <trkpt lat="42.68946" lon="23.33256">
        <ele>587.678676</ele>
        <time>2022-03-09T13:17:21.449Z</time>
      </trkpt>
      <trkpt lat="42.69069" lon="23.33018">
        <ele>593.922556</ele>
        <time>2022-03-09T13:18:46.444Z</time>
      </trkpt>
      <trkpt lat="42.69142" lon="23.32978">
        <ele>593.922556</ele>
        <time>2022-03-09T13:19:56.965Z</time>
      </trkpt>
    </trkseg>
  </trk>
  <trk>
    <name><![CDATA[Tour d'Europe: étape 618]]></name>
    <extensions>
      <line xmlns="http://www.topografix.com/GPX/gpx_style/0/2">
        <color>FF0000</color>
        <width>4</width>
      </line>
    </extensions>
    <trkseg>
      <trkpt lat="42.51111" lon="24.18241">
        <ele>582.730514</ele>
        <time>2022-03-08T07:07:22.544Z</time>
      </trkpt>
      <trkpt lat="42.51079" lon="24.1818">
        <ele>583.950009</ele>
        <time>2022-03-08T07:16:55.679Z</time>
      </trkpt>
      <trkpt lat="42.50889" lon="24.18053">
        <ele>586.598289</ele>
        <time>2022-03-08T07:17:41.690Z</time>
      </trkpt>
      <trkpt lat="42.50713" lon="24.17886">
        <ele>587.585714</ele>
        <time>2022-03-08T07:18:42.717Z</time>
      </trkpt>
      <trkpt lat="42.50672" lon="24.17641">
        <ele>590.059681</ele>
        <time>2022-03-08T07:19:53.686Z</time>
      </trkpt>
      <trkpt lat="42.50535" lon="24.17443">
        <ele>598.261319</ele>
        <time>2022-03-08T07:21:04.680Z</time>
      </trkpt>
      <trkpt lat="42.50404" lon="24.17245">
        <ele>588.602159</ele>
        <time>2022-03-08T07:21:55.686Z</time>
      </trkpt>
      <trkpt lat="42.50404" lon="24.16963">
        <ele>591.222957</ele>
        <time>2022-03-08T07:23:03.704Z</time>
      </trkpt>
      <trkpt lat="42.50452" lon="24.16679">
        <ele>593.643227</ele>
        <time>2022-03-08T07:24:23.712Z</time>
      </trkpt>
      <trkpt lat="42.50495" lon="24.16422">
        <ele>598.773117</ele>
        <time>2022-03-08T07:25:39.693Z</time>
      </trkpt>
      <trkpt lat="42.5056" lon="24.16167">
        <ele>605.477515</ele>
        <time>2022-03-08T07:27:17.696Z</time>
      </trkpt>
      <trkpt lat="42.50588" lon="24.15921">
        <ele>607.615321</ele>
        <time>2022-03-08T07:28:39.753Z</time>
      </trkpt>
      <trkpt lat="42.5063" lon="24.15654">
        <ele>609.008012</ele>
        <time>2022-03-08T07:30:01.702Z</time>
      </trkpt>
      <trkpt lat="42.50696" lon="24.15416">
        <ele>616.571997</ele>
        <time>2022-03-08T07:31:39.694Z</time>
      </trkpt>
      <trkpt lat="42.5075" lon="24.15167">
        <ele>626.451482</ele>
        <time>2022-03-08T07:33:43.697Z</time>
      </trkpt>
      <trkpt lat="42.50821" lon="24.14937">
        <ele>637.096807</ele>
        <time>2022-03-08T07:35:30.709Z</time>
      </trkpt>
      <trkpt lat="42.50815" lon="24.14686">
        <ele>651.865087</ele>
        <time>2022-03-08T07:37:23.699Z</time>
      </trkpt>
      <trkpt lat="42.50799" lon="24.14426">
        <ele>661.982578</ele>
        <time>2022-03-08T07:39:30.693Z</time>
      </trkpt>
      <trkpt lat="42.50874" lon="24.14202">
        <ele>667.847355</ele>
        <time>2022-03-08T07:41:05.703Z</time>
      </trkpt>
      <trkpt lat="42.50956" lon="24.13957">
        <ele>672.629091</ele>
        <time>2022-03-08T07:42:35.713Z</time>
      </trkpt>
      <trkpt lat="42.50952" lon="24.13687">
        <ele>680.875797</ele>
        <time>2022-03-08T07:43:56.703Z</time>
      </trkpt>
      <trkpt lat="42.50888" lon="24.13432">
        <ele>687.387137</ele>
        <time>2022-03-08T07:45:27.724Z</time>
      </trkpt>
      <trkpt lat="42.50885" lon="24.13175">
        <ele>684.659652</ele>
        <time>2022-03-08T07:46:55.708Z</time>
      </trkpt>
      <trkpt lat="42.50965" lon="24.12905">
        <ele>685.187766</ele>
        <time>2022-03-08T07:47:48.698Z</time>
      </trkpt>
      <trkpt lat="42.50996" lon="24.12598">
        <ele>683.074838</ele>
        <time>2022-03-08T07:48:26.721Z</time>
      </trkpt>
      <trkpt lat="42.51038" lon="24.12346">
        <ele>671.986962</ele>
        <time>2022-03-08T07:48:47.735Z</time>
      </trkpt>
      <trkpt lat="42.51112" lon="24.12082">
        <ele>654.901278</ele>
        <time>2022-03-08T07:49:10.703Z</time>
      </trkpt>
      <trkpt lat="42.5118" lon="24.11789">
        <ele>635.790367</ele>
        <time>2022-03-08T07:49:38.712Z</time>
      </trkpt>
      <trkpt lat="42.51229" lon="24.11529">
        <ele>620.31058</ele>
        <time>2022-03-08T07:49:59.752Z</time>
      </trkpt>
      <trkpt lat="42.51253" lon="24.11219">
        <ele>609.768578</ele>
        <time>2022-03-08T07:50:47.720Z</time>
      </trkpt>
      <trkpt lat="42.51136" lon="24.10955">
        <ele>615.393412</ele>
        <time>2022-03-08T07:51:33.697Z</time>
      </trkpt>
      <trkpt lat="42.50997" lon="24.10686">
        <ele>607.023746</ele>
        <time>2022-03-08T07:52:11.717Z</time>
      </trkpt>
      <trkpt lat="42.51147" lon="24.10469">
        <ele>604.023329</ele>
        <time>2022-03-08T07:53:01.720Z</time>
      </trkpt>
      <trkpt lat="42.51256" lon="24.10259">
        <ele>620.811871</ele>
        <time>2022-03-08T07:54:37.705Z</time>
      </trkpt>
      <trkpt lat="42.51334" lon="24.10036">
        <ele>636.708499</ele>
        <time>2022-03-08T07:56:55.703Z</time>
      </trkpt>
      <trkpt lat="42.51433" lon="24.09819">
        <ele>647.115496</ele>
        <time>2022-03-08T07:59:47.704Z</time>
      </trkpt>
      <trkpt lat="42.51524" lon="24.0961">
        <ele>664.932429</ele>
        <time>2022-03-08T08:02:28.698Z</time>
      </trkpt>
      <trkpt lat="42.51547" lon="24.09358">
        <ele>682.813647</ele>
        <time>2022-03-08T08:05:15.689Z</time>
      </trkpt>
      <trkpt lat="42.51541" lon="24.09106">
        <ele>691.654741</ele>
        <time>2022-03-08T08:07:31.721Z</time>
      </trkpt>
      <trkpt lat="42.51557" lon="24.08847">
        <ele>695.629701</ele>
        <time>2022-03-08T08:09:38.712Z</time>
      </trkpt>
      <trkpt lat="42.51604" lon="24.08622">
        <ele>707.717384</ele>
        <time>2022-03-08T08:11:44.712Z</time>
      </trkpt>
      <trkpt lat="42.51681" lon="24.08401">
        <ele>721.163947</ele>
        <time>2022-03-08T08:13:47.719Z</time>
      </trkpt>
      <trkpt lat="42.51571" lon="24.0819">
        <ele>727.281839</ele>
        <time>2022-03-08T08:15:09.740Z</time>
      </trkpt>
      <trkpt lat="42.51565" lon="24.07885">
        <ele>721.529228</ele>
        <time>2022-03-08T08:15:47.711Z</time>
      </trkpt>
      <trkpt lat="42.51648" lon="24.076">
        <ele>704.25713</ele>
        <time>2022-03-08T08:16:27.724Z</time>
      </trkpt>
      <trkpt lat="42.51725" lon="24.07337">
        <ele>693.323248</ele>
        <time>2022-03-08T08:17:07.701Z</time>
      </trkpt>
      <trkpt lat="42.51852" lon="24.07093">
        <ele>680.812509</ele>
        <time>2022-03-08T08:17:49.762Z</time>
      </trkpt>
      <trkpt lat="42.51745" lon="24.06944">
        <ele>669.159458</ele>
        <time>2022-03-08T08:18:28.746Z</time>
      </trkpt>
      <trkpt lat="42.51571" lon="24.0673">
        <ele>651.463271</ele>
        <time>2022-03-08T08:19:08.706Z</time>
      </trkpt>
      <trkpt lat="42.51414" lon="24.06458">
        <ele>644.815447</ele>
        <time>2022-03-08T08:19:46.724Z</time>
      </trkpt>
      <trkpt lat="42.51265" lon="24.06183">
        <ele>634.846036</ele>
        <time>2022-03-08T08:20:26.696Z</time>
      </trkpt>
      <trkpt lat="42.51152" lon="24.05922">
        <ele>622.600971</ele>
        <time>2022-03-08T08:21:04.714Z</time>
      </trkpt>
      <trkpt lat="42.51123" lon="24.0559">
        <ele>608.905861</ele>
        <time>2022-03-08T08:21:42.703Z</time>
      </trkpt>
      <trkpt lat="42.51117" lon="24.05274">
        <ele>595.364707</ele>
        <time>2022-03-08T08:22:22.713Z</time>
      </trkpt>
      <trkpt lat="42.51131" lon="24.0494">
        <ele>586.426435</ele>
        <time>2022-03-08T08:23:00.701Z</time>
      </trkpt>
      <trkpt lat="42.50999" lon="24.04709">
        <ele>575.996527</ele>
        <time>2022-03-08T08:23:41.722Z</time>
      </trkpt>
      <trkpt lat="42.50885" lon="24.0447">
        <ele>570.327305</ele>
        <time>2022-03-08T08:24:19.724Z</time>
      </trkpt>
      <trkpt lat="42.50724" lon="24.04258">
        <ele>575.866175</ele>
        <time>2022-03-08T08:25:13.700Z</time>
      </trkpt>
      <trkpt lat="42.50586" lon="24.04078">
        <ele>574.34152</ele>
        <time>2022-03-08T08:26:18.726Z</time>
      </trkpt>
      <trkpt lat="42.50559" lon="24.03767">
        <ele>562.053794</ele>
        <time>2022-03-08T08:27:04.728Z</time>
      </trkpt>
      <trkpt lat="42.50665" lon="24.0341">
        <ele>550.039766</ele>
        <time>2022-03-08T08:27:42.724Z</time>
      </trkpt>
      <trkpt lat="42.5073" lon="24.03015">
        <ele>543.245258</ele>
        <time>2022-03-08T08:28:21.715Z</time>
      </trkpt>
      <trkpt lat="42.50617" lon="24.02751">
        <ele>531.741804</ele>
        <time>2022-03-08T08:29:07.714Z</time>
      </trkpt>
      <trkpt lat="42.5055" lon="24.02483">
        <ele>526.301704</ele>
        <time>2022-03-08T08:29:48.699Z</time>
      </trkpt>
      <trkpt lat="42.50496" lon="24.02195">
        <ele>529.345869</ele>
        <time>2022-03-08T08:30:39.760Z</time>
      </trkpt>
      <trkpt lat="42.50412" lon="24.01899">
        <ele>519.602949</ele>
        <time>2022-03-08T08:31:17.759Z</time>
      </trkpt>
      <trkpt lat="42.50388" lon="24.01549">
        <ele>508.366961</ele>
        <time>2022-03-08T08:31:57.710Z</time>
      </trkpt>
      <trkpt lat="42.50389" lon="24.01253">
        <ele>499.637627</ele>
        <time>2022-03-08T08:32:49.724Z</time>
      </trkpt>
      <trkpt lat="42.50417" lon="24.00905">
        <ele>494.696839</ele>
        <time>2022-03-08T08:33:29.710Z</time>
      </trkpt>
      <trkpt lat="42.50388" lon="24.00629">
        <ele>489.172579</ele>
        <time>2022-03-08T08:34:24.714Z</time>
      </trkpt>
      <trkpt lat="42.5035" lon="24.00325">
        <ele>478.726779</ele>
        <time>2022-03-08T08:35:08.694Z</time>
      </trkpt>
      <trkpt lat="42.50277" lon="24.00066">
        <ele>470.239118</ele>
        <time>2022-03-08T08:35:54.710Z</time>
      </trkpt>
      <trkpt lat="42.50441" lon="23.99987">
        <ele>465.376027</ele>
        <time>2022-03-08T08:37:11.706Z</time>
      </trkpt>
      <trkpt lat="42.50645" lon="23.99935">
        <ele>460.407252</ele>
        <time>2022-03-08T08:38:19.710Z</time>
      </trkpt>
      <trkpt lat="42.50843" lon="23.9996">
        <ele>458.682142</ele>
        <time>2022-03-08T08:39:16.693Z</time>
      </trkpt>
      <trkpt lat="42.51046" lon="24.00044">
        <ele>455.19043</ele>
        <time>2022-03-08T08:40:15.714Z</time>
      </trkpt>
      <trkpt lat="42.51234" lon="24.00136">
        <ele>446.743441</ele>
        <time>2022-03-08T08:41:12.710Z</time>
      </trkpt>
      <trkpt lat="42.51442" lon="24.00221">
        <ele>451.922472</ele>
        <time>2022-03-08T08:42:15.716Z</time>
      </trkpt>
      <trkpt lat="42.51647" lon="24.00151">
        <ele>460.858274</ele>
        <time>2022-03-08T08:43:12.718Z</time>
      </trkpt>
      <trkpt lat="42.51788" lon="23.99952">
        <ele>460.838239</ele>
        <time>2022-03-08T08:44:13.704Z</time>
      </trkpt>
      <trkpt lat="42.51992" lon="23.99923">
        <ele>456.578623</ele>
        <time>2022-03-08T08:45:14.710Z</time>
      </trkpt>
      <trkpt lat="42.52125" lon="24.00135">
        <ele>455.741169</ele>
        <time>2022-03-08T08:46:08.710Z</time>
      </trkpt>
      <trkpt lat="42.52279" lon="24.00306">
        <ele>460.196027</ele>
        <time>2022-03-08T08:47:28.716Z</time>
      </trkpt>
      <trkpt lat="42.52464" lon="24.0025">
        <ele>472.086513</ele>
        <time>2022-03-08T08:48:54.714Z</time>
      </trkpt>
      <trkpt lat="42.52613" lon="24.00089">
        <ele>487.219411</ele>
        <time>2022-03-08T08:50:30.719Z</time>
      </trkpt>
      <trkpt lat="42.52759" lon="23.9994">
        <ele>487.196411</ele>
        <time>2022-03-08T08:52:13.715Z</time>
      </trkpt>
      <trkpt lat="42.52941" lon="23.99923">
        <ele>496.736234</ele>
        <time>2022-03-08T08:53:53.722Z</time>
      </trkpt>
      <trkpt lat="42.53106" lon="24.00019">
        <ele>499.187228</ele>
        <time>2022-03-08T08:54:57.711Z</time>
      </trkpt>
      <trkpt lat="42.53182" lon="23.99714">
        <ele>486.281311</ele>
        <time>2022-03-08T08:55:38.713Z</time>
      </trkpt>
      <trkpt lat="42.53384" lon="23.99563">
        <ele>475.543137</ele>
        <time>2022-03-08T08:56:21.721Z</time>
      </trkpt>
      <trkpt lat="42.536" lon="23.99547">
        <ele>474.298575</ele>
        <time>2022-03-08T08:57:20.722Z</time>
      </trkpt>
      <trkpt lat="42.53793" lon="23.99425">
        <ele>484.854511</ele>
        <time>2022-03-08T08:58:21.738Z</time>
      </trkpt>
      <trkpt lat="42.53905" lon="23.99208">
        <ele>491.276488</ele>
        <time>2022-03-08T08:59:18.719Z</time>
      </trkpt>
      <trkpt lat="42.54055" lon="23.98978">
        <ele>486.626557</ele>
        <time>2022-03-08T09:00:18.751Z</time>
      </trkpt>
      <trkpt lat="42.54244" lon="23.98859">
        <ele>476.207753</ele>
        <time>2022-03-08T09:01:16.723Z</time>
      </trkpt>
      <trkpt lat="42.54461" lon="23.98813">
        <ele>487.067376</ele>
        <time>2022-03-08T09:02:14.720Z</time>
      </trkpt>
      <trkpt lat="42.54672" lon="23.98862">
        <ele>480.646946</ele>
        <time>2022-03-08T09:03:12.721Z</time>
      </trkpt>
      <trkpt lat="42.54883" lon="23.98917">
        <ele>472.051118</ele>
        <time>2022-03-08T09:04:12.715Z</time>
      </trkpt>
      <trkpt lat="42.55069" lon="23.9904">
        <ele>477.282014</ele>
        <time>2022-03-08T09:05:12.736Z</time>
      </trkpt>
      <trkpt lat="42.55214" lon="23.9921">
        <ele>484.48183</ele>
        <time>2022-03-08T09:06:19.723Z</time>
      </trkpt>
      <trkpt lat="42.55352" lon="23.993">
        <ele>483.209623</ele>
        <time>2022-03-08T09:07:30.732Z</time>
      </trkpt>
      <trkpt lat="42.55521" lon="23.99153">
        <ele>482.622692</ele>
        <time>2022-03-08T09:08:34.708Z</time>
      </trkpt>
      <trkpt lat="42.55719" lon="23.99129">
        <ele>485.49464</ele>
        <time>2022-03-08T09:09:40.755Z</time>
      </trkpt>
      <trkpt lat="42.55903" lon="23.99078">
        <ele>482.915002</ele>
        <time>2022-03-08T09:10:39.721Z</time>
      </trkpt>
      <trkpt lat="42.56125" lon="23.99027">
        <ele>478.50445</ele>
        <time>2022-03-08T09:11:42.711Z</time>
      </trkpt>
      <trkpt lat="42.56338" lon="23.98971">
        <ele>475.974034</ele>
        <time>2022-03-08T09:12:37.740Z</time>
      </trkpt>
      <trkpt lat="42.56559" lon="23.98952">
        <ele>483.626486</ele>
        <time>2022-03-08T09:13:37.723Z</time>
      </trkpt>
      <trkpt lat="42.5674" lon="23.99097">
        <ele>493.460091</ele>
        <time>2022-03-08T09:14:36.753Z</time>
      </trkpt>
      <trkpt lat="42.56863" lon="23.99286">
        <ele>498.6739</ele>
        <time>2022-03-08T09:15:55.723Z</time>
      </trkpt>
      <trkpt lat="42.56824" lon="23.99563">
        <ele>495.271484</ele>
        <time>2022-03-08T09:17:16.735Z</time>
      </trkpt>
      <trkpt lat="42.56941" lon="23.99626">
        <ele>495.700896</ele>
        <time>2022-03-08T09:18:45.729Z</time>
      </trkpt>
      <trkpt lat="42.57118" lon="23.99473">
        <ele>497.042024</ele>
        <time>2022-03-08T09:19:54.727Z</time>
      </trkpt>
      <trkpt lat="42.57319" lon="23.99575">
        <ele>493.095411</ele>
        <time>2022-03-08T09:20:32.707Z</time>
      </trkpt>
      <trkpt lat="42.57478" lon="23.99782">
        <ele>495.544205</ele>
        <time>2022-03-08T09:21:27.700Z</time>
      </trkpt>
      <trkpt lat="42.57599" lon="23.99989">
        <ele>496.490028</ele>
        <time>2022-03-08T09:22:27.708Z</time>
      </trkpt>
      <trkpt lat="42.5767" lon="24.00243">
        <ele>499.228486</ele>
        <time>2022-03-08T09:23:38.728Z</time>
      </trkpt>
      <trkpt lat="42.57664" lon="24.00508">
        <ele>498.236848</ele>
        <time>2022-03-08T09:25:01.794Z</time>
      </trkpt>
      <trkpt lat="42.57715" lon="24.00744">
        <ele>501.655753</ele>
        <time>2022-03-08T09:26:18.732Z</time>
      </trkpt>
      <trkpt lat="42.57898" lon="24.00891">
        <ele>505.292384</ele>
        <time>2022-03-08T09:27:35.724Z</time>
      </trkpt>
      <trkpt lat="42.58061" lon="24.00753">
        <ele>503.907314</ele>
        <time>2022-03-08T09:28:29.722Z</time>
      </trkpt>
      <trkpt lat="42.58173" lon="24.00509">
        <ele>506.295358</ele>
        <time>2022-03-08T09:29:41.725Z</time>
      </trkpt>
      <trkpt lat="42.58304" lon="24.00316">
        <ele>507.534702</ele>
        <time>2022-03-08T09:30:41.746Z</time>
      </trkpt>
      <trkpt lat="42.58493" lon="24.00419">
        <ele>506.266759</ele>
        <time>2022-03-08T09:31:41.723Z</time>
      </trkpt>
      <trkpt lat="42.58624" lon="24.00624">
        <ele>510.676715</ele>
        <time>2022-03-08T09:32:48.722Z</time>
      </trkpt>
      <trkpt lat="42.58843" lon="24.00646">
        <ele>517.579439</ele>
        <time>2022-03-08T09:33:45.733Z</time>
      </trkpt>
      <trkpt lat="42.59057" lon="24.00592">
        <ele>510.421502</ele>
        <time>2022-03-08T09:34:42.739Z</time>
      </trkpt>
      <trkpt lat="42.5926" lon="24.00666">
        <ele>501.071304</ele>
        <time>2022-03-08T09:35:44.723Z</time>
      </trkpt>
      <trkpt lat="42.59461" lon="24.00705">
        <ele>504.30697</ele>
        <time>2022-03-08T09:36:41.729Z</time>
      </trkpt>
      <trkpt lat="42.59593" lon="24.00903">
        <ele>513.503602</ele>
        <time>2022-03-08T09:37:54.762Z</time>
      </trkpt>
      <trkpt lat="42.59785" lon="24.00994">
        <ele>511.84091</ele>
        <time>2022-03-08T09:39:05.722Z</time>
      </trkpt>
      <trkpt lat="42.59948" lon="24.01026">
        <ele>510.04529</ele>
        <time>2022-03-08T09:40:09.717Z</time>
      </trkpt>
      <trkpt lat="42.59956" lon="24.01007">
        <ele>507.871717</ele>
        <time>2022-03-08T10:04:31.783Z</time>
      </trkpt>
      <trkpt lat="42.60086" lon="24.00842">
        <ele>514.144138</ele>
        <time>2022-03-08T10:05:46.733Z</time>
      </trkpt>
      <trkpt lat="42.60169" lon="24.01036">
        <ele>532.226597</ele>
        <time>2022-03-08T10:07:45.767Z</time>
      </trkpt>
      <trkpt lat="42.60301" lon="24.01209">
        <ele>538.381379</ele>
        <time>2022-03-08T10:09:09.737Z</time>
      </trkpt>
      <trkpt lat="42.60473" lon="24.01303">
        <ele>533.762246</ele>
        <time>2022-03-08T10:10:19.746Z</time>
      </trkpt>
      <trkpt lat="42.60698" lon="24.01289">
        <ele>532.145388</ele>
        <time>2022-03-08T10:11:09.758Z</time>
      </trkpt>
      <trkpt lat="42.60868" lon="24.0117">
        <ele>533.297431</ele>
        <time>2022-03-08T10:12:07.726Z</time>
      </trkpt>
      <trkpt lat="42.61043" lon="24.01052">
        <ele>534.280399</ele>
        <time>2022-03-08T10:13:07.725Z</time>
      </trkpt>
      <trkpt lat="42.61225" lon="24.00912">
        <ele>535.523763</ele>
        <time>2022-03-08T10:14:04.767Z</time>
      </trkpt>
      <trkpt lat="42.61373" lon="24.0071">
        <ele>539.113784</ele>
        <time>2022-03-08T10:15:04.743Z</time>
      </trkpt>
      <trkpt lat="42.61497" lon="24.00525">
        <ele>539.696459</ele>
        <time>2022-03-08T10:16:02.736Z</time>
      </trkpt>
      <trkpt lat="42.61599" lon="24.00293">
        <ele>539.430593</ele>
        <time>2022-03-08T10:17:03.771Z</time>
      </trkpt>
      <trkpt lat="42.61721" lon="24.00065">
        <ele>541.256154</ele>
        <time>2022-03-08T10:18:00.738Z</time>
      </trkpt>
      <trkpt lat="42.61892" lon="23.99928">
        <ele>539.234117</ele>
        <time>2022-03-08T10:18:55.771Z</time>
      </trkpt>
      <trkpt lat="42.62087" lon="23.99826">
        <ele>536.394016</ele>
        <time>2022-03-08T10:19:42.722Z</time>
      </trkpt>
      <trkpt lat="42.62103" lon="23.99592">
        <ele>549.258171</ele>
        <time>2022-03-08T10:21:17.740Z</time>
      </trkpt>
      <trkpt lat="42.62125" lon="23.99327">
        <ele>560.250361</ele>
        <time>2022-03-08T10:23:18.733Z</time>
      </trkpt>
      <trkpt lat="42.62105" lon="23.99073">
        <ele>567.870948</ele>
        <time>2022-03-08T10:25:05.846Z</time>
      </trkpt>
      <trkpt lat="42.62138" lon="23.98797">
        <ele>563.76233</ele>
        <time>2022-03-08T10:26:19.733Z</time>
      </trkpt>
      <trkpt lat="42.62205" lon="23.98506">
        <ele>559.641771</ele>
        <time>2022-03-08T10:26:58.738Z</time>
      </trkpt>
      <trkpt lat="42.62273" lon="23.98192">
        <ele>559.102998</ele>
        <time>2022-03-08T10:27:38.745Z</time>
      </trkpt>
      <trkpt lat="42.62354" lon="23.9792">
        <ele>560.74915</ele>
        <time>2022-03-08T10:28:31.747Z</time>
      </trkpt>
      <trkpt lat="42.62439" lon="23.97659">
        <ele>564.017888</ele>
        <time>2022-03-08T10:29:35.747Z</time>
      </trkpt>
      <trkpt lat="42.62513" lon="23.97427">
        <ele>566.763658</ele>
        <time>2022-03-08T10:30:50.751Z</time>
      </trkpt>
      <trkpt lat="42.62567" lon="23.97173">
        <ele>575.759816</ele>
        <time>2022-03-08T10:32:22.746Z</time>
      </trkpt>
      <trkpt lat="42.62643" lon="23.96921">
        <ele>581.732437</ele>
        <time>2022-03-08T10:34:04.742Z</time>
      </trkpt>
      <trkpt lat="42.62775" lon="23.96709">
        <ele>579.467917</ele>
        <time>2022-03-08T10:35:07.735Z</time>
      </trkpt>
      <trkpt lat="42.62885" lon="23.96471">
        <ele>579.12276</ele>
        <time>2022-03-08T10:36:19.749Z</time>
      </trkpt>
      <trkpt lat="42.6299" lon="23.96249">
        <ele>585.708335</ele>
        <time>2022-03-08T10:37:47.742Z</time>
      </trkpt>
      <trkpt lat="42.631" lon="23.96031">
        <ele>592.226524</ele>
        <time>2022-03-08T10:39:33.741Z</time>
      </trkpt>
      <trkpt lat="42.632" lon="23.95823">
        <ele>599.224749</ele>
        <time>2022-03-08T10:41:20.739Z</time>
      </trkpt>
      <trkpt lat="42.6331" lon="23.95606">
        <ele>609.966618</ele>
        <time>2022-03-08T10:43:24.760Z</time>
      </trkpt>
      <trkpt lat="42.63444" lon="23.95432">
        <ele>615.573604</ele>
        <time>2022-03-08T10:45:18.759Z</time>
      </trkpt>
      <trkpt lat="42.63626" lon="23.95351">
        <ele>617.204037</ele>
        <time>2022-03-08T10:46:48.759Z</time>
      </trkpt>
      <trkpt lat="42.63795" lon="23.95221">
        <ele>619.549904</ele>
        <time>2022-03-08T10:48:10.747Z</time>
      </trkpt>
      <trkpt lat="42.639" lon="23.95009">
        <ele>627.64433</ele>
        <time>2022-03-08T10:49:35.791Z</time>
      </trkpt>
      <trkpt lat="42.63998" lon="23.94765">
        <ele>631.00342</ele>
        <time>2022-03-08T10:50:55.738Z</time>
      </trkpt>
      <trkpt lat="42.64106" lon="23.94534">
        <ele>630.843237</ele>
        <time>2022-03-08T10:52:07.739Z</time>
      </trkpt>
      <trkpt lat="42.6425" lon="23.94312">
        <ele>633.323137</ele>
        <time>2022-03-08T10:53:22.744Z</time>
      </trkpt>
      <trkpt lat="42.64359" lon="23.94083">
        <ele>633.408559</ele>
        <time>2022-03-08T10:54:25.756Z</time>
      </trkpt>
      <trkpt lat="42.64515" lon="23.9385">
        <ele>628.834005</ele>
        <time>2022-03-08T10:55:25.786Z</time>
      </trkpt>
      <trkpt lat="42.6462" lon="23.93618">
        <ele>625.644882</ele>
        <time>2022-03-08T10:56:12.746Z</time>
      </trkpt>
      <trkpt lat="42.64688" lon="23.9338">
        <ele>625.264397</ele>
        <time>2022-03-08T10:56:51.740Z</time>
      </trkpt>
      <trkpt lat="42.64818" lon="23.93127">
        <ele>623.277015</ele>
        <time>2022-03-08T10:57:34.742Z</time>
      </trkpt>
      <trkpt lat="42.64907" lon="23.92883">
        <ele>624.953102</ele>
        <time>2022-03-08T10:58:31.772Z</time>
      </trkpt>
      <trkpt lat="42.6501" lon="23.92658">
        <ele>628.252758</ele>
        <time>2022-03-08T10:59:36.743Z</time>
      </trkpt>
      <trkpt lat="42.65144" lon="23.92473">
        <ele>629.109509</ele>
        <time>2022-03-08T11:00:49.747Z</time>
      </trkpt>
      <trkpt lat="42.65211" lon="23.92197">
        <ele>635.476638</ele>
        <time>2022-03-08T11:02:09.749Z</time>
      </trkpt>
      <trkpt lat="42.65305" lon="23.91974">
        <ele>642.491641</ele>
        <time>2022-03-08T11:03:27.780Z</time>
      </trkpt>
      <trkpt lat="42.65474" lon="23.91832">
        <ele>642.504188</ele>
        <time>2022-03-08T11:05:08.746Z</time>
      </trkpt>
      <trkpt lat="42.65632" lon="23.91693">
        <ele>648.082839</ele>
        <time>2022-03-08T11:06:33.783Z</time>
      </trkpt>
      <trkpt lat="42.65643" lon="23.91433">
        <ele>647.078426</ele>
        <time>2022-03-08T11:07:54.754Z</time>
      </trkpt>
      <trkpt lat="42.65538" lon="23.91212">
        <ele>648.644389</ele>
        <time>2022-03-08T11:09:16.758Z</time>
      </trkpt>
      <trkpt lat="42.65497" lon="23.90969">
        <ele>656.438786</ele>
        <time>2022-03-08T11:10:50.756Z</time>
      </trkpt>
      <trkpt lat="42.65491" lon="23.90708">
        <ele>665.738883</ele>
        <time>2022-03-08T11:13:00.766Z</time>
      </trkpt>
      <trkpt lat="42.65465" lon="23.90463">
        <ele>675.055549</ele>
        <time>2022-03-08T11:15:08.766Z</time>
      </trkpt>
      <trkpt lat="42.65509" lon="23.90205">
        <ele>688.782882</ele>
        <time>2022-03-08T11:17:14.762Z</time>
      </trkpt>
      <trkpt lat="42.65581" lon="23.89973">
        <ele>698.078932</ele>
        <time>2022-03-08T11:19:13.764Z</time>
      </trkpt>
      <trkpt lat="42.65587" lon="23.897">
        <ele>695.976253</ele>
        <time>2022-03-08T11:20:47.758Z</time>
      </trkpt>
      <trkpt lat="42.65541" lon="23.89452">
        <ele>690.102661</ele>
        <time>2022-03-08T11:21:46.758Z</time>
      </trkpt>
      <trkpt lat="42.65498" lon="23.89194">
        <ele>700.475132</ele>
        <time>2022-03-08T11:23:13.752Z</time>
      </trkpt>
      <trkpt lat="42.65376" lon="23.88994">
        <ele>714.244479</ele>
        <time>2022-03-08T11:24:45.759Z</time>
      </trkpt>
      <trkpt lat="42.65227" lon="23.88823">
        <ele>712.592017</ele>
        <time>2022-03-08T11:26:28.759Z</time>
      </trkpt>
      <trkpt lat="42.65088" lon="23.88641">
        <ele>726.996007</ele>
        <time>2022-03-08T11:28:43.750Z</time>
      </trkpt>
      <trkpt lat="42.64932" lon="23.88526">
        <ele>734.690292</ele>
        <time>2022-03-08T11:30:42.748Z</time>
      </trkpt>
      <trkpt lat="42.64766" lon="23.88389">
        <ele>748.568709</ele>
        <time>2022-03-08T11:32:41.758Z</time>
      </trkpt>
      <trkpt lat="42.64599" lon="23.88269">
        <ele>759.252585</ele>
        <time>2022-03-08T11:34:40.823Z</time>
      </trkpt>
      <trkpt lat="42.6445" lon="23.88106">
        <ele>774.123714</ele>
        <time>2022-03-08T11:37:10.767Z</time>
      </trkpt>
      <trkpt lat="42.64369" lon="23.87885">
        <ele>783.584138</ele>
        <time>2022-03-08T11:39:33.804Z</time>
      </trkpt>
      <trkpt lat="42.64278" lon="23.87653">
        <ele>786.251697</ele>
        <time>2022-03-08T11:41:35.768Z</time>
      </trkpt>
      <trkpt lat="42.64148" lon="23.87478">
        <ele>796.947714</ele>
        <time>2022-03-08T11:43:48.797Z</time>
      </trkpt>
      <trkpt lat="42.64106" lon="23.87239">
        <ele>813.313315</ele>
        <time>2022-03-08T11:46:09.762Z</time>
      </trkpt>
      <trkpt lat="42.6403" lon="23.87001">
        <ele>824.713468</ele>
        <time>2022-03-08T11:48:43.754Z</time>
      </trkpt>
      <trkpt lat="42.64005" lon="23.86763">
        <ele>832.145286</ele>
        <time>2022-03-08T11:51:20.781Z</time>
      </trkpt>
      <trkpt lat="42.6396" lon="23.86513">
        <ele>839.961326</ele>
        <time>2022-03-08T11:53:55.771Z</time>
      </trkpt>
      <trkpt lat="42.63888" lon="23.86266">
        <ele>837.78593</ele>
        <time>2022-03-08T11:55:19.776Z</time>
      </trkpt>
      <trkpt lat="42.63907" lon="23.85912">
        <ele>826.24324</ele>
        <time>2022-03-08T11:56:02.758Z</time>
      </trkpt>
      <trkpt lat="42.64067" lon="23.85568">
        <ele>809.364092</ele>
        <time>2022-03-08T11:56:40.782Z</time>
      </trkpt>
      <trkpt lat="42.64319" lon="23.85569">
        <ele>800.673851</ele>
        <time>2022-03-08T11:57:12.764Z</time>
      </trkpt>
      <trkpt lat="42.64403" lon="23.85364">
        <ele>797.152233</ele>
        <time>2022-03-08T11:58:14.794Z</time>
      </trkpt>
      <trkpt lat="42.64499" lon="23.85131">
        <ele>796.882118</ele>
        <time>2022-03-08T11:58:57.782Z</time>
      </trkpt>
      <trkpt lat="42.64648" lon="23.84835">
        <ele>780.12525</ele>
        <time>2022-03-08T11:59:30.775Z</time>
      </trkpt>
      <trkpt lat="42.64686" lon="23.84542">
        <ele>772.153745</ele>
        <time>2022-03-08T12:00:17.774Z</time>
      </trkpt>
      <trkpt lat="42.64704" lon="23.84282">
        <ele>775.13981</ele>
        <time>2022-03-08T12:00:57.764Z</time>
      </trkpt>
      <trkpt lat="42.64713" lon="23.83995">
        <ele>774.867386</ele>
        <time>2022-03-08T12:01:34.765Z</time>
      </trkpt>
      <trkpt lat="42.64701" lon="23.83712">
        <ele>774.504338</ele>
        <time>2022-03-08T12:02:53.802Z</time>
      </trkpt>
      <trkpt lat="42.64757" lon="23.83441">
        <ele>773.094867</ele>
        <time>2022-03-08T12:03:59.763Z</time>
      </trkpt>
      <trkpt lat="42.64887" lon="23.8315">
        <ele>763.67941</ele>
        <time>2022-03-08T12:04:29.775Z</time>
      </trkpt>
      <trkpt lat="42.64953" lon="23.82821">
        <ele>750.074853</ele>
        <time>2022-03-08T12:04:59.776Z</time>
      </trkpt>
      <trkpt lat="42.65021" lon="23.82564">
        <ele>751.790847</ele>
        <time>2022-03-08T12:05:56.778Z</time>
      </trkpt>
      <trkpt lat="42.65093" lon="23.82301">
        <ele>762.020967</ele>
        <time>2022-03-08T12:07:34.801Z</time>
      </trkpt>
      <trkpt lat="42.65279" lon="23.82307">
        <ele>764.323884</ele>
        <time>2022-03-08T12:08:37.807Z</time>
      </trkpt>
      <trkpt lat="42.65485" lon="23.82325">
        <ele>756.812829</ele>
        <time>2022-03-08T12:09:30.781Z</time>
      </trkpt>
      <trkpt lat="42.65591" lon="23.82136">
        <ele>764.859258</ele>
        <time>2022-03-08T12:10:48.792Z</time>
      </trkpt>
      <trkpt lat="42.6566" lon="23.82005">
        <ele>774.096053</ele>
        <time>2022-03-08T12:39:29.794Z</time>
      </trkpt>
      <trkpt lat="42.65573" lon="23.81714">
        <ele>762.605016</ele>
        <time>2022-03-08T12:40:15.758Z</time>
      </trkpt>
      <trkpt lat="42.65484" lon="23.81393">
        <ele>742.285738</ele>
        <time>2022-03-08T12:40:46.796Z</time>
      </trkpt>
      <trkpt lat="42.65407" lon="23.81111">
        <ele>729.430298</ele>
        <time>2022-03-08T12:41:12.807Z</time>
      </trkpt>
      <trkpt lat="42.65259" lon="23.80804">
        <ele>721.460996</ele>
        <time>2022-03-08T12:41:50.803Z</time>
      </trkpt>
      <trkpt lat="42.65142" lon="23.80519">
        <ele>715.079347</ele>
        <time>2022-03-08T12:42:30.776Z</time>
      </trkpt>
      <trkpt lat="42.65013" lon="23.80229">
        <ele>707.089906</ele>
        <time>2022-03-08T12:43:08.812Z</time>
      </trkpt>
      <trkpt lat="42.65035" lon="23.79836">
        <ele>692.107493</ele>
        <time>2022-03-08T12:43:48.776Z</time>
      </trkpt>
      <trkpt lat="42.651" lon="23.79525">
        <ele>687.906216</ele>
        <time>2022-03-08T12:44:26.776Z</time>
      </trkpt>
      <trkpt lat="42.65154" lon="23.79249">
        <ele>689.321813</ele>
        <time>2022-03-08T12:45:22.779Z</time>
      </trkpt>
      <trkpt lat="42.65238" lon="23.78967">
        <ele>683.034553</ele>
        <time>2022-03-08T12:46:05.768Z</time>
      </trkpt>
      <trkpt lat="42.65361" lon="23.78717">
        <ele>679.498092</ele>
        <time>2022-03-08T12:46:53.779Z</time>
      </trkpt>
      <trkpt lat="42.65507" lon="23.78503">
        <ele>675.223286</ele>
        <time>2022-03-08T12:47:42.771Z</time>
      </trkpt>
      <trkpt lat="42.65641" lon="23.78279">
        <ele>671.646454</ele>
        <time>2022-03-08T12:48:23.791Z</time>
      </trkpt>
      <trkpt lat="42.6575" lon="23.78062">
        <ele>668.704623</ele>
        <time>2022-03-08T12:49:03.795Z</time>
      </trkpt>
      <trkpt lat="42.65892" lon="23.77881">
        <ele>663.685142</ele>
        <time>2022-03-08T12:49:44.827Z</time>
      </trkpt>
      <trkpt lat="42.65999" lon="23.77618">
        <ele>658.560572</ele>
        <time>2022-03-08T12:50:24.756Z</time>
      </trkpt>
      <trkpt lat="42.66133" lon="23.7741">
        <ele>655.792259</ele>
        <time>2022-03-08T12:51:06.778Z</time>
      </trkpt>
      <trkpt lat="42.663" lon="23.77266">
        <ele>654.214046</ele>
        <time>2022-03-08T12:51:47.797Z</time>
      </trkpt>
      <trkpt lat="42.66463" lon="23.77125">
        <ele>656.510375</ele>
        <time>2022-03-08T12:52:40.766Z</time>
      </trkpt>
      <trkpt lat="42.66651" lon="23.76962">
        <ele>654.976127</ele>
        <time>2022-03-08T12:53:32.802Z</time>
      </trkpt>
      <trkpt lat="42.66834" lon="23.76832">
        <ele>651.825704</ele>
        <time>2022-03-08T12:54:21.776Z</time>
      </trkpt>
      <trkpt lat="42.66956" lon="23.76585">
        <ele>651.312213</ele>
        <time>2022-03-08T12:55:16.771Z</time>
      </trkpt>
      <trkpt lat="42.67108" lon="23.7637">
        <ele>647.399391</ele>
        <time>2022-03-08T12:56:05.772Z</time>
      </trkpt>
      <trkpt lat="42.6722" lon="23.76123">
        <ele>639.861885</ele>
        <time>2022-03-08T12:56:51.773Z</time>
      </trkpt>
      <trkpt lat="42.67319" lon="23.75837">
        <ele>639.189104</ele>
        <time>2022-03-08T12:57:47.776Z</time>
      </trkpt>
      <trkpt lat="42.67409" lon="23.75588">
        <ele>642.479114</ele>
        <time>2022-03-08T12:58:44.784Z</time>
      </trkpt>
      <trkpt lat="42.67504" lon="23.75315">
        <ele>642.084706</ele>
        <time>2022-03-08T12:59:44.770Z</time>
      </trkpt>
      <trkpt lat="42.67608" lon="23.75024">
        <ele>640.941771</ele>
        <time>2022-03-08T13:00:41.786Z</time>
      </trkpt>
      <trkpt lat="42.67715" lon="23.74722">
        <ele>638.267586</ele>
        <time>2022-03-08T13:01:41.809Z</time>
      </trkpt>
      <trkpt lat="42.67813" lon="23.74443">
        <ele>636.37473</ele>
        <time>2022-03-08T13:02:38.781Z</time>
      </trkpt>
      <trkpt lat="42.67919" lon="23.74146">
        <ele>634.975036</ele>
        <time>2022-03-08T13:03:37.785Z</time>
      </trkpt>
      <trkpt lat="42.68013" lon="23.73877">
        <ele>635.730201</ele>
        <time>2022-03-08T13:04:34.787Z</time>
      </trkpt>
      <trkpt lat="42.68099" lon="23.73632">
        <ele>636.118831</ele>
        <time>2022-03-08T13:05:31.774Z</time>
      </trkpt>
      <trkpt lat="42.68186" lon="23.73386">
        <ele>641.280034</ele>
        <time>2022-03-08T13:06:36.818Z</time>
      </trkpt>
      <trkpt lat="42.68271" lon="23.73155">
        <ele>641.341274</ele>
        <time>2022-03-08T13:07:38.794Z</time>
      </trkpt>
      <trkpt lat="42.68357" lon="23.72913">
        <ele>641.331728</ele>
        <time>2022-03-08T13:08:40.801Z</time>
      </trkpt>
      <trkpt lat="42.68444" lon="23.72672">
        <ele>645.573789</ele>
        <time>2022-03-08T13:09:47.784Z</time>
      </trkpt>
      <trkpt lat="42.68493" lon="23.72402">
        <ele>648.411985</ele>
        <time>2022-03-08T13:10:58.790Z</time>
      </trkpt>
      <trkpt lat="42.6849" lon="23.72142">
        <ele>650.762735</ele>
        <time>2022-03-08T13:11:55.789Z</time>
      </trkpt>
      <trkpt lat="42.68517" lon="23.71849">
        <ele>649.7031</ele>
        <time>2022-03-08T13:12:56.808Z</time>
      </trkpt>
      <trkpt lat="42.68558" lon="23.71577">
        <ele>644.565379</ele>
        <time>2022-03-08T13:13:40.798Z</time>
      </trkpt>
      <trkpt lat="42.68641" lon="23.71356">
        <ele>642.672974</ele>
        <time>2022-03-08T13:14:18.781Z</time>
      </trkpt>
      <trkpt lat="42.68759" lon="23.71143">
        <ele>642.379717</ele>
        <time>2022-03-08T13:14:59.805Z</time>
      </trkpt>
      <trkpt lat="42.68909" lon="23.70997">
        <ele>641.249561</ele>
        <time>2022-03-08T13:15:37.795Z</time>
      </trkpt>
      <trkpt lat="42.69097" lon="23.70878">
        <ele>639.394694</ele>
        <time>2022-03-08T13:16:17.792Z</time>
      </trkpt>
      <trkpt lat="42.69232" lon="23.70696">
        <ele>636.400617</ele>
        <time>2022-03-08T13:16:56.776Z</time>
      </trkpt>
      <trkpt lat="42.69372" lon="23.70477">
        <ele>634.185576</ele>
        <time>2022-03-08T13:17:36.782Z</time>
      </trkpt>
      <trkpt lat="42.69494" lon="23.70239">
        <ele>629.313004</ele>
        <time>2022-03-08T13:18:14.784Z</time>
      </trkpt>
      <trkpt lat="42.69648" lon="23.69968">
        <ele>624.316053</ele>
        <time>2022-03-08T13:18:54.788Z</time>
      </trkpt>
      <trkpt lat="42.69719" lon="23.69693">
        <ele>618.783981</ele>
        <time>2022-03-08T13:19:32.786Z</time>
      </trkpt>
      <trkpt lat="42.69817" lon="23.6941">
        <ele>609.533485</ele>
        <time>2022-03-08T13:20:10.810Z</time>
      </trkpt>
      <trkpt lat="42.69928" lon="23.69403">
        <ele>608.504097</ele>
        <time>2022-03-08T13:21:01.798Z</time>
      </trkpt>
      <trkpt lat="42.70057" lon="23.69619">
        <ele>615.754849</ele>
        <time>2022-03-08T13:21:58.789Z</time>
      </trkpt>
      <trkpt lat="42.7027" lon="23.69626">
        <ele>615.685057</ele>
        <time>2022-03-08T13:22:58.837Z</time>
      </trkpt>
      <trkpt lat="42.70431" lon="23.69558">
        <ele>619.604786</ele>
        <time>2022-03-08T13:24:06.828Z</time>
      </trkpt>
      <trkpt lat="42.70524" lon="23.6976">
        <ele>627.249624</ele>
        <time>2022-03-08T13:25:23.798Z</time>
      </trkpt>
      <trkpt lat="42.70582" lon="23.70013">
        <ele>632.402981</ele>
        <time>2022-03-08T13:26:37.778Z</time>
      </trkpt>
      <trkpt lat="42.7063" lon="23.70268">
        <ele>641.708359</ele>
        <time>2022-03-08T13:28:42.813Z</time>
      </trkpt>
      <trkpt lat="42.70685" lon="23.70509">
        <ele>658.558048</ele>
        <time>2022-03-08T13:30:57.795Z</time>
      </trkpt>
      <trkpt lat="42.70732" lon="23.70744">
        <ele>673.990512</ele>
        <time>2022-03-08T13:33:13.847Z</time>
      </trkpt>
      <trkpt lat="42.70784" lon="23.71003">
        <ele>679.074782</ele>
        <time>2022-03-08T13:35:12.795Z</time>
      </trkpt>
      <trkpt lat="42.70838" lon="23.7127">
        <ele>671.860957</ele>
        <time>2022-03-08T13:36:17.828Z</time>
      </trkpt>
      <trkpt lat="42.7091" lon="23.71563">
        <ele>668.620743</ele>
        <time>2022-03-08T13:36:57.820Z</time>
      </trkpt>
      <trkpt lat="42.71004" lon="23.71918">
        <ele>653.181862</ele>
        <time>2022-03-08T13:37:35.796Z</time>
      </trkpt>
      <trkpt lat="42.71159" lon="23.72104">
        <ele>637.820337</ele>
        <time>2022-03-08T13:38:17.792Z</time>
      </trkpt>
      <trkpt lat="42.71351" lon="23.72018">
        <ele>637.266761</ele>
        <time>2022-03-08T13:39:08.805Z</time>
      </trkpt>
      <trkpt lat="42.71562" lon="23.7197">
        <ele>638.357384</ele>
        <time>2022-03-08T13:40:10.770Z</time>
      </trkpt>
      <trkpt lat="42.71723" lon="23.71825">
        <ele>641.583342</ele>
        <time>2022-03-08T13:41:15.810Z</time>
      </trkpt>
      <trkpt lat="42.71895" lon="23.71899">
        <ele>645.956024</ele>
        <time>2022-03-08T13:42:53.806Z</time>
      </trkpt>
      <trkpt lat="42.71786" lon="23.72081">
        <ele>641.913984</ele>
        <time>2022-03-08T13:43:43.823Z</time>
      </trkpt>
      <trkpt lat="42.71716" lon="23.72322">
        <ele>648.775044</ele>
        <time>2022-03-08T13:45:03.826Z</time>
      </trkpt>
      <trkpt lat="42.71732" lon="23.72554">
        <ele>655.652181</ele>
        <time>2022-03-08T13:46:41.807Z</time>
      </trkpt>
      <trkpt lat="42.71853" lon="23.72725">
        <ele>660.697779</ele>
        <time>2022-03-08T13:48:52.808Z</time>
      </trkpt>
      <trkpt lat="42.71915" lon="23.72821">
        <ele>660.697779</ele>
        <time>2022-03-08T13:54:37.061Z</time>
      </trkpt>
    </trkseg>
  </trk>
  <trk>
    <name><![CDATA[Tour d'Europe: étape 617]]></name>
    <extensions>
      <line xmlns="http://www.topografix.com/GPX/gpx_style/0/2">
        <color>00FFFF</color>
        <width>4</width>
      </line>
    </extensions>
    <trkseg>
      <trkpt lat="42.14748" lon="24.75414">
        <ele>237.94926</ele>
        <time>2022-03-07T06:57:35.630Z</time>
      </trkpt>
      <trkpt lat="42.14777" lon="24.75504">
        <ele>236.260994</ele>
        <time>2022-03-07T07:03:22.462Z</time>
      </trkpt>
      <trkpt lat="42.14962" lon="24.75539">
        <ele>220.364287</ele>
        <time>2022-03-07T07:04:26.458Z</time>
      </trkpt>
      <trkpt lat="42.15158" lon="24.75446">
        <ele>214.622041</ele>
        <time>2022-03-07T07:05:31.444Z</time>
      </trkpt>
      <trkpt lat="42.15349" lon="24.75427">
        <ele>215.884348</ele>
        <time>2022-03-07T07:06:31.493Z</time>
      </trkpt>
      <trkpt lat="42.15427" lon="24.75228">
        <ele>208.804697</ele>
        <time>2022-03-07T07:07:45.474Z</time>
      </trkpt>
      <trkpt lat="42.15392" lon="24.74948">
        <ele>202.325776</ele>
        <time>2022-03-07T07:08:52.466Z</time>
      </trkpt>
      <trkpt lat="42.15344" lon="24.74637">
        <ele>200.576779</ele>
        <time>2022-03-07T07:09:50.462Z</time>
      </trkpt>
      <trkpt lat="42.1529" lon="24.74347">
        <ele>204.889417</ele>
        <time>2022-03-07T07:10:53.497Z</time>
      </trkpt>
      <trkpt lat="42.15271" lon="24.74056">
        <ele>209.780349</ele>
        <time>2022-03-07T07:11:43.445Z</time>
      </trkpt>
      <trkpt lat="42.15272" lon="24.73764">
        <ele>204.091506</ele>
        <time>2022-03-07T07:12:41.458Z</time>
      </trkpt>
      <trkpt lat="42.15268" lon="24.73473">
        <ele>207.646023</ele>
        <time>2022-03-07T07:13:35.443Z</time>
      </trkpt>
      <trkpt lat="42.15273" lon="24.73194">
        <ele>209.226496</ele>
        <time>2022-03-07T07:14:22.463Z</time>
      </trkpt>
      <trkpt lat="42.15234" lon="24.72955">
        <ele>209.378107</ele>
        <time>2022-03-07T07:15:25.463Z</time>
      </trkpt>
      <trkpt lat="42.15314" lon="24.731">
        <ele>211.394838</ele>
        <time>2022-03-07T07:16:38.474Z</time>
      </trkpt>
      <trkpt lat="42.15521" lon="24.73102">
        <ele>210.906098</ele>
        <time>2022-03-07T07:17:39.479Z</time>
      </trkpt>
      <trkpt lat="42.15726" lon="24.7308">
        <ele>209.236863</ele>
        <time>2022-03-07T07:18:39.498Z</time>
      </trkpt>
      <trkpt lat="42.15945" lon="24.73032">
        <ele>209.140125</ele>
        <time>2022-03-07T07:20:05.463Z</time>
      </trkpt>
      <trkpt lat="42.16168" lon="24.72956">
        <ele>209.794016</ele>
        <time>2022-03-07T07:22:20.469Z</time>
      </trkpt>
      <trkpt lat="42.16323" lon="24.7274">
        <ele>208.422081</ele>
        <time>2022-03-07T07:23:02.509Z</time>
      </trkpt>
      <trkpt lat="42.16481" lon="24.72524">
        <ele>213.870005</ele>
        <time>2022-03-07T07:24:00.474Z</time>
      </trkpt>
      <trkpt lat="42.16654" lon="24.72316">
        <ele>213.759669</ele>
        <time>2022-03-07T07:24:56.531Z</time>
      </trkpt>
      <trkpt lat="42.16815" lon="24.72127">
        <ele>209.814654</ele>
        <time>2022-03-07T07:25:44.463Z</time>
      </trkpt>
      <trkpt lat="42.16985" lon="24.71925">
        <ele>210.768421</ele>
        <time>2022-03-07T07:26:36.493Z</time>
      </trkpt>
      <trkpt lat="42.17132" lon="24.71718">
        <ele>217.463773</ele>
        <time>2022-03-07T07:29:17.458Z</time>
      </trkpt>
      <trkpt lat="42.17273" lon="24.71502">
        <ele>213.774307</ele>
        <time>2022-03-07T07:30:04.484Z</time>
      </trkpt>
      <trkpt lat="42.17402" lon="24.71301">
        <ele>208.391308</ele>
        <time>2022-03-07T07:30:47.485Z</time>
      </trkpt>
      <trkpt lat="42.17558" lon="24.71047">
        <ele>211.230828</ele>
        <time>2022-03-07T07:31:43.500Z</time>
      </trkpt>
      <trkpt lat="42.17706" lon="24.70817">
        <ele>211.859265</ele>
        <time>2022-03-07T07:32:34.474Z</time>
      </trkpt>
      <trkpt lat="42.17868" lon="24.70567">
        <ele>209.224724</ele>
        <time>2022-03-07T07:33:31.461Z</time>
      </trkpt>
      <trkpt lat="42.18018" lon="24.70429">
        <ele>208.331216</ele>
        <time>2022-03-07T07:34:24.459Z</time>
      </trkpt>
      <trkpt lat="42.1811" lon="24.70185">
        <ele>209.271019</ele>
        <time>2022-03-07T07:35:10.511Z</time>
      </trkpt>
      <trkpt lat="42.18256" lon="24.6995">
        <ele>213.93305</ele>
        <time>2022-03-07T07:36:04.514Z</time>
      </trkpt>
      <trkpt lat="42.18406" lon="24.69717">
        <ele>213.671584</ele>
        <time>2022-03-07T07:36:57.466Z</time>
      </trkpt>
      <trkpt lat="42.18566" lon="24.69461">
        <ele>215.719138</ele>
        <time>2022-03-07T07:37:55.460Z</time>
      </trkpt>
      <trkpt lat="42.18727" lon="24.69214">
        <ele>212.981052</ele>
        <time>2022-03-07T07:38:51.470Z</time>
      </trkpt>
      <trkpt lat="42.18885" lon="24.68962">
        <ele>214.035813</ele>
        <time>2022-03-07T07:39:48.477Z</time>
      </trkpt>
      <trkpt lat="42.1904" lon="24.68716">
        <ele>215.176685</ele>
        <time>2022-03-07T07:40:45.479Z</time>
      </trkpt>
      <trkpt lat="42.19194" lon="24.68474">
        <ele>215.704382</ele>
        <time>2022-03-07T07:41:39.471Z</time>
      </trkpt>
      <trkpt lat="42.19352" lon="24.68224">
        <ele>218.164061</ele>
        <time>2022-03-07T07:42:36.461Z</time>
      </trkpt>
      <trkpt lat="42.19511" lon="24.67972">
        <ele>220.20878</ele>
        <time>2022-03-07T07:43:35.465Z</time>
      </trkpt>
      <trkpt lat="42.1967" lon="24.67728">
        <ele>219.753267</ele>
        <time>2022-03-07T07:44:33.508Z</time>
      </trkpt>
      <trkpt lat="42.1982" lon="24.67491">
        <ele>217.097652</ele>
        <time>2022-03-07T07:45:31.485Z</time>
      </trkpt>
      <trkpt lat="42.19981" lon="24.67237">
        <ele>217.75715</ele>
        <time>2022-03-07T07:46:28.484Z</time>
      </trkpt>
      <trkpt lat="42.20123" lon="24.67016">
        <ele>220.600641</ele>
        <time>2022-03-07T07:47:24.472Z</time>
      </trkpt>
      <trkpt lat="42.20279" lon="24.66834">
        <ele>224.870029</ele>
        <time>2022-03-07T07:48:38.465Z</time>
      </trkpt>
      <trkpt lat="42.2035" lon="24.66544">
        <ele>220.565189</ele>
        <time>2022-03-07T07:49:19.463Z</time>
      </trkpt>
      <trkpt lat="42.20413" lon="24.6629">
        <ele>220.114636</ele>
        <time>2022-03-07T07:50:03.484Z</time>
      </trkpt>
      <trkpt lat="42.2053" lon="24.65986">
        <ele>219.457841</ele>
        <time>2022-03-07T07:51:03.466Z</time>
      </trkpt>
      <trkpt lat="42.20643" lon="24.6569">
        <ele>220.340217</ele>
        <time>2022-03-07T07:52:03.476Z</time>
      </trkpt>
      <trkpt lat="42.20731" lon="24.65403">
        <ele>220.789704</ele>
        <time>2022-03-07T07:53:00.478Z</time>
      </trkpt>
      <trkpt lat="42.20785" lon="24.65078">
        <ele>220.879959</ele>
        <time>2022-03-07T07:53:58.473Z</time>
      </trkpt>
      <trkpt lat="42.20902" lon="24.64787">
        <ele>223.518832</ele>
        <time>2022-03-07T07:54:57.483Z</time>
      </trkpt>
      <trkpt lat="42.2105" lon="24.6451">
        <ele>222.724762</ele>
        <time>2022-03-07T07:55:57.483Z</time>
      </trkpt>
      <trkpt lat="42.21197" lon="24.64235">
        <ele>221.125273</ele>
        <time>2022-03-07T07:56:57.465Z</time>
      </trkpt>
      <trkpt lat="42.21343" lon="24.63965">
        <ele>221.673412</ele>
        <time>2022-03-07T07:57:57.488Z</time>
      </trkpt>
      <trkpt lat="42.21523" lon="24.63737">
        <ele>223.556674</ele>
        <time>2022-03-07T07:58:57.487Z</time>
      </trkpt>
      <trkpt lat="42.21697" lon="24.63539">
        <ele>226.640386</ele>
        <time>2022-03-07T07:59:52.483Z</time>
      </trkpt>
      <trkpt lat="42.21891" lon="24.63324">
        <ele>224.743204</ele>
        <time>2022-03-07T08:00:52.481Z</time>
      </trkpt>
      <trkpt lat="42.22078" lon="24.63109">
        <ele>226.707978</ele>
        <time>2022-03-07T08:01:52.473Z</time>
      </trkpt>
      <trkpt lat="42.22263" lon="24.62902">
        <ele>227.778091</ele>
        <time>2022-03-07T08:02:51.474Z</time>
      </trkpt>
      <trkpt lat="42.22446" lon="24.62689">
        <ele>227.581662</ele>
        <time>2022-03-07T08:03:51.482Z</time>
      </trkpt>
      <trkpt lat="42.22586" lon="24.62427">
        <ele>229.208571</ele>
        <time>2022-03-07T08:04:51.473Z</time>
      </trkpt>
      <trkpt lat="42.22695" lon="24.6218">
        <ele>228.353161</ele>
        <time>2022-03-07T08:05:48.471Z</time>
      </trkpt>
      <trkpt lat="42.22816" lon="24.61917">
        <ele>227.902328</ele>
        <time>2022-03-07T08:06:48.469Z</time>
      </trkpt>
      <trkpt lat="42.22934" lon="24.61661">
        <ele>227.209251</ele>
        <time>2022-03-07T08:07:48.472Z</time>
      </trkpt>
      <trkpt lat="42.23051" lon="24.61406">
        <ele>227.650141</ele>
        <time>2022-03-07T08:08:48.487Z</time>
      </trkpt>
      <trkpt lat="42.2317" lon="24.61146">
        <ele>227.433044</ele>
        <time>2022-03-07T08:09:48.467Z</time>
      </trkpt>
      <trkpt lat="42.2329" lon="24.60884">
        <ele>227.465858</ele>
        <time>2022-03-07T08:10:48.509Z</time>
      </trkpt>
      <trkpt lat="42.2341" lon="24.60624">
        <ele>228.775461</ele>
        <time>2022-03-07T08:11:48.480Z</time>
      </trkpt>
      <trkpt lat="42.23522" lon="24.60376">
        <ele>227.849323</ele>
        <time>2022-03-07T08:12:45.484Z</time>
      </trkpt>
      <trkpt lat="42.2364" lon="24.60121">
        <ele>227.964832</ele>
        <time>2022-03-07T08:13:45.489Z</time>
      </trkpt>
      <trkpt lat="42.23758" lon="24.59863">
        <ele>228.438379</ele>
        <time>2022-03-07T08:14:45.472Z</time>
      </trkpt>
      <trkpt lat="42.23877" lon="24.59606">
        <ele>228.15524</ele>
        <time>2022-03-07T08:15:45.474Z</time>
      </trkpt>
      <trkpt lat="42.23988" lon="24.59361">
        <ele>229.312419</ele>
        <time>2022-03-07T08:16:45.478Z</time>
      </trkpt>
      <trkpt lat="42.24106" lon="24.59107">
        <ele>228.393676</ele>
        <time>2022-03-07T08:17:45.475Z</time>
      </trkpt>
      <trkpt lat="42.24219" lon="24.58857">
        <ele>230.914122</ele>
        <time>2022-03-07T08:18:42.481Z</time>
      </trkpt>
      <trkpt lat="42.2434" lon="24.58597">
        <ele>231.884556</ele>
        <time>2022-03-07T08:19:42.481Z</time>
      </trkpt>
      <trkpt lat="42.24498" lon="24.58361">
        <ele>231.549261</ele>
        <time>2022-03-07T08:20:42.473Z</time>
      </trkpt>
      <trkpt lat="42.24659" lon="24.58132">
        <ele>232.486218</ele>
        <time>2022-03-07T08:21:38.478Z</time>
      </trkpt>
      <trkpt lat="42.24828" lon="24.57889">
        <ele>233.211599</ele>
        <time>2022-03-07T08:22:38.510Z</time>
      </trkpt>
      <trkpt lat="42.24997" lon="24.57647">
        <ele>233.203139</ele>
        <time>2022-03-07T08:23:38.516Z</time>
      </trkpt>
      <trkpt lat="42.25166" lon="24.57405">
        <ele>233.604405</ele>
        <time>2022-03-07T08:24:38.489Z</time>
      </trkpt>
      <trkpt lat="42.25326" lon="24.57176">
        <ele>234.296276</ele>
        <time>2022-03-07T08:25:35.526Z</time>
      </trkpt>
      <trkpt lat="42.25496" lon="24.56933">
        <ele>236.148705</ele>
        <time>2022-03-07T08:26:35.487Z</time>
      </trkpt>
      <trkpt lat="42.25662" lon="24.56697">
        <ele>237.491097</ele>
        <time>2022-03-07T08:27:35.510Z</time>
      </trkpt>
      <trkpt lat="42.25819" lon="24.56472">
        <ele>237.677549</ele>
        <time>2022-03-07T08:28:35.513Z</time>
      </trkpt>
      <trkpt lat="42.25968" lon="24.56255">
        <ele>237.868106</ele>
        <time>2022-03-07T08:29:35.492Z</time>
      </trkpt>
      <trkpt lat="42.2612" lon="24.5604">
        <ele>239.047675</ele>
        <time>2022-03-07T08:30:35.490Z</time>
      </trkpt>
      <trkpt lat="42.26267" lon="24.5583">
        <ele>239.23291</ele>
        <time>2022-03-07T08:31:35.482Z</time>
      </trkpt>
      <trkpt lat="42.26407" lon="24.55627">
        <ele>240.387804</ele>
        <time>2022-03-07T08:32:32.494Z</time>
      </trkpt>
      <trkpt lat="42.26565" lon="24.55404">
        <ele>241.356821</ele>
        <time>2022-03-07T08:33:32.489Z</time>
      </trkpt>
      <trkpt lat="42.26716" lon="24.55191">
        <ele>242.960148</ele>
        <time>2022-03-07T08:34:32.491Z</time>
      </trkpt>
      <trkpt lat="42.26882" lon="24.55004">
        <ele>244.428585</ele>
        <time>2022-03-07T08:35:32.503Z</time>
      </trkpt>
      <trkpt lat="42.27047" lon="24.54836">
        <ele>246.380912</ele>
        <time>2022-03-07T08:36:33.482Z</time>
      </trkpt>
      <trkpt lat="42.27167" lon="24.54681">
        <ele>247.399797</ele>
        <time>2022-03-07T08:58:20.485Z</time>
      </trkpt>
      <trkpt lat="42.26984" lon="24.54663">
        <ele>252.777944</ele>
        <time>2022-03-07T08:59:22.475Z</time>
      </trkpt>
      <trkpt lat="42.26756" lon="24.54682">
        <ele>255.52951</ele>
        <time>2022-03-07T09:00:19.498Z</time>
      </trkpt>
      <trkpt lat="42.26548" lon="24.54595">
        <ele>253.576966</ele>
        <time>2022-03-07T09:01:20.485Z</time>
      </trkpt>
      <trkpt lat="42.26346" lon="24.54412">
        <ele>253.434549</ele>
        <time>2022-03-07T09:02:20.500Z</time>
      </trkpt>
      <trkpt lat="42.26177" lon="24.54209">
        <ele>251.066592</ele>
        <time>2022-03-07T09:03:19.498Z</time>
      </trkpt>
      <trkpt lat="42.25969" lon="24.54086">
        <ele>255.798095</ele>
        <time>2022-03-07T09:04:19.486Z</time>
      </trkpt>
      <trkpt lat="42.25774" lon="24.53917">
        <ele>255.443437</ele>
        <time>2022-03-07T09:05:19.483Z</time>
      </trkpt>
      <trkpt lat="42.25653" lon="24.53671">
        <ele>244.322837</ele>
        <time>2022-03-07T09:06:17.486Z</time>
      </trkpt>
      <trkpt lat="42.25553" lon="24.53359">
        <ele>246.692142</ele>
        <time>2022-03-07T09:07:17.495Z</time>
      </trkpt>
      <trkpt lat="42.25453" lon="24.53055">
        <ele>247.789457</ele>
        <time>2022-03-07T09:08:17.530Z</time>
      </trkpt>
      <trkpt lat="42.25353" lon="24.52755">
        <ele>250.758289</ele>
        <time>2022-03-07T09:09:17.494Z</time>
      </trkpt>
      <trkpt lat="42.25314" lon="24.52441">
        <ele>255.576482</ele>
        <time>2022-03-07T09:10:17.509Z</time>
      </trkpt>
      <trkpt lat="42.25293" lon="24.52105">
        <ele>249.642286</ele>
        <time>2022-03-07T09:11:17.483Z</time>
      </trkpt>
      <trkpt lat="42.25275" lon="24.51791">
        <ele>246.823052</ele>
        <time>2022-03-07T09:12:14.487Z</time>
      </trkpt>
      <trkpt lat="42.25255" lon="24.51461">
        <ele>250.724057</ele>
        <time>2022-03-07T09:13:14.479Z</time>
      </trkpt>
      <trkpt lat="42.25236" lon="24.51129">
        <ele>250.589034</ele>
        <time>2022-03-07T09:14:14.477Z</time>
      </trkpt>
      <trkpt lat="42.25217" lon="24.50793">
        <ele>248.096308</ele>
        <time>2022-03-07T09:15:14.486Z</time>
      </trkpt>
      <trkpt lat="42.25198" lon="24.50479">
        <ele>251.347716</ele>
        <time>2022-03-07T09:16:12.497Z</time>
      </trkpt>
      <trkpt lat="42.25181" lon="24.50179">
        <ele>251.952449</ele>
        <time>2022-03-07T09:17:04.496Z</time>
      </trkpt>
      <trkpt lat="42.25161" lon="24.49842">
        <ele>248.285237</ele>
        <time>2022-03-07T09:18:03.496Z</time>
      </trkpt>
      <trkpt lat="42.25143" lon="24.49518">
        <ele>251.09064</ele>
        <time>2022-03-07T09:19:00.486Z</time>
      </trkpt>
      <trkpt lat="42.25124" lon="24.49184">
        <ele>254.281797</ele>
        <time>2022-03-07T09:20:00.495Z</time>
      </trkpt>
      <trkpt lat="42.25105" lon="24.48865">
        <ele>256.456574</ele>
        <time>2022-03-07T09:20:55.476Z</time>
      </trkpt>
      <trkpt lat="42.25107" lon="24.48556">
        <ele>254.756342</ele>
        <time>2022-03-07T09:21:47.477Z</time>
      </trkpt>
      <trkpt lat="42.25116" lon="24.48213">
        <ele>255.236099</ele>
        <time>2022-03-07T09:22:46.489Z</time>
      </trkpt>
      <trkpt lat="42.25124" lon="24.47873">
        <ele>256.524997</ele>
        <time>2022-03-07T09:23:46.490Z</time>
      </trkpt>
      <trkpt lat="42.25132" lon="24.47555">
        <ele>257.768658</ele>
        <time>2022-03-07T09:24:41.494Z</time>
      </trkpt>
      <trkpt lat="42.25138" lon="24.47234">
        <ele>260.161451</ele>
        <time>2022-03-07T09:25:37.481Z</time>
      </trkpt>
      <trkpt lat="42.25145" lon="24.46929">
        <ele>258.497995</ele>
        <time>2022-03-07T09:26:29.492Z</time>
      </trkpt>
      <trkpt lat="42.25154" lon="24.46617">
        <ele>258.645438</ele>
        <time>2022-03-07T09:27:23.495Z</time>
      </trkpt>
      <trkpt lat="42.25161" lon="24.46281">
        <ele>259.489513</ele>
        <time>2022-03-07T09:28:22.495Z</time>
      </trkpt>
      <trkpt lat="42.25169" lon="24.45942">
        <ele>260.926859</ele>
        <time>2022-03-07T09:29:22.501Z</time>
      </trkpt>
      <trkpt lat="42.25178" lon="24.45604">
        <ele>260.859168</ele>
        <time>2022-03-07T09:30:22.509Z</time>
      </trkpt>
      <trkpt lat="42.25187" lon="24.45293">
        <ele>264.272848</ele>
        <time>2022-03-07T09:31:19.506Z</time>
      </trkpt>
      <trkpt lat="42.25195" lon="24.44987">
        <ele>262.675198</ele>
        <time>2022-03-07T09:32:19.510Z</time>
      </trkpt>
      <trkpt lat="42.25206" lon="24.44668">
        <ele>264.750735</ele>
        <time>2022-03-07T09:33:19.497Z</time>
      </trkpt>
      <trkpt lat="42.2521" lon="24.4434">
        <ele>266.768306</ele>
        <time>2022-03-07T09:34:19.510Z</time>
      </trkpt>
      <trkpt lat="42.25194" lon="24.44019">
        <ele>270.92507</ele>
        <time>2022-03-07T09:35:17.504Z</time>
      </trkpt>
      <trkpt lat="42.2517" lon="24.43722">
        <ele>266.264839</ele>
        <time>2022-03-07T09:36:05.512Z</time>
      </trkpt>
      <trkpt lat="42.25149" lon="24.43443">
        <ele>271.312476</ele>
        <time>2022-03-07T09:37:02.576Z</time>
      </trkpt>
      <trkpt lat="42.25156" lon="24.43136">
        <ele>269.974327</ele>
        <time>2022-03-07T09:37:56.505Z</time>
      </trkpt>
      <trkpt lat="42.25129" lon="24.42813">
        <ele>266.991554</ele>
        <time>2022-03-07T09:38:52.507Z</time>
      </trkpt>
      <trkpt lat="42.25121" lon="24.4251">
        <ele>268.667624</ele>
        <time>2022-03-07T09:39:46.503Z</time>
      </trkpt>
      <trkpt lat="42.25268" lon="24.42277">
        <ele>277.157275</ele>
        <time>2022-03-07T09:40:42.538Z</time>
      </trkpt>
      <trkpt lat="42.2545" lon="24.4205">
        <ele>274.968199</ele>
        <time>2022-03-07T09:41:42.485Z</time>
      </trkpt>
      <trkpt lat="42.25631" lon="24.41825">
        <ele>273.282749</ele>
        <time>2022-03-07T09:42:40.504Z</time>
      </trkpt>
      <trkpt lat="42.25801" lon="24.41611">
        <ele>276.153517</ele>
        <time>2022-03-07T09:43:37.509Z</time>
      </trkpt>
      <trkpt lat="42.25984" lon="24.41382">
        <ele>273.962751</ele>
        <time>2022-03-07T09:44:37.490Z</time>
      </trkpt>
      <trkpt lat="42.26183" lon="24.41181">
        <ele>276.709552</ele>
        <time>2022-03-07T09:45:37.502Z</time>
      </trkpt>
      <trkpt lat="42.26334" lon="24.40925">
        <ele>283.159309</ele>
        <time>2022-03-07T09:46:35.506Z</time>
      </trkpt>
      <trkpt lat="42.26505" lon="24.40699">
        <ele>281.586184</ele>
        <time>2022-03-07T09:47:31.544Z</time>
      </trkpt>
      <trkpt lat="42.26708" lon="24.40497">
        <ele>278.955079</ele>
        <time>2022-03-07T09:48:31.513Z</time>
      </trkpt>
      <trkpt lat="42.26928" lon="24.40352">
        <ele>279.271942</ele>
        <time>2022-03-07T09:49:31.528Z</time>
      </trkpt>
      <trkpt lat="42.2712" lon="24.40173">
        <ele>286.029374</ele>
        <time>2022-03-07T09:50:28.513Z</time>
      </trkpt>
      <trkpt lat="42.27289" lon="24.4017">
        <ele>283.057957</ele>
        <time>2022-03-07T09:51:28.534Z</time>
      </trkpt>
      <trkpt lat="42.27517" lon="24.40209">
        <ele>283.63546</ele>
        <time>2022-03-07T09:52:29.527Z</time>
      </trkpt>
      <trkpt lat="42.27658" lon="24.40033">
        <ele>292.45462</ele>
        <time>2022-03-07T09:53:29.512Z</time>
      </trkpt>
      <trkpt lat="42.27784" lon="24.39799">
        <ele>299.984387</ele>
        <time>2022-03-07T09:54:29.506Z</time>
      </trkpt>
      <trkpt lat="42.27924" lon="24.39576">
        <ele>293.109174</ele>
        <time>2022-03-07T09:55:29.553Z</time>
      </trkpt>
      <trkpt lat="42.28114" lon="24.39488">
        <ele>285.600879</ele>
        <time>2022-03-07T09:56:26.521Z</time>
      </trkpt>
      <trkpt lat="42.28363" lon="24.39473">
        <ele>283.867508</ele>
        <time>2022-03-07T09:57:26.513Z</time>
      </trkpt>
      <trkpt lat="42.28599" lon="24.39481">
        <ele>285.9691</ele>
        <time>2022-03-07T09:58:24.511Z</time>
      </trkpt>
      <trkpt lat="42.28828" lon="24.39539">
        <ele>287.370912</ele>
        <time>2022-03-07T09:59:24.508Z</time>
      </trkpt>
      <trkpt lat="42.29057" lon="24.39527">
        <ele>291.098151</ele>
        <time>2022-03-07T10:00:19.518Z</time>
      </trkpt>
      <trkpt lat="42.29214" lon="24.39296">
        <ele>292.928854</ele>
        <time>2022-03-07T10:01:15.511Z</time>
      </trkpt>
      <trkpt lat="42.2935" lon="24.39042">
        <ele>291.208179</ele>
        <time>2022-03-07T10:02:10.505Z</time>
      </trkpt>
      <trkpt lat="42.29501" lon="24.38814">
        <ele>293.827264</ele>
        <time>2022-03-07T10:03:06.520Z</time>
      </trkpt>
      <trkpt lat="42.29675" lon="24.38569">
        <ele>291.333685</ele>
        <time>2022-03-07T10:04:06.503Z</time>
      </trkpt>
      <trkpt lat="42.29778" lon="24.38308">
        <ele>290.370577</ele>
        <time>2022-03-07T10:04:56.510Z</time>
      </trkpt>
      <trkpt lat="42.2993" lon="24.38102">
        <ele>291.862011</ele>
        <time>2022-03-07T10:05:59.515Z</time>
      </trkpt>
      <trkpt lat="42.3012" lon="24.37987">
        <ele>291.713092</ele>
        <time>2022-03-07T10:06:59.517Z</time>
      </trkpt>
      <trkpt lat="42.3034" lon="24.37866">
        <ele>293.56666</ele>
        <time>2022-03-07T10:07:58.510Z</time>
      </trkpt>
      <trkpt lat="42.30526" lon="24.37705">
        <ele>291.833295</ele>
        <time>2022-03-07T10:08:51.510Z</time>
      </trkpt>
      <trkpt lat="42.30737" lon="24.37663">
        <ele>298.939091</ele>
        <time>2022-03-07T10:09:53.507Z</time>
      </trkpt>
      <trkpt lat="42.30924" lon="24.37514">
        <ele>300.132881</ele>
        <time>2022-03-07T10:10:54.525Z</time>
      </trkpt>
      <trkpt lat="42.31107" lon="24.3738">
        <ele>300.955454</ele>
        <time>2022-03-07T10:11:56.551Z</time>
      </trkpt>
      <trkpt lat="42.31313" lon="24.37284">
        <ele>304.90259</ele>
        <time>2022-03-07T10:13:05.535Z</time>
      </trkpt>
      <trkpt lat="42.31457" lon="24.37095">
        <ele>308.871489</ele>
        <time>2022-03-07T10:14:20.519Z</time>
      </trkpt>
      <trkpt lat="42.31529" lon="24.36797">
        <ele>305.056585</ele>
        <time>2022-03-07T10:15:03.523Z</time>
      </trkpt>
      <trkpt lat="42.31573" lon="24.3652">
        <ele>304.684834</ele>
        <time>2022-03-07T10:15:57.517Z</time>
      </trkpt>
      <trkpt lat="42.31732" lon="24.36304">
        <ele>306.329911</ele>
        <time>2022-03-07T10:16:57.511Z</time>
      </trkpt>
      <trkpt lat="42.31888" lon="24.3613">
        <ele>310.073364</ele>
        <time>2022-03-07T10:18:14.533Z</time>
      </trkpt>
      <trkpt lat="42.32015" lon="24.35895">
        <ele>312.675802</ele>
        <time>2022-03-07T10:19:15.538Z</time>
      </trkpt>
      <trkpt lat="42.32162" lon="24.3566">
        <ele>310.641583</ele>
        <time>2022-03-07T10:20:15.512Z</time>
      </trkpt>
      <trkpt lat="42.32372" lon="24.35519">
        <ele>311.261815</ele>
        <time>2022-03-07T10:21:13.518Z</time>
      </trkpt>
      <trkpt lat="42.32562" lon="24.35392">
        <ele>311.906631</ele>
        <time>2022-03-07T10:22:00.518Z</time>
      </trkpt>
      <trkpt lat="42.3277" lon="24.3535">
        <ele>317.568326</ele>
        <time>2022-03-07T10:23:01.520Z</time>
      </trkpt>
      <trkpt lat="42.32974" lon="24.35359">
        <ele>325.720102</ele>
        <time>2022-03-07T10:24:29.520Z</time>
      </trkpt>
      <trkpt lat="42.33172" lon="24.35401">
        <ele>332.281351</ele>
        <time>2022-03-07T10:25:53.514Z</time>
      </trkpt>
      <trkpt lat="42.33367" lon="24.35414">
        <ele>340.311155</ele>
        <time>2022-03-07T10:27:33.528Z</time>
      </trkpt>
      <trkpt lat="42.33547" lon="24.3531">
        <ele>344.324469</ele>
        <time>2022-03-07T10:29:13.550Z</time>
      </trkpt>
      <trkpt lat="42.33738" lon="24.35199">
        <ele>347.931096</ele>
        <time>2022-03-07T10:30:37.507Z</time>
      </trkpt>
      <trkpt lat="42.33938" lon="24.35115">
        <ele>350.016695</ele>
        <time>2022-03-07T10:31:47.575Z</time>
      </trkpt>
      <trkpt lat="42.3415" lon="24.35038">
        <ele>351.60129</ele>
        <time>2022-03-07T10:32:51.522Z</time>
      </trkpt>
      <trkpt lat="42.34345" lon="24.34969">
        <ele>354.867899</ele>
        <time>2022-03-07T10:34:12.507Z</time>
      </trkpt>
      <trkpt lat="42.34538" lon="24.34901">
        <ele>359.91677</ele>
        <time>2022-03-07T10:35:38.524Z</time>
      </trkpt>
      <trkpt lat="42.34729" lon="24.3483">
        <ele>364.665878</ele>
        <time>2022-03-07T10:36:58.534Z</time>
      </trkpt>
      <trkpt lat="42.34923" lon="24.3476">
        <ele>370.178694</ele>
        <time>2022-03-07T10:38:24.530Z</time>
      </trkpt>
      <trkpt lat="42.35137" lon="24.34709">
        <ele>372.472404</ele>
        <time>2022-03-07T10:39:40.523Z</time>
      </trkpt>
      <trkpt lat="42.3532" lon="24.34763">
        <ele>379.741358</ele>
        <time>2022-03-07T10:41:05.521Z</time>
      </trkpt>
      <trkpt lat="42.35515" lon="24.34727">
        <ele>389.951017</ele>
        <time>2022-03-07T10:42:49.540Z</time>
      </trkpt>
      <trkpt lat="42.35702" lon="24.34636">
        <ele>395.32652</ele>
        <time>2022-03-07T10:44:14.538Z</time>
      </trkpt>
      <trkpt lat="42.35813" lon="24.34426">
        <ele>402.938537</ele>
        <time>2022-03-07T10:45:39.514Z</time>
      </trkpt>
      <trkpt lat="42.35877" lon="24.34179">
        <ele>410.142897</ele>
        <time>2022-03-07T10:47:20.527Z</time>
      </trkpt>
      <trkpt lat="42.35811" lon="24.33918">
        <ele>413.293346</ele>
        <time>2022-03-07T10:48:31.550Z</time>
      </trkpt>
      <trkpt lat="42.35747" lon="24.33679">
        <ele>419.10272</ele>
        <time>2022-03-07T10:50:15.555Z</time>
      </trkpt>
      <trkpt lat="42.35669" lon="24.33459">
        <ele>413.274761</ele>
        <time>2022-03-07T10:51:37.518Z</time>
      </trkpt>
      <trkpt lat="42.3551" lon="24.33631">
        <ele>394.631635</ele>
        <time>2022-03-07T10:53:07.527Z</time>
      </trkpt>
      <trkpt lat="42.35349" lon="24.33667">
        <ele>380.595074</ele>
        <time>2022-03-07T10:54:33.533Z</time>
      </trkpt>
      <trkpt lat="42.35189" lon="24.33507">
        <ele>364.948381</ele>
        <time>2022-03-07T10:56:02.534Z</time>
      </trkpt>
      <trkpt lat="42.35117" lon="24.33252">
        <ele>347.804354</ele>
        <time>2022-03-07T10:59:46.526Z</time>
      </trkpt>
      <trkpt lat="42.35184" lon="24.32979">
        <ele>343.731247</ele>
        <time>2022-03-07T11:01:02.531Z</time>
      </trkpt>
      <trkpt lat="42.35266" lon="24.32732">
        <ele>340.921593</ele>
        <time>2022-03-07T11:01:58.505Z</time>
      </trkpt>
      <trkpt lat="42.35382" lon="24.3252">
        <ele>344.910198</ele>
        <time>2022-03-07T11:03:19.510Z</time>
      </trkpt>
      <trkpt lat="42.35501" lon="24.32298">
        <ele>351.873618</ele>
        <time>2022-03-07T11:04:57.531Z</time>
      </trkpt>
      <trkpt lat="42.35621" lon="24.32077">
        <ele>356.294197</ele>
        <time>2022-03-07T11:06:25.544Z</time>
      </trkpt>
      <trkpt lat="42.3574" lon="24.31852">
        <ele>361.054362</ele>
        <time>2022-03-07T11:07:50.532Z</time>
      </trkpt>
      <trkpt lat="42.35813" lon="24.31602">
        <ele>365.829601</ele>
        <time>2022-03-07T11:09:18.528Z</time>
      </trkpt>
      <trkpt lat="42.35865" lon="24.31357">
        <ele>366.246498</ele>
        <time>2022-03-07T11:10:19.536Z</time>
      </trkpt>
      <trkpt lat="42.35949" lon="24.31106">
        <ele>375.259843</ele>
        <time>2022-03-07T11:11:28.540Z</time>
      </trkpt>
      <trkpt lat="42.36034" lon="24.30868">
        <ele>389.30145</ele>
        <time>2022-03-07T11:12:58.513Z</time>
      </trkpt>
      <trkpt lat="42.36115" lon="24.30618">
        <ele>399.486877</ele>
        <time>2022-03-07T11:14:44.547Z</time>
      </trkpt>
      <trkpt lat="42.36195" lon="24.30374">
        <ele>406.984113</ele>
        <time>2022-03-07T11:16:20.535Z</time>
      </trkpt>
      <trkpt lat="42.36275" lon="24.30122">
        <ele>407.32739</ele>
        <time>2022-03-07T11:18:01.534Z</time>
      </trkpt>
      <trkpt lat="42.3635" lon="24.29872">
        <ele>405.616924</ele>
        <time>2022-03-07T11:19:40.535Z</time>
      </trkpt>
      <trkpt lat="42.36396" lon="24.29633">
        <ele>414.524158</ele>
        <time>2022-03-07T11:21:35.538Z</time>
      </trkpt>
      <trkpt lat="42.36353" lon="24.29377">
        <ele>426.44879</ele>
        <time>2022-03-07T11:23:37.558Z</time>
      </trkpt>
      <trkpt lat="42.3641" lon="24.29123">
        <ele>435.205365</ele>
        <time>2022-03-07T11:25:25.546Z</time>
      </trkpt>
      <trkpt lat="42.36467" lon="24.28868">
        <ele>446.352307</ele>
        <time>2022-03-07T11:27:34.523Z</time>
      </trkpt>
      <trkpt lat="42.36358" lon="24.28638">
        <ele>451.08054</ele>
        <time>2022-03-07T11:29:16.546Z</time>
      </trkpt>
      <trkpt lat="42.36225" lon="24.28402">
        <ele>447.698964</ele>
        <time>2022-03-07T11:29:56.533Z</time>
      </trkpt>
      <trkpt lat="42.36148" lon="24.28163">
        <ele>449.986505</ele>
        <time>2022-03-07T11:30:56.541Z</time>
      </trkpt>
      <trkpt lat="42.36086" lon="24.27896">
        <ele>453.400132</ele>
        <time>2022-03-07T11:32:02.535Z</time>
      </trkpt>
      <trkpt lat="42.36198" lon="24.27764">
        <ele>456.633895</ele>
        <time>2022-03-07T12:04:00.540Z</time>
      </trkpt>
      <trkpt lat="42.36389" lon="24.27734">
        <ele>462.579935</ele>
        <time>2022-03-07T12:05:27.546Z</time>
      </trkpt>
      <trkpt lat="42.36568" lon="24.27622">
        <ele>466.619153</ele>
        <time>2022-03-07T12:06:51.548Z</time>
      </trkpt>
      <trkpt lat="42.36761" lon="24.2752">
        <ele>470.791701</ele>
        <time>2022-03-07T12:07:58.542Z</time>
      </trkpt>
      <trkpt lat="42.36958" lon="24.27456">
        <ele>478.54529</ele>
        <time>2022-03-07T12:09:30.530Z</time>
      </trkpt>
      <trkpt lat="42.37146" lon="24.27413">
        <ele>486.044872</ele>
        <time>2022-03-07T12:11:07.555Z</time>
      </trkpt>
      <trkpt lat="42.37351" lon="24.27386">
        <ele>493.36769</ele>
        <time>2022-03-07T12:12:44.538Z</time>
      </trkpt>
      <trkpt lat="42.37542" lon="24.27337">
        <ele>498.826072</ele>
        <time>2022-03-07T12:14:29.539Z</time>
      </trkpt>
      <trkpt lat="42.37732" lon="24.27199">
        <ele>497.474778</ele>
        <time>2022-03-07T12:15:38.543Z</time>
      </trkpt>
      <trkpt lat="42.37953" lon="24.27099">
        <ele>493.853582</ele>
        <time>2022-03-07T12:16:20.538Z</time>
      </trkpt>
      <trkpt lat="42.38201" lon="24.26879">
        <ele>475.761231</ele>
        <time>2022-03-07T12:17:00.555Z</time>
      </trkpt>
      <trkpt lat="42.38423" lon="24.26734">
        <ele>463.730473</ele>
        <time>2022-03-07T12:17:34.537Z</time>
      </trkpt>
      <trkpt lat="42.38602" lon="24.26729">
        <ele>468.804189</ele>
        <time>2022-03-07T12:18:33.526Z</time>
      </trkpt>
      <trkpt lat="42.38798" lon="24.26717">
        <ele>477.180233</ele>
        <time>2022-03-07T12:20:10.543Z</time>
      </trkpt>
      <trkpt lat="42.38993" lon="24.26768">
        <ele>482.575819</ele>
        <time>2022-03-07T12:21:27.545Z</time>
      </trkpt>
      <trkpt lat="42.39206" lon="24.26823">
        <ele>481.054628</ele>
        <time>2022-03-07T12:22:21.541Z</time>
      </trkpt>
      <trkpt lat="42.39429" lon="24.26883">
        <ele>483.792494</ele>
        <time>2022-03-07T12:23:16.542Z</time>
      </trkpt>
      <trkpt lat="42.39641" lon="24.26881">
        <ele>484.597826</ele>
        <time>2022-03-07T12:24:30.555Z</time>
      </trkpt>
      <trkpt lat="42.39865" lon="24.26872">
        <ele>482.014804</ele>
        <time>2022-03-07T12:25:13.554Z</time>
      </trkpt>
      <trkpt lat="42.40074" lon="24.2684">
        <ele>489.123024</ele>
        <time>2022-03-07T12:26:32.561Z</time>
      </trkpt>
      <trkpt lat="42.40249" lon="24.26697">
        <ele>486.579434</ele>
        <time>2022-03-07T12:27:23.580Z</time>
      </trkpt>
      <trkpt lat="42.40406" lon="24.26598">
        <ele>482.113518</ele>
        <time>2022-03-07T12:28:04.567Z</time>
      </trkpt>
      <trkpt lat="42.40494" lon="24.26883">
        <ele>477.260946</ele>
        <time>2022-03-07T12:28:44.552Z</time>
      </trkpt>
      <trkpt lat="42.40602" lon="24.27095">
        <ele>474.842672</ele>
        <time>2022-03-07T12:29:28.558Z</time>
      </trkpt>
      <trkpt lat="42.40867" lon="24.27036">
        <ele>461.149302</ele>
        <time>2022-03-07T12:30:02.575Z</time>
      </trkpt>
      <trkpt lat="42.41048" lon="24.26981">
        <ele>453.599495</ele>
        <time>2022-03-07T12:30:22.534Z</time>
      </trkpt>
      <trkpt lat="42.41163" lon="24.27242">
        <ele>443.92962</ele>
        <time>2022-03-07T12:31:02.562Z</time>
      </trkpt>
      <trkpt lat="42.41346" lon="24.27322">
        <ele>430.106915</ele>
        <time>2022-03-07T12:31:46.547Z</time>
      </trkpt>
      <trkpt lat="42.41578" lon="24.27253">
        <ele>415.256359</ele>
        <time>2022-03-07T12:32:26.550Z</time>
      </trkpt>
      <trkpt lat="42.41799" lon="24.27159">
        <ele>402.992109</ele>
        <time>2022-03-07T12:33:06.553Z</time>
      </trkpt>
      <trkpt lat="42.42005" lon="24.27021">
        <ele>394.013678</ele>
        <time>2022-03-07T12:33:46.537Z</time>
      </trkpt>
      <trkpt lat="42.42237" lon="24.26821">
        <ele>388.897891</ele>
        <time>2022-03-07T12:34:24.549Z</time>
      </trkpt>
      <trkpt lat="42.42373" lon="24.26579">
        <ele>390.379628</ele>
        <time>2022-03-07T12:35:15.546Z</time>
      </trkpt>
      <trkpt lat="42.4244" lon="24.26328">
        <ele>392.310685</ele>
        <time>2022-03-07T12:36:06.561Z</time>
      </trkpt>
      <trkpt lat="42.42453" lon="24.26069">
        <ele>403.168916</ele>
        <time>2022-03-07T12:38:03.569Z</time>
      </trkpt>
      <trkpt lat="42.42498" lon="24.25803">
        <ele>411.395567</ele>
        <time>2022-03-07T12:39:57.538Z</time>
      </trkpt>
      <trkpt lat="42.42541" lon="24.25519">
        <ele>415.061577</ele>
        <time>2022-03-07T12:41:14.575Z</time>
      </trkpt>
      <trkpt lat="42.42589" lon="24.25223">
        <ele>413.086653</ele>
        <time>2022-03-07T12:42:18.565Z</time>
      </trkpt>
      <trkpt lat="42.42685" lon="24.24959">
        <ele>410.121715</ele>
        <time>2022-03-07T12:43:08.562Z</time>
      </trkpt>
      <trkpt lat="42.42777" lon="24.24707">
        <ele>405.891515</ele>
        <time>2022-03-07T12:43:48.551Z</time>
      </trkpt>
      <trkpt lat="42.42882" lon="24.24426">
        <ele>402.835045</ele>
        <time>2022-03-07T12:44:28.547Z</time>
      </trkpt>
      <trkpt lat="42.42998" lon="24.24168">
        <ele>407.250083</ele>
        <time>2022-03-07T12:45:19.539Z</time>
      </trkpt>
      <trkpt lat="42.43109" lon="24.23952">
        <ele>403.533087</ele>
        <time>2022-03-07T12:45:59.562Z</time>
      </trkpt>
      <trkpt lat="42.43191" lon="24.23656">
        <ele>401.384797</ele>
        <time>2022-03-07T12:46:57.550Z</time>
      </trkpt>
      <trkpt lat="42.43261" lon="24.23406">
        <ele>407.356065</ele>
        <time>2022-03-07T12:48:03.547Z</time>
      </trkpt>
      <trkpt lat="42.43343" lon="24.23131">
        <ele>407.440135</ele>
        <time>2022-03-07T12:49:09.552Z</time>
      </trkpt>
      <trkpt lat="42.43448" lon="24.2285">
        <ele>406.30109</ele>
        <time>2022-03-07T12:50:01.562Z</time>
      </trkpt>
      <trkpt lat="42.43529" lon="24.22576">
        <ele>408.907299</ele>
        <time>2022-03-07T12:50:50.549Z</time>
      </trkpt>
      <trkpt lat="42.43605" lon="24.22312">
        <ele>409.371974</ele>
        <time>2022-03-07T12:51:41.565Z</time>
      </trkpt>
      <trkpt lat="42.43671" lon="24.22041">
        <ele>411.054761</ele>
        <time>2022-03-07T12:52:34.595Z</time>
      </trkpt>
      <trkpt lat="42.43716" lon="24.2176">
        <ele>413.140923</ele>
        <time>2022-03-07T12:53:25.558Z</time>
      </trkpt>
      <trkpt lat="42.43816" lon="24.21519">
        <ele>412.756274</ele>
        <time>2022-03-07T12:54:22.584Z</time>
      </trkpt>
      <trkpt lat="42.43884" lon="24.21232">
        <ele>412.529776</ele>
        <time>2022-03-07T12:55:16.542Z</time>
      </trkpt>
      <trkpt lat="42.43884" lon="24.20958">
        <ele>415.949323</ele>
        <time>2022-03-07T12:56:19.553Z</time>
      </trkpt>
      <trkpt lat="42.43925" lon="24.20696">
        <ele>421.842916</ele>
        <time>2022-03-07T12:57:25.537Z</time>
      </trkpt>
      <trkpt lat="42.44069" lon="24.20506">
        <ele>423.481111</ele>
        <time>2022-03-07T12:58:25.565Z</time>
      </trkpt>
      <trkpt lat="42.44223" lon="24.2033">
        <ele>425.60469</ele>
        <time>2022-03-07T12:59:38.566Z</time>
      </trkpt>
      <trkpt lat="42.44331" lon="24.20107">
        <ele>423.813252</ele>
        <time>2022-03-07T13:00:32.548Z</time>
      </trkpt>
      <trkpt lat="42.44435" lon="24.19852">
        <ele>426.010698</ele>
        <time>2022-03-07T13:01:26.558Z</time>
      </trkpt>
      <trkpt lat="42.4457" lon="24.19636">
        <ele>427.888271</ele>
        <time>2022-03-07T13:02:33.554Z</time>
      </trkpt>
      <trkpt lat="42.44714" lon="24.19411">
        <ele>429.705822</ele>
        <time>2022-03-07T13:03:33.551Z</time>
      </trkpt>
      <trkpt lat="42.4491" lon="24.19384">
        <ele>439.340085</ele>
        <time>2022-03-07T13:05:06.552Z</time>
      </trkpt>
      <trkpt lat="42.45098" lon="24.19367">
        <ele>451.477608</ele>
        <time>2022-03-07T13:07:12.558Z</time>
      </trkpt>
      <trkpt lat="42.45269" lon="24.19251">
        <ele>461.904368</ele>
        <time>2022-03-07T13:09:15.566Z</time>
      </trkpt>
      <trkpt lat="42.45431" lon="24.19132">
        <ele>472.239202</ele>
        <time>2022-03-07T13:11:10.551Z</time>
      </trkpt>
      <trkpt lat="42.45607" lon="24.19006">
        <ele>482.01115</ele>
        <time>2022-03-07T13:13:15.559Z</time>
      </trkpt>
      <trkpt lat="42.4578" lon="24.18883">
        <ele>495.491134</ele>
        <time>2022-03-07T13:15:21.558Z</time>
      </trkpt>
      <trkpt lat="42.45937" lon="24.1869">
        <ele>502.499952</ele>
        <time>2022-03-07T13:18:40.562Z</time>
      </trkpt>
      <trkpt lat="42.46073" lon="24.18464">
        <ele>507.646142</ele>
        <time>2022-03-07T13:20:00.545Z</time>
      </trkpt>
      <trkpt lat="42.462" lon="24.18258">
        <ele>515.143534</ele>
        <time>2022-03-07T13:21:29.601Z</time>
      </trkpt>
      <trkpt lat="42.46316" lon="24.18062">
        <ele>521.568649</ele>
        <time>2022-03-07T13:23:12.565Z</time>
      </trkpt>
      <trkpt lat="42.4644" lon="24.17853">
        <ele>526.317756</ele>
        <time>2022-03-07T13:24:57.553Z</time>
      </trkpt>
      <trkpt lat="42.46566" lon="24.17646">
        <ele>531.239617</ele>
        <time>2022-03-07T13:26:20.550Z</time>
      </trkpt>
      <trkpt lat="42.46694" lon="24.17438">
        <ele>535.475827</ele>
        <time>2022-03-07T13:27:46.562Z</time>
      </trkpt>
      <trkpt lat="42.46869" lon="24.17321">
        <ele>542.268752</ele>
        <time>2022-03-07T13:29:28.561Z</time>
      </trkpt>
      <trkpt lat="42.47057" lon="24.17264">
        <ele>554.497358</ele>
        <time>2022-03-07T13:31:09.561Z</time>
      </trkpt>
      <trkpt lat="42.4716" lon="24.17465">
        <ele>559.357416</ele>
        <time>2022-03-07T13:33:13.559Z</time>
      </trkpt>
      <trkpt lat="42.47239" lon="24.17682">
        <ele>568.778641</ele>
        <time>2022-03-07T13:35:19.567Z</time>
      </trkpt>
      <trkpt lat="42.47426" lon="24.17688">
        <ele>581.85027</ele>
        <time>2022-03-07T13:37:35.573Z</time>
      </trkpt>
      <trkpt lat="42.47595" lon="24.17808">
        <ele>593.247421</ele>
        <time>2022-03-07T13:39:57.559Z</time>
      </trkpt>
      <trkpt lat="42.47764" lon="24.17927">
        <ele>602.95531</ele>
        <time>2022-03-07T13:42:17.553Z</time>
      </trkpt>
      <trkpt lat="42.47909" lon="24.17747">
        <ele>604.920167</ele>
        <time>2022-03-07T13:43:36.548Z</time>
      </trkpt>
      <trkpt lat="42.48117" lon="24.17668">
        <ele>596.357476</ele>
        <time>2022-03-07T13:44:16.565Z</time>
      </trkpt>
      <trkpt lat="42.48237" lon="24.17998">
        <ele>584.949634</ele>
        <time>2022-03-07T13:44:47.565Z</time>
      </trkpt>
      <trkpt lat="42.48346" lon="24.18202">
        <ele>576.913761</ele>
        <time>2022-03-07T13:45:07.555Z</time>
      </trkpt>
      <trkpt lat="42.48481" lon="24.18494">
        <ele>569.245453</ele>
        <time>2022-03-07T13:45:36.550Z</time>
      </trkpt>
      <trkpt lat="42.48582" lon="24.18767">
        <ele>571.996739</ele>
        <time>2022-03-07T13:46:29.549Z</time>
      </trkpt>
      <trkpt lat="42.48779" lon="24.18787">
        <ele>569.388924</ele>
        <time>2022-03-07T13:47:28.555Z</time>
      </trkpt>
      <trkpt lat="42.49052" lon="24.18698">
        <ele>561.332808</ele>
        <time>2022-03-07T13:48:08.574Z</time>
      </trkpt>
      <trkpt lat="42.49329" lon="24.18675">
        <ele>556.484394</ele>
        <time>2022-03-07T13:48:50.565Z</time>
      </trkpt>
      <trkpt lat="42.4954" lon="24.18709">
        <ele>557.265184</ele>
        <time>2022-03-07T13:49:48.550Z</time>
      </trkpt>
      <trkpt lat="42.4976" lon="24.18723">
        <ele>563.572561</ele>
        <time>2022-03-07T13:50:52.550Z</time>
      </trkpt>
      <trkpt lat="42.49975" lon="24.18757">
        <ele>569.785774</ele>
        <time>2022-03-07T13:52:11.554Z</time>
      </trkpt>
      <trkpt lat="42.50185" lon="24.18804">
        <ele>574.122</ele>
        <time>2022-03-07T13:53:52.598Z</time>
      </trkpt>
      <trkpt lat="42.50361" lon="24.18713">
        <ele>571.954594</ele>
        <time>2022-03-07T13:54:52.566Z</time>
      </trkpt>
      <trkpt lat="42.50552" lon="24.18807">
        <ele>563.976933</ele>
        <time>2022-03-07T13:56:02.573Z</time>
      </trkpt>
      <trkpt lat="42.50658" lon="24.18579">
        <ele>567.363863</ele>
        <time>2022-03-07T13:57:31.586Z</time>
      </trkpt>
      <trkpt lat="42.50839" lon="24.18486">
        <ele>574.442578</ele>
        <time>2022-03-07T13:58:52.615Z</time>
      </trkpt>
      <trkpt lat="42.51032" lon="24.185">
        <ele>579.291502</ele>
        <time>2022-03-07T14:00:17.577Z</time>
      </trkpt>
      <trkpt lat="42.51104" lon="24.183">
        <ele>585.63368</ele>
        <time>2022-03-07T14:01:52.586Z</time>
      </trkpt>
      <trkpt lat="42.51134" lon="24.18226">
        <ele>585.63368</ele>
        <time>2022-03-07T14:10:29.135Z</time>
      </trkpt>
    </trkseg>
  </trk>
  <trk>
    <name><![CDATA[Tour d'Europe: étape 613]]></name>
    <extensions>
      <line xmlns="http://www.topografix.com/GPX/gpx_style/0/2">
        <color>FF00FF</color>
        <width>4</width>
      </line>
    </extensions>
    <trkseg>
      <trkpt lat="42.0801" lon="25.1897">
        <ele>193.734324</ele>
        <time>2022-03-03T07:51:04.390Z</time>
      </trkpt>
      <trkpt lat="42.08028" lon="25.18839">
        <ele>193.948148</ele>
        <time>2022-03-03T07:51:45.384Z</time>
      </trkpt>
      <trkpt lat="42.07876" lon="25.18688">
        <ele>195.13472</ele>
        <time>2022-03-03T07:53:33.428Z</time>
      </trkpt>
      <trkpt lat="42.07673" lon="25.18738">
        <ele>192.233836</ele>
        <time>2022-03-03T07:54:44.402Z</time>
      </trkpt>
      <trkpt lat="42.07472" lon="25.18776">
        <ele>196.173226</ele>
        <time>2022-03-03T07:55:57.386Z</time>
      </trkpt>
      <trkpt lat="42.07306" lon="25.18589">
        <ele>197.496228</ele>
        <time>2022-03-03T07:57:03.394Z</time>
      </trkpt>
      <trkpt lat="42.07165" lon="25.18378">
        <ele>196.116176</ele>
        <time>2022-03-03T07:58:13.389Z</time>
      </trkpt>
      <trkpt lat="42.07093" lon="25.18119">
        <ele>198.462707</ele>
        <time>2022-03-03T07:59:13.390Z</time>
      </trkpt>
      <trkpt lat="42.06949" lon="25.1791">
        <ele>203.599682</ele>
        <time>2022-03-03T08:00:15.402Z</time>
      </trkpt>
      <trkpt lat="42.06814" lon="25.17713">
        <ele>206.027219</ele>
        <time>2022-03-03T08:01:19.427Z</time>
      </trkpt>
      <trkpt lat="42.06684" lon="25.17506">
        <ele>207.421893</ele>
        <time>2022-03-03T08:02:40.390Z</time>
      </trkpt>
      <trkpt lat="42.06571" lon="25.17269">
        <ele>210.272707</ele>
        <time>2022-03-03T08:04:04.423Z</time>
      </trkpt>
      <trkpt lat="42.06462" lon="25.17022">
        <ele>211.763782</ele>
        <time>2022-03-03T08:05:21.400Z</time>
      </trkpt>
      <trkpt lat="42.06345" lon="25.16789">
        <ele>215.841217</ele>
        <time>2022-03-03T08:06:41.391Z</time>
      </trkpt>
      <trkpt lat="42.06209" lon="25.16573">
        <ele>216.453074</ele>
        <time>2022-03-03T08:07:57.406Z</time>
      </trkpt>
      <trkpt lat="42.06106" lon="25.16293">
        <ele>210.70019</ele>
        <time>2022-03-03T08:08:53.402Z</time>
      </trkpt>
      <trkpt lat="42.06013" lon="25.16037">
        <ele>217.45966</ele>
        <time>2022-03-03T08:10:07.433Z</time>
      </trkpt>
      <trkpt lat="42.05906" lon="25.15811">
        <ele>222.938878</ele>
        <time>2022-03-03T08:11:47.384Z</time>
      </trkpt>
      <trkpt lat="42.05777" lon="25.15611">
        <ele>223.380648</ele>
        <time>2022-03-03T08:12:57.400Z</time>
      </trkpt>
      <trkpt lat="42.05624" lon="25.15402">
        <ele>222.375807</ele>
        <time>2022-03-03T08:13:56.402Z</time>
      </trkpt>
      <trkpt lat="42.05465" lon="25.15182">
        <ele>220.386166</ele>
        <time>2022-03-03T08:14:55.401Z</time>
      </trkpt>
      <trkpt lat="42.0532" lon="25.14979">
        <ele>225.233238</ele>
        <time>2022-03-03T08:16:15.399Z</time>
      </trkpt>
      <trkpt lat="42.05178" lon="25.14776">
        <ele>228.478599</ele>
        <time>2022-03-03T08:17:38.397Z</time>
      </trkpt>
      <trkpt lat="42.05041" lon="25.14583">
        <ele>226.712416</ele>
        <time>2022-03-03T08:18:40.395Z</time>
      </trkpt>
      <trkpt lat="42.04901" lon="25.14389">
        <ele>225.749293</ele>
        <time>2022-03-03T08:19:41.394Z</time>
      </trkpt>
      <trkpt lat="42.04751" lon="25.14192">
        <ele>226.346292</ele>
        <time>2022-03-03T08:20:52.389Z</time>
      </trkpt>
      <trkpt lat="42.046" lon="25.13994">
        <ele>227.487985</ele>
        <time>2022-03-03T08:22:11.405Z</time>
      </trkpt>
      <trkpt lat="42.04435" lon="25.13815">
        <ele>226.649896</ele>
        <time>2022-03-03T08:23:25.419Z</time>
      </trkpt>
      <trkpt lat="42.0426" lon="25.1367">
        <ele>225.440703</ele>
        <time>2022-03-03T08:24:28.386Z</time>
      </trkpt>
      <trkpt lat="42.04101" lon="25.13486">
        <ele>227.416906</ele>
        <time>2022-03-03T08:25:37.406Z</time>
      </trkpt>
      <trkpt lat="42.03998" lon="25.13259">
        <ele>226.381649</ele>
        <time>2022-03-03T08:26:45.393Z</time>
      </trkpt>
      <trkpt lat="42.03958" lon="25.12993">
        <ele>230.537138</ele>
        <time>2022-03-03T08:28:12.406Z</time>
      </trkpt>
      <trkpt lat="42.03898" lon="25.12736">
        <ele>232.24447</ele>
        <time>2022-03-03T08:29:32.397Z</time>
      </trkpt>
      <trkpt lat="42.03796" lon="25.12498">
        <ele>235.369627</ele>
        <time>2022-03-03T08:30:51.404Z</time>
      </trkpt>
      <trkpt lat="42.03618" lon="25.12379">
        <ele>233.510044</ele>
        <time>2022-03-03T08:31:58.409Z</time>
      </trkpt>
      <trkpt lat="42.03482" lon="25.1217">
        <ele>238.320846</ele>
        <time>2022-03-03T08:33:08.412Z</time>
      </trkpt>
      <trkpt lat="42.03352" lon="25.11942">
        <ele>241.638735</ele>
        <time>2022-03-03T08:34:23.439Z</time>
      </trkpt>
      <trkpt lat="42.03246" lon="25.11708">
        <ele>239.196839</ele>
        <time>2022-03-03T08:35:26.384Z</time>
      </trkpt>
      <trkpt lat="42.03088" lon="25.11523">
        <ele>239.180853</ele>
        <time>2022-03-03T08:36:26.446Z</time>
      </trkpt>
      <trkpt lat="42.02925" lon="25.11356">
        <ele>242.570053</ele>
        <time>2022-03-03T08:37:26.443Z</time>
      </trkpt>
      <trkpt lat="42.02787" lon="25.11171">
        <ele>246.381329</ele>
        <time>2022-03-03T08:38:26.402Z</time>
      </trkpt>
      <trkpt lat="42.02741" lon="25.10922">
        <ele>245.964242</ele>
        <time>2022-03-03T08:39:35.394Z</time>
      </trkpt>
      <trkpt lat="42.02629" lon="25.10689">
        <ele>249.477572</ele>
        <time>2022-03-03T08:40:45.445Z</time>
      </trkpt>
      <trkpt lat="42.02492" lon="25.1048">
        <ele>252.794563</ele>
        <time>2022-03-03T08:41:58.402Z</time>
      </trkpt>
      <trkpt lat="42.02358" lon="25.10273">
        <ele>249.727909</ele>
        <time>2022-03-03T08:43:03.432Z</time>
      </trkpt>
      <trkpt lat="42.02279" lon="25.10049">
        <ele>250.257964</ele>
        <time>2022-03-03T08:44:18.401Z</time>
      </trkpt>
      <trkpt lat="42.023" lon="25.09781">
        <ele>257.335218</ele>
        <time>2022-03-03T08:46:01.398Z</time>
      </trkpt>
      <trkpt lat="42.02257" lon="25.09516">
        <ele>262.370602</ele>
        <time>2022-03-03T08:47:25.437Z</time>
      </trkpt>
      <trkpt lat="42.02211" lon="25.09265">
        <ele>263.479413</ele>
        <time>2022-03-03T08:48:45.402Z</time>
      </trkpt>
      <trkpt lat="42.02135" lon="25.09018">
        <ele>260.797032</ele>
        <time>2022-03-03T08:50:00.445Z</time>
      </trkpt>
      <trkpt lat="42.02038" lon="25.08749">
        <ele>259.787603</ele>
        <time>2022-03-03T08:51:02.463Z</time>
      </trkpt>
      <trkpt lat="42.01956" lon="25.08506">
        <ele>259.426149</ele>
        <time>2022-03-03T08:52:04.405Z</time>
      </trkpt>
      <trkpt lat="42.01909" lon="25.08228">
        <ele>264.239355</ele>
        <time>2022-03-03T08:53:15.398Z</time>
      </trkpt>
      <trkpt lat="42.0187" lon="25.07969">
        <ele>265.546758</ele>
        <time>2022-03-03T08:54:29.413Z</time>
      </trkpt>
      <trkpt lat="42.01774" lon="25.07742">
        <ele>264.394793</ele>
        <time>2022-03-03T08:55:49.399Z</time>
      </trkpt>
      <trkpt lat="42.01677" lon="25.0751">
        <ele>267.050711</ele>
        <time>2022-03-03T08:57:10.450Z</time>
      </trkpt>
      <trkpt lat="42.01624" lon="25.07243">
        <ele>270.576873</ele>
        <time>2022-03-03T08:58:34.385Z</time>
      </trkpt>
      <trkpt lat="42.01624" lon="25.06974">
        <ele>274.434088</ele>
        <time>2022-03-03T09:00:00.408Z</time>
      </trkpt>
      <trkpt lat="42.01606" lon="25.06699">
        <ele>276.619212</ele>
        <time>2022-03-03T09:01:21.402Z</time>
      </trkpt>
      <trkpt lat="42.01575" lon="25.06419">
        <ele>279.048594</ele>
        <time>2022-03-03T09:02:40.406Z</time>
      </trkpt>
      <trkpt lat="42.01526" lon="25.06154">
        <ele>279.480344</ele>
        <time>2022-03-03T09:04:02.444Z</time>
      </trkpt>
      <trkpt lat="42.0147" lon="25.05892">
        <ele>278.80321</ele>
        <time>2022-03-03T09:05:22.394Z</time>
      </trkpt>
      <trkpt lat="42.01359" lon="25.05658">
        <ele>277.564545</ele>
        <time>2022-03-03T09:06:37.388Z</time>
      </trkpt>
      <trkpt lat="42.01229" lon="25.05431">
        <ele>284.109271</ele>
        <time>2022-03-03T09:07:51.412Z</time>
      </trkpt>
      <trkpt lat="42.01192" lon="25.05155">
        <ele>290.694039</ele>
        <time>2022-03-03T09:09:00.407Z</time>
      </trkpt>
      <trkpt lat="42.01218" lon="25.04874">
        <ele>292.883915</ele>
        <time>2022-03-03T09:10:16.434Z</time>
      </trkpt>
      <trkpt lat="42.01179" lon="25.04605">
        <ele>290.689709</ele>
        <time>2022-03-03T09:11:34.418Z</time>
      </trkpt>
      <trkpt lat="42.01256" lon="25.04359">
        <ele>292.826559</ele>
        <time>2022-03-03T09:12:59.422Z</time>
      </trkpt>
      <trkpt lat="42.01366" lon="25.04136">
        <ele>291.594651</ele>
        <time>2022-03-03T09:14:15.426Z</time>
      </trkpt>
      <trkpt lat="42.01506" lon="25.0392">
        <ele>287.780711</ele>
        <time>2022-03-03T09:15:16.410Z</time>
      </trkpt>
      <trkpt lat="42.01606" lon="25.03662">
        <ele>283.90791</ele>
        <time>2022-03-03T09:16:18.443Z</time>
      </trkpt>
      <trkpt lat="42.01667" lon="25.03397">
        <ele>280.860728</ele>
        <time>2022-03-03T09:17:24.467Z</time>
      </trkpt>
      <trkpt lat="42.01744" lon="25.03151">
        <ele>285.249006</ele>
        <time>2022-03-03T09:18:48.447Z</time>
      </trkpt>
      <trkpt lat="42.01832" lon="25.02908">
        <ele>295.404755</ele>
        <time>2022-03-03T09:20:15.408Z</time>
      </trkpt>
      <trkpt lat="42.01901" lon="25.02636">
        <ele>290.538232</ele>
        <time>2022-03-03T09:21:32.413Z</time>
      </trkpt>
      <trkpt lat="42.01979" lon="25.02374">
        <ele>291.370985</ele>
        <time>2022-03-03T09:22:46.415Z</time>
      </trkpt>
      <trkpt lat="42.02079" lon="25.02117">
        <ele>293.752982</ele>
        <time>2022-03-03T09:23:57.416Z</time>
      </trkpt>
      <trkpt lat="42.02169" lon="25.01849">
        <ele>288.14405</ele>
        <time>2022-03-03T09:24:58.407Z</time>
      </trkpt>
      <trkpt lat="42.02262" lon="25.01596">
        <ele>278.622655</ele>
        <time>2022-03-03T09:25:41.406Z</time>
      </trkpt>
      <trkpt lat="42.02323" lon="25.01298">
        <ele>275.766406</ele>
        <time>2022-03-03T09:26:41.417Z</time>
      </trkpt>
      <trkpt lat="42.02332" lon="25.01027">
        <ele>278.091809</ele>
        <time>2022-03-03T09:27:42.443Z</time>
      </trkpt>
      <trkpt lat="42.02361" lon="25.00754">
        <ele>279.218169</ele>
        <time>2022-03-03T09:28:49.403Z</time>
      </trkpt>
      <trkpt lat="42.02384" lon="25.00471">
        <ele>275.722492</ele>
        <time>2022-03-03T09:29:37.447Z</time>
      </trkpt>
      <trkpt lat="42.02398" lon="25.00197">
        <ele>273.443613</ele>
        <time>2022-03-03T09:30:17.410Z</time>
      </trkpt>
      <trkpt lat="42.02414" lon="24.99891">
        <ele>268.42384</ele>
        <time>2022-03-03T09:31:09.418Z</time>
      </trkpt>
      <trkpt lat="42.02431" lon="24.99599">
        <ele>264.525715</ele>
        <time>2022-03-03T09:31:57.430Z</time>
      </trkpt>
      <trkpt lat="42.0248" lon="24.99299">
        <ele>261.312777</ele>
        <time>2022-03-03T09:32:49.427Z</time>
      </trkpt>
      <trkpt lat="42.02544" lon="24.99008">
        <ele>263.998622</ele>
        <time>2022-03-03T09:33:48.403Z</time>
      </trkpt>
      <trkpt lat="42.02684" lon="24.98965">
        <ele>255.04419</ele>
        <time>2022-03-03T09:34:34.409Z</time>
      </trkpt>
      <trkpt lat="42.02856" lon="24.99134">
        <ele>254.193729</ele>
        <time>2022-03-03T09:35:20.405Z</time>
      </trkpt>
      <trkpt lat="42.0294" lon="24.99387">
        <ele>248.85323</ele>
        <time>2022-03-03T09:36:05.424Z</time>
      </trkpt>
      <trkpt lat="42.03141" lon="24.99522">
        <ele>244.657334</ele>
        <time>2022-03-03T09:36:53.418Z</time>
      </trkpt>
      <trkpt lat="42.03339" lon="24.99628">
        <ele>240.111816</ele>
        <time>2022-03-03T09:37:35.432Z</time>
      </trkpt>
      <trkpt lat="42.03548" lon="24.9973">
        <ele>238.834896</ele>
        <time>2022-03-03T09:38:24.404Z</time>
      </trkpt>
      <trkpt lat="42.03786" lon="24.99783">
        <ele>237.693799</ele>
        <time>2022-03-03T09:39:20.419Z</time>
      </trkpt>
      <trkpt lat="42.04006" lon="24.99886">
        <ele>242.266792</ele>
        <time>2022-03-03T09:40:17.421Z</time>
      </trkpt>
      <trkpt lat="42.04115" lon="25.00005">
        <ele>241.069137</ele>
        <time>2022-03-03T09:41:25.419Z</time>
      </trkpt>
      <trkpt lat="42.04282" lon="24.99836">
        <ele>236.059178</ele>
        <time>2022-03-03T09:42:27.419Z</time>
      </trkpt>
      <trkpt lat="42.04506" lon="24.99724">
        <ele>231.975985</ele>
        <time>2022-03-03T09:43:27.407Z</time>
      </trkpt>
      <trkpt lat="42.04644" lon="24.99517">
        <ele>231.556099</ele>
        <time>2022-03-03T09:44:27.421Z</time>
      </trkpt>
      <trkpt lat="42.04774" lon="24.99295">
        <ele>233.709997</ele>
        <time>2022-03-03T09:45:27.397Z</time>
      </trkpt>
      <trkpt lat="42.04903" lon="24.99078">
        <ele>229.96412</ele>
        <time>2022-03-03T09:46:28.409Z</time>
      </trkpt>
      <trkpt lat="42.05027" lon="24.9886">
        <ele>227.206244</ele>
        <time>2022-03-03T09:47:31.398Z</time>
      </trkpt>
      <trkpt lat="42.05152" lon="24.98645">
        <ele>224.105223</ele>
        <time>2022-03-03T09:48:36.411Z</time>
      </trkpt>
      <trkpt lat="42.05283" lon="24.98424">
        <ele>225.303971</ele>
        <time>2022-03-03T09:49:36.406Z</time>
      </trkpt>
      <trkpt lat="42.05416" lon="24.98201">
        <ele>219.52143</ele>
        <time>2022-03-03T09:50:37.405Z</time>
      </trkpt>
      <trkpt lat="42.0554" lon="24.9799">
        <ele>216.521813</ele>
        <time>2022-03-03T09:51:38.397Z</time>
      </trkpt>
      <trkpt lat="42.05666" lon="24.97778">
        <ele>216.683587</ele>
        <time>2022-03-03T09:52:43.402Z</time>
      </trkpt>
      <trkpt lat="42.05794" lon="24.97558">
        <ele>219.509674</ele>
        <time>2022-03-03T09:53:44.433Z</time>
      </trkpt>
      <trkpt lat="42.05902" lon="24.97318">
        <ele>223.943425</ele>
        <time>2022-03-03T09:54:44.398Z</time>
      </trkpt>
      <trkpt lat="42.06001" lon="24.97064">
        <ele>218.016058</ele>
        <time>2022-03-03T09:55:44.396Z</time>
      </trkpt>
      <trkpt lat="42.06129" lon="24.9685">
        <ele>211.769202</ele>
        <time>2022-03-03T09:56:44.398Z</time>
      </trkpt>
      <trkpt lat="42.06259" lon="24.96634">
        <ele>211.763861</ele>
        <time>2022-03-03T09:57:45.413Z</time>
      </trkpt>
      <trkpt lat="42.06385" lon="24.96423">
        <ele>212.625794</ele>
        <time>2022-03-03T09:58:45.430Z</time>
      </trkpt>
      <trkpt lat="42.06451" lon="24.9615">
        <ele>222.054788</ele>
        <time>2022-03-03T09:59:45.413Z</time>
      </trkpt>
      <trkpt lat="42.06545" lon="24.95916">
        <ele>217.614239</ele>
        <time>2022-03-03T10:00:48.417Z</time>
      </trkpt>
      <trkpt lat="42.0673" lon="24.95822">
        <ele>218.693069</ele>
        <time>2022-03-03T10:02:25.428Z</time>
      </trkpt>
      <trkpt lat="42.0681" lon="24.9565">
        <ele>233.546778</ele>
        <time>2022-03-03T10:04:35.449Z</time>
      </trkpt>
      <trkpt lat="42.06825" lon="24.9542">
        <ele>237.483935</ele>
        <time>2022-03-03T10:35:27.396Z</time>
      </trkpt>
      <trkpt lat="42.06912" lon="24.95162">
        <ele>238.235505</ele>
        <time>2022-03-03T10:36:32.441Z</time>
      </trkpt>
      <trkpt lat="42.0704" lon="24.94927">
        <ele>233.31836</ele>
        <time>2022-03-03T10:37:23.431Z</time>
      </trkpt>
      <trkpt lat="42.07223" lon="24.94767">
        <ele>228.73769</ele>
        <time>2022-03-03T10:38:09.427Z</time>
      </trkpt>
      <trkpt lat="42.07389" lon="24.94627">
        <ele>225.110961</ele>
        <time>2022-03-03T10:38:48.424Z</time>
      </trkpt>
      <trkpt lat="42.07542" lon="24.94468">
        <ele>225.134855</ele>
        <time>2022-03-03T10:39:28.452Z</time>
      </trkpt>
      <trkpt lat="42.07726" lon="24.94261">
        <ele>225.947136</ele>
        <time>2022-03-03T10:40:26.463Z</time>
      </trkpt>
      <trkpt lat="42.07911" lon="24.94059">
        <ele>226.26996</ele>
        <time>2022-03-03T10:41:25.437Z</time>
      </trkpt>
      <trkpt lat="42.08093" lon="24.93864">
        <ele>224.433973</ele>
        <time>2022-03-03T10:42:21.422Z</time>
      </trkpt>
      <trkpt lat="42.08271" lon="24.93658">
        <ele>222.18853</ele>
        <time>2022-03-03T10:43:20.444Z</time>
      </trkpt>
      <trkpt lat="42.08427" lon="24.93465">
        <ele>222.817295</ele>
        <time>2022-03-03T10:44:20.431Z</time>
      </trkpt>
      <trkpt lat="42.0857" lon="24.93249">
        <ele>224.850315</ele>
        <time>2022-03-03T10:45:20.436Z</time>
      </trkpt>
      <trkpt lat="42.087" lon="24.9297">
        <ele>221.093682</ele>
        <time>2022-03-03T10:46:20.470Z</time>
      </trkpt>
      <trkpt lat="42.0882" lon="24.92709">
        <ele>218.880635</ele>
        <time>2022-03-03T10:47:20.434Z</time>
      </trkpt>
      <trkpt lat="42.08947" lon="24.92438">
        <ele>217.378287</ele>
        <time>2022-03-03T10:48:20.439Z</time>
      </trkpt>
      <trkpt lat="42.09067" lon="24.92184">
        <ele>216.495531</ele>
        <time>2022-03-03T10:49:21.440Z</time>
      </trkpt>
      <trkpt lat="42.09182" lon="24.91949">
        <ele>213.085819</ele>
        <time>2022-03-03T10:50:22.463Z</time>
      </trkpt>
      <trkpt lat="42.09294" lon="24.91717">
        <ele>212.370551</ele>
        <time>2022-03-03T10:51:28.432Z</time>
      </trkpt>
      <trkpt lat="42.09398" lon="24.91501">
        <ele>212.183423</ele>
        <time>2022-03-03T10:52:28.423Z</time>
      </trkpt>
      <trkpt lat="42.09512" lon="24.91267">
        <ele>210.98977</ele>
        <time>2022-03-03T10:53:37.430Z</time>
      </trkpt>
      <trkpt lat="42.0958" lon="24.91007">
        <ele>211.960781</ele>
        <time>2022-03-03T10:54:43.419Z</time>
      </trkpt>
      <trkpt lat="42.09632" lon="24.90753">
        <ele>214.172399</ele>
        <time>2022-03-03T10:55:44.412Z</time>
      </trkpt>
      <trkpt lat="42.09727" lon="24.90498">
        <ele>215.344709</ele>
        <time>2022-03-03T10:56:44.425Z</time>
      </trkpt>
      <trkpt lat="42.0981" lon="24.9022">
        <ele>211.173435</ele>
        <time>2022-03-03T10:57:44.415Z</time>
      </trkpt>
      <trkpt lat="42.09876" lon="24.89946">
        <ele>209.62429</ele>
        <time>2022-03-03T10:58:45.434Z</time>
      </trkpt>
      <trkpt lat="42.09944" lon="24.89679">
        <ele>206.180774</ele>
        <time>2022-03-03T10:59:57.427Z</time>
      </trkpt>
      <trkpt lat="42.09994" lon="24.89403">
        <ele>206.334967</ele>
        <time>2022-03-03T11:01:07.471Z</time>
      </trkpt>
      <trkpt lat="42.10046" lon="24.89126">
        <ele>204.386557</ele>
        <time>2022-03-03T11:02:14.466Z</time>
      </trkpt>
      <trkpt lat="42.10048" lon="24.8884">
        <ele>205.990004</ele>
        <time>2022-03-03T11:03:33.524Z</time>
      </trkpt>
      <trkpt lat="42.10025" lon="24.88568">
        <ele>206.560808</ele>
        <time>2022-03-03T11:04:41.458Z</time>
      </trkpt>
      <trkpt lat="42.10003" lon="24.88303">
        <ele>206.844465</ele>
        <time>2022-03-03T11:05:43.464Z</time>
      </trkpt>
      <trkpt lat="42.09974" lon="24.88025">
        <ele>214.097279</ele>
        <time>2022-03-03T11:14:10.461Z</time>
      </trkpt>
      <trkpt lat="42.09981" lon="24.87744">
        <ele>221.106261</ele>
        <time>2022-03-03T11:15:16.480Z</time>
      </trkpt>
      <trkpt lat="42.10027" lon="24.87453">
        <ele>217.828472</ele>
        <time>2022-03-03T11:16:18.437Z</time>
      </trkpt>
      <trkpt lat="42.10036" lon="24.87182">
        <ele>210.398341</ele>
        <time>2022-03-03T11:17:18.443Z</time>
      </trkpt>
      <trkpt lat="42.09996" lon="24.86894">
        <ele>212.38536</ele>
        <time>2022-03-03T11:18:19.454Z</time>
      </trkpt>
      <trkpt lat="42.10023" lon="24.86603">
        <ele>211.690759</ele>
        <time>2022-03-03T11:19:15.429Z</time>
      </trkpt>
      <trkpt lat="42.102" lon="24.86725">
        <ele>208.850802</ele>
        <time>2022-03-03T11:21:02.422Z</time>
      </trkpt>
      <trkpt lat="42.10332" lon="24.86623">
        <ele>204.12147</ele>
        <time>2022-03-03T11:21:51.457Z</time>
      </trkpt>
      <trkpt lat="42.10389" lon="24.86349">
        <ele>202.903382</ele>
        <time>2022-03-03T11:22:45.429Z</time>
      </trkpt>
      <trkpt lat="42.10518" lon="24.86127">
        <ele>202.341504</ele>
        <time>2022-03-03T11:23:45.443Z</time>
      </trkpt>
      <trkpt lat="42.10639" lon="24.85913">
        <ele>203.020661</ele>
        <time>2022-03-03T11:24:45.430Z</time>
      </trkpt>
      <trkpt lat="42.10765" lon="24.85696">
        <ele>201.905766</ele>
        <time>2022-03-03T11:25:45.440Z</time>
      </trkpt>
      <trkpt lat="42.10897" lon="24.85461">
        <ele>206.691312</ele>
        <time>2022-03-03T11:26:45.464Z</time>
      </trkpt>
      <trkpt lat="42.11012" lon="24.85198">
        <ele>209.98145</ele>
        <time>2022-03-03T11:27:45.438Z</time>
      </trkpt>
      <trkpt lat="42.1109" lon="24.84934">
        <ele>208.709468</ele>
        <time>2022-03-03T11:28:46.450Z</time>
      </trkpt>
      <trkpt lat="42.11182" lon="24.84643">
        <ele>206.725183</ele>
        <time>2022-03-03T11:29:44.404Z</time>
      </trkpt>
      <trkpt lat="42.1127" lon="24.84343">
        <ele>203.629798</ele>
        <time>2022-03-03T11:30:44.411Z</time>
      </trkpt>
      <trkpt lat="42.11353" lon="24.84071">
        <ele>206.719599</ele>
        <time>2022-03-03T11:31:44.431Z</time>
      </trkpt>
      <trkpt lat="42.11433" lon="24.83795">
        <ele>206.344658</ele>
        <time>2022-03-03T11:32:44.414Z</time>
      </trkpt>
      <trkpt lat="42.11535" lon="24.83551">
        <ele>202.480655</ele>
        <time>2022-03-03T11:33:44.417Z</time>
      </trkpt>
      <trkpt lat="42.11694" lon="24.8338">
        <ele>198.709733</ele>
        <time>2022-03-03T11:34:44.427Z</time>
      </trkpt>
      <trkpt lat="42.1185" lon="24.83194">
        <ele>194.091071</ele>
        <time>2022-03-03T11:35:44.426Z</time>
      </trkpt>
      <trkpt lat="42.12013" lon="24.83007">
        <ele>193.118186</ele>
        <time>2022-03-03T11:36:45.446Z</time>
      </trkpt>
      <trkpt lat="42.12172" lon="24.82822">
        <ele>194.381014</ele>
        <time>2022-03-03T11:37:48.435Z</time>
      </trkpt>
      <trkpt lat="42.12335" lon="24.82639">
        <ele>198.903976</ele>
        <time>2022-03-03T11:38:50.435Z</time>
      </trkpt>
      <trkpt lat="42.1249" lon="24.82458">
        <ele>201.57717</ele>
        <time>2022-03-03T11:39:50.443Z</time>
      </trkpt>
      <trkpt lat="42.1266" lon="24.82264">
        <ele>202.205615</ele>
        <time>2022-03-03T11:40:50.443Z</time>
      </trkpt>
      <trkpt lat="42.12843" lon="24.82054">
        <ele>197.499894</ele>
        <time>2022-03-03T11:41:48.454Z</time>
      </trkpt>
      <trkpt lat="42.13023" lon="24.81849">
        <ele>194.243274</ele>
        <time>2022-03-03T11:42:47.425Z</time>
      </trkpt>
      <trkpt lat="42.13186" lon="24.81662">
        <ele>196.244959</ele>
        <time>2022-03-03T11:43:48.423Z</time>
      </trkpt>
      <trkpt lat="42.13348" lon="24.81477">
        <ele>195.990353</ele>
        <time>2022-03-03T11:44:53.437Z</time>
      </trkpt>
      <trkpt lat="42.13507" lon="24.81296">
        <ele>197.258766</ele>
        <time>2022-03-03T11:46:00.447Z</time>
      </trkpt>
      <trkpt lat="42.13662" lon="24.81118">
        <ele>198.76558</ele>
        <time>2022-03-03T11:47:01.428Z</time>
      </trkpt>
      <trkpt lat="42.13824" lon="24.80932">
        <ele>199.597129</ele>
        <time>2022-03-03T11:48:01.445Z</time>
      </trkpt>
      <trkpt lat="42.13989" lon="24.80743">
        <ele>198.922294</ele>
        <time>2022-03-03T11:49:01.446Z</time>
      </trkpt>
      <trkpt lat="42.14152" lon="24.80554">
        <ele>200.441495</ele>
        <time>2022-03-03T11:50:01.466Z</time>
      </trkpt>
      <trkpt lat="42.14328" lon="24.80495">
        <ele>198.542301</ele>
        <time>2022-03-03T11:52:55.469Z</time>
      </trkpt>
      <trkpt lat="42.14547" lon="24.80572">
        <ele>192.592789</ele>
        <time>2022-03-03T11:53:55.462Z</time>
      </trkpt>
      <trkpt lat="42.14761" lon="24.80644">
        <ele>192.226</ele>
        <time>2022-03-03T11:54:46.491Z</time>
      </trkpt>
      <trkpt lat="42.14872" lon="24.80805">
        <ele>192.755337</ele>
        <time>2022-03-03T11:55:37.413Z</time>
      </trkpt>
      <trkpt lat="42.14763" lon="24.80681">
        <ele>199.946182</ele>
        <time>2022-03-03T11:56:50.423Z</time>
      </trkpt>
      <trkpt lat="42.14757" lon="24.80387">
        <ele>197.691163</ele>
        <time>2022-03-03T11:57:50.432Z</time>
      </trkpt>
      <trkpt lat="42.14779" lon="24.80102">
        <ele>193.549912</ele>
        <time>2022-03-03T11:58:35.440Z</time>
      </trkpt>
      <trkpt lat="42.148" lon="24.79824">
        <ele>194.270369</ele>
        <time>2022-03-03T11:59:24.466Z</time>
      </trkpt>
      <trkpt lat="42.14817" lon="24.79541">
        <ele>197.048839</ele>
        <time>2022-03-03T12:00:24.466Z</time>
      </trkpt>
      <trkpt lat="42.14828" lon="24.79269">
        <ele>199.893531</ele>
        <time>2022-03-03T12:01:29.430Z</time>
      </trkpt>
      <trkpt lat="42.14854" lon="24.78972">
        <ele>204.442244</ele>
        <time>2022-03-03T12:05:04.414Z</time>
      </trkpt>
      <trkpt lat="42.1487" lon="24.78692">
        <ele>209.171275</ele>
        <time>2022-03-03T12:06:12.440Z</time>
      </trkpt>
      <trkpt lat="42.14881" lon="24.78397">
        <ele>211.928779</ele>
        <time>2022-03-03T12:07:20.426Z</time>
      </trkpt>
      <trkpt lat="42.14904" lon="24.78097">
        <ele>210.549528</ele>
        <time>2022-03-03T12:08:16.465Z</time>
      </trkpt>
      <trkpt lat="42.14924" lon="24.77804">
        <ele>200.603364</ele>
        <time>2022-03-03T12:09:19.481Z</time>
      </trkpt>
      <trkpt lat="42.14925" lon="24.77504">
        <ele>203.552271</ele>
        <time>2022-03-03T12:10:18.442Z</time>
      </trkpt>
      <trkpt lat="42.14868" lon="24.77206">
        <ele>212.036346</ele>
        <time>2022-03-03T12:11:15.433Z</time>
      </trkpt>
      <trkpt lat="42.14815" lon="24.7692">
        <ele>211.608412</ele>
        <time>2022-03-03T12:12:11.431Z</time>
      </trkpt>
      <trkpt lat="42.14755" lon="24.7661">
        <ele>209.848681</ele>
        <time>2022-03-03T12:13:08.444Z</time>
      </trkpt>
      <trkpt lat="42.14702" lon="24.763">
        <ele>217.729339</ele>
        <time>2022-03-03T12:15:06.433Z</time>
      </trkpt>
      <trkpt lat="42.14655" lon="24.76048">
        <ele>228.008999</ele>
        <time>2022-03-03T12:16:19.425Z</time>
      </trkpt>
      <trkpt lat="42.14771" lon="24.75868">
        <ele>225.765915</ele>
        <time>2022-03-03T12:17:44.429Z</time>
      </trkpt>
      <trkpt lat="42.14717" lon="24.75604">
        <ele>220.734155</ele>
        <time>2022-03-03T12:18:57.449Z</time>
      </trkpt>
      <trkpt lat="42.14674" lon="24.75405">
        <ele>230.975374</ele>
        <time>2022-03-03T12:21:38.417Z</time>
      </trkpt>
      <trkpt lat="42.1473" lon="24.75404">
        <ele>230.975374</ele>
        <time>2022-03-03T12:44:10.295Z</time>
      </trkpt>
    </trkseg>
  </trk>
  <trk>
    <name><![CDATA[Tour d'Europe: étape 612]]></name>
    <extensions>
      <line xmlns="http://www.topografix.com/GPX/gpx_style/0/2">
        <color>000088</color>
        <width>4</width>
      </line>
    </extensions>
    <trkseg>
      <trkpt lat="41.93396" lon="25.55768">
        <ele>219.911504</ele>
        <time>2022-03-02T07:58:54.918Z</time>
      </trkpt>
      <trkpt lat="41.93293" lon="25.55706">
        <ele>224.344761</ele>
        <time>2022-03-02T08:04:58.937Z</time>
      </trkpt>
      <trkpt lat="41.93279" lon="25.55451">
        <ele>240.861701</ele>
        <time>2022-03-02T08:06:16.935Z</time>
      </trkpt>
      <trkpt lat="41.93367" lon="25.55237">
        <ele>234.692059</ele>
        <time>2022-03-02T08:07:23.894Z</time>
      </trkpt>
      <trkpt lat="41.9344" lon="25.54985">
        <ele>235.904993</ele>
        <time>2022-03-02T08:08:06.897Z</time>
      </trkpt>
      <trkpt lat="41.93425" lon="25.54682">
        <ele>239.176971</ele>
        <time>2022-03-02T08:08:58.901Z</time>
      </trkpt>
      <trkpt lat="41.93498" lon="25.54428">
        <ele>238.939634</ele>
        <time>2022-03-02T08:09:53.912Z</time>
      </trkpt>
      <trkpt lat="41.93614" lon="25.54207">
        <ele>243.946023</ele>
        <time>2022-03-02T08:11:40.909Z</time>
      </trkpt>
      <trkpt lat="41.93733" lon="25.54022">
        <ele>242.340225</ele>
        <time>2022-03-02T08:13:16.902Z</time>
      </trkpt>
      <trkpt lat="41.9368" lon="25.53791">
        <ele>241.241632</ele>
        <time>2022-03-02T08:14:29.901Z</time>
      </trkpt>
      <trkpt lat="41.93654" lon="25.5349">
        <ele>240.293433</ele>
        <time>2022-03-02T08:15:12.897Z</time>
      </trkpt>
      <trkpt lat="41.93614" lon="25.53172">
        <ele>240.471094</ele>
        <time>2022-03-02T08:16:12.898Z</time>
      </trkpt>
      <trkpt lat="41.93579" lon="25.52901">
        <ele>244.4674</ele>
        <time>2022-03-02T08:17:12.894Z</time>
      </trkpt>
      <trkpt lat="41.93483" lon="25.5264">
        <ele>241.976586</ele>
        <time>2022-03-02T08:18:12.878Z</time>
      </trkpt>
      <trkpt lat="41.93364" lon="25.52383">
        <ele>238.153845</ele>
        <time>2022-03-02T08:19:12.907Z</time>
      </trkpt>
      <trkpt lat="41.93239" lon="25.52122">
        <ele>242.049384</ele>
        <time>2022-03-02T08:20:12.887Z</time>
      </trkpt>
      <trkpt lat="41.93122" lon="25.51872">
        <ele>239.895416</ele>
        <time>2022-03-02T08:21:02.908Z</time>
      </trkpt>
      <trkpt lat="41.92997" lon="25.51607">
        <ele>240.495089</ele>
        <time>2022-03-02T08:22:02.895Z</time>
      </trkpt>
      <trkpt lat="41.92907" lon="25.51338">
        <ele>246.088616</ele>
        <time>2022-03-02T08:23:02.958Z</time>
      </trkpt>
      <trkpt lat="41.92894" lon="25.51045">
        <ele>253.689616</ele>
        <time>2022-03-02T08:24:02.933Z</time>
      </trkpt>
      <trkpt lat="41.92882" lon="25.50771">
        <ele>257.930077</ele>
        <time>2022-03-02T08:25:02.891Z</time>
      </trkpt>
      <trkpt lat="41.92865" lon="25.505">
        <ele>260.566819</ele>
        <time>2022-03-02T08:26:02.889Z</time>
      </trkpt>
      <trkpt lat="41.92846" lon="25.50222">
        <ele>263.546445</ele>
        <time>2022-03-02T08:27:16.903Z</time>
      </trkpt>
      <trkpt lat="41.9283" lon="25.49936">
        <ele>265.64155</ele>
        <time>2022-03-02T08:28:33.925Z</time>
      </trkpt>
      <trkpt lat="41.92838" lon="25.49645">
        <ele>263.015659</ele>
        <time>2022-03-02T08:29:40.938Z</time>
      </trkpt>
      <trkpt lat="41.92885" lon="25.49397">
        <ele>266.197866</ele>
        <time>2022-03-02T08:30:57.887Z</time>
      </trkpt>
      <trkpt lat="41.9293" lon="25.49143">
        <ele>269.48703</ele>
        <time>2022-03-02T08:32:21.900Z</time>
      </trkpt>
      <trkpt lat="41.92975" lon="25.48892">
        <ele>271.144591</ele>
        <time>2022-03-02T08:33:44.905Z</time>
      </trkpt>
      <trkpt lat="41.93021" lon="25.48616">
        <ele>271.101935</ele>
        <time>2022-03-02T08:34:44.898Z</time>
      </trkpt>
      <trkpt lat="41.93056" lon="25.48351">
        <ele>274.612724</ele>
        <time>2022-03-02T08:36:08.915Z</time>
      </trkpt>
      <trkpt lat="41.93084" lon="25.4808">
        <ele>276.68308</ele>
        <time>2022-03-02T08:37:14.896Z</time>
      </trkpt>
      <trkpt lat="41.9313" lon="25.47813">
        <ele>278.185758</ele>
        <time>2022-03-02T08:38:23.930Z</time>
      </trkpt>
      <trkpt lat="41.93218" lon="25.4754">
        <ele>280.316381</ele>
        <time>2022-03-02T08:39:23.888Z</time>
      </trkpt>
      <trkpt lat="41.93306" lon="25.47269">
        <ele>282.680923</ele>
        <time>2022-03-02T08:40:37.887Z</time>
      </trkpt>
      <trkpt lat="41.93385" lon="25.47025">
        <ele>286.299931</ele>
        <time>2022-03-02T08:42:02.895Z</time>
      </trkpt>
      <trkpt lat="41.93412" lon="25.46758">
        <ele>288.065324</ele>
        <time>2022-03-02T08:43:36.898Z</time>
      </trkpt>
      <trkpt lat="41.93464" lon="25.46445">
        <ele>280.320218</ele>
        <time>2022-03-02T08:44:18.903Z</time>
      </trkpt>
      <trkpt lat="41.93571" lon="25.46169">
        <ele>272.958729</ele>
        <time>2022-03-02T08:45:02.899Z</time>
      </trkpt>
      <trkpt lat="41.93633" lon="25.45892">
        <ele>266.659342</ele>
        <time>2022-03-02T08:45:49.903Z</time>
      </trkpt>
      <trkpt lat="41.93829" lon="25.45707">
        <ele>264.128742</ele>
        <time>2022-03-02T08:46:28.916Z</time>
      </trkpt>
      <trkpt lat="41.94025" lon="25.45595">
        <ele>267.881387</ele>
        <time>2022-03-02T08:47:44.890Z</time>
      </trkpt>
      <trkpt lat="41.94208" lon="25.45493">
        <ele>272.991647</ele>
        <time>2022-03-02T08:49:12.908Z</time>
      </trkpt>
      <trkpt lat="41.94404" lon="25.45379">
        <ele>270.987275</ele>
        <time>2022-03-02T08:50:04.918Z</time>
      </trkpt>
      <trkpt lat="41.94598" lon="25.45269">
        <ele>274.267284</ele>
        <time>2022-03-02T08:51:19.915Z</time>
      </trkpt>
      <trkpt lat="41.9478" lon="25.45166">
        <ele>281.25124</ele>
        <time>2022-03-02T08:53:01.909Z</time>
      </trkpt>
      <trkpt lat="41.94971" lon="25.45042">
        <ele>283.323464</ele>
        <time>2022-03-02T08:54:26.938Z</time>
      </trkpt>
      <trkpt lat="41.95184" lon="25.44897">
        <ele>277.466539</ele>
        <time>2022-03-02T08:55:08.881Z</time>
      </trkpt>
      <trkpt lat="41.95366" lon="25.44772">
        <ele>281.981555</ele>
        <time>2022-03-02T08:56:38.890Z</time>
      </trkpt>
      <trkpt lat="41.95614" lon="25.44607">
        <ele>266.079287</ele>
        <time>2022-03-02T08:57:23.913Z</time>
      </trkpt>
      <trkpt lat="41.95849" lon="25.44663">
        <ele>244.960424</ele>
        <time>2022-03-02T08:57:54.905Z</time>
      </trkpt>
      <trkpt lat="41.9608" lon="25.44917">
        <ele>222.329721</ele>
        <time>2022-03-02T08:58:29.924Z</time>
      </trkpt>
      <trkpt lat="41.96328" lon="25.44779">
        <ele>205.403091</ele>
        <time>2022-03-02T08:59:09.903Z</time>
      </trkpt>
      <trkpt lat="41.96541" lon="25.44817">
        <ele>201.777044</ele>
        <time>2022-03-02T09:00:04.903Z</time>
      </trkpt>
      <trkpt lat="41.96669" lon="25.44601">
        <ele>200.464633</ele>
        <time>2022-03-02T09:01:07.896Z</time>
      </trkpt>
      <trkpt lat="41.96795" lon="25.44417">
        <ele>201.246502</ele>
        <time>2022-03-02T09:02:18.917Z</time>
      </trkpt>
      <trkpt lat="41.96837" lon="25.44159">
        <ele>206.774367</ele>
        <time>2022-03-02T09:03:57.904Z</time>
      </trkpt>
      <trkpt lat="41.96902" lon="25.4391">
        <ele>213.639593</ele>
        <time>2022-03-02T09:05:45.900Z</time>
      </trkpt>
      <trkpt lat="41.9701" lon="25.43706">
        <ele>221.973686</ele>
        <time>2022-03-02T09:07:14.936Z</time>
      </trkpt>
      <trkpt lat="41.97087" lon="25.43486">
        <ele>229.993411</ele>
        <time>2022-03-02T09:08:57.894Z</time>
      </trkpt>
      <trkpt lat="41.97253" lon="25.43611">
        <ele>244.83795</ele>
        <time>2022-03-02T09:11:41.924Z</time>
      </trkpt>
      <trkpt lat="41.97433" lon="25.43513">
        <ele>250.484076</ele>
        <time>2022-03-02T09:13:20.904Z</time>
      </trkpt>
      <trkpt lat="41.97589" lon="25.43359">
        <ele>259.168412</ele>
        <time>2022-03-02T09:15:24.904Z</time>
      </trkpt>
      <trkpt lat="41.97746" lon="25.43211">
        <ele>267.005642</ele>
        <time>2022-03-02T09:17:28.899Z</time>
      </trkpt>
      <trkpt lat="41.97922" lon="25.43087">
        <ele>273.899463</ele>
        <time>2022-03-02T09:19:21.900Z</time>
      </trkpt>
      <trkpt lat="41.981" lon="25.43043">
        <ele>274.075884</ele>
        <time>2022-03-02T09:20:55.906Z</time>
      </trkpt>
      <trkpt lat="41.98236" lon="25.43216">
        <ele>276.483653</ele>
        <time>2022-03-02T09:22:15.906Z</time>
      </trkpt>
      <trkpt lat="41.98435" lon="25.43185">
        <ele>277.327924</ele>
        <time>2022-03-02T09:23:39.902Z</time>
      </trkpt>
      <trkpt lat="41.98616" lon="25.43053">
        <ele>274.301775</ele>
        <time>2022-03-02T09:24:59.905Z</time>
      </trkpt>
      <trkpt lat="41.98781" lon="25.42858">
        <ele>274.417707</ele>
        <time>2022-03-02T09:26:17.901Z</time>
      </trkpt>
      <trkpt lat="41.98925" lon="25.42648">
        <ele>277.212679</ele>
        <time>2022-03-02T09:27:39.898Z</time>
      </trkpt>
      <trkpt lat="41.99043" lon="25.42439">
        <ele>282.996589</ele>
        <time>2022-03-02T09:29:28.901Z</time>
      </trkpt>
      <trkpt lat="41.99196" lon="25.42292">
        <ele>288.375642</ele>
        <time>2022-03-02T09:31:24.897Z</time>
      </trkpt>
      <trkpt lat="41.99402" lon="25.42294">
        <ele>290.481983</ele>
        <time>2022-03-02T09:33:00.913Z</time>
      </trkpt>
      <trkpt lat="41.99587" lon="25.42298">
        <ele>296.501729</ele>
        <time>2022-03-02T09:34:30.904Z</time>
      </trkpt>
      <trkpt lat="41.99784" lon="25.42292">
        <ele>297.528294</ele>
        <time>2022-03-02T09:36:09.913Z</time>
      </trkpt>
      <trkpt lat="42.00003" lon="25.42349">
        <ele>283.48023</ele>
        <time>2022-03-02T09:37:06.893Z</time>
      </trkpt>
      <trkpt lat="42.00179" lon="25.4249">
        <ele>278.886685</ele>
        <time>2022-03-02T09:38:14.911Z</time>
      </trkpt>
      <trkpt lat="42.00369" lon="25.42632">
        <ele>268.277089</ele>
        <time>2022-03-02T09:39:18.917Z</time>
      </trkpt>
      <trkpt lat="42.0053" lon="25.42788">
        <ele>254.827039</ele>
        <time>2022-03-02T09:40:14.901Z</time>
      </trkpt>
      <trkpt lat="42.00743" lon="25.4285">
        <ele>245.651563</ele>
        <time>2022-03-02T09:41:16.922Z</time>
      </trkpt>
      <trkpt lat="42.00954" lon="25.42824">
        <ele>228.588618</ele>
        <time>2022-03-02T09:42:34.913Z</time>
      </trkpt>
      <trkpt lat="42.01165" lon="25.42855">
        <ele>213.607883</ele>
        <time>2022-03-02T09:43:34.914Z</time>
      </trkpt>
      <trkpt lat="42.01368" lon="25.42853">
        <ele>207.481512</ele>
        <time>2022-03-02T09:44:32.920Z</time>
      </trkpt>
      <trkpt lat="42.01554" lon="25.42749">
        <ele>207.919217</ele>
        <time>2022-03-02T09:45:45.905Z</time>
      </trkpt>
      <trkpt lat="42.01776" lon="25.42752">
        <ele>206.154211</ele>
        <time>2022-03-02T09:46:56.918Z</time>
      </trkpt>
      <trkpt lat="42.01985" lon="25.42694">
        <ele>203.840749</ele>
        <time>2022-03-02T09:47:56.894Z</time>
      </trkpt>
      <trkpt lat="42.02126" lon="25.42509">
        <ele>210.424262</ele>
        <time>2022-03-02T09:49:01.903Z</time>
      </trkpt>
      <trkpt lat="42.02275" lon="25.42576">
        <ele>210.102827</ele>
        <time>2022-03-02T09:50:10.898Z</time>
      </trkpt>
      <trkpt lat="42.02454" lon="25.42697">
        <ele>208.722477</ele>
        <time>2022-03-02T09:51:30.914Z</time>
      </trkpt>
      <trkpt lat="42.02617" lon="25.42778">
        <ele>210.389229</ele>
        <time>2022-03-02T09:52:58.913Z</time>
      </trkpt>
      <trkpt lat="42.02778" lon="25.42951">
        <ele>211.467951</ele>
        <time>2022-03-02T09:54:32.910Z</time>
      </trkpt>
      <trkpt lat="42.02917" lon="25.43158">
        <ele>205.02082</ele>
        <time>2022-03-02T09:55:23.914Z</time>
      </trkpt>
      <trkpt lat="42.03166" lon="25.4331">
        <ele>196.322036</ele>
        <time>2022-03-02T09:56:03.957Z</time>
      </trkpt>
      <trkpt lat="42.03365" lon="25.43461">
        <ele>196.519064</ele>
        <time>2022-03-02T09:56:59.922Z</time>
      </trkpt>
      <trkpt lat="42.03544" lon="25.43598">
        <ele>200.262763</ele>
        <time>2022-03-02T09:58:09.900Z</time>
      </trkpt>
      <trkpt lat="42.0375" lon="25.43697">
        <ele>202.185244</ele>
        <time>2022-03-02T09:59:23.911Z</time>
      </trkpt>
      <trkpt lat="42.03945" lon="25.43788">
        <ele>203.471823</ele>
        <time>2022-03-02T10:00:36.946Z</time>
      </trkpt>
      <trkpt lat="42.04141" lon="25.43838">
        <ele>207.385228</ele>
        <time>2022-03-02T10:01:56.924Z</time>
      </trkpt>
      <trkpt lat="42.04345" lon="25.43816">
        <ele>212.58202</ele>
        <time>2022-03-02T10:03:31.917Z</time>
      </trkpt>
      <trkpt lat="42.04544" lon="25.43734">
        <ele>214.36456</ele>
        <time>2022-03-02T10:05:03.917Z</time>
      </trkpt>
      <trkpt lat="42.04805" lon="25.43687">
        <ele>203.454078</ele>
        <time>2022-03-02T10:05:43.898Z</time>
      </trkpt>
      <trkpt lat="42.05028" lon="25.4365">
        <ele>195.102026</ele>
        <time>2022-03-02T10:06:23.941Z</time>
      </trkpt>
      <trkpt lat="42.05279" lon="25.43608">
        <ele>185.77771</ele>
        <time>2022-03-02T10:07:03.911Z</time>
      </trkpt>
      <trkpt lat="42.05506" lon="25.43614">
        <ele>181.559016</ele>
        <time>2022-03-02T10:07:43.913Z</time>
      </trkpt>
      <trkpt lat="42.05713" lon="25.43618">
        <ele>187.385935</ele>
        <time>2022-03-02T10:09:05.910Z</time>
      </trkpt>
      <trkpt lat="42.059" lon="25.43626">
        <ele>196.881041</ele>
        <time>2022-03-02T10:10:59.916Z</time>
      </trkpt>
      <trkpt lat="42.06102" lon="25.43629">
        <ele>200.722862</ele>
        <time>2022-03-02T10:12:51.921Z</time>
      </trkpt>
      <trkpt lat="42.06317" lon="25.43638">
        <ele>197.610797</ele>
        <time>2022-03-02T10:14:04.923Z</time>
      </trkpt>
      <trkpt lat="42.06525" lon="25.43675">
        <ele>193.205544</ele>
        <time>2022-03-02T10:15:04.926Z</time>
      </trkpt>
      <trkpt lat="42.06745" lon="25.43736">
        <ele>175.492926</ele>
        <time>2022-03-02T10:15:55.900Z</time>
      </trkpt>
      <trkpt lat="42.06907" lon="25.43942">
        <ele>167.329424</ele>
        <time>2022-03-02T10:16:49.918Z</time>
      </trkpt>
      <trkpt lat="42.07014" lon="25.43904">
        <ele>170.531215</ele>
        <time>2022-03-02T10:38:01.926Z</time>
      </trkpt>
      <trkpt lat="42.07041" lon="25.43651">
        <ele>184.836821</ele>
        <time>2022-03-02T10:39:54.904Z</time>
      </trkpt>
      <trkpt lat="42.07114" lon="25.43411">
        <ele>192.253153</ele>
        <time>2022-03-02T10:42:15.928Z</time>
      </trkpt>
      <trkpt lat="42.07176" lon="25.4315">
        <ele>190.165817</ele>
        <time>2022-03-02T10:43:36.942Z</time>
      </trkpt>
      <trkpt lat="42.07225" lon="25.42881">
        <ele>186.623536</ele>
        <time>2022-03-02T10:44:35.926Z</time>
      </trkpt>
      <trkpt lat="42.07355" lon="25.42614">
        <ele>177.015517</ele>
        <time>2022-03-02T10:45:15.911Z</time>
      </trkpt>
      <trkpt lat="42.07513" lon="25.4231">
        <ele>170.937453</ele>
        <time>2022-03-02T10:45:57.924Z</time>
      </trkpt>
      <trkpt lat="42.07622" lon="25.42087">
        <ele>179.119973</ele>
        <time>2022-03-02T10:47:16.900Z</time>
      </trkpt>
      <trkpt lat="42.07725" lon="25.4185">
        <ele>183.883343</ele>
        <time>2022-03-02T10:48:39.931Z</time>
      </trkpt>
      <trkpt lat="42.078" lon="25.41602">
        <ele>196.313982</ele>
        <time>2022-03-02T10:50:27.907Z</time>
      </trkpt>
      <trkpt lat="42.07856" lon="25.41367">
        <ele>204.014383</ele>
        <time>2022-03-02T10:52:06.899Z</time>
      </trkpt>
      <trkpt lat="42.07915" lon="25.41114">
        <ele>205.804366</ele>
        <time>2022-03-02T10:53:50.891Z</time>
      </trkpt>
      <trkpt lat="42.07974" lon="25.40865">
        <ele>210.818001</ele>
        <time>2022-03-02T10:55:15.896Z</time>
      </trkpt>
      <trkpt lat="42.08035" lon="25.40609">
        <ele>216.320327</ele>
        <time>2022-03-02T10:56:42.892Z</time>
      </trkpt>
      <trkpt lat="42.08088" lon="25.40358">
        <ele>216.766462</ele>
        <time>2022-03-02T10:58:21.917Z</time>
      </trkpt>
      <trkpt lat="42.08072" lon="25.40061">
        <ele>210.712745</ele>
        <time>2022-03-02T10:59:09.945Z</time>
      </trkpt>
      <trkpt lat="42.07945" lon="25.39751">
        <ele>202.64044</ele>
        <time>2022-03-02T10:59:46.897Z</time>
      </trkpt>
      <trkpt lat="42.07972" lon="25.39464">
        <ele>204.840234</ele>
        <time>2022-03-02T11:01:02.902Z</time>
      </trkpt>
      <trkpt lat="42.07924" lon="25.39201">
        <ele>203.09359</ele>
        <time>2022-03-02T11:02:06.913Z</time>
      </trkpt>
      <trkpt lat="42.08052" lon="25.39309">
        <ele>195.826345</ele>
        <time>2022-03-02T11:03:28.929Z</time>
      </trkpt>
      <trkpt lat="42.08176" lon="25.39033">
        <ele>195.628103</ele>
        <time>2022-03-02T11:04:37.918Z</time>
      </trkpt>
      <trkpt lat="42.08268" lon="25.38782">
        <ele>199.182771</ele>
        <time>2022-03-02T11:05:44.893Z</time>
      </trkpt>
      <trkpt lat="42.08345" lon="25.38532">
        <ele>195.341834</ele>
        <time>2022-03-02T11:06:46.892Z</time>
      </trkpt>
      <trkpt lat="42.08492" lon="25.38219">
        <ele>183.426887</ele>
        <time>2022-03-02T11:07:31.887Z</time>
      </trkpt>
      <trkpt lat="42.08728" lon="25.38024">
        <ele>170.564023</ele>
        <time>2022-03-02T11:08:02.892Z</time>
      </trkpt>
      <trkpt lat="42.08842" lon="25.37775">
        <ele>159.286568</ele>
        <time>2022-03-02T11:08:22.892Z</time>
      </trkpt>
      <trkpt lat="42.09012" lon="25.37556">
        <ele>154.608459</ele>
        <time>2022-03-02T11:08:53.905Z</time>
      </trkpt>
      <trkpt lat="42.09216" lon="25.37441">
        <ele>156.915078</ele>
        <time>2022-03-02T11:09:47.898Z</time>
      </trkpt>
      <trkpt lat="42.09344" lon="25.37235">
        <ele>164.909107</ele>
        <time>2022-03-02T11:10:54.893Z</time>
      </trkpt>
      <trkpt lat="42.09438" lon="25.37">
        <ele>167.204451</ele>
        <time>2022-03-02T11:11:55.897Z</time>
      </trkpt>
      <trkpt lat="42.0952" lon="25.36742">
        <ele>164.971796</ele>
        <time>2022-03-02T11:12:51.896Z</time>
      </trkpt>
      <trkpt lat="42.09583" lon="25.36484">
        <ele>162.46714</ele>
        <time>2022-03-02T11:13:35.889Z</time>
      </trkpt>
      <trkpt lat="42.09596" lon="25.36197">
        <ele>159.523828</ele>
        <time>2022-03-02T11:14:35.899Z</time>
      </trkpt>
      <trkpt lat="42.09445" lon="25.36002">
        <ele>161.184001</ele>
        <time>2022-03-02T11:15:57.925Z</time>
      </trkpt>
      <trkpt lat="42.09419" lon="25.35724">
        <ele>161.575367</ele>
        <time>2022-03-02T11:16:59.922Z</time>
      </trkpt>
      <trkpt lat="42.09389" lon="25.35421">
        <ele>158.970563</ele>
        <time>2022-03-02T11:17:55.926Z</time>
      </trkpt>
      <trkpt lat="42.09356" lon="25.3512">
        <ele>157.877432</ele>
        <time>2022-03-02T11:18:46.909Z</time>
      </trkpt>
      <trkpt lat="42.09357" lon="25.34839">
        <ele>159.413337</ele>
        <time>2022-03-02T11:19:51.924Z</time>
      </trkpt>
      <trkpt lat="42.09366" lon="25.34569">
        <ele>159.750728</ele>
        <time>2022-03-02T11:20:54.925Z</time>
      </trkpt>
      <trkpt lat="42.09398" lon="25.34298">
        <ele>158.58772</ele>
        <time>2022-03-02T11:22:11.939Z</time>
      </trkpt>
      <trkpt lat="42.09454" lon="25.34035">
        <ele>160.313205</ele>
        <time>2022-03-02T11:23:20.916Z</time>
      </trkpt>
      <trkpt lat="42.0954" lon="25.33786">
        <ele>161.803264</ele>
        <time>2022-03-02T11:24:29.918Z</time>
      </trkpt>
      <trkpt lat="42.09592" lon="25.33522">
        <ele>159.683824</ele>
        <time>2022-03-02T11:25:46.926Z</time>
      </trkpt>
      <trkpt lat="42.09573" lon="25.33251">
        <ele>156.320994</ele>
        <time>2022-03-02T11:26:49.902Z</time>
      </trkpt>
      <trkpt lat="42.09541" lon="25.32987">
        <ele>159.468267</ele>
        <time>2022-03-02T11:27:56.927Z</time>
      </trkpt>
      <trkpt lat="42.09515" lon="25.32714">
        <ele>161.575317</ele>
        <time>2022-03-02T11:29:12.933Z</time>
      </trkpt>
      <trkpt lat="42.09491" lon="25.32446">
        <ele>162.75739</ele>
        <time>2022-03-02T11:30:19.920Z</time>
      </trkpt>
      <trkpt lat="42.09462" lon="25.32167">
        <ele>164.113687</ele>
        <time>2022-03-02T11:31:21.916Z</time>
      </trkpt>
      <trkpt lat="42.09458" lon="25.31887">
        <ele>166.282292</ele>
        <time>2022-03-02T11:32:21.900Z</time>
      </trkpt>
      <trkpt lat="42.09459" lon="25.31589">
        <ele>168.179822</ele>
        <time>2022-03-02T11:33:17.920Z</time>
      </trkpt>
      <trkpt lat="42.09484" lon="25.3129">
        <ele>167.750627</ele>
        <time>2022-03-02T11:34:17.919Z</time>
      </trkpt>
      <trkpt lat="42.0961" lon="25.31072">
        <ele>171.387254</ele>
        <time>2022-03-02T11:35:18.919Z</time>
      </trkpt>
      <trkpt lat="42.09704" lon="25.30827">
        <ele>170.096784</ele>
        <time>2022-03-02T11:36:21.913Z</time>
      </trkpt>
      <trkpt lat="42.0977" lon="25.30571">
        <ele>167.519465</ele>
        <time>2022-03-02T11:37:25.926Z</time>
      </trkpt>
      <trkpt lat="42.09802" lon="25.30309">
        <ele>164.556515</ele>
        <time>2022-03-02T11:38:25.933Z</time>
      </trkpt>
      <trkpt lat="42.09841" lon="25.29992">
        <ele>160.720747</ele>
        <time>2022-03-02T11:39:23.907Z</time>
      </trkpt>
      <trkpt lat="42.09879" lon="25.29678">
        <ele>161.792575</ele>
        <time>2022-03-02T11:40:23.910Z</time>
      </trkpt>
      <trkpt lat="42.09912" lon="25.29396">
        <ele>163.194549</ele>
        <time>2022-03-02T11:41:23.930Z</time>
      </trkpt>
      <trkpt lat="42.09946" lon="25.29127">
        <ele>164.891891</ele>
        <time>2022-03-02T11:42:20.912Z</time>
      </trkpt>
      <trkpt lat="42.0998" lon="25.28846">
        <ele>166.056727</ele>
        <time>2022-03-02T11:43:34.921Z</time>
      </trkpt>
      <trkpt lat="42.10017" lon="25.28544">
        <ele>163.431863</ele>
        <time>2022-03-02T11:44:26.917Z</time>
      </trkpt>
      <trkpt lat="42.10039" lon="25.28262">
        <ele>164.053831</ele>
        <time>2022-03-02T11:45:15.944Z</time>
      </trkpt>
      <trkpt lat="42.10055" lon="25.27994">
        <ele>167.953085</ele>
        <time>2022-03-02T11:46:20.928Z</time>
      </trkpt>
      <trkpt lat="42.10072" lon="25.27734">
        <ele>167.761075</ele>
        <time>2022-03-02T11:47:21.913Z</time>
      </trkpt>
      <trkpt lat="42.10097" lon="25.27448">
        <ele>164.256876</ele>
        <time>2022-03-02T11:48:07.917Z</time>
      </trkpt>
      <trkpt lat="42.10137" lon="25.2716">
        <ele>160.709973</ele>
        <time>2022-03-02T11:48:49.966Z</time>
      </trkpt>
      <trkpt lat="42.1018" lon="25.26852">
        <ele>160.476277</ele>
        <time>2022-03-02T11:49:44.918Z</time>
      </trkpt>
      <trkpt lat="42.10228" lon="25.26519">
        <ele>163.339933</ele>
        <time>2022-03-02T11:50:44.914Z</time>
      </trkpt>
      <trkpt lat="42.10274" lon="25.26194">
        <ele>165.212659</ele>
        <time>2022-03-02T11:51:44.920Z</time>
      </trkpt>
      <trkpt lat="42.10304" lon="25.25893">
        <ele>168.902614</ele>
        <time>2022-03-02T11:52:44.947Z</time>
      </trkpt>
      <trkpt lat="42.10242" lon="25.25592">
        <ele>171.009465</ele>
        <time>2022-03-02T11:53:44.917Z</time>
      </trkpt>
      <trkpt lat="42.10176" lon="25.253">
        <ele>169.533582</ele>
        <time>2022-03-02T11:54:44.909Z</time>
      </trkpt>
      <trkpt lat="42.10112" lon="25.25031">
        <ele>170.226814</ele>
        <time>2022-03-02T11:55:44.925Z</time>
      </trkpt>
      <trkpt lat="42.10052" lon="25.24759">
        <ele>171.69928</ele>
        <time>2022-03-02T11:56:44.923Z</time>
      </trkpt>
      <trkpt lat="42.0999" lon="25.24495">
        <ele>169.990128</ele>
        <time>2022-03-02T11:57:41.917Z</time>
      </trkpt>
      <trkpt lat="42.09932" lon="25.24215">
        <ele>172.039986</ele>
        <time>2022-03-02T11:58:41.909Z</time>
      </trkpt>
      <trkpt lat="42.09885" lon="25.23939">
        <ele>177.18403</ele>
        <time>2022-03-02T11:59:42.921Z</time>
      </trkpt>
      <trkpt lat="42.09844" lon="25.23661">
        <ele>178.841445</ele>
        <time>2022-03-02T12:00:42.949Z</time>
      </trkpt>
      <trkpt lat="42.09797" lon="25.23388">
        <ele>184.098347</ele>
        <time>2022-03-02T12:01:42.914Z</time>
      </trkpt>
      <trkpt lat="42.09745" lon="25.23114">
        <ele>179.8074</ele>
        <time>2022-03-02T12:02:42.960Z</time>
      </trkpt>
      <trkpt lat="42.09699" lon="25.22832">
        <ele>181.128203</ele>
        <time>2022-03-02T12:03:42.915Z</time>
      </trkpt>
      <trkpt lat="42.09652" lon="25.22554">
        <ele>183.147322</ele>
        <time>2022-03-02T12:04:43.912Z</time>
      </trkpt>
      <trkpt lat="42.09605" lon="25.22279">
        <ele>184.239193</ele>
        <time>2022-03-02T12:05:43.915Z</time>
      </trkpt>
      <trkpt lat="42.09559" lon="25.21998">
        <ele>185.061723</ele>
        <time>2022-03-02T12:06:43.907Z</time>
      </trkpt>
      <trkpt lat="42.09479" lon="25.21756">
        <ele>187.706683</ele>
        <time>2022-03-02T12:07:49.927Z</time>
      </trkpt>
      <trkpt lat="42.09331" lon="25.21526">
        <ele>187.457841</ele>
        <time>2022-03-02T12:08:49.960Z</time>
      </trkpt>
      <trkpt lat="42.09347" lon="25.21263">
        <ele>181.947077</ele>
        <time>2022-03-02T12:09:49.936Z</time>
      </trkpt>
      <trkpt lat="42.0927" lon="25.20999">
        <ele>179.905231</ele>
        <time>2022-03-02T12:10:49.925Z</time>
      </trkpt>
      <trkpt lat="42.09131" lon="25.20774">
        <ele>182.222308</ele>
        <time>2022-03-02T12:11:49.914Z</time>
      </trkpt>
      <trkpt lat="42.08992" lon="25.20554">
        <ele>183.104816</ele>
        <time>2022-03-02T12:12:49.940Z</time>
      </trkpt>
      <trkpt lat="42.08861" lon="25.20345">
        <ele>181.144706</ele>
        <time>2022-03-02T12:13:46.905Z</time>
      </trkpt>
      <trkpt lat="42.08721" lon="25.20122">
        <ele>181.041541</ele>
        <time>2022-03-02T12:14:46.916Z</time>
      </trkpt>
      <trkpt lat="42.08584" lon="25.19907">
        <ele>183.306751</ele>
        <time>2022-03-02T12:15:46.930Z</time>
      </trkpt>
      <trkpt lat="42.08454" lon="25.19702">
        <ele>185.756797</ele>
        <time>2022-03-02T12:16:49.914Z</time>
      </trkpt>
      <trkpt lat="42.08332" lon="25.19545">
        <ele>188.760125</ele>
        <time>2022-03-02T12:17:54.932Z</time>
      </trkpt>
      <trkpt lat="42.08192" lon="25.1941">
        <ele>187.362492</ele>
        <time>2022-03-02T12:19:06.940Z</time>
      </trkpt>
      <trkpt lat="42.08045" lon="25.19286">
        <ele>190.127783</ele>
        <time>2022-03-02T12:20:20.930Z</time>
      </trkpt>
      <trkpt lat="42.08057" lon="25.19027">
        <ele>194.038329</ele>
        <time>2022-03-02T12:21:26.930Z</time>
      </trkpt>
      <trkpt lat="42.08009" lon="25.18967">
        <ele>194.038329</ele>
        <time>2022-03-02T12:23:26.092Z</time>
      </trkpt>
    </trkseg>
  </trk>
  <trk>
    <name><![CDATA[Tour d'Europe: étape 609]]></name>
    <extensions>
      <line xmlns="http://www.topografix.com/GPX/gpx_style/0/2">
        <color>008800</color>
        <width>4</width>
      </line>
    </extensions>
    <trkseg>
      <trkpt lat="41.84446" lon="26.08254">
        <ele>119.888211</ele>
        <time>2022-02-27T07:28:10.619Z</time>
      </trkpt>
      <trkpt lat="41.84509" lon="26.08232">
        <ele>119.795872</ele>
        <time>2022-02-27T07:28:47.602Z</time>
      </trkpt>
      <trkpt lat="41.84663" lon="26.08434">
        <ele>116.602291</ele>
        <time>2022-02-27T07:29:47.592Z</time>
      </trkpt>
      <trkpt lat="41.84887" lon="26.08458">
        <ele>110.504466</ele>
        <time>2022-02-27T07:30:44.586Z</time>
      </trkpt>
      <trkpt lat="41.85094" lon="26.08342">
        <ele>109.237203</ele>
        <time>2022-02-27T07:31:35.621Z</time>
      </trkpt>
      <trkpt lat="41.85287" lon="26.08214">
        <ele>107.921239</ele>
        <time>2022-02-27T07:32:23.600Z</time>
      </trkpt>
      <trkpt lat="41.85475" lon="26.08039">
        <ele>111.075718</ele>
        <time>2022-02-27T07:33:24.588Z</time>
      </trkpt>
      <trkpt lat="41.85661" lon="26.07858">
        <ele>109.111995</ele>
        <time>2022-02-27T07:34:16.593Z</time>
      </trkpt>
      <trkpt lat="41.85811" lon="26.0766">
        <ele>106.225251</ele>
        <time>2022-02-27T07:35:01.592Z</time>
      </trkpt>
      <trkpt lat="41.85955" lon="26.07434">
        <ele>106.034212</ele>
        <time>2022-02-27T07:35:47.603Z</time>
      </trkpt>
      <trkpt lat="41.86084" lon="26.07228">
        <ele>107.663031</ele>
        <time>2022-02-27T07:36:27.586Z</time>
      </trkpt>
      <trkpt lat="41.86228" lon="26.07">
        <ele>109.42286</ele>
        <time>2022-02-27T07:37:17.605Z</time>
      </trkpt>
      <trkpt lat="41.86386" lon="26.06749">
        <ele>109.681066</ele>
        <time>2022-02-27T07:38:17.608Z</time>
      </trkpt>
      <trkpt lat="41.86513" lon="26.06545">
        <ele>109.512613</ele>
        <time>2022-02-27T07:38:57.603Z</time>
      </trkpt>
      <trkpt lat="41.86644" lon="26.06337">
        <ele>110.496751</ele>
        <time>2022-02-27T07:39:39.572Z</time>
      </trkpt>
      <trkpt lat="41.86787" lon="26.06074">
        <ele>113.36211</ele>
        <time>2022-02-27T07:40:38.614Z</time>
      </trkpt>
      <trkpt lat="41.86834" lon="26.05819">
        <ele>111.470495</ele>
        <time>2022-02-27T07:41:19.595Z</time>
      </trkpt>
      <trkpt lat="41.86863" lon="26.05554">
        <ele>108.790638</ele>
        <time>2022-02-27T07:42:00.598Z</time>
      </trkpt>
      <trkpt lat="41.86894" lon="26.05263">
        <ele>109.41086</ele>
        <time>2022-02-27T07:42:47.599Z</time>
      </trkpt>
      <trkpt lat="41.86926" lon="26.04929">
        <ele>112.889984</ele>
        <time>2022-02-27T07:43:47.613Z</time>
      </trkpt>
      <trkpt lat="41.86944" lon="26.04658">
        <ele>115.049244</ele>
        <time>2022-02-27T07:44:47.589Z</time>
      </trkpt>
      <trkpt lat="41.86925" lon="26.04337">
        <ele>114.92983</ele>
        <time>2022-02-27T07:45:50.614Z</time>
      </trkpt>
      <trkpt lat="41.86901" lon="26.04003">
        <ele>115.216225</ele>
        <time>2022-02-27T07:46:50.610Z</time>
      </trkpt>
      <trkpt lat="41.86876" lon="26.03668">
        <ele>118.415291</ele>
        <time>2022-02-27T07:47:50.604Z</time>
      </trkpt>
      <trkpt lat="41.8692" lon="26.03321">
        <ele>120.518026</ele>
        <time>2022-02-27T07:48:53.606Z</time>
      </trkpt>
      <trkpt lat="41.86972" lon="26.03003">
        <ele>122.275536</ele>
        <time>2022-02-27T07:49:53.617Z</time>
      </trkpt>
      <trkpt lat="41.87025" lon="26.02678">
        <ele>124.015289</ele>
        <time>2022-02-27T07:50:53.599Z</time>
      </trkpt>
      <trkpt lat="41.87079" lon="26.02353">
        <ele>121.191598</ele>
        <time>2022-02-27T07:51:54.598Z</time>
      </trkpt>
      <trkpt lat="41.8713" lon="26.02018">
        <ele>122.221389</ele>
        <time>2022-02-27T07:52:54.606Z</time>
      </trkpt>
      <trkpt lat="41.8718" lon="26.01682">
        <ele>123.330968</ele>
        <time>2022-02-27T07:53:54.628Z</time>
      </trkpt>
      <trkpt lat="41.87216" lon="26.01338">
        <ele>123.169727</ele>
        <time>2022-02-27T07:54:56.635Z</time>
      </trkpt>
      <trkpt lat="41.87237" lon="26.01004">
        <ele>123.541659</ele>
        <time>2022-02-27T07:55:56.611Z</time>
      </trkpt>
      <trkpt lat="41.87259" lon="26.0066">
        <ele>124.077552</ele>
        <time>2022-02-27T07:56:56.604Z</time>
      </trkpt>
      <trkpt lat="41.8728" lon="26.00323">
        <ele>125.20596</ele>
        <time>2022-02-27T07:57:56.603Z</time>
      </trkpt>
      <trkpt lat="41.87321" lon="25.99981">
        <ele>121.541305</ele>
        <time>2022-02-27T07:58:43.628Z</time>
      </trkpt>
      <trkpt lat="41.87421" lon="25.99721">
        <ele>111.706164</ele>
        <time>2022-02-27T07:59:07.609Z</time>
      </trkpt>
      <trkpt lat="41.87546" lon="25.99428">
        <ele>101.875564</ele>
        <time>2022-02-27T07:59:49.622Z</time>
      </trkpt>
      <trkpt lat="41.87662" lon="25.9915">
        <ele>102.496142</ele>
        <time>2022-02-27T08:00:43.608Z</time>
      </trkpt>
      <trkpt lat="41.87779" lon="25.98872">
        <ele>101.212506</ele>
        <time>2022-02-27T08:01:37.597Z</time>
      </trkpt>
      <trkpt lat="41.87876" lon="25.9864">
        <ele>102.140274</ele>
        <time>2022-02-27T08:02:19.602Z</time>
      </trkpt>
      <trkpt lat="41.87978" lon="25.98395">
        <ele>104.347528</ele>
        <time>2022-02-27T08:03:04.610Z</time>
      </trkpt>
      <trkpt lat="41.88078" lon="25.98157">
        <ele>104.631001</ele>
        <time>2022-02-27T08:03:48.610Z</time>
      </trkpt>
      <trkpt lat="41.88202" lon="25.97866">
        <ele>108.7966</ele>
        <time>2022-02-27T08:04:48.594Z</time>
      </trkpt>
      <trkpt lat="41.88324" lon="25.97568">
        <ele>109.259185</ele>
        <time>2022-02-27T08:05:46.604Z</time>
      </trkpt>
      <trkpt lat="41.88454" lon="25.97315">
        <ele>113.344017</ele>
        <time>2022-02-27T08:06:40.590Z</time>
      </trkpt>
      <trkpt lat="41.88615" lon="25.97124">
        <ele>115.503998</ele>
        <time>2022-02-27T08:07:40.585Z</time>
      </trkpt>
      <trkpt lat="41.88788" lon="25.96918">
        <ele>113.112008</ele>
        <time>2022-02-27T08:08:31.617Z</time>
      </trkpt>
      <trkpt lat="41.88957" lon="25.96719">
        <ele>114.80347</ele>
        <time>2022-02-27T08:09:24.609Z</time>
      </trkpt>
      <trkpt lat="41.89122" lon="25.96537">
        <ele>116.494856</ele>
        <time>2022-02-27T08:10:25.592Z</time>
      </trkpt>
      <trkpt lat="41.89313" lon="25.96332">
        <ele>115.627065</ele>
        <time>2022-02-27T08:11:26.618Z</time>
      </trkpt>
      <trkpt lat="41.89446" lon="25.96136">
        <ele>112.679144</ele>
        <time>2022-02-27T08:12:08.605Z</time>
      </trkpt>
      <trkpt lat="41.89554" lon="25.95917">
        <ele>115.042889</ele>
        <time>2022-02-27T08:12:48.584Z</time>
      </trkpt>
      <trkpt lat="41.89659" lon="25.95681">
        <ele>116.431335</ele>
        <time>2022-02-27T08:13:32.609Z</time>
      </trkpt>
      <trkpt lat="41.89769" lon="25.95407">
        <ele>112.021944</ele>
        <time>2022-02-27T08:14:28.587Z</time>
      </trkpt>
      <trkpt lat="41.89887" lon="25.95177">
        <ele>113.749936</ele>
        <time>2022-02-27T08:15:17.597Z</time>
      </trkpt>
      <trkpt lat="41.90057" lon="25.95001">
        <ele>111.119844</ele>
        <time>2022-02-27T08:15:59.589Z</time>
      </trkpt>
      <trkpt lat="41.90211" lon="25.94844">
        <ele>111.05977</ele>
        <time>2022-02-27T08:16:40.609Z</time>
      </trkpt>
      <trkpt lat="41.90376" lon="25.94676">
        <ele>110.657043</ele>
        <time>2022-02-27T08:17:25.598Z</time>
      </trkpt>
      <trkpt lat="41.90565" lon="25.94486">
        <ele>111.852415</ele>
        <time>2022-02-27T08:18:19.612Z</time>
      </trkpt>
      <trkpt lat="41.90759" lon="25.94286">
        <ele>114.30906</ele>
        <time>2022-02-27T08:19:19.631Z</time>
      </trkpt>
      <trkpt lat="41.90946" lon="25.94095">
        <ele>114.403023</ele>
        <time>2022-02-27T08:20:16.604Z</time>
      </trkpt>
      <trkpt lat="41.9112" lon="25.93918">
        <ele>120.826068</ele>
        <time>2022-02-27T08:21:19.608Z</time>
      </trkpt>
      <trkpt lat="41.91285" lon="25.93751">
        <ele>128.48527</ele>
        <time>2022-02-27T08:22:44.611Z</time>
      </trkpt>
      <trkpt lat="41.91456" lon="25.93578">
        <ele>132.676608</ele>
        <time>2022-02-27T08:24:02.612Z</time>
      </trkpt>
      <trkpt lat="41.91616" lon="25.93381">
        <ele>134.47594</ele>
        <time>2022-02-27T08:25:22.603Z</time>
      </trkpt>
      <trkpt lat="41.91763" lon="25.93146">
        <ele>134.599313</ele>
        <time>2022-02-27T08:26:33.591Z</time>
      </trkpt>
      <trkpt lat="41.91818" lon="25.93019">
        <ele>133.133</ele>
        <time>2022-02-27T08:30:53.647Z</time>
      </trkpt>
      <trkpt lat="41.91936" lon="25.9278">
        <ele>132.962367</ele>
        <time>2022-02-27T08:31:55.601Z</time>
      </trkpt>
      <trkpt lat="41.92058" lon="25.92497">
        <ele>136.148097</ele>
        <time>2022-02-27T08:32:58.595Z</time>
      </trkpt>
      <trkpt lat="41.92165" lon="25.92229">
        <ele>132.917737</ele>
        <time>2022-02-27T08:33:49.602Z</time>
      </trkpt>
      <trkpt lat="41.92282" lon="25.91945">
        <ele>132.299648</ele>
        <time>2022-02-27T08:34:45.594Z</time>
      </trkpt>
      <trkpt lat="41.92391" lon="25.91666">
        <ele>134.610163</ele>
        <time>2022-02-27T08:35:42.597Z</time>
      </trkpt>
      <trkpt lat="41.92499" lon="25.91401">
        <ele>137.994975</ele>
        <time>2022-02-27T08:36:37.712Z</time>
      </trkpt>
      <trkpt lat="41.92625" lon="25.91163">
        <ele>136.628986</ele>
        <time>2022-02-27T08:37:29.596Z</time>
      </trkpt>
      <trkpt lat="41.9275" lon="25.90907">
        <ele>136.736555</ele>
        <time>2022-02-27T08:38:12.608Z</time>
      </trkpt>
      <trkpt lat="41.92861" lon="25.90662">
        <ele>133.743745</ele>
        <time>2022-02-27T08:39:07.607Z</time>
      </trkpt>
      <trkpt lat="41.92977" lon="25.90425">
        <ele>132.960949</ele>
        <time>2022-02-27T08:40:11.608Z</time>
      </trkpt>
      <trkpt lat="41.93136" lon="25.90237">
        <ele>130.118087</ele>
        <time>2022-02-27T08:41:01.617Z</time>
      </trkpt>
      <trkpt lat="41.93335" lon="25.90125">
        <ele>121.84448</ele>
        <time>2022-02-27T08:42:27.607Z</time>
      </trkpt>
      <trkpt lat="41.93542" lon="25.8999">
        <ele>124.854169</ele>
        <time>2022-02-27T08:43:27.645Z</time>
      </trkpt>
      <trkpt lat="41.93738" lon="25.89858">
        <ele>129.623056</ele>
        <time>2022-02-27T08:44:33.609Z</time>
      </trkpt>
      <trkpt lat="41.93927" lon="25.89735">
        <ele>134.119423</ele>
        <time>2022-02-27T08:45:44.610Z</time>
      </trkpt>
      <trkpt lat="41.94101" lon="25.8959">
        <ele>139.730432</ele>
        <time>2022-02-27T08:47:14.606Z</time>
      </trkpt>
      <trkpt lat="41.94246" lon="25.89394">
        <ele>148.057165</ele>
        <time>2022-02-27T08:49:08.610Z</time>
      </trkpt>
      <trkpt lat="41.94359" lon="25.89191">
        <ele>164.097165</ele>
        <time>2022-02-27T08:51:20.636Z</time>
      </trkpt>
      <trkpt lat="41.94366" lon="25.88937">
        <ele>179.682063</ele>
        <time>2022-02-27T08:53:28.626Z</time>
      </trkpt>
      <trkpt lat="41.94325" lon="25.88671">
        <ele>190.487693</ele>
        <time>2022-02-27T08:55:41.607Z</time>
      </trkpt>
      <trkpt lat="41.94268" lon="25.88422">
        <ele>197.55819</ele>
        <time>2022-02-27T08:57:28.596Z</time>
      </trkpt>
      <trkpt lat="41.94221" lon="25.88175">
        <ele>201.273849</ele>
        <time>2022-02-27T08:59:09.605Z</time>
      </trkpt>
      <trkpt lat="41.9424" lon="25.87903">
        <ele>207.797518</ele>
        <time>2022-02-27T09:00:55.618Z</time>
      </trkpt>
      <trkpt lat="41.94256" lon="25.87641">
        <ele>214.797896</ele>
        <time>2022-02-27T09:02:32.629Z</time>
      </trkpt>
      <trkpt lat="41.94238" lon="25.87371">
        <ele>220.558018</ele>
        <time>2022-02-27T09:04:04.590Z</time>
      </trkpt>
      <trkpt lat="41.94189" lon="25.87111">
        <ele>225.92096</ele>
        <time>2022-02-27T09:05:20.612Z</time>
      </trkpt>
      <trkpt lat="41.94111" lon="25.86848">
        <ele>235.06187</ele>
        <time>2022-02-27T09:07:20.681Z</time>
      </trkpt>
      <trkpt lat="41.94083" lon="25.8658">
        <ele>236.698216</ele>
        <time>2022-02-27T09:08:44.613Z</time>
      </trkpt>
      <trkpt lat="41.94213" lon="25.86227">
        <ele>228.648334</ele>
        <time>2022-02-27T09:09:24.621Z</time>
      </trkpt>
      <trkpt lat="41.94389" lon="25.86059">
        <ele>232.834972</ele>
        <time>2022-02-27T09:10:34.619Z</time>
      </trkpt>
      <trkpt lat="41.94563" lon="25.85876">
        <ele>236.611928</ele>
        <time>2022-02-27T09:11:49.622Z</time>
      </trkpt>
      <trkpt lat="41.94616" lon="25.85594">
        <ele>231.047995</ele>
        <time>2022-02-27T09:12:11.630Z</time>
      </trkpt>
      <trkpt lat="41.94635" lon="25.85242">
        <ele>225.512393</ele>
        <time>2022-02-27T09:12:47.628Z</time>
      </trkpt>
      <trkpt lat="41.94638" lon="25.84936">
        <ele>227.942117</ele>
        <time>2022-02-27T09:13:41.633Z</time>
      </trkpt>
      <trkpt lat="41.94599" lon="25.84648">
        <ele>227.788629</ele>
        <time>2022-02-27T09:14:41.608Z</time>
      </trkpt>
      <trkpt lat="41.94527" lon="25.84365">
        <ele>231.602882</ele>
        <time>2022-02-27T09:15:56.616Z</time>
      </trkpt>
      <trkpt lat="41.94467" lon="25.84106">
        <ele>236.51141</ele>
        <time>2022-02-27T09:17:18.616Z</time>
      </trkpt>
      <trkpt lat="41.94429" lon="25.83839">
        <ele>240.897075</ele>
        <time>2022-02-27T09:18:43.625Z</time>
      </trkpt>
      <trkpt lat="41.94386" lon="25.83533">
        <ele>239.627384</ele>
        <time>2022-02-27T09:19:53.659Z</time>
      </trkpt>
      <trkpt lat="41.94379" lon="25.83233">
        <ele>239.469548</ele>
        <time>2022-02-27T09:20:50.612Z</time>
      </trkpt>
      <trkpt lat="41.94365" lon="25.82934">
        <ele>241.572327</ele>
        <time>2022-02-27T09:21:45.657Z</time>
      </trkpt>
      <trkpt lat="41.94321" lon="25.82654">
        <ele>246.402435</ele>
        <time>2022-02-27T09:23:00.620Z</time>
      </trkpt>
      <trkpt lat="41.94202" lon="25.82437">
        <ele>249.112998</ele>
        <time>2022-02-27T09:24:42.632Z</time>
      </trkpt>
      <trkpt lat="41.94104" lon="25.82173">
        <ele>248.139372</ele>
        <time>2022-02-27T09:25:43.629Z</time>
      </trkpt>
      <trkpt lat="41.94148" lon="25.81873">
        <ele>247.557117</ele>
        <time>2022-02-27T09:26:46.668Z</time>
      </trkpt>
      <trkpt lat="41.94241" lon="25.81578">
        <ele>244.739216</ele>
        <time>2022-02-27T09:27:34.621Z</time>
      </trkpt>
      <trkpt lat="41.9428" lon="25.81221">
        <ele>234.006423</ele>
        <time>2022-02-27T09:28:05.630Z</time>
      </trkpt>
      <trkpt lat="41.94309" lon="25.80947">
        <ele>226.795573</ele>
        <time>2022-02-27T09:28:27.619Z</time>
      </trkpt>
      <trkpt lat="41.94345" lon="25.80645">
        <ele>219.354184</ele>
        <time>2022-02-27T09:28:52.613Z</time>
      </trkpt>
      <trkpt lat="41.9434" lon="25.80331">
        <ele>208.558294</ele>
        <time>2022-02-27T09:29:18.612Z</time>
      </trkpt>
      <trkpt lat="41.94211" lon="25.80062">
        <ele>205.574212</ele>
        <time>2022-02-27T09:29:50.647Z</time>
      </trkpt>
      <trkpt lat="41.94081" lon="25.79859">
        <ele>222.652322</ele>
        <time>2022-02-27T09:31:28.630Z</time>
      </trkpt>
      <trkpt lat="41.93901" lon="25.79766">
        <ele>225.287575</ele>
        <time>2022-02-27T09:33:22.627Z</time>
      </trkpt>
      <trkpt lat="41.93711" lon="25.79758">
        <ele>235.083424</ele>
        <time>2022-02-27T09:35:27.631Z</time>
      </trkpt>
      <trkpt lat="41.93573" lon="25.79519">
        <ele>231.741243</ele>
        <time>2022-02-27T09:36:46.607Z</time>
      </trkpt>
      <trkpt lat="41.93346" lon="25.79391">
        <ele>225.266578</ele>
        <time>2022-02-27T09:37:16.604Z</time>
      </trkpt>
      <trkpt lat="41.93103" lon="25.79418">
        <ele>213.519463</ele>
        <time>2022-02-27T09:37:44.671Z</time>
      </trkpt>
      <trkpt lat="41.92869" lon="25.79582">
        <ele>198.432192</ele>
        <time>2022-02-27T09:38:19.610Z</time>
      </trkpt>
      <trkpt lat="41.92702" lon="25.79471">
        <ele>186.588555</ele>
        <time>2022-02-27T09:38:40.663Z</time>
      </trkpt>
      <trkpt lat="41.92671" lon="25.79142">
        <ele>175.175568</ele>
        <time>2022-02-27T09:39:11.639Z</time>
      </trkpt>
      <trkpt lat="41.92653" lon="25.78835">
        <ele>179.2299</ele>
        <time>2022-02-27T09:40:08.623Z</time>
      </trkpt>
      <trkpt lat="41.92636" lon="25.78528">
        <ele>182.768181</ele>
        <time>2022-02-27T09:41:08.699Z</time>
      </trkpt>
      <trkpt lat="41.92616" lon="25.78202">
        <ele>182.335781</ele>
        <time>2022-02-27T09:42:05.641Z</time>
      </trkpt>
      <trkpt lat="41.92629" lon="25.7785">
        <ele>185.845772</ele>
        <time>2022-02-27T09:43:07.627Z</time>
      </trkpt>
      <trkpt lat="41.9271" lon="25.77579">
        <ele>185.62474</ele>
        <time>2022-02-27T09:43:56.658Z</time>
      </trkpt>
      <trkpt lat="41.92759" lon="25.77299">
        <ele>182.860344</ele>
        <time>2022-02-27T09:44:43.648Z</time>
      </trkpt>
      <trkpt lat="41.92843" lon="25.76992">
        <ele>183.495183</ele>
        <time>2022-02-27T09:45:42.617Z</time>
      </trkpt>
      <trkpt lat="41.93011" lon="25.76763">
        <ele>185.760762</ele>
        <time>2022-02-27T09:46:42.624Z</time>
      </trkpt>
      <trkpt lat="41.93124" lon="25.76483">
        <ele>187.08716</ele>
        <time>2022-02-27T09:47:42.629Z</time>
      </trkpt>
      <trkpt lat="41.93173" lon="25.7614">
        <ele>184.258168</ele>
        <time>2022-02-27T09:48:43.621Z</time>
      </trkpt>
      <trkpt lat="41.93215" lon="25.75829">
        <ele>185.909328</ele>
        <time>2022-02-27T09:49:43.664Z</time>
      </trkpt>
      <trkpt lat="41.93255" lon="25.75541">
        <ele>186.606187</ele>
        <time>2022-02-27T09:50:43.633Z</time>
      </trkpt>
      <trkpt lat="41.93293" lon="25.75257">
        <ele>188.320337</ele>
        <time>2022-02-27T09:51:46.679Z</time>
      </trkpt>
      <trkpt lat="41.93299" lon="25.74978">
        <ele>194.774524</ele>
        <time>2022-02-27T09:53:03.681Z</time>
      </trkpt>
      <trkpt lat="41.93191" lon="25.74748">
        <ele>192.668068</ele>
        <time>2022-02-27T09:54:07.636Z</time>
      </trkpt>
      <trkpt lat="41.9303" lon="25.74533">
        <ele>189.895228</ele>
        <time>2022-02-27T09:55:18.625Z</time>
      </trkpt>
      <trkpt lat="41.92839" lon="25.7441">
        <ele>190.804647</ele>
        <time>2022-02-27T09:56:12.637Z</time>
      </trkpt>
      <trkpt lat="41.92657" lon="25.74305">
        <ele>189.899545</ele>
        <time>2022-02-27T09:56:56.631Z</time>
      </trkpt>
      <trkpt lat="41.92488" lon="25.74102">
        <ele>197.081645</ele>
        <time>2022-02-27T09:57:47.630Z</time>
      </trkpt>
      <trkpt lat="41.92405" lon="25.73827">
        <ele>205.993327</ele>
        <time>2022-02-27T09:58:37.624Z</time>
      </trkpt>
      <trkpt lat="41.92345" lon="25.73529">
        <ele>199.656948</ele>
        <time>2022-02-27T09:59:30.638Z</time>
      </trkpt>
      <trkpt lat="41.92396" lon="25.73247">
        <ele>189.625545</ele>
        <time>2022-02-27T10:00:17.652Z</time>
      </trkpt>
      <trkpt lat="41.92448" lon="25.7293">
        <ele>189.453037</ele>
        <time>2022-02-27T10:01:15.672Z</time>
      </trkpt>
      <trkpt lat="41.92375" lon="25.72617">
        <ele>194.117987</ele>
        <time>2022-02-27T10:02:15.636Z</time>
      </trkpt>
      <trkpt lat="41.92298" lon="25.72354">
        <ele>191.456665</ele>
        <time>2022-02-27T10:03:19.619Z</time>
      </trkpt>
      <trkpt lat="41.92252" lon="25.7216">
        <ele>180.608169</ele>
        <time>2022-02-27T10:21:24.628Z</time>
      </trkpt>
      <trkpt lat="41.92124" lon="25.71912">
        <ele>180.43652</ele>
        <time>2022-02-27T10:22:29.632Z</time>
      </trkpt>
      <trkpt lat="41.9198" lon="25.71661">
        <ele>180.655863</ele>
        <time>2022-02-27T10:23:30.651Z</time>
      </trkpt>
      <trkpt lat="41.91789" lon="25.7147">
        <ele>180.894356</ele>
        <time>2022-02-27T10:24:24.630Z</time>
      </trkpt>
      <trkpt lat="41.91639" lon="25.7126">
        <ele>186.977276</ele>
        <time>2022-02-27T10:25:30.630Z</time>
      </trkpt>
      <trkpt lat="41.91568" lon="25.71007">
        <ele>196.530598</ele>
        <time>2022-02-27T10:26:58.673Z</time>
      </trkpt>
      <trkpt lat="41.91504" lon="25.70715">
        <ele>198.805113</ele>
        <time>2022-02-27T10:28:21.664Z</time>
      </trkpt>
      <trkpt lat="41.91431" lon="25.70408">
        <ele>197.971506</ele>
        <time>2022-02-27T10:29:21.641Z</time>
      </trkpt>
      <trkpt lat="41.91375" lon="25.7015">
        <ele>192.338781</ele>
        <time>2022-02-27T10:30:02.653Z</time>
      </trkpt>
      <trkpt lat="41.91409" lon="25.69843">
        <ele>191.85652</ele>
        <time>2022-02-27T10:30:50.644Z</time>
      </trkpt>
      <trkpt lat="41.91481" lon="25.69575">
        <ele>196.735134</ele>
        <time>2022-02-27T10:32:06.629Z</time>
      </trkpt>
      <trkpt lat="41.91547" lon="25.69317">
        <ele>199.913842</ele>
        <time>2022-02-27T10:33:10.649Z</time>
      </trkpt>
      <trkpt lat="41.91619" lon="25.69033">
        <ele>194.585735</ele>
        <time>2022-02-27T10:33:55.637Z</time>
      </trkpt>
      <trkpt lat="41.91692" lon="25.68756">
        <ele>191.732118</ele>
        <time>2022-02-27T10:34:35.643Z</time>
      </trkpt>
      <trkpt lat="41.91758" lon="25.68492">
        <ele>193.110358</ele>
        <time>2022-02-27T10:35:19.642Z</time>
      </trkpt>
      <trkpt lat="41.91833" lon="25.68195">
        <ele>193.701392</ele>
        <time>2022-02-27T10:36:13.639Z</time>
      </trkpt>
      <trkpt lat="41.91914" lon="25.67874">
        <ele>194.107876</ele>
        <time>2022-02-27T10:37:13.632Z</time>
      </trkpt>
      <trkpt lat="41.91996" lon="25.67549">
        <ele>198.410935</ele>
        <time>2022-02-27T10:38:12.647Z</time>
      </trkpt>
      <trkpt lat="41.92065" lon="25.67239">
        <ele>199.804995</ele>
        <time>2022-02-27T10:39:08.631Z</time>
      </trkpt>
      <trkpt lat="41.92068" lon="25.66923">
        <ele>199.078005</ele>
        <time>2022-02-27T10:40:02.638Z</time>
      </trkpt>
      <trkpt lat="41.92115" lon="25.666">
        <ele>199.322095</ele>
        <time>2022-02-27T10:41:00.641Z</time>
      </trkpt>
      <trkpt lat="41.92173" lon="25.66293">
        <ele>195.358515</ele>
        <time>2022-02-27T10:41:54.630Z</time>
      </trkpt>
      <trkpt lat="41.92231" lon="25.65958">
        <ele>192.870816</ele>
        <time>2022-02-27T10:42:54.626Z</time>
      </trkpt>
      <trkpt lat="41.92264" lon="25.6567">
        <ele>194.636597</ele>
        <time>2022-02-27T10:43:54.664Z</time>
      </trkpt>
      <trkpt lat="41.9229" lon="25.65379">
        <ele>198.017418</ele>
        <time>2022-02-27T10:44:57.641Z</time>
      </trkpt>
      <trkpt lat="41.92319" lon="25.651">
        <ele>198.688878</ele>
        <time>2022-02-27T10:45:57.646Z</time>
      </trkpt>
      <trkpt lat="41.92343" lon="25.64805">
        <ele>200.700671</ele>
        <time>2022-02-27T10:46:57.639Z</time>
      </trkpt>
      <trkpt lat="41.92375" lon="25.64504">
        <ele>200.207998</ele>
        <time>2022-02-27T10:47:49.633Z</time>
      </trkpt>
      <trkpt lat="41.92446" lon="25.64192">
        <ele>201.820148</ele>
        <time>2022-02-27T10:48:45.681Z</time>
      </trkpt>
      <trkpt lat="41.92525" lon="25.63881">
        <ele>202.502229</ele>
        <time>2022-02-27T10:49:44.650Z</time>
      </trkpt>
      <trkpt lat="41.92606" lon="25.63582">
        <ele>204.048662</ele>
        <time>2022-02-27T10:50:40.648Z</time>
      </trkpt>
      <trkpt lat="41.9273" lon="25.63342">
        <ele>201.067593</ele>
        <time>2022-02-27T10:51:23.638Z</time>
      </trkpt>
      <trkpt lat="41.92807" lon="25.63033">
        <ele>202.684965</ele>
        <time>2022-02-27T10:52:22.642Z</time>
      </trkpt>
      <trkpt lat="41.92863" lon="25.62737">
        <ele>202.360525</ele>
        <time>2022-02-27T10:53:13.639Z</time>
      </trkpt>
      <trkpt lat="41.92921" lon="25.62431">
        <ele>202.343824</ele>
        <time>2022-02-27T10:54:05.645Z</time>
      </trkpt>
      <trkpt lat="41.92972" lon="25.62135">
        <ele>203.39491</ele>
        <time>2022-02-27T10:55:05.647Z</time>
      </trkpt>
      <trkpt lat="41.93037" lon="25.61832">
        <ele>205.544421</ele>
        <time>2022-02-27T10:56:05.652Z</time>
      </trkpt>
      <trkpt lat="41.9306" lon="25.61515">
        <ele>207.515574</ele>
        <time>2022-02-27T10:56:59.646Z</time>
      </trkpt>
      <trkpt lat="41.93072" lon="25.61205">
        <ele>209.34246</ele>
        <time>2022-02-27T10:57:52.658Z</time>
      </trkpt>
      <trkpt lat="41.93087" lon="25.60901">
        <ele>209.843509</ele>
        <time>2022-02-27T10:58:52.640Z</time>
      </trkpt>
      <trkpt lat="41.93101" lon="25.60584">
        <ele>209.887974</ele>
        <time>2022-02-27T10:59:55.680Z</time>
      </trkpt>
      <trkpt lat="41.93112" lon="25.60284">
        <ele>212.915254</ele>
        <time>2022-02-27T11:00:53.644Z</time>
      </trkpt>
      <trkpt lat="41.93128" lon="25.5997">
        <ele>211.50284</ele>
        <time>2022-02-27T11:01:53.646Z</time>
      </trkpt>
      <trkpt lat="41.93142" lon="25.59672">
        <ele>212.366474</ele>
        <time>2022-02-27T11:02:56.658Z</time>
      </trkpt>
      <trkpt lat="41.93148" lon="25.59392">
        <ele>220.859883</ele>
        <time>2022-02-27T11:03:56.648Z</time>
      </trkpt>
      <trkpt lat="41.9316" lon="25.59093">
        <ele>226.42436</ele>
        <time>2022-02-27T11:04:56.645Z</time>
      </trkpt>
      <trkpt lat="41.9323" lon="25.58796">
        <ele>221.524862</ele>
        <time>2022-02-27T11:05:39.648Z</time>
      </trkpt>
      <trkpt lat="41.93262" lon="25.58493">
        <ele>217.294018</ele>
        <time>2022-02-27T11:06:32.651Z</time>
      </trkpt>
      <trkpt lat="41.93266" lon="25.58192">
        <ele>214.972774</ele>
        <time>2022-02-27T11:07:23.653Z</time>
      </trkpt>
      <trkpt lat="41.93277" lon="25.579">
        <ele>216.225786</ele>
        <time>2022-02-27T11:08:10.716Z</time>
      </trkpt>
      <trkpt lat="41.93289" lon="25.57609">
        <ele>218.357442</ele>
        <time>2022-02-27T11:09:27.682Z</time>
      </trkpt>
      <trkpt lat="41.93301" lon="25.57327">
        <ele>218.66605</ele>
        <time>2022-02-27T11:10:36.672Z</time>
      </trkpt>
      <trkpt lat="41.93319" lon="25.5698">
        <ele>210.145196</ele>
        <time>2022-02-27T11:11:22.642Z</time>
      </trkpt>
      <trkpt lat="41.9323" lon="25.56718">
        <ele>213.699379</ele>
        <time>2022-02-27T11:12:34.646Z</time>
      </trkpt>
      <trkpt lat="41.93178" lon="25.56449">
        <ele>216.911001</ele>
        <time>2022-02-27T11:13:22.672Z</time>
      </trkpt>
      <trkpt lat="41.93265" lon="25.56153">
        <ele>215.578768</ele>
        <time>2022-02-27T11:14:19.639Z</time>
      </trkpt>
      <trkpt lat="41.93364" lon="25.55891">
        <ele>227.262453</ele>
        <time>2022-02-27T11:15:22.682Z</time>
      </trkpt>
      <trkpt lat="41.93382" lon="25.55781">
        <ele>227.262453</ele>
        <time>2022-02-27T11:19:00.871Z</time>
      </trkpt>
    </trkseg>
  </trk>
  <trk>
    <name><![CDATA[Tour d'Europe: étape 608]]></name>
    <extensions>
      <line xmlns="http://www.topografix.com/GPX/gpx_style/0/2">
        <color>880000</color>
        <width>4</width>
      </line>
    </extensions>
    <trkseg>
      <trkpt lat="41.67244" lon="26.5575">
        <ele>92.189913</ele>
        <time>2022-02-26T06:34:58.387Z</time>
      </trkpt>
      <trkpt lat="41.67261" lon="26.55607">
        <ele>91.456935</ele>
        <time>2022-02-26T06:39:11.249Z</time>
      </trkpt>
      <trkpt lat="41.67143" lon="26.55398">
        <ele>85.303579</ele>
        <time>2022-02-26T06:40:23.248Z</time>
      </trkpt>
      <trkpt lat="41.66966" lon="26.55461">
        <ele>82.657298</ele>
        <time>2022-02-26T06:44:31.257Z</time>
      </trkpt>
      <trkpt lat="41.66765" lon="26.55405">
        <ele>79.765724</ele>
        <time>2022-02-26T06:45:38.279Z</time>
      </trkpt>
      <trkpt lat="41.66561" lon="26.55307">
        <ele>80.258752</ele>
        <time>2022-02-26T06:46:39.243Z</time>
      </trkpt>
      <trkpt lat="41.66356" lon="26.55218">
        <ele>79.065222</ele>
        <time>2022-02-26T06:47:40.250Z</time>
      </trkpt>
      <trkpt lat="41.66218" lon="26.55046">
        <ele>82.78577</ele>
        <time>2022-02-26T06:48:47.246Z</time>
      </trkpt>
      <trkpt lat="41.6615" lon="26.54817">
        <ele>88.368894</ele>
        <time>2022-02-26T06:50:00.252Z</time>
      </trkpt>
      <trkpt lat="41.66096" lon="26.54585">
        <ele>91.489758</ele>
        <time>2022-02-26T06:57:04.260Z</time>
      </trkpt>
      <trkpt lat="41.66028" lon="26.54327">
        <ele>89.669087</ele>
        <time>2022-02-26T06:58:07.235Z</time>
      </trkpt>
      <trkpt lat="41.65957" lon="26.54056">
        <ele>87.013327</ele>
        <time>2022-02-26T06:59:08.265Z</time>
      </trkpt>
      <trkpt lat="41.65883" lon="26.53772">
        <ele>87.646702</ele>
        <time>2022-02-26T07:00:15.258Z</time>
      </trkpt>
      <trkpt lat="41.65815" lon="26.53513">
        <ele>82.224516</ele>
        <time>2022-02-26T07:01:23.283Z</time>
      </trkpt>
      <trkpt lat="41.65747" lon="26.53252">
        <ele>79.693807</ele>
        <time>2022-02-26T07:02:27.241Z</time>
      </trkpt>
      <trkpt lat="41.65665" lon="26.52989">
        <ele>77.666914</ele>
        <time>2022-02-26T07:03:35.263Z</time>
      </trkpt>
      <trkpt lat="41.65596" lon="26.5272">
        <ele>79.379438</ele>
        <time>2022-02-26T07:04:43.249Z</time>
      </trkpt>
      <trkpt lat="41.65464" lon="26.52523">
        <ele>87.982283</ele>
        <time>2022-02-26T07:05:52.248Z</time>
      </trkpt>
      <trkpt lat="41.65297" lon="26.5232">
        <ele>91.851758</ele>
        <time>2022-02-26T07:07:00.235Z</time>
      </trkpt>
      <trkpt lat="41.65253" lon="26.52199">
        <ele>91.647085</ele>
        <time>2022-02-26T07:15:28.254Z</time>
      </trkpt>
      <trkpt lat="41.65361" lon="26.51962">
        <ele>88.86705</ele>
        <time>2022-02-26T07:16:32.260Z</time>
      </trkpt>
      <trkpt lat="41.65417" lon="26.51708">
        <ele>81.287269</ele>
        <time>2022-02-26T07:17:35.256Z</time>
      </trkpt>
      <trkpt lat="41.65434" lon="26.51437">
        <ele>74.208162</ele>
        <time>2022-02-26T07:18:36.249Z</time>
      </trkpt>
      <trkpt lat="41.65532" lon="26.5118">
        <ele>73.506715</ele>
        <time>2022-02-26T07:19:40.260Z</time>
      </trkpt>
      <trkpt lat="41.6563" lon="26.50921">
        <ele>76.61305</ele>
        <time>2022-02-26T07:20:46.271Z</time>
      </trkpt>
      <trkpt lat="41.65717" lon="26.5068">
        <ele>76.10796</ele>
        <time>2022-02-26T07:21:56.251Z</time>
      </trkpt>
      <trkpt lat="41.65783" lon="26.50422">
        <ele>73.563719</ele>
        <time>2022-02-26T07:23:15.326Z</time>
      </trkpt>
      <trkpt lat="41.6585" lon="26.50135">
        <ele>74.189208</ele>
        <time>2022-02-26T07:24:39.282Z</time>
      </trkpt>
      <trkpt lat="41.65814" lon="26.49863">
        <ele>80.385209</ele>
        <time>2022-02-26T07:25:43.269Z</time>
      </trkpt>
      <trkpt lat="41.65704" lon="26.49613">
        <ele>79.82411</ele>
        <time>2022-02-26T07:26:43.269Z</time>
      </trkpt>
      <trkpt lat="41.65568" lon="26.49362">
        <ele>80.363463</ele>
        <time>2022-02-26T07:27:46.249Z</time>
      </trkpt>
      <trkpt lat="41.65495" lon="26.491">
        <ele>82.388171</ele>
        <time>2022-02-26T07:28:53.277Z</time>
      </trkpt>
      <trkpt lat="41.65396" lon="26.48895">
        <ele>79.766347</ele>
        <time>2022-02-26T07:34:20.309Z</time>
      </trkpt>
      <trkpt lat="41.65278" lon="26.48647">
        <ele>81.136733</ele>
        <time>2022-02-26T07:35:41.271Z</time>
      </trkpt>
      <trkpt lat="41.65127" lon="26.48439">
        <ele>83.969482</ele>
        <time>2022-02-26T07:36:44.285Z</time>
      </trkpt>
      <trkpt lat="41.64994" lon="26.48231">
        <ele>84.131727</ele>
        <time>2022-02-26T07:37:44.257Z</time>
      </trkpt>
      <trkpt lat="41.6487" lon="26.48027">
        <ele>90.467575</ele>
        <time>2022-02-26T07:49:25.283Z</time>
      </trkpt>
      <trkpt lat="41.64733" lon="26.47809">
        <ele>92.022054</ele>
        <time>2022-02-26T07:50:29.265Z</time>
      </trkpt>
      <trkpt lat="41.64602" lon="26.47596">
        <ele>94.988544</ele>
        <time>2022-02-26T07:51:30.272Z</time>
      </trkpt>
      <trkpt lat="41.64759" lon="26.4745">
        <ele>97.366514</ele>
        <time>2022-02-26T07:52:26.279Z</time>
      </trkpt>
      <trkpt lat="41.64941" lon="26.47289">
        <ele>89.490636</ele>
        <time>2022-02-26T07:53:21.260Z</time>
      </trkpt>
      <trkpt lat="41.65017" lon="26.47246">
        <ele>83.314622</ele>
        <time>2022-02-26T07:58:44.291Z</time>
      </trkpt>
      <trkpt lat="41.64827" lon="26.4737">
        <ele>79.35314</ele>
        <time>2022-02-26T07:59:34.266Z</time>
      </trkpt>
      <trkpt lat="41.64634" lon="26.47524">
        <ele>92.081001</ele>
        <time>2022-02-26T08:00:38.276Z</time>
      </trkpt>
      <trkpt lat="41.6452" lon="26.47333">
        <ele>93.890997</ele>
        <time>2022-02-26T08:01:41.278Z</time>
      </trkpt>
      <trkpt lat="41.6447" lon="26.47018">
        <ele>94.45016</ele>
        <time>2022-02-26T08:02:41.258Z</time>
      </trkpt>
      <trkpt lat="41.6436" lon="26.46758">
        <ele>92.700254</ele>
        <time>2022-02-26T08:03:31.261Z</time>
      </trkpt>
      <trkpt lat="41.64202" lon="26.46534">
        <ele>93.893268</ele>
        <time>2022-02-26T08:04:24.282Z</time>
      </trkpt>
      <trkpt lat="41.64074" lon="26.46467">
        <ele>94.612789</ele>
        <time>2022-02-26T08:05:32.276Z</time>
      </trkpt>
      <trkpt lat="41.64266" lon="26.46287">
        <ele>93.472709</ele>
        <time>2022-02-26T08:06:20.268Z</time>
      </trkpt>
      <trkpt lat="41.64449" lon="26.46119">
        <ele>94.508383</ele>
        <time>2022-02-26T08:07:01.263Z</time>
      </trkpt>
      <trkpt lat="41.64644" lon="26.45947">
        <ele>95.737692</ele>
        <time>2022-02-26T08:07:55.298Z</time>
      </trkpt>
      <trkpt lat="41.64849" lon="26.45761">
        <ele>100.664199</ele>
        <time>2022-02-26T08:08:58.281Z</time>
      </trkpt>
      <trkpt lat="41.65023" lon="26.45615">
        <ele>101.404003</ele>
        <time>2022-02-26T08:09:59.326Z</time>
      </trkpt>
      <trkpt lat="41.6521" lon="26.45441">
        <ele>99.445517</ele>
        <time>2022-02-26T08:10:59.280Z</time>
      </trkpt>
      <trkpt lat="41.65415" lon="26.45261">
        <ele>105.256867</ele>
        <time>2022-02-26T08:11:58.268Z</time>
      </trkpt>
      <trkpt lat="41.65602" lon="26.45087">
        <ele>106.050217</ele>
        <time>2022-02-26T08:12:50.264Z</time>
      </trkpt>
      <trkpt lat="41.65807" lon="26.44907">
        <ele>99.539693</ele>
        <time>2022-02-26T08:13:48.283Z</time>
      </trkpt>
      <trkpt lat="41.65996" lon="26.44741">
        <ele>99.00781</ele>
        <time>2022-02-26T08:14:57.279Z</time>
      </trkpt>
      <trkpt lat="41.66178" lon="26.44575">
        <ele>106.084762</ele>
        <time>2022-02-26T08:16:13.264Z</time>
      </trkpt>
      <trkpt lat="41.66353" lon="26.44423">
        <ele>106.6479</ele>
        <time>2022-02-26T08:17:13.261Z</time>
      </trkpt>
      <trkpt lat="41.66557" lon="26.44233">
        <ele>107.865431</ele>
        <time>2022-02-26T08:18:16.282Z</time>
      </trkpt>
      <trkpt lat="41.66714" lon="26.44076">
        <ele>112.203988</ele>
        <time>2022-02-26T08:19:34.261Z</time>
      </trkpt>
      <trkpt lat="41.66821" lon="26.43837">
        <ele>116.937038</ele>
        <time>2022-02-26T08:20:54.318Z</time>
      </trkpt>
      <trkpt lat="41.66844" lon="26.43526">
        <ele>117.785367</ele>
        <time>2022-02-26T08:22:06.278Z</time>
      </trkpt>
      <trkpt lat="41.66843" lon="26.43195">
        <ele>118.206009</ele>
        <time>2022-02-26T08:23:05.303Z</time>
      </trkpt>
      <trkpt lat="41.66839" lon="26.42873">
        <ele>116.988461</ele>
        <time>2022-02-26T08:24:05.277Z</time>
      </trkpt>
      <trkpt lat="41.66774" lon="26.4255">
        <ele>111.507655</ele>
        <time>2022-02-26T08:25:08.312Z</time>
      </trkpt>
      <trkpt lat="41.66721" lon="26.42228">
        <ele>114.42066</ele>
        <time>2022-02-26T08:26:08.288Z</time>
      </trkpt>
      <trkpt lat="41.66717" lon="26.41903">
        <ele>120.165089</ele>
        <time>2022-02-26T08:27:08.320Z</time>
      </trkpt>
      <trkpt lat="41.66718" lon="26.41611">
        <ele>123.86885</ele>
        <time>2022-02-26T08:28:19.289Z</time>
      </trkpt>
      <trkpt lat="41.66715" lon="26.41331">
        <ele>126.681221</ele>
        <time>2022-02-26T08:29:49.290Z</time>
      </trkpt>
      <trkpt lat="41.66675" lon="26.41055">
        <ele>122.609542</ele>
        <time>2022-02-26T08:31:03.285Z</time>
      </trkpt>
      <trkpt lat="41.66591" lon="26.4079">
        <ele>120.623395</ele>
        <time>2022-02-26T08:32:03.283Z</time>
      </trkpt>
      <trkpt lat="41.66495" lon="26.40504">
        <ele>122.535426</ele>
        <time>2022-02-26T08:33:06.360Z</time>
      </trkpt>
      <trkpt lat="41.66398" lon="26.40214">
        <ele>123.079309</ele>
        <time>2022-02-26T08:34:04.271Z</time>
      </trkpt>
      <trkpt lat="41.66307" lon="26.39954">
        <ele>120.696316</ele>
        <time>2022-02-26T08:34:51.281Z</time>
      </trkpt>
      <trkpt lat="41.66235" lon="26.39686">
        <ele>114.407471</ele>
        <time>2022-02-26T08:35:33.310Z</time>
      </trkpt>
      <trkpt lat="41.66213" lon="26.39364">
        <ele>108.038655</ele>
        <time>2022-02-26T08:36:13.273Z</time>
      </trkpt>
      <trkpt lat="41.66212" lon="26.39046">
        <ele>105.263159</ele>
        <time>2022-02-26T08:36:55.278Z</time>
      </trkpt>
      <trkpt lat="41.66209" lon="26.38737">
        <ele>108.950899</ele>
        <time>2022-02-26T08:37:59.272Z</time>
      </trkpt>
      <trkpt lat="41.66177" lon="26.38441">
        <ele>109.13169</ele>
        <time>2022-02-26T08:38:59.286Z</time>
      </trkpt>
      <trkpt lat="41.66135" lon="26.38174">
        <ele>108.239099</ele>
        <time>2022-02-26T08:39:44.301Z</time>
      </trkpt>
      <trkpt lat="41.66093" lon="26.37909">
        <ele>107.127503</ele>
        <time>2022-02-26T08:40:28.307Z</time>
      </trkpt>
      <trkpt lat="41.66052" lon="26.3766">
        <ele>105.760273</ele>
        <time>2022-02-26T08:41:08.301Z</time>
      </trkpt>
      <trkpt lat="41.66011" lon="26.37399">
        <ele>104.288923</ele>
        <time>2022-02-26T08:41:48.277Z</time>
      </trkpt>
      <trkpt lat="41.65965" lon="26.37103">
        <ele>106.153773</ele>
        <time>2022-02-26T08:42:38.302Z</time>
      </trkpt>
      <trkpt lat="41.6591" lon="26.36771">
        <ele>107.64348</ele>
        <time>2022-02-26T08:43:38.271Z</time>
      </trkpt>
      <trkpt lat="41.65889" lon="26.36438">
        <ele>107.068609</ele>
        <time>2022-02-26T08:44:38.282Z</time>
      </trkpt>
      <trkpt lat="41.65939" lon="26.36167">
        <ele>107.722581</ele>
        <time>2022-02-26T08:45:24.299Z</time>
      </trkpt>
      <trkpt lat="41.66024" lon="26.35869">
        <ele>109.706998</ele>
        <time>2022-02-26T08:46:22.286Z</time>
      </trkpt>
      <trkpt lat="41.6615" lon="26.35643">
        <ele>114.158237</ele>
        <time>2022-02-26T08:47:22.247Z</time>
      </trkpt>
      <trkpt lat="41.6629" lon="26.35416">
        <ele>118.421918</ele>
        <time>2022-02-26T08:48:25.303Z</time>
      </trkpt>
      <trkpt lat="41.66471" lon="26.35452">
        <ele>112.569285</ele>
        <time>2022-02-26T08:49:19.327Z</time>
      </trkpt>
      <trkpt lat="41.66677" lon="26.35437">
        <ele>116.530487</ele>
        <time>2022-02-26T08:50:19.289Z</time>
      </trkpt>
      <trkpt lat="41.66888" lon="26.35451">
        <ele>122.181813</ele>
        <time>2022-02-26T08:51:26.319Z</time>
      </trkpt>
      <trkpt lat="41.67102" lon="26.354">
        <ele>122.412609</ele>
        <time>2022-02-26T08:52:42.275Z</time>
      </trkpt>
      <trkpt lat="41.67294" lon="26.3531">
        <ele>121.959945</ele>
        <time>2022-02-26T08:56:18.271Z</time>
      </trkpt>
      <trkpt lat="41.67478" lon="26.35134">
        <ele>125.777725</ele>
        <time>2022-02-26T08:57:19.270Z</time>
      </trkpt>
      <trkpt lat="41.67576" lon="26.34882">
        <ele>130.418359</ele>
        <time>2022-02-26T08:58:39.295Z</time>
      </trkpt>
      <trkpt lat="41.67696" lon="26.34656">
        <ele>129.644623</ele>
        <time>2022-02-26T08:59:42.320Z</time>
      </trkpt>
      <trkpt lat="41.67796" lon="26.34394">
        <ele>127.25884</ele>
        <time>2022-02-26T09:00:50.272Z</time>
      </trkpt>
      <trkpt lat="41.67816" lon="26.34122">
        <ele>130.166168</ele>
        <time>2022-02-26T09:01:51.286Z</time>
      </trkpt>
      <trkpt lat="41.67935" lon="26.33886">
        <ele>134.788192</ele>
        <time>2022-02-26T09:02:51.284Z</time>
      </trkpt>
      <trkpt lat="41.68082" lon="26.33694">
        <ele>143.815359</ele>
        <time>2022-02-26T09:03:57.289Z</time>
      </trkpt>
      <trkpt lat="41.68249" lon="26.33516">
        <ele>137.648797</ele>
        <time>2022-02-26T09:05:16.282Z</time>
      </trkpt>
      <trkpt lat="41.68306" lon="26.33242">
        <ele>137.172688</ele>
        <time>2022-02-26T09:06:16.287Z</time>
      </trkpt>
      <trkpt lat="41.68461" lon="26.33058">
        <ele>149.531172</ele>
        <time>2022-02-26T09:07:17.269Z</time>
      </trkpt>
      <trkpt lat="41.68609" lon="26.32867">
        <ele>152.134242</ele>
        <time>2022-02-26T09:08:51.265Z</time>
      </trkpt>
      <trkpt lat="41.68622" lon="26.32606">
        <ele>147.129685</ele>
        <time>2022-02-26T09:09:57.272Z</time>
      </trkpt>
      <trkpt lat="41.687" lon="26.3235">
        <ele>152.933987</ele>
        <time>2022-02-26T09:11:18.282Z</time>
      </trkpt>
      <trkpt lat="41.68822" lon="26.32115">
        <ele>151.129306</ele>
        <time>2022-02-26T09:12:28.316Z</time>
      </trkpt>
      <trkpt lat="41.68917" lon="26.31888">
        <ele>152.088022</ele>
        <time>2022-02-26T09:13:33.285Z</time>
      </trkpt>
      <trkpt lat="41.68948" lon="26.31616">
        <ele>159.130931</ele>
        <time>2022-02-26T09:14:55.265Z</time>
      </trkpt>
      <trkpt lat="41.69138" lon="26.31519">
        <ele>172.312175</ele>
        <time>2022-02-26T09:16:11.267Z</time>
      </trkpt>
      <trkpt lat="41.69329" lon="26.31364">
        <ele>168.774443</ele>
        <time>2022-02-26T09:17:12.292Z</time>
      </trkpt>
      <trkpt lat="41.69444" lon="26.31139">
        <ele>158.965259</ele>
        <time>2022-02-26T09:18:04.280Z</time>
      </trkpt>
      <trkpt lat="41.69549" lon="26.30878">
        <ele>158.424023</ele>
        <time>2022-02-26T09:18:56.279Z</time>
      </trkpt>
      <trkpt lat="41.69658" lon="26.30596">
        <ele>156.415179</ele>
        <time>2022-02-26T09:19:52.295Z</time>
      </trkpt>
      <trkpt lat="41.69779" lon="26.30313">
        <ele>151.306265</ele>
        <time>2022-02-26T09:20:35.293Z</time>
      </trkpt>
      <trkpt lat="41.70019" lon="26.30089">
        <ele>133.007114</ele>
        <time>2022-02-26T09:21:17.301Z</time>
      </trkpt>
      <trkpt lat="41.70196" lon="26.29846">
        <ele>114.063112</ele>
        <time>2022-02-26T09:21:57.312Z</time>
      </trkpt>
      <trkpt lat="41.7033" lon="26.29601">
        <ele>96.955774</ele>
        <time>2022-02-26T09:22:38.284Z</time>
      </trkpt>
      <trkpt lat="41.7047" lon="26.29357">
        <ele>81.251077</ele>
        <time>2022-02-26T09:23:25.272Z</time>
      </trkpt>
      <trkpt lat="41.7048" lon="26.29088">
        <ele>86.455314</ele>
        <time>2022-02-26T09:24:23.272Z</time>
      </trkpt>
      <trkpt lat="41.70428" lon="26.2883">
        <ele>86.706114</ele>
        <time>2022-02-26T09:25:36.282Z</time>
      </trkpt>
      <trkpt lat="41.70225" lon="26.28716">
        <ele>91.077809</ele>
        <time>2022-02-26T09:26:37.273Z</time>
      </trkpt>
      <trkpt lat="41.7002" lon="26.2858">
        <ele>95.910223</ele>
        <time>2022-02-26T09:27:32.276Z</time>
      </trkpt>
      <trkpt lat="41.69923" lon="26.28364">
        <ele>90.174466</ele>
        <time>2022-02-26T09:28:48.331Z</time>
      </trkpt>
      <trkpt lat="41.69954" lon="26.28067">
        <ele>84.304616</ele>
        <time>2022-02-26T09:29:38.280Z</time>
      </trkpt>
      <trkpt lat="41.69936" lon="26.27759">
        <ele>82.776035</ele>
        <time>2022-02-26T09:30:33.283Z</time>
      </trkpt>
      <trkpt lat="41.69877" lon="26.27487">
        <ele>88.087824</ele>
        <time>2022-02-26T09:31:36.288Z</time>
      </trkpt>
      <trkpt lat="41.69817" lon="26.27204">
        <ele>90.662338</ele>
        <time>2022-02-26T09:33:00.297Z</time>
      </trkpt>
      <trkpt lat="41.69759" lon="26.26936">
        <ele>94.584798</ele>
        <time>2022-02-26T09:34:20.285Z</time>
      </trkpt>
      <trkpt lat="41.69735" lon="26.26653">
        <ele>97.661015</ele>
        <time>2022-02-26T09:35:38.280Z</time>
      </trkpt>
      <trkpt lat="41.69765" lon="26.2636">
        <ele>97.640469</ele>
        <time>2022-02-26T09:36:48.278Z</time>
      </trkpt>
      <trkpt lat="41.69852" lon="26.26081">
        <ele>101.297438</ele>
        <time>2022-02-26T09:37:42.279Z</time>
      </trkpt>
      <trkpt lat="41.69963" lon="26.25871">
        <ele>99.619205</ele>
        <time>2022-02-26T09:38:23.286Z</time>
      </trkpt>
      <trkpt lat="41.7012" lon="26.25667">
        <ele>102.343333</ele>
        <time>2022-02-26T09:39:13.273Z</time>
      </trkpt>
      <trkpt lat="41.70275" lon="26.2544">
        <ele>102.788112</ele>
        <time>2022-02-26T09:40:16.286Z</time>
      </trkpt>
      <trkpt lat="41.70398" lon="26.25199">
        <ele>102.405024</ele>
        <time>2022-02-26T09:41:16.283Z</time>
      </trkpt>
      <trkpt lat="41.70499" lon="26.24941">
        <ele>103.336092</ele>
        <time>2022-02-26T09:42:16.278Z</time>
      </trkpt>
      <trkpt lat="41.7059" lon="26.24663">
        <ele>105.501535</ele>
        <time>2022-02-26T09:43:19.266Z</time>
      </trkpt>
      <trkpt lat="41.70675" lon="26.24405">
        <ele>102.677235</ele>
        <time>2022-02-26T09:44:07.285Z</time>
      </trkpt>
      <trkpt lat="41.70757" lon="26.24166">
        <ele>101.314614</ele>
        <time>2022-02-26T09:44:47.295Z</time>
      </trkpt>
      <trkpt lat="41.7084" lon="26.23916">
        <ele>100.762989</ele>
        <time>2022-02-26T09:45:29.278Z</time>
      </trkpt>
      <trkpt lat="41.7092" lon="26.23673">
        <ele>99.974733</ele>
        <time>2022-02-26T09:46:09.278Z</time>
      </trkpt>
      <trkpt lat="41.71008" lon="26.23418">
        <ele>95.658549</ele>
        <time>2022-02-26T09:46:49.291Z</time>
      </trkpt>
      <trkpt lat="41.71141" lon="26.23059">
        <ele>94.763483</ele>
        <time>2022-02-26T09:47:31.275Z</time>
      </trkpt>
      <trkpt lat="41.71257" lon="26.22802">
        <ele>96.759956</ele>
        <time>2022-02-26T09:48:23.276Z</time>
      </trkpt>
      <trkpt lat="41.71356" lon="26.22564">
        <ele>110.183576</ele>
        <time>2022-02-26T09:49:40.284Z</time>
      </trkpt>
      <trkpt lat="41.7144" lon="26.22316">
        <ele>114.111524</ele>
        <time>2022-02-26T09:51:05.286Z</time>
      </trkpt>
      <trkpt lat="41.71506" lon="26.22049">
        <ele>103.398011</ele>
        <time>2022-02-26T09:52:16.247Z</time>
      </trkpt>
      <trkpt lat="41.7158" lon="26.21772">
        <ele>101.259007</ele>
        <time>2022-02-26T09:53:04.262Z</time>
      </trkpt>
      <trkpt lat="41.71649" lon="26.21464">
        <ele>103.555252</ele>
        <time>2022-02-26T09:53:58.259Z</time>
      </trkpt>
      <trkpt lat="41.71684" lon="26.21198">
        <ele>112.550506</ele>
        <time>2022-02-26T09:55:00.256Z</time>
      </trkpt>
      <trkpt lat="41.71698" lon="26.20911">
        <ele>119.393406</ele>
        <time>2022-02-26T09:56:16.256Z</time>
      </trkpt>
      <trkpt lat="41.71703" lon="26.20636">
        <ele>122.205773</ele>
        <time>2022-02-26T09:57:40.262Z</time>
      </trkpt>
      <trkpt lat="41.71712" lon="26.20368">
        <ele>122.03565</ele>
        <time>2022-02-26T09:58:59.248Z</time>
      </trkpt>
      <trkpt lat="41.71717" lon="26.20045">
        <ele>110.206544</ele>
        <time>2022-02-26T09:59:46.248Z</time>
      </trkpt>
      <trkpt lat="41.71735" lon="26.19695">
        <ele>104.193494</ele>
        <time>2022-02-26T10:00:17.270Z</time>
      </trkpt>
      <trkpt lat="41.71742" lon="26.19378">
        <ele>92.45633</ele>
        <time>2022-02-26T10:00:43.262Z</time>
      </trkpt>
      <trkpt lat="41.71755" lon="26.19042">
        <ele>89.751601</ele>
        <time>2022-02-26T10:01:24.335Z</time>
      </trkpt>
      <trkpt lat="41.71781" lon="26.18703">
        <ele>92.37428</ele>
        <time>2022-02-26T10:02:27.287Z</time>
      </trkpt>
      <trkpt lat="41.71915" lon="26.18442">
        <ele>94.037963</ele>
        <time>2022-02-26T10:03:26.267Z</time>
      </trkpt>
      <trkpt lat="41.72082" lon="26.18209">
        <ele>97.394844</ele>
        <time>2022-02-26T10:04:25.268Z</time>
      </trkpt>
      <trkpt lat="41.72275" lon="26.18012">
        <ele>88.975938</ele>
        <time>2022-02-26T10:05:21.291Z</time>
      </trkpt>
      <trkpt lat="41.72466" lon="26.17984">
        <ele>89.167125</ele>
        <time>2022-02-26T10:06:01.322Z</time>
      </trkpt>
      <trkpt lat="41.7267" lon="26.17996">
        <ele>91.087316</ele>
        <time>2022-02-26T10:06:47.285Z</time>
      </trkpt>
      <trkpt lat="41.72901" lon="26.17986">
        <ele>95.967437</ele>
        <time>2022-02-26T10:07:50.255Z</time>
      </trkpt>
      <trkpt lat="41.73074" lon="26.17841">
        <ele>106.327726</ele>
        <time>2022-02-26T10:08:57.260Z</time>
      </trkpt>
      <trkpt lat="41.73218" lon="26.17651">
        <ele>115.779702</ele>
        <time>2022-02-26T10:10:37.262Z</time>
      </trkpt>
      <trkpt lat="41.73361" lon="26.17463">
        <ele>116.208919</ele>
        <time>2022-02-26T10:12:18.271Z</time>
      </trkpt>
      <trkpt lat="41.73531" lon="26.17245">
        <ele>118.083887</ele>
        <time>2022-02-26T10:13:25.253Z</time>
      </trkpt>
      <trkpt lat="41.7369" lon="26.17053">
        <ele>118.062456</ele>
        <time>2022-02-26T10:14:32.259Z</time>
      </trkpt>
      <trkpt lat="41.73831" lon="26.16852">
        <ele>126.115115</ele>
        <time>2022-02-26T10:18:48.281Z</time>
      </trkpt>
      <trkpt lat="41.73995" lon="26.1669">
        <ele>120.261276</ele>
        <time>2022-02-26T10:23:42.277Z</time>
      </trkpt>
      <trkpt lat="41.74203" lon="26.16608">
        <ele>111.591642</ele>
        <time>2022-02-26T10:24:33.249Z</time>
      </trkpt>
      <trkpt lat="41.74456" lon="26.16617">
        <ele>101.696272</ele>
        <time>2022-02-26T10:25:13.249Z</time>
      </trkpt>
      <trkpt lat="41.74741" lon="26.16634">
        <ele>88.23771</ele>
        <time>2022-02-26T10:25:55.252Z</time>
      </trkpt>
      <trkpt lat="41.74988" lon="26.16653">
        <ele>85.848697</ele>
        <time>2022-02-26T10:29:31.311Z</time>
      </trkpt>
      <trkpt lat="41.75223" lon="26.16691">
        <ele>85.920822</ele>
        <time>2022-02-26T10:30:31.253Z</time>
      </trkpt>
      <trkpt lat="41.75443" lon="26.16672">
        <ele>89.181975</ele>
        <time>2022-02-26T10:31:34.252Z</time>
      </trkpt>
      <trkpt lat="41.75635" lon="26.16589">
        <ele>90.047198</ele>
        <time>2022-02-26T10:32:41.323Z</time>
      </trkpt>
      <trkpt lat="41.75795" lon="26.16412">
        <ele>93.875181</ele>
        <time>2022-02-26T10:40:59.276Z</time>
      </trkpt>
      <trkpt lat="41.75961" lon="26.1629">
        <ele>95.047771</ele>
        <time>2022-02-26T10:45:20.281Z</time>
      </trkpt>
      <trkpt lat="41.76122" lon="26.16131">
        <ele>94.23701</ele>
        <time>2022-02-26T10:46:23.273Z</time>
      </trkpt>
      <trkpt lat="41.76275" lon="26.15966">
        <ele>95.739221</ele>
        <time>2022-02-26T10:47:24.258Z</time>
      </trkpt>
      <trkpt lat="41.76434" lon="26.15767">
        <ele>93.526172</ele>
        <time>2022-02-26T10:48:17.259Z</time>
      </trkpt>
      <trkpt lat="41.76566" lon="26.15506">
        <ele>94.393349</ele>
        <time>2022-02-26T10:49:05.268Z</time>
      </trkpt>
      <trkpt lat="41.7669" lon="26.15259">
        <ele>92.739377</ele>
        <time>2022-02-26T10:49:57.268Z</time>
      </trkpt>
      <trkpt lat="41.76772" lon="26.14964">
        <ele>94.492221</ele>
        <time>2022-02-26T10:50:57.251Z</time>
      </trkpt>
      <trkpt lat="41.76974" lon="26.14914">
        <ele>90.545056</ele>
        <time>2022-02-26T10:52:31.255Z</time>
      </trkpt>
      <trkpt lat="41.77135" lon="26.14798">
        <ele>84.756774</ele>
        <time>2022-02-26T10:55:10.247Z</time>
      </trkpt>
      <trkpt lat="41.77308" lon="26.14636">
        <ele>84.358039</ele>
        <time>2022-02-26T10:56:14.247Z</time>
      </trkpt>
      <trkpt lat="41.77482" lon="26.14658">
        <ele>95.706682</ele>
        <time>2022-02-26T10:57:19.248Z</time>
      </trkpt>
      <trkpt lat="41.77661" lon="26.14619">
        <ele>94.223104</ele>
        <time>2022-02-26T10:58:19.253Z</time>
      </trkpt>
      <trkpt lat="41.77887" lon="26.14565">
        <ele>93.101121</ele>
        <time>2022-02-26T10:59:23.267Z</time>
      </trkpt>
      <trkpt lat="41.77934" lon="26.14253">
        <ele>95.145699</ele>
        <time>2022-02-26T11:00:21.249Z</time>
      </trkpt>
      <trkpt lat="41.77961" lon="26.1398">
        <ele>94.656562</ele>
        <time>2022-02-26T11:01:05.244Z</time>
      </trkpt>
      <trkpt lat="41.78044" lon="26.1372">
        <ele>87.42211</ele>
        <time>2022-02-26T11:01:51.268Z</time>
      </trkpt>
      <trkpt lat="41.78194" lon="26.13546">
        <ele>78.653384</ele>
        <time>2022-02-26T11:02:33.307Z</time>
      </trkpt>
      <trkpt lat="41.78362" lon="26.13423">
        <ele>80.392191</ele>
        <time>2022-02-26T11:03:14.283Z</time>
      </trkpt>
      <trkpt lat="41.78572" lon="26.13374">
        <ele>90.129114</ele>
        <time>2022-02-26T11:04:01.268Z</time>
      </trkpt>
      <trkpt lat="41.78645" lon="26.13165">
        <ele>91.224168</ele>
        <time>2022-02-26T11:05:21.279Z</time>
      </trkpt>
      <trkpt lat="41.78758" lon="26.12931">
        <ele>93.158735</ele>
        <time>2022-02-26T11:06:45.283Z</time>
      </trkpt>
      <trkpt lat="41.78886" lon="26.1272">
        <ele>92.389603</ele>
        <time>2022-02-26T11:07:55.272Z</time>
      </trkpt>
      <trkpt lat="41.79048" lon="26.12543">
        <ele>88.051293</ele>
        <time>2022-02-26T11:09:01.253Z</time>
      </trkpt>
      <trkpt lat="41.79224" lon="26.124">
        <ele>90.688396</ele>
        <time>2022-02-26T11:12:23.242Z</time>
      </trkpt>
      <trkpt lat="41.79378" lon="26.12223">
        <ele>91.158949</ele>
        <time>2022-02-26T11:13:59.247Z</time>
      </trkpt>
      <trkpt lat="41.79527" lon="26.12015">
        <ele>96.06696</ele>
        <time>2022-02-26T11:15:45.326Z</time>
      </trkpt>
      <trkpt lat="41.79663" lon="26.11825">
        <ele>100.187418</ele>
        <time>2022-02-26T11:17:25.299Z</time>
      </trkpt>
      <trkpt lat="41.79841" lon="26.11687">
        <ele>100.660946</ele>
        <time>2022-02-26T11:18:51.255Z</time>
      </trkpt>
      <trkpt lat="41.8002" lon="26.11548">
        <ele>103.107966</ele>
        <time>2022-02-26T11:20:37.320Z</time>
      </trkpt>
      <trkpt lat="41.80195" lon="26.11417">
        <ele>104.663919</ele>
        <time>2022-02-26T11:22:17.283Z</time>
      </trkpt>
      <trkpt lat="41.80368" lon="26.11283">
        <ele>105.536887</ele>
        <time>2022-02-26T11:24:08.264Z</time>
      </trkpt>
      <trkpt lat="41.80552" lon="26.11156">
        <ele>107.000936</ele>
        <time>2022-02-26T11:25:59.278Z</time>
      </trkpt>
      <trkpt lat="41.80733" lon="26.11055">
        <ele>102.848479</ele>
        <time>2022-02-26T11:27:32.283Z</time>
      </trkpt>
      <trkpt lat="41.80911" lon="26.10924">
        <ele>95.786784</ele>
        <time>2022-02-26T11:28:56.289Z</time>
      </trkpt>
      <trkpt lat="41.81091" lon="26.10782">
        <ele>97.361591</ele>
        <time>2022-02-26T11:30:38.277Z</time>
      </trkpt>
      <trkpt lat="41.81253" lon="26.1062">
        <ele>98.44102</ele>
        <time>2022-02-26T11:32:23.290Z</time>
      </trkpt>
      <trkpt lat="41.81428" lon="26.10509">
        <ele>106.758794</ele>
        <time>2022-02-26T11:34:07.257Z</time>
      </trkpt>
      <trkpt lat="41.81634" lon="26.10399">
        <ele>106.942136</ele>
        <time>2022-02-26T11:35:29.261Z</time>
      </trkpt>
      <trkpt lat="41.81824" lon="26.10288">
        <ele>107.670936</ele>
        <time>2022-02-26T11:36:58.274Z</time>
      </trkpt>
      <trkpt lat="41.82005" lon="26.10171">
        <ele>102.2808</ele>
        <time>2022-02-26T11:38:25.333Z</time>
      </trkpt>
      <trkpt lat="41.82203" lon="26.10064">
        <ele>98.2919</ele>
        <time>2022-02-26T11:39:48.273Z</time>
      </trkpt>
      <trkpt lat="41.82397" lon="26.09954">
        <ele>97.480405</ele>
        <time>2022-02-26T11:41:09.257Z</time>
      </trkpt>
      <trkpt lat="41.82591" lon="26.09841">
        <ele>97.700472</ele>
        <time>2022-02-26T11:42:23.301Z</time>
      </trkpt>
      <trkpt lat="41.82797" lon="26.09724">
        <ele>99.923851</ele>
        <time>2022-02-26T11:43:46.312Z</time>
      </trkpt>
      <trkpt lat="41.82983" lon="26.09623">
        <ele>99.466844</ele>
        <time>2022-02-26T11:44:55.269Z</time>
      </trkpt>
      <trkpt lat="41.83197" lon="26.09495">
        <ele>99.476718</ele>
        <time>2022-02-26T11:45:55.262Z</time>
      </trkpt>
      <trkpt lat="41.83425" lon="26.09365">
        <ele>102.450704</ele>
        <time>2022-02-26T11:46:58.271Z</time>
      </trkpt>
      <trkpt lat="41.83481" lon="26.09155">
        <ele>106.669862</ele>
        <time>2022-02-26T11:47:58.274Z</time>
      </trkpt>
      <trkpt lat="41.83668" lon="26.09029">
        <ele>108.788588</ele>
        <time>2022-02-26T11:49:11.279Z</time>
      </trkpt>
      <trkpt lat="41.83862" lon="26.08908">
        <ele>112.010927</ele>
        <time>2022-02-26T11:50:23.274Z</time>
      </trkpt>
      <trkpt lat="41.84044" lon="26.0879">
        <ele>113.855629</ele>
        <time>2022-02-26T11:51:28.262Z</time>
      </trkpt>
      <trkpt lat="41.8414" lon="26.08603">
        <ele>112.541229</ele>
        <time>2022-02-26T11:52:37.260Z</time>
      </trkpt>
      <trkpt lat="41.84348" lon="26.08508">
        <ele>114.858613</ele>
        <time>2022-02-26T11:53:40.274Z</time>
      </trkpt>
      <trkpt lat="41.84492" lon="26.08339">
        <ele>116.333655</ele>
        <time>2022-02-26T11:54:43.269Z</time>
      </trkpt>
      <trkpt lat="41.84461" lon="26.08268">
        <ele>116.333655</ele>
        <time>2022-02-26T12:00:50.251Z</time>
      </trkpt>
    </trkseg>
  </trk>
  <trk>
    <name><![CDATA[3bis_Dubrovnik à Sarajevo_272km (Ćiro)_5days - Jour 4 - De Mostar à Konjic]]></name>
    <extensions>
      <line xmlns="http://www.topografix.com/GPX/gpx_style/0/2">
        <color>880000</color>
        <width>4</width>
      </line>
    </extensions>
    <trkseg>
      <trkpt lat="43.33836" lon="17.80676">
        <ele>65.719733</ele>
        <time>2022-05-17T19:09:51.252Z</time>
      </trkpt>
      <trkpt lat="43.33835" lon="17.80622">
        <ele>65.719733</ele>
        <time>2022-05-17T19:10:04.631Z</time>
      </trkpt>
      <trkpt lat="43.3384" lon="17.80569">
        <ele>65.719733</ele>
        <time>2022-05-17T19:10:17.310Z</time>
      </trkpt>
      <trkpt lat="43.33836" lon="17.80535">
        <ele>65.763931</ele>
        <time>2022-05-17T19:10:25.844Z</time>
      </trkpt>
      <trkpt lat="43.33842" lon="17.80507">
        <ele>65.836638</ele>
        <time>2022-05-17T19:10:33.040Z</time>
      </trkpt>
      <trkpt lat="43.33844" lon="17.80498">
        <ele>65.860907</ele>
        <time>2022-05-17T19:10:35.579Z</time>
      </trkpt>
      <trkpt lat="43.33855" lon="17.80434">
        <ele>66.025448</ele>
        <time>2022-05-17T19:10:52.490Z</time>
      </trkpt>
      <trkpt lat="43.33862" lon="17.80374">
        <ele>66.175802</ele>
        <time>2022-05-17T19:11:07.745Z</time>
      </trkpt>
      <trkpt lat="43.33873" lon="17.80292">
        <ele>66.371079</ele>
        <time>2022-05-17T19:11:28.013Z</time>
      </trkpt>
      <trkpt lat="43.33887" lon="17.80258">
        <ele>66.443633</ele>
        <time>2022-05-17T19:11:37.260Z</time>
      </trkpt>
      <trkpt lat="43.33891" lon="17.80247">
        <ele>66.46615</ele>
        <time>2022-05-17T19:11:40.215Z</time>
      </trkpt>
      <trkpt lat="43.33891" lon="17.80237">
        <ele>66.484737</ele>
        <time>2022-05-17T19:11:42.592Z</time>
      </trkpt>
      <trkpt lat="43.33893" lon="17.80237">
        <ele>66.489826</ele>
        <time>2022-05-17T19:11:43.192Z</time>
      </trkpt>
      <trkpt lat="43.33904" lon="17.80239">
        <ele>66.517579</ele>
        <time>2022-05-17T19:11:46.673Z</time>
      </trkpt>
      <trkpt lat="43.33913" lon="17.80241">
        <ele>66.539646</ele>
        <time>2022-05-17T19:11:49.451Z</time>
      </trkpt>
      <trkpt lat="43.33918" lon="17.80242">
        <ele>66.553235</ele>
        <time>2022-05-17T19:11:51.179Z</time>
      </trkpt>
      <trkpt lat="43.33927" lon="17.80245">
        <ele>66.576129</ele>
        <time>2022-05-17T19:11:54.269Z</time>
      </trkpt>
      <trkpt lat="43.33945" lon="17.80252">
        <ele>66.623701</ele>
        <time>2022-05-17T19:12:00.535Z</time>
      </trkpt>
      <trkpt lat="43.33965" lon="17.80258">
        <ele>66.675857</ele>
        <time>2022-05-17T19:12:07.532Z</time>
      </trkpt>
      <trkpt lat="43.34156" lon="17.80306">
        <ele>67.271566</ele>
        <time>2022-05-17T19:13:11.864Z</time>
      </trkpt>
      <trkpt lat="43.34161" lon="17.80307">
        <ele>67.288802</ele>
        <time>2022-05-17T19:13:13.672Z</time>
      </trkpt>
      <trkpt lat="43.34163" lon="17.80321">
        <ele>67.320826</ele>
        <time>2022-05-17T19:13:16.701Z</time>
      </trkpt>
      <trkpt lat="43.34169" lon="17.80326">
        <ele>67.345436</ele>
        <time>2022-05-17T19:13:19.098Z</time>
      </trkpt>
      <trkpt lat="43.34179" lon="17.80324">
        <ele>67.374196</ele>
        <time>2022-05-17T19:13:22.284Z</time>
      </trkpt>
      <trkpt lat="43.34184" lon="17.80312">
        <ele>67.367885</ele>
        <time>2022-05-17T19:13:25.413Z</time>
      </trkpt>
      <trkpt lat="43.34191" lon="17.80314">
        <ele>67.363024</ele>
        <time>2022-05-17T19:13:27.551Z</time>
      </trkpt>
      <trkpt lat="43.34277" lon="17.80338">
        <ele>67.304243</ele>
        <time>2022-05-17T19:13:54.225Z</time>
      </trkpt>
      <trkpt lat="43.3439" lon="17.80368">
        <ele>67.33766</ele>
        <time>2022-05-17T19:14:29.623Z</time>
      </trkpt>
      <trkpt lat="43.34419" lon="17.80374">
        <ele>67.399113</ele>
        <time>2022-05-17T19:14:39.088Z</time>
      </trkpt>
      <trkpt lat="43.34433" lon="17.80377">
        <ele>67.426816</ele>
        <time>2022-05-17T19:14:42.986Z</time>
      </trkpt>
      <trkpt lat="43.34444" lon="17.80387">
        <ele>67.455182</ele>
        <time>2022-05-17T19:14:47.419Z</time>
      </trkpt>
      <trkpt lat="43.34445" lon="17.8039">
        <ele>67.459158</ele>
        <time>2022-05-17T19:14:48.082Z</time>
      </trkpt>
      <trkpt lat="43.34451" lon="17.80394">
        <ele>67.472619</ele>
        <time>2022-05-17T19:14:50.230Z</time>
      </trkpt>
      <trkpt lat="43.34455" lon="17.80392">
        <ele>67.481873</ele>
        <time>2022-05-17T19:14:51.594Z</time>
      </trkpt>
      <trkpt lat="43.3446" lon="17.80391">
        <ele>67.493224</ele>
        <time>2022-05-17T19:14:53.240Z</time>
      </trkpt>
      <trkpt lat="43.34466" lon="17.80389">
        <ele>67.505241</ele>
        <time>2022-05-17T19:14:55.048Z</time>
      </trkpt>
      <trkpt lat="43.34482" lon="17.80393">
        <ele>67.538479</ele>
        <time>2022-05-17T19:15:00.603Z</time>
      </trkpt>
      <trkpt lat="43.34488" lon="17.80394">
        <ele>67.552126</ele>
        <time>2022-05-17T19:15:02.824Z</time>
      </trkpt>
      <trkpt lat="43.34521" lon="17.80402">
        <ele>67.61947</ele>
        <time>2022-05-17T19:15:14.021Z</time>
      </trkpt>
      <trkpt lat="43.34562" lon="17.80411">
        <ele>67.847785</ele>
        <time>2022-05-17T19:15:28.435Z</time>
      </trkpt>
      <trkpt lat="43.34565" lon="17.80415">
        <ele>67.874677</ele>
        <time>2022-05-17T19:15:29.908Z</time>
      </trkpt>
      <trkpt lat="43.34569" lon="17.8042">
        <ele>67.903552</ele>
        <time>2022-05-17T19:15:31.567Z</time>
      </trkpt>
      <trkpt lat="43.34575" lon="17.80417">
        <ele>67.942489</ele>
        <time>2022-05-17T19:15:33.988Z</time>
      </trkpt>
      <trkpt lat="43.34576" lon="17.80414">
        <ele>67.953107</ele>
        <time>2022-05-17T19:15:34.666Z</time>
      </trkpt>
      <trkpt lat="43.34576" lon="17.80412">
        <ele>67.961893</ele>
        <time>2022-05-17T19:15:35.230Z</time>
      </trkpt>
      <trkpt lat="43.34577" lon="17.80405">
        <ele>67.9958</ele>
        <time>2022-05-17T19:15:37.412Z</time>
      </trkpt>
      <trkpt lat="43.34577" lon="17.80402">
        <ele>68.007529</ele>
        <time>2022-05-17T19:15:38.156Z</time>
      </trkpt>
      <trkpt lat="43.34578" lon="17.80381">
        <ele>68.094783</ele>
        <time>2022-05-17T19:15:43.280Z</time>
      </trkpt>
      <trkpt lat="43.34587" lon="17.80318">
        <ele>68.361872</ele>
        <time>2022-05-17T19:15:59.419Z</time>
      </trkpt>
      <trkpt lat="43.34592" lon="17.8029">
        <ele>68.483422</ele>
        <time>2022-05-17T19:16:06.888Z</time>
      </trkpt>
      <trkpt lat="43.34598" lon="17.80247">
        <ele>68.662592</ele>
        <time>2022-05-17T19:16:17.744Z</time>
      </trkpt>
      <trkpt lat="43.34604" lon="17.80248">
        <ele>68.672275</ele>
        <time>2022-05-17T19:16:19.811Z</time>
      </trkpt>
      <trkpt lat="43.34646" lon="17.80259">
        <ele>68.740532</ele>
        <time>2022-05-17T19:16:34.254Z</time>
      </trkpt>
      <trkpt lat="43.34673" lon="17.80265">
        <ele>68.783836</ele>
        <time>2022-05-17T19:16:43.100Z</time>
      </trkpt>
      <trkpt lat="43.34676" lon="17.80247">
        <ele>68.80572</ele>
        <time>2022-05-17T19:16:47.519Z</time>
      </trkpt>
      <trkpt lat="43.34684" lon="17.80249">
        <ele>68.818682</ele>
        <time>2022-05-17T19:16:50.126Z</time>
      </trkpt>
      <trkpt lat="43.34742" lon="17.80282">
        <ele>68.918491</ele>
        <time>2022-05-17T19:17:09.484Z</time>
      </trkpt>
      <trkpt lat="43.34744" lon="17.80277">
        <ele>68.924943</ele>
        <time>2022-05-17T19:17:10.691Z</time>
      </trkpt>
      <trkpt lat="43.34746" lon="17.80264">
        <ele>68.940261</ele>
        <time>2022-05-17T19:17:13.619Z</time>
      </trkpt>
      <trkpt lat="43.34757" lon="17.80203">
        <ele>68.987571</ele>
        <time>2022-05-17T19:17:27.475Z</time>
      </trkpt>
      <trkpt lat="43.34767" lon="17.80207">
        <ele>68.997637</ele>
        <time>2022-05-17T19:17:30.602Z</time>
      </trkpt>
      <trkpt lat="43.34769" lon="17.80208">
        <ele>68.999504</ele>
        <time>2022-05-17T19:17:31.184Z</time>
      </trkpt>
      <trkpt lat="43.34775" lon="17.8021">
        <ele>69.005528</ele>
        <time>2022-05-17T19:17:32.984Z</time>
      </trkpt>
      <trkpt lat="43.34788" lon="17.80215">
        <ele>69.019636</ele>
        <time>2022-05-17T19:17:37.433Z</time>
      </trkpt>
      <trkpt lat="43.34795" lon="17.80218">
        <ele>69.026508</ele>
        <time>2022-05-17T19:17:39.643Z</time>
      </trkpt>
      <trkpt lat="43.34808" lon="17.80227">
        <ele>69.040785</ele>
        <time>2022-05-17T19:17:44.222Z</time>
      </trkpt>
      <trkpt lat="43.34813" lon="17.80228">
        <ele>69.045925</ele>
        <time>2022-05-17T19:17:45.806Z</time>
      </trkpt>
      <trkpt lat="43.34842" lon="17.80236">
        <ele>69.07522</ele>
        <time>2022-05-17T19:17:55.253Z</time>
      </trkpt>
      <trkpt lat="43.34845" lon="17.80213">
        <ele>69.092316</ele>
        <time>2022-05-17T19:18:00.706Z</time>
      </trkpt>
      <trkpt lat="43.34868" lon="17.8022">
        <ele>69.115567</ele>
        <time>2022-05-17T19:18:08.108Z</time>
      </trkpt>
      <trkpt lat="43.34903" lon="17.80231">
        <ele>69.191723</ele>
        <time>2022-05-17T19:18:20.094Z</time>
      </trkpt>
      <trkpt lat="43.34913" lon="17.80235">
        <ele>69.218924</ele>
        <time>2022-05-17T19:18:23.885Z</time>
      </trkpt>
      <trkpt lat="43.34932" lon="17.80241">
        <ele>69.268646</ele>
        <time>2022-05-17T19:18:30.495Z</time>
      </trkpt>
      <trkpt lat="43.34936" lon="17.80231">
        <ele>69.289025</ele>
        <time>2022-05-17T19:18:33.286Z</time>
      </trkpt>
      <trkpt lat="43.34936" lon="17.80229">
        <ele>69.292991</ele>
        <time>2022-05-17T19:18:33.859Z</time>
      </trkpt>
      <trkpt lat="43.34938" lon="17.80229">
        <ele>69.297327</ele>
        <time>2022-05-17T19:18:34.471Z</time>
      </trkpt>
      <trkpt lat="43.34955" lon="17.80231">
        <ele>69.339509</ele>
        <time>2022-05-17T19:18:40.044Z</time>
      </trkpt>
      <trkpt lat="43.34957" lon="17.80231">
        <ele>69.346666</ele>
        <time>2022-05-17T19:18:40.934Z</time>
      </trkpt>
      <trkpt lat="43.34963" lon="17.80196">
        <ele>69.414027</ele>
        <time>2022-05-17T19:18:49.779Z</time>
      </trkpt>
      <trkpt lat="43.34968" lon="17.80168">
        <ele>69.46788</ele>
        <time>2022-05-17T19:18:56.502Z</time>
      </trkpt>
      <trkpt lat="43.34969" lon="17.80164">
        <ele>69.475324</ele>
        <time>2022-05-17T19:18:57.481Z</time>
      </trkpt>
      <trkpt lat="43.3498" lon="17.80168">
        <ele>69.505991</ele>
        <time>2022-05-17T19:19:01.476Z</time>
      </trkpt>
      <trkpt lat="43.35047" lon="17.80177">
        <ele>69.423989</ele>
        <time>2022-05-17T19:19:22.113Z</time>
      </trkpt>
      <trkpt lat="43.35052" lon="17.80179">
        <ele>69.401759</ele>
        <time>2022-05-17T19:19:23.619Z</time>
      </trkpt>
      <trkpt lat="43.35109" lon="17.802">
        <ele>69.141693</ele>
        <time>2022-05-17T19:19:40.842Z</time>
      </trkpt>
      <trkpt lat="43.35117" lon="17.80202">
        <ele>69.105922</ele>
        <time>2022-05-17T19:19:43.121Z</time>
      </trkpt>
      <trkpt lat="43.35121" lon="17.80188">
        <ele>69.058868</ele>
        <time>2022-05-17T19:19:46.076Z</time>
      </trkpt>
      <trkpt lat="43.35122" lon="17.80181">
        <ele>69.034158</ele>
        <time>2022-05-17T19:19:48.284Z</time>
      </trkpt>
      <trkpt lat="43.35126" lon="17.80164">
        <ele>68.978032</ele>
        <time>2022-05-17T19:19:52.160Z</time>
      </trkpt>
      <trkpt lat="43.35126" lon="17.80163">
        <ele>68.975453</ele>
        <time>2022-05-17T19:19:52.389Z</time>
      </trkpt>
      <trkpt lat="43.35127" lon="17.80155">
        <ele>68.949096</ele>
        <time>2022-05-17T19:19:54.618Z</time>
      </trkpt>
      <trkpt lat="43.35129" lon="17.80147">
        <ele>68.923962</ele>
        <time>2022-05-17T19:19:56.722Z</time>
      </trkpt>
      <trkpt lat="43.3513" lon="17.80144">
        <ele>68.914803</ele>
        <time>2022-05-17T19:19:57.511Z</time>
      </trkpt>
      <trkpt lat="43.35184" lon="17.80165">
        <ele>68.549277</ele>
        <time>2022-05-17T19:20:13.316Z</time>
      </trkpt>
      <trkpt lat="43.35212" lon="17.80176">
        <ele>68.30207</ele>
        <time>2022-05-17T19:20:21.353Z</time>
      </trkpt>
      <trkpt lat="43.35222" lon="17.8018">
        <ele>68.204899</ele>
        <time>2022-05-17T19:20:24.521Z</time>
      </trkpt>
      <trkpt lat="43.35224" lon="17.80189">
        <ele>68.152798</ele>
        <time>2022-05-17T19:20:26.159Z</time>
      </trkpt>
      <trkpt lat="43.3523" lon="17.80195">
        <ele>68.086172</ele>
        <time>2022-05-17T19:20:28.321Z</time>
      </trkpt>
      <trkpt lat="43.35241" lon="17.80189">
        <ele>67.986378</ele>
        <time>2022-05-17T19:20:31.740Z</time>
      </trkpt>
      <trkpt lat="43.35256" lon="17.80196">
        <ele>67.851635</ele>
        <time>2022-05-17T19:20:36.102Z</time>
      </trkpt>
      <trkpt lat="43.35311" lon="17.80225">
        <ele>67.347521</ele>
        <time>2022-05-17T19:20:52.543Z</time>
      </trkpt>
      <trkpt lat="43.35319" lon="17.80229">
        <ele>67.277283</ele>
        <time>2022-05-17T19:20:54.703Z</time>
      </trkpt>
      <trkpt lat="43.35418" lon="17.80279">
        <ele>65.966747</ele>
        <time>2022-05-17T19:21:21.730Z</time>
      </trkpt>
      <trkpt lat="43.35465" lon="17.80305">
        <ele>65.329876</ele>
        <time>2022-05-17T19:21:34.872Z</time>
      </trkpt>
      <trkpt lat="43.35466" lon="17.80306">
        <ele>65.309015</ele>
        <time>2022-05-17T19:21:35.310Z</time>
      </trkpt>
      <trkpt lat="43.35481" lon="17.80317">
        <ele>65.10221</ele>
        <time>2022-05-17T19:21:39.668Z</time>
      </trkpt>
      <trkpt lat="43.35485" lon="17.8032">
        <ele>65.046446</ele>
        <time>2022-05-17T19:21:40.821Z</time>
      </trkpt>
      <trkpt lat="43.35492" lon="17.8031">
        <ele>64.994381</ele>
        <time>2022-05-17T19:21:43.502Z</time>
      </trkpt>
      <trkpt lat="43.35626" lon="17.80204">
        <ele>64.527346</ele>
        <time>2022-05-17T19:22:29.864Z</time>
      </trkpt>
      <trkpt lat="43.35663" lon="17.80161">
        <ele>64.512937</ele>
        <time>2022-05-17T19:22:46.050Z</time>
      </trkpt>
      <trkpt lat="43.35667" lon="17.80163">
        <ele>64.51821</ele>
        <time>2022-05-17T19:22:47.486Z</time>
      </trkpt>
      <trkpt lat="43.35673" lon="17.8016">
        <ele>64.52565</ele>
        <time>2022-05-17T19:22:49.616Z</time>
      </trkpt>
      <trkpt lat="43.35675" lon="17.80152">
        <ele>64.533049</ele>
        <time>2022-05-17T19:22:51.805Z</time>
      </trkpt>
      <trkpt lat="43.35695" lon="17.80147">
        <ele>64.557429</ele>
        <time>2022-05-17T19:22:58.543Z</time>
      </trkpt>
      <trkpt lat="43.35713" lon="17.80134">
        <ele>64.580529</ele>
        <time>2022-05-17T19:23:05.056Z</time>
      </trkpt>
      <trkpt lat="43.35739" lon="17.80121">
        <ele>64.613455</ele>
        <time>2022-05-17T19:23:14.025Z</time>
      </trkpt>
      <trkpt lat="43.35759" lon="17.8011">
        <ele>64.63936</ele>
        <time>2022-05-17T19:23:21.015Z</time>
      </trkpt>
      <trkpt lat="43.35821" lon="17.8009">
        <ele>64.419177</ele>
        <time>2022-05-17T19:23:40.494Z</time>
      </trkpt>
      <trkpt lat="43.35831" lon="17.80089">
        <ele>64.290802</ele>
        <time>2022-05-17T19:23:43.481Z</time>
      </trkpt>
      <trkpt lat="43.3592" lon="17.80112">
        <ele>63.150955</ele>
        <time>2022-05-17T19:24:07.840Z</time>
      </trkpt>
      <trkpt lat="43.35939" lon="17.80123">
        <ele>62.889029</ele>
        <time>2022-05-17T19:24:12.847Z</time>
      </trkpt>
      <trkpt lat="43.35971" lon="17.80141">
        <ele>62.450736</ele>
        <time>2022-05-17T19:24:21.160Z</time>
      </trkpt>
      <trkpt lat="43.35992" lon="17.80169">
        <ele>61.753128</ele>
        <time>2022-05-17T19:24:28.156Z</time>
      </trkpt>
      <trkpt lat="43.35998" lon="17.80184">
        <ele>61.429176</ele>
        <time>2022-05-17T19:24:31.328Z</time>
      </trkpt>
      <trkpt lat="43.36004" lon="17.802">
        <ele>61.105633</ele>
        <time>2022-05-17T19:24:34.486Z</time>
      </trkpt>
      <trkpt lat="43.3604" lon="17.80289">
        <ele>59.250237</ele>
        <time>2022-05-17T19:24:51.951Z</time>
      </trkpt>
      <trkpt lat="43.36106" lon="17.80329">
        <ele>57.625842</ele>
        <time>2022-05-17T19:25:08.824Z</time>
      </trkpt>
      <trkpt lat="43.36134" lon="17.80368">
        <ele>57.063074</ele>
        <time>2022-05-17T19:25:18.103Z</time>
      </trkpt>
      <trkpt lat="43.3615" lon="17.80378">
        <ele>56.814495</ele>
        <time>2022-05-17T19:25:22.545Z</time>
      </trkpt>
      <trkpt lat="43.3618" lon="17.80415">
        <ele>56.241483</ele>
        <time>2022-05-17T19:25:33.429Z</time>
      </trkpt>
      <trkpt lat="43.36245" lon="17.80456">
        <ele>55.336561</ele>
        <time>2022-05-17T19:25:53.811Z</time>
      </trkpt>
      <trkpt lat="43.36268" lon="17.80482">
        <ele>55.358994</ele>
        <time>2022-05-17T19:26:02.946Z</time>
      </trkpt>
      <trkpt lat="43.3628" lon="17.80495">
        <ele>55.370411</ele>
        <time>2022-05-17T19:26:07.573Z</time>
      </trkpt>
      <trkpt lat="43.36379" lon="17.80627">
        <ele>55.475159</ele>
        <time>2022-05-17T19:26:52.626Z</time>
      </trkpt>
      <trkpt lat="43.36442" lon="17.80746">
        <ele>55.569122</ele>
        <time>2022-05-17T19:27:27.563Z</time>
      </trkpt>
      <trkpt lat="43.36459" lon="17.80787">
        <ele>55.599741</ele>
        <time>2022-05-17T19:27:38.148Z</time>
      </trkpt>
      <trkpt lat="43.36481" lon="17.8085">
        <ele>55.586335</ele>
        <time>2022-05-17T19:27:53.054Z</time>
      </trkpt>
      <trkpt lat="43.36496" lon="17.80919">
        <ele>55.505674</ele>
        <time>2022-05-17T19:28:08.520Z</time>
      </trkpt>
      <trkpt lat="43.36514" lon="17.81064">
        <ele>55.353458</ele>
        <time>2022-05-17T19:28:41.517Z</time>
      </trkpt>
      <trkpt lat="43.36541" lon="17.81187">
        <ele>55.604339</ele>
        <time>2022-05-17T19:29:11.117Z</time>
      </trkpt>
      <trkpt lat="43.36576" lon="17.81396">
        <ele>56.184785</ele>
        <time>2022-05-17T19:30:03.890Z</time>
      </trkpt>
      <trkpt lat="43.36605" lon="17.81593">
        <ele>56.890078</ele>
        <time>2022-05-17T19:30:53.094Z</time>
      </trkpt>
      <trkpt lat="43.36623" lon="17.8171">
        <ele>57.289615</ele>
        <time>2022-05-17T19:31:22.534Z</time>
      </trkpt>
      <trkpt lat="43.36632" lon="17.8177">
        <ele>57.491642</ele>
        <time>2022-05-17T19:31:37.413Z</time>
      </trkpt>
      <trkpt lat="43.36677" lon="17.81883">
        <ele>57.994293</ele>
        <time>2022-05-17T19:32:09.230Z</time>
      </trkpt>
      <trkpt lat="43.36684" lon="17.81934">
        <ele>58.197706</ele>
        <time>2022-05-17T19:32:21.975Z</time>
      </trkpt>
      <trkpt lat="43.36684" lon="17.81983">
        <ele>58.391609</ele>
        <time>2022-05-17T19:32:34.797Z</time>
      </trkpt>
      <trkpt lat="43.36697" lon="17.82057">
        <ele>58.584792</ele>
        <time>2022-05-17T19:32:53.976Z</time>
      </trkpt>
      <trkpt lat="43.36713" lon="17.82104">
        <ele>58.664768</ele>
        <time>2022-05-17T19:33:06.278Z</time>
      </trkpt>
      <trkpt lat="43.36746" lon="17.82171">
        <ele>58.791158</ele>
        <time>2022-05-17T19:33:25.292Z</time>
      </trkpt>
      <trkpt lat="43.36763" lon="17.82235">
        <ele>58.897638</ele>
        <time>2022-05-17T19:33:40.030Z</time>
      </trkpt>
      <trkpt lat="43.36776" lon="17.82346">
        <ele>58.920972</ele>
        <time>2022-05-17T19:34:05.045Z</time>
      </trkpt>
      <trkpt lat="43.368" lon="17.82447">
        <ele>58.940713</ele>
        <time>2022-05-17T19:34:28.990Z</time>
      </trkpt>
      <trkpt lat="43.36817" lon="17.82511">
        <ele>59.10374</ele>
        <time>2022-05-17T19:34:45.670Z</time>
      </trkpt>
      <trkpt lat="43.36827" lon="17.82569">
        <ele>59.348775</ele>
        <time>2022-05-17T19:35:00.112Z</time>
      </trkpt>
      <trkpt lat="43.36833" lon="17.82665">
        <ele>59.747053</ele>
        <time>2022-05-17T19:35:23.592Z</time>
      </trkpt>
      <trkpt lat="43.36831" lon="17.82714">
        <ele>59.949756</ele>
        <time>2022-05-17T19:35:36.208Z</time>
      </trkpt>
      <trkpt lat="43.36823" lon="17.82855">
        <ele>61.903504</ele>
        <time>2022-05-17T19:36:16.797Z</time>
      </trkpt>
      <trkpt lat="43.36825" lon="17.8292">
        <ele>62.827526</ele>
        <time>2022-05-17T19:36:37.453Z</time>
      </trkpt>
      <trkpt lat="43.3683" lon="17.82944">
        <ele>63.179914</ele>
        <time>2022-05-17T19:36:45.461Z</time>
      </trkpt>
      <trkpt lat="43.36841" lon="17.82965">
        <ele>63.589255</ele>
        <time>2022-05-17T19:36:54.166Z</time>
      </trkpt>
      <trkpt lat="43.36943" lon="17.83074">
        <ele>67.881559</ele>
        <time>2022-05-17T19:38:01.947Z</time>
      </trkpt>
      <trkpt lat="43.37003" lon="17.83132">
        <ele>69.874572</ele>
        <time>2022-05-17T19:38:37.224Z</time>
      </trkpt>
      <trkpt lat="43.37036" lon="17.8323">
        <ele>71.133934</ele>
        <time>2022-05-17T19:39:10.125Z</time>
      </trkpt>
      <trkpt lat="43.37074" lon="17.83329">
        <ele>72.363439</ele>
        <time>2022-05-17T19:39:39.017Z</time>
      </trkpt>
      <trkpt lat="43.37098" lon="17.83367">
        <ele>72.448915</ele>
        <time>2022-05-17T19:39:50.498Z</time>
      </trkpt>
      <trkpt lat="43.37108" lon="17.83381">
        <ele>72.482487</ele>
        <time>2022-05-17T19:39:55.059Z</time>
      </trkpt>
      <trkpt lat="43.37132" lon="17.83465">
        <ele>72.637484</ele>
        <time>2022-05-17T19:40:17.416Z</time>
      </trkpt>
      <trkpt lat="43.37161" lon="17.83539">
        <ele>72.734445</ele>
        <time>2022-05-17T19:40:37.910Z</time>
      </trkpt>
      <trkpt lat="43.37208" lon="17.83691">
        <ele>71.839195</ele>
        <time>2022-05-17T19:41:14.143Z</time>
      </trkpt>
      <trkpt lat="43.37217" lon="17.83702">
        <ele>71.74527</ele>
        <time>2022-05-17T19:41:17.704Z</time>
      </trkpt>
      <trkpt lat="43.37222" lon="17.83725">
        <ele>71.617861</ele>
        <time>2022-05-17T19:41:22.120Z</time>
      </trkpt>
      <trkpt lat="43.37238" lon="17.83799">
        <ele>70.603704</ele>
        <time>2022-05-17T19:41:36.464Z</time>
      </trkpt>
      <trkpt lat="43.37253" lon="17.83858">
        <ele>69.3657</ele>
        <time>2022-05-17T19:41:47.158Z</time>
      </trkpt>
      <trkpt lat="43.37279" lon="17.83935">
        <ele>67.678529</ele>
        <time>2022-05-17T19:42:01.259Z</time>
      </trkpt>
      <trkpt lat="43.37295" lon="17.83973">
        <ele>66.805769</ele>
        <time>2022-05-17T19:42:08.480Z</time>
      </trkpt>
      <trkpt lat="43.37299" lon="17.83982">
        <ele>66.603516</ele>
        <time>2022-05-17T19:42:10.149Z</time>
      </trkpt>
      <trkpt lat="43.37318" lon="17.84026">
        <ele>65.82647</ele>
        <time>2022-05-17T19:42:18.686Z</time>
      </trkpt>
      <trkpt lat="43.3733" lon="17.84048">
        <ele>65.430195</ele>
        <time>2022-05-17T19:42:23.283Z</time>
      </trkpt>
      <trkpt lat="43.37376" lon="17.84109">
        <ele>64.142859</ele>
        <time>2022-05-17T19:42:38.609Z</time>
      </trkpt>
      <trkpt lat="43.37448" lon="17.8416">
        <ele>63.03311</ele>
        <time>2022-05-17T19:43:00.279Z</time>
      </trkpt>
      <trkpt lat="43.37518" lon="17.842">
        <ele>63.623668</ele>
        <time>2022-05-17T19:43:26.372Z</time>
      </trkpt>
      <trkpt lat="43.37653" lon="17.84244">
        <ele>65.545996</ele>
        <time>2022-05-17T19:44:22.132Z</time>
      </trkpt>
      <trkpt lat="43.37692" lon="17.84283">
        <ele>66.672068</ele>
        <time>2022-05-17T19:44:43.523Z</time>
      </trkpt>
      <trkpt lat="43.37741" lon="17.84358">
        <ele>68.414311</ele>
        <time>2022-05-17T19:45:18.099Z</time>
      </trkpt>
      <trkpt lat="43.378" lon="17.8442">
        <ele>70.611939</ele>
        <time>2022-05-17T19:45:54.121Z</time>
      </trkpt>
      <trkpt lat="43.37884" lon="17.84522">
        <ele>73.944708</ele>
        <time>2022-05-17T19:46:48.194Z</time>
      </trkpt>
      <trkpt lat="43.3797" lon="17.84591">
        <ele>75.727128</ele>
        <time>2022-05-17T19:47:33.180Z</time>
      </trkpt>
      <trkpt lat="43.38064" lon="17.8465">
        <ele>77.167429</ele>
        <time>2022-05-17T19:48:10.003Z</time>
      </trkpt>
      <trkpt lat="43.38142" lon="17.847">
        <ele>77.266923</ele>
        <time>2022-05-17T19:48:37.879Z</time>
      </trkpt>
      <trkpt lat="43.38261" lon="17.8479">
        <ele>77.308124</ele>
        <time>2022-05-17T19:49:17.730Z</time>
      </trkpt>
      <trkpt lat="43.38345" lon="17.84884">
        <ele>77.245179</ele>
        <time>2022-05-17T19:49:52.734Z</time>
      </trkpt>
      <trkpt lat="43.38374" lon="17.84909">
        <ele>77.191185</ele>
        <time>2022-05-17T19:50:03.396Z</time>
      </trkpt>
      <trkpt lat="43.38517" lon="17.84983">
        <ele>76.914951</ele>
        <time>2022-05-17T19:50:49.434Z</time>
      </trkpt>
      <trkpt lat="43.38522" lon="17.84986">
        <ele>76.89354</ele>
        <time>2022-05-17T19:50:50.901Z</time>
      </trkpt>
      <trkpt lat="43.38688" lon="17.8507">
        <ele>76.058945</ele>
        <time>2022-05-17T19:51:40.923Z</time>
      </trkpt>
      <trkpt lat="43.38777" lon="17.85123">
        <ele>76.188961</ele>
        <time>2022-05-17T19:52:10.860Z</time>
      </trkpt>
      <trkpt lat="43.38837" lon="17.85142">
        <ele>76.27199</ele>
        <time>2022-05-17T19:52:31.864Z</time>
      </trkpt>
      <trkpt lat="43.38931" lon="17.85159">
        <ele>76.554731</ele>
        <time>2022-05-17T19:53:04.623Z</time>
      </trkpt>
      <trkpt lat="43.38989" lon="17.85185">
        <ele>76.753694</ele>
        <time>2022-05-17T19:53:24.413Z</time>
      </trkpt>
      <trkpt lat="43.39046" lon="17.85226">
        <ele>76.943323</ele>
        <time>2022-05-17T19:53:44.576Z</time>
      </trkpt>
      <trkpt lat="43.3913" lon="17.85302">
        <ele>77.174484</ele>
        <time>2022-05-17T19:54:16.352Z</time>
      </trkpt>
      <trkpt lat="43.39295" lon="17.85377">
        <ele>77.985359</ele>
        <time>2022-05-17T19:55:15.260Z</time>
      </trkpt>
      <trkpt lat="43.39316" lon="17.85393">
        <ele>78.119676</ele>
        <time>2022-05-17T19:55:23.486Z</time>
      </trkpt>
      <trkpt lat="43.3945" lon="17.85471">
        <ele>79.148741</ele>
        <time>2022-05-17T19:56:15.707Z</time>
      </trkpt>
      <trkpt lat="43.39738" lon="17.85559">
        <ele>80.647774</ele>
        <time>2022-05-17T19:57:58.715Z</time>
      </trkpt>
      <trkpt lat="43.39964" lon="17.8566">
        <ele>79.361515</ele>
        <time>2022-05-17T19:59:04.149Z</time>
      </trkpt>
      <trkpt lat="43.4002" lon="17.85693">
        <ele>78.908687</ele>
        <time>2022-05-17T19:59:20.889Z</time>
      </trkpt>
      <trkpt lat="43.40104" lon="17.85753">
        <ele>79.005303</ele>
        <time>2022-05-17T19:59:49.523Z</time>
      </trkpt>
      <trkpt lat="43.40135" lon="17.85784">
        <ele>79.11986</ele>
        <time>2022-05-17T20:00:02.403Z</time>
      </trkpt>
      <trkpt lat="43.40144" lon="17.85797">
        <ele>79.159173</ele>
        <time>2022-05-17T20:00:07.028Z</time>
      </trkpt>
      <trkpt lat="43.40168" lon="17.85837">
        <ele>79.271702</ele>
        <time>2022-05-17T20:00:20.623Z</time>
      </trkpt>
      <trkpt lat="43.40178" lon="17.85854">
        <ele>79.317389</ele>
        <time>2022-05-17T20:00:26.314Z</time>
      </trkpt>
      <trkpt lat="43.4021" lon="17.85901">
        <ele>79.397827</ele>
        <time>2022-05-17T20:00:43.559Z</time>
      </trkpt>
      <trkpt lat="43.40247" lon="17.85936">
        <ele>79.474605</ele>
        <time>2022-05-17T20:00:59.221Z</time>
      </trkpt>
      <trkpt lat="43.40283" lon="17.85971">
        <ele>79.550327</ele>
        <time>2022-05-17T20:01:12.689Z</time>
      </trkpt>
      <trkpt lat="43.40298" lon="17.85984">
        <ele>79.580708</ele>
        <time>2022-05-17T20:01:17.570Z</time>
      </trkpt>
      <trkpt lat="43.40343" lon="17.86029">
        <ele>79.380942</ele>
        <time>2022-05-17T20:01:32.808Z</time>
      </trkpt>
      <trkpt lat="43.40346" lon="17.86032">
        <ele>79.349503</ele>
        <time>2022-05-17T20:01:33.903Z</time>
      </trkpt>
      <trkpt lat="43.40365" lon="17.86072">
        <ele>79.07066</ele>
        <time>2022-05-17T20:01:43.298Z</time>
      </trkpt>
      <trkpt lat="43.40382" lon="17.86129">
        <ele>78.712027</ele>
        <time>2022-05-17T20:01:55.155Z</time>
      </trkpt>
      <trkpt lat="43.40398" lon="17.86183">
        <ele>78.376848</ele>
        <time>2022-05-17T20:02:06.312Z</time>
      </trkpt>
      <trkpt lat="43.40462" lon="17.86424">
        <ele>78.628059</ele>
        <time>2022-05-17T20:03:05.571Z</time>
      </trkpt>
      <trkpt lat="43.40478" lon="17.86455">
        <ele>78.825115</ele>
        <time>2022-05-17T20:03:16.184Z</time>
      </trkpt>
      <trkpt lat="43.40548" lon="17.86525">
        <ele>80.047484</ele>
        <time>2022-05-17T20:03:51.253Z</time>
      </trkpt>
      <trkpt lat="43.40638" lon="17.86637">
        <ele>81.554349</ele>
        <time>2022-05-17T20:04:38.737Z</time>
      </trkpt>
      <trkpt lat="43.40648" lon="17.86649">
        <ele>81.673683</ele>
        <time>2022-05-17T20:04:44.117Z</time>
      </trkpt>
      <trkpt lat="43.40702" lon="17.86726">
        <ele>82.362321</ele>
        <time>2022-05-17T20:05:13.407Z</time>
      </trkpt>
      <trkpt lat="43.40796" lon="17.86848">
        <ele>82.263377</ele>
        <time>2022-05-17T20:05:52.997Z</time>
      </trkpt>
      <trkpt lat="43.40828" lon="17.86878">
        <ele>81.999181</ele>
        <time>2022-05-17T20:06:03.656Z</time>
      </trkpt>
      <trkpt lat="43.40865" lon="17.86902">
        <ele>81.721144</ele>
        <time>2022-05-17T20:06:14.289Z</time>
      </trkpt>
      <trkpt lat="43.40814" lon="17.87058">
        <ele>80.89669</ele>
        <time>2022-05-17T20:06:46.131Z</time>
      </trkpt>
      <trkpt lat="43.40808" lon="17.87123">
        <ele>80.576965</ele>
        <time>2022-05-17T20:07:00.654Z</time>
      </trkpt>
      <trkpt lat="43.40807" lon="17.8713">
        <ele>80.546151</ele>
        <time>2022-05-17T20:07:02.162Z</time>
      </trkpt>
      <trkpt lat="43.40807" lon="17.87152">
        <ele>80.438395</ele>
        <time>2022-05-17T20:07:07.540Z</time>
      </trkpt>
      <trkpt lat="43.40806" lon="17.87278">
        <ele>81.579088</ele>
        <time>2022-05-17T20:07:41.801Z</time>
      </trkpt>
      <trkpt lat="43.40808" lon="17.87324">
        <ele>82.058225</ele>
        <time>2022-05-17T20:07:55.295Z</time>
      </trkpt>
      <trkpt lat="43.40805" lon="17.87434">
        <ele>83.180978</ele>
        <time>2022-05-17T20:08:29.888Z</time>
      </trkpt>
      <trkpt lat="43.40804" lon="17.87456">
        <ele>83.37928</ele>
        <time>2022-05-17T20:08:36.439Z</time>
      </trkpt>
      <trkpt lat="43.40813" lon="17.87458">
        <ele>83.487005</ele>
        <time>2022-05-17T20:08:39.949Z</time>
      </trkpt>
      <trkpt lat="43.40835" lon="17.87446">
        <ele>83.782761</ele>
        <time>2022-05-17T20:08:49.254Z</time>
      </trkpt>
      <trkpt lat="43.40847" lon="17.87445">
        <ele>83.938462</ele>
        <time>2022-05-17T20:08:54.102Z</time>
      </trkpt>
      <trkpt lat="43.40863" lon="17.87449">
        <ele>84.137331</ele>
        <time>2022-05-17T20:09:00.016Z</time>
      </trkpt>
      <trkpt lat="43.40878" lon="17.87453">
        <ele>84.326411</ele>
        <time>2022-05-17T20:09:05.626Z</time>
      </trkpt>
      <trkpt lat="43.40908" lon="17.87479">
        <ele>84.764507</ele>
        <time>2022-05-17T20:09:18.421Z</time>
      </trkpt>
      <trkpt lat="43.40917" lon="17.87481">
        <ele>84.883119</ele>
        <time>2022-05-17T20:09:21.797Z</time>
      </trkpt>
      <trkpt lat="43.40975" lon="17.87495">
        <ele>85.559992</ele>
        <time>2022-05-17T20:09:41.551Z</time>
      </trkpt>
      <trkpt lat="43.40983" lon="17.87498">
        <ele>85.648987</ele>
        <time>2022-05-17T20:09:44.534Z</time>
      </trkpt>
      <trkpt lat="43.41055" lon="17.87513">
        <ele>86.438856</ele>
        <time>2022-05-17T20:10:11.615Z</time>
      </trkpt>
      <trkpt lat="43.41115" lon="17.87528">
        <ele>87.1056</ele>
        <time>2022-05-17T20:10:35.504Z</time>
      </trkpt>
      <trkpt lat="43.41172" lon="17.87541">
        <ele>87.83985</ele>
        <time>2022-05-17T20:10:57.955Z</time>
      </trkpt>
      <trkpt lat="43.41233" lon="17.87558">
        <ele>88.647657</ele>
        <time>2022-05-17T20:11:21.871Z</time>
      </trkpt>
      <trkpt lat="43.41619" lon="17.87646">
        <ele>93.550554</ele>
        <time>2022-05-17T20:13:50.661Z</time>
      </trkpt>
      <trkpt lat="43.41654" lon="17.87645">
        <ele>93.994194</ele>
        <time>2022-05-17T20:14:04.310Z</time>
      </trkpt>
      <trkpt lat="43.41696" lon="17.87621">
        <ele>94.567556</ele>
        <time>2022-05-17T20:14:21.870Z</time>
      </trkpt>
      <trkpt lat="43.42069" lon="17.87299">
        <ele>99.827841</ele>
        <time>2022-05-17T20:17:10.471Z</time>
      </trkpt>
      <trkpt lat="43.42125" lon="17.87252">
        <ele>100.358481</ele>
        <time>2022-05-17T20:17:32.344Z</time>
      </trkpt>
      <trkpt lat="43.42648" lon="17.86797">
        <ele>101.210814</ele>
        <time>2022-05-17T20:20:47.459Z</time>
      </trkpt>
      <trkpt lat="43.42678" lon="17.86772">
        <ele>101.349182</ele>
        <time>2022-05-17T20:20:59.062Z</time>
      </trkpt>
      <trkpt lat="43.42978" lon="17.86515">
        <ele>103.89108</ele>
        <time>2022-05-17T20:23:06.090Z</time>
      </trkpt>
      <trkpt lat="43.43057" lon="17.86447">
        <ele>104.287612</ele>
        <time>2022-05-17T20:23:37.442Z</time>
      </trkpt>
      <trkpt lat="43.43174" lon="17.86345">
        <ele>104.25662</ele>
        <time>2022-05-17T20:24:19.440Z</time>
      </trkpt>
      <trkpt lat="43.4323" lon="17.86297">
        <ele>104.229838</ele>
        <time>2022-05-17T20:24:38.891Z</time>
      </trkpt>
      <trkpt lat="43.43588" lon="17.85992">
        <ele>104.315531</ele>
        <time>2022-05-17T20:26:50.066Z</time>
      </trkpt>
      <trkpt lat="43.43651" lon="17.85936">
        <ele>104.456118</ele>
        <time>2022-05-17T20:27:15.493Z</time>
      </trkpt>
      <trkpt lat="43.43705" lon="17.85894">
        <ele>104.584829</ele>
        <time>2022-05-17T20:27:36.394Z</time>
      </trkpt>
      <trkpt lat="43.43957" lon="17.8568">
        <ele>104.749065</ele>
        <time>2022-05-17T20:29:08.869Z</time>
      </trkpt>
      <trkpt lat="43.44123" lon="17.85535">
        <ele>104.54679</ele>
        <time>2022-05-17T20:30:07.958Z</time>
      </trkpt>
      <trkpt lat="43.44133" lon="17.85526">
        <ele>104.557112</ele>
        <time>2022-05-17T20:30:11.786Z</time>
      </trkpt>
      <trkpt lat="43.4429" lon="17.85386">
        <ele>104.354174</ele>
        <time>2022-05-17T20:31:11.850Z</time>
      </trkpt>
      <trkpt lat="43.44332" lon="17.8534">
        <ele>103.992354</ele>
        <time>2022-05-17T20:31:26.968Z</time>
      </trkpt>
      <trkpt lat="43.44337" lon="17.85333">
        <ele>103.939331</ele>
        <time>2022-05-17T20:31:29.050Z</time>
      </trkpt>
      <trkpt lat="43.44384" lon="17.85273">
        <ele>103.511924</ele>
        <time>2022-05-17T20:31:45.730Z</time>
      </trkpt>
      <trkpt lat="43.44401" lon="17.85244">
        <ele>103.277118</ele>
        <time>2022-05-17T20:31:52.989Z</time>
      </trkpt>
      <trkpt lat="43.44445" lon="17.85153">
        <ele>102.551037</ele>
        <time>2022-05-17T20:32:14.065Z</time>
      </trkpt>
      <trkpt lat="43.4446" lon="17.85114">
        <ele>102.25367</ele>
        <time>2022-05-17T20:32:22.770Z</time>
      </trkpt>
      <trkpt lat="43.44485" lon="17.8502">
        <ele>101.846965</ele>
        <time>2022-05-17T20:32:43.064Z</time>
      </trkpt>
      <trkpt lat="43.44524" lon="17.84831">
        <ele>102.059555</ele>
        <time>2022-05-17T20:33:29.828Z</time>
      </trkpt>
      <trkpt lat="43.44556" lon="17.84743">
        <ele>102.92646</ele>
        <time>2022-05-17T20:33:55.032Z</time>
      </trkpt>
      <trkpt lat="43.44608" lon="17.84633">
        <ele>104.297029</ele>
        <time>2022-05-17T20:34:32.072Z</time>
      </trkpt>
      <trkpt lat="43.44641" lon="17.84533">
        <ele>106.94497</ele>
        <time>2022-05-17T20:35:09.141Z</time>
      </trkpt>
      <trkpt lat="43.44653" lon="17.84429">
        <ele>110.1554</ele>
        <time>2022-05-17T20:35:51.251Z</time>
      </trkpt>
      <trkpt lat="43.4465" lon="17.84307">
        <ele>114.974368</ele>
        <time>2022-05-17T20:36:47.619Z</time>
      </trkpt>
      <trkpt lat="43.44653" lon="17.84222">
        <ele>119.364794</ele>
        <time>2022-05-17T20:37:31.778Z</time>
      </trkpt>
      <trkpt lat="43.44666" lon="17.84123">
        <ele>124.537306</ele>
        <time>2022-05-17T20:38:26.858Z</time>
      </trkpt>
      <trkpt lat="43.44713" lon="17.83999">
        <ele>132.167604</ele>
        <time>2022-05-17T20:39:42.452Z</time>
      </trkpt>
      <trkpt lat="43.44743" lon="17.83946">
        <ele>135.841267</ele>
        <time>2022-05-17T20:40:17.968Z</time>
      </trkpt>
      <trkpt lat="43.44779" lon="17.83895">
        <ele>139.340968</ele>
        <time>2022-05-17T20:40:55.119Z</time>
      </trkpt>
      <trkpt lat="43.44814" lon="17.83853">
        <ele>141.747006</ele>
        <time>2022-05-17T20:41:28.459Z</time>
      </trkpt>
      <trkpt lat="43.44881" lon="17.83788">
        <ele>145.963986</ele>
        <time>2022-05-17T20:42:21.430Z</time>
      </trkpt>
      <trkpt lat="43.44963" lon="17.83712">
        <ele>146.522352</ele>
        <time>2022-05-17T20:42:56.413Z</time>
      </trkpt>
      <trkpt lat="43.44985" lon="17.83693">
        <ele>146.023139</ele>
        <time>2022-05-17T20:43:02.768Z</time>
      </trkpt>
      <trkpt lat="43.45059" lon="17.83623">
        <ele>144.304392</ele>
        <time>2022-05-17T20:43:22.511Z</time>
      </trkpt>
      <trkpt lat="43.45104" lon="17.83567">
        <ele>142.053907</ele>
        <time>2022-05-17T20:43:34.887Z</time>
      </trkpt>
      <trkpt lat="43.45284" lon="17.83263">
        <ele>133.455193</ele>
        <time>2022-05-17T20:44:40.962Z</time>
      </trkpt>
      <trkpt lat="43.45321" lon="17.83217">
        <ele>133.158149</ele>
        <time>2022-05-17T20:44:55.634Z</time>
      </trkpt>
      <trkpt lat="43.45384" lon="17.83152">
        <ele>133.2814</ele>
        <time>2022-05-17T20:45:21.246Z</time>
      </trkpt>
      <trkpt lat="43.45532" lon="17.82954">
        <ele>134.931489</ele>
        <time>2022-05-17T20:46:36.919Z</time>
      </trkpt>
      <trkpt lat="43.45593" lon="17.82882">
        <ele>135.964688</ele>
        <time>2022-05-17T20:47:08.057Z</time>
      </trkpt>
      <trkpt lat="43.4566" lon="17.82812">
        <ele>137.186509</ele>
        <time>2022-05-17T20:47:41.212Z</time>
      </trkpt>
      <trkpt lat="43.45769" lon="17.82711">
        <ele>139.211402</ele>
        <time>2022-05-17T20:48:33.531Z</time>
      </trkpt>
      <trkpt lat="43.4587" lon="17.82627">
        <ele>141.192601</ele>
        <time>2022-05-17T20:49:20.573Z</time>
      </trkpt>
      <trkpt lat="43.45988" lon="17.82546">
        <ele>144.104407</ele>
        <time>2022-05-17T20:50:17.010Z</time>
      </trkpt>
      <trkpt lat="43.46355" lon="17.82319">
        <ele>154.747237</ele>
        <time>2022-05-17T20:53:27.827Z</time>
      </trkpt>
      <trkpt lat="43.46436" lon="17.82256">
        <ele>154.303555</ele>
        <time>2022-05-17T20:53:59.699Z</time>
      </trkpt>
      <trkpt lat="43.46612" lon="17.8206">
        <ele>150.602075</ele>
        <time>2022-05-17T20:54:53.243Z</time>
      </trkpt>
      <trkpt lat="43.46661" lon="17.82012">
        <ele>149.804421</ele>
        <time>2022-05-17T20:55:08.528Z</time>
      </trkpt>
      <trkpt lat="43.46741" lon="17.8195">
        <ele>149.497597</ele>
        <time>2022-05-17T20:55:35.270Z</time>
      </trkpt>
      <trkpt lat="43.46905" lon="17.81861">
        <ele>150.19201</ele>
        <time>2022-05-17T20:56:36.811Z</time>
      </trkpt>
      <trkpt lat="43.4716" lon="17.81762">
        <ele>152.356933</ele>
        <time>2022-05-17T20:58:15.005Z</time>
      </trkpt>
      <trkpt lat="43.47192" lon="17.81752">
        <ele>152.159647</ele>
        <time>2022-05-17T20:58:27.000Z</time>
      </trkpt>
      <trkpt lat="43.4772" lon="17.81579">
        <ele>148.126259</ele>
        <time>2022-05-17T21:00:55.080Z</time>
      </trkpt>
      <trkpt lat="43.4782" lon="17.8152">
        <ele>147.004186</ele>
        <time>2022-05-17T21:01:24.862Z</time>
      </trkpt>
      <trkpt lat="43.47853" lon="17.81493">
        <ele>146.314493</ele>
        <time>2022-05-17T21:01:34.959Z</time>
      </trkpt>
      <trkpt lat="43.48083" lon="17.81262">
        <ele>139.110866</ele>
        <time>2022-05-17T21:02:42.832Z</time>
      </trkpt>
      <trkpt lat="43.48089" lon="17.81244">
        <ele>138.71543</ele>
        <time>2022-05-17T21:02:45.877Z</time>
      </trkpt>
      <trkpt lat="43.481" lon="17.81233">
        <ele>138.326044</ele>
        <time>2022-05-17T21:02:48.915Z</time>
      </trkpt>
      <trkpt lat="43.48112" lon="17.81221">
        <ele>137.887262</ele>
        <time>2022-05-17T21:02:52.217Z</time>
      </trkpt>
      <trkpt lat="43.48123" lon="17.81223">
        <ele>137.534778</ele>
        <time>2022-05-17T21:02:54.760Z</time>
      </trkpt>
      <trkpt lat="43.48214" lon="17.81123">
        <ele>133.298734</ele>
        <time>2022-05-17T21:03:20.018Z</time>
      </trkpt>
      <trkpt lat="43.48221" lon="17.81114">
        <ele>132.933149</ele>
        <time>2022-05-17T21:03:22.197Z</time>
      </trkpt>
      <trkpt lat="43.48281" lon="17.8104">
        <ele>130.586584</ele>
        <time>2022-05-17T21:03:40.767Z</time>
      </trkpt>
      <trkpt lat="43.48321" lon="17.80978">
        <ele>129.525031</ele>
        <time>2022-05-17T21:03:55.453Z</time>
      </trkpt>
      <trkpt lat="43.48335" lon="17.80952">
        <ele>129.119579</ele>
        <time>2022-05-17T21:04:01.598Z</time>
      </trkpt>
      <trkpt lat="43.48375" lon="17.80851">
        <ele>128.010354</ele>
        <time>2022-05-17T21:04:23.491Z</time>
      </trkpt>
      <trkpt lat="43.48431" lon="17.80666">
        <ele>128.374454</ele>
        <time>2022-05-17T21:05:13.289Z</time>
      </trkpt>
      <trkpt lat="43.48515" lon="17.80357">
        <ele>130.224651</ele>
        <time>2022-05-17T21:06:36.303Z</time>
      </trkpt>
      <trkpt lat="43.48535" lon="17.80251">
        <ele>131.450946</ele>
        <time>2022-05-17T21:07:06.090Z</time>
      </trkpt>
      <trkpt lat="43.48562" lon="17.80153">
        <ele>132.98564</ele>
        <time>2022-05-17T21:07:39.502Z</time>
      </trkpt>
      <trkpt lat="43.4858" lon="17.80102">
        <ele>134.418169</ele>
        <time>2022-05-17T21:08:02.415Z</time>
      </trkpt>
      <trkpt lat="43.4861" lon="17.80033">
        <ele>136.429305</ele>
        <time>2022-05-17T21:08:37.362Z</time>
      </trkpt>
      <trkpt lat="43.48664" lon="17.79934">
        <ele>138.207192</ele>
        <time>2022-05-17T21:09:19.408Z</time>
      </trkpt>
      <trkpt lat="43.48705" lon="17.79864">
        <ele>137.326924</ele>
        <time>2022-05-17T21:09:40.454Z</time>
      </trkpt>
      <trkpt lat="43.48739" lon="17.79788">
        <ele>136.443695</ele>
        <time>2022-05-17T21:09:55.190Z</time>
      </trkpt>
      <trkpt lat="43.48759" lon="17.79731">
        <ele>135.260011</ele>
        <time>2022-05-17T21:10:04.400Z</time>
      </trkpt>
      <trkpt lat="43.48797" lon="17.7955">
        <ele>130.164026</ele>
        <time>2022-05-17T21:10:34.813Z</time>
      </trkpt>
      <trkpt lat="43.48801" lon="17.79428">
        <ele>129.467776</ele>
        <time>2022-05-17T21:10:56.882Z</time>
      </trkpt>
      <trkpt lat="43.48798" lon="17.79366">
        <ele>129.46879</ele>
        <time>2022-05-17T21:11:12.061Z</time>
      </trkpt>
      <trkpt lat="43.48759" lon="17.79029">
        <ele>133.200724</ele>
        <time>2022-05-17T21:12:57.562Z</time>
      </trkpt>
      <trkpt lat="43.48751" lon="17.78885">
        <ele>135.077583</ele>
        <time>2022-05-17T21:13:42.475Z</time>
      </trkpt>
      <trkpt lat="43.48761" lon="17.78801">
        <ele>136.169411</ele>
        <time>2022-05-17T21:14:07.372Z</time>
      </trkpt>
      <trkpt lat="43.48798" lon="17.78657">
        <ele>137.136942</ele>
        <time>2022-05-17T21:14:47.674Z</time>
      </trkpt>
      <trkpt lat="43.48827" lon="17.78582">
        <ele>137.610944</ele>
        <time>2022-05-17T21:15:08.596Z</time>
      </trkpt>
      <trkpt lat="43.48865" lon="17.7853">
        <ele>137.915375</ele>
        <time>2022-05-17T21:15:26.353Z</time>
      </trkpt>
      <trkpt lat="43.48889" lon="17.78506">
        <ele>138.051592</ele>
        <time>2022-05-17T21:15:36.060Z</time>
      </trkpt>
      <trkpt lat="43.48997" lon="17.78442">
        <ele>138.591003</ele>
        <time>2022-05-17T21:16:15.979Z</time>
      </trkpt>
      <trkpt lat="43.49063" lon="17.78379">
        <ele>138.80965</ele>
        <time>2022-05-17T21:16:43.395Z</time>
      </trkpt>
      <trkpt lat="43.49104" lon="17.78318">
        <ele>138.974468</ele>
        <time>2022-05-17T21:17:02.880Z</time>
      </trkpt>
      <trkpt lat="43.49177" lon="17.78164">
        <ele>138.831793</ele>
        <time>2022-05-17T21:17:43.132Z</time>
      </trkpt>
      <trkpt lat="43.49209" lon="17.78113">
        <ele>138.708977</ele>
        <time>2022-05-17T21:17:57.498Z</time>
      </trkpt>
      <trkpt lat="43.49421" lon="17.77885">
        <ele>138.322849</ele>
        <time>2022-05-17T21:19:17.631Z</time>
      </trkpt>
      <trkpt lat="43.49506" lon="17.7781">
        <ele>138.607664</ele>
        <time>2022-05-17T21:19:50.834Z</time>
      </trkpt>
      <trkpt lat="43.49792" lon="17.77598">
        <ele>141.557408</ele>
        <time>2022-05-17T21:21:48.346Z</time>
      </trkpt>
      <trkpt lat="43.4983" lon="17.77565">
        <ele>142.059439</ele>
        <time>2022-05-17T21:22:05.022Z</time>
      </trkpt>
      <trkpt lat="43.49918" lon="17.77457">
        <ele>144.336566</ele>
        <time>2022-05-17T21:22:54.914Z</time>
      </trkpt>
      <trkpt lat="43.49981" lon="17.77397">
        <ele>145.89338</ele>
        <time>2022-05-17T21:23:29.258Z</time>
      </trkpt>
      <trkpt lat="43.5006" lon="17.77357">
        <ele>146.778603</ele>
        <time>2022-05-17T21:24:04.757Z</time>
      </trkpt>
      <trkpt lat="43.50143" lon="17.77302">
        <ele>147.755202</ele>
        <time>2022-05-17T21:24:36.181Z</time>
      </trkpt>
      <trkpt lat="43.5017" lon="17.77279">
        <ele>147.459326</ele>
        <time>2022-05-17T21:24:44.804Z</time>
      </trkpt>
      <trkpt lat="43.5028" lon="17.77151">
        <ele>145.783542</ele>
        <time>2022-05-17T21:25:21.559Z</time>
      </trkpt>
      <trkpt lat="43.50377" lon="17.77066">
        <ele>146.338251</ele>
        <time>2022-05-17T21:25:53.597Z</time>
      </trkpt>
      <trkpt lat="43.5041" lon="17.7703">
        <ele>146.587198</ele>
        <time>2022-05-17T21:26:12.420Z</time>
      </trkpt>
      <trkpt lat="43.50445" lon="17.76977">
        <ele>146.829789</ele>
        <time>2022-05-17T21:26:41.641Z</time>
      </trkpt>
      <trkpt lat="43.50546" lon="17.76785">
        <ele>146.475531</ele>
        <time>2022-05-17T21:27:34.626Z</time>
      </trkpt>
      <trkpt lat="43.50565" lon="17.76744">
        <ele>144.372488</ele>
        <time>2022-05-17T21:27:42.576Z</time>
      </trkpt>
      <trkpt lat="43.50585" lon="17.76685">
        <ele>141.623293</ele>
        <time>2022-05-17T21:27:52.023Z</time>
      </trkpt>
      <trkpt lat="43.50599" lon="17.76608">
        <ele>138.214956</ele>
        <time>2022-05-17T21:28:03.364Z</time>
      </trkpt>
      <trkpt lat="43.50601" lon="17.76553">
        <ele>136.141877</ele>
        <time>2022-05-17T21:28:10.833Z</time>
      </trkpt>
      <trkpt lat="43.50593" lon="17.76415">
        <ele>132.037768</ele>
        <time>2022-05-17T21:28:32.836Z</time>
      </trkpt>
      <trkpt lat="43.50561" lon="17.76082">
        <ele>127.106677</ele>
        <time>2022-05-17T21:29:35.485Z</time>
      </trkpt>
      <trkpt lat="43.50559" lon="17.76011">
        <ele>127.359602</ele>
        <time>2022-05-17T21:29:52.277Z</time>
      </trkpt>
      <trkpt lat="43.50562" lon="17.75966">
        <ele>127.538802</ele>
        <time>2022-05-17T21:30:03.488Z</time>
      </trkpt>
      <trkpt lat="43.50575" lon="17.75903">
        <ele>127.801497</ele>
        <time>2022-05-17T21:30:20.451Z</time>
      </trkpt>
      <trkpt lat="43.50609" lon="17.75823">
        <ele>128.319181</ele>
        <time>2022-05-17T21:30:45.791Z</time>
      </trkpt>
      <trkpt lat="43.50667" lon="17.75705">
        <ele>129.802186</ele>
        <time>2022-05-17T21:31:27.458Z</time>
      </trkpt>
      <trkpt lat="43.50742" lon="17.75503">
        <ele>131.748372</ele>
        <time>2022-05-17T21:32:30.479Z</time>
      </trkpt>
      <trkpt lat="43.50827" lon="17.75369">
        <ele>132.289551</ele>
        <time>2022-05-17T21:33:16.483Z</time>
      </trkpt>
      <trkpt lat="43.50869" lon="17.7529">
        <ele>131.987477</ele>
        <time>2022-05-17T21:33:36.768Z</time>
      </trkpt>
      <trkpt lat="43.50941" lon="17.75125">
        <ele>131.03359</ele>
        <time>2022-05-17T21:34:12.712Z</time>
      </trkpt>
      <trkpt lat="43.50983" lon="17.74973">
        <ele>130.573448</ele>
        <time>2022-05-17T21:34:46.319Z</time>
      </trkpt>
      <trkpt lat="43.51005" lon="17.74906">
        <ele>131.309907</ele>
        <time>2022-05-17T21:35:06.820Z</time>
      </trkpt>
      <trkpt lat="43.51027" lon="17.74863">
        <ele>131.832433</ele>
        <time>2022-05-17T21:35:22.435Z</time>
      </trkpt>
      <trkpt lat="43.51082" lon="17.74795">
        <ele>132.83958</ele>
        <time>2022-05-17T21:35:55.054Z</time>
      </trkpt>
      <trkpt lat="43.51118" lon="17.7477">
        <ele>133.345466</ele>
        <time>2022-05-17T21:36:12.880Z</time>
      </trkpt>
      <trkpt lat="43.51235" lon="17.74715">
        <ele>134.890055</ele>
        <time>2022-05-17T21:36:58.468Z</time>
      </trkpt>
      <trkpt lat="43.51318" lon="17.74652">
        <ele>135.471419</ele>
        <time>2022-05-17T21:37:28.672Z</time>
      </trkpt>
      <trkpt lat="43.5138" lon="17.74591">
        <ele>135.907572</ele>
        <time>2022-05-17T21:37:54.303Z</time>
      </trkpt>
      <trkpt lat="43.5166" lon="17.74287">
        <ele>140.898605</ele>
        <time>2022-05-17T21:40:15.102Z</time>
      </trkpt>
      <trkpt lat="43.51717" lon="17.74249">
        <ele>141.647585</ele>
        <time>2022-05-17T21:40:39.815Z</time>
      </trkpt>
      <trkpt lat="43.5182" lon="17.74215">
        <ele>142.791448</ele>
        <time>2022-05-17T21:41:18.841Z</time>
      </trkpt>
      <trkpt lat="43.51868" lon="17.74193">
        <ele>143.501408</ele>
        <time>2022-05-17T21:41:36.206Z</time>
      </trkpt>
      <trkpt lat="43.51898" lon="17.74168">
        <ele>144.137825</ele>
        <time>2022-05-17T21:41:48.765Z</time>
      </trkpt>
      <trkpt lat="43.51977" lon="17.74085">
        <ele>145.955602</ele>
        <time>2022-05-17T21:42:30.912Z</time>
      </trkpt>
      <trkpt lat="43.52011" lon="17.7406">
        <ele>146.686289</ele>
        <time>2022-05-17T21:42:49.712Z</time>
      </trkpt>
      <trkpt lat="43.52048" lon="17.74043">
        <ele>147.485432</ele>
        <time>2022-05-17T21:43:08.844Z</time>
      </trkpt>
      <trkpt lat="43.52107" lon="17.74032">
        <ele>148.700621</ele>
        <time>2022-05-17T21:43:36.333Z</time>
      </trkpt>
      <trkpt lat="43.52162" lon="17.74024">
        <ele>149.82403</ele>
        <time>2022-05-17T21:44:00.149Z</time>
      </trkpt>
      <trkpt lat="43.5237" lon="17.7399">
        <ele>147.433669</ele>
        <time>2022-05-17T21:44:55.648Z</time>
      </trkpt>
      <trkpt lat="43.52526" lon="17.73916">
        <ele>142.048531</ele>
        <time>2022-05-17T21:45:31.856Z</time>
      </trkpt>
      <trkpt lat="43.52617" lon="17.73886">
        <ele>140.952976</ele>
        <time>2022-05-17T21:45:53.719Z</time>
      </trkpt>
      <trkpt lat="43.52641" lon="17.73877">
        <ele>140.65988</ele>
        <time>2022-05-17T21:46:00.095Z</time>
      </trkpt>
      <trkpt lat="43.52856" lon="17.73792">
        <ele>142.928619</ele>
        <time>2022-05-17T21:47:32.694Z</time>
      </trkpt>
      <trkpt lat="43.52906" lon="17.73766">
        <ele>143.560623</ele>
        <time>2022-05-17T21:47:55.867Z</time>
      </trkpt>
      <trkpt lat="43.53002" lon="17.73707">
        <ele>144.544221</ele>
        <time>2022-05-17T21:48:33.454Z</time>
      </trkpt>
      <trkpt lat="43.53171" lon="17.73574">
        <ele>144.949244</ele>
        <time>2022-05-17T21:49:33.208Z</time>
      </trkpt>
      <trkpt lat="43.53218" lon="17.73544">
        <ele>145.204019</ele>
        <time>2022-05-17T21:49:50.365Z</time>
      </trkpt>
      <trkpt lat="43.53403" lon="17.73474">
        <ele>146.810737</ele>
        <time>2022-05-17T21:51:00.171Z</time>
      </trkpt>
      <trkpt lat="43.5352" lon="17.73417">
        <ele>148.018091</ele>
        <time>2022-05-17T21:51:47.909Z</time>
      </trkpt>
      <trkpt lat="43.53603" lon="17.73379">
        <ele>147.814458</ele>
        <time>2022-05-17T21:52:14.396Z</time>
      </trkpt>
      <trkpt lat="43.53668" lon="17.73348">
        <ele>147.495863</ele>
        <time>2022-05-17T21:52:33.558Z</time>
      </trkpt>
      <trkpt lat="43.5373" lon="17.7332">
        <ele>147.230903</ele>
        <time>2022-05-17T21:52:50.758Z</time>
      </trkpt>
      <trkpt lat="43.53919" lon="17.73255">
        <ele>147.300454</ele>
        <time>2022-05-17T21:53:49.303Z</time>
      </trkpt>
      <trkpt lat="43.54023" lon="17.73223">
        <ele>148.758698</ele>
        <time>2022-05-17T21:54:32.737Z</time>
      </trkpt>
      <trkpt lat="43.54161" lon="17.73194">
        <ele>151.49254</ele>
        <time>2022-05-17T21:55:34.584Z</time>
      </trkpt>
      <trkpt lat="43.54332" lon="17.73117">
        <ele>154.191738</ele>
        <time>2022-05-17T21:56:49.628Z</time>
      </trkpt>
      <trkpt lat="43.54462" lon="17.73076">
        <ele>154.772711</ele>
        <time>2022-05-17T21:57:30.796Z</time>
      </trkpt>
      <trkpt lat="43.54514" lon="17.73036">
        <ele>154.589823</ele>
        <time>2022-05-17T21:57:47.521Z</time>
      </trkpt>
      <trkpt lat="43.54519" lon="17.73031">
        <ele>154.568451</ele>
        <time>2022-05-17T21:57:49.945Z</time>
      </trkpt>
      <trkpt lat="43.54563" lon="17.72908">
        <ele>154.183353</ele>
        <time>2022-05-17T21:58:28.650Z</time>
      </trkpt>
      <trkpt lat="43.54593" lon="17.72865">
        <ele>153.983506</ele>
        <time>2022-05-17T21:58:44.010Z</time>
      </trkpt>
      <trkpt lat="43.54606" lon="17.7286">
        <ele>153.918014</ele>
        <time>2022-05-17T21:58:51.228Z</time>
      </trkpt>
      <trkpt lat="43.54609" lon="17.7285">
        <ele>153.88087</ele>
        <time>2022-05-17T21:58:53.222Z</time>
      </trkpt>
      <trkpt lat="43.54636" lon="17.7279">
        <ele>153.640648</ele>
        <time>2022-05-17T21:59:07.551Z</time>
      </trkpt>
      <trkpt lat="43.54661" lon="17.72751">
        <ele>153.417571</ele>
        <time>2022-05-17T21:59:18.915Z</time>
      </trkpt>
      <trkpt lat="43.54719" lon="17.72683">
        <ele>152.896476</ele>
        <time>2022-05-17T21:59:40.724Z</time>
      </trkpt>
      <trkpt lat="43.54798" lon="17.72609">
        <ele>152.248001</ele>
        <time>2022-05-17T22:00:06.518Z</time>
      </trkpt>
      <trkpt lat="43.5483" lon="17.72566">
        <ele>151.973275</ele>
        <time>2022-05-17T22:00:19.300Z</time>
      </trkpt>
      <trkpt lat="43.54898" lon="17.72449">
        <ele>151.304897</ele>
        <time>2022-05-17T22:00:49.897Z</time>
      </trkpt>
      <trkpt lat="43.54935" lon="17.72404">
        <ele>151.475882</ele>
        <time>2022-05-17T22:01:04.238Z</time>
      </trkpt>
      <trkpt lat="43.55049" lon="17.72319">
        <ele>152.356254</ele>
        <time>2022-05-17T22:01:48.524Z</time>
      </trkpt>
      <trkpt lat="43.55154" lon="17.72228">
        <ele>155.761827</ele>
        <time>2022-05-17T22:02:47.005Z</time>
      </trkpt>
      <trkpt lat="43.5522" lon="17.72202">
        <ele>157.831419</ele>
        <time>2022-05-17T22:03:22.793Z</time>
      </trkpt>
      <trkpt lat="43.55308" lon="17.72183">
        <ele>160.673549</ele>
        <time>2022-05-17T22:04:09.579Z</time>
      </trkpt>
      <trkpt lat="43.55344" lon="17.72167">
        <ele>161.893699</ele>
        <time>2022-05-17T22:04:29.149Z</time>
      </trkpt>
      <trkpt lat="43.55519" lon="17.72069">
        <ele>165.491008</ele>
        <time>2022-05-17T22:05:49.597Z</time>
      </trkpt>
      <trkpt lat="43.5566" lon="17.72004">
        <ele>165.646074</ele>
        <time>2022-05-17T22:06:33.020Z</time>
      </trkpt>
      <trkpt lat="43.55759" lon="17.71936">
        <ele>165.463888</ele>
        <time>2022-05-17T22:07:03.288Z</time>
      </trkpt>
      <trkpt lat="43.5582" lon="17.71905">
        <ele>165.793511</ele>
        <time>2022-05-17T22:07:24.038Z</time>
      </trkpt>
      <trkpt lat="43.55867" lon="17.71893">
        <ele>166.034695</ele>
        <time>2022-05-17T22:07:41.337Z</time>
      </trkpt>
      <trkpt lat="43.55905" lon="17.71893">
        <ele>166.274538</ele>
        <time>2022-05-17T22:07:56.935Z</time>
      </trkpt>
      <trkpt lat="43.55949" lon="17.71905">
        <ele>166.961367</ele>
        <time>2022-05-17T22:08:17.104Z</time>
      </trkpt>
      <trkpt lat="43.56048" lon="17.71958">
        <ele>168.575088</ele>
        <time>2022-05-17T22:09:01.901Z</time>
      </trkpt>
      <trkpt lat="43.5619" lon="17.72">
        <ele>168.260066</ele>
        <time>2022-05-17T22:09:44.628Z</time>
      </trkpt>
      <trkpt lat="43.56316" lon="17.7205">
        <ele>167.626538</ele>
        <time>2022-05-17T22:10:18.393Z</time>
      </trkpt>
      <trkpt lat="43.56499" lon="17.72153">
        <ele>168.208166</ele>
        <time>2022-05-17T22:11:22.962Z</time>
      </trkpt>
      <trkpt lat="43.56564" lon="17.72163">
        <ele>168.95574</ele>
        <time>2022-05-17T22:11:52.750Z</time>
      </trkpt>
      <trkpt lat="43.56678" lon="17.72165">
        <ele>168.614243</ele>
        <time>2022-05-17T22:12:35.895Z</time>
      </trkpt>
      <trkpt lat="43.56785" lon="17.72212">
        <ele>166.938908</ele>
        <time>2022-05-17T22:13:02.788Z</time>
      </trkpt>
      <trkpt lat="43.56814" lon="17.72218">
        <ele>165.536222</ele>
        <time>2022-05-17T22:13:09.062Z</time>
      </trkpt>
      <trkpt lat="43.56859" lon="17.72215">
        <ele>163.397853</ele>
        <time>2022-05-17T22:13:18.371Z</time>
      </trkpt>
      <trkpt lat="43.56895" lon="17.72204">
        <ele>161.62655</ele>
        <time>2022-05-17T22:13:26.124Z</time>
      </trkpt>
      <trkpt lat="43.56988" lon="17.72155">
        <ele>157.136095</ele>
        <time>2022-05-17T22:13:47.084Z</time>
      </trkpt>
      <trkpt lat="43.57028" lon="17.7214">
        <ele>155.367037</ele>
        <time>2022-05-17T22:13:56.005Z</time>
      </trkpt>
      <trkpt lat="43.57076" lon="17.72135">
        <ele>153.292184</ele>
        <time>2022-05-17T22:14:06.649Z</time>
      </trkpt>
      <trkpt lat="43.57192" lon="17.72141">
        <ele>149.589936</ele>
        <time>2022-05-17T22:14:32.969Z</time>
      </trkpt>
      <trkpt lat="43.57235" lon="17.72131">
        <ele>148.430083</ele>
        <time>2022-05-17T22:14:43.085Z</time>
      </trkpt>
      <trkpt lat="43.57285" lon="17.72104">
        <ele>147.0128</ele>
        <time>2022-05-17T22:14:55.874Z</time>
      </trkpt>
      <trkpt lat="43.57443" lon="17.71967">
        <ele>146.280555</ele>
        <time>2022-05-17T22:15:50.834Z</time>
      </trkpt>
      <trkpt lat="43.57506" lon="17.71929">
        <ele>146.938945</ele>
        <time>2022-05-17T22:16:17.255Z</time>
      </trkpt>
      <trkpt lat="43.57562" lon="17.71912">
        <ele>147.482943</ele>
        <time>2022-05-17T22:16:40.628Z</time>
      </trkpt>
      <trkpt lat="43.5761" lon="17.71906">
        <ele>147.936827</ele>
        <time>2022-05-17T22:16:56.646Z</time>
      </trkpt>
      <trkpt lat="43.57651" lon="17.71906">
        <ele>149.14686</ele>
        <time>2022-05-17T22:17:10.281Z</time>
      </trkpt>
      <trkpt lat="43.57691" lon="17.71916">
        <ele>150.425283</ele>
        <time>2022-05-17T22:17:25.602Z</time>
      </trkpt>
      <trkpt lat="43.57758" lon="17.71926">
        <ele>152.517642</ele>
        <time>2022-05-17T22:17:57.239Z</time>
      </trkpt>
      <trkpt lat="43.57761" lon="17.71926">
        <ele>152.612059</ele>
        <time>2022-05-17T22:17:59.249Z</time>
      </trkpt>
      <trkpt lat="43.57864" lon="17.71945">
        <ele>160.108365</ele>
        <time>2022-05-17T22:19:17.386Z</time>
      </trkpt>
      <trkpt lat="43.57934" lon="17.71983">
        <ele>166.877534</ele>
        <time>2022-05-17T22:20:29.199Z</time>
      </trkpt>
      <trkpt lat="43.58062" lon="17.72101">
        <ele>175.373712</ele>
        <time>2022-05-17T22:22:27.296Z</time>
      </trkpt>
      <trkpt lat="43.58106" lon="17.72125">
        <ele>177.600179</ele>
        <time>2022-05-17T22:22:39.790Z</time>
      </trkpt>
      <trkpt lat="43.58158" lon="17.72138">
        <ele>176.118802</ele>
        <time>2022-05-17T22:22:51.218Z</time>
      </trkpt>
      <trkpt lat="43.58186" lon="17.72137">
        <ele>174.80801</ele>
        <time>2022-05-17T22:22:57.209Z</time>
      </trkpt>
      <trkpt lat="43.58211" lon="17.72131">
        <ele>173.64622</ele>
        <time>2022-05-17T22:23:02.458Z</time>
      </trkpt>
      <trkpt lat="43.5826" lon="17.72103">
        <ele>171.228396</ele>
        <time>2022-05-17T22:23:13.089Z</time>
      </trkpt>
      <trkpt lat="43.58369" lon="17.72013">
        <ele>169.605416</ele>
        <time>2022-05-17T22:23:41.719Z</time>
      </trkpt>
      <trkpt lat="43.58418" lon="17.71988">
        <ele>169.479974</ele>
        <time>2022-05-17T22:24:06.406Z</time>
      </trkpt>
      <trkpt lat="43.5851" lon="17.7197">
        <ele>173.445764</ele>
        <time>2022-05-17T22:24:59.726Z</time>
      </trkpt>
      <trkpt lat="43.58559" lon="17.71972">
        <ele>176.649735</ele>
        <time>2022-05-17T22:25:31.077Z</time>
      </trkpt>
      <trkpt lat="43.58746" lon="17.72004">
        <ele>192.76768</ele>
        <time>2022-05-17T22:28:03.845Z</time>
      </trkpt>
      <trkpt lat="43.58783" lon="17.7201">
        <ele>196.413865</ele>
        <time>2022-05-17T22:28:42.627Z</time>
      </trkpt>
      <trkpt lat="43.58828" lon="17.72026">
        <ele>200.011273</ele>
        <time>2022-05-17T22:29:26.880Z</time>
      </trkpt>
      <trkpt lat="43.58879" lon="17.72052">
        <ele>203.13943</ele>
        <time>2022-05-17T22:30:08.767Z</time>
      </trkpt>
      <trkpt lat="43.58946" lon="17.72076">
        <ele>207.17323</ele>
        <time>2022-05-17T22:30:50.586Z</time>
      </trkpt>
      <trkpt lat="43.58985" lon="17.7209">
        <ele>208.941403</ele>
        <time>2022-05-17T22:31:05.160Z</time>
      </trkpt>
      <trkpt lat="43.59049" lon="17.72103">
        <ele>207.811045</ele>
        <time>2022-05-17T22:31:20.586Z</time>
      </trkpt>
      <trkpt lat="43.59118" lon="17.7214">
        <ele>206.544546</ele>
        <time>2022-05-17T22:31:36.509Z</time>
      </trkpt>
      <trkpt lat="43.59152" lon="17.72168">
        <ele>206.053967</ele>
        <time>2022-05-17T22:31:47.435Z</time>
      </trkpt>
      <trkpt lat="43.59362" lon="17.72412">
        <ele>209.583433</ele>
        <time>2022-05-17T22:33:48.234Z</time>
      </trkpt>
      <trkpt lat="43.59469" lon="17.7255">
        <ele>207.592355</ele>
        <time>2022-05-17T22:34:25.807Z</time>
      </trkpt>
      <trkpt lat="43.59585" lon="17.72713">
        <ele>202.222807</ele>
        <time>2022-05-17T22:35:00.669Z</time>
      </trkpt>
      <trkpt lat="43.59625" lon="17.728">
        <ele>200.416795</ele>
        <time>2022-05-17T22:35:17.371Z</time>
      </trkpt>
      <trkpt lat="43.59678" lon="17.73006">
        <ele>203.428483</ele>
        <time>2022-05-17T22:36:22.008Z</time>
      </trkpt>
      <trkpt lat="43.598" lon="17.73312">
        <ele>218.381587</ele>
        <time>2022-05-17T22:39:28.237Z</time>
      </trkpt>
      <trkpt lat="43.59839" lon="17.73386">
        <ele>216.590457</ele>
        <time>2022-05-17T22:39:58.748Z</time>
      </trkpt>
      <trkpt lat="43.59847" lon="17.73416">
        <ele>215.930704</ele>
        <time>2022-05-17T22:40:07.382Z</time>
      </trkpt>
      <trkpt lat="43.59872" lon="17.73445">
        <ele>214.996411</ele>
        <time>2022-05-17T22:40:14.850Z</time>
      </trkpt>
      <trkpt lat="43.59931" lon="17.73472">
        <ele>212.786396</ele>
        <time>2022-05-17T22:40:27.381Z</time>
      </trkpt>
      <trkpt lat="43.60008" lon="17.73563">
        <ele>198.152026</ele>
        <time>2022-05-17T22:40:45.685Z</time>
      </trkpt>
      <trkpt lat="43.60036" lon="17.73574">
        <ele>193.917779</ele>
        <time>2022-05-17T22:40:50.928Z</time>
      </trkpt>
      <trkpt lat="43.60165" lon="17.73539">
        <ele>177.193533</ele>
        <time>2022-05-17T22:41:14.847Z</time>
      </trkpt>
      <trkpt lat="43.60191" lon="17.73554">
        <ele>173.941465</ele>
        <time>2022-05-17T22:41:20.002Z</time>
      </trkpt>
      <trkpt lat="43.60219" lon="17.73589">
        <ele>169.543689</ele>
        <time>2022-05-17T22:41:27.198Z</time>
      </trkpt>
      <trkpt lat="43.60255" lon="17.73658">
        <ele>165.781439</ele>
        <time>2022-05-17T22:41:40.219Z</time>
      </trkpt>
      <trkpt lat="43.60378" lon="17.73928">
        <ele>164.975194</ele>
        <time>2022-05-17T22:42:56.615Z</time>
      </trkpt>
      <trkpt lat="43.60425" lon="17.74005">
        <ele>165.81912</ele>
        <time>2022-05-17T22:43:23.858Z</time>
      </trkpt>
      <trkpt lat="43.60478" lon="17.74064">
        <ele>168.219197</ele>
        <time>2022-05-17T22:43:55.796Z</time>
      </trkpt>
      <trkpt lat="43.60534" lon="17.74114">
        <ele>171.373613</ele>
        <time>2022-05-17T22:44:35.223Z</time>
      </trkpt>
      <trkpt lat="43.60587" lon="17.74156">
        <ele>174.267042</ele>
        <time>2022-05-17T22:45:15.642Z</time>
      </trkpt>
      <trkpt lat="43.60642" lon="17.74182">
        <ele>176.954338</ele>
        <time>2022-05-17T22:45:53.865Z</time>
      </trkpt>
      <trkpt lat="43.60693" lon="17.74189">
        <ele>179.2807</ele>
        <time>2022-05-17T22:46:25.295Z</time>
      </trkpt>
      <trkpt lat="43.60725" lon="17.74184">
        <ele>180.767225</ele>
        <time>2022-05-17T22:46:43.817Z</time>
      </trkpt>
      <trkpt lat="43.60842" lon="17.7415">
        <ele>183.62585</ele>
        <time>2022-05-17T22:47:35.441Z</time>
      </trkpt>
      <trkpt lat="43.60915" lon="17.74102">
        <ele>184.490852</ele>
        <time>2022-05-17T22:48:00.722Z</time>
      </trkpt>
      <trkpt lat="43.60992" lon="17.74041">
        <ele>184.842882</ele>
        <time>2022-05-17T22:48:30.112Z</time>
      </trkpt>
      <trkpt lat="43.61196" lon="17.73919">
        <ele>183.585112</ele>
        <time>2022-05-17T22:49:39.980Z</time>
      </trkpt>
      <trkpt lat="43.61232" lon="17.73914">
        <ele>183.109307</ele>
        <time>2022-05-17T22:49:48.657Z</time>
      </trkpt>
      <trkpt lat="43.61308" lon="17.73915">
        <ele>180.808869</ele>
        <time>2022-05-17T22:50:05.499Z</time>
      </trkpt>
      <trkpt lat="43.61449" lon="17.73901">
        <ele>174.090934</ele>
        <time>2022-05-17T22:50:35.166Z</time>
      </trkpt>
      <trkpt lat="43.61514" lon="17.73916">
        <ele>171.764675</ele>
        <time>2022-05-17T22:50:49.151Z</time>
      </trkpt>
      <trkpt lat="43.61586" lon="17.73955">
        <ele>169.020088</ele>
        <time>2022-05-17T22:51:06.789Z</time>
      </trkpt>
      <trkpt lat="43.61624" lon="17.73983">
        <ele>167.711302</ele>
        <time>2022-05-17T22:51:17.360Z</time>
      </trkpt>
      <trkpt lat="43.61627" lon="17.73986">
        <ele>167.693309</ele>
        <time>2022-05-17T22:51:18.332Z</time>
      </trkpt>
      <trkpt lat="43.61645" lon="17.74002">
        <ele>167.596763</ele>
        <time>2022-05-17T22:51:23.754Z</time>
      </trkpt>
      <trkpt lat="43.61808" lon="17.74199">
        <ele>167.379969</ele>
        <time>2022-05-17T22:52:31.349Z</time>
      </trkpt>
      <trkpt lat="43.61952" lon="17.74422">
        <ele>168.977585</ele>
        <time>2022-05-17T22:53:51.874Z</time>
      </trkpt>
      <trkpt lat="43.62055" lon="17.74547">
        <ele>168.711396</ele>
        <time>2022-05-17T22:54:37.783Z</time>
      </trkpt>
      <trkpt lat="43.62095" lon="17.74616">
        <ele>167.806036</ele>
        <time>2022-05-17T22:54:54.304Z</time>
      </trkpt>
      <trkpt lat="43.62163" lon="17.74759">
        <ele>165.179703</ele>
        <time>2022-05-17T22:55:22.268Z</time>
      </trkpt>
      <trkpt lat="43.62191" lon="17.7481">
        <ele>163.933657</ele>
        <time>2022-05-17T22:55:32.710Z</time>
      </trkpt>
      <trkpt lat="43.62316" lon="17.74981">
        <ele>161.656142</ele>
        <time>2022-05-17T22:56:17.724Z</time>
      </trkpt>
      <trkpt lat="43.62344" lon="17.75013">
        <ele>161.475937</ele>
        <time>2022-05-17T22:56:31.631Z</time>
      </trkpt>
      <trkpt lat="43.62382" lon="17.75042">
        <ele>161.462355</ele>
        <time>2022-05-17T22:56:48.160Z</time>
      </trkpt>
      <trkpt lat="43.62423" lon="17.75056">
        <ele>161.946147</ele>
        <time>2022-05-17T22:57:04.229Z</time>
      </trkpt>
      <trkpt lat="43.62548" lon="17.75052">
        <ele>163.405326</ele>
        <time>2022-05-17T22:57:52.000Z</time>
      </trkpt>
      <trkpt lat="43.62607" lon="17.75075">
        <ele>163.907221</ele>
        <time>2022-05-17T22:58:13.892Z</time>
      </trkpt>
      <trkpt lat="43.62666" lon="17.75127">
        <ele>164.476607</ele>
        <time>2022-05-17T22:58:37.328Z</time>
      </trkpt>
      <trkpt lat="43.6269" lon="17.75162">
        <ele>164.763172</ele>
        <time>2022-05-17T22:58:49.920Z</time>
      </trkpt>
      <trkpt lat="43.62746" lon="17.75275">
        <ele>166.296339</ele>
        <time>2022-05-17T22:59:28.111Z</time>
      </trkpt>
      <trkpt lat="43.62771" lon="17.75362">
        <ele>167.435805</ele>
        <time>2022-05-17T22:59:56.896Z</time>
      </trkpt>
      <trkpt lat="43.62781" lon="17.75384">
        <ele>167.747512</ele>
        <time>2022-05-17T23:00:05.825Z</time>
      </trkpt>
      <trkpt lat="43.62813" lon="17.75411">
        <ele>168.24859</ele>
        <time>2022-05-17T23:00:23.548Z</time>
      </trkpt>
      <trkpt lat="43.62841" lon="17.75419">
        <ele>168.60489</ele>
        <time>2022-05-17T23:00:36.599Z</time>
      </trkpt>
      <trkpt lat="43.62865" lon="17.75415">
        <ele>168.905785</ele>
        <time>2022-05-17T23:00:47.342Z</time>
      </trkpt>
      <trkpt lat="43.62888" lon="17.75403">
        <ele>169.206919</ele>
        <time>2022-05-17T23:00:56.897Z</time>
      </trkpt>
      <trkpt lat="43.62919" lon="17.75367">
        <ele>169.712433</ele>
        <time>2022-05-17T23:01:12.038Z</time>
      </trkpt>
      <trkpt lat="43.6301" lon="17.75341">
        <ele>169.184557</ele>
        <time>2022-05-17T23:01:38.824Z</time>
      </trkpt>
      <trkpt lat="43.63066" lon="17.75346">
        <ele>168.300835</ele>
        <time>2022-05-17T23:01:51.893Z</time>
      </trkpt>
      <trkpt lat="43.63127" lon="17.75378">
        <ele>167.324268</ele>
        <time>2022-05-17T23:02:06.846Z</time>
      </trkpt>
      <trkpt lat="43.63189" lon="17.75442">
        <ele>168.502439</ele>
        <time>2022-05-17T23:02:34.874Z</time>
      </trkpt>
      <trkpt lat="43.63201" lon="17.75455">
        <ele>168.728394</ele>
        <time>2022-05-17T23:02:40.053Z</time>
      </trkpt>
      <trkpt lat="43.63231" lon="17.75483">
        <ele>169.272417</ele>
        <time>2022-05-17T23:02:55.928Z</time>
      </trkpt>
      <trkpt lat="43.63279" lon="17.75531">
        <ele>170.45489</ele>
        <time>2022-05-17T23:03:25.547Z</time>
      </trkpt>
      <trkpt lat="43.63327" lon="17.75592">
        <ele>173.294484</ele>
        <time>2022-05-17T23:04:04.453Z</time>
      </trkpt>
      <trkpt lat="43.63395" lon="17.75708">
        <ele>178.060342</ele>
        <time>2022-05-17T23:05:06.475Z</time>
      </trkpt>
      <trkpt lat="43.6342" lon="17.75741">
        <ele>179.744417</ele>
        <time>2022-05-17T23:05:21.866Z</time>
      </trkpt>
      <trkpt lat="43.63448" lon="17.75764">
        <ele>181.37322</ele>
        <time>2022-05-17T23:05:39.077Z</time>
      </trkpt>
      <trkpt lat="43.63489" lon="17.75775">
        <ele>183.45228</ele>
        <time>2022-05-17T23:06:03.193Z</time>
      </trkpt>
      <trkpt lat="43.6353" lon="17.75765">
        <ele>185.541459</ele>
        <time>2022-05-17T23:06:30.286Z</time>
      </trkpt>
      <trkpt lat="43.63557" lon="17.75746">
        <ele>187.099999</ele>
        <time>2022-05-17T23:06:50.314Z</time>
      </trkpt>
      <trkpt lat="43.6359" lon="17.75702">
        <ele>190.329349</ele>
        <time>2022-05-17T23:07:22.883Z</time>
      </trkpt>
      <trkpt lat="43.63597" lon="17.75691">
        <ele>191.047152</ele>
        <time>2022-05-17T23:07:30.002Z</time>
      </trkpt>
      <trkpt lat="43.63616" lon="17.75666">
        <ele>192.860453</ele>
        <time>2022-05-17T23:07:48.714Z</time>
      </trkpt>
      <trkpt lat="43.63618" lon="17.75664">
        <ele>193.02484</ele>
        <time>2022-05-17T23:07:50.477Z</time>
      </trkpt>
      <trkpt lat="43.63651" lon="17.75614">
        <ele>196.451706</ele>
        <time>2022-05-17T23:08:25.825Z</time>
      </trkpt>
      <trkpt lat="43.63679" lon="17.75589">
        <ele>198.769976</ele>
        <time>2022-05-17T23:08:50.526Z</time>
      </trkpt>
      <trkpt lat="43.63719" lon="17.75583">
        <ele>201.126381</ele>
        <time>2022-05-17T23:09:18.176Z</time>
      </trkpt>
      <trkpt lat="43.63741" lon="17.75587">
        <ele>202.388248</ele>
        <time>2022-05-17T23:09:33.017Z</time>
      </trkpt>
      <trkpt lat="43.63862" lon="17.75663">
        <ele>209.690039</ele>
        <time>2022-05-17T23:10:53.021Z</time>
      </trkpt>
      <trkpt lat="43.63972" lon="17.75751">
        <ele>214.35108</ele>
        <time>2022-05-17T23:12:02.282Z</time>
      </trkpt>
      <trkpt lat="43.64093" lon="17.75795">
        <ele>216.414475</ele>
        <time>2022-05-17T23:12:54.256Z</time>
      </trkpt>
      <trkpt lat="43.64116" lon="17.75814">
        <ele>216.553139</ele>
        <time>2022-05-17T23:13:01.898Z</time>
      </trkpt>
      <trkpt lat="43.64143" lon="17.75864">
        <ele>216.786546</ele>
        <time>2022-05-17T23:13:14.171Z</time>
      </trkpt>
      <trkpt lat="43.64161" lon="17.75915">
        <ele>217.248578</ele>
        <time>2022-05-17T23:13:24.972Z</time>
      </trkpt>
      <trkpt lat="43.64178" lon="17.75964">
        <ele>218.265443</ele>
        <time>2022-05-17T23:13:36.693Z</time>
      </trkpt>
      <trkpt lat="43.64196" lon="17.76">
        <ele>219.077186</ele>
        <time>2022-05-17T23:13:48.892Z</time>
      </trkpt>
      <trkpt lat="43.64259" lon="17.76078">
        <ele>221.25975</ele>
        <time>2022-05-17T23:14:33.742Z</time>
      </trkpt>
      <trkpt lat="43.64318" lon="17.76175">
        <ele>226.202919</ele>
        <time>2022-05-17T23:15:38.303Z</time>
      </trkpt>
      <trkpt lat="43.64342" lon="17.76192">
        <ele>227.834037</ele>
        <time>2022-05-17T23:15:57.937Z</time>
      </trkpt>
      <trkpt lat="43.64364" lon="17.76188">
        <ele>229.1159</ele>
        <time>2022-05-17T23:16:13.029Z</time>
      </trkpt>
      <trkpt lat="43.64376" lon="17.76175">
        <ele>229.959858</ele>
        <time>2022-05-17T23:16:22.971Z</time>
      </trkpt>
      <trkpt lat="43.64386" lon="17.76149">
        <ele>231.238302</ele>
        <time>2022-05-17T23:16:37.010Z</time>
      </trkpt>
      <trkpt lat="43.64382" lon="17.76034">
        <ele>233.114224</ele>
        <time>2022-05-17T23:17:15.244Z</time>
      </trkpt>
      <trkpt lat="43.64395" lon="17.75977">
        <ele>233.768235</ele>
        <time>2022-05-17T23:17:29.295Z</time>
      </trkpt>
      <trkpt lat="43.64427" lon="17.75941">
        <ele>234.400864</ele>
        <time>2022-05-17T23:17:41.625Z</time>
      </trkpt>
      <trkpt lat="43.64494" lon="17.75921">
        <ele>235.03376</ele>
        <time>2022-05-17T23:18:05.598Z</time>
      </trkpt>
      <trkpt lat="43.64518" lon="17.75901">
        <ele>235.191669</ele>
        <time>2022-05-17T23:18:15.554Z</time>
      </trkpt>
      <trkpt lat="43.64583" lon="17.7577">
        <ele>235.74173</ele>
        <time>2022-05-17T23:18:56.200Z</time>
      </trkpt>
      <trkpt lat="43.64619" lon="17.75652">
        <ele>234.343978</ele>
        <time>2022-05-17T23:19:22.998Z</time>
      </trkpt>
      <trkpt lat="43.64644" lon="17.75629">
        <ele>233.884026</ele>
        <time>2022-05-17T23:19:30.326Z</time>
      </trkpt>
      <trkpt lat="43.64717" lon="17.75625">
        <ele>232.285552</ele>
        <time>2022-05-17T23:19:46.686Z</time>
      </trkpt>
      <trkpt lat="43.6474" lon="17.75602">
        <ele>231.172695</ele>
        <time>2022-05-17T23:19:52.972Z</time>
      </trkpt>
      <trkpt lat="43.64776" lon="17.75553">
        <ele>229.18457</ele>
        <time>2022-05-17T23:20:04.035Z</time>
      </trkpt>
      <trkpt lat="43.64843" lon="17.75516">
        <ele>226.313595</ele>
        <time>2022-05-17T23:20:20.088Z</time>
      </trkpt>
      <trkpt lat="43.64894" lon="17.75473">
        <ele>222.952394</ele>
        <time>2022-05-17T23:20:32.920Z</time>
      </trkpt>
      <trkpt lat="43.64926" lon="17.75447">
        <ele>220.765228</ele>
        <time>2022-05-17T23:20:40.665Z</time>
      </trkpt>
      <trkpt lat="43.65044" lon="17.75372">
        <ele>212.769845</ele>
        <time>2022-05-17T23:21:06.638Z</time>
      </trkpt>
      <trkpt lat="43.65077" lon="17.75367">
        <ele>210.481522</ele>
        <time>2022-05-17T23:21:13.369Z</time>
      </trkpt>
      <trkpt lat="43.65146" lon="17.75385">
        <ele>205.781286</ele>
        <time>2022-05-17T23:21:27.272Z</time>
      </trkpt>
      <trkpt lat="43.65185" lon="17.75402">
        <ele>203.100415</ele>
        <time>2022-05-17T23:21:35.608Z</time>
      </trkpt>
      <trkpt lat="43.6526" lon="17.7545">
        <ele>200.159609</ele>
        <time>2022-05-17T23:21:53.290Z</time>
      </trkpt>
      <trkpt lat="43.65325" lon="17.75508">
        <ele>197.417982</ele>
        <time>2022-05-17T23:22:12.946Z</time>
      </trkpt>
      <trkpt lat="43.65349" lon="17.75521">
        <ele>196.563497</ele>
        <time>2022-05-17T23:22:19.097Z</time>
      </trkpt>
      <trkpt lat="43.65402" lon="17.75516">
        <ele>194.94864</ele>
        <time>2022-05-17T23:22:31.771Z</time>
      </trkpt>
      <trkpt lat="43.65425" lon="17.75534">
        <ele>194.141302</ele>
        <time>2022-05-17T23:22:37.596Z</time>
      </trkpt>
      <trkpt lat="43.6543" lon="17.75557">
        <ele>193.612409</ele>
        <time>2022-05-17T23:22:41.487Z</time>
      </trkpt>
      <trkpt lat="43.6542" lon="17.75587">
        <ele>192.898342</ele>
        <time>2022-05-17T23:22:46.828Z</time>
      </trkpt>
      <trkpt lat="43.65366" lon="17.75644">
        <ele>190.975162</ele>
        <time>2022-05-17T23:23:02.611Z</time>
      </trkpt>
      <trkpt lat="43.65351" lon="17.75664">
        <ele>190.540603</ele>
        <time>2022-05-17T23:23:06.960Z</time>
      </trkpt>
      <trkpt lat="43.65336" lon="17.75705">
        <ele>189.820669</ele>
        <time>2022-05-17T23:23:14.502Z</time>
      </trkpt>
      <trkpt lat="43.65335" lon="17.75729">
        <ele>189.440634</ele>
        <time>2022-05-17T23:23:18.723Z</time>
      </trkpt>
      <trkpt lat="43.65341" lon="17.75753">
        <ele>189.050544</ele>
        <time>2022-05-17T23:23:22.608Z</time>
      </trkpt>
      <trkpt lat="43.65395" lon="17.75876">
        <ele>187.798512</ele>
        <time>2022-05-17T23:23:52.893Z</time>
      </trkpt>
      <trkpt lat="43.65412" lon="17.75904">
        <ele>188.03647</ele>
        <time>2022-05-17T23:24:03.844Z</time>
      </trkpt>
      <trkpt lat="43.65436" lon="17.75925">
        <ele>188.287691</ele>
        <time>2022-05-17T23:24:15.145Z</time>
      </trkpt>
      <trkpt lat="43.65482" lon="17.75959">
        <ele>188.754472</ele>
        <time>2022-05-17T23:24:36.630Z</time>
      </trkpt>
      <trkpt lat="43.65603" lon="17.76055">
        <ele>189.02278</ele>
        <time>2022-05-17T23:25:23.940Z</time>
      </trkpt>
      <trkpt lat="43.65673" lon="17.76109">
        <ele>188.941948</ele>
        <time>2022-05-17T23:25:45.922Z</time>
      </trkpt>
      <trkpt lat="43.65783" lon="17.76198">
        <ele>188.05059</ele>
        <time>2022-05-17T23:26:20.169Z</time>
      </trkpt>
      <trkpt lat="43.65802" lon="17.76211">
        <ele>187.904229</ele>
        <time>2022-05-17T23:26:26.102Z</time>
      </trkpt>
      <trkpt lat="43.65814" lon="17.76218">
        <ele>187.81017</ele>
        <time>2022-05-17T23:26:29.789Z</time>
      </trkpt>
      <trkpt lat="43.65843" lon="17.76229">
        <ele>187.853937</ele>
        <time>2022-05-17T23:26:38.854Z</time>
      </trkpt>
      <trkpt lat="43.65893" lon="17.76251">
        <ele>188.690335</ele>
        <time>2022-05-17T23:26:58.156Z</time>
      </trkpt>
      <trkpt lat="43.65907" lon="17.76257">
        <ele>188.914604</ele>
        <time>2022-05-17T23:27:03.945Z</time>
      </trkpt>
      <trkpt lat="43.65927" lon="17.76266">
        <ele>189.240993</ele>
        <time>2022-05-17T23:27:12.914Z</time>
      </trkpt>
      <trkpt lat="43.65943" lon="17.76273">
        <ele>189.51343</ele>
        <time>2022-05-17T23:27:20.575Z</time>
      </trkpt>
      <trkpt lat="43.66007" lon="17.76286">
        <ele>190.512753</ele>
        <time>2022-05-17T23:27:49.811Z</time>
      </trkpt>
      <trkpt lat="43.6604" lon="17.76284">
        <ele>190.3999</ele>
        <time>2022-05-17T23:28:04.623Z</time>
      </trkpt>
      <trkpt lat="43.66061" lon="17.76284">
        <ele>190.328057</ele>
        <time>2022-05-17T23:28:13.687Z</time>
      </trkpt>
      <trkpt lat="43.66082" lon="17.7629">
        <ele>190.25472</ele>
        <time>2022-05-17T23:28:21.643Z</time>
      </trkpt>
      <trkpt lat="43.66091" lon="17.76293">
        <ele>190.222628</ele>
        <time>2022-05-17T23:28:25.171Z</time>
      </trkpt>
      <trkpt lat="43.6612" lon="17.76303">
        <ele>190.122822</ele>
        <time>2022-05-17T23:28:33.322Z</time>
      </trkpt>
      <trkpt lat="43.66149" lon="17.76315">
        <ele>190.017291</ele>
        <time>2022-05-17T23:28:40.896Z</time>
      </trkpt>
      <trkpt lat="43.66196" lon="17.76337">
        <ele>189.466668</ele>
        <time>2022-05-17T23:28:52.060Z</time>
      </trkpt>
      <trkpt lat="43.66236" lon="17.76363">
        <ele>188.229257</ele>
        <time>2022-05-17T23:29:01.515Z</time>
      </trkpt>
      <trkpt lat="43.66252" lon="17.76405">
        <ele>187.279581</ele>
        <time>2022-05-17T23:29:09.345Z</time>
      </trkpt>
      <trkpt lat="43.66269" lon="17.76469">
        <ele>185.912247</ele>
        <time>2022-05-17T23:29:20.972Z</time>
      </trkpt>
      <trkpt lat="43.66299" lon="17.76533">
        <ele>185.280326</ele>
        <time>2022-05-17T23:29:34.520Z</time>
      </trkpt>
      <trkpt lat="43.66316" lon="17.76568">
        <ele>185.918668</ele>
        <time>2022-05-17T23:29:43.987Z</time>
      </trkpt>
      <trkpt lat="43.66324" lon="17.766">
        <ele>186.432339</ele>
        <time>2022-05-17T23:29:52.743Z</time>
      </trkpt>
      <trkpt lat="43.66334" lon="17.76701">
        <ele>187.973826</ele>
        <time>2022-05-17T23:30:28.842Z</time>
      </trkpt>
      <trkpt lat="43.66342" lon="17.76736">
        <ele>188.53795</ele>
        <time>2022-05-17T23:30:45.891Z</time>
      </trkpt>
      <trkpt lat="43.66352" lon="17.76758">
        <ele>189.344254</ele>
        <time>2022-05-17T23:30:58.870Z</time>
      </trkpt>
      <trkpt lat="43.66386" lon="17.76829">
        <ele>192.599478</ele>
        <time>2022-05-17T23:31:33.561Z</time>
      </trkpt>
      <trkpt lat="43.66412" lon="17.76905">
        <ele>195.768958</ele>
        <time>2022-05-17T23:32:09.361Z</time>
      </trkpt>
      <trkpt lat="43.66435" lon="17.77092">
        <ele>204.138931</ele>
        <time>2022-05-17T23:33:40.152Z</time>
      </trkpt>
      <trkpt lat="43.66437" lon="17.7719">
        <ele>208.731903</ele>
        <time>2022-05-17T23:34:27.795Z</time>
      </trkpt>
      <trkpt lat="43.66422" lon="17.77361">
        <ele>219.08675</ele>
        <time>2022-05-17T23:35:59.306Z</time>
      </trkpt>
      <trkpt lat="43.66432" lon="17.77407">
        <ele>222.066179</ele>
        <time>2022-05-17T23:36:28.370Z</time>
      </trkpt>
      <trkpt lat="43.66451" lon="17.77448">
        <ele>225.079757</ele>
        <time>2022-05-17T23:36:59.453Z</time>
      </trkpt>
      <trkpt lat="43.66483" lon="17.77486">
        <ele>230.410563</ele>
        <time>2022-05-17T23:37:38.841Z</time>
      </trkpt>
      <trkpt lat="43.66713" lon="17.776">
        <ele>262.121585</ele>
        <time>2022-05-17T23:42:00.438Z</time>
      </trkpt>
      <trkpt lat="43.66755" lon="17.77647">
        <ele>269.382095</ele>
        <time>2022-05-17T23:42:58.093Z</time>
      </trkpt>
      <trkpt lat="43.66815" lon="17.77748">
        <ele>279.919147</ele>
        <time>2022-05-17T23:44:35.611Z</time>
      </trkpt>
      <trkpt lat="43.66843" lon="17.77771">
        <ele>283.307647</ele>
        <time>2022-05-17T23:45:05.704Z</time>
      </trkpt>
      <trkpt lat="43.66884" lon="17.77779">
        <ele>287.608874</ele>
        <time>2022-05-17T23:45:42.935Z</time>
      </trkpt>
      <trkpt lat="43.67449" lon="17.77776">
        <ele>318.999969</ele>
        <time>2022-05-17T23:51:40.136Z</time>
      </trkpt>
      <trkpt lat="43.67482" lon="17.7777">
        <ele>317.954387</ele>
        <time>2022-05-17T23:51:47.152Z</time>
      </trkpt>
      <trkpt lat="43.67511" lon="17.77747">
        <ele>316.329317</ele>
        <time>2022-05-17T23:51:53.783Z</time>
      </trkpt>
      <trkpt lat="43.67555" lon="17.77675">
        <ele>312.943259</ele>
        <time>2022-05-17T23:52:07.464Z</time>
      </trkpt>
      <trkpt lat="43.67582" lon="17.77635">
        <ele>310.989967</ele>
        <time>2022-05-17T23:52:15.327Z</time>
      </trkpt>
      <trkpt lat="43.676" lon="17.77614">
        <ele>310.404973</ele>
        <time>2022-05-17T23:52:20.584Z</time>
      </trkpt>
      <trkpt lat="43.67623" lon="17.77594">
        <ele>310.390315</ele>
        <time>2022-05-17T23:52:27.088Z</time>
      </trkpt>
      <trkpt lat="43.67662" lon="17.77571">
        <ele>310.367749</ele>
        <time>2022-05-17T23:52:39.488Z</time>
      </trkpt>
      <trkpt lat="43.67698" lon="17.77557">
        <ele>310.347566</ele>
        <time>2022-05-17T23:52:54.516Z</time>
      </trkpt>
      <trkpt lat="43.67779" lon="17.77552">
        <ele>310.544392</ele>
        <time>2022-05-17T23:53:31.107Z</time>
      </trkpt>
      <trkpt lat="43.67789" lon="17.77552">
        <ele>310.663292</ele>
        <time>2022-05-17T23:53:36.469Z</time>
      </trkpt>
      <trkpt lat="43.6784" lon="17.77564">
        <ele>311.262831</ele>
        <time>2022-05-17T23:53:57.507Z</time>
      </trkpt>
      <trkpt lat="43.6787" lon="17.7758">
        <ele>311.64128</ele>
        <time>2022-05-17T23:54:10.121Z</time>
      </trkpt>
      <trkpt lat="43.67922" lon="17.77625">
        <ele>312.360668</ele>
        <time>2022-05-17T23:54:30.588Z</time>
      </trkpt>
      <trkpt lat="43.67946" lon="17.77659">
        <ele>312.07551</ele>
        <time>2022-05-17T23:54:39.733Z</time>
      </trkpt>
      <trkpt lat="43.6797" lon="17.77699">
        <ele>311.651848</ele>
        <time>2022-05-17T23:54:49.848Z</time>
      </trkpt>
      <trkpt lat="43.67988" lon="17.77746">
        <ele>311.217864</ele>
        <time>2022-05-17T23:55:00.169Z</time>
      </trkpt>
      <trkpt lat="43.68017" lon="17.77854">
        <ele>310.166608</ele>
        <time>2022-05-17T23:55:21.395Z</time>
      </trkpt>
      <trkpt lat="43.68032" lon="17.77956">
        <ele>308.345545</ele>
        <time>2022-05-17T23:55:40.123Z</time>
      </trkpt>
      <trkpt lat="43.68033" lon="17.77978">
        <ele>307.958188</ele>
        <time>2022-05-17T23:55:43.834Z</time>
      </trkpt>
      <trkpt lat="43.68049" lon="17.78076">
        <ele>306.211327</ele>
        <time>2022-05-17T23:56:00.787Z</time>
      </trkpt>
      <trkpt lat="43.68153" lon="17.78296">
        <ele>299.283699</ele>
        <time>2022-05-17T23:56:43.311Z</time>
      </trkpt>
      <trkpt lat="43.68163" lon="17.78345">
        <ele>298.86565</ele>
        <time>2022-05-17T23:56:51.016Z</time>
      </trkpt>
      <trkpt lat="43.68168" lon="17.78426">
        <ele>298.204248</ele>
        <time>2022-05-17T23:57:03.640Z</time>
      </trkpt>
      <trkpt lat="43.68179" lon="17.78487">
        <ele>297.693253</ele>
        <time>2022-05-17T23:57:18.010Z</time>
      </trkpt>
      <trkpt lat="43.68195" lon="17.78525">
        <ele>297.330772</ele>
        <time>2022-05-17T23:57:36.727Z</time>
      </trkpt>
      <trkpt lat="43.68224" lon="17.78568">
        <ele>300.051711</ele>
        <time>2022-05-17T23:58:03.261Z</time>
      </trkpt>
      <trkpt lat="43.68302" lon="17.78671">
        <ele>307.708973</ele>
        <time>2022-05-17T23:59:23.138Z</time>
      </trkpt>
      <trkpt lat="43.68478" lon="17.78843">
        <ele>325.156303</ele>
        <time>2022-05-18T00:02:17.754Z</time>
      </trkpt>
      <trkpt lat="43.68519" lon="17.78907">
        <ele>327.354869</ele>
        <time>2022-05-18T00:02:53.299Z</time>
      </trkpt>
      <trkpt lat="43.68526" lon="17.78926">
        <ele>327.905254</ele>
        <time>2022-05-18T00:03:01.979Z</time>
      </trkpt>
      <trkpt lat="43.68539" lon="17.7897">
        <ele>329.144794</ele>
        <time>2022-05-18T00:03:18.323Z</time>
      </trkpt>
      <trkpt lat="43.68548" lon="17.79028">
        <ele>330.658903</ele>
        <time>2022-05-18T00:03:37.082Z</time>
      </trkpt>
      <trkpt lat="43.68549" lon="17.79094">
        <ele>330.543624</ele>
        <time>2022-05-18T00:03:54.209Z</time>
      </trkpt>
      <trkpt lat="43.68546" lon="17.79111">
        <ele>330.088757</ele>
        <time>2022-05-18T00:03:58.017Z</time>
      </trkpt>
      <trkpt lat="43.68542" lon="17.7914">
        <ele>329.30648</ele>
        <time>2022-05-18T00:04:03.262Z</time>
      </trkpt>
      <trkpt lat="43.68525" lon="17.79195">
        <ele>327.718134</ele>
        <time>2022-05-18T00:04:12.926Z</time>
      </trkpt>
      <trkpt lat="43.68505" lon="17.79234">
        <ele>326.437347</ele>
        <time>2022-05-18T00:04:20.298Z</time>
      </trkpt>
      <trkpt lat="43.68434" lon="17.7938">
        <ele>320.362134</ele>
        <time>2022-05-18T00:04:45.322Z</time>
      </trkpt>
      <trkpt lat="43.68409" lon="17.79452">
        <ele>317.275593</ele>
        <time>2022-05-18T00:04:57.186Z</time>
      </trkpt>
      <trkpt lat="43.68393" lon="17.79553">
        <ele>316.485222</ele>
        <time>2022-05-18T00:05:17.314Z</time>
      </trkpt>
      <trkpt lat="43.68374" lon="17.79639">
        <ele>318.630322</ele>
        <time>2022-05-18T00:05:51.788Z</time>
      </trkpt>
      <trkpt lat="43.68336" lon="17.79749">
        <ele>321.065921</ele>
        <time>2022-05-18T00:06:49.213Z</time>
      </trkpt>
      <trkpt lat="43.68314" lon="17.79832">
        <ele>320.410605</ele>
        <time>2022-05-18T00:07:27.938Z</time>
      </trkpt>
      <trkpt lat="43.68286" lon="17.80067">
        <ele>316.418066</ele>
        <time>2022-05-18T00:08:03.504Z</time>
      </trkpt>
      <trkpt lat="43.68265" lon="17.80173">
        <ele>312.939113</ele>
        <time>2022-05-18T00:08:19.768Z</time>
      </trkpt>
      <trkpt lat="43.68261" lon="17.80192">
        <ele>312.313959</ele>
        <time>2022-05-18T00:08:22.912Z</time>
      </trkpt>
      <trkpt lat="43.6824" lon="17.80296">
        <ele>315.783805</ele>
        <time>2022-05-18T00:08:53.152Z</time>
      </trkpt>
      <trkpt lat="43.6824" lon="17.80434">
        <ele>323.06842</ele>
        <time>2022-05-18T00:10:23.605Z</time>
      </trkpt>
      <trkpt lat="43.68241" lon="17.80468">
        <ele>324.950377</ele>
        <time>2022-05-18T00:10:50.312Z</time>
      </trkpt>
      <trkpt lat="43.68239" lon="17.80555">
        <ele>330.935797</ele>
        <time>2022-05-18T00:11:52.599Z</time>
      </trkpt>
      <trkpt lat="43.68245" lon="17.80796">
        <ele>344.801793</ele>
        <time>2022-05-18T00:14:05.589Z</time>
      </trkpt>
      <trkpt lat="43.68253" lon="17.80888">
        <ele>348.186243</ele>
        <time>2022-05-18T00:14:40.887Z</time>
      </trkpt>
      <trkpt lat="43.68293" lon="17.81066">
        <ele>349.870377</ele>
        <time>2022-05-18T00:15:45.874Z</time>
      </trkpt>
      <trkpt lat="43.68324" lon="17.81147">
        <ele>349.097188</ele>
        <time>2022-05-18T00:16:01.247Z</time>
      </trkpt>
      <trkpt lat="43.68351" lon="17.81197">
        <ele>347.421294</ele>
        <time>2022-05-18T00:16:10.610Z</time>
      </trkpt>
      <trkpt lat="43.68391" lon="17.81265">
        <ele>341.563961</ele>
        <time>2022-05-18T00:16:22.645Z</time>
      </trkpt>
      <trkpt lat="43.68402" lon="17.81296">
        <ele>339.267506</ele>
        <time>2022-05-18T00:16:27.315Z</time>
      </trkpt>
      <trkpt lat="43.68418" lon="17.81405">
        <ele>332.192793</ele>
        <time>2022-05-18T00:16:42.516Z</time>
      </trkpt>
      <trkpt lat="43.68428" lon="17.81473">
        <ele>332.363832</ele>
        <time>2022-05-18T00:16:52.717Z</time>
      </trkpt>
      <trkpt lat="43.68439" lon="17.81536">
        <ele>332.523047</ele>
        <time>2022-05-18T00:17:07.601Z</time>
      </trkpt>
      <trkpt lat="43.68487" lon="17.81658">
        <ele>333.957272</ele>
        <time>2022-05-18T00:18:13.138Z</time>
      </trkpt>
      <trkpt lat="43.68491" lon="17.81668">
        <ele>334.389116</ele>
        <time>2022-05-18T00:18:21.962Z</time>
      </trkpt>
      <trkpt lat="43.68495" lon="17.81677">
        <ele>334.811385</ele>
        <time>2022-05-18T00:18:29.855Z</time>
      </trkpt>
      <trkpt lat="43.68561" lon="17.81838">
        <ele>342.121052</ele>
        <time>2022-05-18T00:20:04.342Z</time>
      </trkpt>
      <trkpt lat="43.68663" lon="17.82031">
        <ele>335.87274</ele>
        <time>2022-05-18T00:20:41.676Z</time>
      </trkpt>
      <trkpt lat="43.68673" lon="17.82082">
        <ele>333.46762</ele>
        <time>2022-05-18T00:20:49.046Z</time>
      </trkpt>
      <trkpt lat="43.68678" lon="17.82191">
        <ele>327.345652</ele>
        <time>2022-05-18T00:21:04.323Z</time>
      </trkpt>
      <trkpt lat="43.68679" lon="17.82291">
        <ele>321.723442</ele>
        <time>2022-05-18T00:21:18.562Z</time>
      </trkpt>
      <trkpt lat="43.68674" lon="17.82325">
        <ele>320.556345</ele>
        <time>2022-05-18T00:21:23.743Z</time>
      </trkpt>
      <trkpt lat="43.68644" lon="17.8241">
        <ele>318.014424</ele>
        <time>2022-05-18T00:21:38.463Z</time>
      </trkpt>
      <trkpt lat="43.68614" lon="17.82478">
        <ele>315.872732</ele>
        <time>2022-05-18T00:21:51.786Z</time>
      </trkpt>
      <trkpt lat="43.68579" lon="17.82494">
        <ele>314.553887</ele>
        <time>2022-05-18T00:22:01.760Z</time>
      </trkpt>
      <trkpt lat="43.68539" lon="17.82573">
        <ele>313.884904</ele>
        <time>2022-05-18T00:22:21.883Z</time>
      </trkpt>
      <trkpt lat="43.6851" lon="17.82597">
        <ele>313.556788</ele>
        <time>2022-05-18T00:22:32.319Z</time>
      </trkpt>
      <trkpt lat="43.68498" lon="17.82606">
        <ele>313.427404</ele>
        <time>2022-05-18T00:22:38.050Z</time>
      </trkpt>
      <trkpt lat="43.68502" lon="17.82615">
        <ele>313.353553</ele>
        <time>2022-05-18T00:22:39.901Z</time>
      </trkpt>
      <trkpt lat="43.68474" lon="17.82641">
        <ele>313.03729</ele>
        <time>2022-05-18T00:22:49.864Z</time>
      </trkpt>
      <trkpt lat="43.68442" lon="17.82689">
        <ele>312.038785</ele>
        <time>2022-05-18T00:23:01.610Z</time>
      </trkpt>
      <trkpt lat="43.68395" lon="17.82764">
        <ele>309.929047</ele>
        <time>2022-05-18T00:23:18.494Z</time>
      </trkpt>
      <trkpt lat="43.68318" lon="17.82869">
        <ele>307.260209</ele>
        <time>2022-05-18T00:23:42.217Z</time>
      </trkpt>
      <trkpt lat="43.68298" lon="17.82902">
        <ele>306.940058</ele>
        <time>2022-05-18T00:23:49.184Z</time>
      </trkpt>
      <trkpt lat="43.6828" lon="17.82944">
        <ele>306.570546</ele>
        <time>2022-05-18T00:23:58.269Z</time>
      </trkpt>
      <trkpt lat="43.68271" lon="17.82975">
        <ele>306.321654</ele>
        <time>2022-05-18T00:24:05.780Z</time>
      </trkpt>
      <trkpt lat="43.68266" lon="17.83057">
        <ele>305.703714</ele>
        <time>2022-05-18T00:24:30.719Z</time>
      </trkpt>
      <trkpt lat="43.68273" lon="17.83096">
        <ele>305.635407</ele>
        <time>2022-05-18T00:24:42.365Z</time>
      </trkpt>
      <trkpt lat="43.68291" lon="17.83137">
        <ele>305.576464</ele>
        <time>2022-05-18T00:24:53.438Z</time>
      </trkpt>
      <trkpt lat="43.68314" lon="17.83171">
        <ele>305.517858</ele>
        <time>2022-05-18T00:25:03.652Z</time>
      </trkpt>
      <trkpt lat="43.68332" lon="17.83187">
        <ele>305.481178</ele>
        <time>2022-05-18T00:25:11.607Z</time>
      </trkpt>
      <trkpt lat="43.68347" lon="17.83196">
        <ele>305.453813</ele>
        <time>2022-05-18T00:25:15.714Z</time>
      </trkpt>
      <trkpt lat="43.68366" lon="17.83207">
        <ele>305.417066</ele>
        <time>2022-05-18T00:25:23.020Z</time>
      </trkpt>
      <trkpt lat="43.68398" lon="17.83211">
        <ele>305.066531</ele>
        <time>2022-05-18T00:25:31.520Z</time>
      </trkpt>
      <trkpt lat="43.6843" lon="17.83205">
        <ele>303.395253</ele>
        <time>2022-05-18T00:25:38.874Z</time>
      </trkpt>
      <trkpt lat="43.68508" lon="17.83158">
        <ele>298.894671</ele>
        <time>2022-05-18T00:25:56.232Z</time>
      </trkpt>
      <trkpt lat="43.68586" lon="17.83147">
        <ele>295.023337</ele>
        <time>2022-05-18T00:26:11.857Z</time>
      </trkpt>
      <trkpt lat="43.68594" lon="17.83145">
        <ele>294.688449</ele>
        <time>2022-05-18T00:26:13.612Z</time>
      </trkpt>
      <trkpt lat="43.68622" lon="17.8313">
        <ele>293.464427</ele>
        <time>2022-05-18T00:26:20.017Z</time>
      </trkpt>
      <trkpt lat="43.68721" lon="17.83012">
        <ele>288.634471</ele>
        <time>2022-05-18T00:26:49.356Z</time>
      </trkpt>
      <trkpt lat="43.68736" lon="17.83001">
        <ele>288.720713</ele>
        <time>2022-05-18T00:26:53.948Z</time>
      </trkpt>
      <trkpt lat="43.68776" lon="17.82986">
        <ele>288.927012</ele>
        <time>2022-05-18T00:27:07.366Z</time>
      </trkpt>
      <trkpt lat="43.68815" lon="17.82988">
        <ele>289.124882</ele>
        <time>2022-05-18T00:27:22.014Z</time>
      </trkpt>
      <trkpt lat="43.68823" lon="17.82993">
        <ele>289.170914</ele>
        <time>2022-05-18T00:27:25.805Z</time>
      </trkpt>
      <trkpt lat="43.68836" lon="17.83">
        <ele>289.242006</ele>
        <time>2022-05-18T00:27:32.099Z</time>
      </trkpt>
      <trkpt lat="43.68913" lon="17.83072">
        <ele>290.037252</ele>
        <time>2022-05-18T00:28:12.210Z</time>
      </trkpt>
      <trkpt lat="43.68949" lon="17.83116">
        <ele>290.641237</ele>
        <time>2022-05-18T00:28:29.454Z</time>
      </trkpt>
      <trkpt lat="43.68967" lon="17.83151">
        <ele>291.032231</ele>
        <time>2022-05-18T00:28:39.528Z</time>
      </trkpt>
      <trkpt lat="43.69006" lon="17.83241">
        <ele>292.107752</ele>
        <time>2022-05-18T00:29:08.412Z</time>
      </trkpt>
      <trkpt lat="43.69009" lon="17.83248">
        <ele>292.224205</ele>
        <time>2022-05-18T00:29:10.408Z</time>
      </trkpt>
      <trkpt lat="43.69039" lon="17.83281">
        <ele>292.951312</ele>
        <time>2022-05-18T00:29:25.985Z</time>
      </trkpt>
      <trkpt lat="43.69074" lon="17.83298">
        <ele>293.668717</ele>
        <time>2022-05-18T00:29:41.120Z</time>
      </trkpt>
      <trkpt lat="43.69129" lon="17.83303">
        <ele>294.72323</ele>
        <time>2022-05-18T00:30:03.918Z</time>
      </trkpt>
      <trkpt lat="43.69169" lon="17.83315">
        <ele>295.739136</ele>
        <time>2022-05-18T00:30:21.888Z</time>
      </trkpt>
      <trkpt lat="43.69185" lon="17.83328">
        <ele>296.380939</ele>
        <time>2022-05-18T00:30:31.690Z</time>
      </trkpt>
      <trkpt lat="43.69204" lon="17.83357">
        <ele>297.337136</ele>
        <time>2022-05-18T00:30:48.924Z</time>
      </trkpt>
      <trkpt lat="43.69219" lon="17.83412">
        <ele>298.779282</ele>
        <time>2022-05-18T00:31:13.209Z</time>
      </trkpt>
      <trkpt lat="43.69214" lon="17.83464">
        <ele>300.061272</ele>
        <time>2022-05-18T00:31:32.587Z</time>
      </trkpt>
      <trkpt lat="43.69169" lon="17.83567">
        <ele>301.731247</ele>
        <time>2022-05-18T00:32:09.477Z</time>
      </trkpt>
      <trkpt lat="43.69152" lon="17.83622">
        <ele>302.107467</ele>
        <time>2022-05-18T00:32:25.736Z</time>
      </trkpt>
      <trkpt lat="43.69126" lon="17.83858">
        <ele>302.900949</ele>
        <time>2022-05-18T00:33:18.178Z</time>
      </trkpt>
      <trkpt lat="43.69113" lon="17.84023">
        <ele>303.075475</ele>
        <time>2022-05-18T00:33:56.263Z</time>
      </trkpt>
      <trkpt lat="43.69136" lon="17.84108">
        <ele>303.370325</ele>
        <time>2022-05-18T00:34:20.602Z</time>
      </trkpt>
      <trkpt lat="43.69162" lon="17.84153">
        <ele>303.55671</ele>
        <time>2022-05-18T00:34:35.448Z</time>
      </trkpt>
      <trkpt lat="43.69192" lon="17.84183">
        <ele>303.726208</ele>
        <time>2022-05-18T00:34:48.280Z</time>
      </trkpt>
      <trkpt lat="43.69345" lon="17.84269">
        <ele>302.222899</ele>
        <time>2022-05-18T00:35:33.647Z</time>
      </trkpt>
      <trkpt lat="43.69384" lon="17.84296">
        <ele>301.319255</ele>
        <time>2022-05-18T00:35:44.065Z</time>
      </trkpt>
      <trkpt lat="43.69412" lon="17.84334">
        <ele>299.977626</ele>
        <time>2022-05-18T00:35:53.396Z</time>
      </trkpt>
      <trkpt lat="43.6942" lon="17.84358">
        <ele>299.319995</ele>
        <time>2022-05-18T00:35:57.977Z</time>
      </trkpt>
      <trkpt lat="43.69427" lon="17.84406">
        <ele>298.088423</ele>
        <time>2022-05-18T00:36:06.300Z</time>
      </trkpt>
      <trkpt lat="43.69424" lon="17.84458">
        <ele>296.814695</ele>
        <time>2022-05-18T00:36:14.791Z</time>
      </trkpt>
      <trkpt lat="43.69373" lon="17.84689">
        <ele>286.821459</ele>
        <time>2022-05-18T00:36:50.304Z</time>
      </trkpt>
      <trkpt lat="43.69352" lon="17.84816">
        <ele>284.180528</ele>
        <time>2022-05-18T00:37:09.435Z</time>
      </trkpt>
      <trkpt lat="43.69346" lon="17.84858">
        <ele>283.883602</ele>
        <time>2022-05-18T00:37:16.175Z</time>
      </trkpt>
      <trkpt lat="43.69318" lon="17.85137">
        <ele>289.547842</ele>
        <time>2022-05-18T00:39:04.056Z</time>
      </trkpt>
      <trkpt lat="43.69317" lon="17.85144">
        <ele>289.859314</ele>
        <time>2022-05-18T00:39:08.876Z</time>
      </trkpt>
      <trkpt lat="43.69313" lon="17.85182">
        <ele>291.426833</ele>
        <time>2022-05-18T00:39:32.601Z</time>
      </trkpt>
      <trkpt lat="43.69274" lon="17.85364">
        <ele>299.635944</ele>
        <time>2022-05-18T00:41:15.957Z</time>
      </trkpt>
      <trkpt lat="43.69271" lon="17.85402">
        <ele>301.339765</ele>
        <time>2022-05-18T00:41:33.471Z</time>
      </trkpt>
      <trkpt lat="43.69274" lon="17.85446">
        <ele>303.283481</ele>
        <time>2022-05-18T00:41:51.563Z</time>
      </trkpt>
      <trkpt lat="43.69303" lon="17.85636">
        <ele>305.387368</ele>
        <time>2022-05-18T00:42:43.766Z</time>
      </trkpt>
      <trkpt lat="43.69313" lon="17.85732">
        <ele>305.97692</ele>
        <time>2022-05-18T00:43:03.875Z</time>
      </trkpt>
      <trkpt lat="43.69313" lon="17.8578">
        <ele>306.148811</ele>
        <time>2022-05-18T00:43:14.740Z</time>
      </trkpt>
      <trkpt lat="43.693" lon="17.85891">
        <ele>306.545944</ele>
        <time>2022-05-18T00:43:41.580Z</time>
      </trkpt>
      <trkpt lat="43.69285" lon="17.86005">
        <ele>307.059151</ele>
        <time>2022-05-18T00:44:14.683Z</time>
      </trkpt>
      <trkpt lat="43.69246" lon="17.86201">
        <ele>308.154857</ele>
        <time>2022-05-18T00:45:06.387Z</time>
      </trkpt>
      <trkpt lat="43.69221" lon="17.86398">
        <ele>307.803188</ele>
        <time>2022-05-18T00:45:49.318Z</time>
      </trkpt>
      <trkpt lat="43.69186" lon="17.86541">
        <ele>307.472295</ele>
        <time>2022-05-18T00:46:19.954Z</time>
      </trkpt>
      <trkpt lat="43.69168" lon="17.86748">
        <ele>306.386993</ele>
        <time>2022-05-18T00:47:06.219Z</time>
      </trkpt>
      <trkpt lat="43.69158" lon="17.86799">
        <ele>305.800517</ele>
        <time>2022-05-18T00:47:18.257Z</time>
      </trkpt>
      <trkpt lat="43.69101" lon="17.86973">
        <ele>301.578433</ele>
        <time>2022-05-18T00:47:50.529Z</time>
      </trkpt>
      <trkpt lat="43.69093" lon="17.87073">
        <ele>296.976701</ele>
        <time>2022-05-18T00:48:05.270Z</time>
      </trkpt>
      <trkpt lat="43.69079" lon="17.87132">
        <ele>294.160906</ele>
        <time>2022-05-18T00:48:14.025Z</time>
      </trkpt>
      <trkpt lat="43.69046" lon="17.87178">
        <ele>291.47701</ele>
        <time>2022-05-18T00:48:22.947Z</time>
      </trkpt>
      <trkpt lat="43.6896" lon="17.87238">
        <ele>286.272015</ele>
        <time>2022-05-18T00:48:42.184Z</time>
      </trkpt>
      <trkpt lat="43.68915" lon="17.87246">
        <ele>283.856014</ele>
        <time>2022-05-18T00:48:52.701Z</time>
      </trkpt>
      <trkpt lat="43.68876" lon="17.87223">
        <ele>285.036243</ele>
        <time>2022-05-18T00:49:10.117Z</time>
      </trkpt>
      <trkpt lat="43.6882" lon="17.8715">
        <ele>289.020866</ele>
        <time>2022-05-18T00:49:57.948Z</time>
      </trkpt>
      <trkpt lat="43.68796" lon="17.87139">
        <ele>290.318007</ele>
        <time>2022-05-18T00:50:16.261Z</time>
      </trkpt>
      <trkpt lat="43.68763" lon="17.87139">
        <ele>292.016179</ele>
        <time>2022-05-18T00:50:43.832Z</time>
      </trkpt>
      <trkpt lat="43.68742" lon="17.87151">
        <ele>293.256527</ele>
        <time>2022-05-18T00:51:02.171Z</time>
      </trkpt>
      <trkpt lat="43.6872" lon="17.87174">
        <ele>294.85799</ele>
        <time>2022-05-18T00:51:20.967Z</time>
      </trkpt>
      <trkpt lat="43.68708" lon="17.87176">
        <ele>295.598644</ele>
        <time>2022-05-18T00:51:32.670Z</time>
      </trkpt>
      <trkpt lat="43.68703" lon="17.87183">
        <ele>296.014075</ele>
        <time>2022-05-18T00:51:36.904Z</time>
      </trkpt>
      <trkpt lat="43.6869" lon="17.87229">
        <ele>298.140226</ele>
        <time>2022-05-18T00:52:03.913Z</time>
      </trkpt>
      <trkpt lat="43.68693" lon="17.87343">
        <ele>303.00412</ele>
        <time>2022-05-18T00:52:54.528Z</time>
      </trkpt>
      <trkpt lat="43.68704" lon="17.87399">
        <ele>302.654494</ele>
        <time>2022-05-18T00:53:09.877Z</time>
      </trkpt>
      <trkpt lat="43.68701" lon="17.87455">
        <ele>302.100955</ele>
        <time>2022-05-18T00:53:20.078Z</time>
      </trkpt>
      <trkpt lat="43.68671" lon="17.87539">
        <ele>301.167112</ele>
        <time>2022-05-18T00:53:36.651Z</time>
      </trkpt>
      <trkpt lat="43.68647" lon="17.87569">
        <ele>300.715224</ele>
        <time>2022-05-18T00:53:44.587Z</time>
      </trkpt>
      <trkpt lat="43.68633" lon="17.87619">
        <ele>299.795099</ele>
        <time>2022-05-18T00:53:53.765Z</time>
      </trkpt>
      <trkpt lat="43.68633" lon="17.87634">
        <ele>299.52469</ele>
        <time>2022-05-18T00:53:56.208Z</time>
      </trkpt>
      <trkpt lat="43.68587" lon="17.87744">
        <ele>297.328257</ele>
        <time>2022-05-18T00:54:18.533Z</time>
      </trkpt>
      <trkpt lat="43.68531" lon="17.87922">
        <ele>294.577763</ele>
        <time>2022-05-18T00:54:54.711Z</time>
      </trkpt>
      <trkpt lat="43.68504" lon="17.88057">
        <ele>293.009233</ele>
        <time>2022-05-18T00:55:19.128Z</time>
      </trkpt>
      <trkpt lat="43.68487" lon="17.88221">
        <ele>292.13431</ele>
        <time>2022-05-18T00:55:50.525Z</time>
      </trkpt>
      <trkpt lat="43.68446" lon="17.88353">
        <ele>293.277409</ele>
        <time>2022-05-18T00:56:33.415Z</time>
      </trkpt>
      <trkpt lat="43.68434" lon="17.88408">
        <ele>294.141829</ele>
        <time>2022-05-18T00:56:52.644Z</time>
      </trkpt>
      <trkpt lat="43.68434" lon="17.88488">
        <ele>295.351955</ele>
        <time>2022-05-18T00:57:19.394Z</time>
      </trkpt>
      <trkpt lat="43.68462" lon="17.88581">
        <ele>295.462612</ele>
        <time>2022-05-18T00:57:51.021Z</time>
      </trkpt>
      <trkpt lat="43.68545" lon="17.88724">
        <ele>294.872023</ele>
        <time>2022-05-18T00:58:24.848Z</time>
      </trkpt>
      <trkpt lat="43.68567" lon="17.88769">
        <ele>294.079366</ele>
        <time>2022-05-18T00:58:34.356Z</time>
      </trkpt>
      <trkpt lat="43.68581" lon="17.88815">
        <ele>293.35108</ele>
        <time>2022-05-18T00:58:43.403Z</time>
      </trkpt>
      <trkpt lat="43.68592" lon="17.88875">
        <ele>292.446485</ele>
        <time>2022-05-18T00:58:55.188Z</time>
      </trkpt>
      <trkpt lat="43.68594" lon="17.88931">
        <ele>291.621233</ele>
        <time>2022-05-18T00:59:05.282Z</time>
      </trkpt>
      <trkpt lat="43.68584" lon="17.88988">
        <ele>289.507943</ele>
        <time>2022-05-18T00:59:14.813Z</time>
      </trkpt>
      <trkpt lat="43.68563" lon="17.8904">
        <ele>287.172473</ele>
        <time>2022-05-18T00:59:23.797Z</time>
      </trkpt>
      <trkpt lat="43.68533" lon="17.89084">
        <ele>284.746055</ele>
        <time>2022-05-18T00:59:32.782Z</time>
      </trkpt>
      <trkpt lat="43.68457" lon="17.89184">
        <ele>279.473051</ele>
        <time>2022-05-18T00:59:53.655Z</time>
      </trkpt>
      <trkpt lat="43.68438" lon="17.89212">
        <ele>278.193715</ele>
        <time>2022-05-18T00:59:59.364Z</time>
      </trkpt>
      <trkpt lat="43.68411" lon="17.89251">
        <ele>276.443576</ele>
        <time>2022-05-18T01:00:07.372Z</time>
      </trkpt>
      <trkpt lat="43.68404" lon="17.89264">
        <ele>275.890362</ele>
        <time>2022-05-18T01:00:09.964Z</time>
      </trkpt>
      <trkpt lat="43.68385" lon="17.89306">
        <ele>274.277494</ele>
        <time>2022-05-18T01:00:18.306Z</time>
      </trkpt>
      <trkpt lat="43.6838" lon="17.89322">
        <ele>273.692624</ele>
        <time>2022-05-18T01:00:21.998Z</time>
      </trkpt>
      <trkpt lat="43.68376" lon="17.89338">
        <ele>273.643562</ele>
        <time>2022-05-18T01:00:25.395Z</time>
      </trkpt>
      <trkpt lat="43.68364" lon="17.8941">
        <ele>275.00393</ele>
        <time>2022-05-18T01:00:46.802Z</time>
      </trkpt>
      <trkpt lat="43.68364" lon="17.89471">
        <ele>276.140243</ele>
        <time>2022-05-18T01:01:10.015Z</time>
      </trkpt>
      <trkpt lat="43.68383" lon="17.89599">
        <ele>278.554042</ele>
        <time>2022-05-18T01:02:01.180Z</time>
      </trkpt>
      <trkpt lat="43.68387" lon="17.89628">
        <ele>279.122333</ele>
        <time>2022-05-18T01:02:11.908Z</time>
      </trkpt>
      <trkpt lat="43.68395" lon="17.89713">
        <ele>280.765309</ele>
        <time>2022-05-18T01:02:40.734Z</time>
      </trkpt>
      <trkpt lat="43.68391" lon="17.89803">
        <ele>282.484891</ele>
        <time>2022-05-18T01:03:09.243Z</time>
      </trkpt>
      <trkpt lat="43.68376" lon="17.89877">
        <ele>282.680426</ele>
        <time>2022-05-18T01:03:30.442Z</time>
      </trkpt>
      <trkpt lat="43.68346" lon="17.89965">
        <ele>282.493932</ele>
        <time>2022-05-18T01:03:52.812Z</time>
      </trkpt>
      <trkpt lat="43.68233" lon="17.90261">
        <ele>278.365588</ele>
        <time>2022-05-18T01:04:52.824Z</time>
      </trkpt>
      <trkpt lat="43.68211" lon="17.90333">
        <ele>276.614412</ele>
        <time>2022-05-18T01:05:04.901Z</time>
      </trkpt>
      <trkpt lat="43.68187" lon="17.90403">
        <ele>274.827211</ele>
        <time>2022-05-18T01:05:17.143Z</time>
      </trkpt>
      <trkpt lat="43.68169" lon="17.90436">
        <ele>273.887472</ele>
        <time>2022-05-18T01:05:23.895Z</time>
      </trkpt>
      <trkpt lat="43.68137" lon="17.90474">
        <ele>272.602684</ele>
        <time>2022-05-18T01:05:34.198Z</time>
      </trkpt>
      <trkpt lat="43.68112" lon="17.90489">
        <ele>272.945357</ele>
        <time>2022-05-18T01:05:41.581Z</time>
      </trkpt>
      <trkpt lat="43.68099" lon="17.90496">
        <ele>273.122392</ele>
        <time>2022-05-18T01:05:45.601Z</time>
      </trkpt>
      <trkpt lat="43.68049" lon="17.90499">
        <ele>273.759389</ele>
        <time>2022-05-18T01:06:02.544Z</time>
      </trkpt>
      <trkpt lat="43.67954" lon="17.90489">
        <ele>275.067026</ele>
        <time>2022-05-18T01:06:48.923Z</time>
      </trkpt>
      <trkpt lat="43.67877" lon="17.90496">
        <ele>277.047095</ele>
        <time>2022-05-18T01:07:29.089Z</time>
      </trkpt>
      <trkpt lat="43.6782" lon="17.9051">
        <ele>278.545088</ele>
        <time>2022-05-18T01:07:55.149Z</time>
      </trkpt>
      <trkpt lat="43.67775" lon="17.90541">
        <ele>279.628661</ele>
        <time>2022-05-18T01:08:13.767Z</time>
      </trkpt>
      <trkpt lat="43.67689" lon="17.90652">
        <ele>280.848502</ele>
        <time>2022-05-18T01:08:54.264Z</time>
      </trkpt>
      <trkpt lat="43.67577" lon="17.90754">
        <ele>282.286236</ele>
        <time>2022-05-18T01:09:47.950Z</time>
      </trkpt>
      <trkpt lat="43.67528" lon="17.90821">
        <ele>283.054964</ele>
        <time>2022-05-18T01:10:14.945Z</time>
      </trkpt>
      <trkpt lat="43.67503" lon="17.90871">
        <ele>282.996785</ele>
        <time>2022-05-18T01:10:28.927Z</time>
      </trkpt>
      <trkpt lat="43.67489" lon="17.90914">
        <ele>282.363468</ele>
        <time>2022-05-18T01:10:38.517Z</time>
      </trkpt>
      <trkpt lat="43.67435" lon="17.91135">
        <ele>279.043046</ele>
        <time>2022-05-18T01:11:18.035Z</time>
      </trkpt>
      <trkpt lat="43.6741" lon="17.91214">
        <ele>277.596331</ele>
        <time>2022-05-18T01:11:32.340Z</time>
      </trkpt>
      <trkpt lat="43.67394" lon="17.91244">
        <ele>276.965812</ele>
        <time>2022-05-18T01:11:38.817Z</time>
      </trkpt>
      <trkpt lat="43.67351" lon="17.91286">
        <ele>275.830658</ele>
        <time>2022-05-18T01:11:51.707Z</time>
      </trkpt>
      <trkpt lat="43.67232" lon="17.91333">
        <ele>276.413124</ele>
        <time>2022-05-18T01:12:32.907Z</time>
      </trkpt>
      <trkpt lat="43.6721" lon="17.91349">
        <ele>276.532084</ele>
        <time>2022-05-18T01:12:43.111Z</time>
      </trkpt>
      <trkpt lat="43.67209" lon="17.91349">
        <ele>276.533831</ele>
        <time>2022-05-18T01:12:43.251Z</time>
      </trkpt>
      <trkpt lat="43.67175" lon="17.91401">
        <ele>277.132826</ele>
        <time>2022-05-18T01:13:04.185Z</time>
      </trkpt>
      <trkpt lat="43.67164" lon="17.91445">
        <ele>277.806674</ele>
        <time>2022-05-18T01:13:18.244Z</time>
      </trkpt>
      <trkpt lat="43.67162" lon="17.91472">
        <ele>278.201565</ele>
        <time>2022-05-18T01:13:26.516Z</time>
      </trkpt>
      <trkpt lat="43.67155" lon="17.9159">
        <ele>279.920761</ele>
        <time>2022-05-18T01:14:05.251Z</time>
      </trkpt>
      <trkpt lat="43.67143" lon="17.91664">
        <ele>280.549663</ele>
        <time>2022-05-18T01:14:27.845Z</time>
      </trkpt>
      <trkpt lat="43.67116" lon="17.91742">
        <ele>281.014693</ele>
        <time>2022-05-18T01:14:47.204Z</time>
      </trkpt>
      <trkpt lat="43.67041" lon="17.91897">
        <ele>282.017857</ele>
        <time>2022-05-18T01:15:33.181Z</time>
      </trkpt>
      <trkpt lat="43.67016" lon="17.91964">
        <ele>282.412927</ele>
        <time>2022-05-18T01:15:51.992Z</time>
      </trkpt>
      <trkpt lat="43.66988" lon="17.92085">
        <ele>283.171667</ele>
        <time>2022-05-18T01:16:25.606Z</time>
      </trkpt>
      <trkpt lat="43.66909" lon="17.92542">
        <ele>286.967963</ele>
        <time>2022-05-18T01:18:34.375Z</time>
      </trkpt>
      <trkpt lat="43.66881" lon="17.92669">
        <ele>287.205774</ele>
        <time>2022-05-18T01:19:05.465Z</time>
      </trkpt>
      <trkpt lat="43.66855" lon="17.92738">
        <ele>287.345326</ele>
        <time>2022-05-18T01:19:22.400Z</time>
      </trkpt>
      <trkpt lat="43.6679" lon="17.92883">
        <ele>288.428992</ele>
        <time>2022-05-18T01:20:02.490Z</time>
      </trkpt>
      <trkpt lat="43.66657" lon="17.93158">
        <ele>292.551672</ele>
        <time>2022-05-18T01:21:44.365Z</time>
      </trkpt>
      <trkpt lat="43.66586" lon="17.93279">
        <ele>294.732742</ele>
        <time>2022-05-18T01:22:33.894Z</time>
      </trkpt>
      <trkpt lat="43.66562" lon="17.93334">
        <ele>295.608799</ele>
        <time>2022-05-18T01:22:53.366Z</time>
      </trkpt>
      <trkpt lat="43.66536" lon="17.93416">
        <ele>296.542883</ele>
        <time>2022-05-18T01:23:19.463Z</time>
      </trkpt>
      <trkpt lat="43.66429" lon="17.93929">
        <ele>295.535938</ele>
        <time>2022-05-18T01:25:24.783Z</time>
      </trkpt>
      <trkpt lat="43.66422" lon="17.93976">
        <ele>294.039959</ele>
        <time>2022-05-18T01:25:32.290Z</time>
      </trkpt>
      <trkpt lat="43.6642" lon="17.94122">
        <ele>289.37371</ele>
        <time>2022-05-18T01:25:53.853Z</time>
      </trkpt>
      <trkpt lat="43.66414" lon="17.94174">
        <ele>286.929363</ele>
        <time>2022-05-18T01:26:01.330Z</time>
      </trkpt>
      <trkpt lat="43.66392" lon="17.94236">
        <ele>283.72767</ele>
        <time>2022-05-18T01:26:11.218Z</time>
      </trkpt>
      <trkpt lat="43.66351" lon="17.94298">
        <ele>279.805943</ele>
        <time>2022-05-18T01:26:23.627Z</time>
      </trkpt>
      <trkpt lat="43.66285" lon="17.94385">
        <ele>276.99821</ele>
        <time>2022-05-18T01:26:43.404Z</time>
      </trkpt>
      <trkpt lat="43.6624" lon="17.9442">
        <ele>275.967215</ele>
        <time>2022-05-18T01:26:55.897Z</time>
      </trkpt>
      <trkpt lat="43.66181" lon="17.94438">
        <ele>274.794772</ele>
        <time>2022-05-18T01:27:16.524Z</time>
      </trkpt>
      <trkpt lat="43.66103" lon="17.94436">
        <ele>277.180657</ele>
        <time>2022-05-18T01:27:51.739Z</time>
      </trkpt>
      <trkpt lat="43.66099" lon="17.94436">
        <ele>277.303544</ele>
        <time>2022-05-18T01:27:53.961Z</time>
      </trkpt>
      <trkpt lat="43.66072" lon="17.94443">
        <ele>278.163265</ele>
        <time>2022-05-18T01:28:08.233Z</time>
      </trkpt>
      <trkpt lat="43.66033" lon="17.9447">
        <ele>279.496687</ele>
        <time>2022-05-18T01:28:31.447Z</time>
      </trkpt>
      <trkpt lat="43.65992" lon="17.94529">
        <ele>281.456871</ele>
        <time>2022-05-18T01:29:04.160Z</time>
      </trkpt>
      <trkpt lat="43.65991" lon="17.94531">
        <ele>281.530998</ele>
        <time>2022-05-18T01:29:05.276Z</time>
      </trkpt>
      <trkpt lat="43.65963" lon="17.94574">
        <ele>282.989015</ele>
        <time>2022-05-18T01:29:28.821Z</time>
      </trkpt>
      <trkpt lat="43.65927" lon="17.94614">
        <ele>284.574558</ele>
        <time>2022-05-18T01:29:52.377Z</time>
      </trkpt>
      <trkpt lat="43.65781" lon="17.94729">
        <ele>287.44107</ele>
        <time>2022-05-18T01:31:06.403Z</time>
      </trkpt>
      <trkpt lat="43.65745" lon="17.94783">
        <ele>287.844456</ele>
        <time>2022-05-18T01:31:20.067Z</time>
      </trkpt>
      <trkpt lat="43.65711" lon="17.94858">
        <ele>286.985534</ele>
        <time>2022-05-18T01:31:35.956Z</time>
      </trkpt>
      <trkpt lat="43.65685" lon="17.94928">
        <ele>285.844753</ele>
        <time>2022-05-18T01:31:50.124Z</time>
      </trkpt>
      <trkpt lat="43.65663" lon="17.94997">
        <ele>284.744739</ele>
        <time>2022-05-18T01:32:03.340Z</time>
      </trkpt>
      <trkpt lat="43.65652" lon="17.95038">
        <ele>284.213674</ele>
        <time>2022-05-18T01:32:10.819Z</time>
      </trkpt>
      <trkpt lat="43.65647" lon="17.95058">
        <ele>284.038611</ele>
        <time>2022-05-18T01:32:14.410Z</time>
      </trkpt>
      <trkpt lat="43.6564" lon="17.95116">
        <ele>283.553088</ele>
        <time>2022-05-18T01:32:24.832Z</time>
      </trkpt>
      <trkpt lat="43.6564" lon="17.95124">
        <ele>283.492394</ele>
        <time>2022-05-18T01:32:26.314Z</time>
      </trkpt>
      <trkpt lat="43.65636" lon="17.95188">
        <ele>282.960778</ele>
        <time>2022-05-18T01:32:39.381Z</time>
      </trkpt>
      <trkpt lat="43.65634" lon="17.95228">
        <ele>282.624602</ele>
        <time>2022-05-18T01:32:49.262Z</time>
      </trkpt>
      <trkpt lat="43.65622" lon="17.95342">
        <ele>282.311407</ele>
        <time>2022-05-18T01:33:13.120Z</time>
      </trkpt>
      <trkpt lat="43.65617" lon="17.9536">
        <ele>282.316173</ele>
        <time>2022-05-18T01:33:16.994Z</time>
      </trkpt>
      <trkpt lat="43.65615" lon="17.95368">
        <ele>282.31826</ele>
        <time>2022-05-18T01:33:18.681Z</time>
      </trkpt>
      <trkpt lat="43.65613" lon="17.95376">
        <ele>282.320275</ele>
        <time>2022-05-18T01:33:20.235Z</time>
      </trkpt>
      <trkpt lat="43.65585" lon="17.95461">
        <ele>282.343197</ele>
        <time>2022-05-18T01:33:41.504Z</time>
      </trkpt>
      <trkpt lat="43.65575" lon="17.95489">
        <ele>282.350917</ele>
        <time>2022-05-18T01:33:49.746Z</time>
      </trkpt>
      <trkpt lat="43.65561" lon="17.95524">
        <ele>282.527671</ele>
        <time>2022-05-18T01:34:00.722Z</time>
      </trkpt>
      <trkpt lat="43.65472" lon="17.95761">
        <ele>283.650817</ele>
        <time>2022-05-18T01:35:12.313Z</time>
      </trkpt>
      <trkpt lat="43.65464" lon="17.95782">
        <ele>283.49187</ele>
        <time>2022-05-18T01:35:16.878Z</time>
      </trkpt>
      <trkpt lat="43.65455" lon="17.95813">
        <ele>283.264718</ele>
        <time>2022-05-18T01:35:23.298Z</time>
      </trkpt>
      <trkpt lat="43.65451" lon="17.95826">
        <ele>283.171852</ele>
        <time>2022-05-18T01:35:25.782Z</time>
      </trkpt>
      <trkpt lat="43.65448" lon="17.95838">
        <ele>283.087515</ele>
        <time>2022-05-18T01:35:28.136Z</time>
      </trkpt>
      <trkpt lat="43.65444" lon="17.95855">
        <ele>282.964924</ele>
        <time>2022-05-18T01:35:31.537Z</time>
      </trkpt>
      <trkpt lat="43.65437" lon="17.95892">
        <ele>282.705982</ele>
        <time>2022-05-18T01:35:38.483Z</time>
      </trkpt>
      <trkpt lat="43.65428" lon="17.9594">
        <ele>282.376807</ele>
        <time>2022-05-18T01:35:47.355Z</time>
      </trkpt>
      <trkpt lat="43.65426" lon="17.95981">
        <ele>281.988022</ele>
        <time>2022-05-18T01:35:55.198Z</time>
      </trkpt>
      <trkpt lat="43.65426" lon="17.95986">
        <ele>281.933188</ele>
        <time>2022-05-18T01:35:56.049Z</time>
      </trkpt>
      <trkpt lat="43.65423" lon="17.95988">
        <ele>281.869307</ele>
        <time>2022-05-18T01:35:57.187Z</time>
      </trkpt>
      <trkpt lat="43.65416" lon="17.96009">
        <ele>281.6215</ele>
        <time>2022-05-18T01:36:01.648Z</time>
      </trkpt>
      <trkpt lat="43.65382" lon="17.96033">
        <ele>281.049501</ele>
        <time>2022-05-18T01:36:12.068Z</time>
      </trkpt>
      <trkpt lat="43.6536" lon="17.9604">
        <ele>280.706686</ele>
        <time>2022-05-18T01:36:18.120Z</time>
      </trkpt>
      <trkpt lat="43.65327" lon="17.96039">
        <ele>280.215509</ele>
        <time>2022-05-18T01:36:27.042Z</time>
      </trkpt>
      <trkpt lat="43.65305" lon="17.96027">
        <ele>279.859931</ele>
        <time>2022-05-18T01:36:33.309Z</time>
      </trkpt>
      <trkpt lat="43.65294" lon="17.96035">
        <ele>279.673168</ele>
        <time>2022-05-18T01:36:36.361Z</time>
      </trkpt>
      <trkpt lat="43.65253" lon="17.96057">
        <ele>279.573569</ele>
        <time>2022-05-18T01:36:47.702Z</time>
      </trkpt>
      <trkpt lat="43.65214" lon="17.9607">
        <ele>279.573569</ele>
        <time>2022-05-18T01:36:57.836Z</time>
      </trkpt>
      <trkpt lat="43.65186" lon="17.96096">
        <ele>279.573569</ele>
        <time>2022-05-18T01:37:06.387Z</time>
      </trkpt>
      <trkpt lat="43.65178" lon="17.9611">
        <ele>279.573569</ele>
        <time>2022-05-18T01:37:09.421Z</time>
      </trkpt>
      <trkpt lat="43.65151" lon="17.96159">
        <ele>279.573569</ele>
        <time>2022-05-18T01:37:19.807Z</time>
      </trkpt>
      <trkpt lat="43.65142" lon="17.96171">
        <ele>279.573569</ele>
        <time>2022-05-18T01:37:22.940Z</time>
      </trkpt>
      <trkpt lat="43.65139" lon="17.96175">
        <ele>279.573569</ele>
        <time>2022-05-18T01:37:23.764Z</time>
      </trkpt>
      <trkpt lat="43.65126" lon="17.9619">
        <ele>279.573569</ele>
        <time>2022-05-18T01:37:27.745Z</time>
      </trkpt>
      <trkpt lat="43.65108" lon="17.96201">
        <ele>279.573569</ele>
        <time>2022-05-18T01:37:32.433Z</time>
      </trkpt>
    </trkseg>
  </trk>
  <trk>
    <name><![CDATA[3bis_Dubrovnik à Sarajevo_272km (Ćiro)_5days - Jour 5 - De Konjic à Drvenija]]></name>
    <extensions>
      <line xmlns="http://www.topografix.com/GPX/gpx_style/0/2">
        <color>008888</color>
        <width>4</width>
      </line>
    </extensions>
    <trkseg>
      <trkpt lat="43.65108" lon="17.96201">
        <ele>281.728094</ele>
        <time>2022-05-17T19:09:51.584Z</time>
      </trkpt>
      <trkpt lat="43.65096" lon="17.96208">
        <ele>281.728094</ele>
        <time>2022-05-17T19:09:58.458Z</time>
      </trkpt>
      <trkpt lat="43.651" lon="17.96229">
        <ele>281.728094</ele>
        <time>2022-05-17T19:10:09.113Z</time>
      </trkpt>
      <trkpt lat="43.6512" lon="17.96312">
        <ele>281.801154</ele>
        <time>2022-05-17T19:10:50.663Z</time>
      </trkpt>
      <trkpt lat="43.65122" lon="17.96325">
        <ele>282.083504</ele>
        <time>2022-05-17T19:10:57.507Z</time>
      </trkpt>
      <trkpt lat="43.65123" lon="17.96333">
        <ele>282.241005</ele>
        <time>2022-05-17T19:11:01.373Z</time>
      </trkpt>
      <trkpt lat="43.6514" lon="17.96332">
        <ele>282.747314</ele>
        <time>2022-05-17T19:11:09.632Z</time>
      </trkpt>
      <trkpt lat="43.65188" lon="17.96337">
        <ele>284.109862</ele>
        <time>2022-05-17T19:11:34.707Z</time>
      </trkpt>
      <trkpt lat="43.65203" lon="17.9634">
        <ele>284.560965</ele>
        <time>2022-05-17T19:11:42.856Z</time>
      </trkpt>
      <trkpt lat="43.65209" lon="17.9634">
        <ele>284.732572</ele>
        <time>2022-05-17T19:11:45.561Z</time>
      </trkpt>
      <trkpt lat="43.65255" lon="17.96332">
        <ele>286.050854</ele>
        <time>2022-05-17T19:12:05.891Z</time>
      </trkpt>
      <trkpt lat="43.65331" lon="17.96296">
        <ele>288.824725</ele>
        <time>2022-05-17T19:12:33.300Z</time>
      </trkpt>
      <trkpt lat="43.65341" lon="17.96291">
        <ele>289.197716</ele>
        <time>2022-05-17T19:12:36.986Z</time>
      </trkpt>
      <trkpt lat="43.65379" lon="17.96282">
        <ele>290.638939</ele>
        <time>2022-05-17T19:12:51.703Z</time>
      </trkpt>
      <trkpt lat="43.65417" lon="17.96285">
        <ele>292.092416</ele>
        <time>2022-05-17T19:13:14.021Z</time>
      </trkpt>
      <trkpt lat="43.65424" lon="17.96287">
        <ele>292.34055</ele>
        <time>2022-05-17T19:13:18.482Z</time>
      </trkpt>
      <trkpt lat="43.65457" lon="17.96295">
        <ele>293.614736</ele>
        <time>2022-05-17T19:13:44.592Z</time>
      </trkpt>
      <trkpt lat="43.65488" lon="17.96295">
        <ele>296.378173</ele>
        <time>2022-05-17T19:14:11.442Z</time>
      </trkpt>
      <trkpt lat="43.65514" lon="17.96288">
        <ele>298.679243</ele>
        <time>2022-05-17T19:14:33.662Z</time>
      </trkpt>
      <trkpt lat="43.6552" lon="17.96298">
        <ele>299.519347</ele>
        <time>2022-05-17T19:14:43.515Z</time>
      </trkpt>
      <trkpt lat="43.65573" lon="17.96365">
        <ele>305.857052</ele>
        <time>2022-05-17T19:15:46.527Z</time>
      </trkpt>
      <trkpt lat="43.65579" lon="17.96372">
        <ele>306.509755</ele>
        <time>2022-05-17T19:15:51.849Z</time>
      </trkpt>
      <trkpt lat="43.65623" lon="17.96429">
        <ele>310.53438</ele>
        <time>2022-05-17T19:16:35.235Z</time>
      </trkpt>
      <trkpt lat="43.65658" lon="17.96522">
        <ele>313.383426</ele>
        <time>2022-05-17T19:17:19.540Z</time>
      </trkpt>
      <trkpt lat="43.6568" lon="17.96565">
        <ele>314.818354</ele>
        <time>2022-05-17T19:17:33.287Z</time>
      </trkpt>
      <trkpt lat="43.65704" lon="17.966">
        <ele>316.140713</ele>
        <time>2022-05-17T19:17:44.574Z</time>
      </trkpt>
      <trkpt lat="43.65948" lon="17.96926">
        <ele>321.446018</ele>
        <time>2022-05-17T19:20:02.889Z</time>
      </trkpt>
      <trkpt lat="43.66001" lon="17.97038">
        <ele>321.904006</ele>
        <time>2022-05-17T19:20:36.375Z</time>
      </trkpt>
      <trkpt lat="43.66035" lon="17.97089">
        <ele>321.970556</ele>
        <time>2022-05-17T19:20:50.206Z</time>
      </trkpt>
      <trkpt lat="43.66049" lon="17.97103">
        <ele>321.992612</ele>
        <time>2022-05-17T19:20:55.710Z</time>
      </trkpt>
      <trkpt lat="43.66091" lon="17.97136">
        <ele>322.02057</ele>
        <time>2022-05-17T19:21:11.281Z</time>
      </trkpt>
      <trkpt lat="43.66123" lon="17.97162">
        <ele>321.892532</ele>
        <time>2022-05-17T19:21:23.023Z</time>
      </trkpt>
      <trkpt lat="43.66146" lon="17.97189">
        <ele>321.78944</ele>
        <time>2022-05-17T19:21:31.983Z</time>
      </trkpt>
      <trkpt lat="43.66181" lon="17.97236">
        <ele>321.622046</ele>
        <time>2022-05-17T19:21:45.824Z</time>
      </trkpt>
      <trkpt lat="43.66255" lon="17.97297">
        <ele>321.260044</ele>
        <time>2022-05-17T19:22:10.478Z</time>
      </trkpt>
      <trkpt lat="43.66321" lon="17.97367">
        <ele>320.781529</ele>
        <time>2022-05-17T19:22:33.127Z</time>
      </trkpt>
      <trkpt lat="43.66383" lon="17.97397">
        <ele>320.405914</ele>
        <time>2022-05-17T19:22:49.513Z</time>
      </trkpt>
      <trkpt lat="43.66435" lon="17.97435">
        <ele>322.716773</ele>
        <time>2022-05-17T19:23:17.496Z</time>
      </trkpt>
      <trkpt lat="43.66471" lon="17.97463">
        <ele>324.364922</ele>
        <time>2022-05-17T19:23:41.093Z</time>
      </trkpt>
      <trkpt lat="43.66505" lon="17.97498">
        <ele>326.066177</ele>
        <time>2022-05-17T19:24:07.430Z</time>
      </trkpt>
      <trkpt lat="43.66526" lon="17.97545">
        <ele>327.626244</ele>
        <time>2022-05-17T19:24:33.677Z</time>
      </trkpt>
      <trkpt lat="43.66541" lon="17.97631">
        <ele>328.991185</ele>
        <time>2022-05-17T19:25:14.721Z</time>
      </trkpt>
      <trkpt lat="43.66551" lon="17.97665">
        <ele>329.557671</ele>
        <time>2022-05-17T19:25:29.802Z</time>
      </trkpt>
      <trkpt lat="43.66617" lon="17.97754">
        <ele>331.115673</ele>
        <time>2022-05-17T19:25:59.547Z</time>
      </trkpt>
      <trkpt lat="43.66648" lon="17.97778">
        <ele>328.730322</ele>
        <time>2022-05-17T19:26:06.787Z</time>
      </trkpt>
      <trkpt lat="43.66669" lon="17.97786">
        <ele>327.275456</ele>
        <time>2022-05-17T19:26:10.999Z</time>
      </trkpt>
      <trkpt lat="43.6674" lon="17.97795">
        <ele>322.512783</ele>
        <time>2022-05-17T19:26:24.728Z</time>
      </trkpt>
      <trkpt lat="43.66821" lon="17.97821">
        <ele>318.59277</ele>
        <time>2022-05-17T19:26:41.181Z</time>
      </trkpt>
      <trkpt lat="43.66866" lon="17.97844">
        <ele>317.58533</ele>
        <time>2022-05-17T19:26:51.572Z</time>
      </trkpt>
      <trkpt lat="43.66898" lon="17.97868">
        <ele>316.822444</ele>
        <time>2022-05-17T19:27:00.245Z</time>
      </trkpt>
      <trkpt lat="43.66948" lon="17.97911">
        <ele>315.610875</ele>
        <time>2022-05-17T19:27:23.693Z</time>
      </trkpt>
      <trkpt lat="43.66978" lon="17.97946">
        <ele>319.283633</ele>
        <time>2022-05-17T19:27:51.838Z</time>
      </trkpt>
      <trkpt lat="43.6699" lon="17.97969">
        <ele>321.198325</ele>
        <time>2022-05-17T19:28:08.252Z</time>
      </trkpt>
      <trkpt lat="43.67014" lon="17.98026">
        <ele>325.661633</ele>
        <time>2022-05-17T19:28:50.656Z</time>
      </trkpt>
      <trkpt lat="43.67055" lon="17.98172">
        <ele>336.377882</ele>
        <time>2022-05-17T19:30:45.820Z</time>
      </trkpt>
      <trkpt lat="43.67111" lon="17.98373">
        <ele>349.91865</ele>
        <time>2022-05-17T19:32:54.293Z</time>
      </trkpt>
      <trkpt lat="43.67133" lon="17.9841">
        <ele>350.567227</ele>
        <time>2022-05-17T19:33:11.518Z</time>
      </trkpt>
      <trkpt lat="43.67172" lon="17.98436">
        <ele>351.382885</ele>
        <time>2022-05-17T19:33:29.059Z</time>
      </trkpt>
      <trkpt lat="43.67242" lon="17.98461">
        <ele>352.736563</ele>
        <time>2022-05-17T19:33:49.534Z</time>
      </trkpt>
      <trkpt lat="43.67357" lon="17.98542">
        <ele>350.874709</ele>
        <time>2022-05-17T19:34:21.082Z</time>
      </trkpt>
      <trkpt lat="43.67391" lon="17.98555">
        <ele>350.249983</ele>
        <time>2022-05-17T19:34:30.077Z</time>
      </trkpt>
      <trkpt lat="43.67419" lon="17.98557">
        <ele>349.733157</ele>
        <time>2022-05-17T19:34:37.518Z</time>
      </trkpt>
      <trkpt lat="43.67448" lon="17.98568">
        <ele>348.808047</ele>
        <time>2022-05-17T19:34:46.280Z</time>
      </trkpt>
      <trkpt lat="43.6752" lon="17.98568">
        <ele>346.621975</ele>
        <time>2022-05-17T19:35:02.842Z</time>
      </trkpt>
      <trkpt lat="43.67557" lon="17.98592">
        <ele>345.353964</ele>
        <time>2022-05-17T19:35:12.168Z</time>
      </trkpt>
      <trkpt lat="43.67587" lon="17.98599">
        <ele>344.430107</ele>
        <time>2022-05-17T19:35:19.246Z</time>
      </trkpt>
      <trkpt lat="43.67654" lon="17.98574">
        <ele>344.522495</ele>
        <time>2022-05-17T19:35:37.585Z</time>
      </trkpt>
      <trkpt lat="43.67748" lon="17.98542">
        <ele>344.974773</ele>
        <time>2022-05-17T19:36:13.314Z</time>
      </trkpt>
      <trkpt lat="43.67798" lon="17.98567">
        <ele>346.822938</ele>
        <time>2022-05-17T19:36:42.321Z</time>
      </trkpt>
      <trkpt lat="43.67885" lon="17.98639">
        <ele>352.258699</ele>
        <time>2022-05-17T19:37:55.589Z</time>
      </trkpt>
      <trkpt lat="43.6794" lon="17.98669">
        <ele>354.882576</ele>
        <time>2022-05-17T19:38:29.417Z</time>
      </trkpt>
      <trkpt lat="43.67989" lon="17.98684">
        <ele>355.646825</ele>
        <time>2022-05-17T19:38:51.161Z</time>
      </trkpt>
      <trkpt lat="43.68031" lon="17.98687">
        <ele>356.277949</ele>
        <time>2022-05-17T19:39:07.451Z</time>
      </trkpt>
      <trkpt lat="43.68085" lon="17.98677">
        <ele>357.102309</ele>
        <time>2022-05-17T19:39:26.290Z</time>
      </trkpt>
      <trkpt lat="43.68189" lon="17.9864">
        <ele>356.350222</ele>
        <time>2022-05-17T19:39:54.695Z</time>
      </trkpt>
      <trkpt lat="43.68224" lon="17.98634">
        <ele>355.93082</ele>
        <time>2022-05-17T19:40:04.094Z</time>
      </trkpt>
      <trkpt lat="43.68467" lon="17.98655">
        <ele>352.499254</ele>
        <time>2022-05-17T19:41:06.667Z</time>
      </trkpt>
      <trkpt lat="43.68578" lon="17.98655">
        <ele>351.501517</ele>
        <time>2022-05-17T19:41:34.593Z</time>
      </trkpt>
      <trkpt lat="43.68617" lon="17.98642">
        <ele>351.141183</ele>
        <time>2022-05-17T19:41:45.646Z</time>
      </trkpt>
      <trkpt lat="43.68724" lon="17.98576">
        <ele>354.301357</ele>
        <time>2022-05-17T19:42:32.054Z</time>
      </trkpt>
      <trkpt lat="43.68804" lon="17.98556">
        <ele>357.16341</ele>
        <time>2022-05-17T19:43:23.114Z</time>
      </trkpt>
      <trkpt lat="43.68896" lon="17.98539">
        <ele>362.550222</ele>
        <time>2022-05-17T19:44:31.509Z</time>
      </trkpt>
      <trkpt lat="43.68964" lon="17.98546">
        <ele>366.51888</ele>
        <time>2022-05-17T19:45:13.383Z</time>
      </trkpt>
      <trkpt lat="43.6901" lon="17.98561">
        <ele>368.371016</ele>
        <time>2022-05-17T19:45:38.340Z</time>
      </trkpt>
      <trkpt lat="43.69063" lon="17.98566">
        <ele>369.605236</ele>
        <time>2022-05-17T19:46:00.810Z</time>
      </trkpt>
      <trkpt lat="43.69067" lon="17.98565">
        <ele>369.689458</ele>
        <time>2022-05-17T19:46:01.603Z</time>
      </trkpt>
      <trkpt lat="43.69091" lon="17.9856">
        <ele>370.259219</ele>
        <time>2022-05-17T19:46:13.045Z</time>
      </trkpt>
      <trkpt lat="43.69195" lon="17.98517">
        <ele>372.768746</ele>
        <time>2022-05-17T19:46:56.583Z</time>
      </trkpt>
      <trkpt lat="43.69207" lon="17.98513">
        <ele>373.066431</ele>
        <time>2022-05-17T19:47:01.304Z</time>
      </trkpt>
      <trkpt lat="43.69245" lon="17.98508">
        <ele>373.983933</ele>
        <time>2022-05-17T19:47:18.820Z</time>
      </trkpt>
      <trkpt lat="43.69366" lon="17.9852">
        <ele>377.090143</ele>
        <time>2022-05-17T19:48:14.653Z</time>
      </trkpt>
      <trkpt lat="43.6944" lon="17.98528">
        <ele>379.467411</ele>
        <time>2022-05-17T19:48:51.637Z</time>
      </trkpt>
      <trkpt lat="43.69502" lon="17.98561">
        <ele>381.574503</ele>
        <time>2022-05-17T19:49:25.406Z</time>
      </trkpt>
      <trkpt lat="43.69575" lon="17.98602">
        <ele>383.610422</ele>
        <time>2022-05-17T19:50:03.672Z</time>
      </trkpt>
      <trkpt lat="43.69599" lon="17.98619">
        <ele>384.266925</ele>
        <time>2022-05-17T19:50:16.149Z</time>
      </trkpt>
      <trkpt lat="43.6964" lon="17.98654">
        <ele>385.445058</ele>
        <time>2022-05-17T19:50:39.015Z</time>
      </trkpt>
      <trkpt lat="43.69725" lon="17.98711">
        <ele>386.667768</ele>
        <time>2022-05-17T19:51:12.326Z</time>
      </trkpt>
      <trkpt lat="43.69756" lon="17.98753">
        <ele>386.894301</ele>
        <time>2022-05-17T19:51:24.699Z</time>
      </trkpt>
      <trkpt lat="43.69817" lon="17.98882">
        <ele>388.252916</ele>
        <time>2022-05-17T19:52:01.263Z</time>
      </trkpt>
      <trkpt lat="43.69913" lon="17.99173">
        <ele>394.921187</ele>
        <time>2022-05-17T19:54:02.342Z</time>
      </trkpt>
      <trkpt lat="43.69928" lon="17.99209">
        <ele>395.723308</ele>
        <time>2022-05-17T19:54:17.099Z</time>
      </trkpt>
      <trkpt lat="43.69948" lon="17.9924">
        <ele>396.533085</ele>
        <time>2022-05-17T19:54:30.827Z</time>
      </trkpt>
      <trkpt lat="43.69971" lon="17.99264">
        <ele>397.319607</ele>
        <time>2022-05-17T19:54:42.513Z</time>
      </trkpt>
      <trkpt lat="43.70009" lon="17.99285">
        <ele>397.271572</ele>
        <time>2022-05-17T19:54:55.160Z</time>
      </trkpt>
      <trkpt lat="43.70075" lon="17.99298">
        <ele>396.766057</ele>
        <time>2022-05-17T19:55:12.229Z</time>
      </trkpt>
      <trkpt lat="43.70128" lon="17.99298">
        <ele>396.361622</ele>
        <time>2022-05-17T19:55:25.934Z</time>
      </trkpt>
      <trkpt lat="43.70147" lon="17.99296">
        <ele>396.216433</ele>
        <time>2022-05-17T19:55:30.820Z</time>
      </trkpt>
      <trkpt lat="43.70152" lon="17.99295">
        <ele>396.184567</ele>
        <time>2022-05-17T19:55:32.004Z</time>
      </trkpt>
      <trkpt lat="43.70182" lon="17.99285">
        <ele>396.423203</ele>
        <time>2022-05-17T19:55:40.596Z</time>
      </trkpt>
      <trkpt lat="43.70316" lon="17.99242">
        <ele>397.711744</ele>
        <time>2022-05-17T19:56:30.808Z</time>
      </trkpt>
      <trkpt lat="43.70332" lon="17.99237">
        <ele>397.913781</ele>
        <time>2022-05-17T19:56:39.263Z</time>
      </trkpt>
      <trkpt lat="43.70339" lon="17.99236">
        <ele>398.13759</ele>
        <time>2022-05-17T19:56:43.024Z</time>
      </trkpt>
      <trkpt lat="43.70383" lon="17.99231">
        <ele>399.570084</ele>
        <time>2022-05-17T19:57:05.591Z</time>
      </trkpt>
      <trkpt lat="43.7042" lon="17.99241">
        <ele>400.813838</ele>
        <time>2022-05-17T19:57:23.533Z</time>
      </trkpt>
      <trkpt lat="43.70488" lon="17.99287">
        <ele>403.272974</ele>
        <time>2022-05-17T19:57:59.197Z</time>
      </trkpt>
      <trkpt lat="43.70528" lon="17.99307">
        <ele>405.584838</ele>
        <time>2022-05-17T19:58:23.900Z</time>
      </trkpt>
      <trkpt lat="43.70561" lon="17.99304">
        <ele>407.624571</ele>
        <time>2022-05-17T19:58:44.854Z</time>
      </trkpt>
      <trkpt lat="43.70591" lon="17.99285">
        <ele>409.715773</ele>
        <time>2022-05-17T19:59:09.289Z</time>
      </trkpt>
      <trkpt lat="43.70616" lon="17.99244">
        <ele>412.19307</ele>
        <time>2022-05-17T19:59:40.789Z</time>
      </trkpt>
      <trkpt lat="43.70675" lon="17.99072">
        <ele>418.566017</ele>
        <time>2022-05-17T20:01:09.450Z</time>
      </trkpt>
      <trkpt lat="43.70696" lon="17.99054">
        <ele>419.51366</ele>
        <time>2022-05-17T20:01:21.190Z</time>
      </trkpt>
      <trkpt lat="43.7071" lon="17.99062">
        <ele>420.071137</ele>
        <time>2022-05-17T20:01:30.425Z</time>
      </trkpt>
      <trkpt lat="43.7072" lon="17.9908">
        <ele>420.692362</ele>
        <time>2022-05-17T20:01:34.638Z</time>
      </trkpt>
      <trkpt lat="43.70721" lon="17.99098">
        <ele>421.189366</ele>
        <time>2022-05-17T20:01:41.007Z</time>
      </trkpt>
      <trkpt lat="43.70698" lon="17.9917">
        <ele>422.343508</ele>
        <time>2022-05-17T20:01:57.199Z</time>
      </trkpt>
      <trkpt lat="43.70698" lon="17.99214">
        <ele>422.704263</ele>
        <time>2022-05-17T20:02:05.876Z</time>
      </trkpt>
      <trkpt lat="43.70715" lon="17.99245">
        <ele>423.025441</ele>
        <time>2022-05-17T20:02:13.652Z</time>
      </trkpt>
      <trkpt lat="43.70748" lon="17.99264">
        <ele>423.438263</ele>
        <time>2022-05-17T20:02:24.696Z</time>
      </trkpt>
      <trkpt lat="43.70837" lon="17.99298">
        <ele>427.140503</ele>
        <time>2022-05-17T20:03:16.332Z</time>
      </trkpt>
      <trkpt lat="43.70857" lon="17.9931">
        <ele>428.618988</ele>
        <time>2022-05-17T20:03:29.436Z</time>
      </trkpt>
      <trkpt lat="43.70926" lon="17.99387">
        <ele>434.704465</ele>
        <time>2022-05-17T20:04:38.613Z</time>
      </trkpt>
      <trkpt lat="43.70966" lon="17.99416">
        <ele>438.110123</ele>
        <time>2022-05-17T20:05:15.608Z</time>
      </trkpt>
      <trkpt lat="43.70998" lon="17.99419">
        <ele>440.682648</ele>
        <time>2022-05-17T20:05:40.526Z</time>
      </trkpt>
      <trkpt lat="43.7106" lon="17.99394">
        <ele>445.903338</ele>
        <time>2022-05-17T20:06:30.614Z</time>
      </trkpt>
      <trkpt lat="43.71094" lon="17.9939">
        <ele>448.709049</ele>
        <time>2022-05-17T20:06:56.516Z</time>
      </trkpt>
      <trkpt lat="43.71132" lon="17.994">
        <ele>451.631632</ele>
        <time>2022-05-17T20:07:25.201Z</time>
      </trkpt>
      <trkpt lat="43.7132" lon="17.99543">
        <ele>465.875432</ele>
        <time>2022-05-17T20:09:50.725Z</time>
      </trkpt>
      <trkpt lat="43.7135" lon="17.9956">
        <ele>467.929574</ele>
        <time>2022-05-17T20:10:11.189Z</time>
      </trkpt>
      <trkpt lat="43.71376" lon="17.9956">
        <ele>469.563105</ele>
        <time>2022-05-17T20:10:26.910Z</time>
      </trkpt>
      <trkpt lat="43.7142" lon="17.99528">
        <ele>472.716731</ele>
        <time>2022-05-17T20:10:59.905Z</time>
      </trkpt>
      <trkpt lat="43.71446" lon="17.9951">
        <ele>474.616546</ele>
        <time>2022-05-17T20:11:20.663Z</time>
      </trkpt>
      <trkpt lat="43.7147" lon="17.99507">
        <ele>476.335954</ele>
        <time>2022-05-17T20:11:37.287Z</time>
      </trkpt>
      <trkpt lat="43.71499" lon="17.99516">
        <ele>478.516224</ele>
        <time>2022-05-17T20:11:59.713Z</time>
      </trkpt>
      <trkpt lat="43.71544" lon="17.99541">
        <ele>481.983481</ele>
        <time>2022-05-17T20:12:34.651Z</time>
      </trkpt>
      <trkpt lat="43.71578" lon="17.99545">
        <ele>484.519586</ele>
        <time>2022-05-17T20:12:58.249Z</time>
      </trkpt>
      <trkpt lat="43.7164" lon="17.99512">
        <ele>489.654838</ele>
        <time>2022-05-17T20:13:45.549Z</time>
      </trkpt>
      <trkpt lat="43.71677" lon="17.99503">
        <ele>492.778595</ele>
        <time>2022-05-17T20:14:17.217Z</time>
      </trkpt>
      <trkpt lat="43.71703" lon="17.99508">
        <ele>494.968627</ele>
        <time>2022-05-17T20:14:39.084Z</time>
      </trkpt>
      <trkpt lat="43.71767" lon="17.99543">
        <ele>500.697083</ele>
        <time>2022-05-17T20:15:33.533Z</time>
      </trkpt>
      <trkpt lat="43.7181" lon="17.9956">
        <ele>504.278533</ele>
        <time>2022-05-17T20:16:07.051Z</time>
      </trkpt>
      <trkpt lat="43.71892" lon="17.99549">
        <ele>510.753007</ele>
        <time>2022-05-17T20:17:09.379Z</time>
      </trkpt>
      <trkpt lat="43.71922" lon="17.99555">
        <ele>513.076485</ele>
        <time>2022-05-17T20:17:31.709Z</time>
      </trkpt>
      <trkpt lat="43.71942" lon="17.99576">
        <ele>515.030712</ele>
        <time>2022-05-17T20:17:50.173Z</time>
      </trkpt>
      <trkpt lat="43.71955" lon="17.99603">
        <ele>516.899218</ele>
        <time>2022-05-17T20:18:06.407Z</time>
      </trkpt>
      <trkpt lat="43.71977" lon="17.99718">
        <ele>524.531854</ele>
        <time>2022-05-17T20:19:10.077Z</time>
      </trkpt>
      <trkpt lat="43.71992" lon="17.99742">
        <ele>526.572618</ele>
        <time>2022-05-17T20:19:27.960Z</time>
      </trkpt>
      <trkpt lat="43.7205" lon="17.99804">
        <ele>533.215056</ele>
        <time>2022-05-17T20:20:34.281Z</time>
      </trkpt>
      <trkpt lat="43.7209" lon="17.99907">
        <ele>542.437373</ele>
        <time>2022-05-17T20:21:54.228Z</time>
      </trkpt>
      <trkpt lat="43.72115" lon="17.99949">
        <ele>546.808633</ele>
        <time>2022-05-17T20:22:32.321Z</time>
      </trkpt>
      <trkpt lat="43.72133" lon="17.99962">
        <ele>549.024164</ele>
        <time>2022-05-17T20:22:51.816Z</time>
      </trkpt>
      <trkpt lat="43.7222" lon="17.99995">
        <ele>557.585721</ele>
        <time>2022-05-17T20:24:11.112Z</time>
      </trkpt>
      <trkpt lat="43.72287" lon="18.00073">
        <ele>565.229224</ele>
        <time>2022-05-17T20:25:17.068Z</time>
      </trkpt>
      <trkpt lat="43.72322" lon="18.00103">
        <ele>568.75485</ele>
        <time>2022-05-17T20:25:47.861Z</time>
      </trkpt>
      <trkpt lat="43.72347" lon="18.0011">
        <ele>570.608038</ele>
        <time>2022-05-17T20:26:07.979Z</time>
      </trkpt>
      <trkpt lat="43.72399" lon="18.00106">
        <ele>574.437454</ele>
        <time>2022-05-17T20:26:46.942Z</time>
      </trkpt>
      <trkpt lat="43.72441" lon="18.00124">
        <ele>577.644667</ele>
        <time>2022-05-17T20:27:18.564Z</time>
      </trkpt>
      <trkpt lat="43.72491" lon="18.00155">
        <ele>581.578803</ele>
        <time>2022-05-17T20:27:56.688Z</time>
      </trkpt>
      <trkpt lat="43.72571" lon="18.0017">
        <ele>585.960047</ele>
        <time>2022-05-17T20:28:47.497Z</time>
      </trkpt>
      <trkpt lat="43.72598" lon="18.00193">
        <ele>587.675499</ele>
        <time>2022-05-17T20:29:06.727Z</time>
      </trkpt>
      <trkpt lat="43.72616" lon="18.00227">
        <ele>589.34455</ele>
        <time>2022-05-17T20:29:24.284Z</time>
      </trkpt>
      <trkpt lat="43.72639" lon="18.00363">
        <ele>595.687462</ele>
        <time>2022-05-17T20:30:22.037Z</time>
      </trkpt>
      <trkpt lat="43.72648" lon="18.00388">
        <ele>597.0093</ele>
        <time>2022-05-17T20:30:35.322Z</time>
      </trkpt>
      <trkpt lat="43.72656" lon="18.00407">
        <ele>598.059454</ele>
        <time>2022-05-17T20:30:45.147Z</time>
      </trkpt>
      <trkpt lat="43.72684" lon="18.00436">
        <ele>600.380962</ele>
        <time>2022-05-17T20:31:10.232Z</time>
      </trkpt>
      <trkpt lat="43.72803" lon="18.00487">
        <ele>610.942827</ele>
        <time>2022-05-17T20:32:58.616Z</time>
      </trkpt>
      <trkpt lat="43.72905" lon="18.00509">
        <ele>620.256983</ele>
        <time>2022-05-17T20:34:25.575Z</time>
      </trkpt>
      <trkpt lat="43.73145" lon="18.00603">
        <ele>637.669275</ele>
        <time>2022-05-17T20:37:11.261Z</time>
      </trkpt>
      <trkpt lat="43.73159" lon="18.00617">
        <ele>638.909986</ele>
        <time>2022-05-17T20:37:21.919Z</time>
      </trkpt>
      <trkpt lat="43.73174" lon="18.00649">
        <ele>641.012164</ele>
        <time>2022-05-17T20:37:41.388Z</time>
      </trkpt>
      <trkpt lat="43.73178" lon="18.00675">
        <ele>642.386141</ele>
        <time>2022-05-17T20:37:55.014Z</time>
      </trkpt>
      <trkpt lat="43.73175" lon="18.00727">
        <ele>645.336364</ele>
        <time>2022-05-17T20:38:26.529Z</time>
      </trkpt>
      <trkpt lat="43.73177" lon="18.00771">
        <ele>650.025399</ele>
        <time>2022-05-17T20:38:56.055Z</time>
      </trkpt>
      <trkpt lat="43.73197" lon="18.00816">
        <ele>655.615865</ele>
        <time>2022-05-17T20:39:34.814Z</time>
      </trkpt>
      <trkpt lat="43.73312" lon="18.0093">
        <ele>677.84825</ele>
        <time>2022-05-17T20:42:33.319Z</time>
      </trkpt>
      <trkpt lat="43.73463" lon="18.01094">
        <ele>711.854181</ele>
        <time>2022-05-17T20:47:11.975Z</time>
      </trkpt>
      <trkpt lat="43.73493" lon="18.01131">
        <ele>716.9302</ele>
        <time>2022-05-17T20:47:56.860Z</time>
      </trkpt>
      <trkpt lat="43.73568" lon="18.01219">
        <ele>728.85745</ele>
        <time>2022-05-17T20:49:16.654Z</time>
      </trkpt>
      <trkpt lat="43.73609" lon="18.01236">
        <ele>730.429609</ele>
        <time>2022-05-17T20:49:38.886Z</time>
      </trkpt>
      <trkpt lat="43.73652" lon="18.01228">
        <ele>732.05868</ele>
        <time>2022-05-17T20:49:59.562Z</time>
      </trkpt>
      <trkpt lat="43.73763" lon="18.01175">
        <ele>736.980548</ele>
        <time>2022-05-17T20:50:51.990Z</time>
      </trkpt>
      <trkpt lat="43.73795" lon="18.01169">
        <ele>738.805231</ele>
        <time>2022-05-17T20:51:09.335Z</time>
      </trkpt>
      <trkpt lat="43.73824" lon="18.01175">
        <ele>740.497226</ele>
        <time>2022-05-17T20:51:27.148Z</time>
      </trkpt>
      <trkpt lat="43.7402" lon="18.01279">
        <ele>754.41275</ele>
        <time>2022-05-17T20:54:03.211Z</time>
      </trkpt>
      <trkpt lat="43.74063" lon="18.01319">
        <ele>758.19804</ele>
        <time>2022-05-17T20:54:40.674Z</time>
      </trkpt>
      <trkpt lat="43.74123" lon="18.01393">
        <ele>761.350813</ele>
        <time>2022-05-17T20:55:31.076Z</time>
      </trkpt>
      <trkpt lat="43.74195" lon="18.01463">
        <ele>764.455126</ele>
        <time>2022-05-17T20:56:12.207Z</time>
      </trkpt>
      <trkpt lat="43.7423" lon="18.01504">
        <ele>764.778168</ele>
        <time>2022-05-17T20:56:28.086Z</time>
      </trkpt>
      <trkpt lat="43.74287" lon="18.01591">
        <ele>763.560145</ele>
        <time>2022-05-17T20:56:48.225Z</time>
      </trkpt>
      <trkpt lat="43.74325" lon="18.0166">
        <ele>762.663213</ele>
        <time>2022-05-17T20:57:03.555Z</time>
      </trkpt>
      <trkpt lat="43.74351" lon="18.01713">
        <ele>762.995498</ele>
        <time>2022-05-17T20:57:15.443Z</time>
      </trkpt>
      <trkpt lat="43.74394" lon="18.01764">
        <ele>763.577425</ele>
        <time>2022-05-17T20:57:35.351Z</time>
      </trkpt>
      <trkpt lat="43.74403" lon="18.01774">
        <ele>763.691537</ele>
        <time>2022-05-17T20:57:40.144Z</time>
      </trkpt>
      <trkpt lat="43.74426" lon="18.01811">
        <ele>764.056964</ele>
        <time>2022-05-17T20:57:55.112Z</time>
      </trkpt>
      <trkpt lat="43.74432" lon="18.0183">
        <ele>764.213477</ele>
        <time>2022-05-17T20:58:01.429Z</time>
      </trkpt>
      <trkpt lat="43.74437" lon="18.01869">
        <ele>764.710101</ele>
        <time>2022-05-17T20:58:14.853Z</time>
      </trkpt>
      <trkpt lat="43.7443" lon="18.0191">
        <ele>765.933549</ele>
        <time>2022-05-17T20:58:31.837Z</time>
      </trkpt>
      <trkpt lat="43.74406" lon="18.01956">
        <ele>767.572712</ele>
        <time>2022-05-17T20:58:55.713Z</time>
      </trkpt>
      <trkpt lat="43.74338" lon="18.02027">
        <ele>770.992502</ele>
        <time>2022-05-17T20:59:43.687Z</time>
      </trkpt>
      <trkpt lat="43.74274" lon="18.0211">
        <ele>773.388668</ele>
        <time>2022-05-17T21:00:27.101Z</time>
      </trkpt>
      <trkpt lat="43.7417" lon="18.02272">
        <ele>776.307572</ele>
        <time>2022-05-17T21:01:31.078Z</time>
      </trkpt>
      <trkpt lat="43.7414" lon="18.02348">
        <ele>776.699996</ele>
        <time>2022-05-17T21:01:51.961Z</time>
      </trkpt>
      <trkpt lat="43.74111" lon="18.02459">
        <ele>777.279462</ele>
        <time>2022-05-17T21:02:18.298Z</time>
      </trkpt>
      <trkpt lat="43.7409" lon="18.02512">
        <ele>777.675795</ele>
        <time>2022-05-17T21:02:31.549Z</time>
      </trkpt>
      <trkpt lat="43.7402" lon="18.02655">
        <ele>778.879838</ele>
        <time>2022-05-17T21:03:18.098Z</time>
      </trkpt>
      <trkpt lat="43.73944" lon="18.02837">
        <ele>782.962318</ele>
        <time>2022-05-17T21:04:29.193Z</time>
      </trkpt>
      <trkpt lat="43.73915" lon="18.02884">
        <ele>784.235079</ele>
        <time>2022-05-17T21:04:52.008Z</time>
      </trkpt>
      <trkpt lat="43.7378" lon="18.03075">
        <ele>789.710245</ele>
        <time>2022-05-17T21:06:26.172Z</time>
      </trkpt>
      <trkpt lat="43.73683" lon="18.03271">
        <ele>792.668327</ele>
        <time>2022-05-17T21:07:31.351Z</time>
      </trkpt>
      <trkpt lat="43.73644" lon="18.03369">
        <ele>794.34655</ele>
        <time>2022-05-17T21:08:02.141Z</time>
      </trkpt>
      <trkpt lat="43.73612" lon="18.0346">
        <ele>795.891134</ele>
        <time>2022-05-17T21:08:36.038Z</time>
      </trkpt>
      <trkpt lat="43.73563" lon="18.0355">
        <ele>800.351983</ele>
        <time>2022-05-17T21:09:22.486Z</time>
      </trkpt>
      <trkpt lat="43.73429" lon="18.03705">
        <ele>810.962582</ele>
        <time>2022-05-17T21:11:21.726Z</time>
      </trkpt>
      <trkpt lat="43.73406" lon="18.03739">
        <ele>813.323743</ele>
        <time>2022-05-17T21:11:46.382Z</time>
      </trkpt>
      <trkpt lat="43.7338" lon="18.03801">
        <ele>816.832947</ele>
        <time>2022-05-17T21:12:21.579Z</time>
      </trkpt>
      <trkpt lat="43.73371" lon="18.03873">
        <ele>820.325554</ele>
        <time>2022-05-17T21:12:59.553Z</time>
      </trkpt>
      <trkpt lat="43.73375" lon="18.03948">
        <ele>823.85571</ele>
        <time>2022-05-17T21:13:37.676Z</time>
      </trkpt>
      <trkpt lat="43.7343" lon="18.04212">
        <ele>833.432654</ele>
        <time>2022-05-17T21:15:45.195Z</time>
      </trkpt>
      <trkpt lat="43.73447" lon="18.04268">
        <ele>834.983114</ele>
        <time>2022-05-17T21:16:01.066Z</time>
      </trkpt>
      <trkpt lat="43.73459" lon="18.04293">
        <ele>835.723731</ele>
        <time>2022-05-17T21:16:07.272Z</time>
      </trkpt>
      <trkpt lat="43.73495" lon="18.04338">
        <ele>835.654487</ele>
        <time>2022-05-17T21:16:20.621Z</time>
      </trkpt>
      <trkpt lat="43.73526" lon="18.04353">
        <ele>835.431194</ele>
        <time>2022-05-17T21:16:28.663Z</time>
      </trkpt>
      <trkpt lat="43.73562" lon="18.04353">
        <ele>835.182913</ele>
        <time>2022-05-17T21:16:37.687Z</time>
      </trkpt>
      <trkpt lat="43.7358" lon="18.04347">
        <ele>835.056826</ele>
        <time>2022-05-17T21:16:42.559Z</time>
      </trkpt>
      <trkpt lat="43.73609" lon="18.04327">
        <ele>834.834603</ele>
        <time>2022-05-17T21:16:51.388Z</time>
      </trkpt>
      <trkpt lat="43.73622" lon="18.04312">
        <ele>834.71672</ele>
        <time>2022-05-17T21:16:56.266Z</time>
      </trkpt>
      <trkpt lat="43.73645" lon="18.04268">
        <ele>836.524241</ele>
        <time>2022-05-17T21:17:09.739Z</time>
      </trkpt>
      <trkpt lat="43.73677" lon="18.04125">
        <ele>841.703849</ele>
        <time>2022-05-17T21:18:18.921Z</time>
      </trkpt>
      <trkpt lat="43.73694" lon="18.04089">
        <ele>843.204256</ele>
        <time>2022-05-17T21:18:42.145Z</time>
      </trkpt>
      <trkpt lat="43.73722" lon="18.04055">
        <ele>845.616618</ele>
        <time>2022-05-17T21:19:10.233Z</time>
      </trkpt>
      <trkpt lat="43.73765" lon="18.04031">
        <ele>848.709147</ele>
        <time>2022-05-17T21:19:44.980Z</time>
      </trkpt>
      <trkpt lat="43.73863" lon="18.04033">
        <ele>855.26169</ele>
        <time>2022-05-17T21:20:50.622Z</time>
      </trkpt>
      <trkpt lat="43.73888" lon="18.04029">
        <ele>856.186825</ele>
        <time>2022-05-17T21:21:04.956Z</time>
      </trkpt>
      <trkpt lat="43.73907" lon="18.04019">
        <ele>856.928439</ele>
        <time>2022-05-17T21:21:15.808Z</time>
      </trkpt>
      <trkpt lat="43.73982" lon="18.03954">
        <ele>860.202415</ele>
        <time>2022-05-17T21:21:57.968Z</time>
      </trkpt>
      <trkpt lat="43.74015" lon="18.03912">
        <ele>861.841126</ele>
        <time>2022-05-17T21:22:19.394Z</time>
      </trkpt>
      <trkpt lat="43.74029" lon="18.03882">
        <ele>863.03716</ele>
        <time>2022-05-17T21:22:31.906Z</time>
      </trkpt>
      <trkpt lat="43.74071" lon="18.03763">
        <ele>867.481133</ele>
        <time>2022-05-17T21:23:24.633Z</time>
      </trkpt>
      <trkpt lat="43.7409" lon="18.03732">
        <ele>868.870659</ele>
        <time>2022-05-17T21:23:43.546Z</time>
      </trkpt>
      <trkpt lat="43.74138" lon="18.03692">
        <ele>871.743759</ele>
        <time>2022-05-17T21:24:19.947Z</time>
      </trkpt>
      <trkpt lat="43.74183" lon="18.03687">
        <ele>874.378106</ele>
        <time>2022-05-17T21:24:49.967Z</time>
      </trkpt>
      <trkpt lat="43.74194" lon="18.03686">
        <ele>875.0146</ele>
        <time>2022-05-17T21:24:58.636Z</time>
      </trkpt>
      <trkpt lat="43.74248" lon="18.0371">
        <ele>878.340343</ele>
        <time>2022-05-17T21:25:34.279Z</time>
      </trkpt>
      <trkpt lat="43.74365" lon="18.03824">
        <ele>885.426974</ele>
        <time>2022-05-17T21:26:59.334Z</time>
      </trkpt>
      <trkpt lat="43.74517" lon="18.03961">
        <ele>892.494415</ele>
        <time>2022-05-17T21:28:36.637Z</time>
      </trkpt>
      <trkpt lat="43.7473" lon="18.04186">
        <ele>898.296257</ele>
        <time>2022-05-17T21:30:36.346Z</time>
      </trkpt>
      <trkpt lat="43.74764" lon="18.04218">
        <ele>897.243371</ele>
        <time>2022-05-17T21:30:46.634Z</time>
      </trkpt>
      <trkpt lat="43.74914" lon="18.04352">
        <ele>892.090554</ele>
        <time>2022-05-17T21:31:25.974Z</time>
      </trkpt>
      <trkpt lat="43.74933" lon="18.04383">
        <ele>890.999335</ele>
        <time>2022-05-17T21:31:32.461Z</time>
      </trkpt>
      <trkpt lat="43.74971" lon="18.04479">
        <ele>888.090478</ele>
        <time>2022-05-17T21:31:50.138Z</time>
      </trkpt>
      <trkpt lat="43.74975" lon="18.04488">
        <ele>887.801811</ele>
        <time>2022-05-17T21:31:51.873Z</time>
      </trkpt>
      <trkpt lat="43.75006" lon="18.04532">
        <ele>886.251998</ele>
        <time>2022-05-17T21:32:01.940Z</time>
      </trkpt>
      <trkpt lat="43.75029" lon="18.04547">
        <ele>885.34937</ele>
        <time>2022-05-17T21:32:07.930Z</time>
      </trkpt>
      <trkpt lat="43.75082" lon="18.04563">
        <ele>883.458928</ele>
        <time>2022-05-17T21:32:20.459Z</time>
      </trkpt>
      <trkpt lat="43.75121" lon="18.04594">
        <ele>881.881035</ele>
        <time>2022-05-17T21:32:30.478Z</time>
      </trkpt>
      <trkpt lat="43.75171" lon="18.04695">
        <ele>876.702725</ele>
        <time>2022-05-17T21:32:49.677Z</time>
      </trkpt>
      <trkpt lat="43.75267" lon="18.04795">
        <ele>868.451693</ele>
        <time>2022-05-17T21:33:13.522Z</time>
      </trkpt>
      <trkpt lat="43.75304" lon="18.04848">
        <ele>863.065048</ele>
        <time>2022-05-17T21:33:23.424Z</time>
      </trkpt>
      <trkpt lat="43.75371" lon="18.05016">
        <ele>849.394624</ele>
        <time>2022-05-17T21:33:49.687Z</time>
      </trkpt>
      <trkpt lat="43.75383" lon="18.05048">
        <ele>847.366868</ele>
        <time>2022-05-17T21:33:54.714Z</time>
      </trkpt>
      <trkpt lat="43.75416" lon="18.05116">
        <ele>842.823338</ele>
        <time>2022-05-17T21:34:06.219Z</time>
      </trkpt>
      <trkpt lat="43.75435" lon="18.05138">
        <ele>840.849687</ele>
        <time>2022-05-17T21:34:11.305Z</time>
      </trkpt>
      <trkpt lat="43.75461" lon="18.05156">
        <ele>838.670072</ele>
        <time>2022-05-17T21:34:17.072Z</time>
      </trkpt>
      <trkpt lat="43.75493" lon="18.0517">
        <ele>836.142827</ele>
        <time>2022-05-17T21:34:24.361Z</time>
      </trkpt>
      <trkpt lat="43.75654" lon="18.05199">
        <ele>825.835063</ele>
        <time>2022-05-17T21:34:57.410Z</time>
      </trkpt>
      <trkpt lat="43.75736" lon="18.05236">
        <ele>819.463639</ele>
        <time>2022-05-17T21:35:14.362Z</time>
      </trkpt>
      <trkpt lat="43.75771" lon="18.0526">
        <ele>816.488934</ele>
        <time>2022-05-17T21:35:22.190Z</time>
      </trkpt>
      <trkpt lat="43.75871" lon="18.05347">
        <ele>808.692574</ele>
        <time>2022-05-17T21:35:45.573Z</time>
      </trkpt>
      <trkpt lat="43.75915" lon="18.05413">
        <ele>804.981336</ele>
        <time>2022-05-17T21:35:58.809Z</time>
      </trkpt>
      <trkpt lat="43.75929" lon="18.05446">
        <ele>803.38668</ele>
        <time>2022-05-17T21:36:04.746Z</time>
      </trkpt>
      <trkpt lat="43.75965" lon="18.05572">
        <ele>799.036346</ele>
        <time>2022-05-17T21:36:27.107Z</time>
      </trkpt>
      <trkpt lat="43.76003" lon="18.05642">
        <ele>796.605192</ele>
        <time>2022-05-17T21:36:41.619Z</time>
      </trkpt>
      <trkpt lat="43.76044" lon="18.05682">
        <ele>794.691397</ele>
        <time>2022-05-17T21:36:52.630Z</time>
      </trkpt>
      <trkpt lat="43.76249" lon="18.05829">
        <ele>777.719585</ele>
        <time>2022-05-17T21:37:39.031Z</time>
      </trkpt>
      <trkpt lat="43.76359" lon="18.05917">
        <ele>765.345315</ele>
        <time>2022-05-17T21:38:03.017Z</time>
      </trkpt>
      <trkpt lat="43.76399" lon="18.05932">
        <ele>761.608652</ele>
        <time>2022-05-17T21:38:10.772Z</time>
      </trkpt>
      <trkpt lat="43.76425" lon="18.05934">
        <ele>759.251446</ele>
        <time>2022-05-17T21:38:15.684Z</time>
      </trkpt>
      <trkpt lat="43.76448" lon="18.05929">
        <ele>757.121083</ele>
        <time>2022-05-17T21:38:20.124Z</time>
      </trkpt>
      <trkpt lat="43.76722" lon="18.05812">
        <ele>735.384336</ele>
        <time>2022-05-17T21:39:17.193Z</time>
      </trkpt>
      <trkpt lat="43.76856" lon="18.05737">
        <ele>728.000651</ele>
        <time>2022-05-17T21:39:47.665Z</time>
      </trkpt>
      <trkpt lat="43.76917" lon="18.05713">
        <ele>726.12559</ele>
        <time>2022-05-17T21:40:01.715Z</time>
      </trkpt>
      <trkpt lat="43.77038" lon="18.05701">
        <ele>723.632204</ele>
        <time>2022-05-17T21:40:33.072Z</time>
      </trkpt>
      <trkpt lat="43.7708" lon="18.05703">
        <ele>723.175377</ele>
        <time>2022-05-17T21:40:44.840Z</time>
      </trkpt>
      <trkpt lat="43.77103" lon="18.05735">
        <ele>722.988224</ele>
        <time>2022-05-17T21:40:53.936Z</time>
      </trkpt>
      <trkpt lat="43.77306" lon="18.05914">
        <ele>720.966853</ele>
        <time>2022-05-17T21:42:04.078Z</time>
      </trkpt>
      <trkpt lat="43.77371" lon="18.05998">
        <ele>719.55701</ele>
        <time>2022-05-17T21:42:25.432Z</time>
      </trkpt>
      <trkpt lat="43.77386" lon="18.06052">
        <ele>718.502126</ele>
        <time>2022-05-17T21:42:35.166Z</time>
      </trkpt>
      <trkpt lat="43.77411" lon="18.06049">
        <ele>717.866933</ele>
        <time>2022-05-17T21:42:41.357Z</time>
      </trkpt>
      <trkpt lat="43.77417" lon="18.0602">
        <ele>717.319509</ele>
        <time>2022-05-17T21:42:46.955Z</time>
      </trkpt>
      <trkpt lat="43.77439" lon="18.06006">
        <ele>716.720193</ele>
        <time>2022-05-17T21:42:51.941Z</time>
      </trkpt>
      <trkpt lat="43.77451" lon="18.06039">
        <ele>716.040912</ele>
        <time>2022-05-17T21:42:58.381Z</time>
      </trkpt>
      <trkpt lat="43.77475" lon="18.06105">
        <ele>715.871486</ele>
        <time>2022-05-17T21:43:11.309Z</time>
      </trkpt>
      <trkpt lat="43.77508" lon="18.06209">
        <ele>716.035816</ele>
        <time>2022-05-17T21:43:32.818Z</time>
      </trkpt>
      <trkpt lat="43.77551" lon="18.06403">
        <ele>718.953248</ele>
        <time>2022-05-17T21:44:53.947Z</time>
      </trkpt>
      <trkpt lat="43.77587" lon="18.06529">
        <ele>721.445433</ele>
        <time>2022-05-17T21:45:41.999Z</time>
      </trkpt>
      <trkpt lat="43.77662" lon="18.06778">
        <ele>716.593866</ele>
        <time>2022-05-17T21:46:27.873Z</time>
      </trkpt>
      <trkpt lat="43.77692" lon="18.06928">
        <ele>710.408421</ele>
        <time>2022-05-17T21:46:50.341Z</time>
      </trkpt>
      <trkpt lat="43.77712" lon="18.06979">
        <ele>708.099066</ele>
        <time>2022-05-17T21:46:59.007Z</time>
      </trkpt>
      <trkpt lat="43.77775" lon="18.07072">
        <ele>704.246668</ele>
        <time>2022-05-17T21:47:18.539Z</time>
      </trkpt>
      <trkpt lat="43.77811" lon="18.07116">
        <ele>702.241086</ele>
        <time>2022-05-17T21:47:29.411Z</time>
      </trkpt>
      <trkpt lat="43.779" lon="18.07221">
        <ele>697.904857</ele>
        <time>2022-05-17T21:47:56.587Z</time>
      </trkpt>
      <trkpt lat="43.77941" lon="18.0726">
        <ele>696.18617</ele>
        <time>2022-05-17T21:48:07.886Z</time>
      </trkpt>
      <trkpt lat="43.77999" lon="18.07302">
        <ele>693.835043</ele>
        <time>2022-05-17T21:48:22.079Z</time>
      </trkpt>
      <trkpt lat="43.78214" lon="18.07403">
        <ele>685.789291</ele>
        <time>2022-05-17T21:49:11.525Z</time>
      </trkpt>
      <trkpt lat="43.7825" lon="18.07433">
        <ele>684.973137</ele>
        <time>2022-05-17T21:49:22.836Z</time>
      </trkpt>
      <trkpt lat="43.7832" lon="18.07507">
        <ele>683.376228</ele>
        <time>2022-05-17T21:49:47.654Z</time>
      </trkpt>
      <trkpt lat="43.78366" lon="18.07548">
        <ele>682.861534</ele>
        <time>2022-05-17T21:50:04.009Z</time>
      </trkpt>
      <trkpt lat="43.78496" lon="18.07616">
        <ele>681.295612</ele>
        <time>2022-05-17T21:50:41.086Z</time>
      </trkpt>
      <trkpt lat="43.7855" lon="18.07654">
        <ele>680.05425</ele>
        <time>2022-05-17T21:50:55.358Z</time>
      </trkpt>
      <trkpt lat="43.7869" lon="18.07791">
        <ele>677.061168</ele>
        <time>2022-05-17T21:51:37.477Z</time>
      </trkpt>
      <trkpt lat="43.78725" lon="18.07844">
        <ele>676.351304</ele>
        <time>2022-05-17T21:51:51.501Z</time>
      </trkpt>
      <trkpt lat="43.78791" lon="18.07984">
        <ele>674.699695</ele>
        <time>2022-05-17T21:52:24.452Z</time>
      </trkpt>
      <trkpt lat="43.78815" lon="18.08022">
        <ele>674.208596</ele>
        <time>2022-05-17T21:52:34.020Z</time>
      </trkpt>
      <trkpt lat="43.78841" lon="18.08055">
        <ele>673.730035</ele>
        <time>2022-05-17T21:52:43.134Z</time>
      </trkpt>
      <trkpt lat="43.78928" lon="18.08153">
        <ele>671.628293</ele>
        <time>2022-05-17T21:53:10.816Z</time>
      </trkpt>
      <trkpt lat="43.78997" lon="18.08234">
        <ele>669.683508</ele>
        <time>2022-05-17T21:53:32.369Z</time>
      </trkpt>
      <trkpt lat="43.79026" lon="18.08276">
        <ele>668.893967</ele>
        <time>2022-05-17T21:53:42.509Z</time>
      </trkpt>
      <trkpt lat="43.79096" lon="18.08394">
        <ele>667.012518</ele>
        <time>2022-05-17T21:54:10.228Z</time>
      </trkpt>
      <trkpt lat="43.79159" lon="18.08484">
        <ele>666.400425</ele>
        <time>2022-05-17T21:54:33.808Z</time>
      </trkpt>
      <trkpt lat="43.79236" lon="18.08618">
        <ele>666.834791</ele>
        <time>2022-05-17T21:55:17.675Z</time>
      </trkpt>
      <trkpt lat="43.79276" lon="18.08689">
        <ele>666.99389</ele>
        <time>2022-05-17T21:55:45.035Z</time>
      </trkpt>
      <trkpt lat="43.79301" lon="18.08722">
        <ele>667.070534</ele>
        <time>2022-05-17T21:55:58.603Z</time>
      </trkpt>
      <trkpt lat="43.79333" lon="18.08752">
        <ele>667.155672</ele>
        <time>2022-05-17T21:56:12.929Z</time>
      </trkpt>
      <trkpt lat="43.79378" lon="18.08782">
        <ele>667.263907</ele>
        <time>2022-05-17T21:56:26.555Z</time>
      </trkpt>
      <trkpt lat="43.79429" lon="18.08898">
        <ele>662.732151</ele>
        <time>2022-05-17T21:56:47.841Z</time>
      </trkpt>
      <trkpt lat="43.79416" lon="18.0904">
        <ele>658.025254</ele>
        <time>2022-05-17T21:57:08.803Z</time>
      </trkpt>
      <trkpt lat="43.7941" lon="18.09107">
        <ele>656.288072</ele>
        <time>2022-05-17T21:57:19.064Z</time>
      </trkpt>
      <trkpt lat="43.79407" lon="18.09147">
        <ele>655.275712</ele>
        <time>2022-05-17T21:57:25.213Z</time>
      </trkpt>
      <trkpt lat="43.79404" lon="18.09226">
        <ele>653.24226</ele>
        <time>2022-05-17T21:57:38.775Z</time>
      </trkpt>
      <trkpt lat="43.79404" lon="18.09237">
        <ele>652.971411</ele>
        <time>2022-05-17T21:57:40.718Z</time>
      </trkpt>
      <trkpt lat="43.79405" lon="18.09258">
        <ele>652.418953</ele>
        <time>2022-05-17T21:57:45.431Z</time>
      </trkpt>
      <trkpt lat="43.79406" lon="18.09282">
        <ele>652.447063</ele>
        <time>2022-05-17T21:57:51.014Z</time>
      </trkpt>
      <trkpt lat="43.79417" lon="18.09344">
        <ele>652.977672</ele>
        <time>2022-05-17T21:58:07.558Z</time>
      </trkpt>
      <trkpt lat="43.79448" lon="18.09434">
        <ele>653.815436</ele>
        <time>2022-05-17T21:58:36.630Z</time>
      </trkpt>
      <trkpt lat="43.79487" lon="18.09502">
        <ele>654.559959</ele>
        <time>2022-05-17T21:59:03.089Z</time>
      </trkpt>
      <trkpt lat="43.7953" lon="18.09564">
        <ele>655.376791</ele>
        <time>2022-05-17T21:59:28.698Z</time>
      </trkpt>
      <trkpt lat="43.79551" lon="18.09582">
        <ele>655.699473</ele>
        <time>2022-05-17T21:59:38.780Z</time>
      </trkpt>
      <trkpt lat="43.79675" lon="18.09584">
        <ele>656.775748</ele>
        <time>2022-05-17T22:00:22.381Z</time>
      </trkpt>
      <trkpt lat="43.79782" lon="18.09566">
        <ele>656.87555</ele>
        <time>2022-05-17T22:00:56.475Z</time>
      </trkpt>
      <trkpt lat="43.79794" lon="18.09564">
        <ele>656.886698</ele>
        <time>2022-05-17T22:00:59.689Z</time>
      </trkpt>
      <trkpt lat="43.79811" lon="18.09575">
        <ele>656.856457</ele>
        <time>2022-05-17T22:01:05.431Z</time>
      </trkpt>
      <trkpt lat="43.79819" lon="18.09593">
        <ele>656.698423</ele>
        <time>2022-05-17T22:01:09.585Z</time>
      </trkpt>
      <trkpt lat="43.79819" lon="18.09601">
        <ele>656.645652</ele>
        <time>2022-05-17T22:01:11.310Z</time>
      </trkpt>
      <trkpt lat="43.79817" lon="18.09666">
        <ele>656.163863</ele>
        <time>2022-05-17T22:01:24.025Z</time>
      </trkpt>
      <trkpt lat="43.79837" lon="18.09697">
        <ele>655.862756</ele>
        <time>2022-05-17T22:01:31.889Z</time>
      </trkpt>
      <trkpt lat="43.7984" lon="18.09726">
        <ele>655.651553</ele>
        <time>2022-05-17T22:01:37.297Z</time>
      </trkpt>
      <trkpt lat="43.7984" lon="18.09735">
        <ele>655.584106</ele>
        <time>2022-05-17T22:01:39.130Z</time>
      </trkpt>
      <trkpt lat="43.79824" lon="18.09785">
        <ele>655.188712</ele>
        <time>2022-05-17T22:01:49.805Z</time>
      </trkpt>
      <trkpt lat="43.79827" lon="18.09803">
        <ele>655.045807</ele>
        <time>2022-05-17T22:01:53.472Z</time>
      </trkpt>
      <trkpt lat="43.79833" lon="18.09851">
        <ele>654.653522</ele>
        <time>2022-05-17T22:02:02.446Z</time>
      </trkpt>
      <trkpt lat="43.79851" lon="18.09967">
        <ele>653.696433</ele>
        <time>2022-05-17T22:02:24.431Z</time>
      </trkpt>
      <trkpt lat="43.79862" lon="18.10045">
        <ele>653.069837</ele>
        <time>2022-05-17T22:02:40.043Z</time>
      </trkpt>
      <trkpt lat="43.79868" lon="18.1009">
        <ele>653.298744</ele>
        <time>2022-05-17T22:02:49.985Z</time>
      </trkpt>
      <trkpt lat="43.79886" lon="18.10227">
        <ele>654.008999</ele>
        <time>2022-05-17T22:03:24.273Z</time>
      </trkpt>
      <trkpt lat="43.79884" lon="18.10299">
        <ele>654.545006</ele>
        <time>2022-05-17T22:03:45.390Z</time>
      </trkpt>
      <trkpt lat="43.79871" lon="18.10359">
        <ele>656.083413</ele>
        <time>2022-05-17T22:04:05.720Z</time>
      </trkpt>
      <trkpt lat="43.79856" lon="18.10396">
        <ele>657.107907</ele>
        <time>2022-05-17T22:04:20.975Z</time>
      </trkpt>
      <trkpt lat="43.79821" lon="18.10452">
        <ele>658.949839</ele>
        <time>2022-05-17T22:04:50.733Z</time>
      </trkpt>
      <trkpt lat="43.79812" lon="18.1045">
        <ele>659.244287</ele>
        <time>2022-05-17T22:04:56.657Z</time>
      </trkpt>
      <trkpt lat="43.79767" lon="18.10474">
        <ele>660.924179</ele>
        <time>2022-05-17T22:05:27.296Z</time>
      </trkpt>
      <trkpt lat="43.79713" lon="18.10516">
        <ele>663.209419</ele>
        <time>2022-05-17T22:06:07.677Z</time>
      </trkpt>
      <trkpt lat="43.79581" lon="18.10564">
        <ele>667.991716</ele>
        <time>2022-05-17T22:07:15.915Z</time>
      </trkpt>
      <trkpt lat="43.79534" lon="18.10593">
        <ele>669.509475</ele>
        <time>2022-05-17T22:07:38.837Z</time>
      </trkpt>
      <trkpt lat="43.79456" lon="18.10666">
        <ele>672.290474</ele>
        <time>2022-05-17T22:08:23.303Z</time>
      </trkpt>
      <trkpt lat="43.79422" lon="18.10709">
        <ele>673.921343</ele>
        <time>2022-05-17T22:08:46.275Z</time>
      </trkpt>
      <trkpt lat="43.79382" lon="18.10776">
        <ele>676.136165</ele>
        <time>2022-05-17T22:09:17.508Z</time>
      </trkpt>
      <trkpt lat="43.7936" lon="18.10826">
        <ele>677.657938</ele>
        <time>2022-05-17T22:09:39.773Z</time>
      </trkpt>
      <trkpt lat="43.79316" lon="18.10959">
        <ele>682.406059</ele>
        <time>2022-05-17T22:10:37.062Z</time>
      </trkpt>
      <trkpt lat="43.79256" lon="18.11141">
        <ele>689.815701</ele>
        <time>2022-05-17T22:12:06.310Z</time>
      </trkpt>
      <trkpt lat="43.79218" lon="18.11209">
        <ele>693.287166</ele>
        <time>2022-05-17T22:12:48.213Z</time>
      </trkpt>
      <trkpt lat="43.79149" lon="18.11298">
        <ele>697.92592</ele>
        <time>2022-05-17T22:13:46.342Z</time>
      </trkpt>
      <trkpt lat="43.79123" lon="18.11341">
        <ele>698.596777</ele>
        <time>2022-05-17T22:14:06.902Z</time>
      </trkpt>
      <trkpt lat="43.79103" lon="18.11392">
        <ele>699.307497</ele>
        <time>2022-05-17T22:14:26.125Z</time>
      </trkpt>
      <trkpt lat="43.7901" lon="18.11783">
        <ele>700.192079</ele>
        <time>2022-05-17T22:15:47.969Z</time>
      </trkpt>
      <trkpt lat="43.78996" lon="18.1182">
        <ele>700.908043</ele>
        <time>2022-05-17T22:15:58.957Z</time>
      </trkpt>
      <trkpt lat="43.78989" lon="18.11834">
        <ele>701.192635</ele>
        <time>2022-05-17T22:16:03.988Z</time>
      </trkpt>
      <trkpt lat="43.78957" lon="18.11888">
        <ele>702.38724</ele>
        <time>2022-05-17T22:16:27.837Z</time>
      </trkpt>
      <trkpt lat="43.78898" lon="18.11952">
        <ele>704.524008</ele>
        <time>2022-05-17T22:17:13.064Z</time>
      </trkpt>
      <trkpt lat="43.78858" lon="18.11986">
        <ele>706.324485</ele>
        <time>2022-05-17T22:17:42.202Z</time>
      </trkpt>
      <trkpt lat="43.78775" lon="18.12062">
        <ele>710.16968</ele>
        <time>2022-05-17T22:18:35.640Z</time>
      </trkpt>
      <trkpt lat="43.78737" lon="18.12122">
        <ele>709.415196</ele>
        <time>2022-05-17T22:18:54.227Z</time>
      </trkpt>
      <trkpt lat="43.78731" lon="18.12138">
        <ele>709.081956</ele>
        <time>2022-05-17T22:18:57.709Z</time>
      </trkpt>
      <trkpt lat="43.78721" lon="18.12161">
        <ele>708.617307</ele>
        <time>2022-05-17T22:19:02.266Z</time>
      </trkpt>
      <trkpt lat="43.78708" lon="18.12232">
        <ele>707.323201</ele>
        <time>2022-05-17T22:19:14.058Z</time>
      </trkpt>
      <trkpt lat="43.78707" lon="18.12299">
        <ele>706.111026</ele>
        <time>2022-05-17T22:19:24.163Z</time>
      </trkpt>
      <trkpt lat="43.78711" lon="18.12335">
        <ele>704.832596</ele>
        <time>2022-05-17T22:19:29.619Z</time>
      </trkpt>
      <trkpt lat="43.78743" lon="18.12438">
        <ele>700.936459</ele>
        <time>2022-05-17T22:19:46.478Z</time>
      </trkpt>
      <trkpt lat="43.78756" lon="18.12468">
        <ele>699.722868</ele>
        <time>2022-05-17T22:19:51.887Z</time>
      </trkpt>
      <trkpt lat="43.7879" lon="18.12524">
        <ele>697.297035</ele>
        <time>2022-05-17T22:20:03.404Z</time>
      </trkpt>
      <trkpt lat="43.78816" lon="18.12554">
        <ele>696.209748</ele>
        <time>2022-05-17T22:20:11.138Z</time>
      </trkpt>
      <trkpt lat="43.78936" lon="18.12635">
        <ele>691.955203</ele>
        <time>2022-05-17T22:20:42.165Z</time>
      </trkpt>
      <trkpt lat="43.7897" lon="18.12678">
        <ele>690.435403</ele>
        <time>2022-05-17T22:20:52.585Z</time>
      </trkpt>
      <trkpt lat="43.78957" lon="18.12676">
        <ele>690.024637</ele>
        <time>2022-05-17T22:20:55.333Z</time>
      </trkpt>
      <trkpt lat="43.7894" lon="18.12656">
        <ele>689.262914</ele>
        <time>2022-05-17T22:21:00.929Z</time>
      </trkpt>
      <trkpt lat="43.78904" lon="18.1263">
        <ele>687.897346</ele>
        <time>2022-05-17T22:21:10.607Z</time>
      </trkpt>
      <trkpt lat="43.7889" lon="18.12629">
        <ele>687.424169</ele>
        <time>2022-05-17T22:21:13.806Z</time>
      </trkpt>
      <trkpt lat="43.78896" lon="18.12676">
        <ele>686.261048</ele>
        <time>2022-05-17T22:21:21.873Z</time>
      </trkpt>
      <trkpt lat="43.78839" lon="18.12799">
        <ele>682.46713</ele>
        <time>2022-05-17T22:21:46.116Z</time>
      </trkpt>
      <trkpt lat="43.78819" lon="18.12913">
        <ele>679.349159</ele>
        <time>2022-05-17T22:22:06.136Z</time>
      </trkpt>
      <trkpt lat="43.78821" lon="18.12927">
        <ele>678.996554</ele>
        <time>2022-05-17T22:22:08.480Z</time>
      </trkpt>
      <trkpt lat="43.78813" lon="18.12941">
        <ele>678.624515</ele>
        <time>2022-05-17T22:22:11.846Z</time>
      </trkpt>
      <trkpt lat="43.78827" lon="18.12977">
        <ele>677.782298</ele>
        <time>2022-05-17T22:22:18.486Z</time>
      </trkpt>
      <trkpt lat="43.78839" lon="18.13009">
        <ele>677.0286</ele>
        <time>2022-05-17T22:22:24.374Z</time>
      </trkpt>
      <trkpt lat="43.78871" lon="18.13091">
        <ele>675.096444</ele>
        <time>2022-05-17T22:22:40.102Z</time>
      </trkpt>
      <trkpt lat="43.78897" lon="18.13131">
        <ele>673.969361</ele>
        <time>2022-05-17T22:22:49.665Z</time>
      </trkpt>
      <trkpt lat="43.7897" lon="18.13188">
        <ele>671.7351</ele>
        <time>2022-05-17T22:23:09.672Z</time>
      </trkpt>
      <trkpt lat="43.79015" lon="18.13312">
        <ele>669.023035</ele>
        <time>2022-05-17T22:23:33.016Z</time>
      </trkpt>
      <trkpt lat="43.79022" lon="18.13368">
        <ele>667.546715</ele>
        <time>2022-05-17T22:23:42.316Z</time>
      </trkpt>
      <trkpt lat="43.78973" lon="18.13551">
        <ele>662.522781</ele>
        <time>2022-05-17T22:24:13.511Z</time>
      </trkpt>
      <trkpt lat="43.78971" lon="18.13584">
        <ele>661.904432</ele>
        <time>2022-05-17T22:24:18.899Z</time>
      </trkpt>
      <trkpt lat="43.78977" lon="18.13641">
        <ele>660.828734</ele>
        <time>2022-05-17T22:24:28.580Z</time>
      </trkpt>
      <trkpt lat="43.78982" lon="18.13673">
        <ele>660.212781</ele>
        <time>2022-05-17T22:24:34.296Z</time>
      </trkpt>
      <trkpt lat="43.78967" lon="18.1377">
        <ele>658.364666</ele>
        <time>2022-05-17T22:24:51.568Z</time>
      </trkpt>
      <trkpt lat="43.78968" lon="18.13808">
        <ele>657.864489</ele>
        <time>2022-05-17T22:24:58.223Z</time>
      </trkpt>
      <trkpt lat="43.78969" lon="18.13823">
        <ele>657.74867</ele>
        <time>2022-05-17T22:25:01.224Z</time>
      </trkpt>
      <trkpt lat="43.78979" lon="18.13843">
        <ele>657.572004</ele>
        <time>2022-05-17T22:25:05.843Z</time>
      </trkpt>
      <trkpt lat="43.78989" lon="18.13854">
        <ele>657.449954</ele>
        <time>2022-05-17T22:25:08.997Z</time>
      </trkpt>
      <trkpt lat="43.79006" lon="18.1386">
        <ele>657.274832</ele>
        <time>2022-05-17T22:25:13.960Z</time>
      </trkpt>
      <trkpt lat="43.78991" lon="18.13927">
        <ele>656.764116</ele>
        <time>2022-05-17T22:25:28.081Z</time>
      </trkpt>
      <trkpt lat="43.78959" lon="18.13996">
        <ele>656.185749</ele>
        <time>2022-05-17T22:25:44.681Z</time>
      </trkpt>
      <trkpt lat="43.78899" lon="18.14101">
        <ele>655.784366</ele>
        <time>2022-05-17T22:26:12.133Z</time>
      </trkpt>
      <trkpt lat="43.78874" lon="18.14155">
        <ele>655.592791</ele>
        <time>2022-05-17T22:26:26.703Z</time>
      </trkpt>
      <trkpt lat="43.78863" lon="18.14195">
        <ele>655.463137</ele>
        <time>2022-05-17T22:26:36.140Z</time>
      </trkpt>
      <trkpt lat="43.78847" lon="18.14222">
        <ele>655.290806</ele>
        <time>2022-05-17T22:26:43.557Z</time>
      </trkpt>
      <trkpt lat="43.78836" lon="18.14231">
        <ele>655.200697</ele>
        <time>2022-05-17T22:26:47.076Z</time>
      </trkpt>
      <trkpt lat="43.78827" lon="18.14233">
        <ele>655.133125</ele>
        <time>2022-05-17T22:26:49.799Z</time>
      </trkpt>
      <trkpt lat="43.78812" lon="18.14249">
        <ele>654.989062</ele>
        <time>2022-05-17T22:26:55.310Z</time>
      </trkpt>
      <trkpt lat="43.78725" lon="18.14366">
        <ele>654.091199</ele>
        <time>2022-05-17T22:27:28.567Z</time>
      </trkpt>
      <trkpt lat="43.78676" lon="18.14486">
        <ele>652.993692</ele>
        <time>2022-05-17T22:27:54.421Z</time>
      </trkpt>
      <trkpt lat="43.78644" lon="18.14579">
        <ele>652.17177</ele>
        <time>2022-05-17T22:28:14.695Z</time>
      </trkpt>
      <trkpt lat="43.78643" lon="18.14586">
        <ele>652.108643</ele>
        <time>2022-05-17T22:28:16.188Z</time>
      </trkpt>
      <trkpt lat="43.78641" lon="18.14616">
        <ele>651.832166</ele>
        <time>2022-05-17T22:28:22.159Z</time>
      </trkpt>
      <trkpt lat="43.78666" lon="18.14731">
        <ele>650.734771</ele>
        <time>2022-05-17T22:28:45.572Z</time>
      </trkpt>
      <trkpt lat="43.78669" lon="18.14745">
        <ele>650.609078</ele>
        <time>2022-05-17T22:28:48.252Z</time>
      </trkpt>
      <trkpt lat="43.78743" lon="18.14989">
        <ele>647.342007</ele>
        <time>2022-05-17T22:29:36.295Z</time>
      </trkpt>
      <trkpt lat="43.78764" lon="18.15078">
        <ele>646.040765</ele>
        <time>2022-05-17T22:29:52.464Z</time>
      </trkpt>
      <trkpt lat="43.78766" lon="18.15111">
        <ele>645.571616</ele>
        <time>2022-05-17T22:29:58.157Z</time>
      </trkpt>
      <trkpt lat="43.78757" lon="18.15312">
        <ele>642.819504</ele>
        <time>2022-05-17T22:30:34.364Z</time>
      </trkpt>
      <trkpt lat="43.78752" lon="18.15373">
        <ele>642.261308</ele>
        <time>2022-05-17T22:30:46.454Z</time>
      </trkpt>
      <trkpt lat="43.78716" lon="18.15565">
        <ele>640.332313</ele>
        <time>2022-05-17T22:31:24.634Z</time>
      </trkpt>
      <trkpt lat="43.78692" lon="18.15846">
        <ele>636.976461</ele>
        <time>2022-05-17T22:32:14.715Z</time>
      </trkpt>
      <trkpt lat="43.78681" lon="18.15986">
        <ele>636.099026</ele>
        <time>2022-05-17T22:32:42.517Z</time>
      </trkpt>
      <trkpt lat="43.78681" lon="18.16052">
        <ele>635.789909</ele>
        <time>2022-05-17T22:32:58.452Z</time>
      </trkpt>
      <trkpt lat="43.78681" lon="18.16058">
        <ele>635.791611</ele>
        <time>2022-05-17T22:32:59.790Z</time>
      </trkpt>
      <trkpt lat="43.78681" lon="18.16165">
        <ele>635.826584</ele>
        <time>2022-05-17T22:33:26.542Z</time>
      </trkpt>
      <trkpt lat="43.78671" lon="18.16277">
        <ele>635.863735</ele>
        <time>2022-05-17T22:33:52.038Z</time>
      </trkpt>
      <trkpt lat="43.7865" lon="18.16526">
        <ele>633.656527</ele>
        <time>2022-05-17T22:34:41.628Z</time>
      </trkpt>
      <trkpt lat="43.7864" lon="18.16573">
        <ele>633.044086</ele>
        <time>2022-05-17T22:34:50.606Z</time>
      </trkpt>
      <trkpt lat="43.7861" lon="18.16668">
        <ele>631.662276</ele>
        <time>2022-05-17T22:35:10.398Z</time>
      </trkpt>
      <trkpt lat="43.78595" lon="18.16702">
        <ele>631.139127</ele>
        <time>2022-05-17T22:35:17.993Z</time>
      </trkpt>
      <trkpt lat="43.786" lon="18.16715">
        <ele>630.958099</ele>
        <time>2022-05-17T22:35:24.840Z</time>
      </trkpt>
      <trkpt lat="43.78535" lon="18.16798">
        <ele>629.11232</ele>
        <time>2022-05-17T22:35:46.460Z</time>
      </trkpt>
      <trkpt lat="43.78506" lon="18.1686">
        <ele>627.899442</ele>
        <time>2022-05-17T22:35:59.323Z</time>
      </trkpt>
      <trkpt lat="43.78493" lon="18.16922">
        <ele>626.86268</ele>
        <time>2022-05-17T22:36:09.910Z</time>
      </trkpt>
      <trkpt lat="43.78483" lon="18.17046">
        <ele>626.933271</ele>
        <time>2022-05-17T22:36:32.451Z</time>
      </trkpt>
      <trkpt lat="43.78472" lon="18.17095">
        <ele>627.334887</ele>
        <time>2022-05-17T22:36:43.766Z</time>
      </trkpt>
      <trkpt lat="43.78466" lon="18.17112">
        <ele>627.478448</ele>
        <time>2022-05-17T22:36:48.811Z</time>
      </trkpt>
      <trkpt lat="43.7846" lon="18.17129">
        <ele>627.626712</ele>
        <time>2022-05-17T22:36:56.285Z</time>
      </trkpt>
      <trkpt lat="43.78445" lon="18.17169">
        <ele>627.982318</ele>
        <time>2022-05-17T22:37:17.578Z</time>
      </trkpt>
      <trkpt lat="43.78435" lon="18.17217">
        <ele>628.778878</ele>
        <time>2022-05-17T22:37:38.182Z</time>
      </trkpt>
      <trkpt lat="43.78433" lon="18.17251">
        <ele>629.677534</ele>
        <time>2022-05-17T22:37:49.509Z</time>
      </trkpt>
      <trkpt lat="43.7844" lon="18.17298">
        <ele>630.923171</ele>
        <time>2022-05-17T22:38:06.787Z</time>
      </trkpt>
      <trkpt lat="43.7847" lon="18.17353">
        <ele>632.71756</ele>
        <time>2022-05-17T22:38:35.507Z</time>
      </trkpt>
      <trkpt lat="43.78536" lon="18.17418">
        <ele>633.985656</ele>
        <time>2022-05-17T22:39:14.484Z</time>
      </trkpt>
      <trkpt lat="43.78563" lon="18.17466">
        <ele>632.868137</ele>
        <time>2022-05-17T22:39:29.479Z</time>
      </trkpt>
      <trkpt lat="43.78572" lon="18.17491">
        <ele>632.369906</ele>
        <time>2022-05-17T22:39:34.473Z</time>
      </trkpt>
      <trkpt lat="43.78576" lon="18.17507">
        <ele>632.053339</ele>
        <time>2022-05-17T22:39:36.968Z</time>
      </trkpt>
      <trkpt lat="43.78599" lon="18.17593">
        <ele>630.368736</ele>
        <time>2022-05-17T22:39:50.557Z</time>
      </trkpt>
      <trkpt lat="43.78649" lon="18.17776">
        <ele>620.675095</ele>
        <time>2022-05-17T22:40:18.910Z</time>
      </trkpt>
      <trkpt lat="43.78678" lon="18.17843">
        <ele>616.699842</ele>
        <time>2022-05-17T22:40:29.899Z</time>
      </trkpt>
      <trkpt lat="43.78714" lon="18.17897">
        <ele>613.840498</ele>
        <time>2022-05-17T22:40:40.413Z</time>
      </trkpt>
      <trkpt lat="43.78724" lon="18.1791">
        <ele>613.12648</ele>
        <time>2022-05-17T22:40:43.252Z</time>
      </trkpt>
      <trkpt lat="43.78741" lon="18.17927">
        <ele>611.98084</ele>
        <time>2022-05-17T22:40:47.615Z</time>
      </trkpt>
      <trkpt lat="43.78768" lon="18.17949">
        <ele>610.269613</ele>
        <time>2022-05-17T22:40:54.455Z</time>
      </trkpt>
      <trkpt lat="43.78803" lon="18.17967">
        <ele>608.280749</ele>
        <time>2022-05-17T22:41:02.523Z</time>
      </trkpt>
      <trkpt lat="43.78856" lon="18.17983">
        <ele>607.192396</ele>
        <time>2022-05-17T22:41:15.413Z</time>
      </trkpt>
      <trkpt lat="43.78951" lon="18.18007">
        <ele>606.662676</ele>
        <time>2022-05-17T22:41:46.580Z</time>
      </trkpt>
      <trkpt lat="43.79013" lon="18.18053">
        <ele>606.396521</ele>
        <time>2022-05-17T22:42:10.627Z</time>
      </trkpt>
      <trkpt lat="43.79047" lon="18.18083">
        <ele>606.364953</ele>
        <time>2022-05-17T22:42:23.394Z</time>
      </trkpt>
      <trkpt lat="43.79079" lon="18.18102">
        <ele>606.337583</ele>
        <time>2022-05-17T22:42:34.629Z</time>
      </trkpt>
      <trkpt lat="43.79116" lon="18.18116">
        <ele>606.307677</ele>
        <time>2022-05-17T22:42:46.443Z</time>
      </trkpt>
      <trkpt lat="43.79168" lon="18.18121">
        <ele>606.062045</ele>
        <time>2022-05-17T22:43:01.662Z</time>
      </trkpt>
      <trkpt lat="43.7922" lon="18.18105">
        <ele>604.992274</ele>
        <time>2022-05-17T22:43:15.962Z</time>
      </trkpt>
      <trkpt lat="43.79437" lon="18.17957">
        <ele>599.147816</ele>
        <time>2022-05-17T22:44:12.667Z</time>
      </trkpt>
      <trkpt lat="43.79479" lon="18.17939">
        <ele>597.916615</ele>
        <time>2022-05-17T22:44:22.625Z</time>
      </trkpt>
      <trkpt lat="43.79527" lon="18.1793">
        <ele>596.740838</ele>
        <time>2022-05-17T22:44:33.805Z</time>
      </trkpt>
      <trkpt lat="43.79583" lon="18.17933">
        <ele>595.437587</ele>
        <time>2022-05-17T22:44:47.111Z</time>
      </trkpt>
      <trkpt lat="43.79588" lon="18.17934">
        <ele>595.322051</ele>
        <time>2022-05-17T22:44:48.313Z</time>
      </trkpt>
      <trkpt lat="43.79615" lon="18.17942">
        <ele>594.67345</ele>
        <time>2022-05-17T22:44:55.007Z</time>
      </trkpt>
      <trkpt lat="43.79628" lon="18.17917">
        <ele>594.15434</ele>
        <time>2022-05-17T22:45:00.434Z</time>
      </trkpt>
      <trkpt lat="43.79723" lon="18.17873">
        <ele>592.838277</ele>
        <time>2022-05-17T22:45:26.880Z</time>
      </trkpt>
      <trkpt lat="43.79753" lon="18.17877">
        <ele>592.573389</ele>
        <time>2022-05-17T22:45:35.470Z</time>
      </trkpt>
      <trkpt lat="43.79809" lon="18.17907">
        <ele>592.039814</ele>
        <time>2022-05-17T22:45:52.485Z</time>
      </trkpt>
      <trkpt lat="43.79874" lon="18.17928">
        <ele>591.490545</ele>
        <time>2022-05-17T22:46:11.449Z</time>
      </trkpt>
      <trkpt lat="43.79915" lon="18.1795">
        <ele>591.144117</ele>
        <time>2022-05-17T22:46:23.785Z</time>
      </trkpt>
      <trkpt lat="43.79933" lon="18.17971">
        <ele>590.96263</ele>
        <time>2022-05-17T22:46:30.295Z</time>
      </trkpt>
      <trkpt lat="43.79995" lon="18.1807">
        <ele>590.124182</ele>
        <time>2022-05-17T22:46:56.107Z</time>
      </trkpt>
      <trkpt lat="43.80027" lon="18.18079">
        <ele>589.776835</ele>
        <time>2022-05-17T22:47:04.454Z</time>
      </trkpt>
      <trkpt lat="43.80119" lon="18.18064">
        <ele>588.763029</ele>
        <time>2022-05-17T22:47:28.860Z</time>
      </trkpt>
      <trkpt lat="43.80139" lon="18.1807">
        <ele>588.544078</ele>
        <time>2022-05-17T22:47:34.101Z</time>
      </trkpt>
      <trkpt lat="43.80223" lon="18.18125">
        <ele>588.64673</ele>
        <time>2022-05-17T22:48:02.173Z</time>
      </trkpt>
      <trkpt lat="43.80249" lon="18.18147">
        <ele>588.700102</ele>
        <time>2022-05-17T22:48:14.164Z</time>
      </trkpt>
      <trkpt lat="43.80263" lon="18.18167">
        <ele>588.733988</ele>
        <time>2022-05-17T22:48:21.356Z</time>
      </trkpt>
      <trkpt lat="43.80305" lon="18.18265">
        <ele>588.803494</ele>
        <time>2022-05-17T22:48:48.535Z</time>
      </trkpt>
      <trkpt lat="43.80331" lon="18.18317">
        <ele>588.801432</ele>
        <time>2022-05-17T22:49:03.873Z</time>
      </trkpt>
      <trkpt lat="43.80346" lon="18.18337">
        <ele>588.800513</ele>
        <time>2022-05-17T22:49:10.872Z</time>
      </trkpt>
      <trkpt lat="43.80388" lon="18.18375">
        <ele>588.798237</ele>
        <time>2022-05-17T22:49:26.405Z</time>
      </trkpt>
      <trkpt lat="43.8042" lon="18.18422">
        <ele>588.676981</ele>
        <time>2022-05-17T22:49:38.542Z</time>
      </trkpt>
      <trkpt lat="43.80491" lon="18.18507">
        <ele>588.213637</ele>
        <time>2022-05-17T22:50:02.434Z</time>
      </trkpt>
      <trkpt lat="43.80553" lon="18.18568">
        <ele>588.293479</ele>
        <time>2022-05-17T22:50:29.540Z</time>
      </trkpt>
      <trkpt lat="43.80573" lon="18.18587">
        <ele>588.928484</ele>
        <time>2022-05-17T22:50:40.484Z</time>
      </trkpt>
      <trkpt lat="43.80606" lon="18.18697">
        <ele>591.161617</ele>
        <time>2022-05-17T22:51:19.425Z</time>
      </trkpt>
      <trkpt lat="43.80625" lon="18.18721">
        <ele>591.842063</ele>
        <time>2022-05-17T22:51:33.715Z</time>
      </trkpt>
      <trkpt lat="43.80672" lon="18.18751">
        <ele>593.29717</ele>
        <time>2022-05-17T22:52:01.140Z</time>
      </trkpt>
      <trkpt lat="43.80695" lon="18.18774">
        <ele>594.17726</ele>
        <time>2022-05-17T22:52:14.232Z</time>
      </trkpt>
      <trkpt lat="43.80757" lon="18.18855">
        <ele>596.845458</ele>
        <time>2022-05-17T22:52:49.626Z</time>
      </trkpt>
      <trkpt lat="43.80782" lon="18.18874">
        <ele>597.724591</ele>
        <time>2022-05-17T22:53:03.730Z</time>
      </trkpt>
      <trkpt lat="43.80873" lon="18.18883">
        <ele>602.317407</ele>
        <time>2022-05-17T22:54:00.765Z</time>
      </trkpt>
      <trkpt lat="43.80902" lon="18.18901">
        <ele>604.010182</ele>
        <time>2022-05-17T22:54:20.674Z</time>
      </trkpt>
      <trkpt lat="43.80915" lon="18.18918">
        <ele>604.991152</ele>
        <time>2022-05-17T22:54:32.879Z</time>
      </trkpt>
      <trkpt lat="43.80929" lon="18.18939">
        <ele>606.11615</ele>
        <time>2022-05-17T22:54:46.062Z</time>
      </trkpt>
      <trkpt lat="43.80959" lon="18.18945">
        <ele>607.740908</ele>
        <time>2022-05-17T22:55:05.788Z</time>
      </trkpt>
      <trkpt lat="43.80992" lon="18.18959">
        <ele>608.672462</ele>
        <time>2022-05-17T22:55:28.118Z</time>
      </trkpt>
      <trkpt lat="43.81084" lon="18.19029">
        <ele>611.19962</ele>
        <time>2022-05-17T22:56:18.376Z</time>
      </trkpt>
      <trkpt lat="43.81127" lon="18.19052">
        <ele>612.20414</ele>
        <time>2022-05-17T22:56:30.344Z</time>
      </trkpt>
      <trkpt lat="43.81206" lon="18.19066">
        <ele>610.386392</ele>
        <time>2022-05-17T22:56:50.175Z</time>
      </trkpt>
      <trkpt lat="43.81236" lon="18.19073">
        <ele>609.700326</ele>
        <time>2022-05-17T22:56:57.541Z</time>
      </trkpt>
      <trkpt lat="43.81261" lon="18.19088">
        <ele>609.067543</ele>
        <time>2022-05-17T22:57:03.948Z</time>
      </trkpt>
      <trkpt lat="43.81316" lon="18.19142">
        <ele>606.511869</ele>
        <time>2022-05-17T22:57:18.816Z</time>
      </trkpt>
      <trkpt lat="43.81358" lon="18.19196">
        <ele>602.998988</ele>
        <time>2022-05-17T22:57:31.676Z</time>
      </trkpt>
      <trkpt lat="43.81385" lon="18.19219">
        <ele>601.021746</ele>
        <time>2022-05-17T22:57:38.353Z</time>
      </trkpt>
      <trkpt lat="43.81508" lon="18.19261">
        <ele>591.617348</ele>
        <time>2022-05-17T22:58:02.526Z</time>
      </trkpt>
      <trkpt lat="43.81588" lon="18.19304">
        <ele>584.164064</ele>
        <time>2022-05-17T22:58:18.632Z</time>
      </trkpt>
      <trkpt lat="43.8169" lon="18.19342">
        <ele>581.344342</ele>
        <time>2022-05-17T22:58:42.766Z</time>
      </trkpt>
      <trkpt lat="43.81725" lon="18.19369">
        <ele>581.324049</ele>
        <time>2022-05-17T22:58:59.911Z</time>
      </trkpt>
      <trkpt lat="43.81719" lon="18.19385">
        <ele>581.317335</ele>
        <time>2022-05-17T22:59:08.579Z</time>
      </trkpt>
      <trkpt lat="43.81763" lon="18.19402">
        <ele>581.294736</ele>
        <time>2022-05-17T22:59:32.297Z</time>
      </trkpt>
      <trkpt lat="43.81781" lon="18.19414">
        <ele>581.590545</ele>
        <time>2022-05-17T22:59:44.850Z</time>
      </trkpt>
      <trkpt lat="43.81803" lon="18.19447">
        <ele>582.295883</ele>
        <time>2022-05-17T23:00:03.485Z</time>
      </trkpt>
      <trkpt lat="43.81862" lon="18.19485">
        <ele>583.713433</ele>
        <time>2022-05-17T23:00:40.805Z</time>
      </trkpt>
      <trkpt lat="43.81935" lon="18.19554">
        <ele>584.018133</ele>
        <time>2022-05-17T23:01:06.653Z</time>
      </trkpt>
      <trkpt lat="43.82007" lon="18.1968">
        <ele>577.021852</ele>
        <time>2022-05-17T23:01:29.968Z</time>
      </trkpt>
      <trkpt lat="43.82026" lon="18.19731">
        <ele>574.527074</ele>
        <time>2022-05-17T23:01:37.993Z</time>
      </trkpt>
      <trkpt lat="43.82046" lon="18.19814">
        <ele>570.483939</ele>
        <time>2022-05-17T23:01:50.412Z</time>
      </trkpt>
      <trkpt lat="43.82081" lon="18.19899">
        <ele>565.942335</ele>
        <time>2022-05-17T23:02:04.546Z</time>
      </trkpt>
      <trkpt lat="43.82106" lon="18.19985">
        <ele>562.433733</ele>
        <time>2022-05-17T23:02:19.275Z</time>
      </trkpt>
      <trkpt lat="43.82129" lon="18.20035">
        <ele>561.57961</ele>
        <time>2022-05-17T23:02:28.810Z</time>
      </trkpt>
      <trkpt lat="43.82169" lon="18.20141">
        <ele>559.835609</ele>
        <time>2022-05-17T23:02:51.548Z</time>
      </trkpt>
      <trkpt lat="43.82174" lon="18.20162">
        <ele>559.513259</ele>
        <time>2022-05-17T23:02:56.251Z</time>
      </trkpt>
      <trkpt lat="43.82178" lon="18.20176">
        <ele>559.304271</ele>
        <time>2022-05-17T23:02:59.402Z</time>
      </trkpt>
      <trkpt lat="43.82181" lon="18.20189">
        <ele>559.158745</ele>
        <time>2022-05-17T23:03:02.224Z</time>
      </trkpt>
      <trkpt lat="43.82184" lon="18.20202">
        <ele>559.09003</ele>
        <time>2022-05-17T23:03:05.356Z</time>
      </trkpt>
      <trkpt lat="43.82185" lon="18.2021">
        <ele>559.050718</ele>
        <time>2022-05-17T23:03:07.053Z</time>
      </trkpt>
      <trkpt lat="43.82191" lon="18.20232">
        <ele>558.934131</ele>
        <time>2022-05-17T23:03:11.996Z</time>
      </trkpt>
      <trkpt lat="43.82198" lon="18.20265">
        <ele>558.764227</ele>
        <time>2022-05-17T23:03:19.431Z</time>
      </trkpt>
      <trkpt lat="43.8223" lon="18.20392">
        <ele>558.095668</ele>
        <time>2022-05-17T23:03:47.117Z</time>
      </trkpt>
      <trkpt lat="43.82272" lon="18.20557">
        <ele>556.506098</ele>
        <time>2022-05-17T23:04:19.453Z</time>
      </trkpt>
      <trkpt lat="43.82277" lon="18.20578">
        <ele>556.284046</ele>
        <time>2022-05-17T23:04:23.587Z</time>
      </trkpt>
      <trkpt lat="43.82282" lon="18.20598">
        <ele>556.076497</ele>
        <time>2022-05-17T23:04:27.305Z</time>
      </trkpt>
      <trkpt lat="43.82286" lon="18.20616">
        <ele>555.889537</ele>
        <time>2022-05-17T23:04:30.731Z</time>
      </trkpt>
      <trkpt lat="43.82286" lon="18.20625">
        <ele>555.800579</ele>
        <time>2022-05-17T23:04:32.394Z</time>
      </trkpt>
      <trkpt lat="43.82285" lon="18.2063">
        <ele>555.744511</ele>
        <time>2022-05-17T23:04:33.420Z</time>
      </trkpt>
      <trkpt lat="43.82283" lon="18.20652">
        <ele>555.525976</ele>
        <time>2022-05-17T23:04:37.489Z</time>
      </trkpt>
      <trkpt lat="43.82282" lon="18.20657">
        <ele>555.481488</ele>
        <time>2022-05-17T23:04:38.360Z</time>
      </trkpt>
      <trkpt lat="43.82288" lon="18.20674">
        <ele>555.414429</ele>
        <time>2022-05-17T23:04:42.156Z</time>
      </trkpt>
      <trkpt lat="43.8229" lon="18.20676">
        <ele>555.402098</ele>
        <time>2022-05-17T23:04:42.906Z</time>
      </trkpt>
      <trkpt lat="43.82299" lon="18.20691">
        <ele>555.340477</ele>
        <time>2022-05-17T23:04:46.622Z</time>
      </trkpt>
      <trkpt lat="43.82309" lon="18.20719">
        <ele>555.237406</ele>
        <time>2022-05-17T23:04:53.286Z</time>
      </trkpt>
      <trkpt lat="43.82331" lon="18.20775">
        <ele>555.033319</ele>
        <time>2022-05-17T23:05:07.463Z</time>
      </trkpt>
      <trkpt lat="43.82361" lon="18.20824">
        <ele>554.82372</ele>
        <time>2022-05-17T23:05:22.251Z</time>
      </trkpt>
      <trkpt lat="43.82444" lon="18.20902">
        <ele>553.759924</ele>
        <time>2022-05-17T23:05:51.024Z</time>
      </trkpt>
      <trkpt lat="43.82483" lon="18.2094">
        <ele>553.104563</ele>
        <time>2022-05-17T23:06:03.368Z</time>
      </trkpt>
      <trkpt lat="43.82525" lon="18.20961">
        <ele>552.476084</ele>
        <time>2022-05-17T23:06:14.641Z</time>
      </trkpt>
      <trkpt lat="43.82693" lon="18.21011">
        <ele>548.348755</ele>
        <time>2022-05-17T23:06:54.703Z</time>
      </trkpt>
      <trkpt lat="43.8271" lon="18.21012">
        <ele>547.900961</ele>
        <time>2022-05-17T23:06:58.847Z</time>
      </trkpt>
      <trkpt lat="43.82745" lon="18.21011">
        <ele>547.272753</ele>
        <time>2022-05-17T23:07:07.283Z</time>
      </trkpt>
      <trkpt lat="43.82793" lon="18.20999">
        <ele>546.600093</ele>
        <time>2022-05-17T23:07:19.423Z</time>
      </trkpt>
      <trkpt lat="43.82825" lon="18.21072">
        <ele>545.74817</ele>
        <time>2022-05-17T23:07:36.441Z</time>
      </trkpt>
      <trkpt lat="43.8288" lon="18.21101">
        <ele>545.073279</ele>
        <time>2022-05-17T23:07:53.836Z</time>
      </trkpt>
      <trkpt lat="43.82915" lon="18.21155">
        <ele>544.972687</ele>
        <time>2022-05-17T23:08:10.084Z</time>
      </trkpt>
      <trkpt lat="43.82969" lon="18.21326">
        <ele>544.794337</ele>
        <time>2022-05-17T23:08:53.485Z</time>
      </trkpt>
      <trkpt lat="43.82992" lon="18.21372">
        <ele>544.893104</ele>
        <time>2022-05-17T23:09:06.727Z</time>
      </trkpt>
      <trkpt lat="43.8304" lon="18.21439">
        <ele>545.058758</ele>
        <time>2022-05-17T23:09:28.612Z</time>
      </trkpt>
      <trkpt lat="43.8307" lon="18.21478">
        <ele>545.160127</ele>
        <time>2022-05-17T23:09:42.328Z</time>
      </trkpt>
      <trkpt lat="43.83199" lon="18.21509">
        <ele>548.3083</ele>
        <time>2022-05-17T23:10:35.704Z</time>
      </trkpt>
      <trkpt lat="43.83296" lon="18.21535">
        <ele>552.27972</ele>
        <time>2022-05-17T23:11:34.370Z</time>
      </trkpt>
      <trkpt lat="43.83349" lon="18.21566">
        <ele>555.839633</ele>
        <time>2022-05-17T23:12:16.552Z</time>
      </trkpt>
      <trkpt lat="43.83464" lon="18.21699">
        <ele>561.905399</ele>
        <time>2022-05-17T23:13:57.791Z</time>
      </trkpt>
      <trkpt lat="43.83522" lon="18.21756">
        <ele>562.856114</ele>
        <time>2022-05-17T23:14:21.478Z</time>
      </trkpt>
      <trkpt lat="43.83576" lon="18.21797">
        <ele>562.003019</ele>
        <time>2022-05-17T23:14:35.355Z</time>
      </trkpt>
      <trkpt lat="43.83608" lon="18.21813">
        <ele>559.508433</ele>
        <time>2022-05-17T23:14:42.037Z</time>
      </trkpt>
      <trkpt lat="43.83701" lon="18.21827">
        <ele>552.547051</ele>
        <time>2022-05-17T23:15:00.176Z</time>
      </trkpt>
      <trkpt lat="43.83777" lon="18.21808">
        <ele>546.839452</ele>
        <time>2022-05-17T23:15:15.244Z</time>
      </trkpt>
      <trkpt lat="43.83871" lon="18.21761">
        <ele>539.685748</ele>
        <time>2022-05-17T23:15:34.872Z</time>
      </trkpt>
      <trkpt lat="43.83925" lon="18.21714">
        <ele>536.377053</ele>
        <time>2022-05-17T23:15:48.586Z</time>
      </trkpt>
      <trkpt lat="43.83931" lon="18.21705">
        <ele>536.175762</ele>
        <time>2022-05-17T23:15:50.401Z</time>
      </trkpt>
      <trkpt lat="43.83946" lon="18.21667">
        <ele>535.392044</ele>
        <time>2022-05-17T23:15:57.620Z</time>
      </trkpt>
      <trkpt lat="43.83959" lon="18.21615">
        <ele>534.396735</ele>
        <time>2022-05-17T23:16:06.891Z</time>
      </trkpt>
      <trkpt lat="43.83986" lon="18.21624">
        <ele>533.71269</ele>
        <time>2022-05-17T23:16:13.802Z</time>
      </trkpt>
      <trkpt lat="43.84003" lon="18.2163">
        <ele>533.26873</ele>
        <time>2022-05-17T23:16:18.402Z</time>
      </trkpt>
      <trkpt lat="43.84065" lon="18.21659">
        <ele>533.011129</ele>
        <time>2022-05-17T23:16:38.993Z</time>
      </trkpt>
      <trkpt lat="43.84101" lon="18.21683">
        <ele>533.466436</ele>
        <time>2022-05-17T23:16:55.490Z</time>
      </trkpt>
      <trkpt lat="43.84091" lon="18.21716">
        <ele>533.760576</ele>
        <time>2022-05-17T23:17:07.840Z</time>
      </trkpt>
      <trkpt lat="43.84079" lon="18.21725">
        <ele>533.911544</ele>
        <time>2022-05-17T23:17:12.815Z</time>
      </trkpt>
      <trkpt lat="43.83994" lon="18.2172">
        <ele>534.585885</ele>
        <time>2022-05-17T23:17:47.515Z</time>
      </trkpt>
      <trkpt lat="43.8399" lon="18.2173">
        <ele>534.570471</ele>
        <time>2022-05-17T23:17:51.697Z</time>
      </trkpt>
      <trkpt lat="43.83993" lon="18.21739">
        <ele>534.556266</ele>
        <time>2022-05-17T23:17:53.830Z</time>
      </trkpt>
      <trkpt lat="43.84077" lon="18.21743">
        <ele>534.392935</ele>
        <time>2022-05-17T23:18:19.704Z</time>
      </trkpt>
      <trkpt lat="43.84116" lon="18.21756">
        <ele>534.314023</ele>
        <time>2022-05-17T23:18:31.265Z</time>
      </trkpt>
      <trkpt lat="43.84154" lon="18.21774">
        <ele>533.869611</ele>
        <time>2022-05-17T23:18:42.146Z</time>
      </trkpt>
      <trkpt lat="43.84189" lon="18.21799">
        <ele>533.122179</ele>
        <time>2022-05-17T23:18:52.115Z</time>
      </trkpt>
      <trkpt lat="43.84229" lon="18.21838">
        <ele>532.192339</ele>
        <time>2022-05-17T23:19:04.558Z</time>
      </trkpt>
      <trkpt lat="43.84262" lon="18.21883">
        <ele>531.333395</ele>
        <time>2022-05-17T23:19:16.159Z</time>
      </trkpt>
      <trkpt lat="43.84291" lon="18.21936">
        <ele>530.578066</ele>
        <time>2022-05-17T23:19:29.198Z</time>
      </trkpt>
      <trkpt lat="43.84512" lon="18.22373">
        <ele>525.849507</ele>
        <time>2022-05-17T23:21:16.260Z</time>
      </trkpt>
      <trkpt lat="43.84521" lon="18.22391">
        <ele>525.63105</ele>
        <time>2022-05-17T23:21:20.268Z</time>
      </trkpt>
      <trkpt lat="43.84551" lon="18.22465">
        <ele>524.800363</ele>
        <time>2022-05-17T23:21:36.943Z</time>
      </trkpt>
      <trkpt lat="43.8459" lon="18.22629">
        <ele>523.146837</ele>
        <time>2022-05-17T23:22:10.935Z</time>
      </trkpt>
      <trkpt lat="43.84601" lon="18.2273">
        <ele>522.192154</ele>
        <time>2022-05-17T23:22:31.546Z</time>
      </trkpt>
      <trkpt lat="43.84608" lon="18.22849">
        <ele>520.95457</ele>
        <time>2022-05-17T23:22:54.805Z</time>
      </trkpt>
      <trkpt lat="43.84628" lon="18.23133">
        <ele>518.300657</ele>
        <time>2022-05-17T23:23:49.791Z</time>
      </trkpt>
      <trkpt lat="43.84631" lon="18.23179">
        <ele>517.996279</ele>
        <time>2022-05-17T23:23:59.404Z</time>
      </trkpt>
      <trkpt lat="43.84638" lon="18.23257">
        <ele>517.481233</ele>
        <time>2022-05-17T23:24:16.770Z</time>
      </trkpt>
      <trkpt lat="43.84643" lon="18.2333">
        <ele>517.344164</ele>
        <time>2022-05-17T23:24:33.595Z</time>
      </trkpt>
      <trkpt lat="43.84652" lon="18.23458">
        <ele>517.295728</ele>
        <time>2022-05-17T23:25:03.792Z</time>
      </trkpt>
      <trkpt lat="43.84672" lon="18.23708">
        <ele>517.177486</ele>
        <time>2022-05-17T23:26:02.241Z</time>
      </trkpt>
      <trkpt lat="43.84679" lon="18.23796">
        <ele>517.170504</ele>
        <time>2022-05-17T23:26:22.294Z</time>
      </trkpt>
      <trkpt lat="43.84681" lon="18.23888">
        <ele>517.259587</ele>
        <time>2022-05-17T23:26:43.827Z</time>
      </trkpt>
      <trkpt lat="43.84677" lon="18.23951">
        <ele>517.319948</ele>
        <time>2022-05-17T23:26:59.512Z</time>
      </trkpt>
      <trkpt lat="43.84664" lon="18.24018">
        <ele>517.387255</ele>
        <time>2022-05-17T23:27:16.640Z</time>
      </trkpt>
      <trkpt lat="43.84643" lon="18.24097">
        <ele>517.501005</ele>
        <time>2022-05-17T23:27:37.291Z</time>
      </trkpt>
      <trkpt lat="43.84613" lon="18.24173">
        <ele>517.617178</ele>
        <time>2022-05-17T23:27:58.258Z</time>
      </trkpt>
      <trkpt lat="43.84617" lon="18.24193">
        <ele>517.644775</ele>
        <time>2022-05-17T23:28:03.417Z</time>
      </trkpt>
      <trkpt lat="43.84633" lon="18.24204">
        <ele>517.679895</ele>
        <time>2022-05-17T23:28:09.479Z</time>
      </trkpt>
      <trkpt lat="43.84649" lon="18.24195">
        <ele>517.712253</ele>
        <time>2022-05-17T23:28:15.604Z</time>
      </trkpt>
      <trkpt lat="43.84662" lon="18.24132">
        <ele>517.446784</ele>
        <time>2022-05-17T23:28:30.265Z</time>
      </trkpt>
      <trkpt lat="43.84688" lon="18.24046">
        <ele>517.008119</ele>
        <time>2022-05-17T23:28:50.360Z</time>
      </trkpt>
      <trkpt lat="43.84694" lon="18.24039">
        <ele>516.958171</ele>
        <time>2022-05-17T23:28:52.373Z</time>
      </trkpt>
      <trkpt lat="43.84752" lon="18.24024">
        <ele>516.57258</ele>
        <time>2022-05-17T23:29:09.391Z</time>
      </trkpt>
      <trkpt lat="43.84757" lon="18.24069">
        <ele>516.170867</ele>
        <time>2022-05-17T23:29:17.879Z</time>
      </trkpt>
      <trkpt lat="43.84768" lon="18.24161">
        <ele>515.301849</ele>
        <time>2022-05-17T23:29:34.938Z</time>
      </trkpt>
      <trkpt lat="43.84771" lon="18.24188">
        <ele>515.044575</ele>
        <time>2022-05-17T23:29:40.209Z</time>
      </trkpt>
      <trkpt lat="43.84788" lon="18.24288">
        <ele>514.132727</ele>
        <time>2022-05-17T23:29:59.828Z</time>
      </trkpt>
      <trkpt lat="43.84791" lon="18.24351">
        <ele>513.739554</ele>
        <time>2022-05-17T23:30:12.136Z</time>
      </trkpt>
      <trkpt lat="43.8478" lon="18.24373">
        <ele>513.57742</ele>
        <time>2022-05-17T23:30:17.364Z</time>
      </trkpt>
      <trkpt lat="43.84762" lon="18.24392">
        <ele>513.38268</ele>
        <time>2022-05-17T23:30:23.449Z</time>
      </trkpt>
      <trkpt lat="43.84711" lon="18.24505">
        <ele>512.68179</ele>
        <time>2022-05-17T23:30:50.404Z</time>
      </trkpt>
      <trkpt lat="43.84689" lon="18.24553">
        <ele>512.681063</ele>
        <time>2022-05-17T23:31:02.450Z</time>
      </trkpt>
      <trkpt lat="43.84664" lon="18.24607">
        <ele>512.680222</ele>
        <time>2022-05-17T23:31:17.186Z</time>
      </trkpt>
      <trkpt lat="43.84654" lon="18.24632">
        <ele>512.679852</ele>
        <time>2022-05-17T23:31:23.414Z</time>
      </trkpt>
      <trkpt lat="43.84646" lon="18.24686">
        <ele>512.679128</ele>
        <time>2022-05-17T23:31:36.340Z</time>
      </trkpt>
      <trkpt lat="43.84576" lon="18.24777">
        <ele>513.776419</ele>
        <time>2022-05-17T23:32:11.254Z</time>
      </trkpt>
      <trkpt lat="43.84569" lon="18.24773">
        <ele>513.890362</ele>
        <time>2022-05-17T23:32:14.498Z</time>
      </trkpt>
      <trkpt lat="43.84566" lon="18.24763">
        <ele>513.997928</ele>
        <time>2022-05-17T23:32:17.697Z</time>
      </trkpt>
      <trkpt lat="43.84565" lon="18.2469">
        <ele>514.739482</ele>
        <time>2022-05-17T23:32:39.738Z</time>
      </trkpt>
      <trkpt lat="43.84554" lon="18.24636">
        <ele>515.296951</ele>
        <time>2022-05-17T23:32:56.780Z</time>
      </trkpt>
      <trkpt lat="43.84558" lon="18.24585">
        <ele>515.720835</ele>
        <time>2022-05-17T23:33:12.109Z</time>
      </trkpt>
      <trkpt lat="43.84548" lon="18.24567">
        <ele>515.896474</ele>
        <time>2022-05-17T23:33:18.417Z</time>
      </trkpt>
      <trkpt lat="43.84529" lon="18.24553">
        <ele>516.14197</ele>
        <time>2022-05-17T23:33:27.179Z</time>
      </trkpt>
      <trkpt lat="43.84502" lon="18.24534">
        <ele>516.489998</ele>
        <time>2022-05-17T23:33:39.207Z</time>
      </trkpt>
      <trkpt lat="43.84485" lon="18.24534">
        <ele>516.674023</ele>
        <time>2022-05-17T23:33:45.320Z</time>
      </trkpt>
      <trkpt lat="43.84464" lon="18.2458">
        <ele>517.119598</ele>
        <time>2022-05-17T23:33:58.480Z</time>
      </trkpt>
      <trkpt lat="43.84429" lon="18.24711">
        <ele>517.416862</ele>
        <time>2022-05-17T23:34:28.620Z</time>
      </trkpt>
      <trkpt lat="43.84425" lon="18.24741">
        <ele>517.456349</ele>
        <time>2022-05-17T23:34:34.881Z</time>
      </trkpt>
      <trkpt lat="43.84443" lon="18.24797">
        <ele>517.535965</ele>
        <time>2022-05-17T23:34:50.563Z</time>
      </trkpt>
      <trkpt lat="43.84445" lon="18.2487">
        <ele>517.53931</ele>
        <time>2022-05-17T23:35:08.971Z</time>
      </trkpt>
      <trkpt lat="43.84436" lon="18.24933">
        <ele>517.46839</ele>
        <time>2022-05-17T23:35:24.462Z</time>
      </trkpt>
      <trkpt lat="43.84418" lon="18.24987">
        <ele>517.402919</ele>
        <time>2022-05-17T23:35:39.891Z</time>
      </trkpt>
      <trkpt lat="43.84412" lon="18.25004">
        <ele>517.382672</ele>
        <time>2022-05-17T23:35:43.331Z</time>
      </trkpt>
      <trkpt lat="43.84415" lon="18.25047">
        <ele>517.334381</ele>
        <time>2022-05-17T23:35:51.987Z</time>
      </trkpt>
      <trkpt lat="43.84409" lon="18.25071">
        <ele>517.306364</ele>
        <time>2022-05-17T23:35:56.482Z</time>
      </trkpt>
      <trkpt lat="43.84368" lon="18.25173">
        <ele>514.895168</ele>
        <time>2022-05-17T23:36:17.098Z</time>
      </trkpt>
      <trkpt lat="43.84356" lon="18.25185">
        <ele>514.482942</ele>
        <time>2022-05-17T23:36:20.110Z</time>
      </trkpt>
      <trkpt lat="43.84347" lon="18.25189">
        <ele>514.21573</ele>
        <time>2022-05-17T23:36:22.330Z</time>
      </trkpt>
      <trkpt lat="43.84205" lon="18.25385">
        <ele>508.450667</ele>
        <time>2022-05-17T23:37:09.508Z</time>
      </trkpt>
      <trkpt lat="43.84173" lon="18.25432">
        <ele>507.088596</ele>
        <time>2022-05-17T23:37:42.374Z</time>
      </trkpt>
      <trkpt lat="43.84158" lon="18.25417">
        <ele>506.869695</ele>
        <time>2022-05-17T23:37:55.178Z</time>
      </trkpt>
      <trkpt lat="43.84076" lon="18.25531">
        <ele>506.101691</ele>
        <time>2022-05-17T23:38:28.106Z</time>
      </trkpt>
      <trkpt lat="43.84037" lon="18.25578">
        <ele>505.7872</ele>
        <time>2022-05-17T23:38:43.862Z</time>
      </trkpt>
      <trkpt lat="43.83991" lon="18.2562">
        <ele>506.264436</ele>
        <time>2022-05-17T23:39:00.475Z</time>
      </trkpt>
      <trkpt lat="43.8386" lon="18.25801">
        <ele>509.246527</ele>
        <time>2022-05-17T23:40:12.005Z</time>
      </trkpt>
      <trkpt lat="43.83709" lon="18.26014">
        <ele>515.397943</ele>
        <time>2022-05-17T23:42:08.092Z</time>
      </trkpt>
      <trkpt lat="43.83691" lon="18.26049">
        <ele>516.183874</ele>
        <time>2022-05-17T23:42:22.238Z</time>
      </trkpt>
      <trkpt lat="43.83669" lon="18.26128">
        <ele>517.228489</ele>
        <time>2022-05-17T23:42:44.580Z</time>
      </trkpt>
      <trkpt lat="43.83637" lon="18.26284">
        <ele>514.1472</ele>
        <time>2022-05-17T23:43:12.306Z</time>
      </trkpt>
      <trkpt lat="43.83615" lon="18.26316">
        <ele>513.328269</ele>
        <time>2022-05-17T23:43:18.896Z</time>
      </trkpt>
      <trkpt lat="43.83508" lon="18.26433">
        <ele>509.543362</ele>
        <time>2022-05-17T23:43:48.895Z</time>
      </trkpt>
      <trkpt lat="43.83461" lon="18.26518">
        <ele>507.837298</ele>
        <time>2022-05-17T23:44:09.504Z</time>
      </trkpt>
      <trkpt lat="43.83405" lon="18.2665">
        <ele>508.546756</ele>
        <time>2022-05-17T23:44:50.815Z</time>
      </trkpt>
      <trkpt lat="43.83364" lon="18.26698">
        <ele>508.891605</ele>
        <time>2022-05-17T23:45:11.317Z</time>
      </trkpt>
      <trkpt lat="43.83329" lon="18.26746">
        <ele>508.330949</ele>
        <time>2022-05-17T23:45:28.469Z</time>
      </trkpt>
      <trkpt lat="43.83206" lon="18.26895">
        <ele>505.580306</ele>
        <time>2022-05-17T23:46:08.929Z</time>
      </trkpt>
      <trkpt lat="43.83185" lon="18.26916">
        <ele>504.632725</ele>
        <time>2022-05-17T23:46:14.624Z</time>
      </trkpt>
      <trkpt lat="43.83123" lon="18.26997">
        <ele>501.555765</ele>
        <time>2022-05-17T23:46:33.100Z</time>
      </trkpt>
      <trkpt lat="43.83087" lon="18.27075">
        <ele>499.470747</ele>
        <time>2022-05-17T23:46:47.835Z</time>
      </trkpt>
      <trkpt lat="43.83063" lon="18.27176">
        <ele>497.600424</ele>
        <time>2022-05-17T23:47:05.377Z</time>
      </trkpt>
      <trkpt lat="43.8306" lon="18.27196">
        <ele>497.22781</ele>
        <time>2022-05-17T23:47:09.095Z</time>
      </trkpt>
      <trkpt lat="43.83054" lon="18.27226">
        <ele>496.691158</ele>
        <time>2022-05-17T23:47:14.609Z</time>
      </trkpt>
      <trkpt lat="43.83045" lon="18.27306">
        <ele>495.733957</ele>
        <time>2022-05-17T23:47:30.881Z</time>
      </trkpt>
      <trkpt lat="43.83042" lon="18.27337">
        <ele>495.713048</ele>
        <time>2022-05-17T23:47:37.688Z</time>
      </trkpt>
      <trkpt lat="43.83041" lon="18.27359">
        <ele>495.697905</ele>
        <time>2022-05-17T23:47:42.489Z</time>
      </trkpt>
      <trkpt lat="43.83042" lon="18.2737">
        <ele>495.69077</ele>
        <time>2022-05-17T23:47:45.123Z</time>
      </trkpt>
      <trkpt lat="43.8305" lon="18.27459">
        <ele>495.63038</ele>
        <time>2022-05-17T23:48:05.558Z</time>
      </trkpt>
      <trkpt lat="43.83062" lon="18.27509">
        <ele>495.594688</ele>
        <time>2022-05-17T23:48:17.574Z</time>
      </trkpt>
      <trkpt lat="43.83092" lon="18.27587">
        <ele>495.874162</ele>
        <time>2022-05-17T23:48:39.476Z</time>
      </trkpt>
      <trkpt lat="43.83124" lon="18.27653">
        <ele>496.187769</ele>
        <time>2022-05-17T23:49:00.064Z</time>
      </trkpt>
      <trkpt lat="43.8314" lon="18.27682">
        <ele>496.331378</ele>
        <time>2022-05-17T23:49:08.848Z</time>
      </trkpt>
      <trkpt lat="43.8316" lon="18.27719">
        <ele>496.509931</ele>
        <time>2022-05-17T23:49:20.009Z</time>
      </trkpt>
      <trkpt lat="43.83198" lon="18.27824">
        <ele>496.653647</ele>
        <time>2022-05-17T23:49:48.571Z</time>
      </trkpt>
      <trkpt lat="43.83207" lon="18.27858">
        <ele>496.685816</ele>
        <time>2022-05-17T23:49:56.896Z</time>
      </trkpt>
      <trkpt lat="43.8321" lon="18.27869">
        <ele>496.696081</ele>
        <time>2022-05-17T23:49:59.414Z</time>
      </trkpt>
      <trkpt lat="43.83221" lon="18.27918">
        <ele>496.741835</ele>
        <time>2022-05-17T23:50:11.036Z</time>
      </trkpt>
      <trkpt lat="43.83232" lon="18.27997">
        <ele>496.639359</ele>
        <time>2022-05-17T23:50:28.283Z</time>
      </trkpt>
      <trkpt lat="43.83239" lon="18.28066">
        <ele>496.357658</ele>
        <time>2022-05-17T23:50:42.633Z</time>
      </trkpt>
      <trkpt lat="43.83241" lon="18.28085">
        <ele>496.276711</ele>
        <time>2022-05-17T23:50:46.854Z</time>
      </trkpt>
      <trkpt lat="43.83247" lon="18.2824">
        <ele>495.593478</ele>
        <time>2022-05-17T23:51:17.636Z</time>
      </trkpt>
      <trkpt lat="43.83167" lon="18.2859">
        <ele>493.419708</ele>
        <time>2022-05-17T23:52:34.134Z</time>
      </trkpt>
      <trkpt lat="43.8315" lon="18.2863">
        <ele>493.147329</ele>
        <time>2022-05-17T23:52:44.158Z</time>
      </trkpt>
      <trkpt lat="43.83149" lon="18.28633">
        <ele>493.13136</ele>
        <time>2022-05-17T23:52:44.616Z</time>
      </trkpt>
      <trkpt lat="43.8314" lon="18.28678">
        <ele>492.855282</ele>
        <time>2022-05-17T23:52:54.441Z</time>
      </trkpt>
      <trkpt lat="43.83137" lon="18.28845">
        <ele>492.189321</ele>
        <time>2022-05-17T23:53:29.506Z</time>
      </trkpt>
      <trkpt lat="43.8313" lon="18.28914">
        <ele>491.916652</ele>
        <time>2022-05-17T23:53:44.944Z</time>
      </trkpt>
      <trkpt lat="43.83109" lon="18.29064">
        <ele>491.816202</ele>
        <time>2022-05-17T23:54:19.923Z</time>
      </trkpt>
      <trkpt lat="43.83097" lon="18.29101">
        <ele>491.808011</ele>
        <time>2022-05-17T23:54:29.118Z</time>
      </trkpt>
      <trkpt lat="43.83046" lon="18.29255">
        <ele>491.915953</ele>
        <time>2022-05-17T23:55:08.699Z</time>
      </trkpt>
      <trkpt lat="43.83011" lon="18.29373">
        <ele>492.080105</ele>
        <time>2022-05-17T23:55:37.806Z</time>
      </trkpt>
      <trkpt lat="43.8301" lon="18.29379">
        <ele>492.087738</ele>
        <time>2022-05-17T23:55:39.097Z</time>
      </trkpt>
      <trkpt lat="43.82989" lon="18.29507">
        <ele>492.730004</ele>
        <time>2022-05-17T23:56:10.717Z</time>
      </trkpt>
      <trkpt lat="43.82987" lon="18.29539">
        <ele>492.904906</ele>
        <time>2022-05-17T23:56:18.969Z</time>
      </trkpt>
      <trkpt lat="43.82986" lon="18.29554">
        <ele>492.990271</ele>
        <time>2022-05-17T23:56:22.886Z</time>
      </trkpt>
      <trkpt lat="43.82987" lon="18.29685">
        <ele>493.853559</ele>
        <time>2022-05-17T23:56:58.469Z</time>
      </trkpt>
      <trkpt lat="43.82999" lon="18.29774">
        <ele>494.679555</ele>
        <time>2022-05-17T23:57:23.850Z</time>
      </trkpt>
      <trkpt lat="43.83023" lon="18.29888">
        <ele>495.763333</ele>
        <time>2022-05-17T23:57:56.553Z</time>
      </trkpt>
      <trkpt lat="43.83037" lon="18.2993">
        <ele>496.009021</ele>
        <time>2022-05-17T23:58:09.567Z</time>
      </trkpt>
      <trkpt lat="43.83053" lon="18.2997">
        <ele>496.249254</ele>
        <time>2022-05-17T23:58:21.845Z</time>
      </trkpt>
      <trkpt lat="43.8306" lon="18.29987">
        <ele>496.346248</ele>
        <time>2022-05-17T23:58:26.476Z</time>
      </trkpt>
      <trkpt lat="43.83121" lon="18.30139">
        <ele>497.056803</ele>
        <time>2022-05-17T23:59:09.086Z</time>
      </trkpt>
      <trkpt lat="43.83145" lon="18.30199">
        <ele>497.029676</ele>
        <time>2022-05-17T23:59:24.244Z</time>
      </trkpt>
      <trkpt lat="43.83147" lon="18.30201">
        <ele>497.028425</ele>
        <time>2022-05-17T23:59:24.956Z</time>
      </trkpt>
      <trkpt lat="43.83149" lon="18.30218">
        <ele>497.021671</ele>
        <time>2022-05-17T23:59:28.752Z</time>
      </trkpt>
      <trkpt lat="43.83149" lon="18.30223">
        <ele>497.019757</ele>
        <time>2022-05-17T23:59:29.824Z</time>
      </trkpt>
      <trkpt lat="43.83149" lon="18.30225">
        <ele>497.018765</ele>
        <time>2022-05-17T23:59:30.364Z</time>
      </trkpt>
      <trkpt lat="43.83143" lon="18.30245">
        <ele>497.010462</ele>
        <time>2022-05-17T23:59:35.092Z</time>
      </trkpt>
      <trkpt lat="43.83108" lon="18.30395">
        <ele>496.98012</ele>
        <time>2022-05-18T00:00:08.816Z</time>
      </trkpt>
      <trkpt lat="43.83068" lon="18.30489">
        <ele>496.993509</ele>
        <time>2022-05-18T00:00:33.176Z</time>
      </trkpt>
      <trkpt lat="43.83031" lon="18.30534">
        <ele>497.001913</ele>
        <time>2022-05-18T00:00:49.382Z</time>
      </trkpt>
      <trkpt lat="43.83078" lon="18.30623">
        <ele>497.210835</ele>
        <time>2022-05-18T00:01:15.640Z</time>
      </trkpt>
      <trkpt lat="43.8313" lon="18.30717">
        <ele>497.455008</ele>
        <time>2022-05-18T00:01:43.502Z</time>
      </trkpt>
      <trkpt lat="43.83159" lon="18.3077">
        <ele>497.525618</ele>
        <time>2022-05-18T00:01:59.215Z</time>
      </trkpt>
      <trkpt lat="43.83154" lon="18.30775">
        <ele>497.526348</ele>
        <time>2022-05-18T00:02:01.474Z</time>
      </trkpt>
      <trkpt lat="43.83156" lon="18.30779">
        <ele>497.526825</ele>
        <time>2022-05-18T00:02:02.665Z</time>
      </trkpt>
      <trkpt lat="43.83159" lon="18.30784">
        <ele>497.527492</ele>
        <time>2022-05-18T00:02:04.306Z</time>
      </trkpt>
      <trkpt lat="43.83182" lon="18.30833">
        <ele>497.533165</ele>
        <time>2022-05-18T00:02:18.188Z</time>
      </trkpt>
      <trkpt lat="43.83181" lon="18.30845">
        <ele>497.534378</ele>
        <time>2022-05-18T00:02:21.107Z</time>
      </trkpt>
      <trkpt lat="43.83165" lon="18.30881">
        <ele>497.538509</ele>
        <time>2022-05-18T00:02:30.780Z</time>
      </trkpt>
      <trkpt lat="43.83167" lon="18.30911">
        <ele>497.54149</ele>
        <time>2022-05-18T00:02:37.584Z</time>
      </trkpt>
      <trkpt lat="43.83161" lon="18.30925">
        <ele>497.543083</ele>
        <time>2022-05-18T00:02:41.154Z</time>
      </trkpt>
      <trkpt lat="43.83166" lon="18.3093">
        <ele>497.543948</ele>
        <time>2022-05-18T00:02:45.627Z</time>
      </trkpt>
      <trkpt lat="43.83173" lon="18.30939">
        <ele>497.545287</ele>
        <time>2022-05-18T00:02:52.472Z</time>
      </trkpt>
      <trkpt lat="43.83214" lon="18.30936">
        <ele>497.558043</ele>
        <time>2022-05-18T00:03:05.438Z</time>
      </trkpt>
      <trkpt lat="43.83222" lon="18.30941">
        <ele>497.561596</ele>
        <time>2022-05-18T00:03:08.470Z</time>
      </trkpt>
      <trkpt lat="43.83368" lon="18.31215">
        <ele>497.821983</ele>
        <time>2022-05-18T00:04:29.357Z</time>
      </trkpt>
      <trkpt lat="43.83308" lon="18.31388">
        <ele>498.169251</ele>
        <time>2022-05-18T00:05:15.248Z</time>
      </trkpt>
      <trkpt lat="43.83245" lon="18.31566">
        <ele>498.65376</ele>
        <time>2022-05-18T00:06:02.185Z</time>
      </trkpt>
      <trkpt lat="43.83222" lon="18.31681">
        <ele>499.037446</ele>
        <time>2022-05-18T00:06:30.883Z</time>
      </trkpt>
      <trkpt lat="43.83222" lon="18.31801">
        <ele>499.47806</ele>
        <time>2022-05-18T00:07:00.896Z</time>
      </trkpt>
      <trkpt lat="43.83215" lon="18.31956">
        <ele>500.289946</ele>
        <time>2022-05-18T00:07:38.758Z</time>
      </trkpt>
      <trkpt lat="43.83241" lon="18.32119">
        <ele>501.334582</ele>
        <time>2022-05-18T00:08:24.274Z</time>
      </trkpt>
      <trkpt lat="43.83241" lon="18.32126">
        <ele>501.383254</ele>
        <time>2022-05-18T00:08:26.227Z</time>
      </trkpt>
      <trkpt lat="43.83242" lon="18.32136">
        <ele>501.454809</ele>
        <time>2022-05-18T00:08:29.133Z</time>
      </trkpt>
      <trkpt lat="43.83236" lon="18.32178">
        <ele>501.747452</ele>
        <time>2022-05-18T00:08:40.211Z</time>
      </trkpt>
      <trkpt lat="43.83228" lon="18.32227">
        <ele>502.096357</ele>
        <time>2022-05-18T00:08:53.188Z</time>
      </trkpt>
      <trkpt lat="43.83222" lon="18.32278">
        <ele>502.359756</ele>
        <time>2022-05-18T00:09:06.508Z</time>
      </trkpt>
      <trkpt lat="43.83214" lon="18.32329">
        <ele>502.357069</ele>
        <time>2022-05-18T00:09:19.446Z</time>
      </trkpt>
      <trkpt lat="43.83213" lon="18.32335">
        <ele>502.356747</ele>
        <time>2022-05-18T00:09:20.933Z</time>
      </trkpt>
      <trkpt lat="43.83301" lon="18.32406">
        <ele>502.349526</ele>
        <time>2022-05-18T00:09:51.805Z</time>
      </trkpt>
      <trkpt lat="43.83342" lon="18.3244">
        <ele>502.324392</ele>
        <time>2022-05-18T00:10:05.033Z</time>
      </trkpt>
      <trkpt lat="43.83388" lon="18.32479">
        <ele>502.266987</ele>
        <time>2022-05-18T00:10:20.308Z</time>
      </trkpt>
      <trkpt lat="43.83418" lon="18.32504">
        <ele>502.22972</ele>
        <time>2022-05-18T00:10:30.860Z</time>
      </trkpt>
      <trkpt lat="43.83483" lon="18.32574">
        <ele>502.240904</ele>
        <time>2022-05-18T00:10:57.916Z</time>
      </trkpt>
      <trkpt lat="43.83528" lon="18.3261">
        <ele>502.585427</ele>
        <time>2022-05-18T00:11:16.133Z</time>
      </trkpt>
      <trkpt lat="43.83541" lon="18.3263">
        <ele>502.711824</ele>
        <time>2022-05-18T00:11:23.210Z</time>
      </trkpt>
      <trkpt lat="43.83547" lon="18.3263">
        <ele>502.755616</ele>
        <time>2022-05-18T00:11:25.533Z</time>
      </trkpt>
      <trkpt lat="43.83576" lon="18.32597">
        <ele>503.000729</ele>
        <time>2022-05-18T00:11:38.533Z</time>
      </trkpt>
      <trkpt lat="43.83612" lon="18.32646">
        <ele>503.337541</ele>
        <time>2022-05-18T00:11:56.198Z</time>
      </trkpt>
      <trkpt lat="43.83645" lon="18.32691">
        <ele>503.727819</ele>
        <time>2022-05-18T00:12:12.725Z</time>
      </trkpt>
      <trkpt lat="43.83709" lon="18.32778">
        <ele>504.491462</ele>
        <time>2022-05-18T00:12:45.794Z</time>
      </trkpt>
      <trkpt lat="43.83618" lon="18.3289">
        <ele>505.151695</ele>
        <time>2022-05-18T00:13:28.545Z</time>
      </trkpt>
      <trkpt lat="43.83585" lon="18.32934">
        <ele>505.31539</ele>
        <time>2022-05-18T00:13:43.614Z</time>
      </trkpt>
      <trkpt lat="43.83793" lon="18.33188">
        <ele>505.875583</ele>
        <time>2022-05-18T00:15:12.028Z</time>
      </trkpt>
      <trkpt lat="43.83798" lon="18.33187">
        <ele>505.93641</ele>
        <time>2022-05-18T00:15:14.242Z</time>
      </trkpt>
      <trkpt lat="43.83824" lon="18.33154">
        <ele>506.324797</ele>
        <time>2022-05-18T00:15:27.959Z</time>
      </trkpt>
      <trkpt lat="43.83925" lon="18.33276">
        <ele>507.907943</ele>
        <time>2022-05-18T00:16:23.391Z</time>
      </trkpt>
      <trkpt lat="43.83994" lon="18.33349">
        <ele>509.139776</ele>
        <time>2022-05-18T00:16:58.905Z</time>
      </trkpt>
      <trkpt lat="43.83977" lon="18.33389">
        <ele>509.606637</ele>
        <time>2022-05-18T00:17:11.461Z</time>
      </trkpt>
      <trkpt lat="43.83968" lon="18.33411">
        <ele>509.866947</ele>
        <time>2022-05-18T00:17:18.358Z</time>
      </trkpt>
      <trkpt lat="43.83974" lon="18.3347">
        <ele>510.296836</ele>
        <time>2022-05-18T00:17:34.509Z</time>
      </trkpt>
      <trkpt lat="43.83937" lon="18.33547">
        <ele>510.910994</ele>
        <time>2022-05-18T00:17:59.293Z</time>
      </trkpt>
      <trkpt lat="43.83937" lon="18.33549">
        <ele>510.925553</ele>
        <time>2022-05-18T00:17:59.852Z</time>
      </trkpt>
      <trkpt lat="43.83998" lon="18.3361">
        <ele>511.625455</ele>
        <time>2022-05-18T00:18:26.789Z</time>
      </trkpt>
      <trkpt lat="43.8403" lon="18.33643">
        <ele>511.778125</ele>
        <time>2022-05-18T00:18:40.319Z</time>
      </trkpt>
      <trkpt lat="43.84112" lon="18.33744">
        <ele>512.20267</ele>
        <time>2022-05-18T00:19:16.802Z</time>
      </trkpt>
      <trkpt lat="43.84162" lon="18.33799">
        <ele>512.534195</ele>
        <time>2022-05-18T00:19:36.520Z</time>
      </trkpt>
      <trkpt lat="43.84202" lon="18.3387">
        <ele>512.955497</ele>
        <time>2022-05-18T00:19:58.849Z</time>
      </trkpt>
      <trkpt lat="43.84234" lon="18.33924">
        <ele>513.28018</ele>
        <time>2022-05-18T00:20:17.549Z</time>
      </trkpt>
      <trkpt lat="43.84333" lon="18.34102">
        <ele>513.643833</ele>
        <time>2022-05-18T00:21:16.347Z</time>
      </trkpt>
      <trkpt lat="43.84339" lon="18.34114">
        <ele>513.656267</ele>
        <time>2022-05-18T00:21:19.224Z</time>
      </trkpt>
      <trkpt lat="43.84345" lon="18.34124">
        <ele>513.667631</ele>
        <time>2022-05-18T00:21:21.630Z</time>
      </trkpt>
      <trkpt lat="43.84372" lon="18.34114">
        <ele>513.701897</ele>
        <time>2022-05-18T00:21:28.608Z</time>
      </trkpt>
      <trkpt lat="43.84398" lon="18.34106">
        <ele>513.196592</ele>
        <time>2022-05-18T00:21:34.987Z</time>
      </trkpt>
      <trkpt lat="43.84405" lon="18.34103">
        <ele>513.030271</ele>
        <time>2022-05-18T00:21:37.197Z</time>
      </trkpt>
      <trkpt lat="43.84414" lon="18.34099">
        <ele>512.840033</ele>
        <time>2022-05-18T00:21:39.519Z</time>
      </trkpt>
      <trkpt lat="43.845" lon="18.3407">
        <ele>511.051162</ele>
        <time>2022-05-18T00:22:00.279Z</time>
      </trkpt>
      <trkpt lat="43.84501" lon="18.34077">
        <ele>510.938334</ele>
        <time>2022-05-18T00:22:04.097Z</time>
      </trkpt>
      <trkpt lat="43.84504" lon="18.34087">
        <ele>510.781595</ele>
        <time>2022-05-18T00:22:05.892Z</time>
      </trkpt>
      <trkpt lat="43.84508" lon="18.34117">
        <ele>510.34206</ele>
        <time>2022-05-18T00:22:10.913Z</time>
      </trkpt>
      <trkpt lat="43.84601" lon="18.34729">
        <ele>508.291749</ele>
        <time>2022-05-18T00:24:27.021Z</time>
      </trkpt>
      <trkpt lat="43.84604" lon="18.34745">
        <ele>508.34317</ele>
        <time>2022-05-18T00:24:31.305Z</time>
      </trkpt>
      <trkpt lat="43.84698" lon="18.35378">
        <ele>510.570203</ele>
        <time>2022-05-18T00:27:20.863Z</time>
      </trkpt>
      <trkpt lat="43.847" lon="18.3539">
        <ele>510.537173</ele>
        <time>2022-05-18T00:27:23.830Z</time>
      </trkpt>
      <trkpt lat="43.84702" lon="18.35401">
        <ele>510.507828</ele>
        <time>2022-05-18T00:27:26.472Z</time>
      </trkpt>
      <trkpt lat="43.84753" lon="18.35724">
        <ele>509.860066</ele>
        <time>2022-05-18T00:28:37.063Z</time>
      </trkpt>
      <trkpt lat="43.84762" lon="18.35781">
        <ele>509.808389</ele>
        <time>2022-05-18T00:28:50.485Z</time>
      </trkpt>
      <trkpt lat="43.84763" lon="18.35784">
        <ele>509.805042</ele>
        <time>2022-05-18T00:28:51.391Z</time>
      </trkpt>
      <trkpt lat="43.84764" lon="18.35787">
        <ele>509.80265</ele>
        <time>2022-05-18T00:28:52.017Z</time>
      </trkpt>
      <trkpt lat="43.84773" lon="18.35846">
        <ele>509.760235</ele>
        <time>2022-05-18T00:29:06.948Z</time>
      </trkpt>
      <trkpt lat="43.84801" lon="18.36029">
        <ele>511.027624</ele>
        <time>2022-05-18T00:29:58.647Z</time>
      </trkpt>
      <trkpt lat="43.84802" lon="18.36056">
        <ele>511.212658</ele>
        <time>2022-05-18T00:30:06.365Z</time>
      </trkpt>
      <trkpt lat="43.84812" lon="18.36103">
        <ele>511.538387</ele>
        <time>2022-05-18T00:30:19.850Z</time>
      </trkpt>
      <trkpt lat="43.84867" lon="18.365">
        <ele>514.137972</ele>
        <time>2022-05-18T00:32:08.482Z</time>
      </trkpt>
      <trkpt lat="43.84893" lon="18.36658">
        <ele>515.058141</ele>
        <time>2022-05-18T00:32:52.879Z</time>
      </trkpt>
      <trkpt lat="43.84894" lon="18.36661">
        <ele>515.075137</ele>
        <time>2022-05-18T00:32:53.831Z</time>
      </trkpt>
      <trkpt lat="43.84897" lon="18.36671">
        <ele>515.127996</ele>
        <time>2022-05-18T00:32:56.673Z</time>
      </trkpt>
      <trkpt lat="43.84899" lon="18.36686">
        <ele>515.201654</ele>
        <time>2022-05-18T00:33:00.602Z</time>
      </trkpt>
      <trkpt lat="43.849" lon="18.36692">
        <ele>515.231282</ele>
        <time>2022-05-18T00:33:02.181Z</time>
      </trkpt>
      <trkpt lat="43.84905" lon="18.36707">
        <ele>515.317365</ele>
        <time>2022-05-18T00:33:06.664Z</time>
      </trkpt>
      <trkpt lat="43.84905" lon="18.36713">
        <ele>515.34553</ele>
        <time>2022-05-18T00:33:08.133Z</time>
      </trkpt>
      <trkpt lat="43.84964" lon="18.37082">
        <ele>516.686071</ele>
        <time>2022-05-18T00:34:38.645Z</time>
      </trkpt>
      <trkpt lat="43.84974" lon="18.37188">
        <ele>517.317234</ele>
        <time>2022-05-18T00:35:05.083Z</time>
      </trkpt>
      <trkpt lat="43.8498" lon="18.3726">
        <ele>517.739434</ele>
        <time>2022-05-18T00:35:24.174Z</time>
      </trkpt>
      <trkpt lat="43.84974" lon="18.3728">
        <ele>517.863606</ele>
        <time>2022-05-18T00:35:29.729Z</time>
      </trkpt>
      <trkpt lat="43.84975" lon="18.37288">
        <ele>517.9167</ele>
        <time>2022-05-18T00:35:32.120Z</time>
      </trkpt>
      <trkpt lat="43.84989" lon="18.37307">
        <ele>518.07651</ele>
        <time>2022-05-18T00:35:39.494Z</time>
      </trkpt>
      <trkpt lat="43.85045" lon="18.3749">
        <ele>519.561375</ele>
        <time>2022-05-18T00:36:33.990Z</time>
      </trkpt>
      <trkpt lat="43.85085" lon="18.3771">
        <ele>520.405273</ele>
        <time>2022-05-18T00:37:29.266Z</time>
      </trkpt>
      <trkpt lat="43.85106" lon="18.37794">
        <ele>520.647069</ele>
        <time>2022-05-18T00:37:49.316Z</time>
      </trkpt>
      <trkpt lat="43.85114" lon="18.3779">
        <ele>520.675722</ele>
        <time>2022-05-18T00:37:52.134Z</time>
      </trkpt>
      <trkpt lat="43.85126" lon="18.37825">
        <ele>520.767888</ele>
        <time>2022-05-18T00:38:01.108Z</time>
      </trkpt>
      <trkpt lat="43.85145" lon="18.37879">
        <ele>520.911208</ele>
        <time>2022-05-18T00:38:15.408Z</time>
      </trkpt>
      <trkpt lat="43.85149" lon="18.37896">
        <ele>520.953606</ele>
        <time>2022-05-18T00:38:19.778Z</time>
      </trkpt>
      <trkpt lat="43.85143" lon="18.37904">
        <ele>520.982426</ele>
        <time>2022-05-18T00:38:22.625Z</time>
      </trkpt>
      <trkpt lat="43.85123" lon="18.3791">
        <ele>521.047341</ele>
        <time>2022-05-18T00:38:29.223Z</time>
      </trkpt>
      <trkpt lat="43.85133" lon="18.37964">
        <ele>521.17768</ele>
        <time>2022-05-18T00:38:42.635Z</time>
      </trkpt>
      <trkpt lat="43.85146" lon="18.38135">
        <ele>521.648974</ele>
        <time>2022-05-18T00:39:24.209Z</time>
      </trkpt>
      <trkpt lat="43.85157" lon="18.38367">
        <ele>522.504685</ele>
        <time>2022-05-18T00:40:19.225Z</time>
      </trkpt>
      <trkpt lat="43.8516" lon="18.38456">
        <ele>522.877209</ele>
        <time>2022-05-18T00:40:42.336Z</time>
      </trkpt>
      <trkpt lat="43.85161" lon="18.38504">
        <ele>523.297521</ele>
        <time>2022-05-18T00:40:55.485Z</time>
      </trkpt>
      <trkpt lat="43.85162" lon="18.38547">
        <ele>523.715647</ele>
        <time>2022-05-18T00:41:07.373Z</time>
      </trkpt>
      <trkpt lat="43.85162" lon="18.38565">
        <ele>523.898162</ele>
        <time>2022-05-18T00:41:12.621Z</time>
      </trkpt>
      <trkpt lat="43.85161" lon="18.38578">
        <ele>524.027717</ele>
        <time>2022-05-18T00:41:16.511Z</time>
      </trkpt>
      <trkpt lat="43.8516" lon="18.38693">
        <ele>525.152454</ele>
        <time>2022-05-18T00:41:50.685Z</time>
      </trkpt>
      <trkpt lat="43.85164" lon="18.38771">
        <ele>525.729084</ele>
        <time>2022-05-18T00:42:13.420Z</time>
      </trkpt>
      <trkpt lat="43.85178" lon="18.38858">
        <ele>526.297235</ele>
        <time>2022-05-18T00:42:37.504Z</time>
      </trkpt>
      <trkpt lat="43.85211" lon="18.38973">
        <ele>527.029698</ele>
        <time>2022-05-18T00:43:09.183Z</time>
      </trkpt>
      <trkpt lat="43.85213" lon="18.38979">
        <ele>527.051208</ele>
        <time>2022-05-18T00:43:10.897Z</time>
      </trkpt>
      <trkpt lat="43.85216" lon="18.38988">
        <ele>527.08433</ele>
        <time>2022-05-18T00:43:13.488Z</time>
      </trkpt>
      <trkpt lat="43.85231" lon="18.39029">
        <ele>527.229507</ele>
        <time>2022-05-18T00:43:24.769Z</time>
      </trkpt>
      <trkpt lat="43.85281" lon="18.39174">
        <ele>527.74341</ele>
        <time>2022-05-18T00:44:05.187Z</time>
      </trkpt>
      <trkpt lat="43.853" lon="18.39283">
        <ele>528.196002</ele>
        <time>2022-05-18T00:44:33.886Z</time>
      </trkpt>
      <trkpt lat="43.85301" lon="18.39293">
        <ele>528.235602</ele>
        <time>2022-05-18T00:44:36.427Z</time>
      </trkpt>
      <trkpt lat="43.85303" lon="18.39306">
        <ele>528.291863</ele>
        <time>2022-05-18T00:44:40.036Z</time>
      </trkpt>
      <trkpt lat="43.85304" lon="18.39311">
        <ele>528.311016</ele>
        <time>2022-05-18T00:44:41.257Z</time>
      </trkpt>
      <trkpt lat="43.853" lon="18.39312">
        <ele>528.332579</ele>
        <time>2022-05-18T00:44:42.522Z</time>
      </trkpt>
      <trkpt lat="43.85375" lon="18.39853">
        <ele>530.715473</ele>
        <time>2022-05-18T00:46:59.735Z</time>
      </trkpt>
      <trkpt lat="43.85379" lon="18.40006">
        <ele>531.632819</ele>
        <time>2022-05-18T00:47:37.654Z</time>
      </trkpt>
      <trkpt lat="43.85374" lon="18.40085">
        <ele>532.189452</ele>
        <time>2022-05-18T00:47:58.974Z</time>
      </trkpt>
      <trkpt lat="43.85374" lon="18.40091">
        <ele>532.227038</ele>
        <time>2022-05-18T00:48:00.490Z</time>
      </trkpt>
      <trkpt lat="43.85382" lon="18.4009">
        <ele>532.304233</ele>
        <time>2022-05-18T00:48:06.000Z</time>
      </trkpt>
      <trkpt lat="43.85377" lon="18.40144">
        <ele>532.677978</ele>
        <time>2022-05-18T00:48:21.609Z</time>
      </trkpt>
      <trkpt lat="43.85352" lon="18.40378">
        <ele>534.650558</ele>
        <time>2022-05-18T00:49:28.945Z</time>
      </trkpt>
      <trkpt lat="43.85351" lon="18.40496">
        <ele>534.95652</ele>
        <time>2022-05-18T00:49:59.741Z</time>
      </trkpt>
      <trkpt lat="43.85354" lon="18.40547">
        <ele>535.040576</ele>
        <time>2022-05-18T00:50:12.208Z</time>
      </trkpt>
      <trkpt lat="43.85361" lon="18.40649">
        <ele>535.187708</ele>
        <time>2022-05-18T00:50:35.013Z</time>
      </trkpt>
      <trkpt lat="43.85388" lon="18.40725">
        <ele>535.033125</ele>
        <time>2022-05-18T00:50:52.808Z</time>
      </trkpt>
      <trkpt lat="43.85432" lon="18.40833">
        <ele>534.803969</ele>
        <time>2022-05-18T00:51:19.733Z</time>
      </trkpt>
      <trkpt lat="43.85464" lon="18.40908">
        <ele>534.845456</ele>
        <time>2022-05-18T00:51:38.325Z</time>
      </trkpt>
      <trkpt lat="43.85476" lon="18.40938">
        <ele>534.915491</ele>
        <time>2022-05-18T00:51:45.803Z</time>
      </trkpt>
      <trkpt lat="43.85504" lon="18.41001">
        <ele>535.062963</ele>
        <time>2022-05-18T00:52:03.390Z</time>
      </trkpt>
      <trkpt lat="43.85532" lon="18.41066">
        <ele>535.215888</ele>
        <time>2022-05-18T00:52:22.593Z</time>
      </trkpt>
      <trkpt lat="43.85553" lon="18.41116">
        <ele>535.557694</ele>
        <time>2022-05-18T00:52:37.412Z</time>
      </trkpt>
      <trkpt lat="43.85573" lon="18.41124">
        <ele>535.755233</ele>
        <time>2022-05-18T00:52:44.728Z</time>
      </trkpt>
      <trkpt lat="43.85581" lon="18.41124">
        <ele>535.833629</ele>
        <time>2022-05-18T00:52:47.731Z</time>
      </trkpt>
      <trkpt lat="43.85581" lon="18.41159">
        <ele>536.073069</ele>
        <time>2022-05-18T00:52:56.440Z</time>
      </trkpt>
      <trkpt lat="43.85592" lon="18.41211">
        <ele>536.451255</ele>
        <time>2022-05-18T00:53:10.718Z</time>
      </trkpt>
      <trkpt lat="43.85601" lon="18.41241">
        <ele>536.681238</ele>
        <time>2022-05-18T00:53:19.573Z</time>
      </trkpt>
      <trkpt lat="43.85616" lon="18.41283">
        <ele>537.025792</ele>
        <time>2022-05-18T00:53:32.653Z</time>
      </trkpt>
      <trkpt lat="43.85622" lon="18.41298">
        <ele>537.209898</ele>
        <time>2022-05-18T00:53:37.300Z</time>
      </trkpt>
      <trkpt lat="43.85613" lon="18.41302">
        <ele>537.354446</ele>
        <time>2022-05-18T00:53:41.089Z</time>
      </trkpt>
      <trkpt lat="43.85609" lon="18.41304">
        <ele>537.425226</ele>
        <time>2022-05-18T00:53:42.830Z</time>
      </trkpt>
      <trkpt lat="43.85592" lon="18.41313">
        <ele>537.708211</ele>
        <time>2022-05-18T00:53:49.301Z</time>
      </trkpt>
      <trkpt lat="43.85574" lon="18.41323">
        <ele>538.019624</ele>
        <time>2022-05-18T00:53:56.600Z</time>
      </trkpt>
      <trkpt lat="43.85571" lon="18.41325">
        <ele>538.066173</ele>
        <time>2022-05-18T00:53:57.722Z</time>
      </trkpt>
      <trkpt lat="43.85564" lon="18.4133">
        <ele>538.196673</ele>
        <time>2022-05-18T00:54:00.895Z</time>
      </trkpt>
      <trkpt lat="43.85554" lon="18.41342">
        <ele>538.404286</ele>
        <time>2022-05-18T00:54:05.902Z</time>
      </trkpt>
      <trkpt lat="43.85562" lon="18.41366">
        <ele>538.702106</ele>
        <time>2022-05-18T00:54:13.249Z</time>
      </trkpt>
      <trkpt lat="43.85574" lon="18.41452">
        <ele>539.701538</ele>
        <time>2022-05-18T00:54:39.913Z</time>
      </trkpt>
      <trkpt lat="43.85573" lon="18.41472">
        <ele>539.964092</ele>
        <time>2022-05-18T00:54:46.449Z</time>
      </trkpt>
      <trkpt lat="43.85565" lon="18.41497">
        <ele>540.365982</ele>
        <time>2022-05-18T00:54:55.144Z</time>
      </trkpt>
      <trkpt lat="43.85522" lon="18.41599">
        <ele>542.121183</ele>
        <time>2022-05-18T00:55:31.562Z</time>
      </trkpt>
      <trkpt lat="43.85512" lon="18.41623">
        <ele>542.521002</ele>
        <time>2022-05-18T00:55:39.854Z</time>
      </trkpt>
      <trkpt lat="43.85504" lon="18.41643">
        <ele>542.856204</ele>
        <time>2022-05-18T00:55:46.596Z</time>
      </trkpt>
      <trkpt lat="43.85474" lon="18.41719">
        <ele>543.524331</ele>
        <time>2022-05-18T00:56:13.332Z</time>
      </trkpt>
      <trkpt lat="43.85465" lon="18.41779">
        <ele>543.524331</ele>
        <time>2022-05-18T00:56:31.822Z</time>
      </trkpt>
      <trkpt lat="43.85482" lon="18.41844">
        <ele>543.524331</ele>
        <time>2022-05-18T00:56:50.995Z</time>
      </trkpt>
      <trkpt lat="43.85492" lon="18.4188">
        <ele>543.524331</ele>
        <time>2022-05-18T00:57:01.104Z</time>
      </trkpt>
      <trkpt lat="43.85518" lon="18.41976">
        <ele>543.524331</ele>
        <time>2022-05-18T00:57:28.268Z</time>
      </trkpt>
    </trkseg>
  </trk>
  <trk>
    <name><![CDATA[4_Sarajevo à Zagreb_487km]]></name>
    <extensions>
      <line xmlns="http://www.topografix.com/GPX/gpx_style/0/2">
        <color>008888</color>
        <width>4</width>
      </line>
    </extensions>
    <trkseg>
      <trkpt lat="43.85174" lon="18.38855">
        <ele>525.505111</ele>
        <time>2022-05-05T15:56:48.957Z</time>
      </trkpt>
      <trkpt lat="43.85174" lon="18.3857">
        <ele>523.775239</ele>
        <time>2022-05-05T15:57:39.874Z</time>
      </trkpt>
      <trkpt lat="43.85056" lon="18.37805">
        <ele>520.372778</ele>
        <time>2022-05-05T16:00:05.854Z</time>
      </trkpt>
      <trkpt lat="43.84905" lon="18.36713">
        <ele>515.43098</ele>
        <time>2022-05-05T16:03:40.333Z</time>
      </trkpt>
      <trkpt lat="43.84763" lon="18.35784">
        <ele>509.84226</ele>
        <time>2022-05-05T16:06:28.168Z</time>
      </trkpt>
      <trkpt lat="43.84532" lon="18.34058">
        <ele>505.704332</ele>
        <time>2022-05-05T16:12:18.911Z</time>
      </trkpt>
      <trkpt lat="43.84437" lon="18.33387">
        <ele>501.228579</ele>
        <time>2022-05-05T16:14:29.916Z</time>
      </trkpt>
      <trkpt lat="43.8443" lon="18.32804">
        <ele>499.562868</ele>
        <time>2022-05-05T16:16:30.997Z</time>
      </trkpt>
      <trkpt lat="43.85065" lon="18.32675">
        <ele>498.714816</ele>
        <time>2022-05-05T16:19:19.583Z</time>
      </trkpt>
      <trkpt lat="43.85536" lon="18.32538">
        <ele>503.516874</ele>
        <time>2022-05-05T16:22:02.570Z</time>
      </trkpt>
      <trkpt lat="43.85954" lon="18.32019">
        <ele>503.977535</ele>
        <time>2022-05-05T16:24:43.328Z</time>
      </trkpt>
      <trkpt lat="43.86297" lon="18.31661">
        <ele>501.598088</ele>
        <time>2022-05-05T16:26:30.633Z</time>
      </trkpt>
      <trkpt lat="43.86969" lon="18.31175">
        <ele>496.009811</ele>
        <time>2022-05-05T16:29:34.878Z</time>
      </trkpt>
      <trkpt lat="43.87615" lon="18.3148">
        <ele>499.813361</ele>
        <time>2022-05-05T16:33:27.732Z</time>
      </trkpt>
      <trkpt lat="43.88131" lon="18.31752">
        <ele>497.812654</ele>
        <time>2022-05-05T16:35:58.834Z</time>
      </trkpt>
      <trkpt lat="43.88804" lon="18.32659">
        <ele>485.990365</ele>
        <time>2022-05-05T16:40:08.255Z</time>
      </trkpt>
      <trkpt lat="43.89381" lon="18.31993">
        <ele>490.005813</ele>
        <time>2022-05-05T16:44:44.561Z</time>
      </trkpt>
      <trkpt lat="43.89978" lon="18.32379">
        <ele>494.143536</ele>
        <time>2022-05-05T16:48:38.472Z</time>
      </trkpt>
      <trkpt lat="43.90421" lon="18.32208">
        <ele>519.67161</ele>
        <time>2022-05-05T16:53:34.518Z</time>
      </trkpt>
      <trkpt lat="43.90973" lon="18.31872">
        <ele>516.596059</ele>
        <time>2022-05-05T16:56:52.491Z</time>
      </trkpt>
      <trkpt lat="43.91317" lon="18.31778">
        <ele>508.347328</ele>
        <time>2022-05-05T16:58:33.987Z</time>
      </trkpt>
      <trkpt lat="43.91783" lon="18.31332">
        <ele>475.611105</ele>
        <time>2022-05-05T17:00:25.361Z</time>
      </trkpt>
      <trkpt lat="43.92037" lon="18.3158">
        <ele>474.158571</ele>
        <time>2022-05-05T17:02:21.693Z</time>
      </trkpt>
      <trkpt lat="43.92168" lon="18.31417">
        <ele>481.146972</ele>
        <time>2022-05-05T17:04:52.484Z</time>
      </trkpt>
      <trkpt lat="43.92594" lon="18.30755">
        <ele>480.117695</ele>
        <time>2022-05-05T17:08:13.754Z</time>
      </trkpt>
      <trkpt lat="43.93136" lon="18.30322">
        <ele>477.422617</ele>
        <time>2022-05-05T17:11:43.781Z</time>
      </trkpt>
      <trkpt lat="43.93906" lon="18.29968">
        <ele>471.250564</ele>
        <time>2022-05-05T17:15:42.576Z</time>
      </trkpt>
      <trkpt lat="43.94057" lon="18.28314">
        <ele>457.840956</ele>
        <time>2022-05-05T17:21:04.413Z</time>
      </trkpt>
      <trkpt lat="43.94146" lon="18.2732">
        <ele>457.343838</ele>
        <time>2022-05-05T17:24:34.809Z</time>
      </trkpt>
      <trkpt lat="43.94644" lon="18.26715">
        <ele>462.262993</ele>
        <time>2022-05-05T17:28:20.467Z</time>
      </trkpt>
      <trkpt lat="43.95077" lon="18.27039">
        <ele>460.937843</ele>
        <time>2022-05-05T17:31:59.271Z</time>
      </trkpt>
      <trkpt lat="43.95444" lon="18.26468">
        <ele>455.024058</ele>
        <time>2022-05-05T17:34:31.898Z</time>
      </trkpt>
      <trkpt lat="43.96117" lon="18.26479">
        <ele>446.585831</ele>
        <time>2022-05-05T17:37:04.532Z</time>
      </trkpt>
      <trkpt lat="43.96613" lon="18.26004">
        <ele>441.675602</ele>
        <time>2022-05-05T17:39:33.244Z</time>
      </trkpt>
      <trkpt lat="43.9723" lon="18.24999">
        <ele>441.585539</ele>
        <time>2022-05-05T17:43:52.052Z</time>
      </trkpt>
      <trkpt lat="43.97509" lon="18.24303">
        <ele>440.045259</ele>
        <time>2022-05-05T17:46:26.842Z</time>
      </trkpt>
      <trkpt lat="43.98903" lon="18.23151">
        <ele>431.904785</ele>
        <time>2022-05-05T17:53:30.190Z</time>
      </trkpt>
      <trkpt lat="43.99806" lon="18.21522">
        <ele>426.451294</ele>
        <time>2022-05-05T17:59:43.467Z</time>
      </trkpt>
      <trkpt lat="43.99297" lon="18.20138">
        <ele>421.09211</ele>
        <time>2022-05-05T18:04:43.944Z</time>
      </trkpt>
      <trkpt lat="43.99199" lon="18.18823">
        <ele>419.777875</ele>
        <time>2022-05-05T18:09:21.328Z</time>
      </trkpt>
      <trkpt lat="44.00205" lon="18.17894">
        <ele>423.272831</ele>
        <time>2022-05-05T18:15:15.800Z</time>
      </trkpt>
      <trkpt lat="44.0055" lon="18.17365">
        <ele>418.283112</ele>
        <time>2022-05-05T18:17:36.359Z</time>
      </trkpt>
      <trkpt lat="44.01095" lon="18.16482">
        <ele>412.532082</ele>
        <time>2022-05-05T18:21:22.777Z</time>
      </trkpt>
      <trkpt lat="44.01945" lon="18.15996">
        <ele>413.43914</ele>
        <time>2022-05-05T18:26:05.416Z</time>
      </trkpt>
      <trkpt lat="44.02448" lon="18.15272">
        <ele>406.520787</ele>
        <time>2022-05-05T18:29:26.645Z</time>
      </trkpt>
      <trkpt lat="44.03274" lon="18.14696">
        <ele>410.170122</ele>
        <time>2022-05-05T18:34:21.562Z</time>
      </trkpt>
      <trkpt lat="44.03972" lon="18.13874">
        <ele>421.93358</ele>
        <time>2022-05-05T18:39:42.070Z</time>
      </trkpt>
      <trkpt lat="44.04485" lon="18.13176">
        <ele>431.185396</ele>
        <time>2022-05-05T18:43:50.965Z</time>
      </trkpt>
      <trkpt lat="44.04869" lon="18.12039">
        <ele>409.082892</ele>
        <time>2022-05-05T18:47:18.089Z</time>
      </trkpt>
      <trkpt lat="44.04969" lon="18.11217">
        <ele>399.506544</ele>
        <time>2022-05-05T18:50:05.664Z</time>
      </trkpt>
      <trkpt lat="44.06059" lon="18.10345">
        <ele>396.594249</ele>
        <time>2022-05-05T18:56:06.254Z</time>
      </trkpt>
      <trkpt lat="44.07917" lon="18.11">
        <ele>390.46803</ele>
        <time>2022-05-05T19:04:20.676Z</time>
      </trkpt>
      <trkpt lat="44.09542" lon="18.10888">
        <ele>388.338027</ele>
        <time>2022-05-05T19:12:05.338Z</time>
      </trkpt>
      <trkpt lat="44.10026" lon="18.11052">
        <ele>393.997361</ele>
        <time>2022-05-05T19:15:19.950Z</time>
      </trkpt>
      <trkpt lat="44.10729" lon="18.1183">
        <ele>406.640064</ele>
        <time>2022-05-05T19:20:35.446Z</time>
      </trkpt>
      <trkpt lat="44.11406" lon="18.11758">
        <ele>382.02826</ele>
        <time>2022-05-05T19:23:22.429Z</time>
      </trkpt>
      <trkpt lat="44.11899" lon="18.11459">
        <ele>378.415609</ele>
        <time>2022-05-05T19:25:49.511Z</time>
      </trkpt>
      <trkpt lat="44.12249" lon="18.11237">
        <ele>377.818956</ele>
        <time>2022-05-05T19:28:03.921Z</time>
      </trkpt>
      <trkpt lat="44.12453" lon="18.11501">
        <ele>383.070671</ele>
        <time>2022-05-05T19:30:10.019Z</time>
      </trkpt>
      <trkpt lat="44.12396" lon="18.11257">
        <ele>378.841521</ele>
        <time>2022-05-05T19:32:25.631Z</time>
      </trkpt>
      <trkpt lat="44.12758" lon="18.09182">
        <ele>373.174489</ele>
        <time>2022-05-05T19:39:21.608Z</time>
      </trkpt>
      <trkpt lat="44.13536" lon="18.08225">
        <ele>376.333948</ele>
        <time>2022-05-05T19:44:39.123Z</time>
      </trkpt>
      <trkpt lat="44.13206" lon="18.06816">
        <ele>370.377259</ele>
        <time>2022-05-05T19:49:23.948Z</time>
      </trkpt>
      <trkpt lat="44.13511" lon="18.05111">
        <ele>376.677784</ele>
        <time>2022-05-05T19:55:51.406Z</time>
      </trkpt>
      <trkpt lat="44.13672" lon="18.0314">
        <ele>369.939092</ele>
        <time>2022-05-05T20:02:02.690Z</time>
      </trkpt>
      <trkpt lat="44.13321" lon="18.01607">
        <ele>361.357375</ele>
        <time>2022-05-05T20:07:01.052Z</time>
      </trkpt>
      <trkpt lat="44.13283" lon="17.99976">
        <ele>359.349527</ele>
        <time>2022-05-05T20:12:21.115Z</time>
      </trkpt>
      <trkpt lat="44.13265" lon="17.98727">
        <ele>357.710687</ele>
        <time>2022-05-05T20:16:33.996Z</time>
      </trkpt>
      <trkpt lat="44.1287" lon="17.9758">
        <ele>360.446941</ele>
        <time>2022-05-05T20:20:52.005Z</time>
      </trkpt>
      <trkpt lat="44.12934" lon="17.96017">
        <ele>358.562388</ele>
        <time>2022-05-05T20:25:48.337Z</time>
      </trkpt>
      <trkpt lat="44.12979" lon="17.94487">
        <ele>364.391709</ele>
        <time>2022-05-05T20:30:39.448Z</time>
      </trkpt>
      <trkpt lat="44.13686" lon="17.93432">
        <ele>359.695169</ele>
        <time>2022-05-05T20:35:20.940Z</time>
      </trkpt>
      <trkpt lat="44.14497" lon="17.93727">
        <ele>341.507462</ele>
        <time>2022-05-05T20:39:14.624Z</time>
      </trkpt>
      <trkpt lat="44.14893" lon="17.9575">
        <ele>333.940258</ele>
        <time>2022-05-05T20:45:44.138Z</time>
      </trkpt>
      <trkpt lat="44.15539" lon="17.96275">
        <ele>336.027137</ele>
        <time>2022-05-05T20:49:36.121Z</time>
      </trkpt>
      <trkpt lat="44.16637" lon="17.9674">
        <ele>330.058176</ele>
        <time>2022-05-05T20:54:46.521Z</time>
      </trkpt>
      <trkpt lat="44.17838" lon="17.96704">
        <ele>344.130958</ele>
        <time>2022-05-05T21:02:00.239Z</time>
      </trkpt>
      <trkpt lat="44.18082" lon="17.96202">
        <ele>340.35853</ele>
        <time>2022-05-05T21:03:55.414Z</time>
      </trkpt>
      <trkpt lat="44.18486" lon="17.94871">
        <ele>339.927577</ele>
        <time>2022-05-05T21:09:11.496Z</time>
      </trkpt>
      <trkpt lat="44.1875" lon="17.93984">
        <ele>342.703398</ele>
        <time>2022-05-05T21:13:20.867Z</time>
      </trkpt>
      <trkpt lat="44.19002" lon="17.93411">
        <ele>323.782559</ele>
        <time>2022-05-05T21:15:37.980Z</time>
      </trkpt>
      <trkpt lat="44.19259" lon="17.92889">
        <ele>318.973656</ele>
        <time>2022-05-05T21:18:08.328Z</time>
      </trkpt>
      <trkpt lat="44.19472" lon="17.92113">
        <ele>314.993723</ele>
        <time>2022-05-05T21:20:46.267Z</time>
      </trkpt>
      <trkpt lat="44.19861" lon="17.91779">
        <ele>313.364906</ele>
        <time>2022-05-05T21:23:13.159Z</time>
      </trkpt>
      <trkpt lat="44.19979" lon="17.91263">
        <ele>315.986485</ele>
        <time>2022-05-05T21:25:11.871Z</time>
      </trkpt>
      <trkpt lat="44.20307" lon="17.90782">
        <ele>318.293085</ele>
        <time>2022-05-05T21:27:41.807Z</time>
      </trkpt>
      <trkpt lat="44.20276" lon="17.90502">
        <ele>322.420665</ele>
        <time>2022-05-05T21:29:14.500Z</time>
      </trkpt>
      <trkpt lat="44.20365" lon="17.9009">
        <ele>331.982375</ele>
        <time>2022-05-05T21:32:02.397Z</time>
      </trkpt>
      <trkpt lat="44.21132" lon="17.89303">
        <ele>359.324767</ele>
        <time>2022-05-05T21:38:36.678Z</time>
      </trkpt>
      <trkpt lat="44.2212" lon="17.89323">
        <ele>344.773381</ele>
        <time>2022-05-05T21:43:08.811Z</time>
      </trkpt>
      <trkpt lat="44.22891" lon="17.88962">
        <ele>330.705925</ele>
        <time>2022-05-05T21:46:18.259Z</time>
      </trkpt>
      <trkpt lat="44.23683" lon="17.88998">
        <ele>313.022863</ele>
        <time>2022-05-05T21:49:08.609Z</time>
      </trkpt>
      <trkpt lat="44.24188" lon="17.89394">
        <ele>316.505424</ele>
        <time>2022-05-05T21:52:13.042Z</time>
      </trkpt>
      <trkpt lat="44.24939" lon="17.89674">
        <ele>301.451306</ele>
        <time>2022-05-05T21:55:24.075Z</time>
      </trkpt>
      <trkpt lat="44.25466" lon="17.8853">
        <ele>318.360431</ele>
        <time>2022-05-05T22:02:17.603Z</time>
      </trkpt>
      <trkpt lat="44.26068" lon="17.87756">
        <ele>295.201416</ele>
        <time>2022-05-05T22:05:20.003Z</time>
      </trkpt>
      <trkpt lat="44.27515" lon="17.88073">
        <ele>297.277149</ele>
        <time>2022-05-05T22:12:09.222Z</time>
      </trkpt>
      <trkpt lat="44.29329" lon="17.89678">
        <ele>300.241914</ele>
        <time>2022-05-05T22:22:29.436Z</time>
      </trkpt>
      <trkpt lat="44.29196" lon="17.9044">
        <ele>306.79848</ele>
        <time>2022-05-05T22:26:18.453Z</time>
      </trkpt>
      <trkpt lat="44.29251" lon="17.90993">
        <ele>313.431525</ele>
        <time>2022-05-05T22:30:15.525Z</time>
      </trkpt>
      <trkpt lat="44.28515" lon="17.90945">
        <ele>304.186912</ele>
        <time>2022-05-05T22:34:16.173Z</time>
      </trkpt>
      <trkpt lat="44.28528" lon="17.91802">
        <ele>285.14296</ele>
        <time>2022-05-05T22:38:01.230Z</time>
      </trkpt>
      <trkpt lat="44.29794" lon="17.91579">
        <ele>293.67079</ele>
        <time>2022-05-05T22:45:00.538Z</time>
      </trkpt>
      <trkpt lat="44.3063" lon="17.91044">
        <ele>278.846036</ele>
        <time>2022-05-05T22:49:14.339Z</time>
      </trkpt>
      <trkpt lat="44.30728" lon="17.9049">
        <ele>303.876249</ele>
        <time>2022-05-05T22:53:43.764Z</time>
      </trkpt>
      <trkpt lat="44.32004" lon="17.90425">
        <ele>270.174946</ele>
        <time>2022-05-05T22:59:03.001Z</time>
      </trkpt>
      <trkpt lat="44.33241" lon="17.91559">
        <ele>268.644243</ele>
        <time>2022-05-05T23:05:35.599Z</time>
      </trkpt>
      <trkpt lat="44.34463" lon="17.92151">
        <ele>268.646088</ele>
        <time>2022-05-05T23:11:31.920Z</time>
      </trkpt>
      <trkpt lat="44.35221" lon="17.92469">
        <ele>267.383274</ele>
        <time>2022-05-05T23:15:09.999Z</time>
      </trkpt>
      <trkpt lat="44.3558" lon="17.93423">
        <ele>271.553744</ele>
        <time>2022-05-05T23:19:19.822Z</time>
      </trkpt>
      <trkpt lat="44.35695" lon="17.95054">
        <ele>261.502159</ele>
        <time>2022-05-05T23:24:28.279Z</time>
      </trkpt>
      <trkpt lat="44.35137" lon="17.96694">
        <ele>266.06349</ele>
        <time>2022-05-05T23:30:57.232Z</time>
      </trkpt>
      <trkpt lat="44.34995" lon="17.98588">
        <ele>254.28082</ele>
        <time>2022-05-05T23:36:54.457Z</time>
      </trkpt>
      <trkpt lat="44.3588" lon="17.99821">
        <ele>252.768344</ele>
        <time>2022-05-05T23:42:37.887Z</time>
      </trkpt>
      <trkpt lat="44.3712" lon="18.00238">
        <ele>250.972058</ele>
        <time>2022-05-05T23:48:32.016Z</time>
      </trkpt>
      <trkpt lat="44.38322" lon="17.98698">
        <ele>250.782518</ele>
        <time>2022-05-05T23:56:07.640Z</time>
      </trkpt>
      <trkpt lat="44.39207" lon="17.98505">
        <ele>242.186191</ele>
        <time>2022-05-05T23:59:45.612Z</time>
      </trkpt>
      <trkpt lat="44.39911" lon="17.99785">
        <ele>240.648238</ele>
        <time>2022-05-06T00:05:03.354Z</time>
      </trkpt>
      <trkpt lat="44.40511" lon="18.00557">
        <ele>240.48849</ele>
        <time>2022-05-06T00:09:13.580Z</time>
      </trkpt>
      <trkpt lat="44.41752" lon="17.99659">
        <ele>235.082481</ele>
        <time>2022-05-06T00:15:39.297Z</time>
      </trkpt>
      <trkpt lat="44.42273" lon="18.00551">
        <ele>234.00419</ele>
        <time>2022-05-06T00:19:28.826Z</time>
      </trkpt>
      <trkpt lat="44.42493" lon="18.02379">
        <ele>232.922452</ele>
        <time>2022-05-06T00:25:28.069Z</time>
      </trkpt>
      <trkpt lat="44.43163" lon="18.03589">
        <ele>241.3238</ele>
        <time>2022-05-06T00:31:14.338Z</time>
      </trkpt>
      <trkpt lat="44.43814" lon="18.04124">
        <ele>256.04494</ele>
        <time>2022-05-06T00:35:52.934Z</time>
      </trkpt>
      <trkpt lat="44.4437" lon="18.04934">
        <ele>264.741864</ele>
        <time>2022-05-06T00:40:17.052Z</time>
      </trkpt>
      <trkpt lat="44.44751" lon="18.05704">
        <ele>283.265826</ele>
        <time>2022-05-06T00:45:06.323Z</time>
      </trkpt>
      <trkpt lat="44.45743" lon="18.06146">
        <ele>307.117653</ele>
        <time>2022-05-06T00:51:10.118Z</time>
      </trkpt>
      <trkpt lat="44.46536" lon="18.06602">
        <ele>264.899021</ele>
        <time>2022-05-06T00:54:01.233Z</time>
      </trkpt>
      <trkpt lat="44.47571" lon="18.0686">
        <ele>226.600873</ele>
        <time>2022-05-06T00:57:33.000Z</time>
      </trkpt>
      <trkpt lat="44.48413" lon="18.07111">
        <ele>207.573576</ele>
        <time>2022-05-06T01:00:46.393Z</time>
      </trkpt>
      <trkpt lat="44.48709" lon="18.07863">
        <ele>200.944319</ele>
        <time>2022-05-06T01:03:10.544Z</time>
      </trkpt>
      <trkpt lat="44.49242" lon="18.08451">
        <ele>202.547394</ele>
        <time>2022-05-06T01:06:52.853Z</time>
      </trkpt>
      <trkpt lat="44.50057" lon="18.08022">
        <ele>203.605541</ele>
        <time>2022-05-06T01:11:00.667Z</time>
      </trkpt>
      <trkpt lat="44.50985" lon="18.08176">
        <ele>192.098205</ele>
        <time>2022-05-06T01:14:56.472Z</time>
      </trkpt>
      <trkpt lat="44.5185" lon="18.08493">
        <ele>179.798425</ele>
        <time>2022-05-06T01:18:35.458Z</time>
      </trkpt>
      <trkpt lat="44.52497" lon="18.09483">
        <ele>176.853941</ele>
        <time>2022-05-06T01:22:53.610Z</time>
      </trkpt>
      <trkpt lat="44.52879" lon="18.09187">
        <ele>174.199295</ele>
        <time>2022-05-06T01:25:12.521Z</time>
      </trkpt>
      <trkpt lat="44.53223" lon="18.08868">
        <ele>179.542573</ele>
        <time>2022-05-06T01:27:44.794Z</time>
      </trkpt>
      <trkpt lat="44.54306" lon="18.09614">
        <ele>172.063756</ele>
        <time>2022-05-06T01:33:25.361Z</time>
      </trkpt>
      <trkpt lat="44.54736" lon="18.1046">
        <ele>186.145933</ele>
        <time>2022-05-06T01:38:48.865Z</time>
      </trkpt>
      <trkpt lat="44.55475" lon="18.10364">
        <ele>185.031046</ele>
        <time>2022-05-06T01:42:23.601Z</time>
      </trkpt>
      <trkpt lat="44.56152" lon="18.10519">
        <ele>173.244059</ele>
        <time>2022-05-06T01:45:22.836Z</time>
      </trkpt>
      <trkpt lat="44.56831" lon="18.10697">
        <ele>170.795206</ele>
        <time>2022-05-06T01:48:38.496Z</time>
      </trkpt>
      <trkpt lat="44.57594" lon="18.10036">
        <ele>172.236557</ele>
        <time>2022-05-06T01:53:14.151Z</time>
      </trkpt>
      <trkpt lat="44.58001" lon="18.09873">
        <ele>187.323236</ele>
        <time>2022-05-06T01:57:14.121Z</time>
      </trkpt>
      <trkpt lat="44.59072" lon="18.09711">
        <ele>183.479861</ele>
        <time>2022-05-06T02:01:55.948Z</time>
      </trkpt>
      <trkpt lat="44.59779" lon="18.09959">
        <ele>182.288325</ele>
        <time>2022-05-06T02:06:03.928Z</time>
      </trkpt>
      <trkpt lat="44.60633" lon="18.09763">
        <ele>170.898842</ele>
        <time>2022-05-06T02:09:52.164Z</time>
      </trkpt>
      <trkpt lat="44.61487" lon="18.10556">
        <ele>163.998439</ele>
        <time>2022-05-06T02:14:29.981Z</time>
      </trkpt>
      <trkpt lat="44.62658" lon="18.1015">
        <ele>163.799076</ele>
        <time>2022-05-06T02:20:07.295Z</time>
      </trkpt>
      <trkpt lat="44.63169" lon="18.09341">
        <ele>158.459315</ele>
        <time>2022-05-06T02:23:21.909Z</time>
      </trkpt>
      <trkpt lat="44.63965" lon="18.09204">
        <ele>164.654786</ele>
        <time>2022-05-06T02:28:58.738Z</time>
      </trkpt>
      <trkpt lat="44.64634" lon="18.09118">
        <ele>159.833972</ele>
        <time>2022-05-06T02:32:26.128Z</time>
      </trkpt>
      <trkpt lat="44.64921" lon="18.08308">
        <ele>161.364732</ele>
        <time>2022-05-06T02:35:38.522Z</time>
      </trkpt>
      <trkpt lat="44.65871" lon="18.08157">
        <ele>155.972704</ele>
        <time>2022-05-06T02:39:53.898Z</time>
      </trkpt>
      <trkpt lat="44.66429" lon="18.07281">
        <ele>152.845851</ele>
        <time>2022-05-06T02:43:42.691Z</time>
      </trkpt>
      <trkpt lat="44.67569" lon="18.07186">
        <ele>151.041828</ele>
        <time>2022-05-06T02:49:37.245Z</time>
      </trkpt>
      <trkpt lat="44.69011" lon="18.07163">
        <ele>147.143828</ele>
        <time>2022-05-06T02:55:50.446Z</time>
      </trkpt>
      <trkpt lat="44.69782" lon="18.07301">
        <ele>146.535843</ele>
        <time>2022-05-06T02:59:16.280Z</time>
      </trkpt>
      <trkpt lat="44.70672" lon="18.08245">
        <ele>146.305018</ele>
        <time>2022-05-06T03:04:51.856Z</time>
      </trkpt>
      <trkpt lat="44.71645" lon="18.08">
        <ele>145.220249</ele>
        <time>2022-05-06T03:11:14.258Z</time>
      </trkpt>
      <trkpt lat="44.72474" lon="18.07383">
        <ele>150.575547</ele>
        <time>2022-05-06T03:16:15.958Z</time>
      </trkpt>
      <trkpt lat="44.72821" lon="18.0728">
        <ele>193.033375</ele>
        <time>2022-05-06T03:22:01.093Z</time>
      </trkpt>
      <trkpt lat="44.73337" lon="18.06928">
        <ele>239.282247</ele>
        <time>2022-05-06T03:28:23.428Z</time>
      </trkpt>
      <trkpt lat="44.73734" lon="18.0634">
        <ele>278.238574</ele>
        <time>2022-05-06T03:34:31.638Z</time>
      </trkpt>
      <trkpt lat="44.73798" lon="18.05005">
        <ele>301.991891</ele>
        <time>2022-05-06T03:41:00.210Z</time>
      </trkpt>
      <trkpt lat="44.74474" lon="18.04631">
        <ele>292.578141</ele>
        <time>2022-05-06T03:46:04.435Z</time>
      </trkpt>
      <trkpt lat="44.7507" lon="18.04798">
        <ele>213.880358</ele>
        <time>2022-05-06T03:47:50.689Z</time>
      </trkpt>
      <trkpt lat="44.75591" lon="18.04906">
        <ele>151.006575</ele>
        <time>2022-05-06T03:49:33.088Z</time>
      </trkpt>
      <trkpt lat="44.75892" lon="18.0428">
        <ele>138.866344</ele>
        <time>2022-05-06T03:51:32.992Z</time>
      </trkpt>
      <trkpt lat="44.76091" lon="18.03857">
        <ele>138.547888</ele>
        <time>2022-05-06T03:53:39.461Z</time>
      </trkpt>
      <trkpt lat="44.75888" lon="18.03053">
        <ele>141.165785</ele>
        <time>2022-05-06T03:56:41.447Z</time>
      </trkpt>
      <trkpt lat="44.7557" lon="18.02243">
        <ele>144.724644</ele>
        <time>2022-05-06T04:00:05.527Z</time>
      </trkpt>
      <trkpt lat="44.75641" lon="18.00515">
        <ele>149.453791</ele>
        <time>2022-05-06T04:06:11.905Z</time>
      </trkpt>
      <trkpt lat="44.75465" lon="17.98896">
        <ele>156.018783</ele>
        <time>2022-05-06T04:12:01.344Z</time>
      </trkpt>
      <trkpt lat="44.76124" lon="17.96749">
        <ele>165.116472</ele>
        <time>2022-05-06T04:20:14.153Z</time>
      </trkpt>
      <trkpt lat="44.76265" lon="17.95763">
        <ele>168.276889</ele>
        <time>2022-05-06T04:23:49.909Z</time>
      </trkpt>
      <trkpt lat="44.76536" lon="17.95212">
        <ele>175.567968</ele>
        <time>2022-05-06T04:26:44.145Z</time>
      </trkpt>
      <trkpt lat="44.76867" lon="17.94824">
        <ele>183.511174</ele>
        <time>2022-05-06T04:29:59.924Z</time>
      </trkpt>
      <trkpt lat="44.77098" lon="17.93966">
        <ele>180.208359</ele>
        <time>2022-05-06T04:33:06.685Z</time>
      </trkpt>
      <trkpt lat="44.76943" lon="17.92342">
        <ele>216.692528</ele>
        <time>2022-05-06T04:41:47.618Z</time>
      </trkpt>
      <trkpt lat="44.77309" lon="17.91331">
        <ele>257.075469</ele>
        <time>2022-05-06T04:48:53.880Z</time>
      </trkpt>
      <trkpt lat="44.77008" lon="17.90814">
        <ele>271.213316</ele>
        <time>2022-05-06T04:52:26.339Z</time>
      </trkpt>
      <trkpt lat="44.76566" lon="17.8976">
        <ele>273.476369</ele>
        <time>2022-05-06T04:56:52.565Z</time>
      </trkpt>
      <trkpt lat="44.76632" lon="17.89057">
        <ele>281.3032</ele>
        <time>2022-05-06T05:00:41.478Z</time>
      </trkpt>
      <trkpt lat="44.76299" lon="17.88785">
        <ele>251.314123</ele>
        <time>2022-05-06T05:02:09.052Z</time>
      </trkpt>
      <trkpt lat="44.75854" lon="17.88364">
        <ele>249.179585</ele>
        <time>2022-05-06T05:05:31.877Z</time>
      </trkpt>
      <trkpt lat="44.75272" lon="17.87863">
        <ele>208.291709</ele>
        <time>2022-05-06T05:07:48.763Z</time>
      </trkpt>
      <trkpt lat="44.75243" lon="17.86933">
        <ele>203.938753</ele>
        <time>2022-05-06T05:11:25.079Z</time>
      </trkpt>
      <trkpt lat="44.75044" lon="17.86056">
        <ele>193.696871</ele>
        <time>2022-05-06T05:14:46.269Z</time>
      </trkpt>
      <trkpt lat="44.75424" lon="17.85054">
        <ele>188.689536</ele>
        <time>2022-05-06T05:18:45.580Z</time>
      </trkpt>
      <trkpt lat="44.75411" lon="17.83563">
        <ele>178.693523</ele>
        <time>2022-05-06T05:23:11.084Z</time>
      </trkpt>
      <trkpt lat="44.762" lon="17.831">
        <ele>202.083686</ele>
        <time>2022-05-06T05:30:42.629Z</time>
      </trkpt>
      <trkpt lat="44.76567" lon="17.8209">
        <ele>214.306973</ele>
        <time>2022-05-06T05:36:14.376Z</time>
      </trkpt>
      <trkpt lat="44.76428" lon="17.80823">
        <ele>201.350378</ele>
        <time>2022-05-06T05:40:33.051Z</time>
      </trkpt>
      <trkpt lat="44.76346" lon="17.80153">
        <ele>191.679294</ele>
        <time>2022-05-06T05:42:31.432Z</time>
      </trkpt>
      <trkpt lat="44.76495" lon="17.78919">
        <ele>171.117127</ele>
        <time>2022-05-06T05:46:33.925Z</time>
      </trkpt>
      <trkpt lat="44.76921" lon="17.77879">
        <ele>172.537144</ele>
        <time>2022-05-06T05:50:38.893Z</time>
      </trkpt>
      <trkpt lat="44.77136" lon="17.76361">
        <ele>159.596522</ele>
        <time>2022-05-06T05:54:50.884Z</time>
      </trkpt>
      <trkpt lat="44.77547" lon="17.75379">
        <ele>155.396564</ele>
        <time>2022-05-06T05:58:29.133Z</time>
      </trkpt>
      <trkpt lat="44.77308" lon="17.74432">
        <ele>156.377146</ele>
        <time>2022-05-06T06:02:46.850Z</time>
      </trkpt>
      <trkpt lat="44.76964" lon="17.74143">
        <ele>156.933208</ele>
        <time>2022-05-06T06:05:20.935Z</time>
      </trkpt>
      <trkpt lat="44.76676" lon="17.73132">
        <ele>168.057663</ele>
        <time>2022-05-06T06:10:55.925Z</time>
      </trkpt>
      <trkpt lat="44.76141" lon="17.7191">
        <ele>167.96187</ele>
        <time>2022-05-06T06:19:48.086Z</time>
      </trkpt>
      <trkpt lat="44.75777" lon="17.71167">
        <ele>196.595494</ele>
        <time>2022-05-06T06:27:32.548Z</time>
      </trkpt>
      <trkpt lat="44.76129" lon="17.70485">
        <ele>177.249441</ele>
        <time>2022-05-06T06:31:54.245Z</time>
      </trkpt>
      <trkpt lat="44.75318" lon="17.70029">
        <ele>184.247095</ele>
        <time>2022-05-06T06:39:33.853Z</time>
      </trkpt>
      <trkpt lat="44.75045" lon="17.68465">
        <ele>177.974257</ele>
        <time>2022-05-06T06:48:07.977Z</time>
      </trkpt>
      <trkpt lat="44.74986" lon="17.67456">
        <ele>173.228674</ele>
        <time>2022-05-06T06:51:36.546Z</time>
      </trkpt>
      <trkpt lat="44.74367" lon="17.66583">
        <ele>176.223127</ele>
        <time>2022-05-06T06:58:30.551Z</time>
      </trkpt>
      <trkpt lat="44.74639" lon="17.66067">
        <ele>180.93797</ele>
        <time>2022-05-06T07:03:13.607Z</time>
      </trkpt>
      <trkpt lat="44.74459" lon="17.65334">
        <ele>201.357511</ele>
        <time>2022-05-06T07:10:31.450Z</time>
      </trkpt>
      <trkpt lat="44.74351" lon="17.64238">
        <ele>194.569963</ele>
        <time>2022-05-06T07:16:52.942Z</time>
      </trkpt>
      <trkpt lat="44.73993" lon="17.62492">
        <ele>210.771965</ele>
        <time>2022-05-06T07:29:33.822Z</time>
      </trkpt>
      <trkpt lat="44.74581" lon="17.61784">
        <ele>195.356899</ele>
        <time>2022-05-06T07:34:43.213Z</time>
      </trkpt>
      <trkpt lat="44.75074" lon="17.59958">
        <ele>197.502249</ele>
        <time>2022-05-06T07:41:32.388Z</time>
      </trkpt>
      <trkpt lat="44.75474" lon="17.58064">
        <ele>202.743769</ele>
        <time>2022-05-06T07:50:20.877Z</time>
      </trkpt>
      <trkpt lat="44.75453" lon="17.57269">
        <ele>206.079746</ele>
        <time>2022-05-06T07:53:25.302Z</time>
      </trkpt>
      <trkpt lat="44.75067" lon="17.56844">
        <ele>213.542781</ele>
        <time>2022-05-06T07:56:57.710Z</time>
      </trkpt>
      <trkpt lat="44.75415" lon="17.55818">
        <ele>257.839354</ele>
        <time>2022-05-06T08:04:28.337Z</time>
      </trkpt>
      <trkpt lat="44.75713" lon="17.54623">
        <ele>231.819017</ele>
        <time>2022-05-06T08:07:48.247Z</time>
      </trkpt>
      <trkpt lat="44.76002" lon="17.53488">
        <ele>220.233876</ele>
        <time>2022-05-06T08:11:35.574Z</time>
      </trkpt>
      <trkpt lat="44.76233" lon="17.52248">
        <ele>222.13773</ele>
        <time>2022-05-06T08:16:21.733Z</time>
      </trkpt>
      <trkpt lat="44.76235" lon="17.50354">
        <ele>312.712867</ele>
        <time>2022-05-06T08:29:45.469Z</time>
      </trkpt>
      <trkpt lat="44.7606" lon="17.48201">
        <ele>334.55592</ele>
        <time>2022-05-06T08:38:42.170Z</time>
      </trkpt>
      <trkpt lat="44.7534" lon="17.46608">
        <ele>274.610068</ele>
        <time>2022-05-06T08:43:10.398Z</time>
      </trkpt>
      <trkpt lat="44.74511" lon="17.45607">
        <ele>259.218236</ele>
        <time>2022-05-06T08:47:28.242Z</time>
      </trkpt>
      <trkpt lat="44.74133" lon="17.44713">
        <ele>248.516768</ele>
        <time>2022-05-06T08:50:34.542Z</time>
      </trkpt>
      <trkpt lat="44.74077" lon="17.43805">
        <ele>246.976955</ele>
        <time>2022-05-06T08:54:06.845Z</time>
      </trkpt>
      <trkpt lat="44.74594" lon="17.4215">
        <ele>233.126849</ele>
        <time>2022-05-06T08:59:31.557Z</time>
      </trkpt>
      <trkpt lat="44.75226" lon="17.40944">
        <ele>240.923224</ele>
        <time>2022-05-06T09:05:01.761Z</time>
      </trkpt>
      <trkpt lat="44.7541" lon="17.39755">
        <ele>225.664524</ele>
        <time>2022-05-06T09:08:42.809Z</time>
      </trkpt>
      <trkpt lat="44.75774" lon="17.3854">
        <ele>218.685157</ele>
        <time>2022-05-06T09:13:02.540Z</time>
      </trkpt>
      <trkpt lat="44.74504" lon="17.37923">
        <ele>213.683208</ele>
        <time>2022-05-06T09:18:56.899Z</time>
      </trkpt>
      <trkpt lat="44.73961" lon="17.36785">
        <ele>210.832158</ele>
        <time>2022-05-06T09:23:27.448Z</time>
      </trkpt>
      <trkpt lat="44.74409" lon="17.35291">
        <ele>205.110182</ele>
        <time>2022-05-06T09:28:38.829Z</time>
      </trkpt>
      <trkpt lat="44.74678" lon="17.34119">
        <ele>203.297534</ele>
        <time>2022-05-06T09:32:51.959Z</time>
      </trkpt>
      <trkpt lat="44.74538" lon="17.33213">
        <ele>198.755705</ele>
        <time>2022-05-06T09:35:59.848Z</time>
      </trkpt>
      <trkpt lat="44.73761" lon="17.32003">
        <ele>194.163703</ele>
        <time>2022-05-06T09:41:16.444Z</time>
      </trkpt>
      <trkpt lat="44.7308" lon="17.31005">
        <ele>192.196467</ele>
        <time>2022-05-06T09:46:02.511Z</time>
      </trkpt>
      <trkpt lat="44.72474" lon="17.30225">
        <ele>191.897217</ele>
        <time>2022-05-06T09:50:09.931Z</time>
      </trkpt>
      <trkpt lat="44.72688" lon="17.29487">
        <ele>209.088532</ele>
        <time>2022-05-06T09:55:10.447Z</time>
      </trkpt>
      <trkpt lat="44.73215" lon="17.29366">
        <ele>192.756794</ele>
        <time>2022-05-06T09:57:19.445Z</time>
      </trkpt>
      <trkpt lat="44.73836" lon="17.28455">
        <ele>177.460451</ele>
        <time>2022-05-06T10:00:45.349Z</time>
      </trkpt>
      <trkpt lat="44.73824" lon="17.27976">
        <ele>182.666282</ele>
        <time>2022-05-06T10:03:15.558Z</time>
      </trkpt>
      <trkpt lat="44.74624" lon="17.27181">
        <ele>174.146818</ele>
        <time>2022-05-06T10:07:36.017Z</time>
      </trkpt>
      <trkpt lat="44.74695" lon="17.26372">
        <ele>178.165789</ele>
        <time>2022-05-06T10:10:56.619Z</time>
      </trkpt>
      <trkpt lat="44.74857" lon="17.25122">
        <ele>172.886714</ele>
        <time>2022-05-06T10:14:48.571Z</time>
      </trkpt>
      <trkpt lat="44.75992" lon="17.24575">
        <ele>161.866688</ele>
        <time>2022-05-06T10:19:48.257Z</time>
      </trkpt>
      <trkpt lat="44.76685" lon="17.23821">
        <ele>165.102673</ele>
        <time>2022-05-06T10:23:59.218Z</time>
      </trkpt>
      <trkpt lat="44.76687" lon="17.22994">
        <ele>166.969619</ele>
        <time>2022-05-06T10:26:47.696Z</time>
      </trkpt>
      <trkpt lat="44.76969" lon="17.22029">
        <ele>159.003925</ele>
        <time>2022-05-06T10:29:57.341Z</time>
      </trkpt>
      <trkpt lat="44.77306" lon="17.21706">
        <ele>151.922514</ele>
        <time>2022-05-06T10:31:43.220Z</time>
      </trkpt>
      <trkpt lat="44.77226" lon="17.20985">
        <ele>154.941604</ele>
        <time>2022-05-06T10:34:16.378Z</time>
      </trkpt>
      <trkpt lat="44.77118" lon="17.20526">
        <ele>157.346246</ele>
        <time>2022-05-06T10:36:01.560Z</time>
      </trkpt>
      <trkpt lat="44.7708" lon="17.19897">
        <ele>161.198726</ele>
        <time>2022-05-06T10:38:26.106Z</time>
      </trkpt>
      <trkpt lat="44.76917" lon="17.19219">
        <ele>162.536593</ele>
        <time>2022-05-06T10:42:16.813Z</time>
      </trkpt>
      <trkpt lat="44.76844" lon="17.18784">
        <ele>163.75408</ele>
        <time>2022-05-06T10:44:21.428Z</time>
      </trkpt>
      <trkpt lat="44.77107" lon="17.18252">
        <ele>166.081245</ele>
        <time>2022-05-06T10:46:42.636Z</time>
      </trkpt>
      <trkpt lat="44.77277" lon="17.17893">
        <ele>167.227861</ele>
        <time>2022-05-06T10:48:19.400Z</time>
      </trkpt>
      <trkpt lat="44.7736" lon="17.17693">
        <ele>168.804333</ele>
        <time>2022-05-06T10:49:12.051Z</time>
      </trkpt>
      <trkpt lat="44.77593" lon="17.1714">
        <ele>174.419226</ele>
        <time>2022-05-06T10:51:43.381Z</time>
      </trkpt>
      <trkpt lat="44.78147" lon="17.16536">
        <ele>184.402386</ele>
        <time>2022-05-06T10:55:39.677Z</time>
      </trkpt>
      <trkpt lat="44.78631" lon="17.15997">
        <ele>195.831793</ele>
        <time>2022-05-06T10:59:18.948Z</time>
      </trkpt>
      <trkpt lat="44.79257" lon="17.15287">
        <ele>215.76514</ele>
        <time>2022-05-06T11:04:45.839Z</time>
      </trkpt>
      <trkpt lat="44.79548" lon="17.14684">
        <ele>218.200889</ele>
        <time>2022-05-06T11:07:21.419Z</time>
      </trkpt>
      <trkpt lat="44.7969" lon="17.13864">
        <ele>226.694573</ele>
        <time>2022-05-06T11:10:45.162Z</time>
      </trkpt>
      <trkpt lat="44.7983" lon="17.13366">
        <ele>238.077204</ele>
        <time>2022-05-06T11:13:33.272Z</time>
      </trkpt>
      <trkpt lat="44.80176" lon="17.12272">
        <ele>254.641591</ele>
        <time>2022-05-06T11:18:42.415Z</time>
      </trkpt>
      <trkpt lat="44.80943" lon="17.11688">
        <ele>276.189387</ele>
        <time>2022-05-06T11:24:31.058Z</time>
      </trkpt>
      <trkpt lat="44.81281" lon="17.10644">
        <ele>285.143484</ele>
        <time>2022-05-06T11:28:48.842Z</time>
      </trkpt>
      <trkpt lat="44.81834" lon="17.09578">
        <ele>307.390564</ele>
        <time>2022-05-06T11:34:58.170Z</time>
      </trkpt>
      <trkpt lat="44.82345" lon="17.08136">
        <ele>336.268696</ele>
        <time>2022-05-06T11:42:25.870Z</time>
      </trkpt>
      <trkpt lat="44.82386" lon="17.07166">
        <ele>315.294206</ele>
        <time>2022-05-06T11:45:28.676Z</time>
      </trkpt>
      <trkpt lat="44.8259" lon="17.06636">
        <ele>284.201432</ele>
        <time>2022-05-06T11:47:03.808Z</time>
      </trkpt>
      <trkpt lat="44.81856" lon="17.06176">
        <ele>259.568884</ele>
        <time>2022-05-06T11:49:50.730Z</time>
      </trkpt>
      <trkpt lat="44.81471" lon="17.05044">
        <ele>229.292658</ele>
        <time>2022-05-06T11:53:00.060Z</time>
      </trkpt>
      <trkpt lat="44.81846" lon="17.03853">
        <ele>215.429487</ele>
        <time>2022-05-06T11:56:35.986Z</time>
      </trkpt>
      <trkpt lat="44.82325" lon="17.03305">
        <ele>209.41883</ele>
        <time>2022-05-06T11:59:06.403Z</time>
      </trkpt>
      <trkpt lat="44.82591" lon="17.02183">
        <ele>227.263059</ele>
        <time>2022-05-06T12:04:36.843Z</time>
      </trkpt>
      <trkpt lat="44.82609" lon="17.00905">
        <ele>217.637739</ele>
        <time>2022-05-06T12:08:56.310Z</time>
      </trkpt>
      <trkpt lat="44.82249" lon="17.00129">
        <ele>202.817392</ele>
        <time>2022-05-06T12:11:50.390Z</time>
      </trkpt>
      <trkpt lat="44.81905" lon="16.99644">
        <ele>199.107085</ele>
        <time>2022-05-06T12:14:16.005Z</time>
      </trkpt>
      <trkpt lat="44.82223" lon="16.98785">
        <ele>197.396339</ele>
        <time>2022-05-06T12:17:33.405Z</time>
      </trkpt>
      <trkpt lat="44.8274" lon="16.97845">
        <ele>196.706764</ele>
        <time>2022-05-06T12:21:57.631Z</time>
      </trkpt>
      <trkpt lat="44.83814" lon="16.96728">
        <ele>190.003715</ele>
        <time>2022-05-06T12:27:42.215Z</time>
      </trkpt>
      <trkpt lat="44.84338" lon="16.95919">
        <ele>181.181831</ele>
        <time>2022-05-06T12:30:49.101Z</time>
      </trkpt>
      <trkpt lat="44.84911" lon="16.95151">
        <ele>200.465146</ele>
        <time>2022-05-06T12:36:10.748Z</time>
      </trkpt>
      <trkpt lat="44.84904" lon="16.94314">
        <ele>206.080005</ele>
        <time>2022-05-06T12:39:57.159Z</time>
      </trkpt>
      <trkpt lat="44.84645" lon="16.93647">
        <ele>177.986193</ele>
        <time>2022-05-06T12:41:55.608Z</time>
      </trkpt>
      <trkpt lat="44.84512" lon="16.92716">
        <ele>166.198618</ele>
        <time>2022-05-06T12:44:56.026Z</time>
      </trkpt>
      <trkpt lat="44.84884" lon="16.91986">
        <ele>172.866539</ele>
        <time>2022-05-06T12:49:46.942Z</time>
      </trkpt>
      <trkpt lat="44.8508" lon="16.91264">
        <ele>185.019542</ele>
        <time>2022-05-06T12:53:26.637Z</time>
      </trkpt>
      <trkpt lat="44.85531" lon="16.90269">
        <ele>190.014727</ele>
        <time>2022-05-06T12:58:28.981Z</time>
      </trkpt>
      <trkpt lat="44.86528" lon="16.90023">
        <ele>165.03741</ele>
        <time>2022-05-06T13:02:31.380Z</time>
      </trkpt>
      <trkpt lat="44.86885" lon="16.90714">
        <ele>156.132268</ele>
        <time>2022-05-06T13:05:03.133Z</time>
      </trkpt>
      <trkpt lat="44.87834" lon="16.91022">
        <ele>159.064138</ele>
        <time>2022-05-06T13:10:00.546Z</time>
      </trkpt>
      <trkpt lat="44.88329" lon="16.89948">
        <ele>156.968892</ele>
        <time>2022-05-06T13:14:08.244Z</time>
      </trkpt>
      <trkpt lat="44.88884" lon="16.89372">
        <ele>162.032484</ele>
        <time>2022-05-06T13:17:57.879Z</time>
      </trkpt>
      <trkpt lat="44.89227" lon="16.88556">
        <ele>157.437685</ele>
        <time>2022-05-06T13:20:54.249Z</time>
      </trkpt>
      <trkpt lat="44.90676" lon="16.85874">
        <ele>156.370012</ele>
        <time>2022-05-06T13:31:58.825Z</time>
      </trkpt>
      <trkpt lat="44.91599" lon="16.83932">
        <ele>148.043188</ele>
        <time>2022-05-06T13:39:12.939Z</time>
      </trkpt>
      <trkpt lat="44.927" lon="16.81555">
        <ele>145.497055</ele>
        <time>2022-05-06T13:48:21.025Z</time>
      </trkpt>
      <trkpt lat="44.93596" lon="16.80223">
        <ele>146.437092</ele>
        <time>2022-05-06T13:54:56.797Z</time>
      </trkpt>
      <trkpt lat="44.93991" lon="16.7966">
        <ele>146.160088</ele>
        <time>2022-05-06T13:58:11.496Z</time>
      </trkpt>
      <trkpt lat="44.94217" lon="16.78969">
        <ele>143.494544</ele>
        <time>2022-05-06T14:00:55.946Z</time>
      </trkpt>
      <trkpt lat="44.94693" lon="16.78927">
        <ele>146.143854</ele>
        <time>2022-05-06T14:03:59.908Z</time>
      </trkpt>
      <trkpt lat="44.95252" lon="16.78396">
        <ele>146.917563</ele>
        <time>2022-05-06T14:07:17.963Z</time>
      </trkpt>
      <trkpt lat="44.95837" lon="16.77475">
        <ele>143.496397</ele>
        <time>2022-05-06T14:11:12.704Z</time>
      </trkpt>
      <trkpt lat="44.96428" lon="16.76515">
        <ele>145.473868</ele>
        <time>2022-05-06T14:15:27.745Z</time>
      </trkpt>
      <trkpt lat="44.96906" lon="16.75211">
        <ele>143.225957</ele>
        <time>2022-05-06T14:20:08.162Z</time>
      </trkpt>
      <trkpt lat="44.97272" lon="16.74865">
        <ele>143.391753</ele>
        <time>2022-05-06T14:22:15.273Z</time>
      </trkpt>
      <trkpt lat="44.97198" lon="16.73985">
        <ele>140.313051</ele>
        <time>2022-05-06T14:25:05.060Z</time>
      </trkpt>
      <trkpt lat="44.97448" lon="16.72733">
        <ele>138.383866</ele>
        <time>2022-05-06T14:29:23.743Z</time>
      </trkpt>
      <trkpt lat="44.97755" lon="16.72249">
        <ele>140.710105</ele>
        <time>2022-05-06T14:32:13.509Z</time>
      </trkpt>
      <trkpt lat="44.98031" lon="16.71727">
        <ele>140.769848</ele>
        <time>2022-05-06T14:34:18.301Z</time>
      </trkpt>
      <trkpt lat="44.98432" lon="16.71672">
        <ele>141.021713</ele>
        <time>2022-05-06T14:36:41.888Z</time>
      </trkpt>
      <trkpt lat="44.98908" lon="16.71984">
        <ele>145.458972</ele>
        <time>2022-05-06T14:39:44.029Z</time>
      </trkpt>
      <trkpt lat="44.99426" lon="16.72075">
        <ele>150.847485</ele>
        <time>2022-05-06T14:43:03.369Z</time>
      </trkpt>
      <trkpt lat="45.0016" lon="16.72656">
        <ele>162.160363</ele>
        <time>2022-05-06T14:48:07.100Z</time>
      </trkpt>
      <trkpt lat="45.00804" lon="16.73383">
        <ele>167.136151</ele>
        <time>2022-05-06T14:52:49.711Z</time>
      </trkpt>
      <trkpt lat="45.01748" lon="16.73069">
        <ele>200.571838</ele>
        <time>2022-05-06T14:59:47.426Z</time>
      </trkpt>
      <trkpt lat="45.02209" lon="16.72862">
        <ele>227.919006</ele>
        <time>2022-05-06T15:04:48.677Z</time>
      </trkpt>
      <trkpt lat="45.02858" lon="16.72795">
        <ele>257.615107</ele>
        <time>2022-05-06T15:10:17.081Z</time>
      </trkpt>
      <trkpt lat="45.03318" lon="16.72734">
        <ele>281.20009</ele>
        <time>2022-05-06T15:14:38.945Z</time>
      </trkpt>
      <trkpt lat="45.04025" lon="16.72309">
        <ele>279.939197</ele>
        <time>2022-05-06T15:18:32.831Z</time>
      </trkpt>
      <trkpt lat="45.03944" lon="16.72806">
        <ele>262.886054</ele>
        <time>2022-05-06T15:19:53.244Z</time>
      </trkpt>
      <trkpt lat="45.04367" lon="16.7265">
        <ele>236.002492</ele>
        <time>2022-05-06T15:21:39.922Z</time>
      </trkpt>
      <trkpt lat="45.05004" lon="16.71794">
        <ele>214.932476</ele>
        <time>2022-05-06T15:24:56.699Z</time>
      </trkpt>
      <trkpt lat="45.0579" lon="16.71379">
        <ele>206.30603</ele>
        <time>2022-05-06T15:28:28.138Z</time>
      </trkpt>
      <trkpt lat="45.06745" lon="16.7037">
        <ele>190.842213</ele>
        <time>2022-05-06T15:33:03.320Z</time>
      </trkpt>
      <trkpt lat="45.07211" lon="16.70626">
        <ele>190.516892</ele>
        <time>2022-05-06T15:36:25.831Z</time>
      </trkpt>
      <trkpt lat="45.07915" lon="16.7126">
        <ele>229.500985</ele>
        <time>2022-05-06T15:43:43.398Z</time>
      </trkpt>
      <trkpt lat="45.0797" lon="16.72212">
        <ele>270.040954</ele>
        <time>2022-05-06T15:50:14.213Z</time>
      </trkpt>
      <trkpt lat="45.07856" lon="16.73317">
        <ele>278.020433</ele>
        <time>2022-05-06T15:54:49.303Z</time>
      </trkpt>
      <trkpt lat="45.08382" lon="16.73837">
        <ele>230.844661</ele>
        <time>2022-05-06T15:57:13.895Z</time>
      </trkpt>
      <trkpt lat="45.08599" lon="16.74301">
        <ele>187.580047</ele>
        <time>2022-05-06T15:58:52.994Z</time>
      </trkpt>
      <trkpt lat="45.08587" lon="16.7489">
        <ele>200.101064</ele>
        <time>2022-05-06T16:02:35.572Z</time>
      </trkpt>
      <trkpt lat="45.09239" lon="16.74985">
        <ele>184.083994</ele>
        <time>2022-05-06T16:05:10.673Z</time>
      </trkpt>
      <trkpt lat="45.0993" lon="16.74458">
        <ele>172.896845</ele>
        <time>2022-05-06T16:08:14.781Z</time>
      </trkpt>
      <trkpt lat="45.10495" lon="16.74024">
        <ele>168.211692</ele>
        <time>2022-05-06T16:11:03.548Z</time>
      </trkpt>
      <trkpt lat="45.11068" lon="16.74061">
        <ele>159.874223</ele>
        <time>2022-05-06T16:13:19.650Z</time>
      </trkpt>
      <trkpt lat="45.11831" lon="16.74263">
        <ele>163.363616</ele>
        <time>2022-05-06T16:17:16.850Z</time>
      </trkpt>
      <trkpt lat="45.1267" lon="16.74195">
        <ele>130.165408</ele>
        <time>2022-05-06T16:20:01.483Z</time>
      </trkpt>
      <trkpt lat="45.13394" lon="16.76149">
        <ele>121.452304</ele>
        <time>2022-05-06T16:27:27.097Z</time>
      </trkpt>
      <trkpt lat="45.13896" lon="16.77379">
        <ele>134.493418</ele>
        <time>2022-05-06T16:33:13.471Z</time>
      </trkpt>
      <trkpt lat="45.14377" lon="16.78007">
        <ele>167.843035</ele>
        <time>2022-05-06T16:39:52.588Z</time>
      </trkpt>
      <trkpt lat="45.15015" lon="16.78698">
        <ele>175.290206</ele>
        <time>2022-05-06T16:44:17.814Z</time>
      </trkpt>
      <trkpt lat="45.15171" lon="16.79486">
        <ele>185.085678</ele>
        <time>2022-05-06T16:47:58.427Z</time>
      </trkpt>
      <trkpt lat="45.15864" lon="16.79905">
        <ele>152.953792</ele>
        <time>2022-05-06T16:50:33.565Z</time>
      </trkpt>
      <trkpt lat="45.16112" lon="16.80365">
        <ele>137.860053</ele>
        <time>2022-05-06T16:52:16.149Z</time>
      </trkpt>
      <trkpt lat="45.16636" lon="16.8063">
        <ele>111.723968</ele>
        <time>2022-05-06T16:54:39.428Z</time>
      </trkpt>
      <trkpt lat="45.17215" lon="16.8092">
        <ele>109.142439</ele>
        <time>2022-05-06T16:57:35.880Z</time>
      </trkpt>
      <trkpt lat="45.18001" lon="16.81032">
        <ele>98.409139</ele>
        <time>2022-05-06T17:00:51.510Z</time>
      </trkpt>
      <trkpt lat="45.18426" lon="16.80868">
        <ele>98.386137</ele>
        <time>2022-05-06T17:03:28.345Z</time>
      </trkpt>
      <trkpt lat="45.1892" lon="16.79886">
        <ele>99.154364</ele>
        <time>2022-05-06T17:08:37.501Z</time>
      </trkpt>
      <trkpt lat="45.19032" lon="16.79438">
        <ele>97.77306</ele>
        <time>2022-05-06T17:10:00.026Z</time>
      </trkpt>
      <trkpt lat="45.20191" lon="16.75863">
        <ele>102.161433</ele>
        <time>2022-05-06T17:22:42.946Z</time>
      </trkpt>
      <trkpt lat="45.20711" lon="16.73934">
        <ele>104.59612</ele>
        <time>2022-05-06T17:29:32.071Z</time>
      </trkpt>
      <trkpt lat="45.20938" lon="16.71627">
        <ele>103.332883</ele>
        <time>2022-05-06T17:36:54.305Z</time>
      </trkpt>
      <trkpt lat="45.20391" lon="16.69335">
        <ele>102.710111</ele>
        <time>2022-05-06T17:44:31.004Z</time>
      </trkpt>
      <trkpt lat="45.20887" lon="16.67268">
        <ele>110.133251</ele>
        <time>2022-05-06T17:52:05.847Z</time>
      </trkpt>
      <trkpt lat="45.21274" lon="16.65352">
        <ele>109.100421</ele>
        <time>2022-05-06T17:58:28.519Z</time>
      </trkpt>
      <trkpt lat="45.21795" lon="16.63121">
        <ele>108.495267</ele>
        <time>2022-05-06T18:06:13.755Z</time>
      </trkpt>
      <trkpt lat="45.22527" lon="16.6196">
        <ele>103.648808</ele>
        <time>2022-05-06T18:11:07.284Z</time>
      </trkpt>
      <trkpt lat="45.22965" lon="16.57967">
        <ele>104.356238</ele>
        <time>2022-05-06T18:24:44.492Z</time>
      </trkpt>
      <trkpt lat="45.2238" lon="16.55388">
        <ele>110.273759</ele>
        <time>2022-05-06T18:33:49.797Z</time>
      </trkpt>
      <trkpt lat="45.2225" lon="16.54897">
        <ele>106.918521</ele>
        <time>2022-05-06T18:35:23.852Z</time>
      </trkpt>
      <trkpt lat="45.22764" lon="16.54141">
        <ele>111.508901</ele>
        <time>2022-05-06T18:39:20.066Z</time>
      </trkpt>
      <trkpt lat="45.23036" lon="16.53369">
        <ele>129.954721</ele>
        <time>2022-05-06T18:43:42.960Z</time>
      </trkpt>
      <trkpt lat="45.23259" lon="16.53049">
        <ele>153.374642</ele>
        <time>2022-05-06T18:47:11.954Z</time>
      </trkpt>
      <trkpt lat="45.23741" lon="16.52708">
        <ele>172.232005</ele>
        <time>2022-05-06T18:51:39.428Z</time>
      </trkpt>
      <trkpt lat="45.24822" lon="16.51799">
        <ele>154.353127</ele>
        <time>2022-05-06T18:56:29.235Z</time>
      </trkpt>
      <trkpt lat="45.26967" lon="16.47379">
        <ele>154.250853</ele>
        <time>2022-05-06T19:13:33.577Z</time>
      </trkpt>
      <trkpt lat="45.28963" lon="16.43736">
        <ele>173.200559</ele>
        <time>2022-05-06T19:29:46.561Z</time>
      </trkpt>
      <trkpt lat="45.29742" lon="16.4319">
        <ele>180.539074</ele>
        <time>2022-05-06T19:34:16.921Z</time>
      </trkpt>
      <trkpt lat="45.30306" lon="16.4203">
        <ele>191.570307</ele>
        <time>2022-05-06T19:39:47.900Z</time>
      </trkpt>
      <trkpt lat="45.31058" lon="16.41299">
        <ele>195.737582</ele>
        <time>2022-05-06T19:44:26.578Z</time>
      </trkpt>
      <trkpt lat="45.31958" lon="16.39977">
        <ele>212.761339</ele>
        <time>2022-05-06T19:52:02.993Z</time>
      </trkpt>
      <trkpt lat="45.33331" lon="16.38968">
        <ele>247.735659</ele>
        <time>2022-05-06T20:01:51.673Z</time>
      </trkpt>
      <trkpt lat="45.3396" lon="16.38215">
        <ele>239.991109</ele>
        <time>2022-05-06T20:06:33.539Z</time>
      </trkpt>
      <trkpt lat="45.34529" lon="16.37536">
        <ele>181.631969</ele>
        <time>2022-05-06T20:08:48.473Z</time>
      </trkpt>
      <trkpt lat="45.35296" lon="16.37185">
        <ele>180.84362</ele>
        <time>2022-05-06T20:14:06.394Z</time>
      </trkpt>
      <trkpt lat="45.3573" lon="16.36456">
        <ele>191.386805</ele>
        <time>2022-05-06T20:19:14.127Z</time>
      </trkpt>
      <trkpt lat="45.36505" lon="16.35145">
        <ele>158.195841</ele>
        <time>2022-05-06T20:24:15.781Z</time>
      </trkpt>
      <trkpt lat="45.36878" lon="16.33753">
        <ele>205.24603</ele>
        <time>2022-05-06T20:33:13.832Z</time>
      </trkpt>
      <trkpt lat="45.37232" lon="16.33108">
        <ele>185.768466</ele>
        <time>2022-05-06T20:35:32.556Z</time>
      </trkpt>
      <trkpt lat="45.3784" lon="16.31967">
        <ele>154.59756</ele>
        <time>2022-05-06T20:38:56.726Z</time>
      </trkpt>
      <trkpt lat="45.38354" lon="16.31358">
        <ele>154.726646</ele>
        <time>2022-05-06T20:42:04.325Z</time>
      </trkpt>
      <trkpt lat="45.39661" lon="16.3049">
        <ele>125.396955</ele>
        <time>2022-05-06T20:47:09.790Z</time>
      </trkpt>
      <trkpt lat="45.40699" lon="16.2994">
        <ele>116.368229</ele>
        <time>2022-05-06T20:51:37.430Z</time>
      </trkpt>
      <trkpt lat="45.41724" lon="16.29141">
        <ele>109.664524</ele>
        <time>2022-05-06T20:56:27.451Z</time>
      </trkpt>
      <trkpt lat="45.42181" lon="16.28735">
        <ele>108.568484</ele>
        <time>2022-05-06T20:58:47.625Z</time>
      </trkpt>
      <trkpt lat="45.4254" lon="16.28412">
        <ele>105.682489</ele>
        <time>2022-05-06T21:00:29.374Z</time>
      </trkpt>
      <trkpt lat="45.43155" lon="16.27875">
        <ele>104.282543</ele>
        <time>2022-05-06T21:03:41.569Z</time>
      </trkpt>
      <trkpt lat="45.43655" lon="16.27785">
        <ele>105.104053</ele>
        <time>2022-05-06T21:06:02.683Z</time>
      </trkpt>
      <trkpt lat="45.44086" lon="16.27954">
        <ele>110.6372</ele>
        <time>2022-05-06T21:08:41.364Z</time>
      </trkpt>
      <trkpt lat="45.4416" lon="16.29078">
        <ele>107.968386</ele>
        <time>2022-05-06T21:12:08.028Z</time>
      </trkpt>
      <trkpt lat="45.44077" lon="16.29654">
        <ele>114.046832</ele>
        <time>2022-05-06T21:14:29.532Z</time>
      </trkpt>
      <trkpt lat="45.44222" lon="16.30434">
        <ele>111.101926</ele>
        <time>2022-05-06T21:17:09.161Z</time>
      </trkpt>
      <trkpt lat="45.44423" lon="16.31054">
        <ele>106.656723</ele>
        <time>2022-05-06T21:19:03.494Z</time>
      </trkpt>
      <trkpt lat="45.44244" lon="16.32908">
        <ele>105.906889</ele>
        <time>2022-05-06T21:24:58.571Z</time>
      </trkpt>
      <trkpt lat="45.44038" lon="16.34332">
        <ele>103.887661</ele>
        <time>2022-05-06T21:29:27.283Z</time>
      </trkpt>
      <trkpt lat="45.43904" lon="16.35019">
        <ele>99.509742</ele>
        <time>2022-05-06T21:31:28.849Z</time>
      </trkpt>
      <trkpt lat="45.44009" lon="16.35853">
        <ele>98.978415</ele>
        <time>2022-05-06T21:34:07.857Z</time>
      </trkpt>
      <trkpt lat="45.44344" lon="16.36773">
        <ele>101.390906</ele>
        <time>2022-05-06T21:37:36.300Z</time>
      </trkpt>
      <trkpt lat="45.45203" lon="16.37053">
        <ele>106.865725</ele>
        <time>2022-05-06T21:42:01.440Z</time>
      </trkpt>
      <trkpt lat="45.45948" lon="16.37166">
        <ele>104.729345</ele>
        <time>2022-05-06T21:45:13.189Z</time>
      </trkpt>
      <trkpt lat="45.46602" lon="16.36995">
        <ele>111.37314</ele>
        <time>2022-05-06T21:48:54.490Z</time>
      </trkpt>
      <trkpt lat="45.47137" lon="16.36647">
        <ele>123.116629</ele>
        <time>2022-05-06T21:52:30.177Z</time>
      </trkpt>
      <trkpt lat="45.47652" lon="16.36805">
        <ele>119.122855</ele>
        <time>2022-05-06T21:54:40.157Z</time>
      </trkpt>
      <trkpt lat="45.47985" lon="16.3705">
        <ele>101.457201</ele>
        <time>2022-05-06T21:56:17.074Z</time>
      </trkpt>
      <trkpt lat="45.48312" lon="16.37143">
        <ele>101.047354</ele>
        <time>2022-05-06T21:59:17.239Z</time>
      </trkpt>
      <trkpt lat="45.48315" lon="16.37123">
        <ele>100.35762</ele>
        <time>2022-05-06T22:00:20.767Z</time>
      </trkpt>
      <trkpt lat="45.48277" lon="16.37345">
        <ele>99.334073</ele>
        <time>2022-05-06T22:01:33.355Z</time>
      </trkpt>
      <trkpt lat="45.48512" lon="16.37432">
        <ele>100.343144</ele>
        <time>2022-05-06T22:03:36.442Z</time>
      </trkpt>
      <trkpt lat="45.48795" lon="16.37636">
        <ele>99.592661</ele>
        <time>2022-05-06T22:05:10.697Z</time>
      </trkpt>
      <trkpt lat="45.49488" lon="16.3767">
        <ele>96.724481</ele>
        <time>2022-05-06T22:08:09.215Z</time>
      </trkpt>
      <trkpt lat="45.49621" lon="16.37377">
        <ele>96.968178</ele>
        <time>2022-05-06T22:09:54.136Z</time>
      </trkpt>
      <trkpt lat="45.50514" lon="16.37723">
        <ele>96.847922</ele>
        <time>2022-05-06T22:14:02.445Z</time>
      </trkpt>
      <trkpt lat="45.51237" lon="16.37932">
        <ele>97.0517</ele>
        <time>2022-05-06T22:17:23.437Z</time>
      </trkpt>
      <trkpt lat="45.51676" lon="16.37949">
        <ele>96.799443</ele>
        <time>2022-05-06T22:19:22.683Z</time>
      </trkpt>
      <trkpt lat="45.5224" lon="16.37733">
        <ele>95.969487</ele>
        <time>2022-05-06T22:22:30.799Z</time>
      </trkpt>
      <trkpt lat="45.52811" lon="16.37968">
        <ele>95.594024</ele>
        <time>2022-05-06T22:25:07.821Z</time>
      </trkpt>
      <trkpt lat="45.53396" lon="16.37844">
        <ele>95.513607</ele>
        <time>2022-05-06T22:27:57.463Z</time>
      </trkpt>
      <trkpt lat="45.54195" lon="16.3788">
        <ele>97.77315</ele>
        <time>2022-05-06T22:31:58.145Z</time>
      </trkpt>
      <trkpt lat="45.56347" lon="16.37698">
        <ele>96.411627</ele>
        <time>2022-05-06T22:41:45.886Z</time>
      </trkpt>
      <trkpt lat="45.57042" lon="16.37517">
        <ele>97.233923</ele>
        <time>2022-05-06T22:45:09.066Z</time>
      </trkpt>
      <trkpt lat="45.57721" lon="16.37752">
        <ele>97.825086</ele>
        <time>2022-05-06T22:48:36.712Z</time>
      </trkpt>
      <trkpt lat="45.58395" lon="16.37623">
        <ele>98.769783</ele>
        <time>2022-05-06T22:52:52.516Z</time>
      </trkpt>
      <trkpt lat="45.58933" lon="16.36067">
        <ele>97.873541</ele>
        <time>2022-05-06T22:59:05.095Z</time>
      </trkpt>
      <trkpt lat="45.59528" lon="16.34881">
        <ele>98.42281</ele>
        <time>2022-05-06T23:04:41.935Z</time>
      </trkpt>
      <trkpt lat="45.59921" lon="16.35168">
        <ele>97.590195</ele>
        <time>2022-05-06T23:07:01.253Z</time>
      </trkpt>
      <trkpt lat="45.60264" lon="16.36261">
        <ele>98.596172</ele>
        <time>2022-05-06T23:12:32.683Z</time>
      </trkpt>
      <trkpt lat="45.61066" lon="16.35498">
        <ele>97.389056</ele>
        <time>2022-05-06T23:17:00.877Z</time>
      </trkpt>
      <trkpt lat="45.62316" lon="16.35166">
        <ele>97.950016</ele>
        <time>2022-05-06T23:23:22.363Z</time>
      </trkpt>
      <trkpt lat="45.62739" lon="16.3459">
        <ele>97.692489</ele>
        <time>2022-05-06T23:26:42.346Z</time>
      </trkpt>
      <trkpt lat="45.63252" lon="16.33986">
        <ele>97.680533</ele>
        <time>2022-05-06T23:30:01.962Z</time>
      </trkpt>
      <trkpt lat="45.64044" lon="16.3446">
        <ele>98.950542</ele>
        <time>2022-05-06T23:33:58.223Z</time>
      </trkpt>
      <trkpt lat="45.64709" lon="16.34363">
        <ele>97.457665</ele>
        <time>2022-05-06T23:37:13.941Z</time>
      </trkpt>
      <trkpt lat="45.64425" lon="16.31963">
        <ele>96.703243</ele>
        <time>2022-05-06T23:45:01.945Z</time>
      </trkpt>
      <trkpt lat="45.64023" lon="16.30391">
        <ele>101.215968</ele>
        <time>2022-05-06T23:50:48.007Z</time>
      </trkpt>
      <trkpt lat="45.6456" lon="16.29557">
        <ele>98.105613</ele>
        <time>2022-05-06T23:55:32.199Z</time>
      </trkpt>
      <trkpt lat="45.65578" lon="16.2908">
        <ele>99.630711</ele>
        <time>2022-05-07T00:00:41.884Z</time>
      </trkpt>
      <trkpt lat="45.66267" lon="16.29518">
        <ele>100.416223</ele>
        <time>2022-05-07T00:04:17.901Z</time>
      </trkpt>
      <trkpt lat="45.67023" lon="16.2903">
        <ele>99.888201</ele>
        <time>2022-05-07T00:08:27.382Z</time>
      </trkpt>
      <trkpt lat="45.67316" lon="16.28994">
        <ele>98.038757</ele>
        <time>2022-05-07T00:09:50.379Z</time>
      </trkpt>
      <trkpt lat="45.66909" lon="16.27121">
        <ele>97.917889</ele>
        <time>2022-05-07T00:16:00.670Z</time>
      </trkpt>
      <trkpt lat="45.67778" lon="16.25589">
        <ele>99.367401</ele>
        <time>2022-05-07T00:22:23.784Z</time>
      </trkpt>
      <trkpt lat="45.68183" lon="16.25295">
        <ele>99.592539</ele>
        <time>2022-05-07T00:24:33.915Z</time>
      </trkpt>
      <trkpt lat="45.68658" lon="16.24848">
        <ele>100.064238</ele>
        <time>2022-05-07T00:27:29.742Z</time>
      </trkpt>
      <trkpt lat="45.69264" lon="16.2423">
        <ele>100.008978</ele>
        <time>2022-05-07T00:31:51.018Z</time>
      </trkpt>
      <trkpt lat="45.69699" lon="16.23788">
        <ele>99.488828</ele>
        <time>2022-05-07T00:34:15.761Z</time>
      </trkpt>
      <trkpt lat="45.71125" lon="16.2268">
        <ele>99.909489</ele>
        <time>2022-05-07T00:41:42.365Z</time>
      </trkpt>
      <trkpt lat="45.72415" lon="16.22075">
        <ele>98.952235</ele>
        <time>2022-05-07T00:47:45.088Z</time>
      </trkpt>
      <trkpt lat="45.74254" lon="16.23244">
        <ele>99.115137</ele>
        <time>2022-05-07T00:56:44.880Z</time>
      </trkpt>
      <trkpt lat="45.75195" lon="16.23225">
        <ele>100.211092</ele>
        <time>2022-05-07T01:01:05.732Z</time>
      </trkpt>
      <trkpt lat="45.76022" lon="16.22146">
        <ele>99.986434</ele>
        <time>2022-05-07T01:06:49.096Z</time>
      </trkpt>
      <trkpt lat="45.7592" lon="16.20901">
        <ele>100.168994</ele>
        <time>2022-05-07T01:10:57.139Z</time>
      </trkpt>
      <trkpt lat="45.76407" lon="16.19864">
        <ele>100.10036</ele>
        <time>2022-05-07T01:15:10.609Z</time>
      </trkpt>
      <trkpt lat="45.76525" lon="16.1884">
        <ele>100.305087</ele>
        <time>2022-05-07T01:18:45.275Z</time>
      </trkpt>
      <trkpt lat="45.76939" lon="16.17826">
        <ele>101.148815</ele>
        <time>2022-05-07T01:22:46.536Z</time>
      </trkpt>
      <trkpt lat="45.77628" lon="16.17721">
        <ele>101.990342</ele>
        <time>2022-05-07T01:26:15.897Z</time>
      </trkpt>
      <trkpt lat="45.77891" lon="16.1708">
        <ele>101.155718</ele>
        <time>2022-05-07T01:29:31.590Z</time>
      </trkpt>
      <trkpt lat="45.77954" lon="16.16188">
        <ele>102.314807</ele>
        <time>2022-05-07T01:32:26.574Z</time>
      </trkpt>
      <trkpt lat="45.78264" lon="16.15314">
        <ele>102.761574</ele>
        <time>2022-05-07T01:35:44.876Z</time>
      </trkpt>
      <trkpt lat="45.7881" lon="16.1474">
        <ele>104.17484</ele>
        <time>2022-05-07T01:38:57.054Z</time>
      </trkpt>
      <trkpt lat="45.79163" lon="16.14394">
        <ele>103.841265</ele>
        <time>2022-05-07T01:40:56.513Z</time>
      </trkpt>
      <trkpt lat="45.78972" lon="16.13532">
        <ele>104.890838</ele>
        <time>2022-05-07T01:44:13.121Z</time>
      </trkpt>
      <trkpt lat="45.79303" lon="16.12525">
        <ele>103.979389</ele>
        <time>2022-05-07T01:47:45.142Z</time>
      </trkpt>
      <trkpt lat="45.79769" lon="16.11965">
        <ele>105.158186</ele>
        <time>2022-05-07T01:51:06.993Z</time>
      </trkpt>
      <trkpt lat="45.79982" lon="16.11207">
        <ele>104.290312</ele>
        <time>2022-05-07T01:53:41.478Z</time>
      </trkpt>
      <trkpt lat="45.79989" lon="16.10765">
        <ele>105.243738</ele>
        <time>2022-05-07T01:55:13.061Z</time>
      </trkpt>
      <trkpt lat="45.80175" lon="16.10181">
        <ele>108.509793</ele>
        <time>2022-05-07T01:57:35.791Z</time>
      </trkpt>
      <trkpt lat="45.80074" lon="16.09422">
        <ele>106.22864</ele>
        <time>2022-05-07T01:59:55.203Z</time>
      </trkpt>
      <trkpt lat="45.80201" lon="16.08921">
        <ele>107.24859</ele>
        <time>2022-05-07T02:01:40.386Z</time>
      </trkpt>
      <trkpt lat="45.80219" lon="16.08316">
        <ele>109.54649</ele>
        <time>2022-05-07T02:03:54.607Z</time>
      </trkpt>
      <trkpt lat="45.80147" lon="16.07775">
        <ele>109.539588</ele>
        <time>2022-05-07T02:06:37.295Z</time>
      </trkpt>
      <trkpt lat="45.80165" lon="16.06382">
        <ele>107.802529</ele>
        <time>2022-05-07T02:11:12.388Z</time>
      </trkpt>
      <trkpt lat="45.80047" lon="16.05634">
        <ele>109.783543</ele>
        <time>2022-05-07T02:13:54.122Z</time>
      </trkpt>
      <trkpt lat="45.79916" lon="16.04813">
        <ele>107.897076</ele>
        <time>2022-05-07T02:16:24.217Z</time>
      </trkpt>
      <trkpt lat="45.79747" lon="16.03857">
        <ele>109.226749</ele>
        <time>2022-05-07T02:19:40.104Z</time>
      </trkpt>
      <trkpt lat="45.79933" lon="16.03434">
        <ele>109.924318</ele>
        <time>2022-05-07T02:22:26.545Z</time>
      </trkpt>
      <trkpt lat="45.80103" lon="16.03103">
        <ele>111.279703</ele>
        <time>2022-05-07T02:24:38.568Z</time>
      </trkpt>
      <trkpt lat="45.80392" lon="16.02566">
        <ele>111.677141</ele>
        <time>2022-05-07T02:28:18.822Z</time>
      </trkpt>
      <trkpt lat="45.80468" lon="16.0233">
        <ele>112.987687</ele>
        <time>2022-05-07T02:30:29.354Z</time>
      </trkpt>
      <trkpt lat="45.80369" lon="16.01782">
        <ele>111.659221</ele>
        <time>2022-05-07T02:33:04.892Z</time>
      </trkpt>
      <trkpt lat="45.80303" lon="16.01303">
        <ele>111.923491</ele>
        <time>2022-05-07T02:35:44.731Z</time>
      </trkpt>
      <trkpt lat="45.80444" lon="16.00877">
        <ele>112.511446</ele>
        <time>2022-05-07T02:38:06.964Z</time>
      </trkpt>
      <trkpt lat="45.80816" lon="16.00485">
        <ele>114.518747</ele>
        <time>2022-05-07T02:41:46.804Z</time>
      </trkpt>
      <trkpt lat="45.80935" lon="16.00359">
        <ele>113.891153</ele>
        <time>2022-05-07T02:42:54.817Z</time>
      </trkpt>
      <trkpt lat="45.80887" lon="16.00167">
        <ele>114.004558</ele>
        <time>2022-05-07T02:43:48.535Z</time>
      </trkpt>
      <trkpt lat="45.80791" lon="15.99797">
        <ele>115.526599</ele>
        <time>2022-05-07T02:45:13.167Z</time>
      </trkpt>
      <trkpt lat="45.80652" lon="15.99263">
        <ele>116.270209</ele>
        <time>2022-05-07T02:47:03.256Z</time>
      </trkpt>
      <trkpt lat="45.80846" lon="15.98984">
        <ele>120.283797</ele>
        <time>2022-05-07T02:48:42.943Z</time>
      </trkpt>
      <trkpt lat="45.8104" lon="15.98709">
        <ele>122.039414</ele>
        <time>2022-05-07T02:50:32.622Z</time>
      </trkpt>
      <trkpt lat="45.80984" lon="15.9837">
        <ele>124.267166</ele>
        <time>2022-05-07T02:51:59.955Z</time>
      </trkpt>
      <trkpt lat="45.81084" lon="15.9799">
        <ele>128.704844</ele>
        <time>2022-05-07T02:54:14.295Z</time>
      </trkpt>
      <trkpt lat="45.81274" lon="15.97759">
        <ele>132.998383</ele>
        <time>2022-05-07T02:57:18.695Z</time>
      </trkpt>
      <trkpt lat="45.81298" lon="15.97697">
        <ele>132.998383</ele>
        <time>2022-05-07T02:57:57.766Z</time>
      </trkpt>
    </trkseg>
  </trk>
</gpx>